<?xml version="1.0" encoding="UTF-8" standalone="no" ?>
<gpx xmlns="http://www.topografix.com/GPX/1/1" xmlns:xsi="http://www.w3.org/2001/XMLSchema-instance" xsi:schemaLocation="http://www.topografix.com/GPX/1/1 http://www.topografix.com/GPX/1/1/gpx.xsd" version="1.1" creator="VisuGPX - https://www.visugpx.com">
  <metadata>
    <name>CDS 2016 jour 1</name>
    <desc><![CDATA[Jour 1 du raid des chemins du Soleil]]></desc>
  </metadata>
  <trk>
    <name><![CDATA[CDS 2016]]></name>
    <trkseg>
      <trkpt lat="44.53828" lon="6.05996">
        <ele>727.59997558594</ele>
        <time>2016-05-06T06:16:52Z</time>
      </trkpt>
      <trkpt lat="44.53817" lon="6.06007">
        <ele>727.40002441406</ele>
        <time>2016-05-06T06:16:57Z</time>
      </trkpt>
      <trkpt lat="44.53812" lon="6.06008">
        <ele>727.40002441406</ele>
        <time>2016-05-06T06:16:58Z</time>
      </trkpt>
      <trkpt lat="44.53806" lon="6.06009">
        <ele>727.40002441406</ele>
        <time>2016-05-06T06:16:59Z</time>
      </trkpt>
      <trkpt lat="44.53795" lon="6.06004">
        <ele>727.40002441406</ele>
        <time>2016-05-06T06:17:01Z</time>
      </trkpt>
      <trkpt lat="44.53783" lon="6.0598">
        <ele>727.40002441406</ele>
        <time>2016-05-06T06:17:05Z</time>
      </trkpt>
      <trkpt lat="44.53762" lon="6.05939">
        <ele>727.40002441406</ele>
        <time>2016-05-06T06:17:12Z</time>
      </trkpt>
      <trkpt lat="44.53732" lon="6.05891">
        <ele>727.40002441406</ele>
        <time>2016-05-06T06:17:20Z</time>
      </trkpt>
      <trkpt lat="44.53697" lon="6.05835">
        <ele>727.40002441406</ele>
        <time>2016-05-06T06:17:29Z</time>
      </trkpt>
      <trkpt lat="44.53665" lon="6.05794">
        <ele>727</ele>
        <time>2016-05-06T06:17:36Z</time>
      </trkpt>
      <trkpt lat="44.5366" lon="6.05789">
        <ele>726.40002441406</ele>
        <time>2016-05-06T06:17:37Z</time>
      </trkpt>
      <trkpt lat="44.53656" lon="6.05784">
        <ele>726</ele>
        <time>2016-05-06T06:17:38Z</time>
      </trkpt>
      <trkpt lat="44.53651" lon="6.05778">
        <ele>725.59997558594</ele>
        <time>2016-05-06T06:17:39Z</time>
      </trkpt>
      <trkpt lat="44.53647" lon="6.05772">
        <ele>725.20001220703</ele>
        <time>2016-05-06T06:17:40Z</time>
      </trkpt>
      <trkpt lat="44.53632" lon="6.05748">
        <ele>725.20001220703</ele>
        <time>2016-05-06T06:17:44Z</time>
      </trkpt>
      <trkpt lat="44.53627" lon="6.05741">
        <ele>725.20001220703</ele>
        <time>2016-05-06T06:17:45Z</time>
      </trkpt>
      <trkpt lat="44.53605" lon="6.05698">
        <ele>725.20001220703</ele>
        <time>2016-05-06T06:17:51Z</time>
      </trkpt>
      <trkpt lat="44.53603" lon="6.05691">
        <ele>725.20001220703</ele>
        <time>2016-05-06T06:17:52Z</time>
      </trkpt>
      <trkpt lat="44.53593" lon="6.0565">
        <ele>725.20001220703</ele>
        <time>2016-05-06T06:17:58Z</time>
      </trkpt>
      <trkpt lat="44.53576" lon="6.05635">
        <ele>725.59997558594</ele>
        <time>2016-05-06T06:18:02Z</time>
      </trkpt>
      <trkpt lat="44.53571" lon="6.05632">
        <ele>726</ele>
        <time>2016-05-06T06:18:03Z</time>
      </trkpt>
      <trkpt lat="44.53567" lon="6.0563">
        <ele>726.40002441406</ele>
        <time>2016-05-06T06:18:04Z</time>
      </trkpt>
      <trkpt lat="44.53563" lon="6.05628">
        <ele>726.79998779297</ele>
        <time>2016-05-06T06:18:05Z</time>
      </trkpt>
      <trkpt lat="44.53559" lon="6.05626">
        <ele>727.20001220703</ele>
        <time>2016-05-06T06:18:06Z</time>
      </trkpt>
      <trkpt lat="44.53542" lon="6.05618">
        <ele>727.20001220703</ele>
        <time>2016-05-06T06:18:10Z</time>
      </trkpt>
      <trkpt lat="44.53519" lon="6.05604">
        <ele>727.20001220703</ele>
        <time>2016-05-06T06:18:16Z</time>
      </trkpt>
      <trkpt lat="44.53502" lon="6.05592">
        <ele>727.59997558594</ele>
        <time>2016-05-06T06:18:21Z</time>
      </trkpt>
      <trkpt lat="44.53498" lon="6.0559">
        <ele>728</ele>
        <time>2016-05-06T06:18:22Z</time>
      </trkpt>
      <trkpt lat="44.53496" lon="6.05588">
        <ele>728.40002441406</ele>
        <time>2016-05-06T06:18:23Z</time>
      </trkpt>
      <trkpt lat="44.53493" lon="6.05589">
        <ele>728.79998779297</ele>
        <time>2016-05-06T06:18:24Z</time>
      </trkpt>
      <trkpt lat="44.53491" lon="6.05592">
        <ele>729.40002441406</ele>
        <time>2016-05-06T06:18:25Z</time>
      </trkpt>
      <trkpt lat="44.53489" lon="6.05597">
        <ele>729.40002441406</ele>
        <time>2016-05-06T06:18:26Z</time>
      </trkpt>
      <trkpt lat="44.5348" lon="6.05623">
        <ele>729.40002441406</ele>
        <time>2016-05-06T06:18:31Z</time>
      </trkpt>
      <trkpt lat="44.5348" lon="6.0563">
        <ele>729.40002441406</ele>
        <time>2016-05-06T06:18:32Z</time>
      </trkpt>
      <trkpt lat="44.53477" lon="6.05641">
        <ele>729.79998779297</ele>
        <time>2016-05-06T06:18:34Z</time>
      </trkpt>
      <trkpt lat="44.53476" lon="6.05646">
        <ele>730.20001220703</ele>
        <time>2016-05-06T06:18:35Z</time>
      </trkpt>
      <trkpt lat="44.53476" lon="6.05651">
        <ele>730.59997558594</ele>
        <time>2016-05-06T06:18:36Z</time>
      </trkpt>
      <trkpt lat="44.53474" lon="6.05656">
        <ele>731</ele>
        <time>2016-05-06T06:18:37Z</time>
      </trkpt>
      <trkpt lat="44.53472" lon="6.05661">
        <ele>731.40002441406</ele>
        <time>2016-05-06T06:18:38Z</time>
      </trkpt>
      <trkpt lat="44.53462" lon="6.05685">
        <ele>731.40002441406</ele>
        <time>2016-05-06T06:18:42Z</time>
      </trkpt>
      <trkpt lat="44.5345" lon="6.05693">
        <ele>731.40002441406</ele>
        <time>2016-05-06T06:18:45Z</time>
      </trkpt>
      <trkpt lat="44.53441" lon="6.05696">
        <ele>731.40002441406</ele>
        <time>2016-05-06T06:18:47Z</time>
      </trkpt>
      <trkpt lat="44.53435" lon="6.05695">
        <ele>731.40002441406</ele>
        <time>2016-05-06T06:18:48Z</time>
      </trkpt>
      <trkpt lat="44.53426" lon="6.05694">
        <ele>731.40002441406</ele>
        <time>2016-05-06T06:18:50Z</time>
      </trkpt>
      <trkpt lat="44.53418" lon="6.05692">
        <ele>731.79998779297</ele>
        <time>2016-05-06T06:18:52Z</time>
      </trkpt>
      <trkpt lat="44.53414" lon="6.05692">
        <ele>732.20001220703</ele>
        <time>2016-05-06T06:18:53Z</time>
      </trkpt>
      <trkpt lat="44.5341" lon="6.05692">
        <ele>732.59997558594</ele>
        <time>2016-05-06T06:18:54Z</time>
      </trkpt>
      <trkpt lat="44.53407" lon="6.05691">
        <ele>733</ele>
        <time>2016-05-06T06:18:55Z</time>
      </trkpt>
      <trkpt lat="44.53404" lon="6.0569">
        <ele>733.40002441406</ele>
        <time>2016-05-06T06:18:56Z</time>
      </trkpt>
      <trkpt lat="44.53391" lon="6.05682">
        <ele>733.79998779297</ele>
        <time>2016-05-06T06:19:01Z</time>
      </trkpt>
      <trkpt lat="44.53388" lon="6.05681">
        <ele>734.20001220703</ele>
        <time>2016-05-06T06:19:02Z</time>
      </trkpt>
      <trkpt lat="44.53385" lon="6.05679">
        <ele>734.59997558594</ele>
        <time>2016-05-06T06:19:03Z</time>
      </trkpt>
      <trkpt lat="44.53383" lon="6.05676">
        <ele>735.20001220703</ele>
        <time>2016-05-06T06:19:04Z</time>
      </trkpt>
      <trkpt lat="44.53381" lon="6.05675">
        <ele>735.59997558594</ele>
        <time>2016-05-06T06:19:05Z</time>
      </trkpt>
      <trkpt lat="44.53359" lon="6.05668">
        <ele>736</ele>
        <time>2016-05-06T06:19:12Z</time>
      </trkpt>
      <trkpt lat="44.53355" lon="6.05667">
        <ele>736.40002441406</ele>
        <time>2016-05-06T06:19:13Z</time>
      </trkpt>
      <trkpt lat="44.53353" lon="6.05666">
        <ele>736.79998779297</ele>
        <time>2016-05-06T06:19:14Z</time>
      </trkpt>
      <trkpt lat="44.5335" lon="6.05665">
        <ele>737.20001220703</ele>
        <time>2016-05-06T06:19:15Z</time>
      </trkpt>
      <trkpt lat="44.53348" lon="6.05664">
        <ele>737.59997558594</ele>
        <time>2016-05-06T06:19:16Z</time>
      </trkpt>
      <trkpt lat="44.53341" lon="6.05661">
        <ele>737.59997558594</ele>
        <time>2016-05-06T06:19:19Z</time>
      </trkpt>
      <trkpt lat="44.53336" lon="6.05659">
        <ele>738</ele>
        <time>2016-05-06T06:19:20Z</time>
      </trkpt>
      <trkpt lat="44.53333" lon="6.05655">
        <ele>738.59997558594</ele>
        <time>2016-05-06T06:19:21Z</time>
      </trkpt>
      <trkpt lat="44.53331" lon="6.05652">
        <ele>739</ele>
        <time>2016-05-06T06:19:22Z</time>
      </trkpt>
      <trkpt lat="44.53328" lon="6.0565">
        <ele>739.40002441406</ele>
        <time>2016-05-06T06:19:23Z</time>
      </trkpt>
      <trkpt lat="44.53324" lon="6.05649">
        <ele>740</ele>
        <time>2016-05-06T06:19:24Z</time>
      </trkpt>
      <trkpt lat="44.5332" lon="6.05647">
        <ele>740</ele>
        <time>2016-05-06T06:19:25Z</time>
      </trkpt>
      <trkpt lat="44.53309" lon="6.05643">
        <ele>740.40002441406</ele>
        <time>2016-05-06T06:19:28Z</time>
      </trkpt>
      <trkpt lat="44.53307" lon="6.0564">
        <ele>740.79998779297</ele>
        <time>2016-05-06T06:19:29Z</time>
      </trkpt>
      <trkpt lat="44.53303" lon="6.05638">
        <ele>741.20001220703</ele>
        <time>2016-05-06T06:19:30Z</time>
      </trkpt>
      <trkpt lat="44.533" lon="6.05636">
        <ele>741.59997558594</ele>
        <time>2016-05-06T06:19:31Z</time>
      </trkpt>
      <trkpt lat="44.53297" lon="6.05634">
        <ele>742.20001220703</ele>
        <time>2016-05-06T06:19:32Z</time>
      </trkpt>
      <trkpt lat="44.53283" lon="6.05624">
        <ele>742.59997558594</ele>
        <time>2016-05-06T06:19:36Z</time>
      </trkpt>
      <trkpt lat="44.53279" lon="6.05622">
        <ele>743.20001220703</ele>
        <time>2016-05-06T06:19:37Z</time>
      </trkpt>
      <trkpt lat="44.53276" lon="6.05619">
        <ele>743.79998779297</ele>
        <time>2016-05-06T06:19:38Z</time>
      </trkpt>
      <trkpt lat="44.53273" lon="6.05617">
        <ele>744.20001220703</ele>
        <time>2016-05-06T06:19:39Z</time>
      </trkpt>
      <trkpt lat="44.5327" lon="6.05616">
        <ele>744.79998779297</ele>
        <time>2016-05-06T06:19:40Z</time>
      </trkpt>
      <trkpt lat="44.53255" lon="6.05607">
        <ele>745.20001220703</ele>
        <time>2016-05-06T06:19:45Z</time>
      </trkpt>
      <trkpt lat="44.53252" lon="6.05605">
        <ele>745.59997558594</ele>
        <time>2016-05-06T06:19:46Z</time>
      </trkpt>
      <trkpt lat="44.53249" lon="6.05603">
        <ele>746</ele>
        <time>2016-05-06T06:19:47Z</time>
      </trkpt>
      <trkpt lat="44.53247" lon="6.05602">
        <ele>746.40002441406</ele>
        <time>2016-05-06T06:19:48Z</time>
      </trkpt>
      <trkpt lat="44.53245" lon="6.056">
        <ele>746.79998779297</ele>
        <time>2016-05-06T06:19:49Z</time>
      </trkpt>
      <trkpt lat="44.53242" lon="6.05598">
        <ele>746.79998779297</ele>
        <time>2016-05-06T06:19:50Z</time>
      </trkpt>
      <trkpt lat="44.53231" lon="6.05591">
        <ele>747.40002441406</ele>
        <time>2016-05-06T06:19:55Z</time>
      </trkpt>
      <trkpt lat="44.53229" lon="6.05589">
        <ele>747.79998779297</ele>
        <time>2016-05-06T06:19:56Z</time>
      </trkpt>
      <trkpt lat="44.53226" lon="6.05587">
        <ele>748.20001220703</ele>
        <time>2016-05-06T06:19:57Z</time>
      </trkpt>
      <trkpt lat="44.53224" lon="6.05585">
        <ele>748.59997558594</ele>
        <time>2016-05-06T06:19:58Z</time>
      </trkpt>
      <trkpt lat="44.53222" lon="6.05583">
        <ele>749</ele>
        <time>2016-05-06T06:19:59Z</time>
      </trkpt>
      <trkpt lat="44.53215" lon="6.05574">
        <ele>749.40002441406</ele>
        <time>2016-05-06T06:20:03Z</time>
      </trkpt>
      <trkpt lat="44.53213" lon="6.05571">
        <ele>749.79998779297</ele>
        <time>2016-05-06T06:20:04Z</time>
      </trkpt>
      <trkpt lat="44.53212" lon="6.05568">
        <ele>750.20001220703</ele>
        <time>2016-05-06T06:20:05Z</time>
      </trkpt>
      <trkpt lat="44.53212" lon="6.05565">
        <ele>750.79998779297</ele>
        <time>2016-05-06T06:20:06Z</time>
      </trkpt>
      <trkpt lat="44.5321" lon="6.05562">
        <ele>751.20001220703</ele>
        <time>2016-05-06T06:20:07Z</time>
      </trkpt>
      <trkpt lat="44.53209" lon="6.05548">
        <ele>751.20001220703</ele>
        <time>2016-05-06T06:20:11Z</time>
      </trkpt>
      <trkpt lat="44.53209" lon="6.05544">
        <ele>751.59997558594</ele>
        <time>2016-05-06T06:20:12Z</time>
      </trkpt>
      <trkpt lat="44.5321" lon="6.0554">
        <ele>752</ele>
        <time>2016-05-06T06:20:13Z</time>
      </trkpt>
      <trkpt lat="44.53211" lon="6.05537">
        <ele>752.40002441406</ele>
        <time>2016-05-06T06:20:14Z</time>
      </trkpt>
      <trkpt lat="44.53212" lon="6.05533">
        <ele>752.79998779297</ele>
        <time>2016-05-06T06:20:15Z</time>
      </trkpt>
      <trkpt lat="44.53213" lon="6.0553">
        <ele>753.20001220703</ele>
        <time>2016-05-06T06:20:16Z</time>
      </trkpt>
      <trkpt lat="44.53216" lon="6.05523">
        <ele>753.20001220703</ele>
        <time>2016-05-06T06:20:18Z</time>
      </trkpt>
      <trkpt lat="44.5322" lon="6.05513">
        <ele>753.59997558594</ele>
        <time>2016-05-06T06:20:21Z</time>
      </trkpt>
      <trkpt lat="44.53221" lon="6.0551">
        <ele>754</ele>
        <time>2016-05-06T06:20:22Z</time>
      </trkpt>
      <trkpt lat="44.53222" lon="6.05507">
        <ele>754.40002441406</ele>
        <time>2016-05-06T06:20:23Z</time>
      </trkpt>
      <trkpt lat="44.53224" lon="6.05504">
        <ele>754.79998779297</ele>
        <time>2016-05-06T06:20:24Z</time>
      </trkpt>
      <trkpt lat="44.53226" lon="6.05501">
        <ele>755.40002441406</ele>
        <time>2016-05-06T06:20:25Z</time>
      </trkpt>
      <trkpt lat="44.53229" lon="6.0549">
        <ele>755.40002441406</ele>
        <time>2016-05-06T06:20:28Z</time>
      </trkpt>
      <trkpt lat="44.5323" lon="6.05481">
        <ele>755.79998779297</ele>
        <time>2016-05-06T06:20:30Z</time>
      </trkpt>
      <trkpt lat="44.5323" lon="6.05478">
        <ele>756.20001220703</ele>
        <time>2016-05-06T06:20:31Z</time>
      </trkpt>
      <trkpt lat="44.53231" lon="6.05474">
        <ele>756.59997558594</ele>
        <time>2016-05-06T06:20:32Z</time>
      </trkpt>
      <trkpt lat="44.53231" lon="6.0547">
        <ele>757</ele>
        <time>2016-05-06T06:20:33Z</time>
      </trkpt>
      <trkpt lat="44.53232" lon="6.05466">
        <ele>757.40002441406</ele>
        <time>2016-05-06T06:20:34Z</time>
      </trkpt>
      <trkpt lat="44.53239" lon="6.05433">
        <ele>757.40002441406</ele>
        <time>2016-05-06T06:20:42Z</time>
      </trkpt>
      <trkpt lat="44.53241" lon="6.05429">
        <ele>757.79998779297</ele>
        <time>2016-05-06T06:20:43Z</time>
      </trkpt>
      <trkpt lat="44.53242" lon="6.05425">
        <ele>758.20001220703</ele>
        <time>2016-05-06T06:20:44Z</time>
      </trkpt>
      <trkpt lat="44.53244" lon="6.05419">
        <ele>758.59997558594</ele>
        <time>2016-05-06T06:20:45Z</time>
      </trkpt>
      <trkpt lat="44.53246" lon="6.05413">
        <ele>759</ele>
        <time>2016-05-06T06:20:46Z</time>
      </trkpt>
      <trkpt lat="44.53249" lon="6.05406">
        <ele>759.40002441406</ele>
        <time>2016-05-06T06:20:47Z</time>
      </trkpt>
      <trkpt lat="44.53255" lon="6.05383">
        <ele>759</ele>
        <time>2016-05-06T06:20:50Z</time>
      </trkpt>
      <trkpt lat="44.53257" lon="6.05375">
        <ele>758.40002441406</ele>
        <time>2016-05-06T06:20:51Z</time>
      </trkpt>
      <trkpt lat="44.53258" lon="6.05368">
        <ele>758</ele>
        <time>2016-05-06T06:20:52Z</time>
      </trkpt>
      <trkpt lat="44.5326" lon="6.05361">
        <ele>757.59997558594</ele>
        <time>2016-05-06T06:20:53Z</time>
      </trkpt>
      <trkpt lat="44.53261" lon="6.05354">
        <ele>757.20001220703</ele>
        <time>2016-05-06T06:20:54Z</time>
      </trkpt>
      <trkpt lat="44.5328" lon="6.05279">
        <ele>757.20001220703</ele>
        <time>2016-05-06T06:21:05Z</time>
      </trkpt>
      <trkpt lat="44.53298" lon="6.05207">
        <ele>757.20001220703</ele>
        <time>2016-05-06T06:21:15Z</time>
      </trkpt>
      <trkpt lat="44.53307" lon="6.05187">
        <ele>757.20001220703</ele>
        <time>2016-05-06T06:21:18Z</time>
      </trkpt>
      <trkpt lat="44.53315" lon="6.05177">
        <ele>757.20001220703</ele>
        <time>2016-05-06T06:21:20Z</time>
      </trkpt>
      <trkpt lat="44.53328" lon="6.05167">
        <ele>757.20001220703</ele>
        <time>2016-05-06T06:21:23Z</time>
      </trkpt>
      <trkpt lat="44.53333" lon="6.05165">
        <ele>757.59997558594</ele>
        <time>2016-05-06T06:21:24Z</time>
      </trkpt>
      <trkpt lat="44.53337" lon="6.05163">
        <ele>758</ele>
        <time>2016-05-06T06:21:25Z</time>
      </trkpt>
      <trkpt lat="44.53341" lon="6.0516">
        <ele>758.40002441406</ele>
        <time>2016-05-06T06:21:26Z</time>
      </trkpt>
      <trkpt lat="44.53346" lon="6.05158">
        <ele>758.79998779297</ele>
        <time>2016-05-06T06:21:27Z</time>
      </trkpt>
      <trkpt lat="44.5335" lon="6.05154">
        <ele>759.20001220703</ele>
        <time>2016-05-06T06:21:28Z</time>
      </trkpt>
      <trkpt lat="44.53354" lon="6.05151">
        <ele>759.79998779297</ele>
        <time>2016-05-06T06:21:29Z</time>
      </trkpt>
      <trkpt lat="44.53358" lon="6.05146">
        <ele>760.20001220703</ele>
        <time>2016-05-06T06:21:30Z</time>
      </trkpt>
      <trkpt lat="44.53361" lon="6.05142">
        <ele>760.59997558594</ele>
        <time>2016-05-06T06:21:31Z</time>
      </trkpt>
      <trkpt lat="44.53365" lon="6.05138">
        <ele>761</ele>
        <time>2016-05-06T06:21:32Z</time>
      </trkpt>
      <trkpt lat="44.53368" lon="6.05134">
        <ele>761.59997558594</ele>
        <time>2016-05-06T06:21:33Z</time>
      </trkpt>
      <trkpt lat="44.53385" lon="6.0511">
        <ele>761.59997558594</ele>
        <time>2016-05-06T06:21:39Z</time>
      </trkpt>
      <trkpt lat="44.53394" lon="6.05097">
        <ele>762</ele>
        <time>2016-05-06T06:21:42Z</time>
      </trkpt>
      <trkpt lat="44.53397" lon="6.05093">
        <ele>762.40002441406</ele>
        <time>2016-05-06T06:21:43Z</time>
      </trkpt>
      <trkpt lat="44.534" lon="6.0509">
        <ele>762.79998779297</ele>
        <time>2016-05-06T06:21:44Z</time>
      </trkpt>
      <trkpt lat="44.53405" lon="6.05087">
        <ele>763.20001220703</ele>
        <time>2016-05-06T06:21:45Z</time>
      </trkpt>
      <trkpt lat="44.53409" lon="6.05085">
        <ele>763.59997558594</ele>
        <time>2016-05-06T06:21:46Z</time>
      </trkpt>
      <trkpt lat="44.53424" lon="6.05089">
        <ele>763.59997558594</ele>
        <time>2016-05-06T06:21:49Z</time>
      </trkpt>
      <trkpt lat="44.53439" lon="6.05101">
        <ele>763.20001220703</ele>
        <time>2016-05-06T06:21:52Z</time>
      </trkpt>
      <trkpt lat="44.53445" lon="6.05107">
        <ele>762.79998779297</ele>
        <time>2016-05-06T06:21:53Z</time>
      </trkpt>
      <trkpt lat="44.5345" lon="6.05113">
        <ele>762.20001220703</ele>
        <time>2016-05-06T06:21:54Z</time>
      </trkpt>
      <trkpt lat="44.53454" lon="6.0512">
        <ele>761.79998779297</ele>
        <time>2016-05-06T06:21:55Z</time>
      </trkpt>
      <trkpt lat="44.53459" lon="6.05126">
        <ele>761.20001220703</ele>
        <time>2016-05-06T06:21:56Z</time>
      </trkpt>
      <trkpt lat="44.53465" lon="6.0513">
        <ele>761.20001220703</ele>
        <time>2016-05-06T06:21:57Z</time>
      </trkpt>
      <trkpt lat="44.53472" lon="6.05129">
        <ele>761.20001220703</ele>
        <time>2016-05-06T06:21:58Z</time>
      </trkpt>
      <trkpt lat="44.53481" lon="6.05115">
        <ele>761.20001220703</ele>
        <time>2016-05-06T06:22:00Z</time>
      </trkpt>
      <trkpt lat="44.53483" lon="6.05087">
        <ele>760.79998779297</ele>
        <time>2016-05-06T06:22:03Z</time>
      </trkpt>
      <trkpt lat="44.53484" lon="6.05077">
        <ele>760.40002441406</ele>
        <time>2016-05-06T06:22:04Z</time>
      </trkpt>
      <trkpt lat="44.53485" lon="6.05068">
        <ele>760</ele>
        <time>2016-05-06T06:22:05Z</time>
      </trkpt>
      <trkpt lat="44.53492" lon="6.0506">
        <ele>760</ele>
        <time>2016-05-06T06:22:06Z</time>
      </trkpt>
      <trkpt lat="44.53498" lon="6.05054">
        <ele>759.20001220703</ele>
        <time>2016-05-06T06:22:07Z</time>
      </trkpt>
      <trkpt lat="44.5351" lon="6.05052">
        <ele>759.20001220703</ele>
        <time>2016-05-06T06:22:09Z</time>
      </trkpt>
      <trkpt lat="44.53526" lon="6.05065">
        <ele>759.20001220703</ele>
        <time>2016-05-06T06:22:12Z</time>
      </trkpt>
      <trkpt lat="44.53531" lon="6.05071">
        <ele>759.20001220703</ele>
        <time>2016-05-06T06:22:13Z</time>
      </trkpt>
      <trkpt lat="44.53549" lon="6.0509">
        <ele>759.59997558594</ele>
        <time>2016-05-06T06:22:17Z</time>
      </trkpt>
      <trkpt lat="44.53553" lon="6.05094">
        <ele>760</ele>
        <time>2016-05-06T06:22:18Z</time>
      </trkpt>
      <trkpt lat="44.53557" lon="6.05099">
        <ele>760.40002441406</ele>
        <time>2016-05-06T06:22:19Z</time>
      </trkpt>
      <trkpt lat="44.53561" lon="6.05104">
        <ele>760.79998779297</ele>
        <time>2016-05-06T06:22:20Z</time>
      </trkpt>
      <trkpt lat="44.53565" lon="6.05109">
        <ele>761.20001220703</ele>
        <time>2016-05-06T06:22:21Z</time>
      </trkpt>
      <trkpt lat="44.53584" lon="6.05125">
        <ele>761.20001220703</ele>
        <time>2016-05-06T06:22:25Z</time>
      </trkpt>
      <trkpt lat="44.53627" lon="6.05148">
        <ele>761.20001220703</ele>
        <time>2016-05-06T06:22:33Z</time>
      </trkpt>
      <trkpt lat="44.53669" lon="6.05157">
        <ele>761.20001220703</ele>
        <time>2016-05-06T06:22:40Z</time>
      </trkpt>
      <trkpt lat="44.53717" lon="6.0516">
        <ele>761.20001220703</ele>
        <time>2016-05-06T06:22:48Z</time>
      </trkpt>
      <trkpt lat="44.53753" lon="6.05168">
        <ele>761.20001220703</ele>
        <time>2016-05-06T06:22:55Z</time>
      </trkpt>
      <trkpt lat="44.53761" lon="6.05177">
        <ele>761.20001220703</ele>
        <time>2016-05-06T06:22:57Z</time>
      </trkpt>
      <trkpt lat="44.53769" lon="6.05186">
        <ele>761.20001220703</ele>
        <time>2016-05-06T06:22:59Z</time>
      </trkpt>
      <trkpt lat="44.53785" lon="6.0518">
        <ele>761.20001220703</ele>
        <time>2016-05-06T06:23:02Z</time>
      </trkpt>
      <trkpt lat="44.53788" lon="6.05165">
        <ele>761.20001220703</ele>
        <time>2016-05-06T06:23:04Z</time>
      </trkpt>
      <trkpt lat="44.53783" lon="6.05151">
        <ele>761.20001220703</ele>
        <time>2016-05-06T06:23:06Z</time>
      </trkpt>
      <trkpt lat="44.53775" lon="6.05139">
        <ele>761.20001220703</ele>
        <time>2016-05-06T06:23:08Z</time>
      </trkpt>
      <trkpt lat="44.5377" lon="6.05125">
        <ele>761.20001220703</ele>
        <time>2016-05-06T06:23:10Z</time>
      </trkpt>
      <trkpt lat="44.53767" lon="6.05091">
        <ele>761.59997558594</ele>
        <time>2016-05-06T06:23:14Z</time>
      </trkpt>
      <trkpt lat="44.53767" lon="6.05083">
        <ele>762</ele>
        <time>2016-05-06T06:23:15Z</time>
      </trkpt>
      <trkpt lat="44.53767" lon="6.05075">
        <ele>762.40002441406</ele>
        <time>2016-05-06T06:23:16Z</time>
      </trkpt>
      <trkpt lat="44.53767" lon="6.05067">
        <ele>762.79998779297</ele>
        <time>2016-05-06T06:23:17Z</time>
      </trkpt>
      <trkpt lat="44.53768" lon="6.0506">
        <ele>763.20001220703</ele>
        <time>2016-05-06T06:23:18Z</time>
      </trkpt>
      <trkpt lat="44.53766" lon="6.0503">
        <ele>763.20001220703</ele>
        <time>2016-05-06T06:23:22Z</time>
      </trkpt>
      <trkpt lat="44.53764" lon="6.05022">
        <ele>763.20001220703</ele>
        <time>2016-05-06T06:23:23Z</time>
      </trkpt>
      <trkpt lat="44.53755" lon="6.04991">
        <ele>763.20001220703</ele>
        <time>2016-05-06T06:23:27Z</time>
      </trkpt>
      <trkpt lat="44.53725" lon="6.04942">
        <ele>763.20001220703</ele>
        <time>2016-05-06T06:23:34Z</time>
      </trkpt>
      <trkpt lat="44.53714" lon="6.04929">
        <ele>762.59997558594</ele>
        <time>2016-05-06T06:23:36Z</time>
      </trkpt>
      <trkpt lat="44.53708" lon="6.04922">
        <ele>762</ele>
        <time>2016-05-06T06:23:37Z</time>
      </trkpt>
      <trkpt lat="44.53701" lon="6.04915">
        <ele>761.59997558594</ele>
        <time>2016-05-06T06:23:38Z</time>
      </trkpt>
      <trkpt lat="44.53695" lon="6.04908">
        <ele>761</ele>
        <time>2016-05-06T06:23:39Z</time>
      </trkpt>
      <trkpt lat="44.53689" lon="6.049">
        <ele>760.40002441406</ele>
        <time>2016-05-06T06:23:40Z</time>
      </trkpt>
      <trkpt lat="44.53677" lon="6.04885">
        <ele>760</ele>
        <time>2016-05-06T06:23:42Z</time>
      </trkpt>
      <trkpt lat="44.53671" lon="6.04877">
        <ele>759.59997558594</ele>
        <time>2016-05-06T06:23:43Z</time>
      </trkpt>
      <trkpt lat="44.53664" lon="6.04869">
        <ele>759</ele>
        <time>2016-05-06T06:23:44Z</time>
      </trkpt>
      <trkpt lat="44.53659" lon="6.04861">
        <ele>758.59997558594</ele>
        <time>2016-05-06T06:23:45Z</time>
      </trkpt>
      <trkpt lat="44.53654" lon="6.04852">
        <ele>758.20001220703</ele>
        <time>2016-05-06T06:23:46Z</time>
      </trkpt>
      <trkpt lat="44.5365" lon="6.04843">
        <ele>758.20001220703</ele>
        <time>2016-05-06T06:23:47Z</time>
      </trkpt>
      <trkpt lat="44.53614" lon="6.04779">
        <ele>758.20001220703</ele>
        <time>2016-05-06T06:23:54Z</time>
      </trkpt>
      <trkpt lat="44.536" lon="6.04751">
        <ele>757.59997558594</ele>
        <time>2016-05-06T06:23:57Z</time>
      </trkpt>
      <trkpt lat="44.53595" lon="6.04742">
        <ele>757.20001220703</ele>
        <time>2016-05-06T06:23:58Z</time>
      </trkpt>
      <trkpt lat="44.5359" lon="6.04733">
        <ele>756.79998779297</ele>
        <time>2016-05-06T06:23:59Z</time>
      </trkpt>
      <trkpt lat="44.53585" lon="6.04723">
        <ele>756.20001220703</ele>
        <time>2016-05-06T06:24:00Z</time>
      </trkpt>
      <trkpt lat="44.53579" lon="6.04714">
        <ele>755.79998779297</ele>
        <time>2016-05-06T06:24:01Z</time>
      </trkpt>
      <trkpt lat="44.53553" lon="6.04669">
        <ele>755.79998779297</ele>
        <time>2016-05-06T06:24:06Z</time>
      </trkpt>
      <trkpt lat="44.53516" lon="6.04611">
        <ele>755.20001220703</ele>
        <time>2016-05-06T06:24:13Z</time>
      </trkpt>
      <trkpt lat="44.5351" lon="6.04603">
        <ele>754.79998779297</ele>
        <time>2016-05-06T06:24:14Z</time>
      </trkpt>
      <trkpt lat="44.53505" lon="6.04595">
        <ele>754.40002441406</ele>
        <time>2016-05-06T06:24:15Z</time>
      </trkpt>
      <trkpt lat="44.535" lon="6.04586">
        <ele>754</ele>
        <time>2016-05-06T06:24:16Z</time>
      </trkpt>
      <trkpt lat="44.53495" lon="6.04578">
        <ele>753.40002441406</ele>
        <time>2016-05-06T06:24:17Z</time>
      </trkpt>
      <trkpt lat="44.53454" lon="6.04518">
        <ele>753.40002441406</ele>
        <time>2016-05-06T06:24:25Z</time>
      </trkpt>
      <trkpt lat="44.53411" lon="6.04465">
        <ele>753.40002441406</ele>
        <time>2016-05-06T06:24:33Z</time>
      </trkpt>
      <trkpt lat="44.53394" lon="6.04447">
        <ele>753.40002441406</ele>
        <time>2016-05-06T06:24:36Z</time>
      </trkpt>
      <trkpt lat="44.53349" lon="6.04399">
        <ele>753.40002441406</ele>
        <time>2016-05-06T06:24:44Z</time>
      </trkpt>
      <trkpt lat="44.53333" lon="6.04383">
        <ele>753.40002441406</ele>
        <time>2016-05-06T06:24:47Z</time>
      </trkpt>
      <trkpt lat="44.53313" lon="6.04363">
        <ele>753.40002441406</ele>
        <time>2016-05-06T06:24:51Z</time>
      </trkpt>
      <trkpt lat="44.53304" lon="6.0435">
        <ele>753.40002441406</ele>
        <time>2016-05-06T06:24:53Z</time>
      </trkpt>
      <trkpt lat="44.5329" lon="6.04327">
        <ele>753.40002441406</ele>
        <time>2016-05-06T06:24:56Z</time>
      </trkpt>
      <trkpt lat="44.53286" lon="6.04317">
        <ele>753</ele>
        <time>2016-05-06T06:24:57Z</time>
      </trkpt>
      <trkpt lat="44.53282" lon="6.04307">
        <ele>752.59997558594</ele>
        <time>2016-05-06T06:24:58Z</time>
      </trkpt>
      <trkpt lat="44.53278" lon="6.04296">
        <ele>752.20001220703</ele>
        <time>2016-05-06T06:24:59Z</time>
      </trkpt>
      <trkpt lat="44.53273" lon="6.04285">
        <ele>751.79998779297</ele>
        <time>2016-05-06T06:25:00Z</time>
      </trkpt>
      <trkpt lat="44.5327" lon="6.04274">
        <ele>751.20001220703</ele>
        <time>2016-05-06T06:25:01Z</time>
      </trkpt>
      <trkpt lat="44.53265" lon="6.04262">
        <ele>750.79998779297</ele>
        <time>2016-05-06T06:25:02Z</time>
      </trkpt>
      <trkpt lat="44.53262" lon="6.0425">
        <ele>750.20001220703</ele>
        <time>2016-05-06T06:25:03Z</time>
      </trkpt>
      <trkpt lat="44.53259" lon="6.04237">
        <ele>749.79998779297</ele>
        <time>2016-05-06T06:25:04Z</time>
      </trkpt>
      <trkpt lat="44.53255" lon="6.04225">
        <ele>749.20001220703</ele>
        <time>2016-05-06T06:25:05Z</time>
      </trkpt>
      <trkpt lat="44.53252" lon="6.04212">
        <ele>748.79998779297</ele>
        <time>2016-05-06T06:25:06Z</time>
      </trkpt>
      <trkpt lat="44.53249" lon="6.04199">
        <ele>748.40002441406</ele>
        <time>2016-05-06T06:25:07Z</time>
      </trkpt>
      <trkpt lat="44.53246" lon="6.04186">
        <ele>748</ele>
        <time>2016-05-06T06:25:08Z</time>
      </trkpt>
      <trkpt lat="44.53243" lon="6.04174">
        <ele>747.59997558594</ele>
        <time>2016-05-06T06:25:09Z</time>
      </trkpt>
      <trkpt lat="44.5324" lon="6.0416">
        <ele>747.20001220703</ele>
        <time>2016-05-06T06:25:10Z</time>
      </trkpt>
      <trkpt lat="44.5323" lon="6.0411">
        <ele>746.79998779297</ele>
        <time>2016-05-06T06:25:14Z</time>
      </trkpt>
      <trkpt lat="44.53226" lon="6.04099">
        <ele>746.40002441406</ele>
        <time>2016-05-06T06:25:15Z</time>
      </trkpt>
      <trkpt lat="44.53222" lon="6.04087">
        <ele>746</ele>
        <time>2016-05-06T06:25:16Z</time>
      </trkpt>
      <trkpt lat="44.53218" lon="6.04076">
        <ele>745.59997558594</ele>
        <time>2016-05-06T06:25:17Z</time>
      </trkpt>
      <trkpt lat="44.53214" lon="6.04066">
        <ele>745.20001220703</ele>
        <time>2016-05-06T06:25:18Z</time>
      </trkpt>
      <trkpt lat="44.53189" lon="6.04009">
        <ele>745.20001220703</ele>
        <time>2016-05-06T06:25:24Z</time>
      </trkpt>
      <trkpt lat="44.53171" lon="6.03983">
        <ele>745.20001220703</ele>
        <time>2016-05-06T06:25:28Z</time>
      </trkpt>
      <trkpt lat="44.53166" lon="6.03978">
        <ele>745.20001220703</ele>
        <time>2016-05-06T06:25:29Z</time>
      </trkpt>
      <trkpt lat="44.53156" lon="6.0397">
        <ele>745.59997558594</ele>
        <time>2016-05-06T06:25:31Z</time>
      </trkpt>
      <trkpt lat="44.5315" lon="6.03967">
        <ele>746</ele>
        <time>2016-05-06T06:25:32Z</time>
      </trkpt>
      <trkpt lat="44.53144" lon="6.03963">
        <ele>746.40002441406</ele>
        <time>2016-05-06T06:25:33Z</time>
      </trkpt>
      <trkpt lat="44.53139" lon="6.0396">
        <ele>746.79998779297</ele>
        <time>2016-05-06T06:25:34Z</time>
      </trkpt>
      <trkpt lat="44.53134" lon="6.03958">
        <ele>747.20001220703</ele>
        <time>2016-05-06T06:25:35Z</time>
      </trkpt>
      <trkpt lat="44.53125" lon="6.03953">
        <ele>747.79998779297</ele>
        <time>2016-05-06T06:25:37Z</time>
      </trkpt>
      <trkpt lat="44.5312" lon="6.03951">
        <ele>748.20001220703</ele>
        <time>2016-05-06T06:25:38Z</time>
      </trkpt>
      <trkpt lat="44.53116" lon="6.03948">
        <ele>748.59997558594</ele>
        <time>2016-05-06T06:25:39Z</time>
      </trkpt>
      <trkpt lat="44.53112" lon="6.03946">
        <ele>749.20001220703</ele>
        <time>2016-05-06T06:25:40Z</time>
      </trkpt>
      <trkpt lat="44.53108" lon="6.03944">
        <ele>749.59997558594</ele>
        <time>2016-05-06T06:25:41Z</time>
      </trkpt>
      <trkpt lat="44.53101" lon="6.0394">
        <ele>750</ele>
        <time>2016-05-06T06:25:43Z</time>
      </trkpt>
      <trkpt lat="44.53097" lon="6.03938">
        <ele>750.59997558594</ele>
        <time>2016-05-06T06:25:44Z</time>
      </trkpt>
      <trkpt lat="44.53093" lon="6.03935">
        <ele>751</ele>
        <time>2016-05-06T06:25:45Z</time>
      </trkpt>
      <trkpt lat="44.5309" lon="6.03932">
        <ele>751.40002441406</ele>
        <time>2016-05-06T06:25:46Z</time>
      </trkpt>
      <trkpt lat="44.53086" lon="6.03929">
        <ele>752</ele>
        <time>2016-05-06T06:25:47Z</time>
      </trkpt>
      <trkpt lat="44.53072" lon="6.0391">
        <ele>752.40002441406</ele>
        <time>2016-05-06T06:25:52Z</time>
      </trkpt>
      <trkpt lat="44.5307" lon="6.03906">
        <ele>752.79998779297</ele>
        <time>2016-05-06T06:25:53Z</time>
      </trkpt>
      <trkpt lat="44.53067" lon="6.03902">
        <ele>753.20001220703</ele>
        <time>2016-05-06T06:25:54Z</time>
      </trkpt>
      <trkpt lat="44.53064" lon="6.03897">
        <ele>753.59997558594</ele>
        <time>2016-05-06T06:25:55Z</time>
      </trkpt>
      <trkpt lat="44.53062" lon="6.03893">
        <ele>754</ele>
        <time>2016-05-06T06:25:56Z</time>
      </trkpt>
      <trkpt lat="44.53054" lon="6.03881">
        <ele>754.59997558594</ele>
        <time>2016-05-06T06:25:59Z</time>
      </trkpt>
      <trkpt lat="44.53051" lon="6.03877">
        <ele>755</ele>
        <time>2016-05-06T06:26:00Z</time>
      </trkpt>
      <trkpt lat="44.53049" lon="6.03873">
        <ele>755.40002441406</ele>
        <time>2016-05-06T06:26:01Z</time>
      </trkpt>
      <trkpt lat="44.53048" lon="6.0387">
        <ele>755.79998779297</ele>
        <time>2016-05-06T06:26:02Z</time>
      </trkpt>
      <trkpt lat="44.53046" lon="6.03867">
        <ele>756.20001220703</ele>
        <time>2016-05-06T06:26:03Z</time>
      </trkpt>
      <trkpt lat="44.53038" lon="6.03855">
        <ele>756.20001220703</ele>
        <time>2016-05-06T06:26:07Z</time>
      </trkpt>
      <trkpt lat="44.53035" lon="6.03852">
        <ele>756.59997558594</ele>
        <time>2016-05-06T06:26:08Z</time>
      </trkpt>
      <trkpt lat="44.53032" lon="6.0385">
        <ele>757.20001220703</ele>
        <time>2016-05-06T06:26:09Z</time>
      </trkpt>
      <trkpt lat="44.53028" lon="6.03846">
        <ele>757.59997558594</ele>
        <time>2016-05-06T06:26:10Z</time>
      </trkpt>
      <trkpt lat="44.53025" lon="6.03843">
        <ele>758</ele>
        <time>2016-05-06T06:26:11Z</time>
      </trkpt>
      <trkpt lat="44.53022" lon="6.0384">
        <ele>758.40002441406</ele>
        <time>2016-05-06T06:26:12Z</time>
      </trkpt>
      <trkpt lat="44.53011" lon="6.03826">
        <ele>758.40002441406</ele>
        <time>2016-05-06T06:26:16Z</time>
      </trkpt>
      <trkpt lat="44.53006" lon="6.0382">
        <ele>758.79998779297</ele>
        <time>2016-05-06T06:26:18Z</time>
      </trkpt>
      <trkpt lat="44.53" lon="6.03813">
        <ele>759.79998779297</ele>
        <time>2016-05-06T06:26:20Z</time>
      </trkpt>
      <trkpt lat="44.52995" lon="6.03806">
        <ele>760.79998779297</ele>
        <time>2016-05-06T06:26:22Z</time>
      </trkpt>
      <trkpt lat="44.52987" lon="6.03797">
        <ele>760.79998779297</ele>
        <time>2016-05-06T06:26:25Z</time>
      </trkpt>
      <trkpt lat="44.52985" lon="6.03793">
        <ele>761.20001220703</ele>
        <time>2016-05-06T06:26:26Z</time>
      </trkpt>
      <trkpt lat="44.52983" lon="6.0379">
        <ele>761.59997558594</ele>
        <time>2016-05-06T06:26:27Z</time>
      </trkpt>
      <trkpt lat="44.5298" lon="6.03787">
        <ele>762</ele>
        <time>2016-05-06T06:26:28Z</time>
      </trkpt>
      <trkpt lat="44.52978" lon="6.03783">
        <ele>762.40002441406</ele>
        <time>2016-05-06T06:26:29Z</time>
      </trkpt>
      <trkpt lat="44.52975" lon="6.0378">
        <ele>762.79998779297</ele>
        <time>2016-05-06T06:26:30Z</time>
      </trkpt>
      <trkpt lat="44.52967" lon="6.03771">
        <ele>763.20001220703</ele>
        <time>2016-05-06T06:26:33Z</time>
      </trkpt>
      <trkpt lat="44.52966" lon="6.03768">
        <ele>763.59997558594</ele>
        <time>2016-05-06T06:26:34Z</time>
      </trkpt>
      <trkpt lat="44.52963" lon="6.03766">
        <ele>764.20001220703</ele>
        <time>2016-05-06T06:26:35Z</time>
      </trkpt>
      <trkpt lat="44.52961" lon="6.03763">
        <ele>764.59997558594</ele>
        <time>2016-05-06T06:26:36Z</time>
      </trkpt>
      <trkpt lat="44.52959" lon="6.0376">
        <ele>765</ele>
        <time>2016-05-06T06:26:37Z</time>
      </trkpt>
      <trkpt lat="44.52945" lon="6.03749">
        <ele>765</ele>
        <time>2016-05-06T06:26:42Z</time>
      </trkpt>
      <trkpt lat="44.52942" lon="6.03747">
        <ele>765.40002441406</ele>
        <time>2016-05-06T06:26:43Z</time>
      </trkpt>
      <trkpt lat="44.52939" lon="6.03745">
        <ele>766</ele>
        <time>2016-05-06T06:26:44Z</time>
      </trkpt>
      <trkpt lat="44.52936" lon="6.03742">
        <ele>766.40002441406</ele>
        <time>2016-05-06T06:26:45Z</time>
      </trkpt>
      <trkpt lat="44.52933" lon="6.0374">
        <ele>766.79998779297</ele>
        <time>2016-05-06T06:26:46Z</time>
      </trkpt>
      <trkpt lat="44.5293" lon="6.03737">
        <ele>767.20001220703</ele>
        <time>2016-05-06T06:26:47Z</time>
      </trkpt>
      <trkpt lat="44.52924" lon="6.03733">
        <ele>767.20001220703</ele>
        <time>2016-05-06T06:26:49Z</time>
      </trkpt>
      <trkpt lat="44.52911" lon="6.03723">
        <ele>767.79998779297</ele>
        <time>2016-05-06T06:26:53Z</time>
      </trkpt>
      <trkpt lat="44.52909" lon="6.0372">
        <ele>768.20001220703</ele>
        <time>2016-05-06T06:26:54Z</time>
      </trkpt>
      <trkpt lat="44.52906" lon="6.03717">
        <ele>768.59997558594</ele>
        <time>2016-05-06T06:26:55Z</time>
      </trkpt>
      <trkpt lat="44.52904" lon="6.03714">
        <ele>769</ele>
        <time>2016-05-06T06:26:56Z</time>
      </trkpt>
      <trkpt lat="44.52902" lon="6.03711">
        <ele>769.40002441406</ele>
        <time>2016-05-06T06:26:57Z</time>
      </trkpt>
      <trkpt lat="44.52897" lon="6.037">
        <ele>769.40002441406</ele>
        <time>2016-05-06T06:27:00Z</time>
      </trkpt>
      <trkpt lat="44.52896" lon="6.03696">
        <ele>770</ele>
        <time>2016-05-06T06:27:01Z</time>
      </trkpt>
      <trkpt lat="44.52895" lon="6.03692">
        <ele>770.40002441406</ele>
        <time>2016-05-06T06:27:02Z</time>
      </trkpt>
      <trkpt lat="44.52895" lon="6.03688">
        <ele>770.79998779297</ele>
        <time>2016-05-06T06:27:03Z</time>
      </trkpt>
      <trkpt lat="44.52894" lon="6.03684">
        <ele>771.40002441406</ele>
        <time>2016-05-06T06:27:04Z</time>
      </trkpt>
      <trkpt lat="44.52894" lon="6.0368">
        <ele>771.79998779297</ele>
        <time>2016-05-06T06:27:05Z</time>
      </trkpt>
      <trkpt lat="44.52893" lon="6.03668">
        <ele>772.20001220703</ele>
        <time>2016-05-06T06:27:08Z</time>
      </trkpt>
      <trkpt lat="44.52894" lon="6.03664">
        <ele>772.59997558594</ele>
        <time>2016-05-06T06:27:09Z</time>
      </trkpt>
      <trkpt lat="44.52895" lon="6.03661">
        <ele>773</ele>
        <time>2016-05-06T06:27:10Z</time>
      </trkpt>
      <trkpt lat="44.52896" lon="6.03657">
        <ele>773.40002441406</ele>
        <time>2016-05-06T06:27:11Z</time>
      </trkpt>
      <trkpt lat="44.52897" lon="6.03653">
        <ele>773.79998779297</ele>
        <time>2016-05-06T06:27:12Z</time>
      </trkpt>
      <trkpt lat="44.52907" lon="6.03634">
        <ele>774.20001220703</ele>
        <time>2016-05-06T06:27:18Z</time>
      </trkpt>
      <trkpt lat="44.52909" lon="6.03631">
        <ele>774.59997558594</ele>
        <time>2016-05-06T06:27:19Z</time>
      </trkpt>
      <trkpt lat="44.5291" lon="6.03628">
        <ele>775</ele>
        <time>2016-05-06T06:27:20Z</time>
      </trkpt>
      <trkpt lat="44.52912" lon="6.03625">
        <ele>775.40002441406</ele>
        <time>2016-05-06T06:27:21Z</time>
      </trkpt>
      <trkpt lat="44.52914" lon="6.03621">
        <ele>776</ele>
        <time>2016-05-06T06:27:22Z</time>
      </trkpt>
      <trkpt lat="44.52919" lon="6.03607">
        <ele>776</ele>
        <time>2016-05-06T06:27:26Z</time>
      </trkpt>
      <trkpt lat="44.5292" lon="6.036">
        <ele>776.40002441406</ele>
        <time>2016-05-06T06:27:28Z</time>
      </trkpt>
      <trkpt lat="44.5292" lon="6.03596">
        <ele>776.79998779297</ele>
        <time>2016-05-06T06:27:29Z</time>
      </trkpt>
      <trkpt lat="44.52921" lon="6.03592">
        <ele>777.20001220703</ele>
        <time>2016-05-06T06:27:30Z</time>
      </trkpt>
      <trkpt lat="44.52921" lon="6.03588">
        <ele>777.59997558594</ele>
        <time>2016-05-06T06:27:31Z</time>
      </trkpt>
      <trkpt lat="44.52922" lon="6.03584">
        <ele>778</ele>
        <time>2016-05-06T06:27:32Z</time>
      </trkpt>
      <trkpt lat="44.52921" lon="6.03576">
        <ele>778</ele>
        <time>2016-05-06T06:27:34Z</time>
      </trkpt>
      <trkpt lat="44.52915" lon="6.03554">
        <ele>778</ele>
        <time>2016-05-06T06:27:40Z</time>
      </trkpt>
      <trkpt lat="44.52909" lon="6.03542">
        <ele>778.59997558594</ele>
        <time>2016-05-06T06:27:44Z</time>
      </trkpt>
      <trkpt lat="44.52907" lon="6.03539">
        <ele>779</ele>
        <time>2016-05-06T06:27:45Z</time>
      </trkpt>
      <trkpt lat="44.52906" lon="6.03535">
        <ele>779.40002441406</ele>
        <time>2016-05-06T06:27:46Z</time>
      </trkpt>
      <trkpt lat="44.52905" lon="6.03531">
        <ele>780</ele>
        <time>2016-05-06T06:27:47Z</time>
      </trkpt>
      <trkpt lat="44.52905" lon="6.03527">
        <ele>780.40002441406</ele>
        <time>2016-05-06T06:27:48Z</time>
      </trkpt>
      <trkpt lat="44.52902" lon="6.03511">
        <ele>780.79998779297</ele>
        <time>2016-05-06T06:27:53Z</time>
      </trkpt>
      <trkpt lat="44.52901" lon="6.03509">
        <ele>781.20001220703</ele>
        <time>2016-05-06T06:27:54Z</time>
      </trkpt>
      <trkpt lat="44.529" lon="6.03508">
        <ele>781.59997558594</ele>
        <time>2016-05-06T06:27:55Z</time>
      </trkpt>
      <trkpt lat="44.529" lon="6.03505">
        <ele>782</ele>
        <time>2016-05-06T06:27:56Z</time>
      </trkpt>
      <trkpt lat="44.52899" lon="6.03503">
        <ele>782.40002441406</ele>
        <time>2016-05-06T06:27:57Z</time>
      </trkpt>
      <trkpt lat="44.52898" lon="6.03501">
        <ele>782.79998779297</ele>
        <time>2016-05-06T06:27:58Z</time>
      </trkpt>
      <trkpt lat="44.52896" lon="6.03497">
        <ele>783.20001220703</ele>
        <time>2016-05-06T06:27:59Z</time>
      </trkpt>
      <trkpt lat="44.52894" lon="6.03494">
        <ele>783.59997558594</ele>
        <time>2016-05-06T06:28:00Z</time>
      </trkpt>
      <trkpt lat="44.52893" lon="6.03491">
        <ele>784</ele>
        <time>2016-05-06T06:28:01Z</time>
      </trkpt>
      <trkpt lat="44.5289" lon="6.03488">
        <ele>784.40002441406</ele>
        <time>2016-05-06T06:28:02Z</time>
      </trkpt>
      <trkpt lat="44.52888" lon="6.03474">
        <ele>784.40002441406</ele>
        <time>2016-05-06T06:28:07Z</time>
      </trkpt>
      <trkpt lat="44.52888" lon="6.0347">
        <ele>784.79998779297</ele>
        <time>2016-05-06T06:28:08Z</time>
      </trkpt>
      <trkpt lat="44.52889" lon="6.03467">
        <ele>785.20001220703</ele>
        <time>2016-05-06T06:28:09Z</time>
      </trkpt>
      <trkpt lat="44.52889" lon="6.03464">
        <ele>785.79998779297</ele>
        <time>2016-05-06T06:28:10Z</time>
      </trkpt>
      <trkpt lat="44.5289" lon="6.03461">
        <ele>786.20001220703</ele>
        <time>2016-05-06T06:28:11Z</time>
      </trkpt>
      <trkpt lat="44.5289" lon="6.03458">
        <ele>786.59997558594</ele>
        <time>2016-05-06T06:28:12Z</time>
      </trkpt>
      <trkpt lat="44.52893" lon="6.03452">
        <ele>786.59997558594</ele>
        <time>2016-05-06T06:28:14Z</time>
      </trkpt>
      <trkpt lat="44.52896" lon="6.03443">
        <ele>787</ele>
        <time>2016-05-06T06:28:17Z</time>
      </trkpt>
      <trkpt lat="44.52898" lon="6.0344">
        <ele>787.40002441406</ele>
        <time>2016-05-06T06:28:18Z</time>
      </trkpt>
      <trkpt lat="44.529" lon="6.03437">
        <ele>788</ele>
        <time>2016-05-06T06:28:19Z</time>
      </trkpt>
      <trkpt lat="44.52901" lon="6.03435">
        <ele>788.40002441406</ele>
        <time>2016-05-06T06:28:20Z</time>
      </trkpt>
      <trkpt lat="44.52902" lon="6.03432">
        <ele>788.79998779297</ele>
        <time>2016-05-06T06:28:21Z</time>
      </trkpt>
      <trkpt lat="44.52911" lon="6.0342">
        <ele>788.79998779297</ele>
        <time>2016-05-06T06:28:26Z</time>
      </trkpt>
      <trkpt lat="44.5292" lon="6.03409">
        <ele>789.40002441406</ele>
        <time>2016-05-06T06:28:31Z</time>
      </trkpt>
      <trkpt lat="44.52925" lon="6.03405">
        <ele>790.20001220703</ele>
        <time>2016-05-06T06:28:33Z</time>
      </trkpt>
      <trkpt lat="44.52929" lon="6.03401">
        <ele>790.79998779297</ele>
        <time>2016-05-06T06:28:35Z</time>
      </trkpt>
      <trkpt lat="44.52931" lon="6.034">
        <ele>791.20001220703</ele>
        <time>2016-05-06T06:28:36Z</time>
      </trkpt>
      <trkpt lat="44.52942" lon="6.0339">
        <ele>791.59997558594</ele>
        <time>2016-05-06T06:28:41Z</time>
      </trkpt>
      <trkpt lat="44.52943" lon="6.03389">
        <ele>792</ele>
        <time>2016-05-06T06:28:42Z</time>
      </trkpt>
      <trkpt lat="44.52946" lon="6.03388">
        <ele>792.40002441406</ele>
        <time>2016-05-06T06:28:43Z</time>
      </trkpt>
      <trkpt lat="44.52948" lon="6.03387">
        <ele>792.79998779297</ele>
        <time>2016-05-06T06:28:44Z</time>
      </trkpt>
      <trkpt lat="44.5295" lon="6.03386">
        <ele>793.20001220703</ele>
        <time>2016-05-06T06:28:45Z</time>
      </trkpt>
      <trkpt lat="44.52962" lon="6.03385">
        <ele>793.59997558594</ele>
        <time>2016-05-06T06:28:50Z</time>
      </trkpt>
      <trkpt lat="44.52964" lon="6.03384">
        <ele>794</ele>
        <time>2016-05-06T06:28:51Z</time>
      </trkpt>
      <trkpt lat="44.52967" lon="6.03383">
        <ele>794.40002441406</ele>
        <time>2016-05-06T06:28:52Z</time>
      </trkpt>
      <trkpt lat="44.52969" lon="6.03382">
        <ele>794.79998779297</ele>
        <time>2016-05-06T06:28:53Z</time>
      </trkpt>
      <trkpt lat="44.52971" lon="6.03381">
        <ele>795.20001220703</ele>
        <time>2016-05-06T06:28:54Z</time>
      </trkpt>
      <trkpt lat="44.52984" lon="6.03377">
        <ele>795.79998779297</ele>
        <time>2016-05-06T06:29:00Z</time>
      </trkpt>
      <trkpt lat="44.52985" lon="6.03376">
        <ele>796.20001220703</ele>
        <time>2016-05-06T06:29:01Z</time>
      </trkpt>
      <trkpt lat="44.52988" lon="6.03376">
        <ele>796.59997558594</ele>
        <time>2016-05-06T06:29:02Z</time>
      </trkpt>
      <trkpt lat="44.52989" lon="6.03376">
        <ele>797</ele>
        <time>2016-05-06T06:29:03Z</time>
      </trkpt>
      <trkpt lat="44.52991" lon="6.03376">
        <ele>797.40002441406</ele>
        <time>2016-05-06T06:29:04Z</time>
      </trkpt>
      <trkpt lat="44.53" lon="6.03377">
        <ele>797.40002441406</ele>
        <time>2016-05-06T06:29:08Z</time>
      </trkpt>
      <trkpt lat="44.53006" lon="6.03379">
        <ele>798</ele>
        <time>2016-05-06T06:29:11Z</time>
      </trkpt>
      <trkpt lat="44.53009" lon="6.0338">
        <ele>798.40002441406</ele>
        <time>2016-05-06T06:29:12Z</time>
      </trkpt>
      <trkpt lat="44.53011" lon="6.03381">
        <ele>798.79998779297</ele>
        <time>2016-05-06T06:29:13Z</time>
      </trkpt>
      <trkpt lat="44.53014" lon="6.03382">
        <ele>799.20001220703</ele>
        <time>2016-05-06T06:29:14Z</time>
      </trkpt>
      <trkpt lat="44.53016" lon="6.03383">
        <ele>799.59997558594</ele>
        <time>2016-05-06T06:29:15Z</time>
      </trkpt>
      <trkpt lat="44.5302" lon="6.03384">
        <ele>799.59997558594</ele>
        <time>2016-05-06T06:29:17Z</time>
      </trkpt>
      <trkpt lat="44.5303" lon="6.03388">
        <ele>799.59997558594</ele>
        <time>2016-05-06T06:29:25Z</time>
      </trkpt>
      <trkpt lat="44.53032" lon="6.03389">
        <ele>800.20001220703</ele>
        <time>2016-05-06T06:29:27Z</time>
      </trkpt>
      <trkpt lat="44.53033" lon="6.03389">
        <ele>800.59997558594</ele>
        <time>2016-05-06T06:29:28Z</time>
      </trkpt>
      <trkpt lat="44.53033" lon="6.03389">
        <ele>801</ele>
        <time>2016-05-06T06:29:29Z</time>
      </trkpt>
      <trkpt lat="44.53035" lon="6.0339">
        <ele>801.59997558594</ele>
        <time>2016-05-06T06:29:30Z</time>
      </trkpt>
      <trkpt lat="44.53036" lon="6.0339">
        <ele>802</ele>
        <time>2016-05-06T06:29:31Z</time>
      </trkpt>
      <trkpt lat="44.53041" lon="6.03392">
        <ele>802</ele>
        <time>2016-05-06T06:29:34Z</time>
      </trkpt>
      <trkpt lat="44.53051" lon="6.03395">
        <ele>802</ele>
        <time>2016-05-06T06:29:41Z</time>
      </trkpt>
      <trkpt lat="44.53053" lon="6.03395">
        <ele>802.40002441406</ele>
        <time>2016-05-06T06:29:42Z</time>
      </trkpt>
      <trkpt lat="44.53055" lon="6.03396">
        <ele>802.79998779297</ele>
        <time>2016-05-06T06:29:43Z</time>
      </trkpt>
      <trkpt lat="44.53057" lon="6.03397">
        <ele>803.20001220703</ele>
        <time>2016-05-06T06:29:44Z</time>
      </trkpt>
      <trkpt lat="44.5306" lon="6.03397">
        <ele>803.59997558594</ele>
        <time>2016-05-06T06:29:45Z</time>
      </trkpt>
      <trkpt lat="44.53062" lon="6.03398">
        <ele>804</ele>
        <time>2016-05-06T06:29:46Z</time>
      </trkpt>
      <trkpt lat="44.5307" lon="6.03398">
        <ele>804.40002441406</ele>
        <time>2016-05-06T06:29:50Z</time>
      </trkpt>
      <trkpt lat="44.53073" lon="6.03398">
        <ele>804.79998779297</ele>
        <time>2016-05-06T06:29:51Z</time>
      </trkpt>
      <trkpt lat="44.53075" lon="6.03398">
        <ele>805.20001220703</ele>
        <time>2016-05-06T06:29:52Z</time>
      </trkpt>
      <trkpt lat="44.53078" lon="6.03399">
        <ele>805.59997558594</ele>
        <time>2016-05-06T06:29:53Z</time>
      </trkpt>
      <trkpt lat="44.5308" lon="6.03399">
        <ele>806.20001220703</ele>
        <time>2016-05-06T06:29:54Z</time>
      </trkpt>
      <trkpt lat="44.5309" lon="6.03403">
        <ele>806.20001220703</ele>
        <time>2016-05-06T06:29:59Z</time>
      </trkpt>
      <trkpt lat="44.53092" lon="6.03403">
        <ele>806.59997558594</ele>
        <time>2016-05-06T06:30:00Z</time>
      </trkpt>
      <trkpt lat="44.53094" lon="6.03404">
        <ele>807</ele>
        <time>2016-05-06T06:30:01Z</time>
      </trkpt>
      <trkpt lat="44.53096" lon="6.03405">
        <ele>807.40002441406</ele>
        <time>2016-05-06T06:30:02Z</time>
      </trkpt>
      <trkpt lat="44.531" lon="6.03406">
        <ele>807.79998779297</ele>
        <time>2016-05-06T06:30:03Z</time>
      </trkpt>
      <trkpt lat="44.53102" lon="6.03408">
        <ele>808.40002441406</ele>
        <time>2016-05-06T06:30:04Z</time>
      </trkpt>
      <trkpt lat="44.53106" lon="6.03409">
        <ele>808.40002441406</ele>
        <time>2016-05-06T06:30:06Z</time>
      </trkpt>
      <trkpt lat="44.53113" lon="6.0341">
        <ele>808.79998779297</ele>
        <time>2016-05-06T06:30:09Z</time>
      </trkpt>
      <trkpt lat="44.53115" lon="6.0341">
        <ele>809.20001220703</ele>
        <time>2016-05-06T06:30:10Z</time>
      </trkpt>
      <trkpt lat="44.53118" lon="6.03409">
        <ele>809.59997558594</ele>
        <time>2016-05-06T06:30:11Z</time>
      </trkpt>
      <trkpt lat="44.5312" lon="6.03409">
        <ele>810</ele>
        <time>2016-05-06T06:30:12Z</time>
      </trkpt>
      <trkpt lat="44.53122" lon="6.03408">
        <ele>810.59997558594</ele>
        <time>2016-05-06T06:30:13Z</time>
      </trkpt>
      <trkpt lat="44.53127" lon="6.03405">
        <ele>810.59997558594</ele>
        <time>2016-05-06T06:30:15Z</time>
      </trkpt>
      <trkpt lat="44.53134" lon="6.03399">
        <ele>811</ele>
        <time>2016-05-06T06:30:18Z</time>
      </trkpt>
      <trkpt lat="44.53135" lon="6.03397">
        <ele>811.40002441406</ele>
        <time>2016-05-06T06:30:19Z</time>
      </trkpt>
      <trkpt lat="44.53136" lon="6.03395">
        <ele>811.79998779297</ele>
        <time>2016-05-06T06:30:20Z</time>
      </trkpt>
      <trkpt lat="44.53138" lon="6.03393">
        <ele>812.20001220703</ele>
        <time>2016-05-06T06:30:21Z</time>
      </trkpt>
      <trkpt lat="44.53139" lon="6.0339">
        <ele>812.59997558594</ele>
        <time>2016-05-06T06:30:22Z</time>
      </trkpt>
      <trkpt lat="44.53144" lon="6.03379">
        <ele>813</ele>
        <time>2016-05-06T06:30:26Z</time>
      </trkpt>
      <trkpt lat="44.53145" lon="6.03376">
        <ele>813.59997558594</ele>
        <time>2016-05-06T06:30:27Z</time>
      </trkpt>
      <trkpt lat="44.53146" lon="6.03373">
        <ele>814</ele>
        <time>2016-05-06T06:30:28Z</time>
      </trkpt>
      <trkpt lat="44.53148" lon="6.0337">
        <ele>814.40002441406</ele>
        <time>2016-05-06T06:30:29Z</time>
      </trkpt>
      <trkpt lat="44.53149" lon="6.03368">
        <ele>814.79998779297</ele>
        <time>2016-05-06T06:30:30Z</time>
      </trkpt>
      <trkpt lat="44.53151" lon="6.03363">
        <ele>815.40002441406</ele>
        <time>2016-05-06T06:30:32Z</time>
      </trkpt>
      <trkpt lat="44.53152" lon="6.0336">
        <ele>815.79998779297</ele>
        <time>2016-05-06T06:30:33Z</time>
      </trkpt>
      <trkpt lat="44.53154" lon="6.03355">
        <ele>816.20001220703</ele>
        <time>2016-05-06T06:30:34Z</time>
      </trkpt>
      <trkpt lat="44.53154" lon="6.03351">
        <ele>816.79998779297</ele>
        <time>2016-05-06T06:30:35Z</time>
      </trkpt>
      <trkpt lat="44.53155" lon="6.03348">
        <ele>817.20001220703</ele>
        <time>2016-05-06T06:30:36Z</time>
      </trkpt>
      <trkpt lat="44.53156" lon="6.03344">
        <ele>817.20001220703</ele>
        <time>2016-05-06T06:30:37Z</time>
      </trkpt>
      <trkpt lat="44.53157" lon="6.03337">
        <ele>817.59997558594</ele>
        <time>2016-05-06T06:30:39Z</time>
      </trkpt>
      <trkpt lat="44.53158" lon="6.03334">
        <ele>818</ele>
        <time>2016-05-06T06:30:40Z</time>
      </trkpt>
      <trkpt lat="44.53159" lon="6.03331">
        <ele>818.59997558594</ele>
        <time>2016-05-06T06:30:41Z</time>
      </trkpt>
      <trkpt lat="44.53159" lon="6.03327">
        <ele>819</ele>
        <time>2016-05-06T06:30:42Z</time>
      </trkpt>
      <trkpt lat="44.5316" lon="6.03324">
        <ele>819.40002441406</ele>
        <time>2016-05-06T06:30:43Z</time>
      </trkpt>
      <trkpt lat="44.53164" lon="6.03309">
        <ele>819.40002441406</ele>
        <time>2016-05-06T06:30:47Z</time>
      </trkpt>
      <trkpt lat="44.53166" lon="6.03302">
        <ele>819.79998779297</ele>
        <time>2016-05-06T06:30:49Z</time>
      </trkpt>
      <trkpt lat="44.53167" lon="6.03299">
        <ele>820.20001220703</ele>
        <time>2016-05-06T06:30:50Z</time>
      </trkpt>
      <trkpt lat="44.53168" lon="6.03295">
        <ele>820.79998779297</ele>
        <time>2016-05-06T06:30:51Z</time>
      </trkpt>
      <trkpt lat="44.53169" lon="6.03292">
        <ele>821.20001220703</ele>
        <time>2016-05-06T06:30:52Z</time>
      </trkpt>
      <trkpt lat="44.5317" lon="6.03288">
        <ele>821.59997558594</ele>
        <time>2016-05-06T06:30:53Z</time>
      </trkpt>
      <trkpt lat="44.53173" lon="6.03274">
        <ele>821.59997558594</ele>
        <time>2016-05-06T06:30:57Z</time>
      </trkpt>
      <trkpt lat="44.53183" lon="6.03264">
        <ele>821.59997558594</ele>
        <time>2016-05-06T06:31:02Z</time>
      </trkpt>
      <trkpt lat="44.53186" lon="6.03265">
        <ele>822</ele>
        <time>2016-05-06T06:31:03Z</time>
      </trkpt>
      <trkpt lat="44.53189" lon="6.03266">
        <ele>822.40002441406</ele>
        <time>2016-05-06T06:31:04Z</time>
      </trkpt>
      <trkpt lat="44.53191" lon="6.03267">
        <ele>822.79998779297</ele>
        <time>2016-05-06T06:31:05Z</time>
      </trkpt>
      <trkpt lat="44.53194" lon="6.03269">
        <ele>823.20001220703</ele>
        <time>2016-05-06T06:31:06Z</time>
      </trkpt>
      <trkpt lat="44.53196" lon="6.0327">
        <ele>823.59997558594</ele>
        <time>2016-05-06T06:31:07Z</time>
      </trkpt>
      <trkpt lat="44.53212" lon="6.03277">
        <ele>824.20001220703</ele>
        <time>2016-05-06T06:31:14Z</time>
      </trkpt>
      <trkpt lat="44.53214" lon="6.03278">
        <ele>824.59997558594</ele>
        <time>2016-05-06T06:31:15Z</time>
      </trkpt>
      <trkpt lat="44.53216" lon="6.03278">
        <ele>825</ele>
        <time>2016-05-06T06:31:16Z</time>
      </trkpt>
      <trkpt lat="44.53218" lon="6.03279">
        <ele>825.40002441406</ele>
        <time>2016-05-06T06:31:17Z</time>
      </trkpt>
      <trkpt lat="44.5322" lon="6.0328">
        <ele>826</ele>
        <time>2016-05-06T06:31:18Z</time>
      </trkpt>
      <trkpt lat="44.53228" lon="6.03286">
        <ele>826.40002441406</ele>
        <time>2016-05-06T06:31:22Z</time>
      </trkpt>
      <trkpt lat="44.53231" lon="6.03286">
        <ele>826.79998779297</ele>
        <time>2016-05-06T06:31:23Z</time>
      </trkpt>
      <trkpt lat="44.53233" lon="6.03288">
        <ele>827.20001220703</ele>
        <time>2016-05-06T06:31:24Z</time>
      </trkpt>
      <trkpt lat="44.53234" lon="6.03289">
        <ele>827.59997558594</ele>
        <time>2016-05-06T06:31:25Z</time>
      </trkpt>
      <trkpt lat="44.53236" lon="6.0329">
        <ele>828</ele>
        <time>2016-05-06T06:31:26Z</time>
      </trkpt>
      <trkpt lat="44.53252" lon="6.03295">
        <ele>828.40002441406</ele>
        <time>2016-05-06T06:31:33Z</time>
      </trkpt>
      <trkpt lat="44.53254" lon="6.03296">
        <ele>828.79998779297</ele>
        <time>2016-05-06T06:31:34Z</time>
      </trkpt>
      <trkpt lat="44.53256" lon="6.03297">
        <ele>829.20001220703</ele>
        <time>2016-05-06T06:31:35Z</time>
      </trkpt>
      <trkpt lat="44.53258" lon="6.03298">
        <ele>829.59997558594</ele>
        <time>2016-05-06T06:31:36Z</time>
      </trkpt>
      <trkpt lat="44.5326" lon="6.033">
        <ele>830</ele>
        <time>2016-05-06T06:31:37Z</time>
      </trkpt>
      <trkpt lat="44.53267" lon="6.03303">
        <ele>830.40002441406</ele>
        <time>2016-05-06T06:31:40Z</time>
      </trkpt>
      <trkpt lat="44.53268" lon="6.03303">
        <ele>830.79998779297</ele>
        <time>2016-05-06T06:31:41Z</time>
      </trkpt>
      <trkpt lat="44.53271" lon="6.03304">
        <ele>831.20001220703</ele>
        <time>2016-05-06T06:31:42Z</time>
      </trkpt>
      <trkpt lat="44.53273" lon="6.03305">
        <ele>831.59997558594</ele>
        <time>2016-05-06T06:31:43Z</time>
      </trkpt>
      <trkpt lat="44.53275" lon="6.03306">
        <ele>832</ele>
        <time>2016-05-06T06:31:44Z</time>
      </trkpt>
      <trkpt lat="44.53287" lon="6.03312">
        <ele>832.59997558594</ele>
        <time>2016-05-06T06:31:50Z</time>
      </trkpt>
      <trkpt lat="44.53289" lon="6.03313">
        <ele>833</ele>
        <time>2016-05-06T06:31:51Z</time>
      </trkpt>
      <trkpt lat="44.53291" lon="6.03314">
        <ele>833.40002441406</ele>
        <time>2016-05-06T06:31:52Z</time>
      </trkpt>
      <trkpt lat="44.53294" lon="6.03315">
        <ele>833.79998779297</ele>
        <time>2016-05-06T06:31:53Z</time>
      </trkpt>
      <trkpt lat="44.53296" lon="6.03315">
        <ele>834.20001220703</ele>
        <time>2016-05-06T06:31:54Z</time>
      </trkpt>
      <trkpt lat="44.53307" lon="6.03319">
        <ele>834.59997558594</ele>
        <time>2016-05-06T06:31:59Z</time>
      </trkpt>
      <trkpt lat="44.53309" lon="6.0332">
        <ele>835.20001220703</ele>
        <time>2016-05-06T06:32:00Z</time>
      </trkpt>
      <trkpt lat="44.53311" lon="6.0332">
        <ele>835.59997558594</ele>
        <time>2016-05-06T06:32:01Z</time>
      </trkpt>
      <trkpt lat="44.53313" lon="6.03321">
        <ele>836</ele>
        <time>2016-05-06T06:32:02Z</time>
      </trkpt>
      <trkpt lat="44.53315" lon="6.03322">
        <ele>836.59997558594</ele>
        <time>2016-05-06T06:32:03Z</time>
      </trkpt>
      <trkpt lat="44.53338" lon="6.03327">
        <ele>836.59997558594</ele>
        <time>2016-05-06T06:32:12Z</time>
      </trkpt>
      <trkpt lat="44.53352" lon="6.03324">
        <ele>837</ele>
        <time>2016-05-06T06:32:18Z</time>
      </trkpt>
      <trkpt lat="44.53354" lon="6.03323">
        <ele>837.40002441406</ele>
        <time>2016-05-06T06:32:19Z</time>
      </trkpt>
      <trkpt lat="44.53357" lon="6.03322">
        <ele>838</ele>
        <time>2016-05-06T06:32:20Z</time>
      </trkpt>
      <trkpt lat="44.53358" lon="6.03321">
        <ele>838.40002441406</ele>
        <time>2016-05-06T06:32:21Z</time>
      </trkpt>
      <trkpt lat="44.5336" lon="6.0332">
        <ele>839</ele>
        <time>2016-05-06T06:32:22Z</time>
      </trkpt>
      <trkpt lat="44.53374" lon="6.03314">
        <ele>839.40002441406</ele>
        <time>2016-05-06T06:32:28Z</time>
      </trkpt>
      <trkpt lat="44.53376" lon="6.03314">
        <ele>839.79998779297</ele>
        <time>2016-05-06T06:32:29Z</time>
      </trkpt>
      <trkpt lat="44.53378" lon="6.03313">
        <ele>840.20001220703</ele>
        <time>2016-05-06T06:32:30Z</time>
      </trkpt>
      <trkpt lat="44.5338" lon="6.03312">
        <ele>840.59997558594</ele>
        <time>2016-05-06T06:32:31Z</time>
      </trkpt>
      <trkpt lat="44.53382" lon="6.03311">
        <ele>841</ele>
        <time>2016-05-06T06:32:32Z</time>
      </trkpt>
      <trkpt lat="44.53397" lon="6.03313">
        <ele>841</ele>
        <time>2016-05-06T06:32:39Z</time>
      </trkpt>
      <trkpt lat="44.53399" lon="6.03314">
        <ele>841.59997558594</ele>
        <time>2016-05-06T06:32:40Z</time>
      </trkpt>
      <trkpt lat="44.53401" lon="6.03314">
        <ele>842</ele>
        <time>2016-05-06T06:32:41Z</time>
      </trkpt>
      <trkpt lat="44.53403" lon="6.03315">
        <ele>842.40002441406</ele>
        <time>2016-05-06T06:32:42Z</time>
      </trkpt>
      <trkpt lat="44.53405" lon="6.03316">
        <ele>842.79998779297</ele>
        <time>2016-05-06T06:32:43Z</time>
      </trkpt>
      <trkpt lat="44.53407" lon="6.03317">
        <ele>843.20001220703</ele>
        <time>2016-05-06T06:32:44Z</time>
      </trkpt>
      <trkpt lat="44.53416" lon="6.03321">
        <ele>843.20001220703</ele>
        <time>2016-05-06T06:32:48Z</time>
      </trkpt>
      <trkpt lat="44.53429" lon="6.03325">
        <ele>843.59997558594</ele>
        <time>2016-05-06T06:32:53Z</time>
      </trkpt>
      <trkpt lat="44.53431" lon="6.03325">
        <ele>844</ele>
        <time>2016-05-06T06:32:54Z</time>
      </trkpt>
      <trkpt lat="44.53434" lon="6.03326">
        <ele>844.59997558594</ele>
        <time>2016-05-06T06:32:55Z</time>
      </trkpt>
      <trkpt lat="44.53436" lon="6.03326">
        <ele>845</ele>
        <time>2016-05-06T06:32:56Z</time>
      </trkpt>
      <trkpt lat="44.53438" lon="6.03326">
        <ele>845.40002441406</ele>
        <time>2016-05-06T06:32:57Z</time>
      </trkpt>
      <trkpt lat="44.53453" lon="6.03321">
        <ele>845.40002441406</ele>
        <time>2016-05-06T06:33:03Z</time>
      </trkpt>
      <trkpt lat="44.53458" lon="6.0332">
        <ele>845.79998779297</ele>
        <time>2016-05-06T06:33:05Z</time>
      </trkpt>
      <trkpt lat="44.53461" lon="6.03318">
        <ele>846.20001220703</ele>
        <time>2016-05-06T06:33:06Z</time>
      </trkpt>
      <trkpt lat="44.53464" lon="6.03317">
        <ele>846.59997558594</ele>
        <time>2016-05-06T06:33:07Z</time>
      </trkpt>
      <trkpt lat="44.53467" lon="6.03315">
        <ele>847</ele>
        <time>2016-05-06T06:33:08Z</time>
      </trkpt>
      <trkpt lat="44.5347" lon="6.03314">
        <ele>847.59997558594</ele>
        <time>2016-05-06T06:33:09Z</time>
      </trkpt>
      <trkpt lat="44.5348" lon="6.03308">
        <ele>847.59997558594</ele>
        <time>2016-05-06T06:33:13Z</time>
      </trkpt>
      <trkpt lat="44.53494" lon="6.03286">
        <ele>847.59997558594</ele>
        <time>2016-05-06T06:33:21Z</time>
      </trkpt>
      <trkpt lat="44.53496" lon="6.03282">
        <ele>848</ele>
        <time>2016-05-06T06:33:22Z</time>
      </trkpt>
      <trkpt lat="44.53498" lon="6.03279">
        <ele>848.40002441406</ele>
        <time>2016-05-06T06:33:23Z</time>
      </trkpt>
      <trkpt lat="44.535" lon="6.03276">
        <ele>848.79998779297</ele>
        <time>2016-05-06T06:33:24Z</time>
      </trkpt>
      <trkpt lat="44.535" lon="6.03272">
        <ele>849.20001220703</ele>
        <time>2016-05-06T06:33:25Z</time>
      </trkpt>
      <trkpt lat="44.53501" lon="6.03267">
        <ele>849.59997558594</ele>
        <time>2016-05-06T06:33:26Z</time>
      </trkpt>
      <trkpt lat="44.53503" lon="6.0326">
        <ele>849.59997558594</ele>
        <time>2016-05-06T06:33:28Z</time>
      </trkpt>
      <trkpt lat="44.53504" lon="6.03235">
        <ele>849.59997558594</ele>
        <time>2016-05-06T06:33:34Z</time>
      </trkpt>
      <trkpt lat="44.53501" lon="6.03223">
        <ele>850</ele>
        <time>2016-05-06T06:33:37Z</time>
      </trkpt>
      <trkpt lat="44.535" lon="6.03219">
        <ele>850.40002441406</ele>
        <time>2016-05-06T06:33:38Z</time>
      </trkpt>
      <trkpt lat="44.53498" lon="6.03215">
        <ele>850.79998779297</ele>
        <time>2016-05-06T06:33:39Z</time>
      </trkpt>
      <trkpt lat="44.53497" lon="6.03211">
        <ele>851.20001220703</ele>
        <time>2016-05-06T06:33:40Z</time>
      </trkpt>
      <trkpt lat="44.53495" lon="6.03206">
        <ele>851.59997558594</ele>
        <time>2016-05-06T06:33:41Z</time>
      </trkpt>
      <trkpt lat="44.53483" lon="6.03183">
        <ele>851.59997558594</ele>
        <time>2016-05-06T06:33:47Z</time>
      </trkpt>
      <trkpt lat="44.53479" lon="6.03176">
        <ele>852.20001220703</ele>
        <time>2016-05-06T06:33:49Z</time>
      </trkpt>
      <trkpt lat="44.53477" lon="6.03173">
        <ele>852.59997558594</ele>
        <time>2016-05-06T06:33:50Z</time>
      </trkpt>
      <trkpt lat="44.53471" lon="6.03168">
        <ele>853</ele>
        <time>2016-05-06T06:33:52Z</time>
      </trkpt>
      <trkpt lat="44.53469" lon="6.03165">
        <ele>853.40002441406</ele>
        <time>2016-05-06T06:33:53Z</time>
      </trkpt>
      <trkpt lat="44.53466" lon="6.03162">
        <ele>853.79998779297</ele>
        <time>2016-05-06T06:33:54Z</time>
      </trkpt>
      <trkpt lat="44.5346" lon="6.03157">
        <ele>853.79998779297</ele>
        <time>2016-05-06T06:33:56Z</time>
      </trkpt>
      <trkpt lat="44.53446" lon="6.03144">
        <ele>854.20001220703</ele>
        <time>2016-05-06T06:34:01Z</time>
      </trkpt>
      <trkpt lat="44.53442" lon="6.03142">
        <ele>854.59997558594</ele>
        <time>2016-05-06T06:34:02Z</time>
      </trkpt>
      <trkpt lat="44.53439" lon="6.03139">
        <ele>855</ele>
        <time>2016-05-06T06:34:03Z</time>
      </trkpt>
      <trkpt lat="44.53437" lon="6.03137">
        <ele>855.40002441406</ele>
        <time>2016-05-06T06:34:04Z</time>
      </trkpt>
      <trkpt lat="44.53434" lon="6.03134">
        <ele>856</ele>
        <time>2016-05-06T06:34:05Z</time>
      </trkpt>
      <trkpt lat="44.53408" lon="6.03108">
        <ele>856</ele>
        <time>2016-05-06T06:34:12Z</time>
      </trkpt>
      <trkpt lat="44.53399" lon="6.03091">
        <ele>856</ele>
        <time>2016-05-06T06:34:15Z</time>
      </trkpt>
      <trkpt lat="44.53394" lon="6.03079">
        <ele>856</ele>
        <time>2016-05-06T06:34:17Z</time>
      </trkpt>
      <trkpt lat="44.53392" lon="6.03073">
        <ele>856</ele>
        <time>2016-05-06T06:34:18Z</time>
      </trkpt>
      <trkpt lat="44.53385" lon="6.03041">
        <ele>856</ele>
        <time>2016-05-06T06:34:23Z</time>
      </trkpt>
      <trkpt lat="44.53372" lon="6.03001">
        <ele>856</ele>
        <time>2016-05-06T06:34:30Z</time>
      </trkpt>
      <trkpt lat="44.53368" lon="6.0299">
        <ele>856.40002441406</ele>
        <time>2016-05-06T06:34:32Z</time>
      </trkpt>
      <trkpt lat="44.53365" lon="6.02985">
        <ele>856.79998779297</ele>
        <time>2016-05-06T06:34:33Z</time>
      </trkpt>
      <trkpt lat="44.53362" lon="6.0298">
        <ele>857.20001220703</ele>
        <time>2016-05-06T06:34:34Z</time>
      </trkpt>
      <trkpt lat="44.53359" lon="6.02975">
        <ele>857.59997558594</ele>
        <time>2016-05-06T06:34:35Z</time>
      </trkpt>
      <trkpt lat="44.53356" lon="6.02972">
        <ele>858</ele>
        <time>2016-05-06T06:34:36Z</time>
      </trkpt>
      <trkpt lat="44.53352" lon="6.02968">
        <ele>858</ele>
        <time>2016-05-06T06:34:37Z</time>
      </trkpt>
      <trkpt lat="44.5334" lon="6.0296">
        <ele>858</ele>
        <time>2016-05-06T06:34:40Z</time>
      </trkpt>
      <trkpt lat="44.53336" lon="6.02958">
        <ele>858</ele>
        <time>2016-05-06T06:34:41Z</time>
      </trkpt>
      <trkpt lat="44.53316" lon="6.02948">
        <ele>858.40002441406</ele>
        <time>2016-05-06T06:34:47Z</time>
      </trkpt>
      <trkpt lat="44.53313" lon="6.02946">
        <ele>858.79998779297</ele>
        <time>2016-05-06T06:34:48Z</time>
      </trkpt>
      <trkpt lat="44.53308" lon="6.02943">
        <ele>859.20001220703</ele>
        <time>2016-05-06T06:34:49Z</time>
      </trkpt>
      <trkpt lat="44.53305" lon="6.02941">
        <ele>859.59997558594</ele>
        <time>2016-05-06T06:34:50Z</time>
      </trkpt>
      <trkpt lat="44.533" lon="6.02938">
        <ele>860</ele>
        <time>2016-05-06T06:34:51Z</time>
      </trkpt>
      <trkpt lat="44.53286" lon="6.02925">
        <ele>860</ele>
        <time>2016-05-06T06:34:55Z</time>
      </trkpt>
      <trkpt lat="44.53273" lon="6.02916">
        <ele>860.59997558594</ele>
        <time>2016-05-06T06:34:59Z</time>
      </trkpt>
      <trkpt lat="44.53269" lon="6.02914">
        <ele>861</ele>
        <time>2016-05-06T06:35:00Z</time>
      </trkpt>
      <trkpt lat="44.53266" lon="6.02912">
        <ele>861.40002441406</ele>
        <time>2016-05-06T06:35:01Z</time>
      </trkpt>
      <trkpt lat="44.53263" lon="6.0291">
        <ele>861.79998779297</ele>
        <time>2016-05-06T06:35:02Z</time>
      </trkpt>
      <trkpt lat="44.53261" lon="6.02908">
        <ele>862.20001220703</ele>
        <time>2016-05-06T06:35:03Z</time>
      </trkpt>
      <trkpt lat="44.53245" lon="6.02895">
        <ele>862.79998779297</ele>
        <time>2016-05-06T06:35:09Z</time>
      </trkpt>
      <trkpt lat="44.53241" lon="6.02893">
        <ele>863.20001220703</ele>
        <time>2016-05-06T06:35:10Z</time>
      </trkpt>
      <trkpt lat="44.53239" lon="6.02891">
        <ele>863.59997558594</ele>
        <time>2016-05-06T06:35:11Z</time>
      </trkpt>
      <trkpt lat="44.53235" lon="6.02889">
        <ele>864</ele>
        <time>2016-05-06T06:35:12Z</time>
      </trkpt>
      <trkpt lat="44.53229" lon="6.02885">
        <ele>864.40002441406</ele>
        <time>2016-05-06T06:35:13Z</time>
      </trkpt>
      <trkpt lat="44.53218" lon="6.02874">
        <ele>864.40002441406</ele>
        <time>2016-05-06T06:35:16Z</time>
      </trkpt>
      <trkpt lat="44.53209" lon="6.02865">
        <ele>864.79998779297</ele>
        <time>2016-05-06T06:35:19Z</time>
      </trkpt>
      <trkpt lat="44.53206" lon="6.02861">
        <ele>865.40002441406</ele>
        <time>2016-05-06T06:35:20Z</time>
      </trkpt>
      <trkpt lat="44.53204" lon="6.02859">
        <ele>865.79998779297</ele>
        <time>2016-05-06T06:35:21Z</time>
      </trkpt>
      <trkpt lat="44.53202" lon="6.02856">
        <ele>866.20001220703</ele>
        <time>2016-05-06T06:35:22Z</time>
      </trkpt>
      <trkpt lat="44.532" lon="6.02854">
        <ele>866.59997558594</ele>
        <time>2016-05-06T06:35:23Z</time>
      </trkpt>
      <trkpt lat="44.53199" lon="6.02851">
        <ele>866.59997558594</ele>
        <time>2016-05-06T06:35:24Z</time>
      </trkpt>
      <trkpt lat="44.53197" lon="6.02846">
        <ele>867</ele>
        <time>2016-05-06T06:35:26Z</time>
      </trkpt>
      <trkpt lat="44.53196" lon="6.02844">
        <ele>867.40002441406</ele>
        <time>2016-05-06T06:35:27Z</time>
      </trkpt>
      <trkpt lat="44.53194" lon="6.02842">
        <ele>867.79998779297</ele>
        <time>2016-05-06T06:35:28Z</time>
      </trkpt>
      <trkpt lat="44.53193" lon="6.0284">
        <ele>868.20001220703</ele>
        <time>2016-05-06T06:35:29Z</time>
      </trkpt>
      <trkpt lat="44.53191" lon="6.02837">
        <ele>868.59997558594</ele>
        <time>2016-05-06T06:35:30Z</time>
      </trkpt>
      <trkpt lat="44.53188" lon="6.02834">
        <ele>868.59997558594</ele>
        <time>2016-05-06T06:35:32Z</time>
      </trkpt>
      <trkpt lat="44.53186" lon="6.0283">
        <ele>869</ele>
        <time>2016-05-06T06:35:34Z</time>
      </trkpt>
      <trkpt lat="44.53184" lon="6.02828">
        <ele>869.40002441406</ele>
        <time>2016-05-06T06:35:35Z</time>
      </trkpt>
      <trkpt lat="44.53183" lon="6.02826">
        <ele>869.79998779297</ele>
        <time>2016-05-06T06:35:36Z</time>
      </trkpt>
      <trkpt lat="44.53182" lon="6.02824">
        <ele>870.20001220703</ele>
        <time>2016-05-06T06:35:37Z</time>
      </trkpt>
      <trkpt lat="44.5318" lon="6.02821">
        <ele>870.59997558594</ele>
        <time>2016-05-06T06:35:38Z</time>
      </trkpt>
      <trkpt lat="44.53176" lon="6.02815">
        <ele>871</ele>
        <time>2016-05-06T06:35:41Z</time>
      </trkpt>
      <trkpt lat="44.53175" lon="6.02813">
        <ele>871.59997558594</ele>
        <time>2016-05-06T06:35:42Z</time>
      </trkpt>
      <trkpt lat="44.53175" lon="6.0281">
        <ele>872</ele>
        <time>2016-05-06T06:35:43Z</time>
      </trkpt>
      <trkpt lat="44.53172" lon="6.02809">
        <ele>872.40002441406</ele>
        <time>2016-05-06T06:35:44Z</time>
      </trkpt>
      <trkpt lat="44.5317" lon="6.02806">
        <ele>872.79998779297</ele>
        <time>2016-05-06T06:35:45Z</time>
      </trkpt>
      <trkpt lat="44.53169" lon="6.02805">
        <ele>872.79998779297</ele>
        <time>2016-05-06T06:35:46Z</time>
      </trkpt>
      <trkpt lat="44.53167" lon="6.02802">
        <ele>873.20001220703</ele>
        <time>2016-05-06T06:35:47Z</time>
      </trkpt>
      <trkpt lat="44.53166" lon="6.028">
        <ele>873.59997558594</ele>
        <time>2016-05-06T06:35:48Z</time>
      </trkpt>
      <trkpt lat="44.53166" lon="6.02797">
        <ele>874</ele>
        <time>2016-05-06T06:35:49Z</time>
      </trkpt>
      <trkpt lat="44.53166" lon="6.02795">
        <ele>874.40002441406</ele>
        <time>2016-05-06T06:35:50Z</time>
      </trkpt>
      <trkpt lat="44.53166" lon="6.02793">
        <ele>875</ele>
        <time>2016-05-06T06:35:51Z</time>
      </trkpt>
      <trkpt lat="44.53166" lon="6.02787">
        <ele>875</ele>
        <time>2016-05-06T06:35:53Z</time>
      </trkpt>
      <trkpt lat="44.53167" lon="6.02784">
        <ele>875.40002441406</ele>
        <time>2016-05-06T06:35:54Z</time>
      </trkpt>
      <trkpt lat="44.53167" lon="6.02781">
        <ele>875.79998779297</ele>
        <time>2016-05-06T06:35:55Z</time>
      </trkpt>
      <trkpt lat="44.53168" lon="6.02778">
        <ele>876.20001220703</ele>
        <time>2016-05-06T06:35:56Z</time>
      </trkpt>
      <trkpt lat="44.53168" lon="6.02775">
        <ele>876.59997558594</ele>
        <time>2016-05-06T06:35:57Z</time>
      </trkpt>
      <trkpt lat="44.53169" lon="6.02772">
        <ele>877</ele>
        <time>2016-05-06T06:35:58Z</time>
      </trkpt>
      <trkpt lat="44.53178" lon="6.02745">
        <ele>877</ele>
        <time>2016-05-06T06:36:06Z</time>
      </trkpt>
      <trkpt lat="44.53181" lon="6.02734">
        <ele>877.40002441406</ele>
        <time>2016-05-06T06:36:09Z</time>
      </trkpt>
      <trkpt lat="44.53183" lon="6.0273">
        <ele>877.79998779297</ele>
        <time>2016-05-06T06:36:10Z</time>
      </trkpt>
      <trkpt lat="44.53184" lon="6.02727">
        <ele>878.20001220703</ele>
        <time>2016-05-06T06:36:11Z</time>
      </trkpt>
      <trkpt lat="44.53186" lon="6.02723">
        <ele>878.59997558594</ele>
        <time>2016-05-06T06:36:12Z</time>
      </trkpt>
      <trkpt lat="44.53187" lon="6.02719">
        <ele>879</ele>
        <time>2016-05-06T06:36:13Z</time>
      </trkpt>
      <trkpt lat="44.53189" lon="6.02711">
        <ele>879</ele>
        <time>2016-05-06T06:36:15Z</time>
      </trkpt>
      <trkpt lat="44.5319" lon="6.02685">
        <ele>879</ele>
        <time>2016-05-06T06:36:21Z</time>
      </trkpt>
      <trkpt lat="44.53189" lon="6.02669">
        <ele>879.40002441406</ele>
        <time>2016-05-06T06:36:25Z</time>
      </trkpt>
      <trkpt lat="44.53189" lon="6.02666">
        <ele>879.79998779297</ele>
        <time>2016-05-06T06:36:26Z</time>
      </trkpt>
      <trkpt lat="44.53189" lon="6.02663">
        <ele>880.40002441406</ele>
        <time>2016-05-06T06:36:27Z</time>
      </trkpt>
      <trkpt lat="44.53189" lon="6.02659">
        <ele>880.79998779297</ele>
        <time>2016-05-06T06:36:28Z</time>
      </trkpt>
      <trkpt lat="44.53189" lon="6.02655">
        <ele>881.20001220703</ele>
        <time>2016-05-06T06:36:29Z</time>
      </trkpt>
      <trkpt lat="44.53189" lon="6.02651">
        <ele>881.20001220703</ele>
        <time>2016-05-06T06:36:30Z</time>
      </trkpt>
      <trkpt lat="44.53189" lon="6.0264">
        <ele>881.59997558594</ele>
        <time>2016-05-06T06:36:33Z</time>
      </trkpt>
      <trkpt lat="44.53189" lon="6.02637">
        <ele>882</ele>
        <time>2016-05-06T06:36:34Z</time>
      </trkpt>
      <trkpt lat="44.5319" lon="6.02634">
        <ele>882.40002441406</ele>
        <time>2016-05-06T06:36:35Z</time>
      </trkpt>
      <trkpt lat="44.5319" lon="6.0263">
        <ele>882.79998779297</ele>
        <time>2016-05-06T06:36:36Z</time>
      </trkpt>
      <trkpt lat="44.5319" lon="6.02627">
        <ele>883.20001220703</ele>
        <time>2016-05-06T06:36:37Z</time>
      </trkpt>
      <trkpt lat="44.53192" lon="6.0262">
        <ele>883.20001220703</ele>
        <time>2016-05-06T06:36:39Z</time>
      </trkpt>
      <trkpt lat="44.53194" lon="6.02606">
        <ele>883.59997558594</ele>
        <time>2016-05-06T06:36:43Z</time>
      </trkpt>
      <trkpt lat="44.53194" lon="6.02603">
        <ele>884.20001220703</ele>
        <time>2016-05-06T06:36:44Z</time>
      </trkpt>
      <trkpt lat="44.53195" lon="6.02599">
        <ele>884.59997558594</ele>
        <time>2016-05-06T06:36:45Z</time>
      </trkpt>
      <trkpt lat="44.53196" lon="6.02595">
        <ele>885</ele>
        <time>2016-05-06T06:36:46Z</time>
      </trkpt>
      <trkpt lat="44.53197" lon="6.02591">
        <ele>885.40002441406</ele>
        <time>2016-05-06T06:36:47Z</time>
      </trkpt>
      <trkpt lat="44.53198" lon="6.02584">
        <ele>885.40002441406</ele>
        <time>2016-05-06T06:36:49Z</time>
      </trkpt>
      <trkpt lat="44.532" lon="6.02569">
        <ele>885.79998779297</ele>
        <time>2016-05-06T06:36:53Z</time>
      </trkpt>
      <trkpt lat="44.532" lon="6.02564">
        <ele>886.20001220703</ele>
        <time>2016-05-06T06:36:54Z</time>
      </trkpt>
      <trkpt lat="44.53201" lon="6.0256">
        <ele>886.59997558594</ele>
        <time>2016-05-06T06:36:55Z</time>
      </trkpt>
      <trkpt lat="44.532" lon="6.02555">
        <ele>887</ele>
        <time>2016-05-06T06:36:56Z</time>
      </trkpt>
      <trkpt lat="44.532" lon="6.0255">
        <ele>887.40002441406</ele>
        <time>2016-05-06T06:36:57Z</time>
      </trkpt>
      <trkpt lat="44.53201" lon="6.02541">
        <ele>887.40002441406</ele>
        <time>2016-05-06T06:36:59Z</time>
      </trkpt>
      <trkpt lat="44.53196" lon="6.02514">
        <ele>887.40002441406</ele>
        <time>2016-05-06T06:37:05Z</time>
      </trkpt>
      <trkpt lat="44.53194" lon="6.02509">
        <ele>887.40002441406</ele>
        <time>2016-05-06T06:37:06Z</time>
      </trkpt>
      <trkpt lat="44.53182" lon="6.02481">
        <ele>887.40002441406</ele>
        <time>2016-05-06T06:37:13Z</time>
      </trkpt>
      <trkpt lat="44.53178" lon="6.02455">
        <ele>887.79998779297</ele>
        <time>2016-05-06T06:37:19Z</time>
      </trkpt>
      <trkpt lat="44.5318" lon="6.0245">
        <ele>888.40002441406</ele>
        <time>2016-05-06T06:37:20Z</time>
      </trkpt>
      <trkpt lat="44.53181" lon="6.02446">
        <ele>888.79998779297</ele>
        <time>2016-05-06T06:37:21Z</time>
      </trkpt>
      <trkpt lat="44.53184" lon="6.02443">
        <ele>889.20001220703</ele>
        <time>2016-05-06T06:37:22Z</time>
      </trkpt>
      <trkpt lat="44.53186" lon="6.0244">
        <ele>889.59997558594</ele>
        <time>2016-05-06T06:37:23Z</time>
      </trkpt>
      <trkpt lat="44.53194" lon="6.02431">
        <ele>890.20001220703</ele>
        <time>2016-05-06T06:37:27Z</time>
      </trkpt>
      <trkpt lat="44.53194" lon="6.02428">
        <ele>890.59997558594</ele>
        <time>2016-05-06T06:37:28Z</time>
      </trkpt>
      <trkpt lat="44.53192" lon="6.02422">
        <ele>891.20001220703</ele>
        <time>2016-05-06T06:37:29Z</time>
      </trkpt>
      <trkpt lat="44.53191" lon="6.02418">
        <ele>891.59997558594</ele>
        <time>2016-05-06T06:37:30Z</time>
      </trkpt>
      <trkpt lat="44.53189" lon="6.02414">
        <ele>892</ele>
        <time>2016-05-06T06:37:31Z</time>
      </trkpt>
      <trkpt lat="44.53186" lon="6.02405">
        <ele>892</ele>
        <time>2016-05-06T06:37:33Z</time>
      </trkpt>
      <trkpt lat="44.53186" lon="6.02402">
        <ele>892</ele>
        <time>2016-05-06T06:37:34Z</time>
      </trkpt>
      <trkpt lat="44.53183" lon="6.02395">
        <ele>892.40002441406</ele>
        <time>2016-05-06T06:37:38Z</time>
      </trkpt>
      <trkpt lat="44.53182" lon="6.02393">
        <ele>892.79998779297</ele>
        <time>2016-05-06T06:37:39Z</time>
      </trkpt>
      <trkpt lat="44.53182" lon="6.02391">
        <ele>893.20001220703</ele>
        <time>2016-05-06T06:37:40Z</time>
      </trkpt>
      <trkpt lat="44.53181" lon="6.02389">
        <ele>893.59997558594</ele>
        <time>2016-05-06T06:37:41Z</time>
      </trkpt>
      <trkpt lat="44.53181" lon="6.02387">
        <ele>894</ele>
        <time>2016-05-06T06:37:42Z</time>
      </trkpt>
      <trkpt lat="44.5318" lon="6.02384">
        <ele>894.59997558594</ele>
        <time>2016-05-06T06:37:44Z</time>
      </trkpt>
      <trkpt lat="44.53178" lon="6.02381">
        <ele>895</ele>
        <time>2016-05-06T06:37:45Z</time>
      </trkpt>
      <trkpt lat="44.53177" lon="6.02378">
        <ele>895.40002441406</ele>
        <time>2016-05-06T06:37:46Z</time>
      </trkpt>
      <trkpt lat="44.53176" lon="6.02376">
        <ele>895.79998779297</ele>
        <time>2016-05-06T06:37:47Z</time>
      </trkpt>
      <trkpt lat="44.53175" lon="6.02373">
        <ele>896.20001220703</ele>
        <time>2016-05-06T06:37:48Z</time>
      </trkpt>
      <trkpt lat="44.53168" lon="6.02357">
        <ele>896.59997558594</ele>
        <time>2016-05-06T06:37:54Z</time>
      </trkpt>
      <trkpt lat="44.53167" lon="6.02355">
        <ele>897</ele>
        <time>2016-05-06T06:37:55Z</time>
      </trkpt>
      <trkpt lat="44.53167" lon="6.02354">
        <ele>897.40002441406</ele>
        <time>2016-05-06T06:37:56Z</time>
      </trkpt>
      <trkpt lat="44.53167" lon="6.02352">
        <ele>897.79998779297</ele>
        <time>2016-05-06T06:37:57Z</time>
      </trkpt>
      <trkpt lat="44.53167" lon="6.02349">
        <ele>898.20001220703</ele>
        <time>2016-05-06T06:37:58Z</time>
      </trkpt>
      <trkpt lat="44.53167" lon="6.0234">
        <ele>898.59997558594</ele>
        <time>2016-05-06T06:38:02Z</time>
      </trkpt>
      <trkpt lat="44.53167" lon="6.02337">
        <ele>899</ele>
        <time>2016-05-06T06:38:03Z</time>
      </trkpt>
      <trkpt lat="44.53167" lon="6.02334">
        <ele>899.59997558594</ele>
        <time>2016-05-06T06:38:04Z</time>
      </trkpt>
      <trkpt lat="44.53166" lon="6.02331">
        <ele>900</ele>
        <time>2016-05-06T06:38:05Z</time>
      </trkpt>
      <trkpt lat="44.53165" lon="6.02328">
        <ele>900.40002441406</ele>
        <time>2016-05-06T06:38:06Z</time>
      </trkpt>
      <trkpt lat="44.53162" lon="6.02318">
        <ele>900.79998779297</ele>
        <time>2016-05-06T06:38:10Z</time>
      </trkpt>
      <trkpt lat="44.53161" lon="6.02314">
        <ele>901.20001220703</ele>
        <time>2016-05-06T06:38:11Z</time>
      </trkpt>
      <trkpt lat="44.5316" lon="6.02312">
        <ele>901.59997558594</ele>
        <time>2016-05-06T06:38:12Z</time>
      </trkpt>
      <trkpt lat="44.5316" lon="6.02309">
        <ele>902.20001220703</ele>
        <time>2016-05-06T06:38:13Z</time>
      </trkpt>
      <trkpt lat="44.53159" lon="6.02306">
        <ele>902.59997558594</ele>
        <time>2016-05-06T06:38:14Z</time>
      </trkpt>
      <trkpt lat="44.53159" lon="6.02304">
        <ele>902.59997558594</ele>
        <time>2016-05-06T06:38:15Z</time>
      </trkpt>
      <trkpt lat="44.53157" lon="6.02295">
        <ele>903</ele>
        <time>2016-05-06T06:38:18Z</time>
      </trkpt>
      <trkpt lat="44.53156" lon="6.02292">
        <ele>903.40002441406</ele>
        <time>2016-05-06T06:38:19Z</time>
      </trkpt>
      <trkpt lat="44.53156" lon="6.02289">
        <ele>904</ele>
        <time>2016-05-06T06:38:20Z</time>
      </trkpt>
      <trkpt lat="44.53156" lon="6.02286">
        <ele>904.40002441406</ele>
        <time>2016-05-06T06:38:21Z</time>
      </trkpt>
      <trkpt lat="44.53157" lon="6.02284">
        <ele>904.79998779297</ele>
        <time>2016-05-06T06:38:22Z</time>
      </trkpt>
      <trkpt lat="44.53159" lon="6.02277">
        <ele>904.79998779297</ele>
        <time>2016-05-06T06:38:25Z</time>
      </trkpt>
      <trkpt lat="44.53161" lon="6.02264">
        <ele>905.20001220703</ele>
        <time>2016-05-06T06:38:30Z</time>
      </trkpt>
      <trkpt lat="44.53161" lon="6.02261">
        <ele>905.79998779297</ele>
        <time>2016-05-06T06:38:31Z</time>
      </trkpt>
      <trkpt lat="44.53162" lon="6.02259">
        <ele>906.20001220703</ele>
        <time>2016-05-06T06:38:32Z</time>
      </trkpt>
      <trkpt lat="44.53162" lon="6.02256">
        <ele>906.59997558594</ele>
        <time>2016-05-06T06:38:33Z</time>
      </trkpt>
      <trkpt lat="44.53162" lon="6.02253">
        <ele>907</ele>
        <time>2016-05-06T06:38:34Z</time>
      </trkpt>
      <trkpt lat="44.53162" lon="6.02248">
        <ele>907</ele>
        <time>2016-05-06T06:38:36Z</time>
      </trkpt>
      <trkpt lat="44.53164" lon="6.02229">
        <ele>907.40002441406</ele>
        <time>2016-05-06T06:38:43Z</time>
      </trkpt>
      <trkpt lat="44.53164" lon="6.02227">
        <ele>907.79998779297</ele>
        <time>2016-05-06T06:38:44Z</time>
      </trkpt>
      <trkpt lat="44.53163" lon="6.02224">
        <ele>908.20001220703</ele>
        <time>2016-05-06T06:38:45Z</time>
      </trkpt>
      <trkpt lat="44.53164" lon="6.02221">
        <ele>908.59997558594</ele>
        <time>2016-05-06T06:38:46Z</time>
      </trkpt>
      <trkpt lat="44.53164" lon="6.02218">
        <ele>909</ele>
        <time>2016-05-06T06:38:47Z</time>
      </trkpt>
      <trkpt lat="44.53165" lon="6.02205">
        <ele>909.59997558594</ele>
        <time>2016-05-06T06:38:52Z</time>
      </trkpt>
      <trkpt lat="44.53165" lon="6.02202">
        <ele>910.20001220703</ele>
        <time>2016-05-06T06:38:53Z</time>
      </trkpt>
      <trkpt lat="44.53165" lon="6.02199">
        <ele>910.59997558594</ele>
        <time>2016-05-06T06:38:54Z</time>
      </trkpt>
      <trkpt lat="44.53165" lon="6.02196">
        <ele>911.20001220703</ele>
        <time>2016-05-06T06:38:55Z</time>
      </trkpt>
      <trkpt lat="44.53165" lon="6.02193">
        <ele>911.59997558594</ele>
        <time>2016-05-06T06:38:56Z</time>
      </trkpt>
      <trkpt lat="44.53165" lon="6.02176">
        <ele>912</ele>
        <time>2016-05-06T06:39:03Z</time>
      </trkpt>
      <trkpt lat="44.53165" lon="6.02174">
        <ele>912.40002441406</ele>
        <time>2016-05-06T06:39:04Z</time>
      </trkpt>
      <trkpt lat="44.53165" lon="6.02171">
        <ele>912.79998779297</ele>
        <time>2016-05-06T06:39:05Z</time>
      </trkpt>
      <trkpt lat="44.53165" lon="6.02169">
        <ele>913.40002441406</ele>
        <time>2016-05-06T06:39:06Z</time>
      </trkpt>
      <trkpt lat="44.53165" lon="6.02167">
        <ele>913.79998779297</ele>
        <time>2016-05-06T06:39:07Z</time>
      </trkpt>
      <trkpt lat="44.53165" lon="6.02157">
        <ele>914.20001220703</ele>
        <time>2016-05-06T06:39:11Z</time>
      </trkpt>
      <trkpt lat="44.53165" lon="6.02155">
        <ele>914.59997558594</ele>
        <time>2016-05-06T06:39:12Z</time>
      </trkpt>
      <trkpt lat="44.53165" lon="6.02152">
        <ele>915</ele>
        <time>2016-05-06T06:39:13Z</time>
      </trkpt>
      <trkpt lat="44.53165" lon="6.0215">
        <ele>915.40002441406</ele>
        <time>2016-05-06T06:39:14Z</time>
      </trkpt>
      <trkpt lat="44.53165" lon="6.02148">
        <ele>915.79998779297</ele>
        <time>2016-05-06T06:39:15Z</time>
      </trkpt>
      <trkpt lat="44.53165" lon="6.02139">
        <ele>916.20001220703</ele>
        <time>2016-05-06T06:39:19Z</time>
      </trkpt>
      <trkpt lat="44.53165" lon="6.02137">
        <ele>916.59997558594</ele>
        <time>2016-05-06T06:39:20Z</time>
      </trkpt>
      <trkpt lat="44.53165" lon="6.02135">
        <ele>917</ele>
        <time>2016-05-06T06:39:21Z</time>
      </trkpt>
      <trkpt lat="44.53164" lon="6.02133">
        <ele>917.40002441406</ele>
        <time>2016-05-06T06:39:22Z</time>
      </trkpt>
      <trkpt lat="44.53164" lon="6.02128">
        <ele>917.79998779297</ele>
        <time>2016-05-06T06:39:24Z</time>
      </trkpt>
      <trkpt lat="44.53164" lon="6.0212">
        <ele>918.20001220703</ele>
        <time>2016-05-06T06:39:28Z</time>
      </trkpt>
      <trkpt lat="44.53165" lon="6.02118">
        <ele>918.59997558594</ele>
        <time>2016-05-06T06:39:29Z</time>
      </trkpt>
      <trkpt lat="44.53165" lon="6.02116">
        <ele>919</ele>
        <time>2016-05-06T06:39:30Z</time>
      </trkpt>
      <trkpt lat="44.53165" lon="6.02114">
        <ele>919.40002441406</ele>
        <time>2016-05-06T06:39:31Z</time>
      </trkpt>
      <trkpt lat="44.53165" lon="6.02112">
        <ele>919.79998779297</ele>
        <time>2016-05-06T06:39:32Z</time>
      </trkpt>
      <trkpt lat="44.53167" lon="6.02106">
        <ele>919.79998779297</ele>
        <time>2016-05-06T06:39:35Z</time>
      </trkpt>
      <trkpt lat="44.53168" lon="6.02104">
        <ele>920.40002441406</ele>
        <time>2016-05-06T06:39:36Z</time>
      </trkpt>
      <trkpt lat="44.53168" lon="6.02102">
        <ele>920.79998779297</ele>
        <time>2016-05-06T06:39:37Z</time>
      </trkpt>
      <trkpt lat="44.53169" lon="6.02101">
        <ele>921.20001220703</ele>
        <time>2016-05-06T06:39:38Z</time>
      </trkpt>
      <trkpt lat="44.5317" lon="6.021">
        <ele>921.59997558594</ele>
        <time>2016-05-06T06:39:39Z</time>
      </trkpt>
      <trkpt lat="44.5317" lon="6.02098">
        <ele>922</ele>
        <time>2016-05-06T06:39:40Z</time>
      </trkpt>
      <trkpt lat="44.53173" lon="6.02089">
        <ele>922.40002441406</ele>
        <time>2016-05-06T06:39:45Z</time>
      </trkpt>
      <trkpt lat="44.53173" lon="6.02088">
        <ele>922.79998779297</ele>
        <time>2016-05-06T06:39:46Z</time>
      </trkpt>
      <trkpt lat="44.53174" lon="6.02086">
        <ele>923.20001220703</ele>
        <time>2016-05-06T06:39:47Z</time>
      </trkpt>
      <trkpt lat="44.53175" lon="6.02084">
        <ele>923.59997558594</ele>
        <time>2016-05-06T06:39:48Z</time>
      </trkpt>
      <trkpt lat="44.53175" lon="6.02082">
        <ele>924</ele>
        <time>2016-05-06T06:39:49Z</time>
      </trkpt>
      <trkpt lat="44.53177" lon="6.02077">
        <ele>924.59997558594</ele>
        <time>2016-05-06T06:39:52Z</time>
      </trkpt>
      <trkpt lat="44.53178" lon="6.02075">
        <ele>925</ele>
        <time>2016-05-06T06:39:53Z</time>
      </trkpt>
      <trkpt lat="44.53178" lon="6.02074">
        <ele>925.40002441406</ele>
        <time>2016-05-06T06:39:54Z</time>
      </trkpt>
      <trkpt lat="44.53178" lon="6.02071">
        <ele>925.79998779297</ele>
        <time>2016-05-06T06:39:55Z</time>
      </trkpt>
      <trkpt lat="44.53178" lon="6.0207">
        <ele>926.20001220703</ele>
        <time>2016-05-06T06:39:56Z</time>
      </trkpt>
      <trkpt lat="44.53181" lon="6.02049">
        <ele>926.20001220703</ele>
        <time>2016-05-06T06:40:06Z</time>
      </trkpt>
      <trkpt lat="44.53181" lon="6.02047">
        <ele>926.79998779297</ele>
        <time>2016-05-06T06:40:07Z</time>
      </trkpt>
      <trkpt lat="44.53181" lon="6.02045">
        <ele>927.20001220703</ele>
        <time>2016-05-06T06:40:08Z</time>
      </trkpt>
      <trkpt lat="44.53181" lon="6.02043">
        <ele>927.79998779297</ele>
        <time>2016-05-06T06:40:09Z</time>
      </trkpt>
      <trkpt lat="44.53181" lon="6.02042">
        <ele>928.20001220703</ele>
        <time>2016-05-06T06:40:10Z</time>
      </trkpt>
      <trkpt lat="44.53181" lon="6.02039">
        <ele>928.79998779297</ele>
        <time>2016-05-06T06:40:11Z</time>
      </trkpt>
      <trkpt lat="44.53181" lon="6.02031">
        <ele>929.20001220703</ele>
        <time>2016-05-06T06:40:15Z</time>
      </trkpt>
      <trkpt lat="44.53181" lon="6.02029">
        <ele>929.59997558594</ele>
        <time>2016-05-06T06:40:16Z</time>
      </trkpt>
      <trkpt lat="44.53181" lon="6.02027">
        <ele>930</ele>
        <time>2016-05-06T06:40:17Z</time>
      </trkpt>
      <trkpt lat="44.53181" lon="6.02025">
        <ele>930.40002441406</ele>
        <time>2016-05-06T06:40:18Z</time>
      </trkpt>
      <trkpt lat="44.53181" lon="6.02023">
        <ele>930.79998779297</ele>
        <time>2016-05-06T06:40:19Z</time>
      </trkpt>
      <trkpt lat="44.53184" lon="6.02008">
        <ele>930.79998779297</ele>
        <time>2016-05-06T06:40:26Z</time>
      </trkpt>
      <trkpt lat="44.53186" lon="6.01999">
        <ele>931.20001220703</ele>
        <time>2016-05-06T06:40:31Z</time>
      </trkpt>
      <trkpt lat="44.53186" lon="6.01997">
        <ele>931.79998779297</ele>
        <time>2016-05-06T06:40:32Z</time>
      </trkpt>
      <trkpt lat="44.53187" lon="6.01995">
        <ele>932.20001220703</ele>
        <time>2016-05-06T06:40:33Z</time>
      </trkpt>
      <trkpt lat="44.53187" lon="6.01994">
        <ele>932.59997558594</ele>
        <time>2016-05-06T06:40:34Z</time>
      </trkpt>
      <trkpt lat="44.53188" lon="6.01992">
        <ele>933</ele>
        <time>2016-05-06T06:40:35Z</time>
      </trkpt>
      <trkpt lat="44.53188" lon="6.01987">
        <ele>933.40002441406</ele>
        <time>2016-05-06T06:40:37Z</time>
      </trkpt>
      <trkpt lat="44.53188" lon="6.01985">
        <ele>933.79998779297</ele>
        <time>2016-05-06T06:40:38Z</time>
      </trkpt>
      <trkpt lat="44.53188" lon="6.01983">
        <ele>934.20001220703</ele>
        <time>2016-05-06T06:40:39Z</time>
      </trkpt>
      <trkpt lat="44.53188" lon="6.0198">
        <ele>934.79998779297</ele>
        <time>2016-05-06T06:40:40Z</time>
      </trkpt>
      <trkpt lat="44.53188" lon="6.01978">
        <ele>935.20001220703</ele>
        <time>2016-05-06T06:40:41Z</time>
      </trkpt>
      <trkpt lat="44.53186" lon="6.01967">
        <ele>935.20001220703</ele>
        <time>2016-05-06T06:40:45Z</time>
      </trkpt>
      <trkpt lat="44.53182" lon="6.01946">
        <ele>935.20001220703</ele>
        <time>2016-05-06T06:40:52Z</time>
      </trkpt>
      <trkpt lat="44.53182" lon="6.01916">
        <ele>935.59997558594</ele>
        <time>2016-05-06T06:41:01Z</time>
      </trkpt>
      <trkpt lat="44.53181" lon="6.01913">
        <ele>936</ele>
        <time>2016-05-06T06:41:02Z</time>
      </trkpt>
      <trkpt lat="44.53181" lon="6.01909">
        <ele>936.59997558594</ele>
        <time>2016-05-06T06:41:03Z</time>
      </trkpt>
      <trkpt lat="44.53182" lon="6.01906">
        <ele>937</ele>
        <time>2016-05-06T06:41:04Z</time>
      </trkpt>
      <trkpt lat="44.53182" lon="6.01903">
        <ele>937.40002441406</ele>
        <time>2016-05-06T06:41:05Z</time>
      </trkpt>
      <trkpt lat="44.53181" lon="6.01896">
        <ele>937.40002441406</ele>
        <time>2016-05-06T06:41:09Z</time>
      </trkpt>
      <trkpt lat="44.53183" lon="6.01892">
        <ele>937.40002441406</ele>
        <time>2016-05-06T06:41:58Z</time>
      </trkpt>
      <trkpt lat="44.53182" lon="6.01885">
        <ele>937.40002441406</ele>
        <time>2016-05-06T06:42:05Z</time>
      </trkpt>
      <trkpt lat="44.53181" lon="6.01862">
        <ele>937.40002441406</ele>
        <time>2016-05-06T06:42:12Z</time>
      </trkpt>
      <trkpt lat="44.53186" lon="6.01846">
        <ele>937.79998779297</ele>
        <time>2016-05-06T06:42:17Z</time>
      </trkpt>
      <trkpt lat="44.53188" lon="6.01844">
        <ele>938.40002441406</ele>
        <time>2016-05-06T06:42:18Z</time>
      </trkpt>
      <trkpt lat="44.5319" lon="6.01842">
        <ele>938.79998779297</ele>
        <time>2016-05-06T06:42:19Z</time>
      </trkpt>
      <trkpt lat="44.53192" lon="6.0184">
        <ele>939.20001220703</ele>
        <time>2016-05-06T06:42:20Z</time>
      </trkpt>
      <trkpt lat="44.53194" lon="6.01838">
        <ele>939.59997558594</ele>
        <time>2016-05-06T06:42:21Z</time>
      </trkpt>
      <trkpt lat="44.53197" lon="6.01835">
        <ele>939.59997558594</ele>
        <time>2016-05-06T06:42:23Z</time>
      </trkpt>
      <trkpt lat="44.532" lon="6.01833">
        <ele>940</ele>
        <time>2016-05-06T06:42:24Z</time>
      </trkpt>
      <trkpt lat="44.53202" lon="6.01832">
        <ele>940.59997558594</ele>
        <time>2016-05-06T06:42:25Z</time>
      </trkpt>
      <trkpt lat="44.53204" lon="6.0183">
        <ele>941.20001220703</ele>
        <time>2016-05-06T06:42:26Z</time>
      </trkpt>
      <trkpt lat="44.53205" lon="6.01829">
        <ele>941.59997558594</ele>
        <time>2016-05-06T06:42:27Z</time>
      </trkpt>
      <trkpt lat="44.53208" lon="6.01827">
        <ele>942.20001220703</ele>
        <time>2016-05-06T06:42:28Z</time>
      </trkpt>
      <trkpt lat="44.5321" lon="6.01826">
        <ele>942.79998779297</ele>
        <time>2016-05-06T06:42:29Z</time>
      </trkpt>
      <trkpt lat="44.53212" lon="6.01824">
        <ele>943.40002441406</ele>
        <time>2016-05-06T06:42:30Z</time>
      </trkpt>
      <trkpt lat="44.53214" lon="6.01823">
        <ele>944</ele>
        <time>2016-05-06T06:42:31Z</time>
      </trkpt>
      <trkpt lat="44.53217" lon="6.01821">
        <ele>944.59997558594</ele>
        <time>2016-05-06T06:42:33Z</time>
      </trkpt>
      <trkpt lat="44.53218" lon="6.0182">
        <ele>945.20001220703</ele>
        <time>2016-05-06T06:42:34Z</time>
      </trkpt>
      <trkpt lat="44.53218" lon="6.01818">
        <ele>945.79998779297</ele>
        <time>2016-05-06T06:42:35Z</time>
      </trkpt>
      <trkpt lat="44.53218" lon="6.01816">
        <ele>946.40002441406</ele>
        <time>2016-05-06T06:42:36Z</time>
      </trkpt>
      <trkpt lat="44.53218" lon="6.01813">
        <ele>947</ele>
        <time>2016-05-06T06:42:37Z</time>
      </trkpt>
      <trkpt lat="44.53218" lon="6.0181">
        <ele>947.59997558594</ele>
        <time>2016-05-06T06:42:38Z</time>
      </trkpt>
      <trkpt lat="44.53218" lon="6.01807">
        <ele>948.40002441406</ele>
        <time>2016-05-06T06:42:39Z</time>
      </trkpt>
      <trkpt lat="44.53218" lon="6.01803">
        <ele>949</ele>
        <time>2016-05-06T06:42:40Z</time>
      </trkpt>
      <trkpt lat="44.53217" lon="6.01798">
        <ele>949</ele>
        <time>2016-05-06T06:42:41Z</time>
      </trkpt>
      <trkpt lat="44.53215" lon="6.01794">
        <ele>949</ele>
        <time>2016-05-06T06:42:42Z</time>
      </trkpt>
      <trkpt lat="44.53212" lon="6.01765">
        <ele>949</ele>
        <time>2016-05-06T06:42:48Z</time>
      </trkpt>
      <trkpt lat="44.53205" lon="6.01728">
        <ele>949</ele>
        <time>2016-05-06T06:42:55Z</time>
      </trkpt>
      <trkpt lat="44.53202" lon="6.01716">
        <ele>949</ele>
        <time>2016-05-06T06:42:57Z</time>
      </trkpt>
      <trkpt lat="44.53204" lon="6.01707">
        <ele>949</ele>
        <time>2016-05-06T06:42:59Z</time>
      </trkpt>
      <trkpt lat="44.53209" lon="6.01705">
        <ele>949</ele>
        <time>2016-05-06T06:43:02Z</time>
      </trkpt>
      <trkpt lat="44.53212" lon="6.01704">
        <ele>949</ele>
        <time>2016-05-06T06:43:03Z</time>
      </trkpt>
      <trkpt lat="44.53229" lon="6.01702">
        <ele>949</ele>
        <time>2016-05-06T06:43:09Z</time>
      </trkpt>
      <trkpt lat="44.53242" lon="6.017">
        <ele>949.40002441406</ele>
        <time>2016-05-06T06:43:16Z</time>
      </trkpt>
      <trkpt lat="44.53244" lon="6.017">
        <ele>949.79998779297</ele>
        <time>2016-05-06T06:43:17Z</time>
      </trkpt>
      <trkpt lat="44.53246" lon="6.017">
        <ele>950.20001220703</ele>
        <time>2016-05-06T06:43:18Z</time>
      </trkpt>
      <trkpt lat="44.53248" lon="6.01699">
        <ele>950.59997558594</ele>
        <time>2016-05-06T06:43:19Z</time>
      </trkpt>
      <trkpt lat="44.5325" lon="6.01699">
        <ele>951</ele>
        <time>2016-05-06T06:43:20Z</time>
      </trkpt>
      <trkpt lat="44.53257" lon="6.01698">
        <ele>951.40002441406</ele>
        <time>2016-05-06T06:43:24Z</time>
      </trkpt>
      <trkpt lat="44.53259" lon="6.01697">
        <ele>951.79998779297</ele>
        <time>2016-05-06T06:43:25Z</time>
      </trkpt>
      <trkpt lat="44.5326" lon="6.01696">
        <ele>952.20001220703</ele>
        <time>2016-05-06T06:43:26Z</time>
      </trkpt>
      <trkpt lat="44.53262" lon="6.01695">
        <ele>952.59997558594</ele>
        <time>2016-05-06T06:43:27Z</time>
      </trkpt>
      <trkpt lat="44.53263" lon="6.01694">
        <ele>953</ele>
        <time>2016-05-06T06:43:28Z</time>
      </trkpt>
      <trkpt lat="44.5328" lon="6.01679">
        <ele>953.40002441406</ele>
        <time>2016-05-06T06:43:38Z</time>
      </trkpt>
      <trkpt lat="44.53282" lon="6.01678">
        <ele>953.79998779297</ele>
        <time>2016-05-06T06:43:39Z</time>
      </trkpt>
      <trkpt lat="44.53283" lon="6.01677">
        <ele>954.40002441406</ele>
        <time>2016-05-06T06:43:40Z</time>
      </trkpt>
      <trkpt lat="44.53285" lon="6.01675">
        <ele>954.79998779297</ele>
        <time>2016-05-06T06:43:41Z</time>
      </trkpt>
      <trkpt lat="44.53286" lon="6.01674">
        <ele>955.20001220703</ele>
        <time>2016-05-06T06:43:42Z</time>
      </trkpt>
      <trkpt lat="44.53294" lon="6.01666">
        <ele>955.59997558594</ele>
        <time>2016-05-06T06:43:47Z</time>
      </trkpt>
      <trkpt lat="44.53296" lon="6.01664">
        <ele>956</ele>
        <time>2016-05-06T06:43:48Z</time>
      </trkpt>
      <trkpt lat="44.53297" lon="6.01663">
        <ele>956.40002441406</ele>
        <time>2016-05-06T06:43:49Z</time>
      </trkpt>
      <trkpt lat="44.53298" lon="6.0166">
        <ele>956.79998779297</ele>
        <time>2016-05-06T06:43:50Z</time>
      </trkpt>
      <trkpt lat="44.53299" lon="6.01658">
        <ele>957.20001220703</ele>
        <time>2016-05-06T06:43:51Z</time>
      </trkpt>
      <trkpt lat="44.53303" lon="6.01649">
        <ele>957.20001220703</ele>
        <time>2016-05-06T06:43:55Z</time>
      </trkpt>
      <trkpt lat="44.53309" lon="6.01639">
        <ele>957.59997558594</ele>
        <time>2016-05-06T06:43:59Z</time>
      </trkpt>
      <trkpt lat="44.53311" lon="6.01637">
        <ele>958</ele>
        <time>2016-05-06T06:44:00Z</time>
      </trkpt>
      <trkpt lat="44.53312" lon="6.01635">
        <ele>958.40002441406</ele>
        <time>2016-05-06T06:44:01Z</time>
      </trkpt>
      <trkpt lat="44.53314" lon="6.01633">
        <ele>958.79998779297</ele>
        <time>2016-05-06T06:44:02Z</time>
      </trkpt>
      <trkpt lat="44.53316" lon="6.0163">
        <ele>959.20001220703</ele>
        <time>2016-05-06T06:44:03Z</time>
      </trkpt>
      <trkpt lat="44.53323" lon="6.01617">
        <ele>959.20001220703</ele>
        <time>2016-05-06T06:44:06Z</time>
      </trkpt>
      <trkpt lat="44.53336" lon="6.01593">
        <ele>959.20001220703</ele>
        <time>2016-05-06T06:44:11Z</time>
      </trkpt>
      <trkpt lat="44.53346" lon="6.01569">
        <ele>959.20001220703</ele>
        <time>2016-05-06T06:44:18Z</time>
      </trkpt>
      <trkpt lat="44.53351" lon="6.01559">
        <ele>959.20001220703</ele>
        <time>2016-05-06T06:44:26Z</time>
      </trkpt>
      <trkpt lat="44.53355" lon="6.01551">
        <ele>959.20001220703</ele>
        <time>2016-05-06T06:44:36Z</time>
      </trkpt>
      <trkpt lat="44.53363" lon="6.01542">
        <ele>959.20001220703</ele>
        <time>2016-05-06T06:44:47Z</time>
      </trkpt>
      <trkpt lat="44.53386" lon="6.01526">
        <ele>959.20001220703</ele>
        <time>2016-05-06T06:44:56Z</time>
      </trkpt>
      <trkpt lat="44.53405" lon="6.01514">
        <ele>959.20001220703</ele>
        <time>2016-05-06T06:45:03Z</time>
      </trkpt>
      <trkpt lat="44.53415" lon="6.01504">
        <ele>959.20001220703</ele>
        <time>2016-05-06T06:45:08Z</time>
      </trkpt>
      <trkpt lat="44.53428" lon="6.01483">
        <ele>959.20001220703</ele>
        <time>2016-05-06T06:45:13Z</time>
      </trkpt>
      <trkpt lat="44.53432" lon="6.01478">
        <ele>958.79998779297</ele>
        <time>2016-05-06T06:45:14Z</time>
      </trkpt>
      <trkpt lat="44.53435" lon="6.01473">
        <ele>958.40002441406</ele>
        <time>2016-05-06T06:45:15Z</time>
      </trkpt>
      <trkpt lat="44.53437" lon="6.01468">
        <ele>958</ele>
        <time>2016-05-06T06:45:16Z</time>
      </trkpt>
      <trkpt lat="44.53439" lon="6.01465">
        <ele>957.40002441406</ele>
        <time>2016-05-06T06:45:17Z</time>
      </trkpt>
      <trkpt lat="44.53439" lon="6.01462">
        <ele>956.79998779297</ele>
        <time>2016-05-06T06:45:18Z</time>
      </trkpt>
      <trkpt lat="44.5344" lon="6.0146">
        <ele>956.20001220703</ele>
        <time>2016-05-06T06:45:19Z</time>
      </trkpt>
      <trkpt lat="44.53441" lon="6.01458">
        <ele>955.59997558594</ele>
        <time>2016-05-06T06:45:20Z</time>
      </trkpt>
      <trkpt lat="44.53442" lon="6.01456">
        <ele>955</ele>
        <time>2016-05-06T06:45:21Z</time>
      </trkpt>
      <trkpt lat="44.53445" lon="6.01448">
        <ele>955</ele>
        <time>2016-05-06T06:45:25Z</time>
      </trkpt>
      <trkpt lat="44.53451" lon="6.01429">
        <ele>954.59997558594</ele>
        <time>2016-05-06T06:45:29Z</time>
      </trkpt>
      <trkpt lat="44.53453" lon="6.01423">
        <ele>954</ele>
        <time>2016-05-06T06:45:30Z</time>
      </trkpt>
      <trkpt lat="44.53455" lon="6.01416">
        <ele>953.59997558594</ele>
        <time>2016-05-06T06:45:31Z</time>
      </trkpt>
      <trkpt lat="44.53457" lon="6.01408">
        <ele>953.20001220703</ele>
        <time>2016-05-06T06:45:32Z</time>
      </trkpt>
      <trkpt lat="44.5346" lon="6.01398">
        <ele>952.59997558594</ele>
        <time>2016-05-06T06:45:33Z</time>
      </trkpt>
      <trkpt lat="44.53465" lon="6.01388">
        <ele>952</ele>
        <time>2016-05-06T06:45:34Z</time>
      </trkpt>
      <trkpt lat="44.5347" lon="6.01379">
        <ele>951.20001220703</ele>
        <time>2016-05-06T06:45:35Z</time>
      </trkpt>
      <trkpt lat="44.53477" lon="6.01371">
        <ele>950.40002441406</ele>
        <time>2016-05-06T06:45:36Z</time>
      </trkpt>
      <trkpt lat="44.53484" lon="6.01364">
        <ele>949.59997558594</ele>
        <time>2016-05-06T06:45:37Z</time>
      </trkpt>
      <trkpt lat="44.53493" lon="6.0136">
        <ele>948.59997558594</ele>
        <time>2016-05-06T06:45:38Z</time>
      </trkpt>
      <trkpt lat="44.53503" lon="6.01359">
        <ele>947.79998779297</ele>
        <time>2016-05-06T06:45:39Z</time>
      </trkpt>
      <trkpt lat="44.53513" lon="6.01359">
        <ele>946.79998779297</ele>
        <time>2016-05-06T06:45:40Z</time>
      </trkpt>
      <trkpt lat="44.53522" lon="6.01359">
        <ele>946</ele>
        <time>2016-05-06T06:45:41Z</time>
      </trkpt>
      <trkpt lat="44.5353" lon="6.01359">
        <ele>946</ele>
        <time>2016-05-06T06:45:42Z</time>
      </trkpt>
      <trkpt lat="44.53544" lon="6.0136">
        <ele>946</ele>
        <time>2016-05-06T06:45:44Z</time>
      </trkpt>
      <trkpt lat="44.53579" lon="6.01361">
        <ele>946</ele>
        <time>2016-05-06T06:45:50Z</time>
      </trkpt>
      <trkpt lat="44.53591" lon="6.01362">
        <ele>946.40002441406</ele>
        <time>2016-05-06T06:45:52Z</time>
      </trkpt>
      <trkpt lat="44.53597" lon="6.01362">
        <ele>946.79998779297</ele>
        <time>2016-05-06T06:45:53Z</time>
      </trkpt>
      <trkpt lat="44.53603" lon="6.01362">
        <ele>947.20001220703</ele>
        <time>2016-05-06T06:45:54Z</time>
      </trkpt>
      <trkpt lat="44.53609" lon="6.01362">
        <ele>947.59997558594</ele>
        <time>2016-05-06T06:45:55Z</time>
      </trkpt>
      <trkpt lat="44.53614" lon="6.01362">
        <ele>948</ele>
        <time>2016-05-06T06:45:56Z</time>
      </trkpt>
      <trkpt lat="44.53618" lon="6.01361">
        <ele>948</ele>
        <time>2016-05-06T06:45:57Z</time>
      </trkpt>
      <trkpt lat="44.53622" lon="6.01344">
        <ele>948</ele>
        <time>2016-05-06T06:46:00Z</time>
      </trkpt>
      <trkpt lat="44.53614" lon="6.01324">
        <ele>948.59997558594</ele>
        <time>2016-05-06T06:46:03Z</time>
      </trkpt>
      <trkpt lat="44.5361" lon="6.01318">
        <ele>949</ele>
        <time>2016-05-06T06:46:04Z</time>
      </trkpt>
      <trkpt lat="44.53607" lon="6.01312">
        <ele>949.59997558594</ele>
        <time>2016-05-06T06:46:05Z</time>
      </trkpt>
      <trkpt lat="44.53605" lon="6.01306">
        <ele>950</ele>
        <time>2016-05-06T06:46:06Z</time>
      </trkpt>
      <trkpt lat="44.53603" lon="6.01299">
        <ele>950.40002441406</ele>
        <time>2016-05-06T06:46:07Z</time>
      </trkpt>
      <trkpt lat="44.53599" lon="6.01287">
        <ele>950.40002441406</ele>
        <time>2016-05-06T06:46:09Z</time>
      </trkpt>
      <trkpt lat="44.53596" lon="6.01262">
        <ele>950.40002441406</ele>
        <time>2016-05-06T06:46:13Z</time>
      </trkpt>
      <trkpt lat="44.53595" lon="6.01249">
        <ele>950.79998779297</ele>
        <time>2016-05-06T06:46:15Z</time>
      </trkpt>
      <trkpt lat="44.53595" lon="6.01243">
        <ele>951.20001220703</ele>
        <time>2016-05-06T06:46:16Z</time>
      </trkpt>
      <trkpt lat="44.53595" lon="6.01237">
        <ele>951.59997558594</ele>
        <time>2016-05-06T06:46:17Z</time>
      </trkpt>
      <trkpt lat="44.53595" lon="6.01231">
        <ele>952.20001220703</ele>
        <time>2016-05-06T06:46:18Z</time>
      </trkpt>
      <trkpt lat="44.53595" lon="6.01224">
        <ele>952.59997558594</ele>
        <time>2016-05-06T06:46:19Z</time>
      </trkpt>
      <trkpt lat="44.53596" lon="6.01194">
        <ele>952.59997558594</ele>
        <time>2016-05-06T06:46:23Z</time>
      </trkpt>
      <trkpt lat="44.53591" lon="6.01121">
        <ele>952.59997558594</ele>
        <time>2016-05-06T06:46:33Z</time>
      </trkpt>
      <trkpt lat="44.53587" lon="6.01108">
        <ele>952.59997558594</ele>
        <time>2016-05-06T06:46:35Z</time>
      </trkpt>
      <trkpt lat="44.53582" lon="6.01096">
        <ele>952.59997558594</ele>
        <time>2016-05-06T06:46:37Z</time>
      </trkpt>
      <trkpt lat="44.53577" lon="6.01083">
        <ele>952.59997558594</ele>
        <time>2016-05-06T06:46:39Z</time>
      </trkpt>
      <trkpt lat="44.53563" lon="6.01061">
        <ele>952.59997558594</ele>
        <time>2016-05-06T06:46:43Z</time>
      </trkpt>
      <trkpt lat="44.53559" lon="6.01056">
        <ele>952.59997558594</ele>
        <time>2016-05-06T06:46:44Z</time>
      </trkpt>
      <trkpt lat="44.53547" lon="6.01041">
        <ele>952.59997558594</ele>
        <time>2016-05-06T06:46:47Z</time>
      </trkpt>
      <trkpt lat="44.53544" lon="6.01034">
        <ele>952.59997558594</ele>
        <time>2016-05-06T06:46:48Z</time>
      </trkpt>
      <trkpt lat="44.53541" lon="6.01011">
        <ele>952.59997558594</ele>
        <time>2016-05-06T06:46:51Z</time>
      </trkpt>
      <trkpt lat="44.53532" lon="6.00998">
        <ele>952.59997558594</ele>
        <time>2016-05-06T06:46:53Z</time>
      </trkpt>
      <trkpt lat="44.53527" lon="6.00992">
        <ele>952.59997558594</ele>
        <time>2016-05-06T06:46:54Z</time>
      </trkpt>
      <trkpt lat="44.53514" lon="6.00981">
        <ele>952.59997558594</ele>
        <time>2016-05-06T06:46:56Z</time>
      </trkpt>
      <trkpt lat="44.53503" lon="6.00971">
        <ele>952</ele>
        <time>2016-05-06T06:46:58Z</time>
      </trkpt>
      <trkpt lat="44.53497" lon="6.00965">
        <ele>951.59997558594</ele>
        <time>2016-05-06T06:46:59Z</time>
      </trkpt>
      <trkpt lat="44.5349" lon="6.00959">
        <ele>951.20001220703</ele>
        <time>2016-05-06T06:47:00Z</time>
      </trkpt>
      <trkpt lat="44.53483" lon="6.00952">
        <ele>950.79998779297</ele>
        <time>2016-05-06T06:47:01Z</time>
      </trkpt>
      <trkpt lat="44.53478" lon="6.00943">
        <ele>950.40002441406</ele>
        <time>2016-05-06T06:47:02Z</time>
      </trkpt>
      <trkpt lat="44.53473" lon="6.00934">
        <ele>950</ele>
        <time>2016-05-06T06:47:03Z</time>
      </trkpt>
      <trkpt lat="44.53467" lon="6.00925">
        <ele>949.59997558594</ele>
        <time>2016-05-06T06:47:04Z</time>
      </trkpt>
      <trkpt lat="44.53461" lon="6.00918">
        <ele>949</ele>
        <time>2016-05-06T06:47:05Z</time>
      </trkpt>
      <trkpt lat="44.53456" lon="6.00912">
        <ele>948.59997558594</ele>
        <time>2016-05-06T06:47:06Z</time>
      </trkpt>
      <trkpt lat="44.5345" lon="6.00909">
        <ele>948.20001220703</ele>
        <time>2016-05-06T06:47:07Z</time>
      </trkpt>
      <trkpt lat="44.53441" lon="6.00904">
        <ele>948.20001220703</ele>
        <time>2016-05-06T06:47:09Z</time>
      </trkpt>
      <trkpt lat="44.53436" lon="6.00896">
        <ele>948.20001220703</ele>
        <time>2016-05-06T06:47:11Z</time>
      </trkpt>
      <trkpt lat="44.53437" lon="6.00884">
        <ele>948.20001220703</ele>
        <time>2016-05-06T06:47:13Z</time>
      </trkpt>
      <trkpt lat="44.53442" lon="6.00874">
        <ele>948.20001220703</ele>
        <time>2016-05-06T06:47:15Z</time>
      </trkpt>
      <trkpt lat="44.53458" lon="6.00859">
        <ele>948.20001220703</ele>
        <time>2016-05-06T06:47:19Z</time>
      </trkpt>
      <trkpt lat="44.53474" lon="6.00854">
        <ele>948.20001220703</ele>
        <time>2016-05-06T06:47:22Z</time>
      </trkpt>
      <trkpt lat="44.53482" lon="6.00849">
        <ele>948.20001220703</ele>
        <time>2016-05-06T06:47:24Z</time>
      </trkpt>
      <trkpt lat="44.53497" lon="6.00838">
        <ele>948.20001220703</ele>
        <time>2016-05-06T06:47:28Z</time>
      </trkpt>
      <trkpt lat="44.53504" lon="6.00832">
        <ele>948.59997558594</ele>
        <time>2016-05-06T06:47:30Z</time>
      </trkpt>
      <trkpt lat="44.53507" lon="6.00829">
        <ele>949</ele>
        <time>2016-05-06T06:47:31Z</time>
      </trkpt>
      <trkpt lat="44.53511" lon="6.00826">
        <ele>949.59997558594</ele>
        <time>2016-05-06T06:47:32Z</time>
      </trkpt>
      <trkpt lat="44.53514" lon="6.00823">
        <ele>950</ele>
        <time>2016-05-06T06:47:33Z</time>
      </trkpt>
      <trkpt lat="44.53518" lon="6.00821">
        <ele>950.40002441406</ele>
        <time>2016-05-06T06:47:34Z</time>
      </trkpt>
      <trkpt lat="44.53522" lon="6.00819">
        <ele>950.40002441406</ele>
        <time>2016-05-06T06:47:35Z</time>
      </trkpt>
      <trkpt lat="44.53537" lon="6.00807">
        <ele>950.40002441406</ele>
        <time>2016-05-06T06:47:40Z</time>
      </trkpt>
      <trkpt lat="44.53559" lon="6.00795">
        <ele>950.40002441406</ele>
        <time>2016-05-06T06:47:46Z</time>
      </trkpt>
      <trkpt lat="44.53576" lon="6.0078">
        <ele>950.40002441406</ele>
        <time>2016-05-06T06:47:51Z</time>
      </trkpt>
      <trkpt lat="44.5358" lon="6.0077">
        <ele>950.40002441406</ele>
        <time>2016-05-06T06:47:53Z</time>
      </trkpt>
      <trkpt lat="44.53585" lon="6.00754">
        <ele>950.40002441406</ele>
        <time>2016-05-06T06:47:56Z</time>
      </trkpt>
      <trkpt lat="44.5359" lon="6.0074">
        <ele>950.40002441406</ele>
        <time>2016-05-06T06:47:59Z</time>
      </trkpt>
      <trkpt lat="44.53596" lon="6.00724">
        <ele>950.79998779297</ele>
        <time>2016-05-06T06:48:03Z</time>
      </trkpt>
      <trkpt lat="44.53597" lon="6.0072">
        <ele>951.20001220703</ele>
        <time>2016-05-06T06:48:04Z</time>
      </trkpt>
      <trkpt lat="44.53598" lon="6.00716">
        <ele>951.59997558594</ele>
        <time>2016-05-06T06:48:05Z</time>
      </trkpt>
      <trkpt lat="44.536" lon="6.00712">
        <ele>952</ele>
        <time>2016-05-06T06:48:06Z</time>
      </trkpt>
      <trkpt lat="44.53602" lon="6.00709">
        <ele>952.40002441406</ele>
        <time>2016-05-06T06:48:07Z</time>
      </trkpt>
      <trkpt lat="44.53613" lon="6.00687">
        <ele>952.40002441406</ele>
        <time>2016-05-06T06:48:13Z</time>
      </trkpt>
      <trkpt lat="44.53623" lon="6.0067">
        <ele>953</ele>
        <time>2016-05-06T06:48:18Z</time>
      </trkpt>
      <trkpt lat="44.53625" lon="6.00666">
        <ele>953.40002441406</ele>
        <time>2016-05-06T06:48:19Z</time>
      </trkpt>
      <trkpt lat="44.53627" lon="6.00662">
        <ele>953.79998779297</ele>
        <time>2016-05-06T06:48:20Z</time>
      </trkpt>
      <trkpt lat="44.53629" lon="6.00658">
        <ele>954.20001220703</ele>
        <time>2016-05-06T06:48:21Z</time>
      </trkpt>
      <trkpt lat="44.5363" lon="6.00654">
        <ele>954.59997558594</ele>
        <time>2016-05-06T06:48:22Z</time>
      </trkpt>
      <trkpt lat="44.5364" lon="6.00633">
        <ele>954.59997558594</ele>
        <time>2016-05-06T06:48:27Z</time>
      </trkpt>
      <trkpt lat="44.5365" lon="6.00601">
        <ele>954.59997558594</ele>
        <time>2016-05-06T06:48:34Z</time>
      </trkpt>
      <trkpt lat="44.53651" lon="6.00597">
        <ele>955</ele>
        <time>2016-05-06T06:48:35Z</time>
      </trkpt>
      <trkpt lat="44.53653" lon="6.00593">
        <ele>955.40002441406</ele>
        <time>2016-05-06T06:48:36Z</time>
      </trkpt>
      <trkpt lat="44.53654" lon="6.00589">
        <ele>955.79998779297</ele>
        <time>2016-05-06T06:48:37Z</time>
      </trkpt>
      <trkpt lat="44.53656" lon="6.00585">
        <ele>956.20001220703</ele>
        <time>2016-05-06T06:48:38Z</time>
      </trkpt>
      <trkpt lat="44.53657" lon="6.0058">
        <ele>956.59997558594</ele>
        <time>2016-05-06T06:48:39Z</time>
      </trkpt>
      <trkpt lat="44.53659" lon="6.00575">
        <ele>956.59997558594</ele>
        <time>2016-05-06T06:48:40Z</time>
      </trkpt>
      <trkpt lat="44.53671" lon="6.00546">
        <ele>956.59997558594</ele>
        <time>2016-05-06T06:48:47Z</time>
      </trkpt>
      <trkpt lat="44.53673" lon="6.00513">
        <ele>956.59997558594</ele>
        <time>2016-05-06T06:48:53Z</time>
      </trkpt>
      <trkpt lat="44.53674" lon="6.00491">
        <ele>957</ele>
        <time>2016-05-06T06:48:57Z</time>
      </trkpt>
      <trkpt lat="44.53676" lon="6.00486">
        <ele>957.40002441406</ele>
        <time>2016-05-06T06:48:58Z</time>
      </trkpt>
      <trkpt lat="44.53678" lon="6.00482">
        <ele>957.79998779297</ele>
        <time>2016-05-06T06:48:59Z</time>
      </trkpt>
      <trkpt lat="44.5368" lon="6.00478">
        <ele>958.20001220703</ele>
        <time>2016-05-06T06:49:00Z</time>
      </trkpt>
      <trkpt lat="44.53682" lon="6.00474">
        <ele>958.79998779297</ele>
        <time>2016-05-06T06:49:01Z</time>
      </trkpt>
      <trkpt lat="44.53687" lon="6.00464">
        <ele>958.79998779297</ele>
        <time>2016-05-06T06:49:04Z</time>
      </trkpt>
      <trkpt lat="44.53687" lon="6.00457">
        <ele>959.20001220703</ele>
        <time>2016-05-06T06:49:06Z</time>
      </trkpt>
      <trkpt lat="44.53685" lon="6.00455">
        <ele>959.59997558594</ele>
        <time>2016-05-06T06:49:07Z</time>
      </trkpt>
      <trkpt lat="44.53683" lon="6.00452">
        <ele>960</ele>
        <time>2016-05-06T06:49:08Z</time>
      </trkpt>
      <trkpt lat="44.53682" lon="6.0045">
        <ele>960.40002441406</ele>
        <time>2016-05-06T06:49:09Z</time>
      </trkpt>
      <trkpt lat="44.53679" lon="6.00447">
        <ele>960.79998779297</ele>
        <time>2016-05-06T06:49:10Z</time>
      </trkpt>
      <trkpt lat="44.53675" lon="6.0044">
        <ele>960.79998779297</ele>
        <time>2016-05-06T06:49:12Z</time>
      </trkpt>
      <trkpt lat="44.53673" lon="6.00436">
        <ele>960.79998779297</ele>
        <time>2016-05-06T06:49:13Z</time>
      </trkpt>
      <trkpt lat="44.53656" lon="6.00402">
        <ele>960.79998779297</ele>
        <time>2016-05-06T06:49:21Z</time>
      </trkpt>
      <trkpt lat="44.5365" lon="6.00378">
        <ele>960.79998779297</ele>
        <time>2016-05-06T06:49:27Z</time>
      </trkpt>
      <trkpt lat="44.53648" lon="6.00374">
        <ele>961.20001220703</ele>
        <time>2016-05-06T06:49:28Z</time>
      </trkpt>
      <trkpt lat="44.53647" lon="6.0037">
        <ele>961.59997558594</ele>
        <time>2016-05-06T06:49:29Z</time>
      </trkpt>
      <trkpt lat="44.53645" lon="6.00367">
        <ele>962.20001220703</ele>
        <time>2016-05-06T06:49:30Z</time>
      </trkpt>
      <trkpt lat="44.53643" lon="6.00362">
        <ele>962.59997558594</ele>
        <time>2016-05-06T06:49:31Z</time>
      </trkpt>
      <trkpt lat="44.53641" lon="6.00359">
        <ele>963</ele>
        <time>2016-05-06T06:49:32Z</time>
      </trkpt>
      <trkpt lat="44.53635" lon="6.00348">
        <ele>963</ele>
        <time>2016-05-06T06:49:35Z</time>
      </trkpt>
      <trkpt lat="44.53627" lon="6.00332">
        <ele>963.40002441406</ele>
        <time>2016-05-06T06:49:39Z</time>
      </trkpt>
      <trkpt lat="44.53625" lon="6.00329">
        <ele>963.79998779297</ele>
        <time>2016-05-06T06:49:40Z</time>
      </trkpt>
      <trkpt lat="44.53623" lon="6.00325">
        <ele>964.40002441406</ele>
        <time>2016-05-06T06:49:41Z</time>
      </trkpt>
      <trkpt lat="44.53622" lon="6.00321">
        <ele>964.79998779297</ele>
        <time>2016-05-06T06:49:42Z</time>
      </trkpt>
      <trkpt lat="44.5362" lon="6.00318">
        <ele>965.20001220703</ele>
        <time>2016-05-06T06:49:43Z</time>
      </trkpt>
      <trkpt lat="44.53611" lon="6.00298">
        <ele>965.59997558594</ele>
        <time>2016-05-06T06:49:48Z</time>
      </trkpt>
      <trkpt lat="44.53608" lon="6.00294">
        <ele>966</ele>
        <time>2016-05-06T06:49:49Z</time>
      </trkpt>
      <trkpt lat="44.53606" lon="6.0029">
        <ele>966.40002441406</ele>
        <time>2016-05-06T06:49:50Z</time>
      </trkpt>
      <trkpt lat="44.53604" lon="6.00287">
        <ele>967</ele>
        <time>2016-05-06T06:49:51Z</time>
      </trkpt>
      <trkpt lat="44.53602" lon="6.00284">
        <ele>967.40002441406</ele>
        <time>2016-05-06T06:49:52Z</time>
      </trkpt>
      <trkpt lat="44.53589" lon="6.00267">
        <ele>967.40002441406</ele>
        <time>2016-05-06T06:49:58Z</time>
      </trkpt>
      <trkpt lat="44.53583" lon="6.00261">
        <ele>967.79998779297</ele>
        <time>2016-05-06T06:50:01Z</time>
      </trkpt>
      <trkpt lat="44.5358" lon="6.00259">
        <ele>968.20001220703</ele>
        <time>2016-05-06T06:50:02Z</time>
      </trkpt>
      <trkpt lat="44.53578" lon="6.00257">
        <ele>968.59997558594</ele>
        <time>2016-05-06T06:50:03Z</time>
      </trkpt>
      <trkpt lat="44.53573" lon="6.00255">
        <ele>969.40002441406</ele>
        <time>2016-05-06T06:50:05Z</time>
      </trkpt>
      <trkpt lat="44.53571" lon="6.00254">
        <ele>969.40002441406</ele>
        <time>2016-05-06T06:50:06Z</time>
      </trkpt>
      <trkpt lat="44.53561" lon="6.00248">
        <ele>970</ele>
        <time>2016-05-06T06:50:10Z</time>
      </trkpt>
      <trkpt lat="44.53559" lon="6.00247">
        <ele>970.40002441406</ele>
        <time>2016-05-06T06:50:11Z</time>
      </trkpt>
      <trkpt lat="44.53557" lon="6.00246">
        <ele>970.79998779297</ele>
        <time>2016-05-06T06:50:12Z</time>
      </trkpt>
      <trkpt lat="44.53555" lon="6.00244">
        <ele>971.20001220703</ele>
        <time>2016-05-06T06:50:13Z</time>
      </trkpt>
      <trkpt lat="44.53553" lon="6.00242">
        <ele>971.79998779297</ele>
        <time>2016-05-06T06:50:14Z</time>
      </trkpt>
      <trkpt lat="44.53547" lon="6.00227">
        <ele>972.20001220703</ele>
        <time>2016-05-06T06:50:20Z</time>
      </trkpt>
      <trkpt lat="44.53547" lon="6.00224">
        <ele>972.59997558594</ele>
        <time>2016-05-06T06:50:21Z</time>
      </trkpt>
      <trkpt lat="44.53547" lon="6.00222">
        <ele>973</ele>
        <time>2016-05-06T06:50:22Z</time>
      </trkpt>
      <trkpt lat="44.53547" lon="6.00219">
        <ele>973.40002441406</ele>
        <time>2016-05-06T06:50:23Z</time>
      </trkpt>
      <trkpt lat="44.53547" lon="6.00216">
        <ele>973.79998779297</ele>
        <time>2016-05-06T06:50:24Z</time>
      </trkpt>
      <trkpt lat="44.53548" lon="6.00211">
        <ele>973.79998779297</ele>
        <time>2016-05-06T06:50:26Z</time>
      </trkpt>
      <trkpt lat="44.53548" lon="6.00205">
        <ele>974.20001220703</ele>
        <time>2016-05-06T06:50:28Z</time>
      </trkpt>
      <trkpt lat="44.53547" lon="6.00202">
        <ele>974.59997558594</ele>
        <time>2016-05-06T06:50:29Z</time>
      </trkpt>
      <trkpt lat="44.53547" lon="6.00198">
        <ele>975.20001220703</ele>
        <time>2016-05-06T06:50:30Z</time>
      </trkpt>
      <trkpt lat="44.53547" lon="6.00195">
        <ele>975.59997558594</ele>
        <time>2016-05-06T06:50:31Z</time>
      </trkpt>
      <trkpt lat="44.53546" lon="6.00192">
        <ele>976</ele>
        <time>2016-05-06T06:50:32Z</time>
      </trkpt>
      <trkpt lat="44.53539" lon="6.00183">
        <ele>976</ele>
        <time>2016-05-06T06:50:36Z</time>
      </trkpt>
      <trkpt lat="44.53532" lon="6.00178">
        <ele>976.40002441406</ele>
        <time>2016-05-06T06:50:39Z</time>
      </trkpt>
      <trkpt lat="44.5353" lon="6.00176">
        <ele>976.79998779297</ele>
        <time>2016-05-06T06:50:40Z</time>
      </trkpt>
      <trkpt lat="44.53529" lon="6.00174">
        <ele>977.20001220703</ele>
        <time>2016-05-06T06:50:41Z</time>
      </trkpt>
      <trkpt lat="44.53527" lon="6.00172">
        <ele>977.59997558594</ele>
        <time>2016-05-06T06:50:42Z</time>
      </trkpt>
      <trkpt lat="44.53525" lon="6.0017">
        <ele>978</ele>
        <time>2016-05-06T06:50:43Z</time>
      </trkpt>
      <trkpt lat="44.53514" lon="6.00159">
        <ele>978</ele>
        <time>2016-05-06T06:50:49Z</time>
      </trkpt>
      <trkpt lat="44.53506" lon="6.00153">
        <ele>978.59997558594</ele>
        <time>2016-05-06T06:50:53Z</time>
      </trkpt>
      <trkpt lat="44.53505" lon="6.00151">
        <ele>979</ele>
        <time>2016-05-06T06:50:54Z</time>
      </trkpt>
      <trkpt lat="44.53503" lon="6.00149">
        <ele>979.40002441406</ele>
        <time>2016-05-06T06:50:55Z</time>
      </trkpt>
      <trkpt lat="44.53501" lon="6.00147">
        <ele>980</ele>
        <time>2016-05-06T06:50:56Z</time>
      </trkpt>
      <trkpt lat="44.535" lon="6.00145">
        <ele>980.40002441406</ele>
        <time>2016-05-06T06:50:57Z</time>
      </trkpt>
      <trkpt lat="44.53494" lon="6.0014">
        <ele>980.40002441406</ele>
        <time>2016-05-06T06:51:00Z</time>
      </trkpt>
      <trkpt lat="44.53485" lon="6.0013">
        <ele>980.79998779297</ele>
        <time>2016-05-06T06:51:05Z</time>
      </trkpt>
      <trkpt lat="44.53484" lon="6.00127">
        <ele>981.20001220703</ele>
        <time>2016-05-06T06:51:06Z</time>
      </trkpt>
      <trkpt lat="44.53482" lon="6.00125">
        <ele>981.79998779297</ele>
        <time>2016-05-06T06:51:07Z</time>
      </trkpt>
      <trkpt lat="44.53481" lon="6.00123">
        <ele>982.20001220703</ele>
        <time>2016-05-06T06:51:08Z</time>
      </trkpt>
      <trkpt lat="44.5348" lon="6.0012">
        <ele>982.59997558594</ele>
        <time>2016-05-06T06:51:09Z</time>
      </trkpt>
      <trkpt lat="44.53471" lon="6.00106">
        <ele>983</ele>
        <time>2016-05-06T06:51:15Z</time>
      </trkpt>
      <trkpt lat="44.5347" lon="6.00104">
        <ele>983.40002441406</ele>
        <time>2016-05-06T06:51:16Z</time>
      </trkpt>
      <trkpt lat="44.53469" lon="6.00101">
        <ele>983.79998779297</ele>
        <time>2016-05-06T06:51:17Z</time>
      </trkpt>
      <trkpt lat="44.53468" lon="6.00099">
        <ele>984.20001220703</ele>
        <time>2016-05-06T06:51:18Z</time>
      </trkpt>
      <trkpt lat="44.53467" lon="6.00096">
        <ele>984.59997558594</ele>
        <time>2016-05-06T06:51:19Z</time>
      </trkpt>
      <trkpt lat="44.53457" lon="6.00079">
        <ele>984.59997558594</ele>
        <time>2016-05-06T06:51:26Z</time>
      </trkpt>
      <trkpt lat="44.53452" lon="6.00072">
        <ele>985</ele>
        <time>2016-05-06T06:51:29Z</time>
      </trkpt>
      <trkpt lat="44.53451" lon="6.00069">
        <ele>985.40002441406</ele>
        <time>2016-05-06T06:51:30Z</time>
      </trkpt>
      <trkpt lat="44.53449" lon="6.00067">
        <ele>985.79998779297</ele>
        <time>2016-05-06T06:51:31Z</time>
      </trkpt>
      <trkpt lat="44.53447" lon="6.00065">
        <ele>986.20001220703</ele>
        <time>2016-05-06T06:51:32Z</time>
      </trkpt>
      <trkpt lat="44.53446" lon="6.00062">
        <ele>986.59997558594</ele>
        <time>2016-05-06T06:51:33Z</time>
      </trkpt>
      <trkpt lat="44.53441" lon="6.00056">
        <ele>986.59997558594</ele>
        <time>2016-05-06T06:51:36Z</time>
      </trkpt>
      <trkpt lat="44.53431" lon="6.00041">
        <ele>987</ele>
        <time>2016-05-06T06:51:43Z</time>
      </trkpt>
      <trkpt lat="44.53429" lon="6.00039">
        <ele>987.59997558594</ele>
        <time>2016-05-06T06:51:44Z</time>
      </trkpt>
      <trkpt lat="44.53428" lon="6.00037">
        <ele>988</ele>
        <time>2016-05-06T06:51:45Z</time>
      </trkpt>
      <trkpt lat="44.53426" lon="6.00035">
        <ele>988.40002441406</ele>
        <time>2016-05-06T06:51:46Z</time>
      </trkpt>
      <trkpt lat="44.53425" lon="6.00033">
        <ele>988.79998779297</ele>
        <time>2016-05-06T06:51:47Z</time>
      </trkpt>
      <trkpt lat="44.53417" lon="6.0002">
        <ele>989.20001220703</ele>
        <time>2016-05-06T06:51:53Z</time>
      </trkpt>
      <trkpt lat="44.53416" lon="6.00018">
        <ele>989.59997558594</ele>
        <time>2016-05-06T06:51:54Z</time>
      </trkpt>
      <trkpt lat="44.53415" lon="6.00016">
        <ele>990</ele>
        <time>2016-05-06T06:51:55Z</time>
      </trkpt>
      <trkpt lat="44.53414" lon="6.00014">
        <ele>990.40002441406</ele>
        <time>2016-05-06T06:51:56Z</time>
      </trkpt>
      <trkpt lat="44.53412" lon="6.00012">
        <ele>990.79998779297</ele>
        <time>2016-05-06T06:51:57Z</time>
      </trkpt>
      <trkpt lat="44.53405" lon="6.00001">
        <ele>991.20001220703</ele>
        <time>2016-05-06T06:52:03Z</time>
      </trkpt>
      <trkpt lat="44.53404" lon="6">
        <ele>991.59997558594</ele>
        <time>2016-05-06T06:52:04Z</time>
      </trkpt>
      <trkpt lat="44.53403" lon="5.99999">
        <ele>992</ele>
        <time>2016-05-06T06:52:05Z</time>
      </trkpt>
      <trkpt lat="44.53402" lon="5.99997">
        <ele>992.59997558594</ele>
        <time>2016-05-06T06:52:06Z</time>
      </trkpt>
      <trkpt lat="44.53401" lon="5.99995">
        <ele>993</ele>
        <time>2016-05-06T06:52:07Z</time>
      </trkpt>
      <trkpt lat="44.53393" lon="5.99988">
        <ele>993.40002441406</ele>
        <time>2016-05-06T06:52:12Z</time>
      </trkpt>
      <trkpt lat="44.53391" lon="5.99987">
        <ele>993.79998779297</ele>
        <time>2016-05-06T06:52:13Z</time>
      </trkpt>
      <trkpt lat="44.5339" lon="5.99985">
        <ele>994.20001220703</ele>
        <time>2016-05-06T06:52:14Z</time>
      </trkpt>
      <trkpt lat="44.53388" lon="5.99983">
        <ele>994.59997558594</ele>
        <time>2016-05-06T06:52:15Z</time>
      </trkpt>
      <trkpt lat="44.53387" lon="5.99982">
        <ele>995</ele>
        <time>2016-05-06T06:52:16Z</time>
      </trkpt>
      <trkpt lat="44.53384" lon="5.99973">
        <ele>995.79998779297</ele>
        <time>2016-05-06T06:52:22Z</time>
      </trkpt>
      <trkpt lat="44.53383" lon="5.99969">
        <ele>996.59997558594</ele>
        <time>2016-05-06T06:52:24Z</time>
      </trkpt>
      <trkpt lat="44.53382" lon="5.99966">
        <ele>997</ele>
        <time>2016-05-06T06:52:25Z</time>
      </trkpt>
      <trkpt lat="44.53382" lon="5.99959">
        <ele>997.40002441406</ele>
        <time>2016-05-06T06:52:28Z</time>
      </trkpt>
      <trkpt lat="44.53382" lon="5.99957">
        <ele>998</ele>
        <time>2016-05-06T06:52:29Z</time>
      </trkpt>
      <trkpt lat="44.53382" lon="5.99954">
        <ele>998.40002441406</ele>
        <time>2016-05-06T06:52:30Z</time>
      </trkpt>
      <trkpt lat="44.53383" lon="5.99952">
        <ele>998.79998779297</ele>
        <time>2016-05-06T06:52:31Z</time>
      </trkpt>
      <trkpt lat="44.53383" lon="5.9995">
        <ele>999.20001220703</ele>
        <time>2016-05-06T06:52:32Z</time>
      </trkpt>
      <trkpt lat="44.53383" lon="5.99935">
        <ele>999.59997558594</ele>
        <time>2016-05-06T06:52:38Z</time>
      </trkpt>
      <trkpt lat="44.53383" lon="5.99932">
        <ele>1000</ele>
        <time>2016-05-06T06:52:39Z</time>
      </trkpt>
      <trkpt lat="44.53383" lon="5.9993">
        <ele>1000.4000244141</ele>
        <time>2016-05-06T06:52:40Z</time>
      </trkpt>
      <trkpt lat="44.53383" lon="5.99927">
        <ele>1000.799987793</ele>
        <time>2016-05-06T06:52:41Z</time>
      </trkpt>
      <trkpt lat="44.53384" lon="5.99924">
        <ele>1001.4000244141</ele>
        <time>2016-05-06T06:52:42Z</time>
      </trkpt>
      <trkpt lat="44.53385" lon="5.99911">
        <ele>1001.799987793</ele>
        <time>2016-05-06T06:52:47Z</time>
      </trkpt>
      <trkpt lat="44.53385" lon="5.99909">
        <ele>1002.200012207</ele>
        <time>2016-05-06T06:52:48Z</time>
      </trkpt>
      <trkpt lat="44.53384" lon="5.99906">
        <ele>1002.5999755859</ele>
        <time>2016-05-06T06:52:49Z</time>
      </trkpt>
      <trkpt lat="44.53384" lon="5.99904">
        <ele>1003</ele>
        <time>2016-05-06T06:52:50Z</time>
      </trkpt>
      <trkpt lat="44.53385" lon="5.99901">
        <ele>1003.4000244141</ele>
        <time>2016-05-06T06:52:51Z</time>
      </trkpt>
      <trkpt lat="44.53384" lon="5.99899">
        <ele>1003.4000244141</ele>
        <time>2016-05-06T06:52:52Z</time>
      </trkpt>
      <trkpt lat="44.53384" lon="5.9988">
        <ele>1003.799987793</ele>
        <time>2016-05-06T06:52:59Z</time>
      </trkpt>
      <trkpt lat="44.53384" lon="5.99877">
        <ele>1004.200012207</ele>
        <time>2016-05-06T06:53:00Z</time>
      </trkpt>
      <trkpt lat="44.53383" lon="5.99875">
        <ele>1004.799987793</ele>
        <time>2016-05-06T06:53:01Z</time>
      </trkpt>
      <trkpt lat="44.53383" lon="5.99872">
        <ele>1005.200012207</ele>
        <time>2016-05-06T06:53:02Z</time>
      </trkpt>
      <trkpt lat="44.53383" lon="5.99868">
        <ele>1005.5999755859</ele>
        <time>2016-05-06T06:53:03Z</time>
      </trkpt>
      <trkpt lat="44.53382" lon="5.99849">
        <ele>1006</ele>
        <time>2016-05-06T06:53:10Z</time>
      </trkpt>
      <trkpt lat="44.53382" lon="5.99847">
        <ele>1006.4000244141</ele>
        <time>2016-05-06T06:53:11Z</time>
      </trkpt>
      <trkpt lat="44.53382" lon="5.99844">
        <ele>1007</ele>
        <time>2016-05-06T06:53:12Z</time>
      </trkpt>
      <trkpt lat="44.53383" lon="5.99842">
        <ele>1007.4000244141</ele>
        <time>2016-05-06T06:53:13Z</time>
      </trkpt>
      <trkpt lat="44.53384" lon="5.99839">
        <ele>1007.799987793</ele>
        <time>2016-05-06T06:53:14Z</time>
      </trkpt>
      <trkpt lat="44.53387" lon="5.99827">
        <ele>1008.200012207</ele>
        <time>2016-05-06T06:53:19Z</time>
      </trkpt>
      <trkpt lat="44.53387" lon="5.99824">
        <ele>1008.5999755859</ele>
        <time>2016-05-06T06:53:20Z</time>
      </trkpt>
      <trkpt lat="44.53388" lon="5.99822">
        <ele>1009</ele>
        <time>2016-05-06T06:53:21Z</time>
      </trkpt>
      <trkpt lat="44.53388" lon="5.9982">
        <ele>1009.4000244141</ele>
        <time>2016-05-06T06:53:22Z</time>
      </trkpt>
      <trkpt lat="44.53388" lon="5.99817">
        <ele>1009.799987793</ele>
        <time>2016-05-06T06:53:23Z</time>
      </trkpt>
      <trkpt lat="44.53391" lon="5.99796">
        <ele>1010.200012207</ele>
        <time>2016-05-06T06:53:31Z</time>
      </trkpt>
      <trkpt lat="44.5339" lon="5.99794">
        <ele>1010.5999755859</ele>
        <time>2016-05-06T06:53:32Z</time>
      </trkpt>
      <trkpt lat="44.53389" lon="5.99792">
        <ele>1011</ele>
        <time>2016-05-06T06:53:33Z</time>
      </trkpt>
      <trkpt lat="44.53387" lon="5.99791">
        <ele>1011.4000244141</ele>
        <time>2016-05-06T06:53:34Z</time>
      </trkpt>
      <trkpt lat="44.53386" lon="5.9979">
        <ele>1011.799987793</ele>
        <time>2016-05-06T06:53:35Z</time>
      </trkpt>
      <trkpt lat="44.53381" lon="5.99792">
        <ele>1011.799987793</ele>
        <time>2016-05-06T06:53:37Z</time>
      </trkpt>
      <trkpt lat="44.53381" lon="5.99794">
        <ele>1011.799987793</ele>
        <time>2016-05-06T06:53:38Z</time>
      </trkpt>
      <trkpt lat="44.53378" lon="5.99806">
        <ele>1011.799987793</ele>
        <time>2016-05-06T06:53:42Z</time>
      </trkpt>
      <trkpt lat="44.53378" lon="5.99809">
        <ele>1011.799987793</ele>
        <time>2016-05-06T06:53:43Z</time>
      </trkpt>
      <trkpt lat="44.5337" lon="5.99837">
        <ele>1011.799987793</ele>
        <time>2016-05-06T06:53:51Z</time>
      </trkpt>
      <trkpt lat="44.53365" lon="5.99855">
        <ele>1012.200012207</ele>
        <time>2016-05-06T06:53:56Z</time>
      </trkpt>
      <trkpt lat="44.53364" lon="5.99859">
        <ele>1012.799987793</ele>
        <time>2016-05-06T06:53:57Z</time>
      </trkpt>
      <trkpt lat="44.53363" lon="5.99862">
        <ele>1013.200012207</ele>
        <time>2016-05-06T06:53:58Z</time>
      </trkpt>
      <trkpt lat="44.53362" lon="5.99865">
        <ele>1013.5999755859</ele>
        <time>2016-05-06T06:53:59Z</time>
      </trkpt>
      <trkpt lat="44.53362" lon="5.99869">
        <ele>1014</ele>
        <time>2016-05-06T06:54:00Z</time>
      </trkpt>
      <trkpt lat="44.53356" lon="5.99892">
        <ele>1014</ele>
        <time>2016-05-06T06:54:06Z</time>
      </trkpt>
      <trkpt lat="44.53347" lon="5.9991">
        <ele>1014.4000244141</ele>
        <time>2016-05-06T06:54:12Z</time>
      </trkpt>
      <trkpt lat="44.53345" lon="5.99912">
        <ele>1014.799987793</ele>
        <time>2016-05-06T06:54:13Z</time>
      </trkpt>
      <trkpt lat="44.53342" lon="5.99914">
        <ele>1015.200012207</ele>
        <time>2016-05-06T06:54:14Z</time>
      </trkpt>
      <trkpt lat="44.53341" lon="5.99916">
        <ele>1015.5999755859</ele>
        <time>2016-05-06T06:54:15Z</time>
      </trkpt>
      <trkpt lat="44.53338" lon="5.99917">
        <ele>1016</ele>
        <time>2016-05-06T06:54:16Z</time>
      </trkpt>
      <trkpt lat="44.53334" lon="5.99919">
        <ele>1016</ele>
        <time>2016-05-06T06:54:18Z</time>
      </trkpt>
      <trkpt lat="44.53333" lon="5.9992">
        <ele>1016.5999755859</ele>
        <time>2016-05-06T06:54:19Z</time>
      </trkpt>
      <trkpt lat="44.53331" lon="5.99921">
        <ele>1017</ele>
        <time>2016-05-06T06:54:20Z</time>
      </trkpt>
      <trkpt lat="44.53329" lon="5.99921">
        <ele>1017.4000244141</ele>
        <time>2016-05-06T06:54:21Z</time>
      </trkpt>
      <trkpt lat="44.53326" lon="5.9992">
        <ele>1017.799987793</ele>
        <time>2016-05-06T06:54:22Z</time>
      </trkpt>
      <trkpt lat="44.53324" lon="5.9992">
        <ele>1018.4000244141</ele>
        <time>2016-05-06T06:54:23Z</time>
      </trkpt>
      <trkpt lat="44.53318" lon="5.99918">
        <ele>1018.4000244141</ele>
        <time>2016-05-06T06:54:26Z</time>
      </trkpt>
      <trkpt lat="44.53313" lon="5.99918">
        <ele>1018.799987793</ele>
        <time>2016-05-06T06:54:28Z</time>
      </trkpt>
      <trkpt lat="44.53311" lon="5.99918">
        <ele>1019.200012207</ele>
        <time>2016-05-06T06:54:29Z</time>
      </trkpt>
      <trkpt lat="44.53309" lon="5.99917">
        <ele>1019.5999755859</ele>
        <time>2016-05-06T06:54:30Z</time>
      </trkpt>
      <trkpt lat="44.53307" lon="5.99916">
        <ele>1020</ele>
        <time>2016-05-06T06:54:31Z</time>
      </trkpt>
      <trkpt lat="44.53304" lon="5.99916">
        <ele>1020.5999755859</ele>
        <time>2016-05-06T06:54:32Z</time>
      </trkpt>
      <trkpt lat="44.53299" lon="5.99915">
        <ele>1020.5999755859</ele>
        <time>2016-05-06T06:54:34Z</time>
      </trkpt>
      <trkpt lat="44.53272" lon="5.9991">
        <ele>1021</ele>
        <time>2016-05-06T06:54:44Z</time>
      </trkpt>
      <trkpt lat="44.5327" lon="5.99909">
        <ele>1021.4000244141</ele>
        <time>2016-05-06T06:54:45Z</time>
      </trkpt>
      <trkpt lat="44.53268" lon="5.99908">
        <ele>1021.799987793</ele>
        <time>2016-05-06T06:54:46Z</time>
      </trkpt>
      <trkpt lat="44.53266" lon="5.99907">
        <ele>1022.4000244141</ele>
        <time>2016-05-06T06:54:47Z</time>
      </trkpt>
      <trkpt lat="44.53264" lon="5.99906">
        <ele>1022.799987793</ele>
        <time>2016-05-06T06:54:48Z</time>
      </trkpt>
      <trkpt lat="44.53259" lon="5.99903">
        <ele>1022.799987793</ele>
        <time>2016-05-06T06:54:51Z</time>
      </trkpt>
      <trkpt lat="44.53247" lon="5.99897">
        <ele>1023.200012207</ele>
        <time>2016-05-06T06:54:57Z</time>
      </trkpt>
      <trkpt lat="44.53245" lon="5.99896">
        <ele>1023.5999755859</ele>
        <time>2016-05-06T06:54:58Z</time>
      </trkpt>
      <trkpt lat="44.53243" lon="5.99895">
        <ele>1024.1999511719</ele>
        <time>2016-05-06T06:54:59Z</time>
      </trkpt>
      <trkpt lat="44.53241" lon="5.99894">
        <ele>1024.5999755859</ele>
        <time>2016-05-06T06:55:00Z</time>
      </trkpt>
      <trkpt lat="44.53239" lon="5.99893">
        <ele>1025</ele>
        <time>2016-05-06T06:55:01Z</time>
      </trkpt>
      <trkpt lat="44.53234" lon="5.99891">
        <ele>1025</ele>
        <time>2016-05-06T06:55:03Z</time>
      </trkpt>
      <trkpt lat="44.5322" lon="5.99884">
        <ele>1025.4000244141</ele>
        <time>2016-05-06T06:55:11Z</time>
      </trkpt>
      <trkpt lat="44.53218" lon="5.99883">
        <ele>1025.8000488281</ele>
        <time>2016-05-06T06:55:12Z</time>
      </trkpt>
      <trkpt lat="44.53216" lon="5.99882">
        <ele>1026.4000244141</ele>
        <time>2016-05-06T06:55:13Z</time>
      </trkpt>
      <trkpt lat="44.53214" lon="5.9988">
        <ele>1026.8000488281</ele>
        <time>2016-05-06T06:55:14Z</time>
      </trkpt>
      <trkpt lat="44.53212" lon="5.9988">
        <ele>1027.1999511719</ele>
        <time>2016-05-06T06:55:15Z</time>
      </trkpt>
      <trkpt lat="44.53207" lon="5.99878">
        <ele>1027.1999511719</ele>
        <time>2016-05-06T06:55:17Z</time>
      </trkpt>
      <trkpt lat="44.53199" lon="5.99875">
        <ele>1027.5999755859</ele>
        <time>2016-05-06T06:55:20Z</time>
      </trkpt>
      <trkpt lat="44.53197" lon="5.99874">
        <ele>1028</ele>
        <time>2016-05-06T06:55:21Z</time>
      </trkpt>
      <trkpt lat="44.53194" lon="5.99872">
        <ele>1028.4000244141</ele>
        <time>2016-05-06T06:55:22Z</time>
      </trkpt>
      <trkpt lat="44.53192" lon="5.99871">
        <ele>1028.8000488281</ele>
        <time>2016-05-06T06:55:23Z</time>
      </trkpt>
      <trkpt lat="44.53189" lon="5.9987">
        <ele>1029.4000244141</ele>
        <time>2016-05-06T06:55:24Z</time>
      </trkpt>
      <trkpt lat="44.53178" lon="5.99866">
        <ele>1029.4000244141</ele>
        <time>2016-05-06T06:55:28Z</time>
      </trkpt>
      <trkpt lat="44.53148" lon="5.9986">
        <ele>1029.8000488281</ele>
        <time>2016-05-06T06:55:39Z</time>
      </trkpt>
      <trkpt lat="44.53146" lon="5.9986">
        <ele>1030.1999511719</ele>
        <time>2016-05-06T06:55:40Z</time>
      </trkpt>
      <trkpt lat="44.53143" lon="5.9986">
        <ele>1030.5999755859</ele>
        <time>2016-05-06T06:55:41Z</time>
      </trkpt>
      <trkpt lat="44.5314" lon="5.9986">
        <ele>1031</ele>
        <time>2016-05-06T06:55:42Z</time>
      </trkpt>
      <trkpt lat="44.53138" lon="5.9986">
        <ele>1031.5999755859</ele>
        <time>2016-05-06T06:55:43Z</time>
      </trkpt>
      <trkpt lat="44.53122" lon="5.99863">
        <ele>1031.5999755859</ele>
        <time>2016-05-06T06:55:49Z</time>
      </trkpt>
      <trkpt lat="44.53102" lon="5.9987">
        <ele>1032</ele>
        <time>2016-05-06T06:55:58Z</time>
      </trkpt>
      <trkpt lat="44.53099" lon="5.99871">
        <ele>1032.4000244141</ele>
        <time>2016-05-06T06:55:59Z</time>
      </trkpt>
      <trkpt lat="44.53098" lon="5.99872">
        <ele>1032.8000488281</ele>
        <time>2016-05-06T06:56:00Z</time>
      </trkpt>
      <trkpt lat="44.53095" lon="5.99874">
        <ele>1033.1999511719</ele>
        <time>2016-05-06T06:56:01Z</time>
      </trkpt>
      <trkpt lat="44.53093" lon="5.99875">
        <ele>1033.5999755859</ele>
        <time>2016-05-06T06:56:02Z</time>
      </trkpt>
      <trkpt lat="44.53082" lon="5.99882">
        <ele>1034</ele>
        <time>2016-05-06T06:56:07Z</time>
      </trkpt>
      <trkpt lat="44.5308" lon="5.99883">
        <ele>1034.4000244141</ele>
        <time>2016-05-06T06:56:08Z</time>
      </trkpt>
      <trkpt lat="44.53078" lon="5.99884">
        <ele>1034.8000488281</ele>
        <time>2016-05-06T06:56:09Z</time>
      </trkpt>
      <trkpt lat="44.53077" lon="5.99886">
        <ele>1035.4000244141</ele>
        <time>2016-05-06T06:56:10Z</time>
      </trkpt>
      <trkpt lat="44.53074" lon="5.99887">
        <ele>1035.8000488281</ele>
        <time>2016-05-06T06:56:11Z</time>
      </trkpt>
      <trkpt lat="44.53066" lon="5.99891">
        <ele>1035.8000488281</ele>
        <time>2016-05-06T06:56:15Z</time>
      </trkpt>
      <trkpt lat="44.53057" lon="5.99894">
        <ele>1036.1999511719</ele>
        <time>2016-05-06T06:56:19Z</time>
      </trkpt>
      <trkpt lat="44.53056" lon="5.99896">
        <ele>1036.5999755859</ele>
        <time>2016-05-06T06:56:20Z</time>
      </trkpt>
      <trkpt lat="44.53054" lon="5.99898">
        <ele>1037</ele>
        <time>2016-05-06T06:56:21Z</time>
      </trkpt>
      <trkpt lat="44.53052" lon="5.999">
        <ele>1037.5999755859</ele>
        <time>2016-05-06T06:56:22Z</time>
      </trkpt>
      <trkpt lat="44.5305" lon="5.99901">
        <ele>1038</ele>
        <time>2016-05-06T06:56:23Z</time>
      </trkpt>
      <trkpt lat="44.53034" lon="5.99911">
        <ele>1038.4000244141</ele>
        <time>2016-05-06T06:56:30Z</time>
      </trkpt>
      <trkpt lat="44.53032" lon="5.99911">
        <ele>1038.8000488281</ele>
        <time>2016-05-06T06:56:31Z</time>
      </trkpt>
      <trkpt lat="44.53029" lon="5.99912">
        <ele>1039.4000244141</ele>
        <time>2016-05-06T06:56:32Z</time>
      </trkpt>
      <trkpt lat="44.53027" lon="5.99913">
        <ele>1039.8000488281</ele>
        <time>2016-05-06T06:56:33Z</time>
      </trkpt>
      <trkpt lat="44.53024" lon="5.99914">
        <ele>1040.1999511719</ele>
        <time>2016-05-06T06:56:34Z</time>
      </trkpt>
      <trkpt lat="44.53019" lon="5.99921">
        <ele>1040.1999511719</ele>
        <time>2016-05-06T06:56:37Z</time>
      </trkpt>
      <trkpt lat="44.53011" lon="5.99937">
        <ele>1040.5999755859</ele>
        <time>2016-05-06T06:56:43Z</time>
      </trkpt>
      <trkpt lat="44.53008" lon="5.99938">
        <ele>1041</ele>
        <time>2016-05-06T06:56:44Z</time>
      </trkpt>
      <trkpt lat="44.53006" lon="5.9994">
        <ele>1041.4000244141</ele>
        <time>2016-05-06T06:56:45Z</time>
      </trkpt>
      <trkpt lat="44.53004" lon="5.99941">
        <ele>1041.8000488281</ele>
        <time>2016-05-06T06:56:46Z</time>
      </trkpt>
      <trkpt lat="44.53002" lon="5.99942">
        <ele>1042.1999511719</ele>
        <time>2016-05-06T06:56:47Z</time>
      </trkpt>
      <trkpt lat="44.52989" lon="5.99947">
        <ele>1042.1999511719</ele>
        <time>2016-05-06T06:56:53Z</time>
      </trkpt>
      <trkpt lat="44.52977" lon="5.99951">
        <ele>1042.8000488281</ele>
        <time>2016-05-06T06:56:58Z</time>
      </trkpt>
      <trkpt lat="44.52974" lon="5.99952">
        <ele>1043.1999511719</ele>
        <time>2016-05-06T06:56:59Z</time>
      </trkpt>
      <trkpt lat="44.52972" lon="5.99953">
        <ele>1043.5999755859</ele>
        <time>2016-05-06T06:57:00Z</time>
      </trkpt>
      <trkpt lat="44.5297" lon="5.99954">
        <ele>1044.1999511719</ele>
        <time>2016-05-06T06:57:01Z</time>
      </trkpt>
      <trkpt lat="44.52966" lon="5.99956">
        <ele>1044.5999755859</ele>
        <time>2016-05-06T06:57:02Z</time>
      </trkpt>
      <trkpt lat="44.52956" lon="5.99961">
        <ele>1044.5999755859</ele>
        <time>2016-05-06T06:57:05Z</time>
      </trkpt>
      <trkpt lat="44.52938" lon="5.9998">
        <ele>1044.5999755859</ele>
        <time>2016-05-06T06:57:11Z</time>
      </trkpt>
      <trkpt lat="44.52924" lon="5.99998">
        <ele>1044.5999755859</ele>
        <time>2016-05-06T06:57:17Z</time>
      </trkpt>
      <trkpt lat="44.52902" lon="6.00016">
        <ele>1044.5999755859</ele>
        <time>2016-05-06T06:57:25Z</time>
      </trkpt>
      <trkpt lat="44.5288" lon="6.00038">
        <ele>1045</ele>
        <time>2016-05-06T06:57:33Z</time>
      </trkpt>
      <trkpt lat="44.52877" lon="6.00042">
        <ele>1045.4000244141</ele>
        <time>2016-05-06T06:57:34Z</time>
      </trkpt>
      <trkpt lat="44.52874" lon="6.00046">
        <ele>1045.8000488281</ele>
        <time>2016-05-06T06:57:35Z</time>
      </trkpt>
      <trkpt lat="44.52871" lon="6.00049">
        <ele>1046.1999511719</ele>
        <time>2016-05-06T06:57:36Z</time>
      </trkpt>
      <trkpt lat="44.52868" lon="6.00053">
        <ele>1046.5999755859</ele>
        <time>2016-05-06T06:57:37Z</time>
      </trkpt>
      <trkpt lat="44.52856" lon="6.00068">
        <ele>1046.5999755859</ele>
        <time>2016-05-06T06:57:41Z</time>
      </trkpt>
      <trkpt lat="44.52834" lon="6.00104">
        <ele>1046.5999755859</ele>
        <time>2016-05-06T06:57:48Z</time>
      </trkpt>
      <trkpt lat="44.52824" lon="6.00135">
        <ele>1046.5999755859</ele>
        <time>2016-05-06T06:57:53Z</time>
      </trkpt>
      <trkpt lat="44.52823" lon="6.00142">
        <ele>1046.5999755859</ele>
        <time>2016-05-06T06:57:54Z</time>
      </trkpt>
      <trkpt lat="44.52818" lon="6.00186">
        <ele>1046.5999755859</ele>
        <time>2016-05-06T06:58:01Z</time>
      </trkpt>
      <trkpt lat="44.52797" lon="6.00222">
        <ele>1046.5999755859</ele>
        <time>2016-05-06T06:58:09Z</time>
      </trkpt>
      <trkpt lat="44.52777" lon="6.00248">
        <ele>1046.5999755859</ele>
        <time>2016-05-06T06:58:15Z</time>
      </trkpt>
      <trkpt lat="44.52756" lon="6.00286">
        <ele>1046.1999511719</ele>
        <time>2016-05-06T06:58:20Z</time>
      </trkpt>
      <trkpt lat="44.52752" lon="6.00291">
        <ele>1045.8000488281</ele>
        <time>2016-05-06T06:58:21Z</time>
      </trkpt>
      <trkpt lat="44.52746" lon="6.00295">
        <ele>1045.1999511719</ele>
        <time>2016-05-06T06:58:22Z</time>
      </trkpt>
      <trkpt lat="44.5274" lon="6.00298">
        <ele>1044.8000488281</ele>
        <time>2016-05-06T06:58:23Z</time>
      </trkpt>
      <trkpt lat="44.52733" lon="6.00298">
        <ele>1044.4000244141</ele>
        <time>2016-05-06T06:58:24Z</time>
      </trkpt>
      <trkpt lat="44.5272" lon="6.00301">
        <ele>1043.8000488281</ele>
        <time>2016-05-06T06:58:26Z</time>
      </trkpt>
      <trkpt lat="44.52712" lon="6.00303">
        <ele>1043.4000244141</ele>
        <time>2016-05-06T06:58:27Z</time>
      </trkpt>
      <trkpt lat="44.52705" lon="6.00306">
        <ele>1043</ele>
        <time>2016-05-06T06:58:28Z</time>
      </trkpt>
      <trkpt lat="44.52697" lon="6.00309">
        <ele>1042.4000244141</ele>
        <time>2016-05-06T06:58:29Z</time>
      </trkpt>
      <trkpt lat="44.52689" lon="6.00312">
        <ele>1041.8000488281</ele>
        <time>2016-05-06T06:58:30Z</time>
      </trkpt>
      <trkpt lat="44.52681" lon="6.00314">
        <ele>1041.1999511719</ele>
        <time>2016-05-06T06:58:31Z</time>
      </trkpt>
      <trkpt lat="44.52673" lon="6.00315">
        <ele>1040.4000244141</ele>
        <time>2016-05-06T06:58:32Z</time>
      </trkpt>
      <trkpt lat="44.52664" lon="6.00316">
        <ele>1039.8000488281</ele>
        <time>2016-05-06T06:58:33Z</time>
      </trkpt>
      <trkpt lat="44.52655" lon="6.00316">
        <ele>1039</ele>
        <time>2016-05-06T06:58:34Z</time>
      </trkpt>
      <trkpt lat="44.52645" lon="6.00317">
        <ele>1038.4000244141</ele>
        <time>2016-05-06T06:58:35Z</time>
      </trkpt>
      <trkpt lat="44.52637" lon="6.00316">
        <ele>1037.5999755859</ele>
        <time>2016-05-06T06:58:36Z</time>
      </trkpt>
      <trkpt lat="44.52629" lon="6.00314">
        <ele>1037.5999755859</ele>
        <time>2016-05-06T06:58:37Z</time>
      </trkpt>
      <trkpt lat="44.52613" lon="6.00308">
        <ele>1037.5999755859</ele>
        <time>2016-05-06T06:58:39Z</time>
      </trkpt>
      <trkpt lat="44.52607" lon="6.00303">
        <ele>1037.1999511719</ele>
        <time>2016-05-06T06:58:40Z</time>
      </trkpt>
      <trkpt lat="44.526" lon="6.00297">
        <ele>1036.8000488281</ele>
        <time>2016-05-06T06:58:41Z</time>
      </trkpt>
      <trkpt lat="44.52594" lon="6.0029">
        <ele>1036.4000244141</ele>
        <time>2016-05-06T06:58:42Z</time>
      </trkpt>
      <trkpt lat="44.52588" lon="6.00284">
        <ele>1036</ele>
        <time>2016-05-06T06:58:43Z</time>
      </trkpt>
      <trkpt lat="44.52581" lon="6.00277">
        <ele>1035.5999755859</ele>
        <time>2016-05-06T06:58:44Z</time>
      </trkpt>
      <trkpt lat="44.52573" lon="6.00271">
        <ele>1035</ele>
        <time>2016-05-06T06:58:45Z</time>
      </trkpt>
      <trkpt lat="44.52565" lon="6.00266">
        <ele>1034.5999755859</ele>
        <time>2016-05-06T06:58:46Z</time>
      </trkpt>
      <trkpt lat="44.52557" lon="6.00263">
        <ele>1034</ele>
        <time>2016-05-06T06:58:47Z</time>
      </trkpt>
      <trkpt lat="44.52548" lon="6.0026">
        <ele>1033.5999755859</ele>
        <time>2016-05-06T06:58:48Z</time>
      </trkpt>
      <trkpt lat="44.52519" lon="6.00259">
        <ele>1033.5999755859</ele>
        <time>2016-05-06T06:58:51Z</time>
      </trkpt>
      <trkpt lat="44.52511" lon="6.0026">
        <ele>1033.5999755859</ele>
        <time>2016-05-06T06:58:52Z</time>
      </trkpt>
      <trkpt lat="44.52489" lon="6.00262">
        <ele>1033.5999755859</ele>
        <time>2016-05-06T06:58:55Z</time>
      </trkpt>
      <trkpt lat="44.52474" lon="6.00262">
        <ele>1033.5999755859</ele>
        <time>2016-05-06T06:58:57Z</time>
      </trkpt>
      <trkpt lat="44.52466" lon="6.0026">
        <ele>1033.1999511719</ele>
        <time>2016-05-06T06:58:58Z</time>
      </trkpt>
      <trkpt lat="44.52459" lon="6.00257">
        <ele>1032.8000488281</ele>
        <time>2016-05-06T06:58:59Z</time>
      </trkpt>
      <trkpt lat="44.52451" lon="6.00254">
        <ele>1032.4000244141</ele>
        <time>2016-05-06T06:59:00Z</time>
      </trkpt>
      <trkpt lat="44.52442" lon="6.00251">
        <ele>1032</ele>
        <time>2016-05-06T06:59:01Z</time>
      </trkpt>
      <trkpt lat="44.52434" lon="6.00247">
        <ele>1031.4000244141</ele>
        <time>2016-05-06T06:59:02Z</time>
      </trkpt>
      <trkpt lat="44.52425" lon="6.00243">
        <ele>1031</ele>
        <time>2016-05-06T06:59:03Z</time>
      </trkpt>
      <trkpt lat="44.52417" lon="6.00239">
        <ele>1030.4000244141</ele>
        <time>2016-05-06T06:59:04Z</time>
      </trkpt>
      <trkpt lat="44.52408" lon="6.00235">
        <ele>1030</ele>
        <time>2016-05-06T06:59:05Z</time>
      </trkpt>
      <trkpt lat="44.524" lon="6.0023">
        <ele>1029.4000244141</ele>
        <time>2016-05-06T06:59:06Z</time>
      </trkpt>
      <trkpt lat="44.52384" lon="6.00217">
        <ele>1029</ele>
        <time>2016-05-06T06:59:08Z</time>
      </trkpt>
      <trkpt lat="44.52377" lon="6.00211">
        <ele>1028.5999755859</ele>
        <time>2016-05-06T06:59:09Z</time>
      </trkpt>
      <trkpt lat="44.5237" lon="6.00204">
        <ele>1028.1999511719</ele>
        <time>2016-05-06T06:59:10Z</time>
      </trkpt>
      <trkpt lat="44.52363" lon="6.00198">
        <ele>1027.8000488281</ele>
        <time>2016-05-06T06:59:11Z</time>
      </trkpt>
      <trkpt lat="44.52356" lon="6.00192">
        <ele>1027.4000244141</ele>
        <time>2016-05-06T06:59:12Z</time>
      </trkpt>
      <trkpt lat="44.52343" lon="6.00181">
        <ele>1027.4000244141</ele>
        <time>2016-05-06T06:59:14Z</time>
      </trkpt>
      <trkpt lat="44.52311" lon="6.00152">
        <ele>1027</ele>
        <time>2016-05-06T06:59:19Z</time>
      </trkpt>
      <trkpt lat="44.52304" lon="6.00145">
        <ele>1026.5999755859</ele>
        <time>2016-05-06T06:59:20Z</time>
      </trkpt>
      <trkpt lat="44.52298" lon="6.00138">
        <ele>1026</ele>
        <time>2016-05-06T06:59:21Z</time>
      </trkpt>
      <trkpt lat="44.52292" lon="6.0013">
        <ele>1025.5999755859</ele>
        <time>2016-05-06T06:59:22Z</time>
      </trkpt>
      <trkpt lat="44.52286" lon="6.00122">
        <ele>1025.1999511719</ele>
        <time>2016-05-06T06:59:23Z</time>
      </trkpt>
      <trkpt lat="44.5227" lon="6.00099">
        <ele>1024.5999755859</ele>
        <time>2016-05-06T06:59:26Z</time>
      </trkpt>
      <trkpt lat="44.52268" lon="6.00087">
        <ele>1024.1999511719</ele>
        <time>2016-05-06T06:59:27Z</time>
      </trkpt>
      <trkpt lat="44.52269" lon="6.00077">
        <ele>1023.5999755859</ele>
        <time>2016-05-06T06:59:28Z</time>
      </trkpt>
      <trkpt lat="44.52271" lon="6.00066">
        <ele>1023.200012207</ele>
        <time>2016-05-06T06:59:29Z</time>
      </trkpt>
      <trkpt lat="44.52274" lon="6.00057">
        <ele>1022.5999755859</ele>
        <time>2016-05-06T06:59:30Z</time>
      </trkpt>
      <trkpt lat="44.52282" lon="6.0004">
        <ele>1022.5999755859</ele>
        <time>2016-05-06T06:59:32Z</time>
      </trkpt>
      <trkpt lat="44.52288" lon="6.00024">
        <ele>1022.5999755859</ele>
        <time>2016-05-06T06:59:34Z</time>
      </trkpt>
      <trkpt lat="44.52293" lon="6.0001">
        <ele>1023</ele>
        <time>2016-05-06T06:59:36Z</time>
      </trkpt>
      <trkpt lat="44.52295" lon="6.00004">
        <ele>1023.4000244141</ele>
        <time>2016-05-06T06:59:37Z</time>
      </trkpt>
      <trkpt lat="44.52297" lon="5.99998">
        <ele>1023.799987793</ele>
        <time>2016-05-06T06:59:38Z</time>
      </trkpt>
      <trkpt lat="44.52299" lon="5.99993">
        <ele>1024.1999511719</ele>
        <time>2016-05-06T06:59:39Z</time>
      </trkpt>
      <trkpt lat="44.52301" lon="5.99988">
        <ele>1024.8000488281</ele>
        <time>2016-05-06T06:59:40Z</time>
      </trkpt>
      <trkpt lat="44.52311" lon="5.99972">
        <ele>1025.1999511719</ele>
        <time>2016-05-06T06:59:44Z</time>
      </trkpt>
      <trkpt lat="44.52315" lon="5.9997">
        <ele>1025.5999755859</ele>
        <time>2016-05-06T06:59:45Z</time>
      </trkpt>
      <trkpt lat="44.52319" lon="5.99968">
        <ele>1026.1999511719</ele>
        <time>2016-05-06T06:59:46Z</time>
      </trkpt>
      <trkpt lat="44.52322" lon="5.99966">
        <ele>1026.5999755859</ele>
        <time>2016-05-06T06:59:47Z</time>
      </trkpt>
      <trkpt lat="44.52325" lon="5.99965">
        <ele>1027.1999511719</ele>
        <time>2016-05-06T06:59:48Z</time>
      </trkpt>
      <trkpt lat="44.52332" lon="5.99961">
        <ele>1027.1999511719</ele>
        <time>2016-05-06T06:59:50Z</time>
      </trkpt>
      <trkpt lat="44.52338" lon="5.99958">
        <ele>1027.5999755859</ele>
        <time>2016-05-06T06:59:52Z</time>
      </trkpt>
      <trkpt lat="44.52341" lon="5.99956">
        <ele>1028.1999511719</ele>
        <time>2016-05-06T06:59:53Z</time>
      </trkpt>
      <trkpt lat="44.52344" lon="5.99954">
        <ele>1028.5999755859</ele>
        <time>2016-05-06T06:59:54Z</time>
      </trkpt>
      <trkpt lat="44.52346" lon="5.99952">
        <ele>1029</ele>
        <time>2016-05-06T06:59:55Z</time>
      </trkpt>
      <trkpt lat="44.52349" lon="5.9995">
        <ele>1029.5999755859</ele>
        <time>2016-05-06T06:59:56Z</time>
      </trkpt>
      <trkpt lat="44.52352" lon="5.99946">
        <ele>1029.5999755859</ele>
        <time>2016-05-06T06:59:58Z</time>
      </trkpt>
      <trkpt lat="44.52355" lon="5.99941">
        <ele>1030</ele>
        <time>2016-05-06T07:00:00Z</time>
      </trkpt>
      <trkpt lat="44.52357" lon="5.99938">
        <ele>1030.4000244141</ele>
        <time>2016-05-06T07:00:01Z</time>
      </trkpt>
      <trkpt lat="44.52358" lon="5.99936">
        <ele>1030.8000488281</ele>
        <time>2016-05-06T07:00:02Z</time>
      </trkpt>
      <trkpt lat="44.52359" lon="5.99935">
        <ele>1031.1999511719</ele>
        <time>2016-05-06T07:00:03Z</time>
      </trkpt>
      <trkpt lat="44.52361" lon="5.99933">
        <ele>1031.5999755859</ele>
        <time>2016-05-06T07:00:04Z</time>
      </trkpt>
      <trkpt lat="44.52362" lon="5.99931">
        <ele>1031.5999755859</ele>
        <time>2016-05-06T07:00:05Z</time>
      </trkpt>
      <trkpt lat="44.52365" lon="5.99928">
        <ele>1032</ele>
        <time>2016-05-06T07:00:07Z</time>
      </trkpt>
      <trkpt lat="44.52367" lon="5.99926">
        <ele>1032.4000244141</ele>
        <time>2016-05-06T07:00:08Z</time>
      </trkpt>
      <trkpt lat="44.52369" lon="5.99925">
        <ele>1033</ele>
        <time>2016-05-06T07:00:09Z</time>
      </trkpt>
      <trkpt lat="44.5237" lon="5.99923">
        <ele>1033.4000244141</ele>
        <time>2016-05-06T07:00:10Z</time>
      </trkpt>
      <trkpt lat="44.52372" lon="5.99921">
        <ele>1033.8000488281</ele>
        <time>2016-05-06T07:00:11Z</time>
      </trkpt>
      <trkpt lat="44.52374" lon="5.9992">
        <ele>1033.8000488281</ele>
        <time>2016-05-06T07:00:12Z</time>
      </trkpt>
      <trkpt lat="44.52379" lon="5.99913">
        <ele>1034.1999511719</ele>
        <time>2016-05-06T07:00:16Z</time>
      </trkpt>
      <trkpt lat="44.5238" lon="5.99911">
        <ele>1034.5999755859</ele>
        <time>2016-05-06T07:00:17Z</time>
      </trkpt>
      <trkpt lat="44.52382" lon="5.99909">
        <ele>1035</ele>
        <time>2016-05-06T07:00:18Z</time>
      </trkpt>
      <trkpt lat="44.52383" lon="5.99907">
        <ele>1035.5999755859</ele>
        <time>2016-05-06T07:00:19Z</time>
      </trkpt>
      <trkpt lat="44.52384" lon="5.99904">
        <ele>1036</ele>
        <time>2016-05-06T07:00:20Z</time>
      </trkpt>
      <trkpt lat="44.52392" lon="5.99885">
        <ele>1036.4000244141</ele>
        <time>2016-05-06T07:00:26Z</time>
      </trkpt>
      <trkpt lat="44.52393" lon="5.99882">
        <ele>1036.8000488281</ele>
        <time>2016-05-06T07:00:27Z</time>
      </trkpt>
      <trkpt lat="44.52395" lon="5.99878">
        <ele>1037.1999511719</ele>
        <time>2016-05-06T07:00:28Z</time>
      </trkpt>
      <trkpt lat="44.52396" lon="5.99875">
        <ele>1037.5999755859</ele>
        <time>2016-05-06T07:00:29Z</time>
      </trkpt>
      <trkpt lat="44.52398" lon="5.99872">
        <ele>1038</ele>
        <time>2016-05-06T07:00:30Z</time>
      </trkpt>
      <trkpt lat="44.52407" lon="5.99849">
        <ele>1038.4000244141</ele>
        <time>2016-05-06T07:00:37Z</time>
      </trkpt>
      <trkpt lat="44.52408" lon="5.99846">
        <ele>1038.8000488281</ele>
        <time>2016-05-06T07:00:38Z</time>
      </trkpt>
      <trkpt lat="44.52409" lon="5.99843">
        <ele>1039.4000244141</ele>
        <time>2016-05-06T07:00:39Z</time>
      </trkpt>
      <trkpt lat="44.52411" lon="5.99841">
        <ele>1039.8000488281</ele>
        <time>2016-05-06T07:00:40Z</time>
      </trkpt>
      <trkpt lat="44.52413" lon="5.99838">
        <ele>1040.1999511719</ele>
        <time>2016-05-06T07:00:41Z</time>
      </trkpt>
      <trkpt lat="44.5242" lon="5.99824">
        <ele>1040.1999511719</ele>
        <time>2016-05-06T07:00:46Z</time>
      </trkpt>
      <trkpt lat="44.52429" lon="5.99811">
        <ele>1040.5999755859</ele>
        <time>2016-05-06T07:00:51Z</time>
      </trkpt>
      <trkpt lat="44.52431" lon="5.99808">
        <ele>1041</ele>
        <time>2016-05-06T07:00:52Z</time>
      </trkpt>
      <trkpt lat="44.52433" lon="5.99806">
        <ele>1041.4000244141</ele>
        <time>2016-05-06T07:00:53Z</time>
      </trkpt>
      <trkpt lat="44.52435" lon="5.99803">
        <ele>1041.8000488281</ele>
        <time>2016-05-06T07:00:54Z</time>
      </trkpt>
      <trkpt lat="44.52438" lon="5.998">
        <ele>1042.1999511719</ele>
        <time>2016-05-06T07:00:55Z</time>
      </trkpt>
      <trkpt lat="44.52441" lon="5.99795">
        <ele>1042.1999511719</ele>
        <time>2016-05-06T07:00:57Z</time>
      </trkpt>
      <trkpt lat="44.52456" lon="5.99775">
        <ele>1042.1999511719</ele>
        <time>2016-05-06T07:01:05Z</time>
      </trkpt>
      <trkpt lat="44.5246" lon="5.99769">
        <ele>1042.5999755859</ele>
        <time>2016-05-06T07:01:07Z</time>
      </trkpt>
      <trkpt lat="44.52462" lon="5.99766">
        <ele>1043</ele>
        <time>2016-05-06T07:01:08Z</time>
      </trkpt>
      <trkpt lat="44.52464" lon="5.99763">
        <ele>1043.4000244141</ele>
        <time>2016-05-06T07:01:09Z</time>
      </trkpt>
      <trkpt lat="44.52465" lon="5.99759">
        <ele>1043.8000488281</ele>
        <time>2016-05-06T07:01:10Z</time>
      </trkpt>
      <trkpt lat="44.52467" lon="5.99756">
        <ele>1044.1999511719</ele>
        <time>2016-05-06T07:01:11Z</time>
      </trkpt>
      <trkpt lat="44.52472" lon="5.99749">
        <ele>1044.1999511719</ele>
        <time>2016-05-06T07:01:13Z</time>
      </trkpt>
      <trkpt lat="44.52487" lon="5.99722">
        <ele>1044.1999511719</ele>
        <time>2016-05-06T07:01:19Z</time>
      </trkpt>
      <trkpt lat="44.52518" lon="5.99672">
        <ele>1044.1999511719</ele>
        <time>2016-05-06T07:01:28Z</time>
      </trkpt>
      <trkpt lat="44.52554" lon="5.9961">
        <ele>1044.1999511719</ele>
        <time>2016-05-06T07:01:38Z</time>
      </trkpt>
      <trkpt lat="44.52563" lon="5.996">
        <ele>1044.1999511719</ele>
        <time>2016-05-06T07:01:40Z</time>
      </trkpt>
      <trkpt lat="44.52579" lon="5.99591">
        <ele>1044.1999511719</ele>
        <time>2016-05-06T07:01:43Z</time>
      </trkpt>
      <trkpt lat="44.52584" lon="5.99589">
        <ele>1044.1999511719</ele>
        <time>2016-05-06T07:01:44Z</time>
      </trkpt>
      <trkpt lat="44.52595" lon="5.99584">
        <ele>1044.1999511719</ele>
        <time>2016-05-06T07:01:46Z</time>
      </trkpt>
      <trkpt lat="44.5261" lon="5.99573">
        <ele>1044.1999511719</ele>
        <time>2016-05-06T07:01:49Z</time>
      </trkpt>
      <trkpt lat="44.52619" lon="5.99564">
        <ele>1044.1999511719</ele>
        <time>2016-05-06T07:01:51Z</time>
      </trkpt>
      <trkpt lat="44.52629" lon="5.99545">
        <ele>1044.1999511719</ele>
        <time>2016-05-06T07:01:54Z</time>
      </trkpt>
      <trkpt lat="44.52631" lon="5.99538">
        <ele>1044.1999511719</ele>
        <time>2016-05-06T07:01:55Z</time>
      </trkpt>
      <trkpt lat="44.52643" lon="5.99512">
        <ele>1044.1999511719</ele>
        <time>2016-05-06T07:01:59Z</time>
      </trkpt>
      <trkpt lat="44.52647" lon="5.99505">
        <ele>1043.8000488281</ele>
        <time>2016-05-06T07:02:00Z</time>
      </trkpt>
      <trkpt lat="44.52651" lon="5.99499">
        <ele>1043.4000244141</ele>
        <time>2016-05-06T07:02:01Z</time>
      </trkpt>
      <trkpt lat="44.52655" lon="5.99492">
        <ele>1043</ele>
        <time>2016-05-06T07:02:02Z</time>
      </trkpt>
      <trkpt lat="44.52658" lon="5.99485">
        <ele>1042.5999755859</ele>
        <time>2016-05-06T07:02:03Z</time>
      </trkpt>
      <trkpt lat="44.52662" lon="5.99479">
        <ele>1042.1999511719</ele>
        <time>2016-05-06T07:02:04Z</time>
      </trkpt>
      <trkpt lat="44.5267" lon="5.99467">
        <ele>1042.1999511719</ele>
        <time>2016-05-06T07:02:06Z</time>
      </trkpt>
      <trkpt lat="44.52681" lon="5.9945">
        <ele>1042.1999511719</ele>
        <time>2016-05-06T07:02:09Z</time>
      </trkpt>
      <trkpt lat="44.52687" lon="5.99438">
        <ele>1042.1999511719</ele>
        <time>2016-05-06T07:02:11Z</time>
      </trkpt>
      <trkpt lat="44.52705" lon="5.9941">
        <ele>1042.1999511719</ele>
        <time>2016-05-06T07:02:17Z</time>
      </trkpt>
      <trkpt lat="44.52707" lon="5.99406">
        <ele>1042.5999755859</ele>
        <time>2016-05-06T07:02:18Z</time>
      </trkpt>
      <trkpt lat="44.52709" lon="5.99403">
        <ele>1043.1999511719</ele>
        <time>2016-05-06T07:02:19Z</time>
      </trkpt>
      <trkpt lat="44.52711" lon="5.994">
        <ele>1043.5999755859</ele>
        <time>2016-05-06T07:02:20Z</time>
      </trkpt>
      <trkpt lat="44.52713" lon="5.99397">
        <ele>1044.1999511719</ele>
        <time>2016-05-06T07:02:21Z</time>
      </trkpt>
      <trkpt lat="44.52715" lon="5.99394">
        <ele>1044.5999755859</ele>
        <time>2016-05-06T07:02:22Z</time>
      </trkpt>
      <trkpt lat="44.52719" lon="5.99387">
        <ele>1045</ele>
        <time>2016-05-06T07:02:24Z</time>
      </trkpt>
      <trkpt lat="44.52721" lon="5.99384">
        <ele>1045.4000244141</ele>
        <time>2016-05-06T07:02:25Z</time>
      </trkpt>
      <trkpt lat="44.52723" lon="5.99381">
        <ele>1045.8000488281</ele>
        <time>2016-05-06T07:02:26Z</time>
      </trkpt>
      <trkpt lat="44.52726" lon="5.99378">
        <ele>1046.1999511719</ele>
        <time>2016-05-06T07:02:27Z</time>
      </trkpt>
      <trkpt lat="44.52728" lon="5.99375">
        <ele>1046.5999755859</ele>
        <time>2016-05-06T07:02:28Z</time>
      </trkpt>
      <trkpt lat="44.52734" lon="5.99368">
        <ele>1046.5999755859</ele>
        <time>2016-05-06T07:02:30Z</time>
      </trkpt>
      <trkpt lat="44.52748" lon="5.99349">
        <ele>1047.1999511719</ele>
        <time>2016-05-06T07:02:35Z</time>
      </trkpt>
      <trkpt lat="44.52752" lon="5.99345">
        <ele>1047.5999755859</ele>
        <time>2016-05-06T07:02:36Z</time>
      </trkpt>
      <trkpt lat="44.52755" lon="5.99341">
        <ele>1048</ele>
        <time>2016-05-06T07:02:37Z</time>
      </trkpt>
      <trkpt lat="44.52758" lon="5.99337">
        <ele>1048.4000244141</ele>
        <time>2016-05-06T07:02:38Z</time>
      </trkpt>
      <trkpt lat="44.52761" lon="5.99333">
        <ele>1048.8000488281</ele>
        <time>2016-05-06T07:02:39Z</time>
      </trkpt>
      <trkpt lat="44.52778" lon="5.99306">
        <ele>1048.8000488281</ele>
        <time>2016-05-06T07:02:45Z</time>
      </trkpt>
      <trkpt lat="44.52798" lon="5.99269">
        <ele>1048.8000488281</ele>
        <time>2016-05-06T07:02:53Z</time>
      </trkpt>
      <trkpt lat="44.52809" lon="5.99252">
        <ele>1049.5999755859</ele>
        <time>2016-05-06T07:02:57Z</time>
      </trkpt>
      <trkpt lat="44.52812" lon="5.99248">
        <ele>1050</ele>
        <time>2016-05-06T07:02:58Z</time>
      </trkpt>
      <trkpt lat="44.52814" lon="5.99243">
        <ele>1050.4000244141</ele>
        <time>2016-05-06T07:02:59Z</time>
      </trkpt>
      <trkpt lat="44.52817" lon="5.99239">
        <ele>1051</ele>
        <time>2016-05-06T07:03:00Z</time>
      </trkpt>
      <trkpt lat="44.52829" lon="5.99222">
        <ele>1051</ele>
        <time>2016-05-06T07:03:04Z</time>
      </trkpt>
      <trkpt lat="44.52854" lon="5.99183">
        <ele>1051</ele>
        <time>2016-05-06T07:03:12Z</time>
      </trkpt>
      <trkpt lat="44.52879" lon="5.99136">
        <ele>1051</ele>
        <time>2016-05-06T07:03:21Z</time>
      </trkpt>
      <trkpt lat="44.52888" lon="5.99105">
        <ele>1051</ele>
        <time>2016-05-06T07:03:26Z</time>
      </trkpt>
      <trkpt lat="44.5289" lon="5.99089">
        <ele>1051</ele>
        <time>2016-05-06T07:03:28Z</time>
      </trkpt>
      <trkpt lat="44.52891" lon="5.9908">
        <ele>1051</ele>
        <time>2016-05-06T07:03:29Z</time>
      </trkpt>
      <trkpt lat="44.52891" lon="5.99069">
        <ele>1051</ele>
        <time>2016-05-06T07:03:30Z</time>
      </trkpt>
      <trkpt lat="44.52891" lon="5.99058">
        <ele>1050.4000244141</ele>
        <time>2016-05-06T07:03:31Z</time>
      </trkpt>
      <trkpt lat="44.52892" lon="5.99047">
        <ele>1050</ele>
        <time>2016-05-06T07:03:32Z</time>
      </trkpt>
      <trkpt lat="44.52895" lon="5.99036">
        <ele>1049.4000244141</ele>
        <time>2016-05-06T07:03:33Z</time>
      </trkpt>
      <trkpt lat="44.52899" lon="5.99025">
        <ele>1049</ele>
        <time>2016-05-06T07:03:34Z</time>
      </trkpt>
      <trkpt lat="44.52904" lon="5.99017">
        <ele>1048.4000244141</ele>
        <time>2016-05-06T07:03:35Z</time>
      </trkpt>
      <trkpt lat="44.52917" lon="5.99011">
        <ele>1048.4000244141</ele>
        <time>2016-05-06T07:03:37Z</time>
      </trkpt>
      <trkpt lat="44.52932" lon="5.99009">
        <ele>1048.4000244141</ele>
        <time>2016-05-06T07:03:39Z</time>
      </trkpt>
      <trkpt lat="44.52938" lon="5.99007">
        <ele>1048</ele>
        <time>2016-05-06T07:03:40Z</time>
      </trkpt>
      <trkpt lat="44.52944" lon="5.99005">
        <ele>1047.5999755859</ele>
        <time>2016-05-06T07:03:41Z</time>
      </trkpt>
      <trkpt lat="44.5295" lon="5.99002">
        <ele>1047.1999511719</ele>
        <time>2016-05-06T07:03:42Z</time>
      </trkpt>
      <trkpt lat="44.52955" lon="5.99">
        <ele>1046.8000488281</ele>
        <time>2016-05-06T07:03:43Z</time>
      </trkpt>
      <trkpt lat="44.5296" lon="5.98997">
        <ele>1046.4000244141</ele>
        <time>2016-05-06T07:03:44Z</time>
      </trkpt>
      <trkpt lat="44.52972" lon="5.9899">
        <ele>1046.4000244141</ele>
        <time>2016-05-06T07:03:47Z</time>
      </trkpt>
      <trkpt lat="44.52989" lon="5.98978">
        <ele>1046.8000488281</ele>
        <time>2016-05-06T07:03:52Z</time>
      </trkpt>
      <trkpt lat="44.52993" lon="5.98975">
        <ele>1047.1999511719</ele>
        <time>2016-05-06T07:03:53Z</time>
      </trkpt>
      <trkpt lat="44.52996" lon="5.98973">
        <ele>1047.5999755859</ele>
        <time>2016-05-06T07:03:54Z</time>
      </trkpt>
      <trkpt lat="44.53002" lon="5.9897">
        <ele>1048</ele>
        <time>2016-05-06T07:03:55Z</time>
      </trkpt>
      <trkpt lat="44.53008" lon="5.98967">
        <ele>1048.4000244141</ele>
        <time>2016-05-06T07:03:56Z</time>
      </trkpt>
      <trkpt lat="44.53025" lon="5.98957">
        <ele>1048.8000488281</ele>
        <time>2016-05-06T07:04:00Z</time>
      </trkpt>
      <trkpt lat="44.53028" lon="5.98954">
        <ele>1049.1999511719</ele>
        <time>2016-05-06T07:04:01Z</time>
      </trkpt>
      <trkpt lat="44.53031" lon="5.98951">
        <ele>1049.5999755859</ele>
        <time>2016-05-06T07:04:02Z</time>
      </trkpt>
      <trkpt lat="44.53033" lon="5.98948">
        <ele>1050</ele>
        <time>2016-05-06T07:04:03Z</time>
      </trkpt>
      <trkpt lat="44.53035" lon="5.98944">
        <ele>1050.4000244141</ele>
        <time>2016-05-06T07:04:04Z</time>
      </trkpt>
      <trkpt lat="44.5304" lon="5.98934">
        <ele>1050.4000244141</ele>
        <time>2016-05-06T07:04:08Z</time>
      </trkpt>
      <trkpt lat="44.53041" lon="5.98932">
        <ele>1051</ele>
        <time>2016-05-06T07:04:09Z</time>
      </trkpt>
      <trkpt lat="44.53043" lon="5.9893">
        <ele>1051.4000244141</ele>
        <time>2016-05-06T07:04:10Z</time>
      </trkpt>
      <trkpt lat="44.53044" lon="5.98928">
        <ele>1051.8000488281</ele>
        <time>2016-05-06T07:04:11Z</time>
      </trkpt>
      <trkpt lat="44.53045" lon="5.98925">
        <ele>1052.1999511719</ele>
        <time>2016-05-06T07:04:12Z</time>
      </trkpt>
      <trkpt lat="44.53046" lon="5.98922">
        <ele>1052.8000488281</ele>
        <time>2016-05-06T07:04:13Z</time>
      </trkpt>
      <trkpt lat="44.53049" lon="5.98917">
        <ele>1052.8000488281</ele>
        <time>2016-05-06T07:04:15Z</time>
      </trkpt>
      <trkpt lat="44.53051" lon="5.98911">
        <ele>1053.1999511719</ele>
        <time>2016-05-06T07:04:17Z</time>
      </trkpt>
      <trkpt lat="44.53053" lon="5.98907">
        <ele>1053.5999755859</ele>
        <time>2016-05-06T07:04:18Z</time>
      </trkpt>
      <trkpt lat="44.53054" lon="5.98904">
        <ele>1054</ele>
        <time>2016-05-06T07:04:19Z</time>
      </trkpt>
      <trkpt lat="44.53056" lon="5.989">
        <ele>1054.4000244141</ele>
        <time>2016-05-06T07:04:20Z</time>
      </trkpt>
      <trkpt lat="44.53057" lon="5.98897">
        <ele>1054.8000488281</ele>
        <time>2016-05-06T07:04:21Z</time>
      </trkpt>
      <trkpt lat="44.53059" lon="5.98895">
        <ele>1054.8000488281</ele>
        <time>2016-05-06T07:04:22Z</time>
      </trkpt>
      <trkpt lat="44.53074" lon="5.98869">
        <ele>1054.8000488281</ele>
        <time>2016-05-06T07:04:29Z</time>
      </trkpt>
      <trkpt lat="44.53077" lon="5.98861">
        <ele>1055.1999511719</ele>
        <time>2016-05-06T07:04:31Z</time>
      </trkpt>
      <trkpt lat="44.5308" lon="5.98857">
        <ele>1055.5999755859</ele>
        <time>2016-05-06T07:04:32Z</time>
      </trkpt>
      <trkpt lat="44.53082" lon="5.98853">
        <ele>1056.1999511719</ele>
        <time>2016-05-06T07:04:33Z</time>
      </trkpt>
      <trkpt lat="44.53084" lon="5.98849">
        <ele>1056.5999755859</ele>
        <time>2016-05-06T07:04:34Z</time>
      </trkpt>
      <trkpt lat="44.53086" lon="5.98846">
        <ele>1057</ele>
        <time>2016-05-06T07:04:35Z</time>
      </trkpt>
      <trkpt lat="44.53088" lon="5.98837">
        <ele>1057</ele>
        <time>2016-05-06T07:04:37Z</time>
      </trkpt>
      <trkpt lat="44.53095" lon="5.9881">
        <ele>1057</ele>
        <time>2016-05-06T07:04:43Z</time>
      </trkpt>
      <trkpt lat="44.53099" lon="5.98772">
        <ele>1057</ele>
        <time>2016-05-06T07:04:50Z</time>
      </trkpt>
      <trkpt lat="44.53102" lon="5.98726">
        <ele>1057</ele>
        <time>2016-05-06T07:04:57Z</time>
      </trkpt>
      <trkpt lat="44.53101" lon="5.98692">
        <ele>1056.5999755859</ele>
        <time>2016-05-06T07:05:01Z</time>
      </trkpt>
      <trkpt lat="44.53101" lon="5.98683">
        <ele>1056</ele>
        <time>2016-05-06T07:05:02Z</time>
      </trkpt>
      <trkpt lat="44.53103" lon="5.98676">
        <ele>1055.5999755859</ele>
        <time>2016-05-06T07:05:03Z</time>
      </trkpt>
      <trkpt lat="44.53104" lon="5.98668">
        <ele>1055.1999511719</ele>
        <time>2016-05-06T07:05:04Z</time>
      </trkpt>
      <trkpt lat="44.53106" lon="5.9866">
        <ele>1054.8000488281</ele>
        <time>2016-05-06T07:05:05Z</time>
      </trkpt>
      <trkpt lat="44.53107" lon="5.98654">
        <ele>1054.8000488281</ele>
        <time>2016-05-06T07:05:06Z</time>
      </trkpt>
      <trkpt lat="44.53114" lon="5.98636">
        <ele>1054.8000488281</ele>
        <time>2016-05-06T07:05:09Z</time>
      </trkpt>
      <trkpt lat="44.5312" lon="5.98627">
        <ele>1054.8000488281</ele>
        <time>2016-05-06T07:05:11Z</time>
      </trkpt>
      <trkpt lat="44.53129" lon="5.98605">
        <ele>1054.8000488281</ele>
        <time>2016-05-06T07:05:16Z</time>
      </trkpt>
      <trkpt lat="44.5313" lon="5.98585">
        <ele>1054.8000488281</ele>
        <time>2016-05-06T07:05:21Z</time>
      </trkpt>
      <trkpt lat="44.5313" lon="5.98568">
        <ele>1055.1999511719</ele>
        <time>2016-05-06T07:05:25Z</time>
      </trkpt>
      <trkpt lat="44.53134" lon="5.98563">
        <ele>1055.8000488281</ele>
        <time>2016-05-06T07:05:26Z</time>
      </trkpt>
      <trkpt lat="44.53136" lon="5.98558">
        <ele>1056.1999511719</ele>
        <time>2016-05-06T07:05:27Z</time>
      </trkpt>
      <trkpt lat="44.53136" lon="5.98553">
        <ele>1056.5999755859</ele>
        <time>2016-05-06T07:05:28Z</time>
      </trkpt>
      <trkpt lat="44.53136" lon="5.9855">
        <ele>1057.1999511719</ele>
        <time>2016-05-06T07:05:29Z</time>
      </trkpt>
      <trkpt lat="44.5314" lon="5.98532">
        <ele>1057.1999511719</ele>
        <time>2016-05-06T07:05:34Z</time>
      </trkpt>
      <trkpt lat="44.53148" lon="5.98517">
        <ele>1057.5999755859</ele>
        <time>2016-05-06T07:05:38Z</time>
      </trkpt>
      <trkpt lat="44.53149" lon="5.98514">
        <ele>1058</ele>
        <time>2016-05-06T07:05:39Z</time>
      </trkpt>
      <trkpt lat="44.5315" lon="5.9851">
        <ele>1058.4000244141</ele>
        <time>2016-05-06T07:05:40Z</time>
      </trkpt>
      <trkpt lat="44.53151" lon="5.98506">
        <ele>1059</ele>
        <time>2016-05-06T07:05:41Z</time>
      </trkpt>
      <trkpt lat="44.53152" lon="5.98503">
        <ele>1059.4000244141</ele>
        <time>2016-05-06T07:05:42Z</time>
      </trkpt>
      <trkpt lat="44.53156" lon="5.98488">
        <ele>1059.8000488281</ele>
        <time>2016-05-06T07:05:47Z</time>
      </trkpt>
      <trkpt lat="44.53157" lon="5.98485">
        <ele>1060.1999511719</ele>
        <time>2016-05-06T07:05:48Z</time>
      </trkpt>
      <trkpt lat="44.53158" lon="5.98482">
        <ele>1060.5999755859</ele>
        <time>2016-05-06T07:05:49Z</time>
      </trkpt>
      <trkpt lat="44.53159" lon="5.98478">
        <ele>1061</ele>
        <time>2016-05-06T07:05:50Z</time>
      </trkpt>
      <trkpt lat="44.53159" lon="5.98475">
        <ele>1061.4000244141</ele>
        <time>2016-05-06T07:05:51Z</time>
      </trkpt>
      <trkpt lat="44.53161" lon="5.98463">
        <ele>1061.4000244141</ele>
        <time>2016-05-06T07:05:55Z</time>
      </trkpt>
      <trkpt lat="44.53165" lon="5.98447">
        <ele>1061.8000488281</ele>
        <time>2016-05-06T07:06:00Z</time>
      </trkpt>
      <trkpt lat="44.53167" lon="5.98443">
        <ele>1062.1999511719</ele>
        <time>2016-05-06T07:06:01Z</time>
      </trkpt>
      <trkpt lat="44.53168" lon="5.98441">
        <ele>1062.5999755859</ele>
        <time>2016-05-06T07:06:02Z</time>
      </trkpt>
      <trkpt lat="44.53169" lon="5.98439">
        <ele>1063.1999511719</ele>
        <time>2016-05-06T07:06:03Z</time>
      </trkpt>
      <trkpt lat="44.5317" lon="5.98436">
        <ele>1063.5999755859</ele>
        <time>2016-05-06T07:06:04Z</time>
      </trkpt>
      <trkpt lat="44.53178" lon="5.98423">
        <ele>1064</ele>
        <time>2016-05-06T07:06:09Z</time>
      </trkpt>
      <trkpt lat="44.5318" lon="5.9842">
        <ele>1064.4000244141</ele>
        <time>2016-05-06T07:06:10Z</time>
      </trkpt>
      <trkpt lat="44.53181" lon="5.98416">
        <ele>1064.8000488281</ele>
        <time>2016-05-06T07:06:11Z</time>
      </trkpt>
      <trkpt lat="44.53182" lon="5.98413">
        <ele>1065.1999511719</ele>
        <time>2016-05-06T07:06:12Z</time>
      </trkpt>
      <trkpt lat="44.53183" lon="5.9841">
        <ele>1065.5999755859</ele>
        <time>2016-05-06T07:06:13Z</time>
      </trkpt>
      <trkpt lat="44.53187" lon="5.98403">
        <ele>1065.5999755859</ele>
        <time>2016-05-06T07:06:16Z</time>
      </trkpt>
      <trkpt lat="44.53193" lon="5.98379">
        <ele>1065.5999755859</ele>
        <time>2016-05-06T07:06:23Z</time>
      </trkpt>
      <trkpt lat="44.53196" lon="5.98361">
        <ele>1066</ele>
        <time>2016-05-06T07:06:27Z</time>
      </trkpt>
      <trkpt lat="44.53197" lon="5.98355">
        <ele>1066.4000244141</ele>
        <time>2016-05-06T07:06:28Z</time>
      </trkpt>
      <trkpt lat="44.53196" lon="5.9835">
        <ele>1066.8000488281</ele>
        <time>2016-05-06T07:06:29Z</time>
      </trkpt>
      <trkpt lat="44.53196" lon="5.98345">
        <ele>1067.1999511719</ele>
        <time>2016-05-06T07:06:30Z</time>
      </trkpt>
      <trkpt lat="44.53196" lon="5.98341">
        <ele>1067.5999755859</ele>
        <time>2016-05-06T07:06:31Z</time>
      </trkpt>
      <trkpt lat="44.53191" lon="5.9831">
        <ele>1067.5999755859</ele>
        <time>2016-05-06T07:06:37Z</time>
      </trkpt>
      <trkpt lat="44.5319" lon="5.98282">
        <ele>1067.5999755859</ele>
        <time>2016-05-06T07:06:41Z</time>
      </trkpt>
      <trkpt lat="44.53191" lon="5.98276">
        <ele>1067.5999755859</ele>
        <time>2016-05-06T07:06:42Z</time>
      </trkpt>
      <trkpt lat="44.53196" lon="5.98223">
        <ele>1067.5999755859</ele>
        <time>2016-05-06T07:06:49Z</time>
      </trkpt>
      <trkpt lat="44.53197" lon="5.98185">
        <ele>1067.5999755859</ele>
        <time>2016-05-06T07:06:55Z</time>
      </trkpt>
      <trkpt lat="44.53189" lon="5.98151">
        <ele>1067.5999755859</ele>
        <time>2016-05-06T07:07:02Z</time>
      </trkpt>
      <trkpt lat="44.53177" lon="5.98123">
        <ele>1067.5999755859</ele>
        <time>2016-05-06T07:07:10Z</time>
      </trkpt>
      <trkpt lat="44.53168" lon="5.98117">
        <ele>1068.1999511719</ele>
        <time>2016-05-06T07:07:13Z</time>
      </trkpt>
      <trkpt lat="44.53165" lon="5.98114">
        <ele>1068.5999755859</ele>
        <time>2016-05-06T07:07:14Z</time>
      </trkpt>
      <trkpt lat="44.53164" lon="5.9811">
        <ele>1069.1999511719</ele>
        <time>2016-05-06T07:07:15Z</time>
      </trkpt>
      <trkpt lat="44.53161" lon="5.98107">
        <ele>1069.5999755859</ele>
        <time>2016-05-06T07:07:16Z</time>
      </trkpt>
      <trkpt lat="44.53159" lon="5.98103">
        <ele>1070</ele>
        <time>2016-05-06T07:07:17Z</time>
      </trkpt>
      <trkpt lat="44.5315" lon="5.98085">
        <ele>1070</ele>
        <time>2016-05-06T07:07:22Z</time>
      </trkpt>
      <trkpt lat="44.5314" lon="5.98063">
        <ele>1070.4000244141</ele>
        <time>2016-05-06T07:07:28Z</time>
      </trkpt>
      <trkpt lat="44.53138" lon="5.98061">
        <ele>1070.8000488281</ele>
        <time>2016-05-06T07:07:29Z</time>
      </trkpt>
      <trkpt lat="44.53135" lon="5.98059">
        <ele>1071.1999511719</ele>
        <time>2016-05-06T07:07:30Z</time>
      </trkpt>
      <trkpt lat="44.53133" lon="5.98058">
        <ele>1071.5999755859</ele>
        <time>2016-05-06T07:07:31Z</time>
      </trkpt>
      <trkpt lat="44.53131" lon="5.98058">
        <ele>1072</ele>
        <time>2016-05-06T07:07:32Z</time>
      </trkpt>
      <trkpt lat="44.53129" lon="5.98057">
        <ele>1072</ele>
        <time>2016-05-06T07:07:33Z</time>
      </trkpt>
      <trkpt lat="44.53119" lon="5.98054">
        <ele>1072</ele>
        <time>2016-05-06T07:07:38Z</time>
      </trkpt>
      <trkpt lat="44.5311" lon="5.98045">
        <ele>1072.4000244141</ele>
        <time>2016-05-06T07:07:44Z</time>
      </trkpt>
      <trkpt lat="44.53109" lon="5.98042">
        <ele>1073</ele>
        <time>2016-05-06T07:07:45Z</time>
      </trkpt>
      <trkpt lat="44.53109" lon="5.9804">
        <ele>1073.4000244141</ele>
        <time>2016-05-06T07:07:46Z</time>
      </trkpt>
      <trkpt lat="44.53109" lon="5.98038">
        <ele>1073.8000488281</ele>
        <time>2016-05-06T07:07:47Z</time>
      </trkpt>
      <trkpt lat="44.53108" lon="5.98036">
        <ele>1074.1999511719</ele>
        <time>2016-05-06T07:07:48Z</time>
      </trkpt>
      <trkpt lat="44.53103" lon="5.98029">
        <ele>1074.5999755859</ele>
        <time>2016-05-06T07:07:52Z</time>
      </trkpt>
      <trkpt lat="44.53102" lon="5.98028">
        <ele>1075</ele>
        <time>2016-05-06T07:07:53Z</time>
      </trkpt>
      <trkpt lat="44.53101" lon="5.98026">
        <ele>1075.4000244141</ele>
        <time>2016-05-06T07:07:54Z</time>
      </trkpt>
      <trkpt lat="44.53099" lon="5.98024">
        <ele>1075.8000488281</ele>
        <time>2016-05-06T07:07:55Z</time>
      </trkpt>
      <trkpt lat="44.53098" lon="5.98024">
        <ele>1076.1999511719</ele>
        <time>2016-05-06T07:07:56Z</time>
      </trkpt>
      <trkpt lat="44.5309" lon="5.98025">
        <ele>1076.5999755859</ele>
        <time>2016-05-06T07:08:01Z</time>
      </trkpt>
      <trkpt lat="44.53089" lon="5.98026">
        <ele>1077</ele>
        <time>2016-05-06T07:08:02Z</time>
      </trkpt>
      <trkpt lat="44.53087" lon="5.98027">
        <ele>1077.4000244141</ele>
        <time>2016-05-06T07:08:03Z</time>
      </trkpt>
      <trkpt lat="44.53086" lon="5.98028">
        <ele>1077.8000488281</ele>
        <time>2016-05-06T07:08:04Z</time>
      </trkpt>
      <trkpt lat="44.53085" lon="5.98029">
        <ele>1078.4000244141</ele>
        <time>2016-05-06T07:08:05Z</time>
      </trkpt>
      <trkpt lat="44.53079" lon="5.98033">
        <ele>1078.8000488281</ele>
        <time>2016-05-06T07:08:09Z</time>
      </trkpt>
      <trkpt lat="44.53078" lon="5.98034">
        <ele>1079.1999511719</ele>
        <time>2016-05-06T07:08:10Z</time>
      </trkpt>
      <trkpt lat="44.53077" lon="5.98036">
        <ele>1079.5999755859</ele>
        <time>2016-05-06T07:08:11Z</time>
      </trkpt>
      <trkpt lat="44.53075" lon="5.98037">
        <ele>1080.1999511719</ele>
        <time>2016-05-06T07:08:12Z</time>
      </trkpt>
      <trkpt lat="44.53074" lon="5.98039">
        <ele>1080.5999755859</ele>
        <time>2016-05-06T07:08:13Z</time>
      </trkpt>
      <trkpt lat="44.53066" lon="5.98044">
        <ele>1081</ele>
        <time>2016-05-06T07:08:19Z</time>
      </trkpt>
      <trkpt lat="44.53065" lon="5.98046">
        <ele>1081.4000244141</ele>
        <time>2016-05-06T07:08:20Z</time>
      </trkpt>
      <trkpt lat="44.53062" lon="5.98049">
        <ele>1082.1999511719</ele>
        <time>2016-05-06T07:08:22Z</time>
      </trkpt>
      <trkpt lat="44.53061" lon="5.9805">
        <ele>1082.5999755859</ele>
        <time>2016-05-06T07:08:23Z</time>
      </trkpt>
      <trkpt lat="44.53054" lon="5.98045">
        <ele>1083</ele>
        <time>2016-05-06T07:08:29Z</time>
      </trkpt>
      <trkpt lat="44.53054" lon="5.98044">
        <ele>1083.4000244141</ele>
        <time>2016-05-06T07:08:30Z</time>
      </trkpt>
      <trkpt lat="44.53053" lon="5.98042">
        <ele>1083.8000488281</ele>
        <time>2016-05-06T07:08:31Z</time>
      </trkpt>
      <trkpt lat="44.53052" lon="5.98039">
        <ele>1084.1999511719</ele>
        <time>2016-05-06T07:08:32Z</time>
      </trkpt>
      <trkpt lat="44.53053" lon="5.98036">
        <ele>1084.5999755859</ele>
        <time>2016-05-06T07:08:33Z</time>
      </trkpt>
      <trkpt lat="44.53053" lon="5.98034">
        <ele>1084.5999755859</ele>
        <time>2016-05-06T07:08:34Z</time>
      </trkpt>
      <trkpt lat="44.53052" lon="5.98029">
        <ele>1085.1999511719</ele>
        <time>2016-05-06T07:08:37Z</time>
      </trkpt>
      <trkpt lat="44.53052" lon="5.98028">
        <ele>1085.5999755859</ele>
        <time>2016-05-06T07:08:38Z</time>
      </trkpt>
      <trkpt lat="44.53052" lon="5.98026">
        <ele>1086</ele>
        <time>2016-05-06T07:08:39Z</time>
      </trkpt>
      <trkpt lat="44.53051" lon="5.98025">
        <ele>1086.5999755859</ele>
        <time>2016-05-06T07:08:40Z</time>
      </trkpt>
      <trkpt lat="44.53051" lon="5.98023">
        <ele>1087</ele>
        <time>2016-05-06T07:08:41Z</time>
      </trkpt>
      <trkpt lat="44.53049" lon="5.98021">
        <ele>1087</ele>
        <time>2016-05-06T07:08:43Z</time>
      </trkpt>
      <trkpt lat="44.53045" lon="5.98017">
        <ele>1087.4000244141</ele>
        <time>2016-05-06T07:08:48Z</time>
      </trkpt>
      <trkpt lat="44.53045" lon="5.98015">
        <ele>1088</ele>
        <time>2016-05-06T07:08:49Z</time>
      </trkpt>
      <trkpt lat="44.53044" lon="5.98014">
        <ele>1088.4000244141</ele>
        <time>2016-05-06T07:08:50Z</time>
      </trkpt>
      <trkpt lat="44.53043" lon="5.98013">
        <ele>1088.8000488281</ele>
        <time>2016-05-06T07:08:51Z</time>
      </trkpt>
      <trkpt lat="44.53043" lon="5.98012">
        <ele>1089.1999511719</ele>
        <time>2016-05-06T07:08:52Z</time>
      </trkpt>
      <trkpt lat="44.53038" lon="5.98011">
        <ele>1089.5999755859</ele>
        <time>2016-05-06T07:08:58Z</time>
      </trkpt>
      <trkpt lat="44.53037" lon="5.98011">
        <ele>1090</ele>
        <time>2016-05-06T07:08:59Z</time>
      </trkpt>
      <trkpt lat="44.53036" lon="5.98012">
        <ele>1090.4000244141</ele>
        <time>2016-05-06T07:09:00Z</time>
      </trkpt>
      <trkpt lat="44.53035" lon="5.98012">
        <ele>1091</ele>
        <time>2016-05-06T07:09:01Z</time>
      </trkpt>
      <trkpt lat="44.53035" lon="5.98012">
        <ele>1091.4000244141</ele>
        <time>2016-05-06T07:09:02Z</time>
      </trkpt>
      <trkpt lat="44.53033" lon="5.98013">
        <ele>1091.4000244141</ele>
        <time>2016-05-06T07:09:04Z</time>
      </trkpt>
      <trkpt lat="44.53027" lon="5.98015">
        <ele>1091.8000488281</ele>
        <time>2016-05-06T07:09:10Z</time>
      </trkpt>
      <trkpt lat="44.53025" lon="5.98015">
        <ele>1092.1999511719</ele>
        <time>2016-05-06T07:09:11Z</time>
      </trkpt>
      <trkpt lat="44.53024" lon="5.98016">
        <ele>1092.5999755859</ele>
        <time>2016-05-06T07:09:12Z</time>
      </trkpt>
      <trkpt lat="44.53023" lon="5.98016">
        <ele>1093</ele>
        <time>2016-05-06T07:09:13Z</time>
      </trkpt>
      <trkpt lat="44.53022" lon="5.98017">
        <ele>1093.4000244141</ele>
        <time>2016-05-06T07:09:14Z</time>
      </trkpt>
      <trkpt lat="44.53016" lon="5.9802">
        <ele>1093.8000488281</ele>
        <time>2016-05-06T07:09:20Z</time>
      </trkpt>
      <trkpt lat="44.53015" lon="5.98021">
        <ele>1094.4000244141</ele>
        <time>2016-05-06T07:09:21Z</time>
      </trkpt>
      <trkpt lat="44.53014" lon="5.98021">
        <ele>1094.8000488281</ele>
        <time>2016-05-06T07:09:22Z</time>
      </trkpt>
      <trkpt lat="44.53013" lon="5.98022">
        <ele>1095.1999511719</ele>
        <time>2016-05-06T07:09:23Z</time>
      </trkpt>
      <trkpt lat="44.53012" lon="5.98022">
        <ele>1095.5999755859</ele>
        <time>2016-05-06T07:09:24Z</time>
      </trkpt>
      <trkpt lat="44.5301" lon="5.98023">
        <ele>1096</ele>
        <time>2016-05-06T07:09:26Z</time>
      </trkpt>
      <trkpt lat="44.53009" lon="5.98024">
        <ele>1096.4000244141</ele>
        <time>2016-05-06T07:09:27Z</time>
      </trkpt>
      <trkpt lat="44.53008" lon="5.98024">
        <ele>1096.8000488281</ele>
        <time>2016-05-06T07:09:28Z</time>
      </trkpt>
      <trkpt lat="44.53007" lon="5.98024">
        <ele>1097.1999511719</ele>
        <time>2016-05-06T07:09:29Z</time>
      </trkpt>
      <trkpt lat="44.53006" lon="5.98024">
        <ele>1097.8000488281</ele>
        <time>2016-05-06T07:09:30Z</time>
      </trkpt>
      <trkpt lat="44.52998" lon="5.98027">
        <ele>1098.1999511719</ele>
        <time>2016-05-06T07:09:37Z</time>
      </trkpt>
      <trkpt lat="44.52997" lon="5.98027">
        <ele>1098.5999755859</ele>
        <time>2016-05-06T07:09:38Z</time>
      </trkpt>
      <trkpt lat="44.52996" lon="5.98027">
        <ele>1099</ele>
        <time>2016-05-06T07:09:39Z</time>
      </trkpt>
      <trkpt lat="44.52995" lon="5.98027">
        <ele>1099.4000244141</ele>
        <time>2016-05-06T07:09:40Z</time>
      </trkpt>
      <trkpt lat="44.52993" lon="5.98028">
        <ele>1100</ele>
        <time>2016-05-06T07:09:42Z</time>
      </trkpt>
      <trkpt lat="44.52992" lon="5.98028">
        <ele>1100</ele>
        <time>2016-05-06T07:09:43Z</time>
      </trkpt>
      <trkpt lat="44.52987" lon="5.98029">
        <ele>1100</ele>
        <time>2016-05-06T07:09:47Z</time>
      </trkpt>
      <trkpt lat="44.52984" lon="5.9803">
        <ele>1100.4000244141</ele>
        <time>2016-05-06T07:09:49Z</time>
      </trkpt>
      <trkpt lat="44.52983" lon="5.9803">
        <ele>1100.8000488281</ele>
        <time>2016-05-06T07:09:50Z</time>
      </trkpt>
      <trkpt lat="44.52982" lon="5.98031">
        <ele>1101.1999511719</ele>
        <time>2016-05-06T07:09:51Z</time>
      </trkpt>
      <trkpt lat="44.52982" lon="5.98032">
        <ele>1101.5999755859</ele>
        <time>2016-05-06T07:09:52Z</time>
      </trkpt>
      <trkpt lat="44.52981" lon="5.98032">
        <ele>1102</ele>
        <time>2016-05-06T07:09:53Z</time>
      </trkpt>
      <trkpt lat="44.52977" lon="5.98034">
        <ele>1102</ele>
        <time>2016-05-06T07:09:57Z</time>
      </trkpt>
      <trkpt lat="44.52971" lon="5.98036">
        <ele>1102.4000244141</ele>
        <time>2016-05-06T07:10:03Z</time>
      </trkpt>
      <trkpt lat="44.52969" lon="5.98036">
        <ele>1103</ele>
        <time>2016-05-06T07:10:04Z</time>
      </trkpt>
      <trkpt lat="44.52968" lon="5.98037">
        <ele>1103.4000244141</ele>
        <time>2016-05-06T07:10:05Z</time>
      </trkpt>
      <trkpt lat="44.52966" lon="5.98037">
        <ele>1103.8000488281</ele>
        <time>2016-05-06T07:10:06Z</time>
      </trkpt>
      <trkpt lat="44.52965" lon="5.98038">
        <ele>1104.1999511719</ele>
        <time>2016-05-06T07:10:07Z</time>
      </trkpt>
      <trkpt lat="44.52963" lon="5.98039">
        <ele>1104.1999511719</ele>
        <time>2016-05-06T07:10:08Z</time>
      </trkpt>
      <trkpt lat="44.52952" lon="5.98043">
        <ele>1104.1999511719</ele>
        <time>2016-05-06T07:10:16Z</time>
      </trkpt>
      <trkpt lat="44.52947" lon="5.98042">
        <ele>1104.5999755859</ele>
        <time>2016-05-06T07:10:19Z</time>
      </trkpt>
      <trkpt lat="44.52945" lon="5.98043">
        <ele>1105</ele>
        <time>2016-05-06T07:10:20Z</time>
      </trkpt>
      <trkpt lat="44.52944" lon="5.98043">
        <ele>1105.4000244141</ele>
        <time>2016-05-06T07:10:21Z</time>
      </trkpt>
      <trkpt lat="44.52943" lon="5.98043">
        <ele>1106</ele>
        <time>2016-05-06T07:10:22Z</time>
      </trkpt>
      <trkpt lat="44.52941" lon="5.98043">
        <ele>1106.4000244141</ele>
        <time>2016-05-06T07:10:23Z</time>
      </trkpt>
      <trkpt lat="44.52936" lon="5.98041">
        <ele>1106.4000244141</ele>
        <time>2016-05-06T07:10:26Z</time>
      </trkpt>
      <trkpt lat="44.52932" lon="5.98029">
        <ele>1106.8000488281</ele>
        <time>2016-05-06T07:10:33Z</time>
      </trkpt>
      <trkpt lat="44.52932" lon="5.98029">
        <ele>1107.1999511719</ele>
        <time>2016-05-06T07:10:34Z</time>
      </trkpt>
      <trkpt lat="44.52932" lon="5.98027">
        <ele>1107.5999755859</ele>
        <time>2016-05-06T07:10:35Z</time>
      </trkpt>
      <trkpt lat="44.52932" lon="5.98026">
        <ele>1108.1999511719</ele>
        <time>2016-05-06T07:10:36Z</time>
      </trkpt>
      <trkpt lat="44.52932" lon="5.98025">
        <ele>1108.5999755859</ele>
        <time>2016-05-06T07:10:37Z</time>
      </trkpt>
      <trkpt lat="44.52931" lon="5.9802">
        <ele>1108.5999755859</ele>
        <time>2016-05-06T07:10:40Z</time>
      </trkpt>
      <trkpt lat="44.52927" lon="5.98008">
        <ele>1109</ele>
        <time>2016-05-06T07:10:47Z</time>
      </trkpt>
      <trkpt lat="44.52926" lon="5.98006">
        <ele>1109.4000244141</ele>
        <time>2016-05-06T07:10:48Z</time>
      </trkpt>
      <trkpt lat="44.52927" lon="5.98004">
        <ele>1109.8000488281</ele>
        <time>2016-05-06T07:10:49Z</time>
      </trkpt>
      <trkpt lat="44.52927" lon="5.98003">
        <ele>1110.1999511719</ele>
        <time>2016-05-06T07:10:50Z</time>
      </trkpt>
      <trkpt lat="44.52927" lon="5.98002">
        <ele>1110.8000488281</ele>
        <time>2016-05-06T07:10:51Z</time>
      </trkpt>
      <trkpt lat="44.52923" lon="5.97995">
        <ele>1110.8000488281</ele>
        <time>2016-05-06T07:10:56Z</time>
      </trkpt>
      <trkpt lat="44.5292" lon="5.97988">
        <ele>1111.1999511719</ele>
        <time>2016-05-06T07:11:00Z</time>
      </trkpt>
      <trkpt lat="44.52919" lon="5.97985">
        <ele>1111.5999755859</ele>
        <time>2016-05-06T07:11:01Z</time>
      </trkpt>
      <trkpt lat="44.52918" lon="5.97983">
        <ele>1112</ele>
        <time>2016-05-06T07:11:02Z</time>
      </trkpt>
      <trkpt lat="44.52916" lon="5.97982">
        <ele>1112.4000244141</ele>
        <time>2016-05-06T07:11:03Z</time>
      </trkpt>
      <trkpt lat="44.52914" lon="5.9798">
        <ele>1113</ele>
        <time>2016-05-06T07:11:04Z</time>
      </trkpt>
      <trkpt lat="44.529" lon="5.97968">
        <ele>1113</ele>
        <time>2016-05-06T07:11:11Z</time>
      </trkpt>
      <trkpt lat="44.52888" lon="5.97959">
        <ele>1113</ele>
        <time>2016-05-06T07:11:18Z</time>
      </trkpt>
      <trkpt lat="44.52874" lon="5.9795">
        <ele>1113.4000244141</ele>
        <time>2016-05-06T07:11:26Z</time>
      </trkpt>
      <trkpt lat="44.52872" lon="5.97949">
        <ele>1113.8000488281</ele>
        <time>2016-05-06T07:11:27Z</time>
      </trkpt>
      <trkpt lat="44.52871" lon="5.97948">
        <ele>1114.1999511719</ele>
        <time>2016-05-06T07:11:28Z</time>
      </trkpt>
      <trkpt lat="44.52869" lon="5.97947">
        <ele>1114.5999755859</ele>
        <time>2016-05-06T07:11:29Z</time>
      </trkpt>
      <trkpt lat="44.52868" lon="5.97946">
        <ele>1115</ele>
        <time>2016-05-06T07:11:30Z</time>
      </trkpt>
      <trkpt lat="44.52863" lon="5.97941">
        <ele>1115</ele>
        <time>2016-05-06T07:11:34Z</time>
      </trkpt>
      <trkpt lat="44.5286" lon="5.97938">
        <ele>1115.4000244141</ele>
        <time>2016-05-06T07:11:36Z</time>
      </trkpt>
      <trkpt lat="44.52859" lon="5.97937">
        <ele>1115.8000488281</ele>
        <time>2016-05-06T07:11:37Z</time>
      </trkpt>
      <trkpt lat="44.52856" lon="5.97936">
        <ele>1116.1999511719</ele>
        <time>2016-05-06T07:11:38Z</time>
      </trkpt>
      <trkpt lat="44.52853" lon="5.97934">
        <ele>1116.5999755859</ele>
        <time>2016-05-06T07:11:39Z</time>
      </trkpt>
      <trkpt lat="44.5285" lon="5.97934">
        <ele>1117.1999511719</ele>
        <time>2016-05-06T07:11:40Z</time>
      </trkpt>
      <trkpt lat="44.52848" lon="5.97932">
        <ele>1117.1999511719</ele>
        <time>2016-05-06T07:11:43Z</time>
      </trkpt>
      <trkpt lat="44.52843" lon="5.97931">
        <ele>1117.5999755859</ele>
        <time>2016-05-06T07:11:46Z</time>
      </trkpt>
      <trkpt lat="44.52842" lon="5.97931">
        <ele>1118</ele>
        <time>2016-05-06T07:11:47Z</time>
      </trkpt>
      <trkpt lat="44.5284" lon="5.97931">
        <ele>1118.5999755859</ele>
        <time>2016-05-06T07:11:48Z</time>
      </trkpt>
      <trkpt lat="44.52839" lon="5.9793">
        <ele>1119</ele>
        <time>2016-05-06T07:11:49Z</time>
      </trkpt>
      <trkpt lat="44.52839" lon="5.9793">
        <ele>1119.4000244141</ele>
        <time>2016-05-06T07:11:50Z</time>
      </trkpt>
      <trkpt lat="44.52835" lon="5.97927">
        <ele>1120</ele>
        <time>2016-05-06T07:11:54Z</time>
      </trkpt>
      <trkpt lat="44.52835" lon="5.97926">
        <ele>1120.4000244141</ele>
        <time>2016-05-06T07:11:55Z</time>
      </trkpt>
      <trkpt lat="44.52834" lon="5.97926">
        <ele>1120.8000488281</ele>
        <time>2016-05-06T07:11:56Z</time>
      </trkpt>
      <trkpt lat="44.52834" lon="5.97925">
        <ele>1121.1999511719</ele>
        <time>2016-05-06T07:11:57Z</time>
      </trkpt>
      <trkpt lat="44.52834" lon="5.97924">
        <ele>1121.8000488281</ele>
        <time>2016-05-06T07:11:58Z</time>
      </trkpt>
      <trkpt lat="44.52829" lon="5.97921">
        <ele>1122.1999511719</ele>
        <time>2016-05-06T07:12:02Z</time>
      </trkpt>
      <trkpt lat="44.52829" lon="5.97921">
        <ele>1122.5999755859</ele>
        <time>2016-05-06T07:12:03Z</time>
      </trkpt>
      <trkpt lat="44.52827" lon="5.9792">
        <ele>1123.1999511719</ele>
        <time>2016-05-06T07:12:04Z</time>
      </trkpt>
      <trkpt lat="44.52826" lon="5.97918">
        <ele>1123.5999755859</ele>
        <time>2016-05-06T07:12:05Z</time>
      </trkpt>
      <trkpt lat="44.52825" lon="5.97918">
        <ele>1124.1999511719</ele>
        <time>2016-05-06T07:12:06Z</time>
      </trkpt>
      <trkpt lat="44.52816" lon="5.97917">
        <ele>1124.1999511719</ele>
        <time>2016-05-06T07:12:11Z</time>
      </trkpt>
      <trkpt lat="44.52814" lon="5.97917">
        <ele>1124.5999755859</ele>
        <time>2016-05-06T07:12:12Z</time>
      </trkpt>
      <trkpt lat="44.52813" lon="5.97917">
        <ele>1125</ele>
        <time>2016-05-06T07:12:13Z</time>
      </trkpt>
      <trkpt lat="44.52811" lon="5.97917">
        <ele>1125.4000244141</ele>
        <time>2016-05-06T07:12:14Z</time>
      </trkpt>
      <trkpt lat="44.5281" lon="5.97917">
        <ele>1125.8000488281</ele>
        <time>2016-05-06T07:12:15Z</time>
      </trkpt>
      <trkpt lat="44.52808" lon="5.97917">
        <ele>1126.1999511719</ele>
        <time>2016-05-06T07:12:16Z</time>
      </trkpt>
      <trkpt lat="44.52804" lon="5.97918">
        <ele>1126.1999511719</ele>
        <time>2016-05-06T07:12:19Z</time>
      </trkpt>
      <trkpt lat="44.52803" lon="5.97919">
        <ele>1126.1999511719</ele>
        <time>2016-05-06T07:12:20Z</time>
      </trkpt>
      <trkpt lat="44.52793" lon="5.97918">
        <ele>1126.5999755859</ele>
        <time>2016-05-06T07:12:26Z</time>
      </trkpt>
      <trkpt lat="44.52792" lon="5.97918">
        <ele>1127.1999511719</ele>
        <time>2016-05-06T07:12:27Z</time>
      </trkpt>
      <trkpt lat="44.5279" lon="5.97918">
        <ele>1127.5999755859</ele>
        <time>2016-05-06T07:12:28Z</time>
      </trkpt>
      <trkpt lat="44.52789" lon="5.97919">
        <ele>1128</ele>
        <time>2016-05-06T07:12:29Z</time>
      </trkpt>
      <trkpt lat="44.52787" lon="5.97919">
        <ele>1128.4000244141</ele>
        <time>2016-05-06T07:12:30Z</time>
      </trkpt>
      <trkpt lat="44.52776" lon="5.9792">
        <ele>1128.4000244141</ele>
        <time>2016-05-06T07:12:38Z</time>
      </trkpt>
      <trkpt lat="44.52774" lon="5.97918">
        <ele>1128.8000488281</ele>
        <time>2016-05-06T07:12:40Z</time>
      </trkpt>
      <trkpt lat="44.52773" lon="5.97917">
        <ele>1129.1999511719</ele>
        <time>2016-05-06T07:12:41Z</time>
      </trkpt>
      <trkpt lat="44.52772" lon="5.97916">
        <ele>1129.8000488281</ele>
        <time>2016-05-06T07:12:42Z</time>
      </trkpt>
      <trkpt lat="44.52771" lon="5.97914">
        <ele>1130.1999511719</ele>
        <time>2016-05-06T07:12:43Z</time>
      </trkpt>
      <trkpt lat="44.52771" lon="5.97912">
        <ele>1130.5999755859</ele>
        <time>2016-05-06T07:12:44Z</time>
      </trkpt>
      <trkpt lat="44.52771" lon="5.97908">
        <ele>1130.5999755859</ele>
        <time>2016-05-06T07:12:46Z</time>
      </trkpt>
      <trkpt lat="44.52772" lon="5.97905">
        <ele>1130.5999755859</ele>
        <time>2016-05-06T07:12:48Z</time>
      </trkpt>
      <trkpt lat="44.52773" lon="5.979">
        <ele>1131</ele>
        <time>2016-05-06T07:12:51Z</time>
      </trkpt>
      <trkpt lat="44.52773" lon="5.97898">
        <ele>1131.4000244141</ele>
        <time>2016-05-06T07:12:52Z</time>
      </trkpt>
      <trkpt lat="44.52773" lon="5.97896">
        <ele>1132</ele>
        <time>2016-05-06T07:12:53Z</time>
      </trkpt>
      <trkpt lat="44.52773" lon="5.97895">
        <ele>1132.4000244141</ele>
        <time>2016-05-06T07:12:54Z</time>
      </trkpt>
      <trkpt lat="44.52772" lon="5.97894">
        <ele>1132.8000488281</ele>
        <time>2016-05-06T07:12:55Z</time>
      </trkpt>
      <trkpt lat="44.5277" lon="5.97888">
        <ele>1133.4000244141</ele>
        <time>2016-05-06T07:12:59Z</time>
      </trkpt>
      <trkpt lat="44.52769" lon="5.97886">
        <ele>1133.8000488281</ele>
        <time>2016-05-06T07:13:00Z</time>
      </trkpt>
      <trkpt lat="44.52768" lon="5.97885">
        <ele>1134.1999511719</ele>
        <time>2016-05-06T07:13:01Z</time>
      </trkpt>
      <trkpt lat="44.52767" lon="5.97884">
        <ele>1134.5999755859</ele>
        <time>2016-05-06T07:13:02Z</time>
      </trkpt>
      <trkpt lat="44.52766" lon="5.97883">
        <ele>1135</ele>
        <time>2016-05-06T07:13:03Z</time>
      </trkpt>
      <trkpt lat="44.52761" lon="5.97878">
        <ele>1135</ele>
        <time>2016-05-06T07:13:09Z</time>
      </trkpt>
      <trkpt lat="44.52759" lon="5.97875">
        <ele>1135.5999755859</ele>
        <time>2016-05-06T07:13:11Z</time>
      </trkpt>
      <trkpt lat="44.52758" lon="5.97874">
        <ele>1136</ele>
        <time>2016-05-06T07:13:12Z</time>
      </trkpt>
      <trkpt lat="44.52757" lon="5.97873">
        <ele>1136.4000244141</ele>
        <time>2016-05-06T07:13:13Z</time>
      </trkpt>
      <trkpt lat="44.52756" lon="5.97871">
        <ele>1136.8000488281</ele>
        <time>2016-05-06T07:13:14Z</time>
      </trkpt>
      <trkpt lat="44.52754" lon="5.9787">
        <ele>1137.1999511719</ele>
        <time>2016-05-06T07:13:15Z</time>
      </trkpt>
      <trkpt lat="44.52752" lon="5.97868">
        <ele>1137.1999511719</ele>
        <time>2016-05-06T07:13:18Z</time>
      </trkpt>
      <trkpt lat="44.52749" lon="5.97864">
        <ele>1137.5999755859</ele>
        <time>2016-05-06T07:13:21Z</time>
      </trkpt>
      <trkpt lat="44.52748" lon="5.97864">
        <ele>1138.1999511719</ele>
        <time>2016-05-06T07:13:22Z</time>
      </trkpt>
      <trkpt lat="44.52748" lon="5.97862">
        <ele>1138.5999755859</ele>
        <time>2016-05-06T07:13:23Z</time>
      </trkpt>
      <trkpt lat="44.52747" lon="5.97861">
        <ele>1139</ele>
        <time>2016-05-06T07:13:24Z</time>
      </trkpt>
      <trkpt lat="44.52746" lon="5.97861">
        <ele>1139.4000244141</ele>
        <time>2016-05-06T07:13:25Z</time>
      </trkpt>
      <trkpt lat="44.52743" lon="5.97858">
        <ele>1139.4000244141</ele>
        <time>2016-05-06T07:13:28Z</time>
      </trkpt>
      <trkpt lat="44.52737" lon="5.97854">
        <ele>1139.4000244141</ele>
        <time>2016-05-06T07:13:36Z</time>
      </trkpt>
      <trkpt lat="44.52736" lon="5.97853">
        <ele>1139.8000488281</ele>
        <time>2016-05-06T07:13:37Z</time>
      </trkpt>
      <trkpt lat="44.52735" lon="5.97853">
        <ele>1140.1999511719</ele>
        <time>2016-05-06T07:13:38Z</time>
      </trkpt>
      <trkpt lat="44.52734" lon="5.97853">
        <ele>1140.5999755859</ele>
        <time>2016-05-06T07:13:39Z</time>
      </trkpt>
      <trkpt lat="44.52733" lon="5.97852">
        <ele>1141</ele>
        <time>2016-05-06T07:13:40Z</time>
      </trkpt>
      <trkpt lat="44.52732" lon="5.97852">
        <ele>1141.4000244141</ele>
        <time>2016-05-06T07:13:41Z</time>
      </trkpt>
      <trkpt lat="44.52728" lon="5.97852">
        <ele>1141.4000244141</ele>
        <time>2016-05-06T07:13:42Z</time>
      </trkpt>
      <trkpt lat="44.52721" lon="5.97852">
        <ele>1141.4000244141</ele>
        <time>2016-05-06T07:13:48Z</time>
      </trkpt>
      <trkpt lat="44.52714" lon="5.97849">
        <ele>1141.8000488281</ele>
        <time>2016-05-06T07:13:56Z</time>
      </trkpt>
      <trkpt lat="44.52713" lon="5.97848">
        <ele>1142.1999511719</ele>
        <time>2016-05-06T07:13:57Z</time>
      </trkpt>
      <trkpt lat="44.52712" lon="5.97847">
        <ele>1142.5999755859</ele>
        <time>2016-05-06T07:13:58Z</time>
      </trkpt>
      <trkpt lat="44.52711" lon="5.97845">
        <ele>1143</ele>
        <time>2016-05-06T07:13:59Z</time>
      </trkpt>
      <trkpt lat="44.5271" lon="5.97844">
        <ele>1143.4000244141</ele>
        <time>2016-05-06T07:14:00Z</time>
      </trkpt>
      <trkpt lat="44.52706" lon="5.97839">
        <ele>1143.4000244141</ele>
        <time>2016-05-06T07:14:04Z</time>
      </trkpt>
      <trkpt lat="44.52703" lon="5.97839">
        <ele>1143.8000488281</ele>
        <time>2016-05-06T07:14:07Z</time>
      </trkpt>
      <trkpt lat="44.52702" lon="5.97839">
        <ele>1144.8000488281</ele>
        <time>2016-05-06T07:14:08Z</time>
      </trkpt>
      <trkpt lat="44.527" lon="5.9784">
        <ele>1145.1999511719</ele>
        <time>2016-05-06T07:14:09Z</time>
      </trkpt>
      <trkpt lat="44.52699" lon="5.9784">
        <ele>1145.8000488281</ele>
        <time>2016-05-06T07:14:10Z</time>
      </trkpt>
      <trkpt lat="44.52697" lon="5.9784">
        <ele>1145.8000488281</ele>
        <time>2016-05-06T07:14:11Z</time>
      </trkpt>
      <trkpt lat="44.52683" lon="5.97849">
        <ele>1145.8000488281</ele>
        <time>2016-05-06T07:14:22Z</time>
      </trkpt>
      <trkpt lat="44.52682" lon="5.97849">
        <ele>1146.1999511719</ele>
        <time>2016-05-06T07:14:23Z</time>
      </trkpt>
      <trkpt lat="44.52681" lon="5.9785">
        <ele>1146.5999755859</ele>
        <time>2016-05-06T07:14:24Z</time>
      </trkpt>
      <trkpt lat="44.52678" lon="5.97851">
        <ele>1147.4000244141</ele>
        <time>2016-05-06T07:14:26Z</time>
      </trkpt>
      <trkpt lat="44.52677" lon="5.97852">
        <ele>1148</ele>
        <time>2016-05-06T07:14:27Z</time>
      </trkpt>
      <trkpt lat="44.52665" lon="5.97854">
        <ele>1148</ele>
        <time>2016-05-06T07:14:34Z</time>
      </trkpt>
      <trkpt lat="44.52657" lon="5.97857">
        <ele>1148.4000244141</ele>
        <time>2016-05-06T07:14:40Z</time>
      </trkpt>
      <trkpt lat="44.52655" lon="5.97858">
        <ele>1148.8000488281</ele>
        <time>2016-05-06T07:14:42Z</time>
      </trkpt>
      <trkpt lat="44.52654" lon="5.97859">
        <ele>1149.5999755859</ele>
        <time>2016-05-06T07:14:43Z</time>
      </trkpt>
      <trkpt lat="44.52652" lon="5.97859">
        <ele>1150</ele>
        <time>2016-05-06T07:14:44Z</time>
      </trkpt>
      <trkpt lat="44.52651" lon="5.97859">
        <ele>1150</ele>
        <time>2016-05-06T07:14:45Z</time>
      </trkpt>
      <trkpt lat="44.52645" lon="5.97858">
        <ele>1150.8000488281</ele>
        <time>2016-05-06T07:14:49Z</time>
      </trkpt>
      <trkpt lat="44.52644" lon="5.97858">
        <ele>1151.1999511719</ele>
        <time>2016-05-06T07:14:50Z</time>
      </trkpt>
      <trkpt lat="44.52642" lon="5.97857">
        <ele>1151.8000488281</ele>
        <time>2016-05-06T07:14:51Z</time>
      </trkpt>
      <trkpt lat="44.52641" lon="5.97857">
        <ele>1152.1999511719</ele>
        <time>2016-05-06T07:14:52Z</time>
      </trkpt>
      <trkpt lat="44.52636" lon="5.97856">
        <ele>1152.5999755859</ele>
        <time>2016-05-06T07:14:57Z</time>
      </trkpt>
      <trkpt lat="44.52634" lon="5.97856">
        <ele>1153</ele>
        <time>2016-05-06T07:14:58Z</time>
      </trkpt>
      <trkpt lat="44.52633" lon="5.97856">
        <ele>1154</ele>
        <time>2016-05-06T07:14:59Z</time>
      </trkpt>
      <trkpt lat="44.52632" lon="5.97857">
        <ele>1154.4000244141</ele>
        <time>2016-05-06T07:15:00Z</time>
      </trkpt>
      <trkpt lat="44.52629" lon="5.97857">
        <ele>1154.4000244141</ele>
        <time>2016-05-06T07:15:03Z</time>
      </trkpt>
      <trkpt lat="44.52628" lon="5.97856">
        <ele>1154.8000488281</ele>
        <time>2016-05-06T07:15:04Z</time>
      </trkpt>
      <trkpt lat="44.52626" lon="5.97856">
        <ele>1155.1999511719</ele>
        <time>2016-05-06T07:15:05Z</time>
      </trkpt>
      <trkpt lat="44.52625" lon="5.97856">
        <ele>1155.5999755859</ele>
        <time>2016-05-06T07:15:06Z</time>
      </trkpt>
      <trkpt lat="44.52624" lon="5.97856">
        <ele>1156</ele>
        <time>2016-05-06T07:15:07Z</time>
      </trkpt>
      <trkpt lat="44.52623" lon="5.97856">
        <ele>1156.5999755859</ele>
        <time>2016-05-06T07:15:08Z</time>
      </trkpt>
      <trkpt lat="44.52618" lon="5.97853">
        <ele>1157</ele>
        <time>2016-05-06T07:15:13Z</time>
      </trkpt>
      <trkpt lat="44.52617" lon="5.97852">
        <ele>1157.4000244141</ele>
        <time>2016-05-06T07:15:14Z</time>
      </trkpt>
      <trkpt lat="44.52617" lon="5.97852">
        <ele>1157.8000488281</ele>
        <time>2016-05-06T07:15:15Z</time>
      </trkpt>
      <trkpt lat="44.52617" lon="5.97852">
        <ele>1158.4000244141</ele>
        <time>2016-05-06T07:15:16Z</time>
      </trkpt>
      <trkpt lat="44.52616" lon="5.97852">
        <ele>1158.8000488281</ele>
        <time>2016-05-06T07:15:17Z</time>
      </trkpt>
      <trkpt lat="44.52613" lon="5.9785">
        <ele>1159.1999511719</ele>
        <time>2016-05-06T07:15:21Z</time>
      </trkpt>
      <trkpt lat="44.52613" lon="5.9785">
        <ele>1159.5999755859</ele>
        <time>2016-05-06T07:15:22Z</time>
      </trkpt>
      <trkpt lat="44.52612" lon="5.97849">
        <ele>1160.1999511719</ele>
        <time>2016-05-06T07:15:23Z</time>
      </trkpt>
      <trkpt lat="44.52611" lon="5.97849">
        <ele>1160.5999755859</ele>
        <time>2016-05-06T07:15:24Z</time>
      </trkpt>
      <trkpt lat="44.52609" lon="5.97848">
        <ele>1161</ele>
        <time>2016-05-06T07:15:25Z</time>
      </trkpt>
      <trkpt lat="44.52603" lon="5.97847">
        <ele>1161.4000244141</ele>
        <time>2016-05-06T07:15:29Z</time>
      </trkpt>
      <trkpt lat="44.52602" lon="5.97847">
        <ele>1161.8000488281</ele>
        <time>2016-05-06T07:15:30Z</time>
      </trkpt>
      <trkpt lat="44.52601" lon="5.97848">
        <ele>1162.4000244141</ele>
        <time>2016-05-06T07:15:31Z</time>
      </trkpt>
      <trkpt lat="44.526" lon="5.97848">
        <ele>1162.8000488281</ele>
        <time>2016-05-06T07:15:32Z</time>
      </trkpt>
      <trkpt lat="44.52599" lon="5.97847">
        <ele>1163.1999511719</ele>
        <time>2016-05-06T07:15:33Z</time>
      </trkpt>
      <trkpt lat="44.52596" lon="5.97846">
        <ele>1163.1999511719</ele>
        <time>2016-05-06T07:15:40Z</time>
      </trkpt>
      <trkpt lat="44.52595" lon="5.97845">
        <ele>1163.5999755859</ele>
        <time>2016-05-06T07:16:31Z</time>
      </trkpt>
      <trkpt lat="44.52595" lon="5.97844">
        <ele>1164</ele>
        <time>2016-05-06T07:16:32Z</time>
      </trkpt>
      <trkpt lat="44.52596" lon="5.97844">
        <ele>1164.4000244141</ele>
        <time>2016-05-06T07:16:33Z</time>
      </trkpt>
      <trkpt lat="44.52596" lon="5.97843">
        <ele>1164.8000488281</ele>
        <time>2016-05-06T07:16:34Z</time>
      </trkpt>
      <trkpt lat="44.52596" lon="5.97843">
        <ele>1165.1999511719</ele>
        <time>2016-05-06T07:16:35Z</time>
      </trkpt>
      <trkpt lat="44.52588" lon="5.9784">
        <ele>1165.1999511719</ele>
        <time>2016-05-06T07:16:44Z</time>
      </trkpt>
      <trkpt lat="44.52586" lon="5.9784">
        <ele>1165.5999755859</ele>
        <time>2016-05-06T07:16:47Z</time>
      </trkpt>
      <trkpt lat="44.52586" lon="5.9784">
        <ele>1166.1999511719</ele>
        <time>2016-05-06T07:16:48Z</time>
      </trkpt>
      <trkpt lat="44.52584" lon="5.9784">
        <ele>1166.5999755859</ele>
        <time>2016-05-06T07:16:49Z</time>
      </trkpt>
      <trkpt lat="44.52582" lon="5.97839">
        <ele>1167</ele>
        <time>2016-05-06T07:16:50Z</time>
      </trkpt>
      <trkpt lat="44.52581" lon="5.97839">
        <ele>1167.4000244141</ele>
        <time>2016-05-06T07:16:51Z</time>
      </trkpt>
      <trkpt lat="44.52576" lon="5.97839">
        <ele>1167.4000244141</ele>
        <time>2016-05-06T07:16:56Z</time>
      </trkpt>
      <trkpt lat="44.52574" lon="5.97837">
        <ele>1167.8000488281</ele>
        <time>2016-05-06T07:16:59Z</time>
      </trkpt>
      <trkpt lat="44.52573" lon="5.97837">
        <ele>1168.1999511719</ele>
        <time>2016-05-06T07:17:00Z</time>
      </trkpt>
      <trkpt lat="44.52573" lon="5.97836">
        <ele>1168.5999755859</ele>
        <time>2016-05-06T07:17:01Z</time>
      </trkpt>
      <trkpt lat="44.52572" lon="5.97836">
        <ele>1169</ele>
        <time>2016-05-06T07:17:02Z</time>
      </trkpt>
      <trkpt lat="44.52571" lon="5.97835">
        <ele>1169.4000244141</ele>
        <time>2016-05-06T07:17:03Z</time>
      </trkpt>
      <trkpt lat="44.52563" lon="5.97832">
        <ele>1169.4000244141</ele>
        <time>2016-05-06T07:17:11Z</time>
      </trkpt>
      <trkpt lat="44.5256" lon="5.97832">
        <ele>1169.8000488281</ele>
        <time>2016-05-06T07:17:15Z</time>
      </trkpt>
      <trkpt lat="44.5256" lon="5.97832">
        <ele>1170.1999511719</ele>
        <time>2016-05-06T07:17:16Z</time>
      </trkpt>
      <trkpt lat="44.5256" lon="5.97832">
        <ele>1170.5999755859</ele>
        <time>2016-05-06T07:17:17Z</time>
      </trkpt>
      <trkpt lat="44.5256" lon="5.97832">
        <ele>1171.1999511719</ele>
        <time>2016-05-06T07:17:18Z</time>
      </trkpt>
      <trkpt lat="44.52559" lon="5.97832">
        <ele>1171.5999755859</ele>
        <time>2016-05-06T07:17:19Z</time>
      </trkpt>
      <trkpt lat="44.52558" lon="5.97833">
        <ele>1171.5999755859</ele>
        <time>2016-05-06T07:17:21Z</time>
      </trkpt>
      <trkpt lat="44.5255" lon="5.97838">
        <ele>1172</ele>
        <time>2016-05-06T07:17:32Z</time>
      </trkpt>
      <trkpt lat="44.52549" lon="5.97838">
        <ele>1172.4000244141</ele>
        <time>2016-05-06T07:17:33Z</time>
      </trkpt>
      <trkpt lat="44.52549" lon="5.97838">
        <ele>1172.8000488281</ele>
        <time>2016-05-06T07:17:34Z</time>
      </trkpt>
      <trkpt lat="44.52548" lon="5.97839">
        <ele>1173.1999511719</ele>
        <time>2016-05-06T07:17:35Z</time>
      </trkpt>
      <trkpt lat="44.52548" lon="5.97839">
        <ele>1173.5999755859</ele>
        <time>2016-05-06T07:17:36Z</time>
      </trkpt>
      <trkpt lat="44.52547" lon="5.9784">
        <ele>1173.5999755859</ele>
        <time>2016-05-06T07:17:37Z</time>
      </trkpt>
      <trkpt lat="44.52538" lon="5.9784">
        <ele>1173.5999755859</ele>
        <time>2016-05-06T07:17:46Z</time>
      </trkpt>
      <trkpt lat="44.52535" lon="5.9784">
        <ele>1174.1999511719</ele>
        <time>2016-05-06T07:17:49Z</time>
      </trkpt>
      <trkpt lat="44.52534" lon="5.9784">
        <ele>1174.5999755859</ele>
        <time>2016-05-06T07:17:50Z</time>
      </trkpt>
      <trkpt lat="44.52533" lon="5.9784">
        <ele>1175</ele>
        <time>2016-05-06T07:17:51Z</time>
      </trkpt>
      <trkpt lat="44.52533" lon="5.97841">
        <ele>1175.4000244141</ele>
        <time>2016-05-06T07:17:52Z</time>
      </trkpt>
      <trkpt lat="44.52531" lon="5.97841">
        <ele>1176</ele>
        <time>2016-05-06T07:17:53Z</time>
      </trkpt>
      <trkpt lat="44.52524" lon="5.97843">
        <ele>1176</ele>
        <time>2016-05-06T07:18:00Z</time>
      </trkpt>
      <trkpt lat="44.52521" lon="5.97845">
        <ele>1176.4000244141</ele>
        <time>2016-05-06T07:18:04Z</time>
      </trkpt>
      <trkpt lat="44.5252" lon="5.97846">
        <ele>1176.8000488281</ele>
        <time>2016-05-06T07:18:05Z</time>
      </trkpt>
      <trkpt lat="44.5252" lon="5.97846">
        <ele>1177.1999511719</ele>
        <time>2016-05-06T07:18:06Z</time>
      </trkpt>
      <trkpt lat="44.5252" lon="5.97846">
        <ele>1177.5999755859</ele>
        <time>2016-05-06T07:18:07Z</time>
      </trkpt>
      <trkpt lat="44.52519" lon="5.97846">
        <ele>1178</ele>
        <time>2016-05-06T07:18:08Z</time>
      </trkpt>
      <trkpt lat="44.52517" lon="5.97846">
        <ele>1178</ele>
        <time>2016-05-06T07:18:11Z</time>
      </trkpt>
      <trkpt lat="44.52511" lon="5.97845">
        <ele>1178</ele>
        <time>2016-05-06T07:18:21Z</time>
      </trkpt>
      <trkpt lat="44.52508" lon="5.97841">
        <ele>1178.4000244141</ele>
        <time>2016-05-06T07:18:25Z</time>
      </trkpt>
      <trkpt lat="44.52507" lon="5.97841">
        <ele>1178.8000488281</ele>
        <time>2016-05-06T07:18:26Z</time>
      </trkpt>
      <trkpt lat="44.52506" lon="5.9784">
        <ele>1179.1999511719</ele>
        <time>2016-05-06T07:18:27Z</time>
      </trkpt>
      <trkpt lat="44.52506" lon="5.97841">
        <ele>1179.5999755859</ele>
        <time>2016-05-06T07:18:28Z</time>
      </trkpt>
      <trkpt lat="44.52505" lon="5.97839">
        <ele>1180</ele>
        <time>2016-05-06T07:18:29Z</time>
      </trkpt>
      <trkpt lat="44.52503" lon="5.97837">
        <ele>1180</ele>
        <time>2016-05-06T07:18:31Z</time>
      </trkpt>
      <trkpt lat="44.52502" lon="5.97832">
        <ele>1180.4000244141</ele>
        <time>2016-05-06T07:18:36Z</time>
      </trkpt>
      <trkpt lat="44.52502" lon="5.97831">
        <ele>1180.8000488281</ele>
        <time>2016-05-06T07:18:37Z</time>
      </trkpt>
      <trkpt lat="44.52502" lon="5.97829">
        <ele>1181.1999511719</ele>
        <time>2016-05-06T07:18:38Z</time>
      </trkpt>
      <trkpt lat="44.52502" lon="5.97827">
        <ele>1181.5999755859</ele>
        <time>2016-05-06T07:18:39Z</time>
      </trkpt>
      <trkpt lat="44.52502" lon="5.97826">
        <ele>1182</ele>
        <time>2016-05-06T07:18:40Z</time>
      </trkpt>
      <trkpt lat="44.52501" lon="5.97823">
        <ele>1182</ele>
        <time>2016-05-06T07:18:44Z</time>
      </trkpt>
      <trkpt lat="44.52498" lon="5.9782">
        <ele>1182.5999755859</ele>
        <time>2016-05-06T07:18:49Z</time>
      </trkpt>
      <trkpt lat="44.52498" lon="5.9782">
        <ele>1183</ele>
        <time>2016-05-06T07:18:50Z</time>
      </trkpt>
      <trkpt lat="44.52497" lon="5.9782">
        <ele>1183.4000244141</ele>
        <time>2016-05-06T07:18:51Z</time>
      </trkpt>
      <trkpt lat="44.52496" lon="5.9782">
        <ele>1183.8000488281</ele>
        <time>2016-05-06T07:18:52Z</time>
      </trkpt>
      <trkpt lat="44.52496" lon="5.97821">
        <ele>1184.4000244141</ele>
        <time>2016-05-06T07:18:53Z</time>
      </trkpt>
      <trkpt lat="44.52496" lon="5.97821">
        <ele>1184.4000244141</ele>
        <time>2016-05-06T07:18:54Z</time>
      </trkpt>
      <trkpt lat="44.52491" lon="5.97826">
        <ele>1184.8000488281</ele>
        <time>2016-05-06T07:19:00Z</time>
      </trkpt>
      <trkpt lat="44.52491" lon="5.97827">
        <ele>1185.1999511719</ele>
        <time>2016-05-06T07:19:01Z</time>
      </trkpt>
      <trkpt lat="44.5249" lon="5.97828">
        <ele>1185.5999755859</ele>
        <time>2016-05-06T07:19:02Z</time>
      </trkpt>
      <trkpt lat="44.52489" lon="5.97829">
        <ele>1186</ele>
        <time>2016-05-06T07:19:03Z</time>
      </trkpt>
      <trkpt lat="44.52489" lon="5.9783">
        <ele>1186.5999755859</ele>
        <time>2016-05-06T07:19:04Z</time>
      </trkpt>
      <trkpt lat="44.52488" lon="5.9783">
        <ele>1186.5999755859</ele>
        <time>2016-05-06T07:19:05Z</time>
      </trkpt>
      <trkpt lat="44.52478" lon="5.97837">
        <ele>1186.5999755859</ele>
        <time>2016-05-06T07:19:16Z</time>
      </trkpt>
      <trkpt lat="44.52478" lon="5.97837">
        <ele>1187</ele>
        <time>2016-05-06T07:19:17Z</time>
      </trkpt>
      <trkpt lat="44.52477" lon="5.97837">
        <ele>1187.4000244141</ele>
        <time>2016-05-06T07:19:18Z</time>
      </trkpt>
      <trkpt lat="44.52477" lon="5.97838">
        <ele>1187.8000488281</ele>
        <time>2016-05-06T07:19:19Z</time>
      </trkpt>
      <trkpt lat="44.52476" lon="5.97838">
        <ele>1188.1999511719</ele>
        <time>2016-05-06T07:19:20Z</time>
      </trkpt>
      <trkpt lat="44.52475" lon="5.97839">
        <ele>1188.5999755859</ele>
        <time>2016-05-06T07:19:21Z</time>
      </trkpt>
      <trkpt lat="44.52472" lon="5.9784">
        <ele>1188.5999755859</ele>
        <time>2016-05-06T07:19:26Z</time>
      </trkpt>
      <trkpt lat="44.52467" lon="5.9784">
        <ele>1189</ele>
        <time>2016-05-06T07:19:31Z</time>
      </trkpt>
      <trkpt lat="44.52467" lon="5.9784">
        <ele>1189.4000244141</ele>
        <time>2016-05-06T07:19:32Z</time>
      </trkpt>
      <trkpt lat="44.52466" lon="5.97839">
        <ele>1189.8000488281</ele>
        <time>2016-05-06T07:19:33Z</time>
      </trkpt>
      <trkpt lat="44.52465" lon="5.97839">
        <ele>1190.1999511719</ele>
        <time>2016-05-06T07:19:34Z</time>
      </trkpt>
      <trkpt lat="44.52464" lon="5.97839">
        <ele>1190.5999755859</ele>
        <time>2016-05-06T07:19:35Z</time>
      </trkpt>
      <trkpt lat="44.52461" lon="5.97838">
        <ele>1190.5999755859</ele>
        <time>2016-05-06T07:19:39Z</time>
      </trkpt>
      <trkpt lat="44.52458" lon="5.97838">
        <ele>1191</ele>
        <time>2016-05-06T07:19:43Z</time>
      </trkpt>
      <trkpt lat="44.52457" lon="5.97838">
        <ele>1191.4000244141</ele>
        <time>2016-05-06T07:19:44Z</time>
      </trkpt>
      <trkpt lat="44.52456" lon="5.97837">
        <ele>1191.8000488281</ele>
        <time>2016-05-06T07:19:45Z</time>
      </trkpt>
      <trkpt lat="44.52454" lon="5.97837">
        <ele>1192.1999511719</ele>
        <time>2016-05-06T07:19:46Z</time>
      </trkpt>
      <trkpt lat="44.52453" lon="5.97837">
        <ele>1192.5999755859</ele>
        <time>2016-05-06T07:19:47Z</time>
      </trkpt>
      <trkpt lat="44.52451" lon="5.97837">
        <ele>1192.5999755859</ele>
        <time>2016-05-06T07:19:50Z</time>
      </trkpt>
      <trkpt lat="44.52444" lon="5.97838">
        <ele>1193.1999511719</ele>
        <time>2016-05-06T07:19:57Z</time>
      </trkpt>
      <trkpt lat="44.52444" lon="5.97838">
        <ele>1193.5999755859</ele>
        <time>2016-05-06T07:19:58Z</time>
      </trkpt>
      <trkpt lat="44.52443" lon="5.97838">
        <ele>1194</ele>
        <time>2016-05-06T07:19:59Z</time>
      </trkpt>
      <trkpt lat="44.52443" lon="5.97837">
        <ele>1194.4000244141</ele>
        <time>2016-05-06T07:20:00Z</time>
      </trkpt>
      <trkpt lat="44.52442" lon="5.97837">
        <ele>1194.8000488281</ele>
        <time>2016-05-06T07:20:01Z</time>
      </trkpt>
      <trkpt lat="44.52433" lon="5.9784">
        <ele>1194.8000488281</ele>
        <time>2016-05-06T07:20:11Z</time>
      </trkpt>
      <trkpt lat="44.52432" lon="5.97841">
        <ele>1195.1999511719</ele>
        <time>2016-05-06T07:20:12Z</time>
      </trkpt>
      <trkpt lat="44.52431" lon="5.97841">
        <ele>1195.8000488281</ele>
        <time>2016-05-06T07:20:13Z</time>
      </trkpt>
      <trkpt lat="44.5243" lon="5.97842">
        <ele>1196.1999511719</ele>
        <time>2016-05-06T07:20:14Z</time>
      </trkpt>
      <trkpt lat="44.52429" lon="5.97842">
        <ele>1196.5999755859</ele>
        <time>2016-05-06T07:20:15Z</time>
      </trkpt>
      <trkpt lat="44.52428" lon="5.97842">
        <ele>1197</ele>
        <time>2016-05-06T07:20:16Z</time>
      </trkpt>
      <trkpt lat="44.52424" lon="5.97849">
        <ele>1197</ele>
        <time>2016-05-06T07:20:24Z</time>
      </trkpt>
      <trkpt lat="44.52423" lon="5.97853">
        <ele>1197</ele>
        <time>2016-05-06T07:20:34Z</time>
      </trkpt>
      <trkpt lat="44.52422" lon="5.97854">
        <ele>1197.5999755859</ele>
        <time>2016-05-06T07:20:47Z</time>
      </trkpt>
      <trkpt lat="44.52422" lon="5.97854">
        <ele>1198</ele>
        <time>2016-05-06T07:20:48Z</time>
      </trkpt>
      <trkpt lat="44.52422" lon="5.97854">
        <ele>1198.4000244141</ele>
        <time>2016-05-06T07:20:49Z</time>
      </trkpt>
      <trkpt lat="44.52422" lon="5.97855">
        <ele>1199</ele>
        <time>2016-05-06T07:20:50Z</time>
      </trkpt>
      <trkpt lat="44.52422" lon="5.97855">
        <ele>1199.4000244141</ele>
        <time>2016-05-06T07:20:51Z</time>
      </trkpt>
      <trkpt lat="44.5242" lon="5.97857">
        <ele>1199.4000244141</ele>
        <time>2016-05-06T07:21:22Z</time>
      </trkpt>
      <trkpt lat="44.52415" lon="5.97868">
        <ele>1199.4000244141</ele>
        <time>2016-05-06T07:21:52Z</time>
      </trkpt>
      <trkpt lat="44.52412" lon="5.97874">
        <ele>1199.8000488281</ele>
        <time>2016-05-06T07:21:56Z</time>
      </trkpt>
      <trkpt lat="44.52411" lon="5.97875">
        <ele>1200.4000244141</ele>
        <time>2016-05-06T07:21:57Z</time>
      </trkpt>
      <trkpt lat="44.52409" lon="5.97877">
        <ele>1200.8000488281</ele>
        <time>2016-05-06T07:21:58Z</time>
      </trkpt>
      <trkpt lat="44.52408" lon="5.97878">
        <ele>1201.1999511719</ele>
        <time>2016-05-06T07:21:59Z</time>
      </trkpt>
      <trkpt lat="44.52407" lon="5.97878">
        <ele>1201.8000488281</ele>
        <time>2016-05-06T07:22:00Z</time>
      </trkpt>
      <trkpt lat="44.52406" lon="5.97879">
        <ele>1201.8000488281</ele>
        <time>2016-05-06T07:22:01Z</time>
      </trkpt>
      <trkpt lat="44.52398" lon="5.97879">
        <ele>1201.8000488281</ele>
        <time>2016-05-06T07:22:09Z</time>
      </trkpt>
      <trkpt lat="44.52396" lon="5.97878">
        <ele>1202.1999511719</ele>
        <time>2016-05-06T07:22:12Z</time>
      </trkpt>
      <trkpt lat="44.52395" lon="5.97878">
        <ele>1202.5999755859</ele>
        <time>2016-05-06T07:22:13Z</time>
      </trkpt>
      <trkpt lat="44.52394" lon="5.97878">
        <ele>1203</ele>
        <time>2016-05-06T07:22:14Z</time>
      </trkpt>
      <trkpt lat="44.52393" lon="5.97879">
        <ele>1203.5999755859</ele>
        <time>2016-05-06T07:22:15Z</time>
      </trkpt>
      <trkpt lat="44.52392" lon="5.97878">
        <ele>1204</ele>
        <time>2016-05-06T07:22:16Z</time>
      </trkpt>
      <trkpt lat="44.52386" lon="5.97877">
        <ele>1204.4000244141</ele>
        <time>2016-05-06T07:22:23Z</time>
      </trkpt>
      <trkpt lat="44.52385" lon="5.97876">
        <ele>1204.8000488281</ele>
        <time>2016-05-06T07:22:24Z</time>
      </trkpt>
      <trkpt lat="44.52383" lon="5.97876">
        <ele>1205.4000244141</ele>
        <time>2016-05-06T07:22:25Z</time>
      </trkpt>
      <trkpt lat="44.52382" lon="5.97875">
        <ele>1205.8000488281</ele>
        <time>2016-05-06T07:22:26Z</time>
      </trkpt>
      <trkpt lat="44.52381" lon="5.97876">
        <ele>1206.1999511719</ele>
        <time>2016-05-06T07:22:27Z</time>
      </trkpt>
      <trkpt lat="44.52378" lon="5.97875">
        <ele>1206.5999755859</ele>
        <time>2016-05-06T07:22:31Z</time>
      </trkpt>
      <trkpt lat="44.52377" lon="5.97874">
        <ele>1207</ele>
        <time>2016-05-06T07:22:32Z</time>
      </trkpt>
      <trkpt lat="44.52376" lon="5.97874">
        <ele>1207.5999755859</ele>
        <time>2016-05-06T07:22:33Z</time>
      </trkpt>
      <trkpt lat="44.52375" lon="5.97874">
        <ele>1208</ele>
        <time>2016-05-06T07:22:34Z</time>
      </trkpt>
      <trkpt lat="44.52374" lon="5.97874">
        <ele>1208.4000244141</ele>
        <time>2016-05-06T07:22:35Z</time>
      </trkpt>
      <trkpt lat="44.52372" lon="5.97875">
        <ele>1208.4000244141</ele>
        <time>2016-05-06T07:22:37Z</time>
      </trkpt>
      <trkpt lat="44.52359" lon="5.97873">
        <ele>1208.8000488281</ele>
        <time>2016-05-06T07:22:47Z</time>
      </trkpt>
      <trkpt lat="44.52359" lon="5.97874">
        <ele>1209.1999511719</ele>
        <time>2016-05-06T07:22:48Z</time>
      </trkpt>
      <trkpt lat="44.52357" lon="5.97874">
        <ele>1209.5999755859</ele>
        <time>2016-05-06T07:22:49Z</time>
      </trkpt>
      <trkpt lat="44.52357" lon="5.97874">
        <ele>1210</ele>
        <time>2016-05-06T07:22:50Z</time>
      </trkpt>
      <trkpt lat="44.52356" lon="5.97874">
        <ele>1210.4000244141</ele>
        <time>2016-05-06T07:22:51Z</time>
      </trkpt>
      <trkpt lat="44.52348" lon="5.97876">
        <ele>1210.4000244141</ele>
        <time>2016-05-06T07:23:00Z</time>
      </trkpt>
      <trkpt lat="44.52346" lon="5.97878">
        <ele>1211</ele>
        <time>2016-05-06T07:23:01Z</time>
      </trkpt>
      <trkpt lat="44.52345" lon="5.97881">
        <ele>1211.4000244141</ele>
        <time>2016-05-06T07:23:02Z</time>
      </trkpt>
      <trkpt lat="44.52344" lon="5.97883">
        <ele>1211.8000488281</ele>
        <time>2016-05-06T07:23:03Z</time>
      </trkpt>
      <trkpt lat="44.52343" lon="5.97884">
        <ele>1212.1999511719</ele>
        <time>2016-05-06T07:23:04Z</time>
      </trkpt>
      <trkpt lat="44.52343" lon="5.97884">
        <ele>1212.5999755859</ele>
        <time>2016-05-06T07:23:05Z</time>
      </trkpt>
      <trkpt lat="44.52342" lon="5.97885">
        <ele>1212.5999755859</ele>
        <time>2016-05-06T07:23:06Z</time>
      </trkpt>
      <trkpt lat="44.52336" lon="5.9789">
        <ele>1213</ele>
        <time>2016-05-06T07:23:11Z</time>
      </trkpt>
      <trkpt lat="44.52335" lon="5.9789">
        <ele>1213.4000244141</ele>
        <time>2016-05-06T07:23:12Z</time>
      </trkpt>
      <trkpt lat="44.52334" lon="5.9789">
        <ele>1213.8000488281</ele>
        <time>2016-05-06T07:23:13Z</time>
      </trkpt>
      <trkpt lat="44.52333" lon="5.97888">
        <ele>1214.1999511719</ele>
        <time>2016-05-06T07:23:14Z</time>
      </trkpt>
      <trkpt lat="44.52332" lon="5.97888">
        <ele>1214.5999755859</ele>
        <time>2016-05-06T07:23:15Z</time>
      </trkpt>
      <trkpt lat="44.52327" lon="5.97884">
        <ele>1214.5999755859</ele>
        <time>2016-05-06T07:23:20Z</time>
      </trkpt>
      <trkpt lat="44.52324" lon="5.97886">
        <ele>1214.5999755859</ele>
        <time>2016-05-06T07:23:23Z</time>
      </trkpt>
      <trkpt lat="44.52322" lon="5.97886">
        <ele>1215.1999511719</ele>
        <time>2016-05-06T07:23:25Z</time>
      </trkpt>
      <trkpt lat="44.5232" lon="5.97886">
        <ele>1215.5999755859</ele>
        <time>2016-05-06T07:23:26Z</time>
      </trkpt>
      <trkpt lat="44.52319" lon="5.97886">
        <ele>1216.1999511719</ele>
        <time>2016-05-06T07:23:27Z</time>
      </trkpt>
      <trkpt lat="44.52317" lon="5.97887">
        <ele>1216.5999755859</ele>
        <time>2016-05-06T07:23:28Z</time>
      </trkpt>
      <trkpt lat="44.52315" lon="5.97887">
        <ele>1217</ele>
        <time>2016-05-06T07:23:29Z</time>
      </trkpt>
      <trkpt lat="44.5231" lon="5.97885">
        <ele>1217</ele>
        <time>2016-05-06T07:23:32Z</time>
      </trkpt>
      <trkpt lat="44.52308" lon="5.97883">
        <ele>1217.4000244141</ele>
        <time>2016-05-06T07:23:34Z</time>
      </trkpt>
      <trkpt lat="44.52307" lon="5.97882">
        <ele>1217.8000488281</ele>
        <time>2016-05-06T07:23:35Z</time>
      </trkpt>
      <trkpt lat="44.52306" lon="5.97881">
        <ele>1218.1999511719</ele>
        <time>2016-05-06T07:23:36Z</time>
      </trkpt>
      <trkpt lat="44.52305" lon="5.9788">
        <ele>1218.5999755859</ele>
        <time>2016-05-06T07:23:37Z</time>
      </trkpt>
      <trkpt lat="44.52304" lon="5.9788">
        <ele>1219</ele>
        <time>2016-05-06T07:23:38Z</time>
      </trkpt>
      <trkpt lat="44.52304" lon="5.97879">
        <ele>1219</ele>
        <time>2016-05-06T07:23:39Z</time>
      </trkpt>
      <trkpt lat="44.52298" lon="5.97872">
        <ele>1219</ele>
        <time>2016-05-06T07:23:47Z</time>
      </trkpt>
      <trkpt lat="44.52298" lon="5.97871">
        <ele>1219.4000244141</ele>
        <time>2016-05-06T07:23:48Z</time>
      </trkpt>
      <trkpt lat="44.52297" lon="5.97871">
        <ele>1219.8000488281</ele>
        <time>2016-05-06T07:23:49Z</time>
      </trkpt>
      <trkpt lat="44.52296" lon="5.97871">
        <ele>1220.1999511719</ele>
        <time>2016-05-06T07:23:50Z</time>
      </trkpt>
      <trkpt lat="44.52296" lon="5.97871">
        <ele>1220.5999755859</ele>
        <time>2016-05-06T07:23:51Z</time>
      </trkpt>
      <trkpt lat="44.52295" lon="5.97871">
        <ele>1221</ele>
        <time>2016-05-06T07:23:52Z</time>
      </trkpt>
      <trkpt lat="44.52293" lon="5.9787">
        <ele>1221</ele>
        <time>2016-05-06T07:23:54Z</time>
      </trkpt>
      <trkpt lat="44.52293" lon="5.9787">
        <ele>1221.4000244141</ele>
        <time>2016-05-06T07:23:55Z</time>
      </trkpt>
      <trkpt lat="44.52292" lon="5.9787">
        <ele>1222</ele>
        <time>2016-05-06T07:23:56Z</time>
      </trkpt>
      <trkpt lat="44.52291" lon="5.9787">
        <ele>1222.4000244141</ele>
        <time>2016-05-06T07:23:57Z</time>
      </trkpt>
      <trkpt lat="44.5229" lon="5.97869">
        <ele>1222.8000488281</ele>
        <time>2016-05-06T07:23:58Z</time>
      </trkpt>
      <trkpt lat="44.5229" lon="5.97869">
        <ele>1223.1999511719</ele>
        <time>2016-05-06T07:23:59Z</time>
      </trkpt>
      <trkpt lat="44.52286" lon="5.97866">
        <ele>1223.1999511719</ele>
        <time>2016-05-06T07:24:02Z</time>
      </trkpt>
      <trkpt lat="44.52284" lon="5.97863">
        <ele>1223.5999755859</ele>
        <time>2016-05-06T07:24:04Z</time>
      </trkpt>
      <trkpt lat="44.52283" lon="5.97862">
        <ele>1224</ele>
        <time>2016-05-06T07:24:05Z</time>
      </trkpt>
      <trkpt lat="44.52282" lon="5.97861">
        <ele>1224.4000244141</ele>
        <time>2016-05-06T07:24:06Z</time>
      </trkpt>
      <trkpt lat="44.52282" lon="5.97858">
        <ele>1224.8000488281</ele>
        <time>2016-05-06T07:24:07Z</time>
      </trkpt>
      <trkpt lat="44.52281" lon="5.97857">
        <ele>1225.1999511719</ele>
        <time>2016-05-06T07:24:08Z</time>
      </trkpt>
      <trkpt lat="44.52276" lon="5.97854">
        <ele>1225.1999511719</ele>
        <time>2016-05-06T07:24:13Z</time>
      </trkpt>
      <trkpt lat="44.52273" lon="5.97853">
        <ele>1225.5999755859</ele>
        <time>2016-05-06T07:24:16Z</time>
      </trkpt>
      <trkpt lat="44.52272" lon="5.97853">
        <ele>1226</ele>
        <time>2016-05-06T07:24:17Z</time>
      </trkpt>
      <trkpt lat="44.52271" lon="5.97852">
        <ele>1226.4000244141</ele>
        <time>2016-05-06T07:24:18Z</time>
      </trkpt>
      <trkpt lat="44.52269" lon="5.97852">
        <ele>1226.8000488281</ele>
        <time>2016-05-06T07:24:19Z</time>
      </trkpt>
      <trkpt lat="44.52268" lon="5.97851">
        <ele>1227.1999511719</ele>
        <time>2016-05-06T07:24:20Z</time>
      </trkpt>
      <trkpt lat="44.52267" lon="5.9785">
        <ele>1227.1999511719</ele>
        <time>2016-05-06T07:24:21Z</time>
      </trkpt>
      <trkpt lat="44.52261" lon="5.97848">
        <ele>1227.5999755859</ele>
        <time>2016-05-06T07:24:27Z</time>
      </trkpt>
      <trkpt lat="44.5226" lon="5.97848">
        <ele>1228.1999511719</ele>
        <time>2016-05-06T07:24:28Z</time>
      </trkpt>
      <trkpt lat="44.52259" lon="5.97848">
        <ele>1228.5999755859</ele>
        <time>2016-05-06T07:24:29Z</time>
      </trkpt>
      <trkpt lat="44.52258" lon="5.97848">
        <ele>1229</ele>
        <time>2016-05-06T07:24:30Z</time>
      </trkpt>
      <trkpt lat="44.52258" lon="5.97848">
        <ele>1229.5999755859</ele>
        <time>2016-05-06T07:24:31Z</time>
      </trkpt>
      <trkpt lat="44.52251" lon="5.97859">
        <ele>1229.5999755859</ele>
        <time>2016-05-06T07:24:38Z</time>
      </trkpt>
      <trkpt lat="44.52245" lon="5.97863">
        <ele>1230</ele>
        <time>2016-05-06T07:24:43Z</time>
      </trkpt>
      <trkpt lat="44.52243" lon="5.97863">
        <ele>1230.4000244141</ele>
        <time>2016-05-06T07:24:44Z</time>
      </trkpt>
      <trkpt lat="44.52242" lon="5.97862">
        <ele>1230.8000488281</ele>
        <time>2016-05-06T07:24:45Z</time>
      </trkpt>
      <trkpt lat="44.5224" lon="5.97861">
        <ele>1231.1999511719</ele>
        <time>2016-05-06T07:24:46Z</time>
      </trkpt>
      <trkpt lat="44.52239" lon="5.9786">
        <ele>1231.5999755859</ele>
        <time>2016-05-06T07:24:47Z</time>
      </trkpt>
      <trkpt lat="44.52229" lon="5.97854">
        <ele>1232</ele>
        <time>2016-05-06T07:24:55Z</time>
      </trkpt>
      <trkpt lat="44.52229" lon="5.97853">
        <ele>1232.4000244141</ele>
        <time>2016-05-06T07:24:56Z</time>
      </trkpt>
      <trkpt lat="44.52228" lon="5.97854">
        <ele>1232.8000488281</ele>
        <time>2016-05-06T07:24:57Z</time>
      </trkpt>
      <trkpt lat="44.52227" lon="5.97855">
        <ele>1233.1999511719</ele>
        <time>2016-05-06T07:24:58Z</time>
      </trkpt>
      <trkpt lat="44.52227" lon="5.97856">
        <ele>1233.5999755859</ele>
        <time>2016-05-06T07:24:59Z</time>
      </trkpt>
      <trkpt lat="44.52222" lon="5.97868">
        <ele>1233.5999755859</ele>
        <time>2016-05-06T07:25:06Z</time>
      </trkpt>
      <trkpt lat="44.52215" lon="5.97868">
        <ele>1233.5999755859</ele>
        <time>2016-05-06T07:25:12Z</time>
      </trkpt>
      <trkpt lat="44.52215" lon="5.97866">
        <ele>1233.5999755859</ele>
        <time>2016-05-06T07:25:13Z</time>
      </trkpt>
      <trkpt lat="44.52216" lon="5.97865">
        <ele>1234.1999511719</ele>
        <time>2016-05-06T07:25:14Z</time>
      </trkpt>
      <trkpt lat="44.52217" lon="5.97863">
        <ele>1234.5999755859</ele>
        <time>2016-05-06T07:25:15Z</time>
      </trkpt>
      <trkpt lat="44.52217" lon="5.97862">
        <ele>1235</ele>
        <time>2016-05-06T07:25:16Z</time>
      </trkpt>
      <trkpt lat="44.52218" lon="5.9786">
        <ele>1235.4000244141</ele>
        <time>2016-05-06T07:25:17Z</time>
      </trkpt>
      <trkpt lat="44.52218" lon="5.97858">
        <ele>1236</ele>
        <time>2016-05-06T07:25:18Z</time>
      </trkpt>
      <trkpt lat="44.5222" lon="5.97853">
        <ele>1236</ele>
        <time>2016-05-06T07:25:21Z</time>
      </trkpt>
      <trkpt lat="44.52226" lon="5.97835">
        <ele>1236</ele>
        <time>2016-05-06T07:25:30Z</time>
      </trkpt>
      <trkpt lat="44.52226" lon="5.97833">
        <ele>1236.4000244141</ele>
        <time>2016-05-06T07:25:31Z</time>
      </trkpt>
      <trkpt lat="44.52227" lon="5.97832">
        <ele>1236.8000488281</ele>
        <time>2016-05-06T07:25:32Z</time>
      </trkpt>
      <trkpt lat="44.52227" lon="5.9783">
        <ele>1237.4000244141</ele>
        <time>2016-05-06T07:25:33Z</time>
      </trkpt>
      <trkpt lat="44.52228" lon="5.97827">
        <ele>1237.8000488281</ele>
        <time>2016-05-06T07:25:34Z</time>
      </trkpt>
      <trkpt lat="44.52229" lon="5.97826">
        <ele>1238.1999511719</ele>
        <time>2016-05-06T07:25:35Z</time>
      </trkpt>
      <trkpt lat="44.5223" lon="5.9782">
        <ele>1238.1999511719</ele>
        <time>2016-05-06T07:25:38Z</time>
      </trkpt>
      <trkpt lat="44.52235" lon="5.97817">
        <ele>1238.1999511719</ele>
        <time>2016-05-06T07:25:42Z</time>
      </trkpt>
      <trkpt lat="44.52236" lon="5.97816">
        <ele>1238.5999755859</ele>
        <time>2016-05-06T07:25:43Z</time>
      </trkpt>
      <trkpt lat="44.52237" lon="5.97815">
        <ele>1239</ele>
        <time>2016-05-06T07:25:44Z</time>
      </trkpt>
      <trkpt lat="44.52237" lon="5.97813">
        <ele>1239.4000244141</ele>
        <time>2016-05-06T07:25:45Z</time>
      </trkpt>
      <trkpt lat="44.52238" lon="5.97812">
        <ele>1239.8000488281</ele>
        <time>2016-05-06T07:25:46Z</time>
      </trkpt>
      <trkpt lat="44.5224" lon="5.97811">
        <ele>1240.1999511719</ele>
        <time>2016-05-06T07:25:47Z</time>
      </trkpt>
      <trkpt lat="44.52243" lon="5.97806">
        <ele>1240.5999755859</ele>
        <time>2016-05-06T07:25:51Z</time>
      </trkpt>
      <trkpt lat="44.52243" lon="5.97804">
        <ele>1241.1999511719</ele>
        <time>2016-05-06T07:25:52Z</time>
      </trkpt>
      <trkpt lat="44.52242" lon="5.97802">
        <ele>1241.5999755859</ele>
        <time>2016-05-06T07:25:53Z</time>
      </trkpt>
      <trkpt lat="44.52242" lon="5.978">
        <ele>1242</ele>
        <time>2016-05-06T07:25:54Z</time>
      </trkpt>
      <trkpt lat="44.52242" lon="5.97798">
        <ele>1242.4000244141</ele>
        <time>2016-05-06T07:25:55Z</time>
      </trkpt>
      <trkpt lat="44.52237" lon="5.97788">
        <ele>1242.4000244141</ele>
        <time>2016-05-06T07:26:02Z</time>
      </trkpt>
      <trkpt lat="44.52236" lon="5.97786">
        <ele>1242.8000488281</ele>
        <time>2016-05-06T07:26:05Z</time>
      </trkpt>
      <trkpt lat="44.52235" lon="5.97786">
        <ele>1243.1999511719</ele>
        <time>2016-05-06T07:26:06Z</time>
      </trkpt>
      <trkpt lat="44.52235" lon="5.97786">
        <ele>1243.5999755859</ele>
        <time>2016-05-06T07:26:07Z</time>
      </trkpt>
      <trkpt lat="44.52235" lon="5.97785">
        <ele>1244.1999511719</ele>
        <time>2016-05-06T07:26:08Z</time>
      </trkpt>
      <trkpt lat="44.52235" lon="5.97784">
        <ele>1244.5999755859</ele>
        <time>2016-05-06T07:26:09Z</time>
      </trkpt>
      <trkpt lat="44.52232" lon="5.97778">
        <ele>1244.5999755859</ele>
        <time>2016-05-06T07:26:13Z</time>
      </trkpt>
      <trkpt lat="44.52233" lon="5.97769">
        <ele>1245</ele>
        <time>2016-05-06T07:26:17Z</time>
      </trkpt>
      <trkpt lat="44.52234" lon="5.97766">
        <ele>1245.5999755859</ele>
        <time>2016-05-06T07:26:18Z</time>
      </trkpt>
      <trkpt lat="44.52233" lon="5.97764">
        <ele>1246</ele>
        <time>2016-05-06T07:26:19Z</time>
      </trkpt>
      <trkpt lat="44.52232" lon="5.97762">
        <ele>1246.4000244141</ele>
        <time>2016-05-06T07:26:20Z</time>
      </trkpt>
      <trkpt lat="44.52233" lon="5.97761">
        <ele>1247</ele>
        <time>2016-05-06T07:26:21Z</time>
      </trkpt>
      <trkpt lat="44.52236" lon="5.97746">
        <ele>1247</ele>
        <time>2016-05-06T07:26:26Z</time>
      </trkpt>
      <trkpt lat="44.52238" lon="5.97732">
        <ele>1247.4000244141</ele>
        <time>2016-05-06T07:26:32Z</time>
      </trkpt>
      <trkpt lat="44.5224" lon="5.97731">
        <ele>1247.8000488281</ele>
        <time>2016-05-06T07:26:33Z</time>
      </trkpt>
      <trkpt lat="44.5224" lon="5.9773">
        <ele>1248.1999511719</ele>
        <time>2016-05-06T07:26:34Z</time>
      </trkpt>
      <trkpt lat="44.52241" lon="5.97728">
        <ele>1248.5999755859</ele>
        <time>2016-05-06T07:26:35Z</time>
      </trkpt>
      <trkpt lat="44.52242" lon="5.97726">
        <ele>1249</ele>
        <time>2016-05-06T07:26:36Z</time>
      </trkpt>
      <trkpt lat="44.52243" lon="5.97717">
        <ele>1249</ele>
        <time>2016-05-06T07:26:41Z</time>
      </trkpt>
      <trkpt lat="44.52243" lon="5.97706">
        <ele>1249.4000244141</ele>
        <time>2016-05-06T07:26:47Z</time>
      </trkpt>
      <trkpt lat="44.52243" lon="5.97704">
        <ele>1249.8000488281</ele>
        <time>2016-05-06T07:26:48Z</time>
      </trkpt>
      <trkpt lat="44.52242" lon="5.97703">
        <ele>1250.4000244141</ele>
        <time>2016-05-06T07:26:49Z</time>
      </trkpt>
      <trkpt lat="44.52242" lon="5.97701">
        <ele>1250.8000488281</ele>
        <time>2016-05-06T07:26:50Z</time>
      </trkpt>
      <trkpt lat="44.52243" lon="5.977">
        <ele>1251.1999511719</ele>
        <time>2016-05-06T07:26:51Z</time>
      </trkpt>
      <trkpt lat="44.52251" lon="5.97684">
        <ele>1251.1999511719</ele>
        <time>2016-05-06T07:26:59Z</time>
      </trkpt>
      <trkpt lat="44.52251" lon="5.9768">
        <ele>1251.5999755859</ele>
        <time>2016-05-06T07:27:01Z</time>
      </trkpt>
      <trkpt lat="44.52251" lon="5.97679">
        <ele>1252</ele>
        <time>2016-05-06T07:27:02Z</time>
      </trkpt>
      <trkpt lat="44.52252" lon="5.97677">
        <ele>1252.5999755859</ele>
        <time>2016-05-06T07:27:03Z</time>
      </trkpt>
      <trkpt lat="44.52252" lon="5.97675">
        <ele>1253</ele>
        <time>2016-05-06T07:27:04Z</time>
      </trkpt>
      <trkpt lat="44.52254" lon="5.97673">
        <ele>1253.4000244141</ele>
        <time>2016-05-06T07:27:05Z</time>
      </trkpt>
      <trkpt lat="44.52257" lon="5.97667">
        <ele>1253.4000244141</ele>
        <time>2016-05-06T07:27:08Z</time>
      </trkpt>
      <trkpt lat="44.52259" lon="5.97661">
        <ele>1253.8000488281</ele>
        <time>2016-05-06T07:27:12Z</time>
      </trkpt>
      <trkpt lat="44.52259" lon="5.9766">
        <ele>1254.1999511719</ele>
        <time>2016-05-06T07:27:13Z</time>
      </trkpt>
      <trkpt lat="44.52259" lon="5.97658">
        <ele>1254.5999755859</ele>
        <time>2016-05-06T07:27:14Z</time>
      </trkpt>
      <trkpt lat="44.52259" lon="5.97657">
        <ele>1255</ele>
        <time>2016-05-06T07:27:15Z</time>
      </trkpt>
      <trkpt lat="44.52261" lon="5.97654">
        <ele>1255.4000244141</ele>
        <time>2016-05-06T07:27:16Z</time>
      </trkpt>
      <trkpt lat="44.52259" lon="5.97649">
        <ele>1255.4000244141</ele>
        <time>2016-05-06T07:27:19Z</time>
      </trkpt>
      <trkpt lat="44.52256" lon="5.97639">
        <ele>1255.4000244141</ele>
        <time>2016-05-06T07:27:26Z</time>
      </trkpt>
      <trkpt lat="44.52255" lon="5.97637">
        <ele>1255.8000488281</ele>
        <time>2016-05-06T07:27:28Z</time>
      </trkpt>
      <trkpt lat="44.52255" lon="5.97636">
        <ele>1256.1999511719</ele>
        <time>2016-05-06T07:27:29Z</time>
      </trkpt>
      <trkpt lat="44.52254" lon="5.97635">
        <ele>1256.5999755859</ele>
        <time>2016-05-06T07:27:30Z</time>
      </trkpt>
      <trkpt lat="44.52254" lon="5.97634">
        <ele>1257</ele>
        <time>2016-05-06T07:27:31Z</time>
      </trkpt>
      <trkpt lat="44.52253" lon="5.97633">
        <ele>1257.4000244141</ele>
        <time>2016-05-06T07:27:32Z</time>
      </trkpt>
      <trkpt lat="44.52253" lon="5.9763">
        <ele>1257.4000244141</ele>
        <time>2016-05-06T07:27:34Z</time>
      </trkpt>
      <trkpt lat="44.52251" lon="5.97622">
        <ele>1258</ele>
        <time>2016-05-06T07:27:40Z</time>
      </trkpt>
      <trkpt lat="44.52251" lon="5.97621">
        <ele>1258.4000244141</ele>
        <time>2016-05-06T07:27:41Z</time>
      </trkpt>
      <trkpt lat="44.52251" lon="5.97619">
        <ele>1258.8000488281</ele>
        <time>2016-05-06T07:27:42Z</time>
      </trkpt>
      <trkpt lat="44.5225" lon="5.97617">
        <ele>1259.1999511719</ele>
        <time>2016-05-06T07:27:43Z</time>
      </trkpt>
      <trkpt lat="44.52251" lon="5.97616">
        <ele>1259.8000488281</ele>
        <time>2016-05-06T07:27:44Z</time>
      </trkpt>
      <trkpt lat="44.5225" lon="5.97605">
        <ele>1260.1999511719</ele>
        <time>2016-05-06T07:27:50Z</time>
      </trkpt>
      <trkpt lat="44.52249" lon="5.97602">
        <ele>1260.5999755859</ele>
        <time>2016-05-06T07:27:51Z</time>
      </trkpt>
      <trkpt lat="44.52248" lon="5.97601">
        <ele>1261</ele>
        <time>2016-05-06T07:27:52Z</time>
      </trkpt>
      <trkpt lat="44.52247" lon="5.976">
        <ele>1261.4000244141</ele>
        <time>2016-05-06T07:27:53Z</time>
      </trkpt>
      <trkpt lat="44.52246" lon="5.97598">
        <ele>1261.8000488281</ele>
        <time>2016-05-06T07:27:54Z</time>
      </trkpt>
      <trkpt lat="44.52242" lon="5.97594">
        <ele>1261.8000488281</ele>
        <time>2016-05-06T07:27:58Z</time>
      </trkpt>
      <trkpt lat="44.52241" lon="5.97593">
        <ele>1262.4000244141</ele>
        <time>2016-05-06T07:28:00Z</time>
      </trkpt>
      <trkpt lat="44.5224" lon="5.97593">
        <ele>1262.8000488281</ele>
        <time>2016-05-06T07:28:01Z</time>
      </trkpt>
      <trkpt lat="44.52239" lon="5.97593">
        <ele>1263.1999511719</ele>
        <time>2016-05-06T07:28:02Z</time>
      </trkpt>
      <trkpt lat="44.52238" lon="5.97593">
        <ele>1263.5999755859</ele>
        <time>2016-05-06T07:28:03Z</time>
      </trkpt>
      <trkpt lat="44.52238" lon="5.97593">
        <ele>1264</ele>
        <time>2016-05-06T07:28:04Z</time>
      </trkpt>
      <trkpt lat="44.52238" lon="5.97593">
        <ele>1264</ele>
        <time>2016-05-06T07:28:05Z</time>
      </trkpt>
      <trkpt lat="44.52232" lon="5.97587">
        <ele>1264</ele>
        <time>2016-05-06T07:28:13Z</time>
      </trkpt>
      <trkpt lat="44.52228" lon="5.9758">
        <ele>1264</ele>
        <time>2016-05-06T07:28:19Z</time>
      </trkpt>
      <trkpt lat="44.52228" lon="5.97572">
        <ele>1264</ele>
        <time>2016-05-06T07:28:29Z</time>
      </trkpt>
      <trkpt lat="44.52229" lon="5.97571">
        <ele>1264.4000244141</ele>
        <time>2016-05-06T07:28:35Z</time>
      </trkpt>
      <trkpt lat="44.52228" lon="5.9757">
        <ele>1265</ele>
        <time>2016-05-06T07:28:36Z</time>
      </trkpt>
      <trkpt lat="44.52228" lon="5.9757">
        <ele>1265.4000244141</ele>
        <time>2016-05-06T07:28:37Z</time>
      </trkpt>
      <trkpt lat="44.52228" lon="5.97569">
        <ele>1265.8000488281</ele>
        <time>2016-05-06T07:28:38Z</time>
      </trkpt>
      <trkpt lat="44.52227" lon="5.97569">
        <ele>1266.1999511719</ele>
        <time>2016-05-06T07:28:39Z</time>
      </trkpt>
      <trkpt lat="44.52223" lon="5.97566">
        <ele>1266.1999511719</ele>
        <time>2016-05-06T07:28:45Z</time>
      </trkpt>
      <trkpt lat="44.52222" lon="5.97566">
        <ele>1266.5999755859</ele>
        <time>2016-05-06T07:28:46Z</time>
      </trkpt>
      <trkpt lat="44.52222" lon="5.97565">
        <ele>1267.1999511719</ele>
        <time>2016-05-06T07:28:47Z</time>
      </trkpt>
      <trkpt lat="44.52221" lon="5.97565">
        <ele>1267.5999755859</ele>
        <time>2016-05-06T07:28:48Z</time>
      </trkpt>
      <trkpt lat="44.52221" lon="5.97564">
        <ele>1268</ele>
        <time>2016-05-06T07:28:49Z</time>
      </trkpt>
      <trkpt lat="44.52221" lon="5.97564">
        <ele>1268.5999755859</ele>
        <time>2016-05-06T07:28:50Z</time>
      </trkpt>
      <trkpt lat="44.5222" lon="5.97557">
        <ele>1269</ele>
        <time>2016-05-06T07:28:57Z</time>
      </trkpt>
      <trkpt lat="44.52221" lon="5.97556">
        <ele>1269.4000244141</ele>
        <time>2016-05-06T07:28:58Z</time>
      </trkpt>
      <trkpt lat="44.5222" lon="5.97555">
        <ele>1269.8000488281</ele>
        <time>2016-05-06T07:28:59Z</time>
      </trkpt>
      <trkpt lat="44.5222" lon="5.97554">
        <ele>1270.1999511719</ele>
        <time>2016-05-06T07:29:00Z</time>
      </trkpt>
      <trkpt lat="44.5222" lon="5.97554">
        <ele>1270.5999755859</ele>
        <time>2016-05-06T07:29:01Z</time>
      </trkpt>
      <trkpt lat="44.52221" lon="5.97549">
        <ele>1271</ele>
        <time>2016-05-06T07:29:06Z</time>
      </trkpt>
      <trkpt lat="44.52221" lon="5.97547">
        <ele>1271.4000244141</ele>
        <time>2016-05-06T07:29:07Z</time>
      </trkpt>
      <trkpt lat="44.52221" lon="5.97547">
        <ele>1271.8000488281</ele>
        <time>2016-05-06T07:29:08Z</time>
      </trkpt>
      <trkpt lat="44.52221" lon="5.97546">
        <ele>1272.1999511719</ele>
        <time>2016-05-06T07:29:09Z</time>
      </trkpt>
      <trkpt lat="44.52222" lon="5.97545">
        <ele>1272.5999755859</ele>
        <time>2016-05-06T07:29:10Z</time>
      </trkpt>
      <trkpt lat="44.52225" lon="5.97541">
        <ele>1273</ele>
        <time>2016-05-06T07:29:18Z</time>
      </trkpt>
      <trkpt lat="44.52225" lon="5.97541">
        <ele>1273.4000244141</ele>
        <time>2016-05-06T07:29:19Z</time>
      </trkpt>
      <trkpt lat="44.52226" lon="5.9754">
        <ele>1273.8000488281</ele>
        <time>2016-05-06T07:29:20Z</time>
      </trkpt>
      <trkpt lat="44.52227" lon="5.9754">
        <ele>1274.4000244141</ele>
        <time>2016-05-06T07:29:21Z</time>
      </trkpt>
      <trkpt lat="44.52227" lon="5.97539">
        <ele>1274.8000488281</ele>
        <time>2016-05-06T07:29:22Z</time>
      </trkpt>
      <trkpt lat="44.52229" lon="5.97528">
        <ele>1274.8000488281</ele>
        <time>2016-05-06T07:29:31Z</time>
      </trkpt>
      <trkpt lat="44.52229" lon="5.97527">
        <ele>1275.1999511719</ele>
        <time>2016-05-06T07:29:32Z</time>
      </trkpt>
      <trkpt lat="44.5223" lon="5.97526">
        <ele>1275.5999755859</ele>
        <time>2016-05-06T07:29:33Z</time>
      </trkpt>
      <trkpt lat="44.5223" lon="5.97524">
        <ele>1276</ele>
        <time>2016-05-06T07:29:34Z</time>
      </trkpt>
      <trkpt lat="44.5223" lon="5.97523">
        <ele>1276.4000244141</ele>
        <time>2016-05-06T07:29:35Z</time>
      </trkpt>
      <trkpt lat="44.52231" lon="5.97522">
        <ele>1276.8000488281</ele>
        <time>2016-05-06T07:29:36Z</time>
      </trkpt>
      <trkpt lat="44.52237" lon="5.97513">
        <ele>1276.8000488281</ele>
        <time>2016-05-06T07:29:45Z</time>
      </trkpt>
      <trkpt lat="44.52238" lon="5.97509">
        <ele>1277.1999511719</ele>
        <time>2016-05-06T07:29:48Z</time>
      </trkpt>
      <trkpt lat="44.52238" lon="5.97508">
        <ele>1277.5999755859</ele>
        <time>2016-05-06T07:29:49Z</time>
      </trkpt>
      <trkpt lat="44.52239" lon="5.97507">
        <ele>1278</ele>
        <time>2016-05-06T07:29:50Z</time>
      </trkpt>
      <trkpt lat="44.52239" lon="5.97506">
        <ele>1278.4000244141</ele>
        <time>2016-05-06T07:29:51Z</time>
      </trkpt>
      <trkpt lat="44.52239" lon="5.97505">
        <ele>1278.8000488281</ele>
        <time>2016-05-06T07:29:52Z</time>
      </trkpt>
      <trkpt lat="44.52239" lon="5.97501">
        <ele>1278.8000488281</ele>
        <time>2016-05-06T07:29:56Z</time>
      </trkpt>
      <trkpt lat="44.52241" lon="5.9749">
        <ele>1278.8000488281</ele>
        <time>2016-05-06T07:30:10Z</time>
      </trkpt>
      <trkpt lat="44.52241" lon="5.97489">
        <ele>1279.4000244141</ele>
        <time>2016-05-06T07:30:11Z</time>
      </trkpt>
      <trkpt lat="44.52242" lon="5.97489">
        <ele>1279.8000488281</ele>
        <time>2016-05-06T07:30:12Z</time>
      </trkpt>
      <trkpt lat="44.52241" lon="5.97488">
        <ele>1280.1999511719</ele>
        <time>2016-05-06T07:30:13Z</time>
      </trkpt>
      <trkpt lat="44.5224" lon="5.97488">
        <ele>1280.5999755859</ele>
        <time>2016-05-06T07:30:14Z</time>
      </trkpt>
      <trkpt lat="44.5224" lon="5.97488">
        <ele>1281</ele>
        <time>2016-05-06T07:30:15Z</time>
      </trkpt>
      <trkpt lat="44.5224" lon="5.97488">
        <ele>1281</ele>
        <time>2016-05-06T07:30:18Z</time>
      </trkpt>
      <trkpt lat="44.52244" lon="5.97478">
        <ele>1281</ele>
        <time>2016-05-06T07:30:34Z</time>
      </trkpt>
      <trkpt lat="44.52247" lon="5.9747">
        <ele>1281.4000244141</ele>
        <time>2016-05-06T07:30:38Z</time>
      </trkpt>
      <trkpt lat="44.52247" lon="5.97469">
        <ele>1282</ele>
        <time>2016-05-06T07:30:39Z</time>
      </trkpt>
      <trkpt lat="44.52248" lon="5.97467">
        <ele>1282.4000244141</ele>
        <time>2016-05-06T07:30:40Z</time>
      </trkpt>
      <trkpt lat="44.52248" lon="5.97466">
        <ele>1282.8000488281</ele>
        <time>2016-05-06T07:30:41Z</time>
      </trkpt>
      <trkpt lat="44.52249" lon="5.97464">
        <ele>1283.1999511719</ele>
        <time>2016-05-06T07:30:42Z</time>
      </trkpt>
      <trkpt lat="44.5225" lon="5.97456">
        <ele>1283.1999511719</ele>
        <time>2016-05-06T07:30:47Z</time>
      </trkpt>
      <trkpt lat="44.52251" lon="5.9745">
        <ele>1283.5999755859</ele>
        <time>2016-05-06T07:30:51Z</time>
      </trkpt>
      <trkpt lat="44.52252" lon="5.97449">
        <ele>1284</ele>
        <time>2016-05-06T07:30:52Z</time>
      </trkpt>
      <trkpt lat="44.52253" lon="5.97448">
        <ele>1284.4000244141</ele>
        <time>2016-05-06T07:30:53Z</time>
      </trkpt>
      <trkpt lat="44.52252" lon="5.97446">
        <ele>1285</ele>
        <time>2016-05-06T07:30:54Z</time>
      </trkpt>
      <trkpt lat="44.52253" lon="5.97445">
        <ele>1285.4000244141</ele>
        <time>2016-05-06T07:30:55Z</time>
      </trkpt>
      <trkpt lat="44.52252" lon="5.97441">
        <ele>1285.4000244141</ele>
        <time>2016-05-06T07:30:57Z</time>
      </trkpt>
      <trkpt lat="44.52253" lon="5.97438">
        <ele>1285.8000488281</ele>
        <time>2016-05-06T07:30:59Z</time>
      </trkpt>
      <trkpt lat="44.52253" lon="5.97437">
        <ele>1286.1999511719</ele>
        <time>2016-05-06T07:31:00Z</time>
      </trkpt>
      <trkpt lat="44.52253" lon="5.97436">
        <ele>1286.5999755859</ele>
        <time>2016-05-06T07:31:01Z</time>
      </trkpt>
      <trkpt lat="44.52254" lon="5.97435">
        <ele>1287</ele>
        <time>2016-05-06T07:31:02Z</time>
      </trkpt>
      <trkpt lat="44.52254" lon="5.97434">
        <ele>1287.4000244141</ele>
        <time>2016-05-06T07:31:03Z</time>
      </trkpt>
      <trkpt lat="44.52256" lon="5.97423">
        <ele>1287.4000244141</ele>
        <time>2016-05-06T07:31:11Z</time>
      </trkpt>
      <trkpt lat="44.52256" lon="5.97417">
        <ele>1287.8000488281</ele>
        <time>2016-05-06T07:31:14Z</time>
      </trkpt>
      <trkpt lat="44.52257" lon="5.97415">
        <ele>1288.1999511719</ele>
        <time>2016-05-06T07:31:15Z</time>
      </trkpt>
      <trkpt lat="44.52258" lon="5.97413">
        <ele>1288.5999755859</ele>
        <time>2016-05-06T07:31:16Z</time>
      </trkpt>
      <trkpt lat="44.52258" lon="5.97412">
        <ele>1289</ele>
        <time>2016-05-06T07:31:17Z</time>
      </trkpt>
      <trkpt lat="44.52258" lon="5.9741">
        <ele>1289.4000244141</ele>
        <time>2016-05-06T07:31:18Z</time>
      </trkpt>
      <trkpt lat="44.5226" lon="5.974">
        <ele>1289.4000244141</ele>
        <time>2016-05-06T07:31:25Z</time>
      </trkpt>
      <trkpt lat="44.52261" lon="5.97394">
        <ele>1289.8000488281</ele>
        <time>2016-05-06T07:31:30Z</time>
      </trkpt>
      <trkpt lat="44.52261" lon="5.97393">
        <ele>1290.4000244141</ele>
        <time>2016-05-06T07:31:31Z</time>
      </trkpt>
      <trkpt lat="44.52261" lon="5.97392">
        <ele>1290.8000488281</ele>
        <time>2016-05-06T07:31:32Z</time>
      </trkpt>
      <trkpt lat="44.52261" lon="5.9739">
        <ele>1291.1999511719</ele>
        <time>2016-05-06T07:31:33Z</time>
      </trkpt>
      <trkpt lat="44.52262" lon="5.97389">
        <ele>1291.5999755859</ele>
        <time>2016-05-06T07:31:34Z</time>
      </trkpt>
      <trkpt lat="44.52262" lon="5.9738">
        <ele>1291.5999755859</ele>
        <time>2016-05-06T07:31:40Z</time>
      </trkpt>
      <trkpt lat="44.52262" lon="5.97373">
        <ele>1292</ele>
        <time>2016-05-06T07:31:44Z</time>
      </trkpt>
      <trkpt lat="44.52262" lon="5.97372">
        <ele>1292.4000244141</ele>
        <time>2016-05-06T07:31:45Z</time>
      </trkpt>
      <trkpt lat="44.52262" lon="5.97371">
        <ele>1293</ele>
        <time>2016-05-06T07:31:46Z</time>
      </trkpt>
      <trkpt lat="44.52262" lon="5.97369">
        <ele>1293.4000244141</ele>
        <time>2016-05-06T07:31:47Z</time>
      </trkpt>
      <trkpt lat="44.52262" lon="5.97368">
        <ele>1293.8000488281</ele>
        <time>2016-05-06T07:31:48Z</time>
      </trkpt>
      <trkpt lat="44.52263" lon="5.9736">
        <ele>1293.8000488281</ele>
        <time>2016-05-06T07:31:52Z</time>
      </trkpt>
      <trkpt lat="44.52266" lon="5.97349">
        <ele>1294.1999511719</ele>
        <time>2016-05-06T07:32:00Z</time>
      </trkpt>
      <trkpt lat="44.52266" lon="5.97348">
        <ele>1294.5999755859</ele>
        <time>2016-05-06T07:32:01Z</time>
      </trkpt>
      <trkpt lat="44.52266" lon="5.97346">
        <ele>1295.1999511719</ele>
        <time>2016-05-06T07:32:02Z</time>
      </trkpt>
      <trkpt lat="44.52266" lon="5.97345">
        <ele>1295.5999755859</ele>
        <time>2016-05-06T07:32:03Z</time>
      </trkpt>
      <trkpt lat="44.52266" lon="5.97344">
        <ele>1296</ele>
        <time>2016-05-06T07:32:04Z</time>
      </trkpt>
      <trkpt lat="44.52267" lon="5.97335">
        <ele>1296.4000244141</ele>
        <time>2016-05-06T07:32:11Z</time>
      </trkpt>
      <trkpt lat="44.52267" lon="5.97334">
        <ele>1296.8000488281</ele>
        <time>2016-05-06T07:32:12Z</time>
      </trkpt>
      <trkpt lat="44.52268" lon="5.97333">
        <ele>1297.4000244141</ele>
        <time>2016-05-06T07:32:13Z</time>
      </trkpt>
      <trkpt lat="44.52269" lon="5.97331">
        <ele>1297.8000488281</ele>
        <time>2016-05-06T07:32:14Z</time>
      </trkpt>
      <trkpt lat="44.52269" lon="5.97329">
        <ele>1298.1999511719</ele>
        <time>2016-05-06T07:32:15Z</time>
      </trkpt>
      <trkpt lat="44.5228" lon="5.97313">
        <ele>1298.1999511719</ele>
        <time>2016-05-06T07:32:26Z</time>
      </trkpt>
      <trkpt lat="44.5228" lon="5.97312">
        <ele>1298.5999755859</ele>
        <time>2016-05-06T07:32:27Z</time>
      </trkpt>
      <trkpt lat="44.52282" lon="5.97312">
        <ele>1299</ele>
        <time>2016-05-06T07:32:28Z</time>
      </trkpt>
      <trkpt lat="44.52282" lon="5.97311">
        <ele>1299.4000244141</ele>
        <time>2016-05-06T07:32:29Z</time>
      </trkpt>
      <trkpt lat="44.52282" lon="5.9731">
        <ele>1299.8000488281</ele>
        <time>2016-05-06T07:32:30Z</time>
      </trkpt>
      <trkpt lat="44.52283" lon="5.97309">
        <ele>1300.1999511719</ele>
        <time>2016-05-06T07:32:31Z</time>
      </trkpt>
      <trkpt lat="44.52285" lon="5.97308">
        <ele>1300.1999511719</ele>
        <time>2016-05-06T07:32:33Z</time>
      </trkpt>
      <trkpt lat="44.52287" lon="5.97306">
        <ele>1300.1999511719</ele>
        <time>2016-05-06T07:32:35Z</time>
      </trkpt>
      <trkpt lat="44.52292" lon="5.97298">
        <ele>1300.8000488281</ele>
        <time>2016-05-06T07:32:41Z</time>
      </trkpt>
      <trkpt lat="44.52292" lon="5.97297">
        <ele>1301.1999511719</ele>
        <time>2016-05-06T07:32:42Z</time>
      </trkpt>
      <trkpt lat="44.52293" lon="5.97296">
        <ele>1301.5999755859</ele>
        <time>2016-05-06T07:32:43Z</time>
      </trkpt>
      <trkpt lat="44.52294" lon="5.97294">
        <ele>1302</ele>
        <time>2016-05-06T07:32:44Z</time>
      </trkpt>
      <trkpt lat="44.52295" lon="5.97293">
        <ele>1302.4000244141</ele>
        <time>2016-05-06T07:32:45Z</time>
      </trkpt>
      <trkpt lat="44.52296" lon="5.97291">
        <ele>1302.4000244141</ele>
        <time>2016-05-06T07:32:47Z</time>
      </trkpt>
      <trkpt lat="44.52298" lon="5.97281">
        <ele>1302.8000488281</ele>
        <time>2016-05-06T07:32:54Z</time>
      </trkpt>
      <trkpt lat="44.52299" lon="5.97279">
        <ele>1303.1999511719</ele>
        <time>2016-05-06T07:32:55Z</time>
      </trkpt>
      <trkpt lat="44.52299" lon="5.97278">
        <ele>1303.5999755859</ele>
        <time>2016-05-06T07:32:56Z</time>
      </trkpt>
      <trkpt lat="44.523" lon="5.97276">
        <ele>1304</ele>
        <time>2016-05-06T07:32:57Z</time>
      </trkpt>
      <trkpt lat="44.52301" lon="5.97274">
        <ele>1304.4000244141</ele>
        <time>2016-05-06T07:32:58Z</time>
      </trkpt>
      <trkpt lat="44.52302" lon="5.97272">
        <ele>1304.4000244141</ele>
        <time>2016-05-06T07:32:59Z</time>
      </trkpt>
      <trkpt lat="44.52305" lon="5.97263">
        <ele>1304.8000488281</ele>
        <time>2016-05-06T07:33:06Z</time>
      </trkpt>
      <trkpt lat="44.52305" lon="5.97262">
        <ele>1305.1999511719</ele>
        <time>2016-05-06T07:33:07Z</time>
      </trkpt>
      <trkpt lat="44.52306" lon="5.9726">
        <ele>1305.5999755859</ele>
        <time>2016-05-06T07:33:08Z</time>
      </trkpt>
      <trkpt lat="44.52306" lon="5.97259">
        <ele>1306.1999511719</ele>
        <time>2016-05-06T07:33:09Z</time>
      </trkpt>
      <trkpt lat="44.52306" lon="5.97257">
        <ele>1306.5999755859</ele>
        <time>2016-05-06T07:33:10Z</time>
      </trkpt>
      <trkpt lat="44.52306" lon="5.97254">
        <ele>1306.5999755859</ele>
        <time>2016-05-06T07:33:12Z</time>
      </trkpt>
      <trkpt lat="44.52305" lon="5.97245">
        <ele>1307</ele>
        <time>2016-05-06T07:33:19Z</time>
      </trkpt>
      <trkpt lat="44.52303" lon="5.97245">
        <ele>1307.4000244141</ele>
        <time>2016-05-06T07:33:20Z</time>
      </trkpt>
      <trkpt lat="44.52303" lon="5.97245">
        <ele>1307.8000488281</ele>
        <time>2016-05-06T07:33:21Z</time>
      </trkpt>
      <trkpt lat="44.52304" lon="5.97244">
        <ele>1308.1999511719</ele>
        <time>2016-05-06T07:33:22Z</time>
      </trkpt>
      <trkpt lat="44.52303" lon="5.97242">
        <ele>1308.8000488281</ele>
        <time>2016-05-06T07:33:23Z</time>
      </trkpt>
      <trkpt lat="44.52306" lon="5.97232">
        <ele>1308.8000488281</ele>
        <time>2016-05-06T07:33:34Z</time>
      </trkpt>
      <trkpt lat="44.52307" lon="5.9723">
        <ele>1309.1999511719</ele>
        <time>2016-05-06T07:33:37Z</time>
      </trkpt>
      <trkpt lat="44.52307" lon="5.9723">
        <ele>1309.5999755859</ele>
        <time>2016-05-06T07:33:38Z</time>
      </trkpt>
      <trkpt lat="44.52307" lon="5.97229">
        <ele>1310</ele>
        <time>2016-05-06T07:33:39Z</time>
      </trkpt>
      <trkpt lat="44.52308" lon="5.97228">
        <ele>1310.4000244141</ele>
        <time>2016-05-06T07:33:40Z</time>
      </trkpt>
      <trkpt lat="44.52309" lon="5.97227">
        <ele>1310.8000488281</ele>
        <time>2016-05-06T07:33:41Z</time>
      </trkpt>
      <trkpt lat="44.52308" lon="5.97227">
        <ele>1310.8000488281</ele>
        <time>2016-05-06T07:33:45Z</time>
      </trkpt>
      <trkpt lat="44.52311" lon="5.97221">
        <ele>1310.8000488281</ele>
        <time>2016-05-06T07:34:12Z</time>
      </trkpt>
      <trkpt lat="44.52313" lon="5.97217">
        <ele>1311.1999511719</ele>
        <time>2016-05-06T07:34:18Z</time>
      </trkpt>
      <trkpt lat="44.52313" lon="5.97217">
        <ele>1311.5999755859</ele>
        <time>2016-05-06T07:34:19Z</time>
      </trkpt>
      <trkpt lat="44.52314" lon="5.97217">
        <ele>1312</ele>
        <time>2016-05-06T07:34:20Z</time>
      </trkpt>
      <trkpt lat="44.52314" lon="5.97217">
        <ele>1312.4000244141</ele>
        <time>2016-05-06T07:34:21Z</time>
      </trkpt>
      <trkpt lat="44.52314" lon="5.97216">
        <ele>1312.8000488281</ele>
        <time>2016-05-06T07:34:22Z</time>
      </trkpt>
      <trkpt lat="44.52316" lon="5.97212">
        <ele>1313.1999511719</ele>
        <time>2016-05-06T07:34:29Z</time>
      </trkpt>
      <trkpt lat="44.52316" lon="5.97211">
        <ele>1313.8000488281</ele>
        <time>2016-05-06T07:34:30Z</time>
      </trkpt>
      <trkpt lat="44.52316" lon="5.97211">
        <ele>1314.1999511719</ele>
        <time>2016-05-06T07:34:31Z</time>
      </trkpt>
      <trkpt lat="44.52316" lon="5.9721">
        <ele>1314.5999755859</ele>
        <time>2016-05-06T07:34:32Z</time>
      </trkpt>
      <trkpt lat="44.52316" lon="5.97209">
        <ele>1315</ele>
        <time>2016-05-06T07:34:33Z</time>
      </trkpt>
      <trkpt lat="44.52314" lon="5.97206">
        <ele>1315.5999755859</ele>
        <time>2016-05-06T07:34:37Z</time>
      </trkpt>
      <trkpt lat="44.52313" lon="5.97207">
        <ele>1316</ele>
        <time>2016-05-06T07:34:38Z</time>
      </trkpt>
      <trkpt lat="44.52312" lon="5.97207">
        <ele>1316.4000244141</ele>
        <time>2016-05-06T07:34:39Z</time>
      </trkpt>
      <trkpt lat="44.52312" lon="5.97207">
        <ele>1316.8000488281</ele>
        <time>2016-05-06T07:34:40Z</time>
      </trkpt>
      <trkpt lat="44.52312" lon="5.97208">
        <ele>1317.1999511719</ele>
        <time>2016-05-06T07:34:41Z</time>
      </trkpt>
      <trkpt lat="44.52308" lon="5.97208">
        <ele>1317.1999511719</ele>
        <time>2016-05-06T07:34:50Z</time>
      </trkpt>
      <trkpt lat="44.52302" lon="5.97214">
        <ele>1317.5999755859</ele>
        <time>2016-05-06T07:35:00Z</time>
      </trkpt>
      <trkpt lat="44.523" lon="5.97215">
        <ele>1318</ele>
        <time>2016-05-06T07:35:01Z</time>
      </trkpt>
      <trkpt lat="44.52299" lon="5.97216">
        <ele>1318.4000244141</ele>
        <time>2016-05-06T07:35:02Z</time>
      </trkpt>
      <trkpt lat="44.52297" lon="5.97217">
        <ele>1318.8000488281</ele>
        <time>2016-05-06T07:35:03Z</time>
      </trkpt>
      <trkpt lat="44.52295" lon="5.97218">
        <ele>1319.1999511719</ele>
        <time>2016-05-06T07:35:04Z</time>
      </trkpt>
      <trkpt lat="44.52289" lon="5.97222">
        <ele>1319.1999511719</ele>
        <time>2016-05-06T07:35:10Z</time>
      </trkpt>
      <trkpt lat="44.52285" lon="5.97225">
        <ele>1319.5999755859</ele>
        <time>2016-05-06T07:35:15Z</time>
      </trkpt>
      <trkpt lat="44.52284" lon="5.97225">
        <ele>1320</ele>
        <time>2016-05-06T07:35:16Z</time>
      </trkpt>
      <trkpt lat="44.52283" lon="5.97225">
        <ele>1320.4000244141</ele>
        <time>2016-05-06T07:35:17Z</time>
      </trkpt>
      <trkpt lat="44.52282" lon="5.97226">
        <ele>1320.8000488281</ele>
        <time>2016-05-06T07:35:18Z</time>
      </trkpt>
      <trkpt lat="44.52282" lon="5.97226">
        <ele>1321.1999511719</ele>
        <time>2016-05-06T07:35:19Z</time>
      </trkpt>
      <trkpt lat="44.52277" lon="5.97229">
        <ele>1321.1999511719</ele>
        <time>2016-05-06T07:35:24Z</time>
      </trkpt>
      <trkpt lat="44.52276" lon="5.9723">
        <ele>1321.5999755859</ele>
        <time>2016-05-06T07:35:26Z</time>
      </trkpt>
      <trkpt lat="44.52275" lon="5.97231">
        <ele>1322</ele>
        <time>2016-05-06T07:35:27Z</time>
      </trkpt>
      <trkpt lat="44.52275" lon="5.97232">
        <ele>1322.4000244141</ele>
        <time>2016-05-06T07:35:28Z</time>
      </trkpt>
      <trkpt lat="44.52274" lon="5.97232">
        <ele>1323</ele>
        <time>2016-05-06T07:35:29Z</time>
      </trkpt>
      <trkpt lat="44.52274" lon="5.97234">
        <ele>1323.4000244141</ele>
        <time>2016-05-06T07:35:30Z</time>
      </trkpt>
      <trkpt lat="44.52272" lon="5.97237">
        <ele>1323.4000244141</ele>
        <time>2016-05-06T07:35:34Z</time>
      </trkpt>
      <trkpt lat="44.52271" lon="5.97241">
        <ele>1323.4000244141</ele>
        <time>2016-05-06T07:35:39Z</time>
      </trkpt>
      <trkpt lat="44.52268" lon="5.97245">
        <ele>1323.8000488281</ele>
        <time>2016-05-06T07:35:44Z</time>
      </trkpt>
      <trkpt lat="44.52269" lon="5.97247">
        <ele>1324.1999511719</ele>
        <time>2016-05-06T07:35:45Z</time>
      </trkpt>
      <trkpt lat="44.52269" lon="5.97248">
        <ele>1324.5999755859</ele>
        <time>2016-05-06T07:35:46Z</time>
      </trkpt>
      <trkpt lat="44.52269" lon="5.97249">
        <ele>1325</ele>
        <time>2016-05-06T07:35:47Z</time>
      </trkpt>
      <trkpt lat="44.52267" lon="5.97251">
        <ele>1325.4000244141</ele>
        <time>2016-05-06T07:35:48Z</time>
      </trkpt>
      <trkpt lat="44.52266" lon="5.97256">
        <ele>1325.4000244141</ele>
        <time>2016-05-06T07:35:54Z</time>
      </trkpt>
      <trkpt lat="44.52262" lon="5.9726">
        <ele>1325.8000488281</ele>
        <time>2016-05-06T07:35:59Z</time>
      </trkpt>
      <trkpt lat="44.52262" lon="5.97261">
        <ele>1326.1999511719</ele>
        <time>2016-05-06T07:36:00Z</time>
      </trkpt>
      <trkpt lat="44.52261" lon="5.97261">
        <ele>1326.5999755859</ele>
        <time>2016-05-06T07:36:01Z</time>
      </trkpt>
      <trkpt lat="44.52261" lon="5.97262">
        <ele>1327</ele>
        <time>2016-05-06T07:36:02Z</time>
      </trkpt>
      <trkpt lat="44.52259" lon="5.97264">
        <ele>1327.4000244141</ele>
        <time>2016-05-06T07:36:03Z</time>
      </trkpt>
      <trkpt lat="44.52257" lon="5.97272">
        <ele>1327.4000244141</ele>
        <time>2016-05-06T07:36:12Z</time>
      </trkpt>
      <trkpt lat="44.52254" lon="5.97275">
        <ele>1328</ele>
        <time>2016-05-06T07:36:15Z</time>
      </trkpt>
      <trkpt lat="44.52254" lon="5.97275">
        <ele>1328.4000244141</ele>
        <time>2016-05-06T07:36:16Z</time>
      </trkpt>
      <trkpt lat="44.52254" lon="5.97276">
        <ele>1328.8000488281</ele>
        <time>2016-05-06T07:36:17Z</time>
      </trkpt>
      <trkpt lat="44.52253" lon="5.97277">
        <ele>1329.1999511719</ele>
        <time>2016-05-06T07:36:18Z</time>
      </trkpt>
      <trkpt lat="44.52253" lon="5.97278">
        <ele>1329.5999755859</ele>
        <time>2016-05-06T07:36:19Z</time>
      </trkpt>
      <trkpt lat="44.52251" lon="5.97283">
        <ele>1329.5999755859</ele>
        <time>2016-05-06T07:36:24Z</time>
      </trkpt>
      <trkpt lat="44.52246" lon="5.97293">
        <ele>1330</ele>
        <time>2016-05-06T07:36:34Z</time>
      </trkpt>
      <trkpt lat="44.52245" lon="5.97294">
        <ele>1330.4000244141</ele>
        <time>2016-05-06T07:36:35Z</time>
      </trkpt>
      <trkpt lat="44.52245" lon="5.97297">
        <ele>1330.8000488281</ele>
        <time>2016-05-06T07:36:36Z</time>
      </trkpt>
      <trkpt lat="44.52243" lon="5.97298">
        <ele>1331.1999511719</ele>
        <time>2016-05-06T07:36:37Z</time>
      </trkpt>
      <trkpt lat="44.52243" lon="5.97299">
        <ele>1331.5999755859</ele>
        <time>2016-05-06T07:36:38Z</time>
      </trkpt>
      <trkpt lat="44.52242" lon="5.97301">
        <ele>1331.5999755859</ele>
        <time>2016-05-06T07:36:40Z</time>
      </trkpt>
      <trkpt lat="44.52233" lon="5.97315">
        <ele>1332.1999511719</ele>
        <time>2016-05-06T07:36:52Z</time>
      </trkpt>
      <trkpt lat="44.52232" lon="5.97317">
        <ele>1332.5999755859</ele>
        <time>2016-05-06T07:36:53Z</time>
      </trkpt>
      <trkpt lat="44.52231" lon="5.97318">
        <ele>1333</ele>
        <time>2016-05-06T07:36:54Z</time>
      </trkpt>
      <trkpt lat="44.5223" lon="5.97319">
        <ele>1333.4000244141</ele>
        <time>2016-05-06T07:36:55Z</time>
      </trkpt>
      <trkpt lat="44.52229" lon="5.9732">
        <ele>1333.8000488281</ele>
        <time>2016-05-06T07:36:56Z</time>
      </trkpt>
      <trkpt lat="44.52219" lon="5.97332">
        <ele>1333.8000488281</ele>
        <time>2016-05-06T07:37:07Z</time>
      </trkpt>
      <trkpt lat="44.52219" lon="5.97332">
        <ele>1334.1999511719</ele>
        <time>2016-05-06T07:37:08Z</time>
      </trkpt>
      <trkpt lat="44.52218" lon="5.97333">
        <ele>1334.5999755859</ele>
        <time>2016-05-06T07:37:09Z</time>
      </trkpt>
      <trkpt lat="44.52217" lon="5.97334">
        <ele>1335</ele>
        <time>2016-05-06T07:37:10Z</time>
      </trkpt>
      <trkpt lat="44.52216" lon="5.97334">
        <ele>1335.4000244141</ele>
        <time>2016-05-06T07:37:11Z</time>
      </trkpt>
      <trkpt lat="44.52216" lon="5.97335">
        <ele>1335.8000488281</ele>
        <time>2016-05-06T07:37:12Z</time>
      </trkpt>
      <trkpt lat="44.5221" lon="5.97342">
        <ele>1335.8000488281</ele>
        <time>2016-05-06T07:37:23Z</time>
      </trkpt>
      <trkpt lat="44.52207" lon="5.97344">
        <ele>1336.1999511719</ele>
        <time>2016-05-06T07:37:28Z</time>
      </trkpt>
      <trkpt lat="44.52206" lon="5.97344">
        <ele>1336.8000488281</ele>
        <time>2016-05-06T07:37:29Z</time>
      </trkpt>
      <trkpt lat="44.52206" lon="5.97344">
        <ele>1337.1999511719</ele>
        <time>2016-05-06T07:37:30Z</time>
      </trkpt>
      <trkpt lat="44.52206" lon="5.97344">
        <ele>1337.5999755859</ele>
        <time>2016-05-06T07:37:31Z</time>
      </trkpt>
      <trkpt lat="44.52205" lon="5.97345">
        <ele>1338</ele>
        <time>2016-05-06T07:37:32Z</time>
      </trkpt>
      <trkpt lat="44.52197" lon="5.97351">
        <ele>1338.4000244141</ele>
        <time>2016-05-06T07:37:39Z</time>
      </trkpt>
      <trkpt lat="44.52193" lon="5.97353">
        <ele>1338.8000488281</ele>
        <time>2016-05-06T07:37:40Z</time>
      </trkpt>
      <trkpt lat="44.52191" lon="5.97354">
        <ele>1339.1999511719</ele>
        <time>2016-05-06T07:37:41Z</time>
      </trkpt>
      <trkpt lat="44.5219" lon="5.97356">
        <ele>1339.5999755859</ele>
        <time>2016-05-06T07:37:42Z</time>
      </trkpt>
      <trkpt lat="44.52188" lon="5.97357">
        <ele>1340</ele>
        <time>2016-05-06T07:37:43Z</time>
      </trkpt>
      <trkpt lat="44.52182" lon="5.97361">
        <ele>1340.4000244141</ele>
        <time>2016-05-06T07:37:50Z</time>
      </trkpt>
      <trkpt lat="44.52181" lon="5.97362">
        <ele>1341</ele>
        <time>2016-05-06T07:37:51Z</time>
      </trkpt>
      <trkpt lat="44.52181" lon="5.97362">
        <ele>1341.4000244141</ele>
        <time>2016-05-06T07:37:52Z</time>
      </trkpt>
      <trkpt lat="44.5218" lon="5.97362">
        <ele>1341.8000488281</ele>
        <time>2016-05-06T07:37:53Z</time>
      </trkpt>
      <trkpt lat="44.52179" lon="5.97363">
        <ele>1342.1999511719</ele>
        <time>2016-05-06T07:37:54Z</time>
      </trkpt>
      <trkpt lat="44.52178" lon="5.97364">
        <ele>1342.1999511719</ele>
        <time>2016-05-06T07:37:56Z</time>
      </trkpt>
      <trkpt lat="44.52166" lon="5.97371">
        <ele>1342.5999755859</ele>
        <time>2016-05-06T07:38:05Z</time>
      </trkpt>
      <trkpt lat="44.52164" lon="5.97371">
        <ele>1343</ele>
        <time>2016-05-06T07:38:06Z</time>
      </trkpt>
      <trkpt lat="44.52163" lon="5.97371">
        <ele>1343.4000244141</ele>
        <time>2016-05-06T07:38:07Z</time>
      </trkpt>
      <trkpt lat="44.52162" lon="5.97371">
        <ele>1343.8000488281</ele>
        <time>2016-05-06T07:38:08Z</time>
      </trkpt>
      <trkpt lat="44.52161" lon="5.97371">
        <ele>1344.1999511719</ele>
        <time>2016-05-06T07:38:09Z</time>
      </trkpt>
      <trkpt lat="44.5215" lon="5.97375">
        <ele>1344.5999755859</ele>
        <time>2016-05-06T07:38:16Z</time>
      </trkpt>
      <trkpt lat="44.52149" lon="5.97375">
        <ele>1345</ele>
        <time>2016-05-06T07:38:17Z</time>
      </trkpt>
      <trkpt lat="44.52148" lon="5.97375">
        <ele>1345.4000244141</ele>
        <time>2016-05-06T07:38:18Z</time>
      </trkpt>
      <trkpt lat="44.52147" lon="5.97375">
        <ele>1345.8000488281</ele>
        <time>2016-05-06T07:38:19Z</time>
      </trkpt>
      <trkpt lat="44.52145" lon="5.97376">
        <ele>1346.4000244141</ele>
        <time>2016-05-06T07:38:20Z</time>
      </trkpt>
      <trkpt lat="44.52143" lon="5.97377">
        <ele>1346.4000244141</ele>
        <time>2016-05-06T07:38:22Z</time>
      </trkpt>
      <trkpt lat="44.52128" lon="5.97383">
        <ele>1346.8000488281</ele>
        <time>2016-05-06T07:38:32Z</time>
      </trkpt>
      <trkpt lat="44.52127" lon="5.97384">
        <ele>1347.4000244141</ele>
        <time>2016-05-06T07:38:33Z</time>
      </trkpt>
      <trkpt lat="44.52127" lon="5.97385">
        <ele>1347.8000488281</ele>
        <time>2016-05-06T07:38:34Z</time>
      </trkpt>
      <trkpt lat="44.52126" lon="5.97385">
        <ele>1348.4000244141</ele>
        <time>2016-05-06T07:38:35Z</time>
      </trkpt>
      <trkpt lat="44.52126" lon="5.97386">
        <ele>1348.8000488281</ele>
        <time>2016-05-06T07:38:36Z</time>
      </trkpt>
      <trkpt lat="44.52121" lon="5.97392">
        <ele>1349.1999511719</ele>
        <time>2016-05-06T07:38:44Z</time>
      </trkpt>
      <trkpt lat="44.5212" lon="5.97392">
        <ele>1349.8000488281</ele>
        <time>2016-05-06T07:38:45Z</time>
      </trkpt>
      <trkpt lat="44.52119" lon="5.97392">
        <ele>1350.1999511719</ele>
        <time>2016-05-06T07:38:46Z</time>
      </trkpt>
      <trkpt lat="44.52118" lon="5.97392">
        <ele>1350.5999755859</ele>
        <time>2016-05-06T07:38:47Z</time>
      </trkpt>
      <trkpt lat="44.52116" lon="5.97393">
        <ele>1351</ele>
        <time>2016-05-06T07:38:48Z</time>
      </trkpt>
      <trkpt lat="44.52111" lon="5.97395">
        <ele>1351</ele>
        <time>2016-05-06T07:38:55Z</time>
      </trkpt>
      <trkpt lat="44.5211" lon="5.97392">
        <ele>1351.4000244141</ele>
        <time>2016-05-06T07:39:01Z</time>
      </trkpt>
      <trkpt lat="44.5211" lon="5.97392">
        <ele>1352</ele>
        <time>2016-05-06T07:39:02Z</time>
      </trkpt>
      <trkpt lat="44.52109" lon="5.97391">
        <ele>1352.4000244141</ele>
        <time>2016-05-06T07:39:03Z</time>
      </trkpt>
      <trkpt lat="44.52108" lon="5.97391">
        <ele>1352.8000488281</ele>
        <time>2016-05-06T07:39:04Z</time>
      </trkpt>
      <trkpt lat="44.52107" lon="5.97391">
        <ele>1353.1999511719</ele>
        <time>2016-05-06T07:39:05Z</time>
      </trkpt>
      <trkpt lat="44.52106" lon="5.9739">
        <ele>1353.1999511719</ele>
        <time>2016-05-06T07:39:06Z</time>
      </trkpt>
      <trkpt lat="44.52102" lon="5.97387">
        <ele>1353.5999755859</ele>
        <time>2016-05-06T07:39:13Z</time>
      </trkpt>
      <trkpt lat="44.52101" lon="5.97387">
        <ele>1354</ele>
        <time>2016-05-06T07:39:14Z</time>
      </trkpt>
      <trkpt lat="44.521" lon="5.97386">
        <ele>1354.4000244141</ele>
        <time>2016-05-06T07:39:15Z</time>
      </trkpt>
      <trkpt lat="44.521" lon="5.97385">
        <ele>1354.8000488281</ele>
        <time>2016-05-06T07:39:16Z</time>
      </trkpt>
      <trkpt lat="44.52099" lon="5.97385">
        <ele>1355.4000244141</ele>
        <time>2016-05-06T07:39:17Z</time>
      </trkpt>
      <trkpt lat="44.52099" lon="5.97383">
        <ele>1355.4000244141</ele>
        <time>2016-05-06T07:39:18Z</time>
      </trkpt>
      <trkpt lat="44.52097" lon="5.97382">
        <ele>1355.4000244141</ele>
        <time>2016-05-06T07:39:27Z</time>
      </trkpt>
      <trkpt lat="44.52095" lon="5.9738">
        <ele>1355.8000488281</ele>
        <time>2016-05-06T07:39:36Z</time>
      </trkpt>
      <trkpt lat="44.52095" lon="5.97379">
        <ele>1356.1999511719</ele>
        <time>2016-05-06T07:39:37Z</time>
      </trkpt>
      <trkpt lat="44.52095" lon="5.97378">
        <ele>1356.5999755859</ele>
        <time>2016-05-06T07:39:38Z</time>
      </trkpt>
      <trkpt lat="44.52095" lon="5.97377">
        <ele>1357.1999511719</ele>
        <time>2016-05-06T07:39:39Z</time>
      </trkpt>
      <trkpt lat="44.52095" lon="5.97377">
        <ele>1357.5999755859</ele>
        <time>2016-05-06T07:39:40Z</time>
      </trkpt>
      <trkpt lat="44.52095" lon="5.97376">
        <ele>1357.5999755859</ele>
        <time>2016-05-06T07:39:41Z</time>
      </trkpt>
      <trkpt lat="44.52095" lon="5.97373">
        <ele>1358</ele>
        <time>2016-05-06T07:39:47Z</time>
      </trkpt>
      <trkpt lat="44.52095" lon="5.97373">
        <ele>1358.4000244141</ele>
        <time>2016-05-06T07:39:48Z</time>
      </trkpt>
      <trkpt lat="44.52095" lon="5.97373">
        <ele>1358.8000488281</ele>
        <time>2016-05-06T07:39:49Z</time>
      </trkpt>
      <trkpt lat="44.52095" lon="5.97372">
        <ele>1359.1999511719</ele>
        <time>2016-05-06T07:39:50Z</time>
      </trkpt>
      <trkpt lat="44.52095" lon="5.97372">
        <ele>1359.5999755859</ele>
        <time>2016-05-06T07:39:51Z</time>
      </trkpt>
      <trkpt lat="44.52095" lon="5.97371">
        <ele>1359.5999755859</ele>
        <time>2016-05-06T07:39:54Z</time>
      </trkpt>
      <trkpt lat="44.52094" lon="5.97365">
        <ele>1360</ele>
        <time>2016-05-06T07:40:01Z</time>
      </trkpt>
      <trkpt lat="44.52094" lon="5.97364">
        <ele>1360.5999755859</ele>
        <time>2016-05-06T07:40:02Z</time>
      </trkpt>
      <trkpt lat="44.52094" lon="5.97363">
        <ele>1361</ele>
        <time>2016-05-06T07:40:03Z</time>
      </trkpt>
      <trkpt lat="44.52093" lon="5.97362">
        <ele>1361.4000244141</ele>
        <time>2016-05-06T07:40:04Z</time>
      </trkpt>
      <trkpt lat="44.52093" lon="5.97361">
        <ele>1361.8000488281</ele>
        <time>2016-05-06T07:40:05Z</time>
      </trkpt>
      <trkpt lat="44.52092" lon="5.97359">
        <ele>1361.8000488281</ele>
        <time>2016-05-06T07:40:08Z</time>
      </trkpt>
      <trkpt lat="44.5209" lon="5.97356">
        <ele>1362.1999511719</ele>
        <time>2016-05-06T07:40:12Z</time>
      </trkpt>
      <trkpt lat="44.5209" lon="5.97356">
        <ele>1362.5999755859</ele>
        <time>2016-05-06T07:40:13Z</time>
      </trkpt>
      <trkpt lat="44.52089" lon="5.97355">
        <ele>1363</ele>
        <time>2016-05-06T07:40:14Z</time>
      </trkpt>
      <trkpt lat="44.5209" lon="5.97355">
        <ele>1363.4000244141</ele>
        <time>2016-05-06T07:40:15Z</time>
      </trkpt>
      <trkpt lat="44.52089" lon="5.97354">
        <ele>1363.8000488281</ele>
        <time>2016-05-06T07:40:16Z</time>
      </trkpt>
      <trkpt lat="44.5209" lon="5.9735">
        <ele>1364.4000244141</ele>
        <time>2016-05-06T07:40:25Z</time>
      </trkpt>
      <trkpt lat="44.5209" lon="5.9735">
        <ele>1364.8000488281</ele>
        <time>2016-05-06T07:40:26Z</time>
      </trkpt>
      <trkpt lat="44.5209" lon="5.9735">
        <ele>1365.1999511719</ele>
        <time>2016-05-06T07:40:27Z</time>
      </trkpt>
      <trkpt lat="44.5209" lon="5.97349">
        <ele>1365.5999755859</ele>
        <time>2016-05-06T07:40:28Z</time>
      </trkpt>
      <trkpt lat="44.5209" lon="5.97348">
        <ele>1366.1999511719</ele>
        <time>2016-05-06T07:40:29Z</time>
      </trkpt>
      <trkpt lat="44.52088" lon="5.97341">
        <ele>1366.5999755859</ele>
        <time>2016-05-06T07:40:38Z</time>
      </trkpt>
      <trkpt lat="44.52088" lon="5.9734">
        <ele>1367</ele>
        <time>2016-05-06T07:40:39Z</time>
      </trkpt>
      <trkpt lat="44.52088" lon="5.9734">
        <ele>1367.4000244141</ele>
        <time>2016-05-06T07:40:40Z</time>
      </trkpt>
      <trkpt lat="44.52088" lon="5.9734">
        <ele>1367.8000488281</ele>
        <time>2016-05-06T07:40:41Z</time>
      </trkpt>
      <trkpt lat="44.52088" lon="5.97339">
        <ele>1368.1999511719</ele>
        <time>2016-05-06T07:40:42Z</time>
      </trkpt>
      <trkpt lat="44.52087" lon="5.97334">
        <ele>1368.5999755859</ele>
        <time>2016-05-06T07:40:52Z</time>
      </trkpt>
      <trkpt lat="44.52086" lon="5.97334">
        <ele>1369</ele>
        <time>2016-05-06T07:40:53Z</time>
      </trkpt>
      <trkpt lat="44.52086" lon="5.97333">
        <ele>1369.4000244141</ele>
        <time>2016-05-06T07:40:54Z</time>
      </trkpt>
      <trkpt lat="44.52086" lon="5.97332">
        <ele>1369.8000488281</ele>
        <time>2016-05-06T07:40:55Z</time>
      </trkpt>
      <trkpt lat="44.52087" lon="5.97332">
        <ele>1370.1999511719</ele>
        <time>2016-05-06T07:40:56Z</time>
      </trkpt>
      <trkpt lat="44.52088" lon="5.97327">
        <ele>1370.8000488281</ele>
        <time>2016-05-06T07:41:09Z</time>
      </trkpt>
      <trkpt lat="44.52088" lon="5.97327">
        <ele>1371.1999511719</ele>
        <time>2016-05-06T07:41:10Z</time>
      </trkpt>
      <trkpt lat="44.52088" lon="5.97326">
        <ele>1371.5999755859</ele>
        <time>2016-05-06T07:41:11Z</time>
      </trkpt>
      <trkpt lat="44.52087" lon="5.97325">
        <ele>1372</ele>
        <time>2016-05-06T07:41:12Z</time>
      </trkpt>
      <trkpt lat="44.52087" lon="5.97325">
        <ele>1372.4000244141</ele>
        <time>2016-05-06T07:41:13Z</time>
      </trkpt>
      <trkpt lat="44.52087" lon="5.97322">
        <ele>1372.4000244141</ele>
        <time>2016-05-06T07:41:18Z</time>
      </trkpt>
      <trkpt lat="44.52087" lon="5.97321">
        <ele>1372.8000488281</ele>
        <time>2016-05-06T07:41:21Z</time>
      </trkpt>
      <trkpt lat="44.52087" lon="5.9732">
        <ele>1373.1999511719</ele>
        <time>2016-05-06T07:41:22Z</time>
      </trkpt>
      <trkpt lat="44.52087" lon="5.97319">
        <ele>1373.8000488281</ele>
        <time>2016-05-06T07:41:23Z</time>
      </trkpt>
      <trkpt lat="44.52087" lon="5.97318">
        <ele>1374.1999511719</ele>
        <time>2016-05-06T07:41:24Z</time>
      </trkpt>
      <trkpt lat="44.52087" lon="5.97318">
        <ele>1374.5999755859</ele>
        <time>2016-05-06T07:41:25Z</time>
      </trkpt>
      <trkpt lat="44.52088" lon="5.97313">
        <ele>1374.5999755859</ele>
        <time>2016-05-06T07:41:32Z</time>
      </trkpt>
      <trkpt lat="44.52088" lon="5.97312">
        <ele>1375</ele>
        <time>2016-05-06T07:41:33Z</time>
      </trkpt>
      <trkpt lat="44.52088" lon="5.97311">
        <ele>1375.4000244141</ele>
        <time>2016-05-06T07:41:34Z</time>
      </trkpt>
      <trkpt lat="44.52088" lon="5.9731">
        <ele>1375.8000488281</ele>
        <time>2016-05-06T07:41:35Z</time>
      </trkpt>
      <trkpt lat="44.52088" lon="5.9731">
        <ele>1376.1999511719</ele>
        <time>2016-05-06T07:41:36Z</time>
      </trkpt>
      <trkpt lat="44.52088" lon="5.97309">
        <ele>1376.8000488281</ele>
        <time>2016-05-06T07:41:37Z</time>
      </trkpt>
      <trkpt lat="44.52088" lon="5.97308">
        <ele>1376.8000488281</ele>
        <time>2016-05-06T07:41:40Z</time>
      </trkpt>
      <trkpt lat="44.52088" lon="5.97304">
        <ele>1377.1999511719</ele>
        <time>2016-05-06T07:41:51Z</time>
      </trkpt>
      <trkpt lat="44.52088" lon="5.97303">
        <ele>1377.5999755859</ele>
        <time>2016-05-06T07:41:52Z</time>
      </trkpt>
      <trkpt lat="44.52088" lon="5.97303">
        <ele>1378</ele>
        <time>2016-05-06T07:41:53Z</time>
      </trkpt>
      <trkpt lat="44.52088" lon="5.97303">
        <ele>1378.4000244141</ele>
        <time>2016-05-06T07:41:54Z</time>
      </trkpt>
      <trkpt lat="44.52088" lon="5.97302">
        <ele>1378.8000488281</ele>
        <time>2016-05-06T07:41:55Z</time>
      </trkpt>
      <trkpt lat="44.5209" lon="5.97296">
        <ele>1379.4000244141</ele>
        <time>2016-05-06T07:42:02Z</time>
      </trkpt>
      <trkpt lat="44.5209" lon="5.97295">
        <ele>1379.8000488281</ele>
        <time>2016-05-06T07:42:03Z</time>
      </trkpt>
      <trkpt lat="44.52091" lon="5.97295">
        <ele>1380.1999511719</ele>
        <time>2016-05-06T07:42:04Z</time>
      </trkpt>
      <trkpt lat="44.52091" lon="5.97294">
        <ele>1380.5999755859</ele>
        <time>2016-05-06T07:42:05Z</time>
      </trkpt>
      <trkpt lat="44.52091" lon="5.97293">
        <ele>1381</ele>
        <time>2016-05-06T07:42:06Z</time>
      </trkpt>
      <trkpt lat="44.52092" lon="5.97289">
        <ele>1381.4000244141</ele>
        <time>2016-05-06T07:42:12Z</time>
      </trkpt>
      <trkpt lat="44.52092" lon="5.97287">
        <ele>1381.8000488281</ele>
        <time>2016-05-06T07:42:13Z</time>
      </trkpt>
      <trkpt lat="44.52092" lon="5.97287">
        <ele>1382.1999511719</ele>
        <time>2016-05-06T07:42:14Z</time>
      </trkpt>
      <trkpt lat="44.52092" lon="5.97286">
        <ele>1382.5999755859</ele>
        <time>2016-05-06T07:42:15Z</time>
      </trkpt>
      <trkpt lat="44.52092" lon="5.97285">
        <ele>1383</ele>
        <time>2016-05-06T07:42:16Z</time>
      </trkpt>
      <trkpt lat="44.52093" lon="5.97283">
        <ele>1383</ele>
        <time>2016-05-06T07:42:19Z</time>
      </trkpt>
      <trkpt lat="44.52097" lon="5.97271">
        <ele>1383.4000244141</ele>
        <time>2016-05-06T07:42:30Z</time>
      </trkpt>
      <trkpt lat="44.52097" lon="5.9727">
        <ele>1384</ele>
        <time>2016-05-06T07:42:31Z</time>
      </trkpt>
      <trkpt lat="44.52098" lon="5.97269">
        <ele>1384.4000244141</ele>
        <time>2016-05-06T07:42:32Z</time>
      </trkpt>
      <trkpt lat="44.52098" lon="5.97268">
        <ele>1385</ele>
        <time>2016-05-06T07:42:33Z</time>
      </trkpt>
      <trkpt lat="44.52099" lon="5.97268">
        <ele>1385.4000244141</ele>
        <time>2016-05-06T07:42:34Z</time>
      </trkpt>
      <trkpt lat="44.52104" lon="5.9726">
        <ele>1385.4000244141</ele>
        <time>2016-05-06T07:42:45Z</time>
      </trkpt>
      <trkpt lat="44.52105" lon="5.97258">
        <ele>1385.8000488281</ele>
        <time>2016-05-06T07:42:47Z</time>
      </trkpt>
      <trkpt lat="44.52105" lon="5.97257">
        <ele>1386.1999511719</ele>
        <time>2016-05-06T07:42:48Z</time>
      </trkpt>
      <trkpt lat="44.52106" lon="5.97256">
        <ele>1386.5999755859</ele>
        <time>2016-05-06T07:42:49Z</time>
      </trkpt>
      <trkpt lat="44.52107" lon="5.97256">
        <ele>1387.1999511719</ele>
        <time>2016-05-06T07:42:50Z</time>
      </trkpt>
      <trkpt lat="44.52107" lon="5.97255">
        <ele>1387.5999755859</ele>
        <time>2016-05-06T07:42:51Z</time>
      </trkpt>
      <trkpt lat="44.5211" lon="5.97248">
        <ele>1387.5999755859</ele>
        <time>2016-05-06T07:42:58Z</time>
      </trkpt>
      <trkpt lat="44.52112" lon="5.97245">
        <ele>1387.5999755859</ele>
        <time>2016-05-06T07:43:06Z</time>
      </trkpt>
      <trkpt lat="44.52118" lon="5.97235">
        <ele>1387.5999755859</ele>
        <time>2016-05-06T07:43:13Z</time>
      </trkpt>
      <trkpt lat="44.52119" lon="5.97233">
        <ele>1388</ele>
        <time>2016-05-06T07:43:15Z</time>
      </trkpt>
      <trkpt lat="44.52119" lon="5.97232">
        <ele>1388.4000244141</ele>
        <time>2016-05-06T07:43:16Z</time>
      </trkpt>
      <trkpt lat="44.52119" lon="5.97232">
        <ele>1388.8000488281</ele>
        <time>2016-05-06T07:43:17Z</time>
      </trkpt>
      <trkpt lat="44.52119" lon="5.97232">
        <ele>1389.1999511719</ele>
        <time>2016-05-06T07:43:18Z</time>
      </trkpt>
      <trkpt lat="44.52119" lon="5.97232">
        <ele>1389.5999755859</ele>
        <time>2016-05-06T07:43:19Z</time>
      </trkpt>
      <trkpt lat="44.52121" lon="5.97231">
        <ele>1389.5999755859</ele>
        <time>2016-05-06T07:43:22Z</time>
      </trkpt>
      <trkpt lat="44.52124" lon="5.97222">
        <ele>1389.5999755859</ele>
        <time>2016-05-06T07:43:31Z</time>
      </trkpt>
      <trkpt lat="44.52125" lon="5.97217">
        <ele>1390</ele>
        <time>2016-05-06T07:43:35Z</time>
      </trkpt>
      <trkpt lat="44.52126" lon="5.97216">
        <ele>1390.4000244141</ele>
        <time>2016-05-06T07:43:36Z</time>
      </trkpt>
      <trkpt lat="44.52127" lon="5.97215">
        <ele>1390.8000488281</ele>
        <time>2016-05-06T07:43:37Z</time>
      </trkpt>
      <trkpt lat="44.52128" lon="5.97214">
        <ele>1391.1999511719</ele>
        <time>2016-05-06T07:43:38Z</time>
      </trkpt>
      <trkpt lat="44.52129" lon="5.97212">
        <ele>1391.5999755859</ele>
        <time>2016-05-06T07:43:39Z</time>
      </trkpt>
      <trkpt lat="44.52131" lon="5.97208">
        <ele>1391.5999755859</ele>
        <time>2016-05-06T07:43:43Z</time>
      </trkpt>
      <trkpt lat="44.52132" lon="5.97206">
        <ele>1392</ele>
        <time>2016-05-06T07:43:45Z</time>
      </trkpt>
      <trkpt lat="44.52132" lon="5.97206">
        <ele>1392.4000244141</ele>
        <time>2016-05-06T07:43:46Z</time>
      </trkpt>
      <trkpt lat="44.52132" lon="5.97206">
        <ele>1392.8000488281</ele>
        <time>2016-05-06T07:43:47Z</time>
      </trkpt>
      <trkpt lat="44.52132" lon="5.97206">
        <ele>1393.1999511719</ele>
        <time>2016-05-06T07:43:48Z</time>
      </trkpt>
      <trkpt lat="44.52133" lon="5.97206">
        <ele>1393.8000488281</ele>
        <time>2016-05-06T07:43:49Z</time>
      </trkpt>
      <trkpt lat="44.52133" lon="5.97206">
        <ele>1393.8000488281</ele>
        <time>2016-05-06T07:43:50Z</time>
      </trkpt>
      <trkpt lat="44.52137" lon="5.97199">
        <ele>1393.8000488281</ele>
        <time>2016-05-06T07:43:57Z</time>
      </trkpt>
      <trkpt lat="44.52137" lon="5.97187">
        <ele>1394.1999511719</ele>
        <time>2016-05-06T07:44:05Z</time>
      </trkpt>
      <trkpt lat="44.52137" lon="5.97186">
        <ele>1394.5999755859</ele>
        <time>2016-05-06T07:44:06Z</time>
      </trkpt>
      <trkpt lat="44.52137" lon="5.97184">
        <ele>1395</ele>
        <time>2016-05-06T07:44:07Z</time>
      </trkpt>
      <trkpt lat="44.52137" lon="5.97183">
        <ele>1395.4000244141</ele>
        <time>2016-05-06T07:44:08Z</time>
      </trkpt>
      <trkpt lat="44.52138" lon="5.97181">
        <ele>1395.8000488281</ele>
        <time>2016-05-06T07:44:09Z</time>
      </trkpt>
      <trkpt lat="44.52137" lon="5.97166">
        <ele>1395.8000488281</ele>
        <time>2016-05-06T07:44:19Z</time>
      </trkpt>
      <trkpt lat="44.52137" lon="5.97165">
        <ele>1396.4000244141</ele>
        <time>2016-05-06T07:44:20Z</time>
      </trkpt>
      <trkpt lat="44.52136" lon="5.97163">
        <ele>1396.8000488281</ele>
        <time>2016-05-06T07:44:21Z</time>
      </trkpt>
      <trkpt lat="44.52136" lon="5.97162">
        <ele>1397.1999511719</ele>
        <time>2016-05-06T07:44:22Z</time>
      </trkpt>
      <trkpt lat="44.52136" lon="5.97161">
        <ele>1397.5999755859</ele>
        <time>2016-05-06T07:44:23Z</time>
      </trkpt>
      <trkpt lat="44.52136" lon="5.97159">
        <ele>1398</ele>
        <time>2016-05-06T07:44:24Z</time>
      </trkpt>
      <trkpt lat="44.52137" lon="5.97151">
        <ele>1398.4000244141</ele>
        <time>2016-05-06T07:44:30Z</time>
      </trkpt>
      <trkpt lat="44.52138" lon="5.97149">
        <ele>1399</ele>
        <time>2016-05-06T07:44:31Z</time>
      </trkpt>
      <trkpt lat="44.52138" lon="5.97147">
        <ele>1399.4000244141</ele>
        <time>2016-05-06T07:44:32Z</time>
      </trkpt>
      <trkpt lat="44.52138" lon="5.97146">
        <ele>1399.8000488281</ele>
        <time>2016-05-06T07:44:33Z</time>
      </trkpt>
      <trkpt lat="44.52139" lon="5.97145">
        <ele>1400.1999511719</ele>
        <time>2016-05-06T07:44:34Z</time>
      </trkpt>
      <trkpt lat="44.52142" lon="5.97134">
        <ele>1400.5999755859</ele>
        <time>2016-05-06T07:44:43Z</time>
      </trkpt>
      <trkpt lat="44.52142" lon="5.97132">
        <ele>1401</ele>
        <time>2016-05-06T07:44:44Z</time>
      </trkpt>
      <trkpt lat="44.52143" lon="5.97131">
        <ele>1401.4000244141</ele>
        <time>2016-05-06T07:44:45Z</time>
      </trkpt>
      <trkpt lat="44.52143" lon="5.9713">
        <ele>1401.8000488281</ele>
        <time>2016-05-06T07:44:46Z</time>
      </trkpt>
      <trkpt lat="44.52143" lon="5.97128">
        <ele>1402.4000244141</ele>
        <time>2016-05-06T07:44:47Z</time>
      </trkpt>
      <trkpt lat="44.52146" lon="5.97112">
        <ele>1402.8000488281</ele>
        <time>2016-05-06T07:44:56Z</time>
      </trkpt>
      <trkpt lat="44.52146" lon="5.9711">
        <ele>1403.1999511719</ele>
        <time>2016-05-06T07:44:57Z</time>
      </trkpt>
      <trkpt lat="44.52147" lon="5.97109">
        <ele>1403.5999755859</ele>
        <time>2016-05-06T07:44:58Z</time>
      </trkpt>
      <trkpt lat="44.52147" lon="5.97107">
        <ele>1404</ele>
        <time>2016-05-06T07:44:59Z</time>
      </trkpt>
      <trkpt lat="44.52147" lon="5.97106">
        <ele>1404.4000244141</ele>
        <time>2016-05-06T07:45:00Z</time>
      </trkpt>
      <trkpt lat="44.52147" lon="5.97093">
        <ele>1404.8000488281</ele>
        <time>2016-05-06T07:45:09Z</time>
      </trkpt>
      <trkpt lat="44.52147" lon="5.97092">
        <ele>1405.1999511719</ele>
        <time>2016-05-06T07:45:10Z</time>
      </trkpt>
      <trkpt lat="44.52147" lon="5.9709">
        <ele>1405.5999755859</ele>
        <time>2016-05-06T07:45:11Z</time>
      </trkpt>
      <trkpt lat="44.52147" lon="5.97089">
        <ele>1406.1999511719</ele>
        <time>2016-05-06T07:45:12Z</time>
      </trkpt>
      <trkpt lat="44.52148" lon="5.97087">
        <ele>1406.5999755859</ele>
        <time>2016-05-06T07:45:13Z</time>
      </trkpt>
      <trkpt lat="44.52149" lon="5.97077">
        <ele>1407</ele>
        <time>2016-05-06T07:45:21Z</time>
      </trkpt>
      <trkpt lat="44.52149" lon="5.97075">
        <ele>1407.4000244141</ele>
        <time>2016-05-06T07:45:22Z</time>
      </trkpt>
      <trkpt lat="44.52149" lon="5.97074">
        <ele>1407.8000488281</ele>
        <time>2016-05-06T07:45:23Z</time>
      </trkpt>
      <trkpt lat="44.52148" lon="5.97073">
        <ele>1408.1999511719</ele>
        <time>2016-05-06T07:45:24Z</time>
      </trkpt>
      <trkpt lat="44.52148" lon="5.97072">
        <ele>1408.5999755859</ele>
        <time>2016-05-06T07:45:25Z</time>
      </trkpt>
      <trkpt lat="44.52148" lon="5.97069">
        <ele>1408.5999755859</ele>
        <time>2016-05-06T07:45:28Z</time>
      </trkpt>
      <trkpt lat="44.52149" lon="5.97058">
        <ele>1409</ele>
        <time>2016-05-06T07:45:36Z</time>
      </trkpt>
      <trkpt lat="44.52148" lon="5.97056">
        <ele>1409.4000244141</ele>
        <time>2016-05-06T07:45:37Z</time>
      </trkpt>
      <trkpt lat="44.52148" lon="5.97055">
        <ele>1410</ele>
        <time>2016-05-06T07:45:38Z</time>
      </trkpt>
      <trkpt lat="44.52148" lon="5.97053">
        <ele>1410.4000244141</ele>
        <time>2016-05-06T07:45:39Z</time>
      </trkpt>
      <trkpt lat="44.52149" lon="5.97051">
        <ele>1410.8000488281</ele>
        <time>2016-05-06T07:45:40Z</time>
      </trkpt>
      <trkpt lat="44.52153" lon="5.97042">
        <ele>1410.8000488281</ele>
        <time>2016-05-06T07:45:45Z</time>
      </trkpt>
      <trkpt lat="44.52154" lon="5.97039">
        <ele>1411.1999511719</ele>
        <time>2016-05-06T07:45:48Z</time>
      </trkpt>
      <trkpt lat="44.52155" lon="5.97037">
        <ele>1411.5999755859</ele>
        <time>2016-05-06T07:45:49Z</time>
      </trkpt>
      <trkpt lat="44.52155" lon="5.97036">
        <ele>1412</ele>
        <time>2016-05-06T07:45:50Z</time>
      </trkpt>
      <trkpt lat="44.52155" lon="5.97034">
        <ele>1412.4000244141</ele>
        <time>2016-05-06T07:45:51Z</time>
      </trkpt>
      <trkpt lat="44.52156" lon="5.97033">
        <ele>1412.8000488281</ele>
        <time>2016-05-06T07:45:52Z</time>
      </trkpt>
      <trkpt lat="44.52157" lon="5.97025">
        <ele>1412.8000488281</ele>
        <time>2016-05-06T07:45:57Z</time>
      </trkpt>
      <trkpt lat="44.52158" lon="5.97015">
        <ele>1413.1999511719</ele>
        <time>2016-05-06T07:46:06Z</time>
      </trkpt>
      <trkpt lat="44.52158" lon="5.97014">
        <ele>1414.1999511719</ele>
        <time>2016-05-06T07:46:07Z</time>
      </trkpt>
      <trkpt lat="44.52159" lon="5.97012">
        <ele>1415.1999511719</ele>
        <time>2016-05-06T07:46:09Z</time>
      </trkpt>
      <trkpt lat="44.52162" lon="5.96997">
        <ele>1415.5999755859</ele>
        <time>2016-05-06T07:46:17Z</time>
      </trkpt>
      <trkpt lat="44.52162" lon="5.96995">
        <ele>1416</ele>
        <time>2016-05-06T07:46:18Z</time>
      </trkpt>
      <trkpt lat="44.52163" lon="5.96994">
        <ele>1416.4000244141</ele>
        <time>2016-05-06T07:46:19Z</time>
      </trkpt>
      <trkpt lat="44.52163" lon="5.9699">
        <ele>1416.8000488281</ele>
        <time>2016-05-06T07:46:22Z</time>
      </trkpt>
      <trkpt lat="44.52163" lon="5.96989">
        <ele>1417.1999511719</ele>
        <time>2016-05-06T07:46:23Z</time>
      </trkpt>
      <trkpt lat="44.52166" lon="5.96979">
        <ele>1417.1999511719</ele>
        <time>2016-05-06T07:46:32Z</time>
      </trkpt>
      <trkpt lat="44.52166" lon="5.96978">
        <ele>1417.8000488281</ele>
        <time>2016-05-06T07:46:33Z</time>
      </trkpt>
      <trkpt lat="44.52166" lon="5.96976">
        <ele>1418.1999511719</ele>
        <time>2016-05-06T07:46:35Z</time>
      </trkpt>
      <trkpt lat="44.52166" lon="5.96975">
        <ele>1418.5999755859</ele>
        <time>2016-05-06T07:46:36Z</time>
      </trkpt>
      <trkpt lat="44.52166" lon="5.96974">
        <ele>1419</ele>
        <time>2016-05-06T07:46:37Z</time>
      </trkpt>
      <trkpt lat="44.52167" lon="5.96973">
        <ele>1419.4000244141</ele>
        <time>2016-05-06T07:46:38Z</time>
      </trkpt>
      <trkpt lat="44.52171" lon="5.96965">
        <ele>1419.8000488281</ele>
        <time>2016-05-06T07:46:43Z</time>
      </trkpt>
      <trkpt lat="44.52171" lon="5.96963">
        <ele>1420.1999511719</ele>
        <time>2016-05-06T07:46:44Z</time>
      </trkpt>
      <trkpt lat="44.52171" lon="5.96961">
        <ele>1420.5999755859</ele>
        <time>2016-05-06T07:46:45Z</time>
      </trkpt>
      <trkpt lat="44.52171" lon="5.96959">
        <ele>1421</ele>
        <time>2016-05-06T07:46:46Z</time>
      </trkpt>
      <trkpt lat="44.52171" lon="5.96958">
        <ele>1421.4000244141</ele>
        <time>2016-05-06T07:46:47Z</time>
      </trkpt>
      <trkpt lat="44.52173" lon="5.96949">
        <ele>1421.4000244141</ele>
        <time>2016-05-06T07:46:55Z</time>
      </trkpt>
      <trkpt lat="44.52173" lon="5.96944">
        <ele>1421.8000488281</ele>
        <time>2016-05-06T07:46:58Z</time>
      </trkpt>
      <trkpt lat="44.52174" lon="5.96943">
        <ele>1422.1999511719</ele>
        <time>2016-05-06T07:46:59Z</time>
      </trkpt>
      <trkpt lat="44.52174" lon="5.96941">
        <ele>1422.5999755859</ele>
        <time>2016-05-06T07:47:00Z</time>
      </trkpt>
      <trkpt lat="44.52175" lon="5.9694">
        <ele>1423</ele>
        <time>2016-05-06T07:47:01Z</time>
      </trkpt>
      <trkpt lat="44.52175" lon="5.96938">
        <ele>1423.4000244141</ele>
        <time>2016-05-06T07:47:02Z</time>
      </trkpt>
      <trkpt lat="44.52178" lon="5.96929">
        <ele>1423.4000244141</ele>
        <time>2016-05-06T07:47:08Z</time>
      </trkpt>
      <trkpt lat="44.52179" lon="5.96927">
        <ele>1423.8000488281</ele>
        <time>2016-05-06T07:47:10Z</time>
      </trkpt>
      <trkpt lat="44.52179" lon="5.96926">
        <ele>1424.4000244141</ele>
        <time>2016-05-06T07:47:11Z</time>
      </trkpt>
      <trkpt lat="44.52179" lon="5.96925">
        <ele>1424.8000488281</ele>
        <time>2016-05-06T07:47:12Z</time>
      </trkpt>
      <trkpt lat="44.52179" lon="5.96923">
        <ele>1425.1999511719</ele>
        <time>2016-05-06T07:47:13Z</time>
      </trkpt>
      <trkpt lat="44.52179" lon="5.96922">
        <ele>1425.5999755859</ele>
        <time>2016-05-06T07:47:14Z</time>
      </trkpt>
      <trkpt lat="44.5218" lon="5.96913">
        <ele>1425.5999755859</ele>
        <time>2016-05-06T07:47:21Z</time>
      </trkpt>
      <trkpt lat="44.5218" lon="5.96907">
        <ele>1426</ele>
        <time>2016-05-06T07:47:24Z</time>
      </trkpt>
      <trkpt lat="44.5218" lon="5.96905">
        <ele>1426.4000244141</ele>
        <time>2016-05-06T07:47:25Z</time>
      </trkpt>
      <trkpt lat="44.52181" lon="5.96904">
        <ele>1426.8000488281</ele>
        <time>2016-05-06T07:47:26Z</time>
      </trkpt>
      <trkpt lat="44.5218" lon="5.96902">
        <ele>1427.1999511719</ele>
        <time>2016-05-06T07:47:27Z</time>
      </trkpt>
      <trkpt lat="44.5218" lon="5.96901">
        <ele>1427.5999755859</ele>
        <time>2016-05-06T07:47:28Z</time>
      </trkpt>
      <trkpt lat="44.52182" lon="5.96896">
        <ele>1427.5999755859</ele>
        <time>2016-05-06T07:47:32Z</time>
      </trkpt>
      <trkpt lat="44.52185" lon="5.96888">
        <ele>1428.1999511719</ele>
        <time>2016-05-06T07:47:37Z</time>
      </trkpt>
      <trkpt lat="44.52185" lon="5.96887">
        <ele>1428.5999755859</ele>
        <time>2016-05-06T07:47:38Z</time>
      </trkpt>
      <trkpt lat="44.52185" lon="5.96885">
        <ele>1429</ele>
        <time>2016-05-06T07:47:39Z</time>
      </trkpt>
      <trkpt lat="44.52185" lon="5.96884">
        <ele>1429.4000244141</ele>
        <time>2016-05-06T07:47:40Z</time>
      </trkpt>
      <trkpt lat="44.52185" lon="5.96883">
        <ele>1429.8000488281</ele>
        <time>2016-05-06T07:47:41Z</time>
      </trkpt>
      <trkpt lat="44.52186" lon="5.9688">
        <ele>1429.8000488281</ele>
        <time>2016-05-06T07:47:44Z</time>
      </trkpt>
      <trkpt lat="44.52188" lon="5.96875">
        <ele>1430.1999511719</ele>
        <time>2016-05-06T07:47:49Z</time>
      </trkpt>
      <trkpt lat="44.52189" lon="5.96874">
        <ele>1430.8000488281</ele>
        <time>2016-05-06T07:47:50Z</time>
      </trkpt>
      <trkpt lat="44.52189" lon="5.96873">
        <ele>1431.1999511719</ele>
        <time>2016-05-06T07:47:51Z</time>
      </trkpt>
      <trkpt lat="44.52189" lon="5.96872">
        <ele>1431.5999755859</ele>
        <time>2016-05-06T07:47:52Z</time>
      </trkpt>
      <trkpt lat="44.52189" lon="5.9687">
        <ele>1432</ele>
        <time>2016-05-06T07:47:53Z</time>
      </trkpt>
      <trkpt lat="44.52189" lon="5.96867">
        <ele>1432</ele>
        <time>2016-05-06T07:47:55Z</time>
      </trkpt>
      <trkpt lat="44.5219" lon="5.96856">
        <ele>1432.4000244141</ele>
        <time>2016-05-06T07:48:00Z</time>
      </trkpt>
      <trkpt lat="44.5219" lon="5.96854">
        <ele>1432.8000488281</ele>
        <time>2016-05-06T07:48:01Z</time>
      </trkpt>
      <trkpt lat="44.52192" lon="5.96854">
        <ele>1433.1999511719</ele>
        <time>2016-05-06T07:48:02Z</time>
      </trkpt>
      <trkpt lat="44.52192" lon="5.96853">
        <ele>1433.5999755859</ele>
        <time>2016-05-06T07:48:03Z</time>
      </trkpt>
      <trkpt lat="44.52192" lon="5.96851">
        <ele>1434</ele>
        <time>2016-05-06T07:48:04Z</time>
      </trkpt>
      <trkpt lat="44.52194" lon="5.96848">
        <ele>1434</ele>
        <time>2016-05-06T07:48:07Z</time>
      </trkpt>
      <trkpt lat="44.52197" lon="5.9684">
        <ele>1434.4000244141</ele>
        <time>2016-05-06T07:48:12Z</time>
      </trkpt>
      <trkpt lat="44.52197" lon="5.96839">
        <ele>1434.8000488281</ele>
        <time>2016-05-06T07:48:13Z</time>
      </trkpt>
      <trkpt lat="44.52198" lon="5.96837">
        <ele>1435.1999511719</ele>
        <time>2016-05-06T07:48:14Z</time>
      </trkpt>
      <trkpt lat="44.52198" lon="5.96836">
        <ele>1435.5999755859</ele>
        <time>2016-05-06T07:48:15Z</time>
      </trkpt>
      <trkpt lat="44.52199" lon="5.96835">
        <ele>1436</ele>
        <time>2016-05-06T07:48:16Z</time>
      </trkpt>
      <trkpt lat="44.522" lon="5.9683">
        <ele>1436</ele>
        <time>2016-05-06T07:48:20Z</time>
      </trkpt>
      <trkpt lat="44.522" lon="5.9683">
        <ele>1436</ele>
        <time>2016-05-06T07:48:21Z</time>
      </trkpt>
      <trkpt lat="44.52203" lon="5.96825">
        <ele>1436.4000244141</ele>
        <time>2016-05-06T07:48:25Z</time>
      </trkpt>
      <trkpt lat="44.52203" lon="5.96823">
        <ele>1437</ele>
        <time>2016-05-06T07:48:26Z</time>
      </trkpt>
      <trkpt lat="44.52203" lon="5.96821">
        <ele>1437.4000244141</ele>
        <time>2016-05-06T07:48:27Z</time>
      </trkpt>
      <trkpt lat="44.52203" lon="5.96819">
        <ele>1437.8000488281</ele>
        <time>2016-05-06T07:48:28Z</time>
      </trkpt>
      <trkpt lat="44.52202" lon="5.96817">
        <ele>1438.1999511719</ele>
        <time>2016-05-06T07:48:29Z</time>
      </trkpt>
      <trkpt lat="44.52206" lon="5.9681">
        <ele>1438.1999511719</ele>
        <time>2016-05-06T07:48:35Z</time>
      </trkpt>
      <trkpt lat="44.52207" lon="5.96809">
        <ele>1438.5999755859</ele>
        <time>2016-05-06T07:48:36Z</time>
      </trkpt>
      <trkpt lat="44.52207" lon="5.96808">
        <ele>1439.1999511719</ele>
        <time>2016-05-06T07:48:37Z</time>
      </trkpt>
      <trkpt lat="44.52208" lon="5.96807">
        <ele>1439.5999755859</ele>
        <time>2016-05-06T07:48:38Z</time>
      </trkpt>
      <trkpt lat="44.52208" lon="5.96805">
        <ele>1440</ele>
        <time>2016-05-06T07:48:39Z</time>
      </trkpt>
      <trkpt lat="44.52208" lon="5.96804">
        <ele>1440.4000244141</ele>
        <time>2016-05-06T07:48:40Z</time>
      </trkpt>
      <trkpt lat="44.52211" lon="5.96794">
        <ele>1440.4000244141</ele>
        <time>2016-05-06T07:48:49Z</time>
      </trkpt>
      <trkpt lat="44.52211" lon="5.9679">
        <ele>1441</ele>
        <time>2016-05-06T07:48:52Z</time>
      </trkpt>
      <trkpt lat="44.52211" lon="5.96789">
        <ele>1441.4000244141</ele>
        <time>2016-05-06T07:48:53Z</time>
      </trkpt>
      <trkpt lat="44.52212" lon="5.96787">
        <ele>1441.8000488281</ele>
        <time>2016-05-06T07:48:54Z</time>
      </trkpt>
      <trkpt lat="44.52212" lon="5.96785">
        <ele>1442.1999511719</ele>
        <time>2016-05-06T07:48:55Z</time>
      </trkpt>
      <trkpt lat="44.52213" lon="5.96784">
        <ele>1442.5999755859</ele>
        <time>2016-05-06T07:48:56Z</time>
      </trkpt>
      <trkpt lat="44.52216" lon="5.96775">
        <ele>1442.5999755859</ele>
        <time>2016-05-06T07:49:01Z</time>
      </trkpt>
      <trkpt lat="44.52219" lon="5.96772">
        <ele>1443</ele>
        <time>2016-05-06T07:49:04Z</time>
      </trkpt>
      <trkpt lat="44.52219" lon="5.96771">
        <ele>1443.4000244141</ele>
        <time>2016-05-06T07:49:05Z</time>
      </trkpt>
      <trkpt lat="44.52219" lon="5.9677">
        <ele>1443.8000488281</ele>
        <time>2016-05-06T07:49:06Z</time>
      </trkpt>
      <trkpt lat="44.5222" lon="5.96769">
        <ele>1444.1999511719</ele>
        <time>2016-05-06T07:49:07Z</time>
      </trkpt>
      <trkpt lat="44.52221" lon="5.96767">
        <ele>1444.5999755859</ele>
        <time>2016-05-06T07:49:08Z</time>
      </trkpt>
      <trkpt lat="44.52223" lon="5.9676">
        <ele>1444.5999755859</ele>
        <time>2016-05-06T07:49:14Z</time>
      </trkpt>
      <trkpt lat="44.52224" lon="5.96757">
        <ele>1445</ele>
        <time>2016-05-06T07:49:16Z</time>
      </trkpt>
      <trkpt lat="44.52224" lon="5.96756">
        <ele>1445.4000244141</ele>
        <time>2016-05-06T07:49:17Z</time>
      </trkpt>
      <trkpt lat="44.52224" lon="5.96755">
        <ele>1446</ele>
        <time>2016-05-06T07:49:18Z</time>
      </trkpt>
      <trkpt lat="44.52224" lon="5.96753">
        <ele>1446.4000244141</ele>
        <time>2016-05-06T07:49:19Z</time>
      </trkpt>
      <trkpt lat="44.52225" lon="5.96752">
        <ele>1446.8000488281</ele>
        <time>2016-05-06T07:49:20Z</time>
      </trkpt>
      <trkpt lat="44.52225" lon="5.96743">
        <ele>1447.1999511719</ele>
        <time>2016-05-06T07:49:27Z</time>
      </trkpt>
      <trkpt lat="44.52225" lon="5.96741">
        <ele>1447.5999755859</ele>
        <time>2016-05-06T07:49:28Z</time>
      </trkpt>
      <trkpt lat="44.52226" lon="5.9674">
        <ele>1448.1999511719</ele>
        <time>2016-05-06T07:49:29Z</time>
      </trkpt>
      <trkpt lat="44.52227" lon="5.96739">
        <ele>1448.5999755859</ele>
        <time>2016-05-06T07:49:30Z</time>
      </trkpt>
      <trkpt lat="44.52227" lon="5.96738">
        <ele>1449</ele>
        <time>2016-05-06T07:49:31Z</time>
      </trkpt>
      <trkpt lat="44.52225" lon="5.96726">
        <ele>1449</ele>
        <time>2016-05-06T07:49:38Z</time>
      </trkpt>
      <trkpt lat="44.52225" lon="5.96722">
        <ele>1449.4000244141</ele>
        <time>2016-05-06T07:49:41Z</time>
      </trkpt>
      <trkpt lat="44.52225" lon="5.9672">
        <ele>1449.8000488281</ele>
        <time>2016-05-06T07:49:42Z</time>
      </trkpt>
      <trkpt lat="44.52226" lon="5.96719">
        <ele>1450.1999511719</ele>
        <time>2016-05-06T07:49:43Z</time>
      </trkpt>
      <trkpt lat="44.52227" lon="5.96718">
        <ele>1450.5999755859</ele>
        <time>2016-05-06T07:49:44Z</time>
      </trkpt>
      <trkpt lat="44.52227" lon="5.96717">
        <ele>1451</ele>
        <time>2016-05-06T07:49:45Z</time>
      </trkpt>
      <trkpt lat="44.52229" lon="5.96708">
        <ele>1451</ele>
        <time>2016-05-06T07:49:52Z</time>
      </trkpt>
      <trkpt lat="44.52232" lon="5.96699">
        <ele>1451.4000244141</ele>
        <time>2016-05-06T07:49:59Z</time>
      </trkpt>
      <trkpt lat="44.52233" lon="5.96698">
        <ele>1452</ele>
        <time>2016-05-06T07:50:00Z</time>
      </trkpt>
      <trkpt lat="44.52232" lon="5.96698">
        <ele>1452.4000244141</ele>
        <time>2016-05-06T07:50:01Z</time>
      </trkpt>
      <trkpt lat="44.52234" lon="5.96697">
        <ele>1452.8000488281</ele>
        <time>2016-05-06T07:50:02Z</time>
      </trkpt>
      <trkpt lat="44.52234" lon="5.96695">
        <ele>1453.4000244141</ele>
        <time>2016-05-06T07:50:03Z</time>
      </trkpt>
      <trkpt lat="44.52239" lon="5.96681">
        <ele>1453.8000488281</ele>
        <time>2016-05-06T07:50:13Z</time>
      </trkpt>
      <trkpt lat="44.52239" lon="5.9668">
        <ele>1454.1999511719</ele>
        <time>2016-05-06T07:50:14Z</time>
      </trkpt>
      <trkpt lat="44.5224" lon="5.96679">
        <ele>1454.5999755859</ele>
        <time>2016-05-06T07:50:15Z</time>
      </trkpt>
      <trkpt lat="44.52239" lon="5.96679">
        <ele>1455</ele>
        <time>2016-05-06T07:50:16Z</time>
      </trkpt>
      <trkpt lat="44.52239" lon="5.96679">
        <ele>1455.4000244141</ele>
        <time>2016-05-06T07:50:17Z</time>
      </trkpt>
      <trkpt lat="44.5224" lon="5.96678">
        <ele>1455.4000244141</ele>
        <time>2016-05-06T07:50:28Z</time>
      </trkpt>
      <trkpt lat="44.52239" lon="5.96674">
        <ele>1455.8000488281</ele>
        <time>2016-05-06T07:50:44Z</time>
      </trkpt>
      <trkpt lat="44.52239" lon="5.96673">
        <ele>1456.1999511719</ele>
        <time>2016-05-06T07:50:45Z</time>
      </trkpt>
      <trkpt lat="44.52239" lon="5.96673">
        <ele>1456.5999755859</ele>
        <time>2016-05-06T07:50:46Z</time>
      </trkpt>
      <trkpt lat="44.52239" lon="5.96672">
        <ele>1457</ele>
        <time>2016-05-06T07:50:47Z</time>
      </trkpt>
      <trkpt lat="44.52239" lon="5.96671">
        <ele>1457.4000244141</ele>
        <time>2016-05-06T07:50:48Z</time>
      </trkpt>
      <trkpt lat="44.52238" lon="5.96668">
        <ele>1457.8000488281</ele>
        <time>2016-05-06T07:50:53Z</time>
      </trkpt>
      <trkpt lat="44.52238" lon="5.96667">
        <ele>1458.1999511719</ele>
        <time>2016-05-06T07:50:54Z</time>
      </trkpt>
      <trkpt lat="44.52237" lon="5.96667">
        <ele>1458.8000488281</ele>
        <time>2016-05-06T07:50:55Z</time>
      </trkpt>
      <trkpt lat="44.52237" lon="5.96666">
        <ele>1459.1999511719</ele>
        <time>2016-05-06T07:50:56Z</time>
      </trkpt>
      <trkpt lat="44.52237" lon="5.96665">
        <ele>1459.5999755859</ele>
        <time>2016-05-06T07:50:57Z</time>
      </trkpt>
      <trkpt lat="44.52236" lon="5.96659">
        <ele>1460</ele>
        <time>2016-05-06T07:51:05Z</time>
      </trkpt>
      <trkpt lat="44.52235" lon="5.96658">
        <ele>1460.4000244141</ele>
        <time>2016-05-06T07:51:06Z</time>
      </trkpt>
      <trkpt lat="44.52236" lon="5.96658">
        <ele>1460.8000488281</ele>
        <time>2016-05-06T07:51:07Z</time>
      </trkpt>
      <trkpt lat="44.52236" lon="5.96657">
        <ele>1461.1999511719</ele>
        <time>2016-05-06T07:51:08Z</time>
      </trkpt>
      <trkpt lat="44.52236" lon="5.96656">
        <ele>1461.5999755859</ele>
        <time>2016-05-06T07:51:09Z</time>
      </trkpt>
      <trkpt lat="44.52234" lon="5.96652">
        <ele>1462.1999511719</ele>
        <time>2016-05-06T07:51:17Z</time>
      </trkpt>
      <trkpt lat="44.52233" lon="5.96651">
        <ele>1462.5999755859</ele>
        <time>2016-05-06T07:51:18Z</time>
      </trkpt>
      <trkpt lat="44.52233" lon="5.96651">
        <ele>1463</ele>
        <time>2016-05-06T07:51:19Z</time>
      </trkpt>
      <trkpt lat="44.52232" lon="5.96651">
        <ele>1463.4000244141</ele>
        <time>2016-05-06T07:51:20Z</time>
      </trkpt>
      <trkpt lat="44.52232" lon="5.96652">
        <ele>1463.8000488281</ele>
        <time>2016-05-06T07:51:21Z</time>
      </trkpt>
      <trkpt lat="44.52229" lon="5.96655">
        <ele>1463.8000488281</ele>
        <time>2016-05-06T07:51:31Z</time>
      </trkpt>
      <trkpt lat="44.52228" lon="5.96655">
        <ele>1464.1999511719</ele>
        <time>2016-05-06T07:51:35Z</time>
      </trkpt>
      <trkpt lat="44.52228" lon="5.96655">
        <ele>1464.5999755859</ele>
        <time>2016-05-06T07:51:36Z</time>
      </trkpt>
      <trkpt lat="44.52228" lon="5.96655">
        <ele>1465</ele>
        <time>2016-05-06T07:51:37Z</time>
      </trkpt>
      <trkpt lat="44.52227" lon="5.96655">
        <ele>1465.5999755859</ele>
        <time>2016-05-06T07:51:38Z</time>
      </trkpt>
      <trkpt lat="44.52227" lon="5.96655">
        <ele>1466</ele>
        <time>2016-05-06T07:51:39Z</time>
      </trkpt>
      <trkpt lat="44.52222" lon="5.96656">
        <ele>1466.4000244141</ele>
        <time>2016-05-06T07:51:49Z</time>
      </trkpt>
      <trkpt lat="44.52222" lon="5.96657">
        <ele>1466.8000488281</ele>
        <time>2016-05-06T07:51:50Z</time>
      </trkpt>
      <trkpt lat="44.52221" lon="5.96657">
        <ele>1467.1999511719</ele>
        <time>2016-05-06T07:51:51Z</time>
      </trkpt>
      <trkpt lat="44.5222" lon="5.96658">
        <ele>1467.5999755859</ele>
        <time>2016-05-06T07:51:52Z</time>
      </trkpt>
      <trkpt lat="44.52219" lon="5.96658">
        <ele>1468</ele>
        <time>2016-05-06T07:51:53Z</time>
      </trkpt>
      <trkpt lat="44.52215" lon="5.96661">
        <ele>1468</ele>
        <time>2016-05-06T07:52:01Z</time>
      </trkpt>
      <trkpt lat="44.52213" lon="5.96661">
        <ele>1468.4000244141</ele>
        <time>2016-05-06T07:52:04Z</time>
      </trkpt>
      <trkpt lat="44.52212" lon="5.96662">
        <ele>1468.8000488281</ele>
        <time>2016-05-06T07:52:05Z</time>
      </trkpt>
      <trkpt lat="44.52211" lon="5.96663">
        <ele>1469.1999511719</ele>
        <time>2016-05-06T07:52:06Z</time>
      </trkpt>
      <trkpt lat="44.5221" lon="5.96663">
        <ele>1469.5999755859</ele>
        <time>2016-05-06T07:52:07Z</time>
      </trkpt>
      <trkpt lat="44.52209" lon="5.96664">
        <ele>1470</ele>
        <time>2016-05-06T07:52:08Z</time>
      </trkpt>
      <trkpt lat="44.52205" lon="5.96667">
        <ele>1470</ele>
        <time>2016-05-06T07:52:14Z</time>
      </trkpt>
      <trkpt lat="44.52202" lon="5.96668">
        <ele>1470.4000244141</ele>
        <time>2016-05-06T07:52:18Z</time>
      </trkpt>
      <trkpt lat="44.52202" lon="5.96669">
        <ele>1470.8000488281</ele>
        <time>2016-05-06T07:52:19Z</time>
      </trkpt>
      <trkpt lat="44.52201" lon="5.9667">
        <ele>1471.1999511719</ele>
        <time>2016-05-06T07:52:20Z</time>
      </trkpt>
      <trkpt lat="44.52201" lon="5.96671">
        <ele>1471.5999755859</ele>
        <time>2016-05-06T07:52:21Z</time>
      </trkpt>
      <trkpt lat="44.522" lon="5.96671">
        <ele>1472</ele>
        <time>2016-05-06T07:52:22Z</time>
      </trkpt>
      <trkpt lat="44.52195" lon="5.96674">
        <ele>1472</ele>
        <time>2016-05-06T07:52:29Z</time>
      </trkpt>
      <trkpt lat="44.52188" lon="5.9668">
        <ele>1472</ele>
        <time>2016-05-06T07:52:40Z</time>
      </trkpt>
      <trkpt lat="44.52187" lon="5.96681">
        <ele>1472.4000244141</ele>
        <time>2016-05-06T07:52:41Z</time>
      </trkpt>
      <trkpt lat="44.52187" lon="5.96681">
        <ele>1472.8000488281</ele>
        <time>2016-05-06T07:52:42Z</time>
      </trkpt>
      <trkpt lat="44.52186" lon="5.96682">
        <ele>1473.1999511719</ele>
        <time>2016-05-06T07:52:43Z</time>
      </trkpt>
      <trkpt lat="44.52186" lon="5.96682">
        <ele>1473.5999755859</ele>
        <time>2016-05-06T07:52:44Z</time>
      </trkpt>
      <trkpt lat="44.52185" lon="5.96683">
        <ele>1474</ele>
        <time>2016-05-06T07:52:45Z</time>
      </trkpt>
      <trkpt lat="44.5218" lon="5.96686">
        <ele>1474</ele>
        <time>2016-05-06T07:52:52Z</time>
      </trkpt>
      <trkpt lat="44.52179" lon="5.96687">
        <ele>1474.5999755859</ele>
        <time>2016-05-06T07:52:53Z</time>
      </trkpt>
      <trkpt lat="44.52178" lon="5.96688">
        <ele>1475</ele>
        <time>2016-05-06T07:52:54Z</time>
      </trkpt>
      <trkpt lat="44.52178" lon="5.96688">
        <ele>1475.4000244141</ele>
        <time>2016-05-06T07:52:55Z</time>
      </trkpt>
      <trkpt lat="44.52177" lon="5.96689">
        <ele>1475.8000488281</ele>
        <time>2016-05-06T07:52:56Z</time>
      </trkpt>
      <trkpt lat="44.52176" lon="5.9669">
        <ele>1476.1999511719</ele>
        <time>2016-05-06T07:52:57Z</time>
      </trkpt>
      <trkpt lat="44.52167" lon="5.96697">
        <ele>1476.1999511719</ele>
        <time>2016-05-06T07:53:10Z</time>
      </trkpt>
      <trkpt lat="44.52167" lon="5.96698">
        <ele>1476.5999755859</ele>
        <time>2016-05-06T07:53:11Z</time>
      </trkpt>
      <trkpt lat="44.52167" lon="5.96698">
        <ele>1477</ele>
        <time>2016-05-06T07:53:12Z</time>
      </trkpt>
      <trkpt lat="44.52166" lon="5.96698">
        <ele>1477.4000244141</ele>
        <time>2016-05-06T07:53:13Z</time>
      </trkpt>
      <trkpt lat="44.52166" lon="5.96698">
        <ele>1478</ele>
        <time>2016-05-06T07:53:14Z</time>
      </trkpt>
      <trkpt lat="44.52165" lon="5.96699">
        <ele>1478.4000244141</ele>
        <time>2016-05-06T07:53:15Z</time>
      </trkpt>
      <trkpt lat="44.52161" lon="5.96702">
        <ele>1478.4000244141</ele>
        <time>2016-05-06T07:53:21Z</time>
      </trkpt>
      <trkpt lat="44.52156" lon="5.96704">
        <ele>1478.8000488281</ele>
        <time>2016-05-06T07:53:26Z</time>
      </trkpt>
      <trkpt lat="44.52155" lon="5.96705">
        <ele>1479.1999511719</ele>
        <time>2016-05-06T07:53:27Z</time>
      </trkpt>
      <trkpt lat="44.52155" lon="5.96705">
        <ele>1479.5999755859</ele>
        <time>2016-05-06T07:53:28Z</time>
      </trkpt>
      <trkpt lat="44.52154" lon="5.96706">
        <ele>1480</ele>
        <time>2016-05-06T07:53:29Z</time>
      </trkpt>
      <trkpt lat="44.52153" lon="5.96706">
        <ele>1480.4000244141</ele>
        <time>2016-05-06T07:53:30Z</time>
      </trkpt>
      <trkpt lat="44.52151" lon="5.96707">
        <ele>1480.4000244141</ele>
        <time>2016-05-06T07:53:33Z</time>
      </trkpt>
      <trkpt lat="44.52148" lon="5.96709">
        <ele>1480.8000488281</ele>
        <time>2016-05-06T07:53:37Z</time>
      </trkpt>
      <trkpt lat="44.52148" lon="5.96709">
        <ele>1481.1999511719</ele>
        <time>2016-05-06T07:53:38Z</time>
      </trkpt>
      <trkpt lat="44.52147" lon="5.9671">
        <ele>1481.5999755859</ele>
        <time>2016-05-06T07:53:39Z</time>
      </trkpt>
      <trkpt lat="44.52146" lon="5.96711">
        <ele>1482</ele>
        <time>2016-05-06T07:53:40Z</time>
      </trkpt>
      <trkpt lat="44.52145" lon="5.96711">
        <ele>1482.4000244141</ele>
        <time>2016-05-06T07:53:41Z</time>
      </trkpt>
      <trkpt lat="44.52144" lon="5.96713">
        <ele>1482.4000244141</ele>
        <time>2016-05-06T07:53:43Z</time>
      </trkpt>
      <trkpt lat="44.52134" lon="5.96722">
        <ele>1482.4000244141</ele>
        <time>2016-05-06T07:53:53Z</time>
      </trkpt>
      <trkpt lat="44.52129" lon="5.96723">
        <ele>1482.8000488281</ele>
        <time>2016-05-06T07:53:57Z</time>
      </trkpt>
      <trkpt lat="44.52128" lon="5.96723">
        <ele>1483.1999511719</ele>
        <time>2016-05-06T07:53:58Z</time>
      </trkpt>
      <trkpt lat="44.52127" lon="5.96724">
        <ele>1483.5999755859</ele>
        <time>2016-05-06T07:53:59Z</time>
      </trkpt>
      <trkpt lat="44.52126" lon="5.96724">
        <ele>1484</ele>
        <time>2016-05-06T07:54:00Z</time>
      </trkpt>
      <trkpt lat="44.52126" lon="5.96724">
        <ele>1484.4000244141</ele>
        <time>2016-05-06T07:54:01Z</time>
      </trkpt>
      <trkpt lat="44.52121" lon="5.9673">
        <ele>1484.4000244141</ele>
        <time>2016-05-06T07:54:08Z</time>
      </trkpt>
      <trkpt lat="44.5212" lon="5.96731">
        <ele>1484.8000488281</ele>
        <time>2016-05-06T07:54:12Z</time>
      </trkpt>
      <trkpt lat="44.52119" lon="5.96731">
        <ele>1485.4000244141</ele>
        <time>2016-05-06T07:54:13Z</time>
      </trkpt>
      <trkpt lat="44.52119" lon="5.96732">
        <ele>1485.8000488281</ele>
        <time>2016-05-06T07:54:14Z</time>
      </trkpt>
      <trkpt lat="44.52118" lon="5.96732">
        <ele>1486.1999511719</ele>
        <time>2016-05-06T07:54:15Z</time>
      </trkpt>
      <trkpt lat="44.52118" lon="5.96733">
        <ele>1486.5999755859</ele>
        <time>2016-05-06T07:54:16Z</time>
      </trkpt>
      <trkpt lat="44.52111" lon="5.96739">
        <ele>1487</ele>
        <time>2016-05-06T07:54:24Z</time>
      </trkpt>
      <trkpt lat="44.52111" lon="5.9674">
        <ele>1487.4000244141</ele>
        <time>2016-05-06T07:54:25Z</time>
      </trkpt>
      <trkpt lat="44.5211" lon="5.9674">
        <ele>1487.8000488281</ele>
        <time>2016-05-06T07:54:26Z</time>
      </trkpt>
      <trkpt lat="44.5211" lon="5.9674">
        <ele>1488.4000244141</ele>
        <time>2016-05-06T07:54:27Z</time>
      </trkpt>
      <trkpt lat="44.52109" lon="5.96741">
        <ele>1488.8000488281</ele>
        <time>2016-05-06T07:54:28Z</time>
      </trkpt>
      <trkpt lat="44.521" lon="5.96749">
        <ele>1488.8000488281</ele>
        <time>2016-05-06T07:54:38Z</time>
      </trkpt>
      <trkpt lat="44.52098" lon="5.96751">
        <ele>1489.1999511719</ele>
        <time>2016-05-06T07:54:41Z</time>
      </trkpt>
      <trkpt lat="44.52096" lon="5.96751">
        <ele>1489.5999755859</ele>
        <time>2016-05-06T07:54:42Z</time>
      </trkpt>
      <trkpt lat="44.52096" lon="5.96751">
        <ele>1490.1999511719</ele>
        <time>2016-05-06T07:54:43Z</time>
      </trkpt>
      <trkpt lat="44.52094" lon="5.96752">
        <ele>1490.5999755859</ele>
        <time>2016-05-06T07:54:44Z</time>
      </trkpt>
      <trkpt lat="44.52092" lon="5.96753">
        <ele>1491</ele>
        <time>2016-05-06T07:54:45Z</time>
      </trkpt>
      <trkpt lat="44.52087" lon="5.96761">
        <ele>1491</ele>
        <time>2016-05-06T07:54:52Z</time>
      </trkpt>
      <trkpt lat="44.52083" lon="5.96765">
        <ele>1491.4000244141</ele>
        <time>2016-05-06T07:54:56Z</time>
      </trkpt>
      <trkpt lat="44.52082" lon="5.96765">
        <ele>1492</ele>
        <time>2016-05-06T07:54:57Z</time>
      </trkpt>
      <trkpt lat="44.52081" lon="5.96766">
        <ele>1492.4000244141</ele>
        <time>2016-05-06T07:54:58Z</time>
      </trkpt>
      <trkpt lat="44.52081" lon="5.96766">
        <ele>1492.8000488281</ele>
        <time>2016-05-06T07:54:59Z</time>
      </trkpt>
      <trkpt lat="44.52081" lon="5.96767">
        <ele>1493.1999511719</ele>
        <time>2016-05-06T07:55:00Z</time>
      </trkpt>
      <trkpt lat="44.52077" lon="5.9677">
        <ele>1493.1999511719</ele>
        <time>2016-05-06T07:55:04Z</time>
      </trkpt>
      <trkpt lat="44.52075" lon="5.96772">
        <ele>1493.5999755859</ele>
        <time>2016-05-06T07:55:07Z</time>
      </trkpt>
      <trkpt lat="44.52075" lon="5.96772">
        <ele>1494.1999511719</ele>
        <time>2016-05-06T07:55:08Z</time>
      </trkpt>
      <trkpt lat="44.52074" lon="5.96772">
        <ele>1494.5999755859</ele>
        <time>2016-05-06T07:55:09Z</time>
      </trkpt>
      <trkpt lat="44.52073" lon="5.96773">
        <ele>1495.1999511719</ele>
        <time>2016-05-06T07:55:10Z</time>
      </trkpt>
      <trkpt lat="44.52072" lon="5.96774">
        <ele>1495.5999755859</ele>
        <time>2016-05-06T07:55:11Z</time>
      </trkpt>
      <trkpt lat="44.52069" lon="5.96775">
        <ele>1495.5999755859</ele>
        <time>2016-05-06T07:55:16Z</time>
      </trkpt>
      <trkpt lat="44.52065" lon="5.96777">
        <ele>1496</ele>
        <time>2016-05-06T07:55:20Z</time>
      </trkpt>
      <trkpt lat="44.52065" lon="5.96778">
        <ele>1496.4000244141</ele>
        <time>2016-05-06T07:55:21Z</time>
      </trkpt>
      <trkpt lat="44.52064" lon="5.96778">
        <ele>1496.8000488281</ele>
        <time>2016-05-06T07:55:22Z</time>
      </trkpt>
      <trkpt lat="44.52063" lon="5.96779">
        <ele>1497.1999511719</ele>
        <time>2016-05-06T07:55:23Z</time>
      </trkpt>
      <trkpt lat="44.52062" lon="5.96779">
        <ele>1497.5999755859</ele>
        <time>2016-05-06T07:55:24Z</time>
      </trkpt>
      <trkpt lat="44.5206" lon="5.96781">
        <ele>1497.5999755859</ele>
        <time>2016-05-06T07:55:27Z</time>
      </trkpt>
      <trkpt lat="44.52054" lon="5.96789">
        <ele>1498</ele>
        <time>2016-05-06T07:55:37Z</time>
      </trkpt>
      <trkpt lat="44.52053" lon="5.9679">
        <ele>1498.5999755859</ele>
        <time>2016-05-06T07:55:38Z</time>
      </trkpt>
      <trkpt lat="44.52052" lon="5.96791">
        <ele>1499</ele>
        <time>2016-05-06T07:55:39Z</time>
      </trkpt>
      <trkpt lat="44.52051" lon="5.96791">
        <ele>1499.4000244141</ele>
        <time>2016-05-06T07:55:40Z</time>
      </trkpt>
      <trkpt lat="44.5205" lon="5.96792">
        <ele>1499.8000488281</ele>
        <time>2016-05-06T07:55:41Z</time>
      </trkpt>
      <trkpt lat="44.52044" lon="5.96799">
        <ele>1500.1999511719</ele>
        <time>2016-05-06T07:55:50Z</time>
      </trkpt>
      <trkpt lat="44.52043" lon="5.96799">
        <ele>1500.5999755859</ele>
        <time>2016-05-06T07:55:51Z</time>
      </trkpt>
      <trkpt lat="44.52042" lon="5.968">
        <ele>1501</ele>
        <time>2016-05-06T07:55:52Z</time>
      </trkpt>
      <trkpt lat="44.52042" lon="5.96801">
        <ele>1501.4000244141</ele>
        <time>2016-05-06T07:55:53Z</time>
      </trkpt>
      <trkpt lat="44.52041" lon="5.96802">
        <ele>1502</ele>
        <time>2016-05-06T07:55:54Z</time>
      </trkpt>
      <trkpt lat="44.52036" lon="5.9681">
        <ele>1502.4000244141</ele>
        <time>2016-05-06T07:56:03Z</time>
      </trkpt>
      <trkpt lat="44.52034" lon="5.96811">
        <ele>1502.8000488281</ele>
        <time>2016-05-06T07:56:04Z</time>
      </trkpt>
      <trkpt lat="44.52034" lon="5.96812">
        <ele>1503.1999511719</ele>
        <time>2016-05-06T07:56:05Z</time>
      </trkpt>
      <trkpt lat="44.52032" lon="5.96814">
        <ele>1503.5999755859</ele>
        <time>2016-05-06T07:56:06Z</time>
      </trkpt>
      <trkpt lat="44.52032" lon="5.96815">
        <ele>1504</ele>
        <time>2016-05-06T07:56:07Z</time>
      </trkpt>
      <trkpt lat="44.52031" lon="5.96816">
        <ele>1504</ele>
        <time>2016-05-06T07:56:08Z</time>
      </trkpt>
      <trkpt lat="44.52026" lon="5.96821">
        <ele>1504.4000244141</ele>
        <time>2016-05-06T07:56:16Z</time>
      </trkpt>
      <trkpt lat="44.52026" lon="5.96823">
        <ele>1504.8000488281</ele>
        <time>2016-05-06T07:56:17Z</time>
      </trkpt>
      <trkpt lat="44.52026" lon="5.96824">
        <ele>1505.1999511719</ele>
        <time>2016-05-06T07:56:18Z</time>
      </trkpt>
      <trkpt lat="44.52025" lon="5.96825">
        <ele>1505.5999755859</ele>
        <time>2016-05-06T07:56:19Z</time>
      </trkpt>
      <trkpt lat="44.52024" lon="5.96827">
        <ele>1506</ele>
        <time>2016-05-06T07:56:20Z</time>
      </trkpt>
      <trkpt lat="44.52018" lon="5.96833">
        <ele>1506.4000244141</ele>
        <time>2016-05-06T07:56:29Z</time>
      </trkpt>
      <trkpt lat="44.52017" lon="5.96833">
        <ele>1506.8000488281</ele>
        <time>2016-05-06T07:56:30Z</time>
      </trkpt>
      <trkpt lat="44.52016" lon="5.96834">
        <ele>1507.1999511719</ele>
        <time>2016-05-06T07:56:31Z</time>
      </trkpt>
      <trkpt lat="44.52015" lon="5.96835">
        <ele>1507.5999755859</ele>
        <time>2016-05-06T07:56:32Z</time>
      </trkpt>
      <trkpt lat="44.52013" lon="5.96836">
        <ele>1508</ele>
        <time>2016-05-06T07:56:33Z</time>
      </trkpt>
      <trkpt lat="44.52004" lon="5.96848">
        <ele>1508</ele>
        <time>2016-05-06T07:56:45Z</time>
      </trkpt>
      <trkpt lat="44.52003" lon="5.96849">
        <ele>1508.4000244141</ele>
        <time>2016-05-06T07:56:46Z</time>
      </trkpt>
      <trkpt lat="44.52003" lon="5.9685">
        <ele>1508.8000488281</ele>
        <time>2016-05-06T07:56:47Z</time>
      </trkpt>
      <trkpt lat="44.52002" lon="5.9685">
        <ele>1509.1999511719</ele>
        <time>2016-05-06T07:56:48Z</time>
      </trkpt>
      <trkpt lat="44.52002" lon="5.9685">
        <ele>1509.5999755859</ele>
        <time>2016-05-06T07:56:49Z</time>
      </trkpt>
      <trkpt lat="44.52002" lon="5.9685">
        <ele>1510</ele>
        <time>2016-05-06T07:56:50Z</time>
      </trkpt>
      <trkpt lat="44.51997" lon="5.96858">
        <ele>1510</ele>
        <time>2016-05-06T07:56:57Z</time>
      </trkpt>
      <trkpt lat="44.51995" lon="5.96858">
        <ele>1510.5999755859</ele>
        <time>2016-05-06T07:57:00Z</time>
      </trkpt>
      <trkpt lat="44.51994" lon="5.96858">
        <ele>1511</ele>
        <time>2016-05-06T07:57:01Z</time>
      </trkpt>
      <trkpt lat="44.51994" lon="5.96859">
        <ele>1511.4000244141</ele>
        <time>2016-05-06T07:57:02Z</time>
      </trkpt>
      <trkpt lat="44.51994" lon="5.9686">
        <ele>1511.8000488281</ele>
        <time>2016-05-06T07:57:03Z</time>
      </trkpt>
      <trkpt lat="44.51994" lon="5.9686">
        <ele>1512.1999511719</ele>
        <time>2016-05-06T07:57:04Z</time>
      </trkpt>
      <trkpt lat="44.51995" lon="5.9686">
        <ele>1512.1999511719</ele>
        <time>2016-05-06T07:57:06Z</time>
      </trkpt>
      <trkpt lat="44.51994" lon="5.96861">
        <ele>1512.1999511719</ele>
        <time>2016-05-06T07:57:17Z</time>
      </trkpt>
      <trkpt lat="44.51992" lon="5.96863">
        <ele>1512.1999511719</ele>
        <time>2016-05-06T07:57:20Z</time>
      </trkpt>
      <trkpt lat="44.51985" lon="5.96874">
        <ele>1512.1999511719</ele>
        <time>2016-05-06T07:57:26Z</time>
      </trkpt>
      <trkpt lat="44.51985" lon="5.96874">
        <ele>1512.5999755859</ele>
        <time>2016-05-06T07:57:28Z</time>
      </trkpt>
      <trkpt lat="44.51985" lon="5.96873">
        <ele>1513</ele>
        <time>2016-05-06T07:57:29Z</time>
      </trkpt>
      <trkpt lat="44.51984" lon="5.96875">
        <ele>1513.4000244141</ele>
        <time>2016-05-06T07:57:30Z</time>
      </trkpt>
      <trkpt lat="44.51982" lon="5.96877">
        <ele>1513.8000488281</ele>
        <time>2016-05-06T07:57:31Z</time>
      </trkpt>
      <trkpt lat="44.51981" lon="5.96878">
        <ele>1514.1999511719</ele>
        <time>2016-05-06T07:57:32Z</time>
      </trkpt>
      <trkpt lat="44.51977" lon="5.96883">
        <ele>1514.1999511719</ele>
        <time>2016-05-06T07:57:41Z</time>
      </trkpt>
      <trkpt lat="44.51971" lon="5.9689">
        <ele>1514.1999511719</ele>
        <time>2016-05-06T07:57:52Z</time>
      </trkpt>
      <trkpt lat="44.51966" lon="5.96894">
        <ele>1514.5999755859</ele>
        <time>2016-05-06T07:57:55Z</time>
      </trkpt>
      <trkpt lat="44.51966" lon="5.96895">
        <ele>1515.1999511719</ele>
        <time>2016-05-06T07:57:56Z</time>
      </trkpt>
      <trkpt lat="44.51966" lon="5.96897">
        <ele>1515.5999755859</ele>
        <time>2016-05-06T07:57:57Z</time>
      </trkpt>
      <trkpt lat="44.51963" lon="5.96899">
        <ele>1516</ele>
        <time>2016-05-06T07:57:58Z</time>
      </trkpt>
      <trkpt lat="44.51961" lon="5.96901">
        <ele>1516.4000244141</ele>
        <time>2016-05-06T07:57:59Z</time>
      </trkpt>
      <trkpt lat="44.51959" lon="5.96905">
        <ele>1516.8000488281</ele>
        <time>2016-05-06T07:58:03Z</time>
      </trkpt>
      <trkpt lat="44.51958" lon="5.96906">
        <ele>1517.1999511719</ele>
        <time>2016-05-06T07:58:04Z</time>
      </trkpt>
      <trkpt lat="44.51958" lon="5.96906">
        <ele>1517.5999755859</ele>
        <time>2016-05-06T07:58:05Z</time>
      </trkpt>
      <trkpt lat="44.51957" lon="5.96908">
        <ele>1518.1999511719</ele>
        <time>2016-05-06T07:58:06Z</time>
      </trkpt>
      <trkpt lat="44.51958" lon="5.96908">
        <ele>1518.5999755859</ele>
        <time>2016-05-06T07:58:07Z</time>
      </trkpt>
      <trkpt lat="44.51952" lon="5.96912">
        <ele>1519</ele>
        <time>2016-05-06T07:58:12Z</time>
      </trkpt>
      <trkpt lat="44.51951" lon="5.96913">
        <ele>1519.4000244141</ele>
        <time>2016-05-06T07:58:13Z</time>
      </trkpt>
      <trkpt lat="44.5195" lon="5.96915">
        <ele>1520</ele>
        <time>2016-05-06T07:58:14Z</time>
      </trkpt>
      <trkpt lat="44.51949" lon="5.96916">
        <ele>1520.4000244141</ele>
        <time>2016-05-06T07:58:15Z</time>
      </trkpt>
      <trkpt lat="44.51949" lon="5.96917">
        <ele>1520.8000488281</ele>
        <time>2016-05-06T07:58:16Z</time>
      </trkpt>
      <trkpt lat="44.51947" lon="5.96918">
        <ele>1521.4000244141</ele>
        <time>2016-05-06T07:58:17Z</time>
      </trkpt>
      <trkpt lat="44.51946" lon="5.96919">
        <ele>1521.8000488281</ele>
        <time>2016-05-06T07:58:18Z</time>
      </trkpt>
      <trkpt lat="44.51945" lon="5.96921">
        <ele>1522.4000244141</ele>
        <time>2016-05-06T07:58:19Z</time>
      </trkpt>
      <trkpt lat="44.51944" lon="5.96922">
        <ele>1522.8000488281</ele>
        <time>2016-05-06T07:58:20Z</time>
      </trkpt>
      <trkpt lat="44.51943" lon="5.96924">
        <ele>1523.4000244141</ele>
        <time>2016-05-06T07:58:21Z</time>
      </trkpt>
      <trkpt lat="44.51939" lon="5.96928">
        <ele>1523.4000244141</ele>
        <time>2016-05-06T07:58:24Z</time>
      </trkpt>
      <trkpt lat="44.51926" lon="5.96933">
        <ele>1523.4000244141</ele>
        <time>2016-05-06T07:58:32Z</time>
      </trkpt>
      <trkpt lat="44.51924" lon="5.96933">
        <ele>1523.4000244141</ele>
        <time>2016-05-06T07:58:34Z</time>
      </trkpt>
      <trkpt lat="44.51917" lon="5.96935">
        <ele>1523.4000244141</ele>
        <time>2016-05-06T07:58:42Z</time>
      </trkpt>
      <trkpt lat="44.51916" lon="5.96931">
        <ele>1523.4000244141</ele>
        <time>2016-05-06T07:58:44Z</time>
      </trkpt>
      <trkpt lat="44.51916" lon="5.96927">
        <ele>1523.4000244141</ele>
        <time>2016-05-06T07:58:46Z</time>
      </trkpt>
      <trkpt lat="44.51916" lon="5.96926">
        <ele>1523.4000244141</ele>
        <time>2016-05-06T07:58:56Z</time>
      </trkpt>
      <trkpt lat="44.5192" lon="5.96921">
        <ele>1523.4000244141</ele>
        <time>2016-05-06T07:59:18Z</time>
      </trkpt>
      <trkpt lat="44.51919" lon="5.96922">
        <ele>1523.4000244141</ele>
        <time>2016-05-06T08:00:33Z</time>
      </trkpt>
      <trkpt lat="44.51919" lon="5.96916">
        <ele>1523.4000244141</ele>
        <time>2016-05-06T08:00:40Z</time>
      </trkpt>
      <trkpt lat="44.5191" lon="5.96903">
        <ele>1523.4000244141</ele>
        <time>2016-05-06T08:00:46Z</time>
      </trkpt>
      <trkpt lat="44.51895" lon="5.96888">
        <ele>1523.4000244141</ele>
        <time>2016-05-06T08:00:50Z</time>
      </trkpt>
      <trkpt lat="44.51871" lon="5.96882">
        <ele>1523.4000244141</ele>
        <time>2016-05-06T08:00:55Z</time>
      </trkpt>
      <trkpt lat="44.5186" lon="5.96878">
        <ele>1522.4000244141</ele>
        <time>2016-05-06T08:00:57Z</time>
      </trkpt>
      <trkpt lat="44.51854" lon="5.96875">
        <ele>1522</ele>
        <time>2016-05-06T08:00:58Z</time>
      </trkpt>
      <trkpt lat="44.51848" lon="5.96872">
        <ele>1521.5999755859</ele>
        <time>2016-05-06T08:00:59Z</time>
      </trkpt>
      <trkpt lat="44.51843" lon="5.96868">
        <ele>1521.1999511719</ele>
        <time>2016-05-06T08:01:00Z</time>
      </trkpt>
      <trkpt lat="44.51835" lon="5.96854">
        <ele>1520.5999755859</ele>
        <time>2016-05-06T08:01:02Z</time>
      </trkpt>
      <trkpt lat="44.51829" lon="5.96849">
        <ele>1520</ele>
        <time>2016-05-06T08:01:03Z</time>
      </trkpt>
      <trkpt lat="44.51823" lon="5.96847">
        <ele>1519.5999755859</ele>
        <time>2016-05-06T08:01:04Z</time>
      </trkpt>
      <trkpt lat="44.51818" lon="5.96847">
        <ele>1519</ele>
        <time>2016-05-06T08:01:05Z</time>
      </trkpt>
      <trkpt lat="44.51813" lon="5.96847">
        <ele>1518.5999755859</ele>
        <time>2016-05-06T08:01:06Z</time>
      </trkpt>
      <trkpt lat="44.51803" lon="5.96848">
        <ele>1518.5999755859</ele>
        <time>2016-05-06T08:01:08Z</time>
      </trkpt>
      <trkpt lat="44.51788" lon="5.96852">
        <ele>1518.5999755859</ele>
        <time>2016-05-06T08:01:11Z</time>
      </trkpt>
      <trkpt lat="44.5178" lon="5.96852">
        <ele>1518.5999755859</ele>
        <time>2016-05-06T08:01:12Z</time>
      </trkpt>
      <trkpt lat="44.51769" lon="5.96855">
        <ele>1518</ele>
        <time>2016-05-06T08:01:14Z</time>
      </trkpt>
      <trkpt lat="44.51763" lon="5.96857">
        <ele>1517.5999755859</ele>
        <time>2016-05-06T08:01:15Z</time>
      </trkpt>
      <trkpt lat="44.51756" lon="5.96858">
        <ele>1517.1999511719</ele>
        <time>2016-05-06T08:01:16Z</time>
      </trkpt>
      <trkpt lat="44.51748" lon="5.9686">
        <ele>1517.1999511719</ele>
        <time>2016-05-06T08:01:17Z</time>
      </trkpt>
      <trkpt lat="44.51741" lon="5.96862">
        <ele>1515.8000488281</ele>
        <time>2016-05-06T08:01:18Z</time>
      </trkpt>
      <trkpt lat="44.51733" lon="5.96864">
        <ele>1515.1999511719</ele>
        <time>2016-05-06T08:01:19Z</time>
      </trkpt>
      <trkpt lat="44.51725" lon="5.96865">
        <ele>1514.4000244141</ele>
        <time>2016-05-06T08:01:20Z</time>
      </trkpt>
      <trkpt lat="44.51717" lon="5.96862">
        <ele>1513.8000488281</ele>
        <time>2016-05-06T08:01:21Z</time>
      </trkpt>
      <trkpt lat="44.51702" lon="5.96858">
        <ele>1513</ele>
        <time>2016-05-06T08:01:23Z</time>
      </trkpt>
      <trkpt lat="44.51696" lon="5.96861">
        <ele>1512.4000244141</ele>
        <time>2016-05-06T08:01:24Z</time>
      </trkpt>
      <trkpt lat="44.5169" lon="5.96865">
        <ele>1512</ele>
        <time>2016-05-06T08:01:25Z</time>
      </trkpt>
      <trkpt lat="44.51686" lon="5.9687">
        <ele>1511.5999755859</ele>
        <time>2016-05-06T08:01:26Z</time>
      </trkpt>
      <trkpt lat="44.5168" lon="5.96872">
        <ele>1511.5999755859</ele>
        <time>2016-05-06T08:01:27Z</time>
      </trkpt>
      <trkpt lat="44.51664" lon="5.96866">
        <ele>1511.5999755859</ele>
        <time>2016-05-06T08:01:30Z</time>
      </trkpt>
      <trkpt lat="44.51657" lon="5.96866">
        <ele>1511.5999755859</ele>
        <time>2016-05-06T08:01:31Z</time>
      </trkpt>
      <trkpt lat="44.51651" lon="5.96868">
        <ele>1511.5999755859</ele>
        <time>2016-05-06T08:01:32Z</time>
      </trkpt>
      <trkpt lat="44.51628" lon="5.96884">
        <ele>1511.5999755859</ele>
        <time>2016-05-06T08:01:36Z</time>
      </trkpt>
      <trkpt lat="44.51616" lon="5.96891">
        <ele>1511.1999511719</ele>
        <time>2016-05-06T08:01:38Z</time>
      </trkpt>
      <trkpt lat="44.51601" lon="5.96899">
        <ele>1510.4000244141</ele>
        <time>2016-05-06T08:01:40Z</time>
      </trkpt>
      <trkpt lat="44.51595" lon="5.96901">
        <ele>1510</ele>
        <time>2016-05-06T08:01:41Z</time>
      </trkpt>
      <trkpt lat="44.51589" lon="5.969">
        <ele>1509.5999755859</ele>
        <time>2016-05-06T08:01:42Z</time>
      </trkpt>
      <trkpt lat="44.51579" lon="5.96894">
        <ele>1509.5999755859</ele>
        <time>2016-05-06T08:01:44Z</time>
      </trkpt>
      <trkpt lat="44.51573" lon="5.9689">
        <ele>1509.5999755859</ele>
        <time>2016-05-06T08:01:45Z</time>
      </trkpt>
      <trkpt lat="44.51567" lon="5.9689">
        <ele>1509.5999755859</ele>
        <time>2016-05-06T08:01:46Z</time>
      </trkpt>
      <trkpt lat="44.51562" lon="5.96891">
        <ele>1509.5999755859</ele>
        <time>2016-05-06T08:01:47Z</time>
      </trkpt>
      <trkpt lat="44.5155" lon="5.96903">
        <ele>1509.5999755859</ele>
        <time>2016-05-06T08:01:49Z</time>
      </trkpt>
      <trkpt lat="44.51541" lon="5.9691">
        <ele>1509.5999755859</ele>
        <time>2016-05-06T08:01:51Z</time>
      </trkpt>
      <trkpt lat="44.5151" lon="5.96911">
        <ele>1509.5999755859</ele>
        <time>2016-05-06T08:01:57Z</time>
      </trkpt>
      <trkpt lat="44.51487" lon="5.96909">
        <ele>1509.5999755859</ele>
        <time>2016-05-06T08:02:01Z</time>
      </trkpt>
      <trkpt lat="44.51482" lon="5.9691">
        <ele>1509.5999755859</ele>
        <time>2016-05-06T08:02:02Z</time>
      </trkpt>
      <trkpt lat="44.51451" lon="5.96911">
        <ele>1509.5999755859</ele>
        <time>2016-05-06T08:02:08Z</time>
      </trkpt>
      <trkpt lat="44.51431" lon="5.96926">
        <ele>1509.5999755859</ele>
        <time>2016-05-06T08:02:12Z</time>
      </trkpt>
      <trkpt lat="44.51425" lon="5.96929">
        <ele>1509.5999755859</ele>
        <time>2016-05-06T08:02:13Z</time>
      </trkpt>
      <trkpt lat="44.51412" lon="5.96937">
        <ele>1508.5999755859</ele>
        <time>2016-05-06T08:02:15Z</time>
      </trkpt>
      <trkpt lat="44.51406" lon="5.96941">
        <ele>1508.1999511719</ele>
        <time>2016-05-06T08:02:16Z</time>
      </trkpt>
      <trkpt lat="44.51401" lon="5.96946">
        <ele>1507.8000488281</ele>
        <time>2016-05-06T08:02:17Z</time>
      </trkpt>
      <trkpt lat="44.51395" lon="5.9695">
        <ele>1507.8000488281</ele>
        <time>2016-05-06T08:02:18Z</time>
      </trkpt>
      <trkpt lat="44.5139" lon="5.96954">
        <ele>1507.4000244141</ele>
        <time>2016-05-06T08:02:19Z</time>
      </trkpt>
      <trkpt lat="44.51384" lon="5.96956">
        <ele>1507.4000244141</ele>
        <time>2016-05-06T08:02:20Z</time>
      </trkpt>
      <trkpt lat="44.51372" lon="5.9696">
        <ele>1507</ele>
        <time>2016-05-06T08:02:22Z</time>
      </trkpt>
      <trkpt lat="44.51366" lon="5.96962">
        <ele>1507</ele>
        <time>2016-05-06T08:02:23Z</time>
      </trkpt>
      <trkpt lat="44.5136" lon="5.96964">
        <ele>1506.1999511719</ele>
        <time>2016-05-06T08:02:24Z</time>
      </trkpt>
      <trkpt lat="44.51353" lon="5.96966">
        <ele>1505.8000488281</ele>
        <time>2016-05-06T08:02:25Z</time>
      </trkpt>
      <trkpt lat="44.51346" lon="5.96969">
        <ele>1505.1999511719</ele>
        <time>2016-05-06T08:02:26Z</time>
      </trkpt>
      <trkpt lat="44.51339" lon="5.96971">
        <ele>1504.5999755859</ele>
        <time>2016-05-06T08:02:27Z</time>
      </trkpt>
      <trkpt lat="44.51331" lon="5.96973">
        <ele>1504.5999755859</ele>
        <time>2016-05-06T08:02:28Z</time>
      </trkpt>
      <trkpt lat="44.51324" lon="5.96975">
        <ele>1503.4000244141</ele>
        <time>2016-05-06T08:02:29Z</time>
      </trkpt>
      <trkpt lat="44.51315" lon="5.96977">
        <ele>1502.8000488281</ele>
        <time>2016-05-06T08:02:30Z</time>
      </trkpt>
      <trkpt lat="44.51299" lon="5.96978">
        <ele>1502.4000244141</ele>
        <time>2016-05-06T08:02:32Z</time>
      </trkpt>
      <trkpt lat="44.51291" lon="5.96978">
        <ele>1502.4000244141</ele>
        <time>2016-05-06T08:02:33Z</time>
      </trkpt>
      <trkpt lat="44.51282" lon="5.96978">
        <ele>1501.5999755859</ele>
        <time>2016-05-06T08:02:34Z</time>
      </trkpt>
      <trkpt lat="44.51273" lon="5.96977">
        <ele>1500.8000488281</ele>
        <time>2016-05-06T08:02:35Z</time>
      </trkpt>
      <trkpt lat="44.51264" lon="5.96978">
        <ele>1500.1999511719</ele>
        <time>2016-05-06T08:02:36Z</time>
      </trkpt>
      <trkpt lat="44.51246" lon="5.96979">
        <ele>1499.4000244141</ele>
        <time>2016-05-06T08:02:38Z</time>
      </trkpt>
      <trkpt lat="44.51237" lon="5.96979">
        <ele>1498</ele>
        <time>2016-05-06T08:02:39Z</time>
      </trkpt>
      <trkpt lat="44.51219" lon="5.9698">
        <ele>1497.5999755859</ele>
        <time>2016-05-06T08:02:41Z</time>
      </trkpt>
      <trkpt lat="44.5121" lon="5.96981">
        <ele>1497.1999511719</ele>
        <time>2016-05-06T08:02:42Z</time>
      </trkpt>
      <trkpt lat="44.51192" lon="5.96983">
        <ele>1496.4000244141</ele>
        <time>2016-05-06T08:02:44Z</time>
      </trkpt>
      <trkpt lat="44.51182" lon="5.96984">
        <ele>1495.8000488281</ele>
        <time>2016-05-06T08:02:45Z</time>
      </trkpt>
      <trkpt lat="44.51165" lon="5.96987">
        <ele>1495.8000488281</ele>
        <time>2016-05-06T08:02:47Z</time>
      </trkpt>
      <trkpt lat="44.51156" lon="5.96991">
        <ele>1495.4000244141</ele>
        <time>2016-05-06T08:02:48Z</time>
      </trkpt>
      <trkpt lat="44.51147" lon="5.96996">
        <ele>1494.5999755859</ele>
        <time>2016-05-06T08:02:49Z</time>
      </trkpt>
      <trkpt lat="44.51139" lon="5.97">
        <ele>1494</ele>
        <time>2016-05-06T08:02:50Z</time>
      </trkpt>
      <trkpt lat="44.51131" lon="5.97003">
        <ele>1493.5999755859</ele>
        <time>2016-05-06T08:02:51Z</time>
      </trkpt>
      <trkpt lat="44.51113" lon="5.97007">
        <ele>1493</ele>
        <time>2016-05-06T08:02:53Z</time>
      </trkpt>
      <trkpt lat="44.51105" lon="5.97009">
        <ele>1492</ele>
        <time>2016-05-06T08:02:54Z</time>
      </trkpt>
      <trkpt lat="44.51097" lon="5.97013">
        <ele>1491.4000244141</ele>
        <time>2016-05-06T08:02:55Z</time>
      </trkpt>
      <trkpt lat="44.51088" lon="5.97017">
        <ele>1491</ele>
        <time>2016-05-06T08:02:56Z</time>
      </trkpt>
      <trkpt lat="44.51081" lon="5.97024">
        <ele>1491</ele>
        <time>2016-05-06T08:02:57Z</time>
      </trkpt>
      <trkpt lat="44.51073" lon="5.97031">
        <ele>1490.4000244141</ele>
        <time>2016-05-06T08:02:58Z</time>
      </trkpt>
      <trkpt lat="44.51066" lon="5.97041">
        <ele>1489.4000244141</ele>
        <time>2016-05-06T08:02:59Z</time>
      </trkpt>
      <trkpt lat="44.51059" lon="5.9705">
        <ele>1489</ele>
        <time>2016-05-06T08:03:00Z</time>
      </trkpt>
      <trkpt lat="44.51052" lon="5.97059">
        <ele>1489</ele>
        <time>2016-05-06T08:03:01Z</time>
      </trkpt>
      <trkpt lat="44.51033" lon="5.97083">
        <ele>1488.1999511719</ele>
        <time>2016-05-06T08:03:04Z</time>
      </trkpt>
      <trkpt lat="44.51027" lon="5.97089">
        <ele>1487.8000488281</ele>
        <time>2016-05-06T08:03:05Z</time>
      </trkpt>
      <trkpt lat="44.5102" lon="5.97093">
        <ele>1487.4000244141</ele>
        <time>2016-05-06T08:03:06Z</time>
      </trkpt>
      <trkpt lat="44.51011" lon="5.97101">
        <ele>1486.8000488281</ele>
        <time>2016-05-06T08:03:08Z</time>
      </trkpt>
      <trkpt lat="44.50995" lon="5.97113">
        <ele>1487.4000244141</ele>
        <time>2016-05-06T08:03:11Z</time>
      </trkpt>
      <trkpt lat="44.50989" lon="5.97116">
        <ele>1487.4000244141</ele>
        <time>2016-05-06T08:03:12Z</time>
      </trkpt>
      <trkpt lat="44.50983" lon="5.97117">
        <ele>1488.1999511719</ele>
        <time>2016-05-06T08:03:13Z</time>
      </trkpt>
      <trkpt lat="44.50977" lon="5.97116">
        <ele>1488.5999755859</ele>
        <time>2016-05-06T08:03:14Z</time>
      </trkpt>
      <trkpt lat="44.50972" lon="5.97115">
        <ele>1489</ele>
        <time>2016-05-06T08:03:15Z</time>
      </trkpt>
      <trkpt lat="44.50962" lon="5.97112">
        <ele>1489</ele>
        <time>2016-05-06T08:03:17Z</time>
      </trkpt>
      <trkpt lat="44.50953" lon="5.97109">
        <ele>1489.4000244141</ele>
        <time>2016-05-06T08:03:19Z</time>
      </trkpt>
      <trkpt lat="44.50944" lon="5.97106">
        <ele>1489.8000488281</ele>
        <time>2016-05-06T08:03:21Z</time>
      </trkpt>
      <trkpt lat="44.50939" lon="5.97104">
        <ele>1490.1999511719</ele>
        <time>2016-05-06T08:03:22Z</time>
      </trkpt>
      <trkpt lat="44.50935" lon="5.97102">
        <ele>1491</ele>
        <time>2016-05-06T08:03:23Z</time>
      </trkpt>
      <trkpt lat="44.50906" lon="5.97086">
        <ele>1491</ele>
        <time>2016-05-06T08:03:30Z</time>
      </trkpt>
      <trkpt lat="44.50895" lon="5.97078">
        <ele>1491.4000244141</ele>
        <time>2016-05-06T08:03:35Z</time>
      </trkpt>
      <trkpt lat="44.50895" lon="5.97078">
        <ele>1492.1999511719</ele>
        <time>2016-05-06T08:03:36Z</time>
      </trkpt>
      <trkpt lat="44.50894" lon="5.97077">
        <ele>1492.5999755859</ele>
        <time>2016-05-06T08:03:37Z</time>
      </trkpt>
      <trkpt lat="44.50893" lon="5.97077">
        <ele>1493.1999511719</ele>
        <time>2016-05-06T08:03:39Z</time>
      </trkpt>
      <trkpt lat="44.50892" lon="5.97077">
        <ele>1493.1999511719</ele>
        <time>2016-05-06T08:03:40Z</time>
      </trkpt>
      <trkpt lat="44.50891" lon="5.97076">
        <ele>1493.5999755859</ele>
        <time>2016-05-06T08:03:46Z</time>
      </trkpt>
      <trkpt lat="44.50891" lon="5.97076">
        <ele>1494</ele>
        <time>2016-05-06T08:03:47Z</time>
      </trkpt>
      <trkpt lat="44.5089" lon="5.97075">
        <ele>1494.4000244141</ele>
        <time>2016-05-06T08:03:48Z</time>
      </trkpt>
      <trkpt lat="44.5089" lon="5.97075">
        <ele>1495.4000244141</ele>
        <time>2016-05-06T08:03:50Z</time>
      </trkpt>
      <trkpt lat="44.5089" lon="5.97073">
        <ele>1495.8000488281</ele>
        <time>2016-05-06T08:04:01Z</time>
      </trkpt>
      <trkpt lat="44.5089" lon="5.97073">
        <ele>1496.1999511719</ele>
        <time>2016-05-06T08:04:02Z</time>
      </trkpt>
      <trkpt lat="44.50889" lon="5.97073">
        <ele>1496.5999755859</ele>
        <time>2016-05-06T08:04:03Z</time>
      </trkpt>
      <trkpt lat="44.50889" lon="5.97073">
        <ele>1497</ele>
        <time>2016-05-06T08:04:05Z</time>
      </trkpt>
      <trkpt lat="44.50889" lon="5.97073">
        <ele>1497.4000244141</ele>
        <time>2016-05-06T08:04:06Z</time>
      </trkpt>
      <trkpt lat="44.50886" lon="5.9707">
        <ele>1497.4000244141</ele>
        <time>2016-05-06T08:04:37Z</time>
      </trkpt>
      <trkpt lat="44.50874" lon="5.97058">
        <ele>1497.4000244141</ele>
        <time>2016-05-06T08:04:44Z</time>
      </trkpt>
      <trkpt lat="44.50871" lon="5.97054">
        <ele>1497.8000488281</ele>
        <time>2016-05-06T08:04:46Z</time>
      </trkpt>
      <trkpt lat="44.50868" lon="5.97052">
        <ele>1498.1999511719</ele>
        <time>2016-05-06T08:04:47Z</time>
      </trkpt>
      <trkpt lat="44.50866" lon="5.9705">
        <ele>1498.5999755859</ele>
        <time>2016-05-06T08:04:48Z</time>
      </trkpt>
      <trkpt lat="44.50861" lon="5.97045">
        <ele>1499.1999511719</ele>
        <time>2016-05-06T08:04:50Z</time>
      </trkpt>
      <trkpt lat="44.50859" lon="5.97043">
        <ele>1499.5999755859</ele>
        <time>2016-05-06T08:04:51Z</time>
      </trkpt>
      <trkpt lat="44.50854" lon="5.9704">
        <ele>1499.5999755859</ele>
        <time>2016-05-06T08:04:53Z</time>
      </trkpt>
      <trkpt lat="44.50845" lon="5.97029">
        <ele>1500</ele>
        <time>2016-05-06T08:04:59Z</time>
      </trkpt>
      <trkpt lat="44.50842" lon="5.97027">
        <ele>1500.4000244141</ele>
        <time>2016-05-06T08:05:01Z</time>
      </trkpt>
      <trkpt lat="44.50841" lon="5.97026">
        <ele>1501.1999511719</ele>
        <time>2016-05-06T08:05:02Z</time>
      </trkpt>
      <trkpt lat="44.50839" lon="5.97024">
        <ele>1501.5999755859</ele>
        <time>2016-05-06T08:05:03Z</time>
      </trkpt>
      <trkpt lat="44.50834" lon="5.97018">
        <ele>1502.5999755859</ele>
        <time>2016-05-06T08:05:07Z</time>
      </trkpt>
      <trkpt lat="44.50832" lon="5.97017">
        <ele>1503</ele>
        <time>2016-05-06T08:05:08Z</time>
      </trkpt>
      <trkpt lat="44.50832" lon="5.97016">
        <ele>1503.4000244141</ele>
        <time>2016-05-06T08:05:09Z</time>
      </trkpt>
      <trkpt lat="44.5083" lon="5.97014">
        <ele>1503.8000488281</ele>
        <time>2016-05-06T08:05:11Z</time>
      </trkpt>
      <trkpt lat="44.50828" lon="5.97011">
        <ele>1504.1999511719</ele>
        <time>2016-05-06T08:05:13Z</time>
      </trkpt>
      <trkpt lat="44.50827" lon="5.97009">
        <ele>1504.5999755859</ele>
        <time>2016-05-06T08:05:14Z</time>
      </trkpt>
      <trkpt lat="44.50826" lon="5.97007">
        <ele>1505</ele>
        <time>2016-05-06T08:05:15Z</time>
      </trkpt>
      <trkpt lat="44.50824" lon="5.97004">
        <ele>1505.8000488281</ele>
        <time>2016-05-06T08:05:17Z</time>
      </trkpt>
      <trkpt lat="44.50811" lon="5.96992">
        <ele>1505.8000488281</ele>
        <time>2016-05-06T08:05:23Z</time>
      </trkpt>
      <trkpt lat="44.508" lon="5.96983">
        <ele>1506.1999511719</ele>
        <time>2016-05-06T08:05:30Z</time>
      </trkpt>
      <trkpt lat="44.50795" lon="5.9698">
        <ele>1506.8000488281</ele>
        <time>2016-05-06T08:05:32Z</time>
      </trkpt>
      <trkpt lat="44.50792" lon="5.96979">
        <ele>1507.5999755859</ele>
        <time>2016-05-06T08:05:33Z</time>
      </trkpt>
      <trkpt lat="44.50791" lon="5.96979">
        <ele>1508</ele>
        <time>2016-05-06T08:05:34Z</time>
      </trkpt>
      <trkpt lat="44.50784" lon="5.96975">
        <ele>1508</ele>
        <time>2016-05-06T08:05:40Z</time>
      </trkpt>
      <trkpt lat="44.50782" lon="5.96974">
        <ele>1508.4000244141</ele>
        <time>2016-05-06T08:05:42Z</time>
      </trkpt>
      <trkpt lat="44.5078" lon="5.96972">
        <ele>1509.4000244141</ele>
        <time>2016-05-06T08:05:44Z</time>
      </trkpt>
      <trkpt lat="44.50779" lon="5.96971">
        <ele>1509.8000488281</ele>
        <time>2016-05-06T08:05:45Z</time>
      </trkpt>
      <trkpt lat="44.50778" lon="5.9697">
        <ele>1510.1999511719</ele>
        <time>2016-05-06T08:05:46Z</time>
      </trkpt>
      <trkpt lat="44.50774" lon="5.96968">
        <ele>1510.1999511719</ele>
        <time>2016-05-06T08:05:48Z</time>
      </trkpt>
      <trkpt lat="44.50767" lon="5.96964">
        <ele>1510.1999511719</ele>
        <time>2016-05-06T08:05:54Z</time>
      </trkpt>
      <trkpt lat="44.50765" lon="5.96962">
        <ele>1510.8000488281</ele>
        <time>2016-05-06T08:05:58Z</time>
      </trkpt>
      <trkpt lat="44.50764" lon="5.96961">
        <ele>1511.1999511719</ele>
        <time>2016-05-06T08:05:59Z</time>
      </trkpt>
      <trkpt lat="44.50763" lon="5.9696">
        <ele>1511.8000488281</ele>
        <time>2016-05-06T08:06:00Z</time>
      </trkpt>
      <trkpt lat="44.50762" lon="5.96959">
        <ele>1512.1999511719</ele>
        <time>2016-05-06T08:06:01Z</time>
      </trkpt>
      <trkpt lat="44.50761" lon="5.96958">
        <ele>1512.5999755859</ele>
        <time>2016-05-06T08:06:02Z</time>
      </trkpt>
      <trkpt lat="44.5076" lon="5.96956">
        <ele>1512.5999755859</ele>
        <time>2016-05-06T08:06:03Z</time>
      </trkpt>
      <trkpt lat="44.50753" lon="5.96951">
        <ele>1513.1999511719</ele>
        <time>2016-05-06T08:06:10Z</time>
      </trkpt>
      <trkpt lat="44.50752" lon="5.9695">
        <ele>1513.5999755859</ele>
        <time>2016-05-06T08:06:11Z</time>
      </trkpt>
      <trkpt lat="44.5075" lon="5.96949">
        <ele>1514</ele>
        <time>2016-05-06T08:06:12Z</time>
      </trkpt>
      <trkpt lat="44.50749" lon="5.96949">
        <ele>1514.4000244141</ele>
        <time>2016-05-06T08:06:13Z</time>
      </trkpt>
      <trkpt lat="44.50749" lon="5.96948">
        <ele>1514.8000488281</ele>
        <time>2016-05-06T08:06:14Z</time>
      </trkpt>
      <trkpt lat="44.50745" lon="5.96945">
        <ele>1514.8000488281</ele>
        <time>2016-05-06T08:06:19Z</time>
      </trkpt>
      <trkpt lat="44.5074" lon="5.96943">
        <ele>1515.1999511719</ele>
        <time>2016-05-06T08:06:24Z</time>
      </trkpt>
      <trkpt lat="44.50739" lon="5.96942">
        <ele>1515.5999755859</ele>
        <time>2016-05-06T08:06:25Z</time>
      </trkpt>
      <trkpt lat="44.50737" lon="5.96941">
        <ele>1516.1999511719</ele>
        <time>2016-05-06T08:06:26Z</time>
      </trkpt>
      <trkpt lat="44.50735" lon="5.9694">
        <ele>1516.5999755859</ele>
        <time>2016-05-06T08:06:27Z</time>
      </trkpt>
      <trkpt lat="44.50734" lon="5.96939">
        <ele>1517</ele>
        <time>2016-05-06T08:06:28Z</time>
      </trkpt>
      <trkpt lat="44.50723" lon="5.96927">
        <ele>1517</ele>
        <time>2016-05-06T08:06:37Z</time>
      </trkpt>
      <trkpt lat="44.50718" lon="5.96925">
        <ele>1517.4000244141</ele>
        <time>2016-05-06T08:06:39Z</time>
      </trkpt>
      <trkpt lat="44.50716" lon="5.96922">
        <ele>1518</ele>
        <time>2016-05-06T08:06:40Z</time>
      </trkpt>
      <trkpt lat="44.50714" lon="5.96921">
        <ele>1518.5999755859</ele>
        <time>2016-05-06T08:06:41Z</time>
      </trkpt>
      <trkpt lat="44.50711" lon="5.9692">
        <ele>1519</ele>
        <time>2016-05-06T08:06:42Z</time>
      </trkpt>
      <trkpt lat="44.5071" lon="5.96919">
        <ele>1519.5999755859</ele>
        <time>2016-05-06T08:06:43Z</time>
      </trkpt>
      <trkpt lat="44.50703" lon="5.96915">
        <ele>1519.5999755859</ele>
        <time>2016-05-06T08:06:49Z</time>
      </trkpt>
      <trkpt lat="44.50698" lon="5.96911">
        <ele>1519.5999755859</ele>
        <time>2016-05-06T08:06:52Z</time>
      </trkpt>
      <trkpt lat="44.50694" lon="5.96909">
        <ele>1519.5999755859</ele>
        <time>2016-05-06T08:06:55Z</time>
      </trkpt>
      <trkpt lat="44.50682" lon="5.96901">
        <ele>1519.5999755859</ele>
        <time>2016-05-06T08:07:01Z</time>
      </trkpt>
      <trkpt lat="44.50676" lon="5.96896">
        <ele>1520</ele>
        <time>2016-05-06T08:07:04Z</time>
      </trkpt>
      <trkpt lat="44.50676" lon="5.96895">
        <ele>1520.4000244141</ele>
        <time>2016-05-06T08:07:05Z</time>
      </trkpt>
      <trkpt lat="44.50674" lon="5.96894">
        <ele>1520.8000488281</ele>
        <time>2016-05-06T08:07:06Z</time>
      </trkpt>
      <trkpt lat="44.50672" lon="5.96892">
        <ele>1521.1999511719</ele>
        <time>2016-05-06T08:07:07Z</time>
      </trkpt>
      <trkpt lat="44.50671" lon="5.9689">
        <ele>1521.5999755859</ele>
        <time>2016-05-06T08:07:08Z</time>
      </trkpt>
      <trkpt lat="44.50653" lon="5.96882">
        <ele>1521.5999755859</ele>
        <time>2016-05-06T08:07:15Z</time>
      </trkpt>
      <trkpt lat="44.50644" lon="5.96876">
        <ele>1521.5999755859</ele>
        <time>2016-05-06T08:07:22Z</time>
      </trkpt>
      <trkpt lat="44.50638" lon="5.9687">
        <ele>1522.1999511719</ele>
        <time>2016-05-06T08:07:30Z</time>
      </trkpt>
      <trkpt lat="44.50638" lon="5.96869">
        <ele>1522.5999755859</ele>
        <time>2016-05-06T08:07:31Z</time>
      </trkpt>
      <trkpt lat="44.50637" lon="5.96868">
        <ele>1523</ele>
        <time>2016-05-06T08:07:32Z</time>
      </trkpt>
      <trkpt lat="44.50637" lon="5.96866">
        <ele>1523.4000244141</ele>
        <time>2016-05-06T08:07:33Z</time>
      </trkpt>
      <trkpt lat="44.50637" lon="5.96865">
        <ele>1524</ele>
        <time>2016-05-06T08:07:34Z</time>
      </trkpt>
      <trkpt lat="44.50636" lon="5.96856">
        <ele>1524.4000244141</ele>
        <time>2016-05-06T08:07:39Z</time>
      </trkpt>
      <trkpt lat="44.50635" lon="5.96855">
        <ele>1524.8000488281</ele>
        <time>2016-05-06T08:07:40Z</time>
      </trkpt>
      <trkpt lat="44.50634" lon="5.96853">
        <ele>1525.1999511719</ele>
        <time>2016-05-06T08:07:41Z</time>
      </trkpt>
      <trkpt lat="44.50633" lon="5.96852">
        <ele>1525.5999755859</ele>
        <time>2016-05-06T08:07:42Z</time>
      </trkpt>
      <trkpt lat="44.50633" lon="5.9685">
        <ele>1526.1999511719</ele>
        <time>2016-05-06T08:07:43Z</time>
      </trkpt>
      <trkpt lat="44.50631" lon="5.96844">
        <ele>1526.5999755859</ele>
        <time>2016-05-06T08:07:48Z</time>
      </trkpt>
      <trkpt lat="44.50631" lon="5.96843">
        <ele>1527</ele>
        <time>2016-05-06T08:07:49Z</time>
      </trkpt>
      <trkpt lat="44.50631" lon="5.96842">
        <ele>1527.4000244141</ele>
        <time>2016-05-06T08:07:50Z</time>
      </trkpt>
      <trkpt lat="44.50631" lon="5.96841">
        <ele>1528</ele>
        <time>2016-05-06T08:07:51Z</time>
      </trkpt>
      <trkpt lat="44.5063" lon="5.9684">
        <ele>1528.4000244141</ele>
        <time>2016-05-06T08:07:52Z</time>
      </trkpt>
      <trkpt lat="44.50629" lon="5.96831">
        <ele>1528.4000244141</ele>
        <time>2016-05-06T08:07:59Z</time>
      </trkpt>
      <trkpt lat="44.5063" lon="5.9683">
        <ele>1528.8000488281</ele>
        <time>2016-05-06T08:08:02Z</time>
      </trkpt>
      <trkpt lat="44.5063" lon="5.9683">
        <ele>1529.4000244141</ele>
        <time>2016-05-06T08:08:03Z</time>
      </trkpt>
      <trkpt lat="44.5063" lon="5.96829">
        <ele>1529.8000488281</ele>
        <time>2016-05-06T08:08:04Z</time>
      </trkpt>
      <trkpt lat="44.5063" lon="5.96828">
        <ele>1530.4000244141</ele>
        <time>2016-05-06T08:08:05Z</time>
      </trkpt>
      <trkpt lat="44.5063" lon="5.96826">
        <ele>1530.8000488281</ele>
        <time>2016-05-06T08:08:06Z</time>
      </trkpt>
      <trkpt lat="44.50631" lon="5.96815">
        <ele>1531.1999511719</ele>
        <time>2016-05-06T08:08:18Z</time>
      </trkpt>
      <trkpt lat="44.50631" lon="5.96814">
        <ele>1531.5999755859</ele>
        <time>2016-05-06T08:08:19Z</time>
      </trkpt>
      <trkpt lat="44.50631" lon="5.96813">
        <ele>1532</ele>
        <time>2016-05-06T08:08:20Z</time>
      </trkpt>
      <trkpt lat="44.50631" lon="5.96812">
        <ele>1532.4000244141</ele>
        <time>2016-05-06T08:08:21Z</time>
      </trkpt>
      <trkpt lat="44.50631" lon="5.9681">
        <ele>1532.8000488281</ele>
        <time>2016-05-06T08:08:22Z</time>
      </trkpt>
      <trkpt lat="44.50629" lon="5.96802">
        <ele>1532.8000488281</ele>
        <time>2016-05-06T08:08:30Z</time>
      </trkpt>
      <trkpt lat="44.50626" lon="5.96795">
        <ele>1532.8000488281</ele>
        <time>2016-05-06T08:08:36Z</time>
      </trkpt>
      <trkpt lat="44.50623" lon="5.96786">
        <ele>1533.5999755859</ele>
        <time>2016-05-06T08:08:45Z</time>
      </trkpt>
      <trkpt lat="44.50623" lon="5.96785">
        <ele>1534</ele>
        <time>2016-05-06T08:08:46Z</time>
      </trkpt>
      <trkpt lat="44.50623" lon="5.96783">
        <ele>1534.5999755859</ele>
        <time>2016-05-06T08:08:47Z</time>
      </trkpt>
      <trkpt lat="44.50623" lon="5.96783">
        <ele>1535</ele>
        <time>2016-05-06T08:08:48Z</time>
      </trkpt>
      <trkpt lat="44.50619" lon="5.96773">
        <ele>1535</ele>
        <time>2016-05-06T08:08:56Z</time>
      </trkpt>
      <trkpt lat="44.50618" lon="5.96771">
        <ele>1535</ele>
        <time>2016-05-06T08:08:58Z</time>
      </trkpt>
      <trkpt lat="44.50615" lon="5.96769">
        <ele>1535</ele>
        <time>2016-05-06T08:09:01Z</time>
      </trkpt>
      <trkpt lat="44.50613" lon="5.96767">
        <ele>1535.4000244141</ele>
        <time>2016-05-06T08:09:03Z</time>
      </trkpt>
      <trkpt lat="44.50612" lon="5.96766">
        <ele>1536.1999511719</ele>
        <time>2016-05-06T08:09:04Z</time>
      </trkpt>
      <trkpt lat="44.50611" lon="5.96765">
        <ele>1536.5999755859</ele>
        <time>2016-05-06T08:09:05Z</time>
      </trkpt>
      <trkpt lat="44.5061" lon="5.96764">
        <ele>1537</ele>
        <time>2016-05-06T08:09:06Z</time>
      </trkpt>
      <trkpt lat="44.50608" lon="5.96765">
        <ele>1537</ele>
        <time>2016-05-06T08:09:07Z</time>
      </trkpt>
      <trkpt lat="44.50608" lon="5.96765">
        <ele>1537</ele>
        <time>2016-05-06T08:09:12Z</time>
      </trkpt>
      <trkpt lat="44.50602" lon="5.96759">
        <ele>1537</ele>
        <time>2016-05-06T08:09:22Z</time>
      </trkpt>
      <trkpt lat="44.50595" lon="5.96755">
        <ele>1537</ele>
        <time>2016-05-06T08:09:30Z</time>
      </trkpt>
      <trkpt lat="44.50587" lon="5.96757">
        <ele>1537</ele>
        <time>2016-05-06T08:09:33Z</time>
      </trkpt>
      <trkpt lat="44.50583" lon="5.96758">
        <ele>1537</ele>
        <time>2016-05-06T08:09:35Z</time>
      </trkpt>
      <trkpt lat="44.50567" lon="5.96759">
        <ele>1537</ele>
        <time>2016-05-06T08:09:42Z</time>
      </trkpt>
      <trkpt lat="44.50554" lon="5.9675">
        <ele>1537</ele>
        <time>2016-05-06T08:09:48Z</time>
      </trkpt>
      <trkpt lat="44.50538" lon="5.96754">
        <ele>1537</ele>
        <time>2016-05-06T08:09:55Z</time>
      </trkpt>
      <trkpt lat="44.50527" lon="5.96758">
        <ele>1537.5999755859</ele>
        <time>2016-05-06T08:10:00Z</time>
      </trkpt>
      <trkpt lat="44.50523" lon="5.96759">
        <ele>1538.4000244141</ele>
        <time>2016-05-06T08:10:02Z</time>
      </trkpt>
      <trkpt lat="44.5052" lon="5.96759">
        <ele>1538.8000488281</ele>
        <time>2016-05-06T08:10:03Z</time>
      </trkpt>
      <trkpt lat="44.50518" lon="5.9676">
        <ele>1539.4000244141</ele>
        <time>2016-05-06T08:10:04Z</time>
      </trkpt>
      <trkpt lat="44.50511" lon="5.96764">
        <ele>1539.4000244141</ele>
        <time>2016-05-06T08:10:08Z</time>
      </trkpt>
      <trkpt lat="44.505" lon="5.96769">
        <ele>1539.4000244141</ele>
        <time>2016-05-06T08:10:14Z</time>
      </trkpt>
      <trkpt lat="44.50497" lon="5.96769">
        <ele>1539.8000488281</ele>
        <time>2016-05-06T08:10:15Z</time>
      </trkpt>
      <trkpt lat="44.50494" lon="5.96767">
        <ele>1540.1999511719</ele>
        <time>2016-05-06T08:10:17Z</time>
      </trkpt>
      <trkpt lat="44.50492" lon="5.96766">
        <ele>1541.1999511719</ele>
        <time>2016-05-06T08:10:18Z</time>
      </trkpt>
      <trkpt lat="44.5049" lon="5.96766">
        <ele>1541.5999755859</ele>
        <time>2016-05-06T08:10:19Z</time>
      </trkpt>
      <trkpt lat="44.50487" lon="5.96764">
        <ele>1541.5999755859</ele>
        <time>2016-05-06T08:10:21Z</time>
      </trkpt>
      <trkpt lat="44.50483" lon="5.96765">
        <ele>1542.4000244141</ele>
        <time>2016-05-06T08:10:24Z</time>
      </trkpt>
      <trkpt lat="44.50482" lon="5.96765">
        <ele>1542.8000488281</ele>
        <time>2016-05-06T08:10:25Z</time>
      </trkpt>
      <trkpt lat="44.5048" lon="5.96765">
        <ele>1543.1999511719</ele>
        <time>2016-05-06T08:10:26Z</time>
      </trkpt>
      <trkpt lat="44.50478" lon="5.96764">
        <ele>1543.8000488281</ele>
        <time>2016-05-06T08:10:27Z</time>
      </trkpt>
      <trkpt lat="44.50476" lon="5.96764">
        <ele>1543.8000488281</ele>
        <time>2016-05-06T08:10:28Z</time>
      </trkpt>
      <trkpt lat="44.50468" lon="5.96761">
        <ele>1543.8000488281</ele>
        <time>2016-05-06T08:10:32Z</time>
      </trkpt>
      <trkpt lat="44.50466" lon="5.96759">
        <ele>1543.8000488281</ele>
        <time>2016-05-06T08:10:34Z</time>
      </trkpt>
      <trkpt lat="44.50451" lon="5.96754">
        <ele>1543.8000488281</ele>
        <time>2016-05-06T08:10:43Z</time>
      </trkpt>
      <trkpt lat="44.5045" lon="5.96753">
        <ele>1544.1999511719</ele>
        <time>2016-05-06T08:10:44Z</time>
      </trkpt>
      <trkpt lat="44.50447" lon="5.96751">
        <ele>1545</ele>
        <time>2016-05-06T08:10:46Z</time>
      </trkpt>
      <trkpt lat="44.50446" lon="5.96749">
        <ele>1545.4000244141</ele>
        <time>2016-05-06T08:10:47Z</time>
      </trkpt>
      <trkpt lat="44.50445" lon="5.96748">
        <ele>1545.8000488281</ele>
        <time>2016-05-06T08:10:48Z</time>
      </trkpt>
      <trkpt lat="44.50444" lon="5.96744">
        <ele>1545.8000488281</ele>
        <time>2016-05-06T08:10:51Z</time>
      </trkpt>
      <trkpt lat="44.50443" lon="5.96742">
        <ele>1546.8000488281</ele>
        <time>2016-05-06T08:10:52Z</time>
      </trkpt>
      <trkpt lat="44.50441" lon="5.9674">
        <ele>1547.1999511719</ele>
        <time>2016-05-06T08:10:53Z</time>
      </trkpt>
      <trkpt lat="44.50439" lon="5.96737">
        <ele>1547.5999755859</ele>
        <time>2016-05-06T08:10:54Z</time>
      </trkpt>
      <trkpt lat="44.50438" lon="5.96735">
        <ele>1548</ele>
        <time>2016-05-06T08:10:55Z</time>
      </trkpt>
      <trkpt lat="44.50438" lon="5.96732">
        <ele>1548</ele>
        <time>2016-05-06T08:10:56Z</time>
      </trkpt>
      <trkpt lat="44.50431" lon="5.96723">
        <ele>1548</ele>
        <time>2016-05-06T08:11:02Z</time>
      </trkpt>
      <trkpt lat="44.50421" lon="5.96723">
        <ele>1548</ele>
        <time>2016-05-06T08:11:06Z</time>
      </trkpt>
      <trkpt lat="44.5042" lon="5.96722">
        <ele>1548</ele>
        <time>2016-05-06T08:11:07Z</time>
      </trkpt>
      <trkpt lat="44.50409" lon="5.96711">
        <ele>1548</ele>
        <time>2016-05-06T08:11:13Z</time>
      </trkpt>
      <trkpt lat="44.50408" lon="5.96709">
        <ele>1548.5999755859</ele>
        <time>2016-05-06T08:11:14Z</time>
      </trkpt>
      <trkpt lat="44.50406" lon="5.96707">
        <ele>1549</ele>
        <time>2016-05-06T08:11:15Z</time>
      </trkpt>
      <trkpt lat="44.50404" lon="5.96705">
        <ele>1549.4000244141</ele>
        <time>2016-05-06T08:11:16Z</time>
      </trkpt>
      <trkpt lat="44.50402" lon="5.96702">
        <ele>1550.4000244141</ele>
        <time>2016-05-06T08:11:18Z</time>
      </trkpt>
      <trkpt lat="44.50397" lon="5.967">
        <ele>1550.4000244141</ele>
        <time>2016-05-06T08:11:20Z</time>
      </trkpt>
      <trkpt lat="44.5038" lon="5.96696">
        <ele>1550.4000244141</ele>
        <time>2016-05-06T08:11:27Z</time>
      </trkpt>
      <trkpt lat="44.50362" lon="5.9669">
        <ele>1550.4000244141</ele>
        <time>2016-05-06T08:11:34Z</time>
      </trkpt>
      <trkpt lat="44.50338" lon="5.9668">
        <ele>1550.4000244141</ele>
        <time>2016-05-06T08:11:40Z</time>
      </trkpt>
      <trkpt lat="44.50334" lon="5.9668">
        <ele>1549.4000244141</ele>
        <time>2016-05-06T08:11:41Z</time>
      </trkpt>
      <trkpt lat="44.50331" lon="5.96679">
        <ele>1548.8000488281</ele>
        <time>2016-05-06T08:11:42Z</time>
      </trkpt>
      <trkpt lat="44.50328" lon="5.96678">
        <ele>1548.4000244141</ele>
        <time>2016-05-06T08:11:43Z</time>
      </trkpt>
      <trkpt lat="44.5032" lon="5.96671">
        <ele>1548</ele>
        <time>2016-05-06T08:11:45Z</time>
      </trkpt>
      <trkpt lat="44.50313" lon="5.96663">
        <ele>1547.4000244141</ele>
        <time>2016-05-06T08:11:47Z</time>
      </trkpt>
      <trkpt lat="44.50308" lon="5.96661">
        <ele>1547</ele>
        <time>2016-05-06T08:11:48Z</time>
      </trkpt>
      <trkpt lat="44.50303" lon="5.96659">
        <ele>1546.5999755859</ele>
        <time>2016-05-06T08:11:50Z</time>
      </trkpt>
      <trkpt lat="44.503" lon="5.96657">
        <ele>1545.8000488281</ele>
        <time>2016-05-06T08:11:51Z</time>
      </trkpt>
      <trkpt lat="44.50288" lon="5.96653">
        <ele>1545.8000488281</ele>
        <time>2016-05-06T08:11:55Z</time>
      </trkpt>
      <trkpt lat="44.50288" lon="5.96651">
        <ele>1545.8000488281</ele>
        <time>2016-05-06T08:11:56Z</time>
      </trkpt>
      <trkpt lat="44.50288" lon="5.96648">
        <ele>1546.1999511719</ele>
        <time>2016-05-06T08:11:57Z</time>
      </trkpt>
      <trkpt lat="44.5029" lon="5.96644">
        <ele>1546.5999755859</ele>
        <time>2016-05-06T08:11:58Z</time>
      </trkpt>
      <trkpt lat="44.50291" lon="5.96639">
        <ele>1547</ele>
        <time>2016-05-06T08:11:59Z</time>
      </trkpt>
      <trkpt lat="44.50288" lon="5.96632">
        <ele>1547.4000244141</ele>
        <time>2016-05-06T08:12:01Z</time>
      </trkpt>
      <trkpt lat="44.50285" lon="5.96629">
        <ele>1547.8000488281</ele>
        <time>2016-05-06T08:12:02Z</time>
      </trkpt>
      <trkpt lat="44.50274" lon="5.96616">
        <ele>1547.8000488281</ele>
        <time>2016-05-06T08:12:07Z</time>
      </trkpt>
      <trkpt lat="44.50256" lon="5.96603">
        <ele>1548.4000244141</ele>
        <time>2016-05-06T08:12:15Z</time>
      </trkpt>
      <trkpt lat="44.50251" lon="5.96599">
        <ele>1548.8000488281</ele>
        <time>2016-05-06T08:12:17Z</time>
      </trkpt>
      <trkpt lat="44.50249" lon="5.96597">
        <ele>1549.5999755859</ele>
        <time>2016-05-06T08:12:18Z</time>
      </trkpt>
      <trkpt lat="44.50246" lon="5.96595">
        <ele>1550</ele>
        <time>2016-05-06T08:12:19Z</time>
      </trkpt>
      <trkpt lat="44.50239" lon="5.96592">
        <ele>1550</ele>
        <time>2016-05-06T08:12:21Z</time>
      </trkpt>
      <trkpt lat="44.50229" lon="5.96584">
        <ele>1550</ele>
        <time>2016-05-06T08:12:26Z</time>
      </trkpt>
      <trkpt lat="44.50224" lon="5.96575">
        <ele>1550.8000488281</ele>
        <time>2016-05-06T08:12:31Z</time>
      </trkpt>
      <trkpt lat="44.50224" lon="5.96573">
        <ele>1551.1999511719</ele>
        <time>2016-05-06T08:12:32Z</time>
      </trkpt>
      <trkpt lat="44.50222" lon="5.9657">
        <ele>1551.5999755859</ele>
        <time>2016-05-06T08:12:34Z</time>
      </trkpt>
      <trkpt lat="44.50221" lon="5.96569">
        <ele>1552</ele>
        <time>2016-05-06T08:12:35Z</time>
      </trkpt>
      <trkpt lat="44.50217" lon="5.96562">
        <ele>1552.5999755859</ele>
        <time>2016-05-06T08:12:40Z</time>
      </trkpt>
      <trkpt lat="44.50217" lon="5.9656">
        <ele>1553.4000244141</ele>
        <time>2016-05-06T08:12:41Z</time>
      </trkpt>
      <trkpt lat="44.50217" lon="5.96559">
        <ele>1554</ele>
        <time>2016-05-06T08:12:42Z</time>
      </trkpt>
      <trkpt lat="44.50216" lon="5.96557">
        <ele>1554.4000244141</ele>
        <time>2016-05-06T08:12:43Z</time>
      </trkpt>
      <trkpt lat="44.50215" lon="5.96555">
        <ele>1554.4000244141</ele>
        <time>2016-05-06T08:12:45Z</time>
      </trkpt>
      <trkpt lat="44.50209" lon="5.96553">
        <ele>1554.8000488281</ele>
        <time>2016-05-06T08:12:50Z</time>
      </trkpt>
      <trkpt lat="44.50208" lon="5.96552">
        <ele>1555.1999511719</ele>
        <time>2016-05-06T08:12:51Z</time>
      </trkpt>
      <trkpt lat="44.50207" lon="5.96551">
        <ele>1555.5999755859</ele>
        <time>2016-05-06T08:12:52Z</time>
      </trkpt>
      <trkpt lat="44.50206" lon="5.9655">
        <ele>1556</ele>
        <time>2016-05-06T08:12:53Z</time>
      </trkpt>
      <trkpt lat="44.50205" lon="5.96548">
        <ele>1556.5999755859</ele>
        <time>2016-05-06T08:12:54Z</time>
      </trkpt>
      <trkpt lat="44.50204" lon="5.96546">
        <ele>1556.5999755859</ele>
        <time>2016-05-06T08:12:56Z</time>
      </trkpt>
      <trkpt lat="44.50199" lon="5.96537">
        <ele>1556.5999755859</ele>
        <time>2016-05-06T08:13:03Z</time>
      </trkpt>
      <trkpt lat="44.50198" lon="5.96535">
        <ele>1557</ele>
        <time>2016-05-06T08:13:04Z</time>
      </trkpt>
      <trkpt lat="44.50197" lon="5.96534">
        <ele>1557.4000244141</ele>
        <time>2016-05-06T08:13:05Z</time>
      </trkpt>
      <trkpt lat="44.50196" lon="5.96533">
        <ele>1557.8000488281</ele>
        <time>2016-05-06T08:13:06Z</time>
      </trkpt>
      <trkpt lat="44.50194" lon="5.96531">
        <ele>1558.1999511719</ele>
        <time>2016-05-06T08:13:08Z</time>
      </trkpt>
      <trkpt lat="44.50193" lon="5.96531">
        <ele>1558.5999755859</ele>
        <time>2016-05-06T08:13:09Z</time>
      </trkpt>
      <trkpt lat="44.50191" lon="5.9653">
        <ele>1558.5999755859</ele>
        <time>2016-05-06T08:13:11Z</time>
      </trkpt>
      <trkpt lat="44.50187" lon="5.96528">
        <ele>1559</ele>
        <time>2016-05-06T08:13:15Z</time>
      </trkpt>
      <trkpt lat="44.50186" lon="5.96527">
        <ele>1559.8000488281</ele>
        <time>2016-05-06T08:13:16Z</time>
      </trkpt>
      <trkpt lat="44.50185" lon="5.96527">
        <ele>1560.1999511719</ele>
        <time>2016-05-06T08:13:17Z</time>
      </trkpt>
      <trkpt lat="44.50185" lon="5.96526">
        <ele>1560.5999755859</ele>
        <time>2016-05-06T08:13:18Z</time>
      </trkpt>
      <trkpt lat="44.50184" lon="5.96525">
        <ele>1560.5999755859</ele>
        <time>2016-05-06T08:13:21Z</time>
      </trkpt>
      <trkpt lat="44.50179" lon="5.96521">
        <ele>1561</ele>
        <time>2016-05-06T08:13:27Z</time>
      </trkpt>
      <trkpt lat="44.50178" lon="5.9652">
        <ele>1561.4000244141</ele>
        <time>2016-05-06T08:13:28Z</time>
      </trkpt>
      <trkpt lat="44.50175" lon="5.96518">
        <ele>1561.8000488281</ele>
        <time>2016-05-06T08:13:30Z</time>
      </trkpt>
      <trkpt lat="44.50172" lon="5.96516">
        <ele>1562.1999511719</ele>
        <time>2016-05-06T08:13:31Z</time>
      </trkpt>
      <trkpt lat="44.50171" lon="5.96515">
        <ele>1562.5999755859</ele>
        <time>2016-05-06T08:13:32Z</time>
      </trkpt>
      <trkpt lat="44.50169" lon="5.96514">
        <ele>1562.5999755859</ele>
        <time>2016-05-06T08:13:33Z</time>
      </trkpt>
      <trkpt lat="44.50152" lon="5.96508">
        <ele>1562.5999755859</ele>
        <time>2016-05-06T08:13:44Z</time>
      </trkpt>
      <trkpt lat="44.50147" lon="5.96506">
        <ele>1563.1999511719</ele>
        <time>2016-05-06T08:13:47Z</time>
      </trkpt>
      <trkpt lat="44.50146" lon="5.96506">
        <ele>1563.5999755859</ele>
        <time>2016-05-06T08:13:48Z</time>
      </trkpt>
      <trkpt lat="44.50144" lon="5.96506">
        <ele>1564</ele>
        <time>2016-05-06T08:13:49Z</time>
      </trkpt>
      <trkpt lat="44.50143" lon="5.96505">
        <ele>1564.4000244141</ele>
        <time>2016-05-06T08:13:50Z</time>
      </trkpt>
      <trkpt lat="44.50141" lon="5.96505">
        <ele>1564.8000488281</ele>
        <time>2016-05-06T08:13:51Z</time>
      </trkpt>
      <trkpt lat="44.50138" lon="5.96505">
        <ele>1564.8000488281</ele>
        <time>2016-05-06T08:13:53Z</time>
      </trkpt>
      <trkpt lat="44.50128" lon="5.96507">
        <ele>1564.8000488281</ele>
        <time>2016-05-06T08:13:59Z</time>
      </trkpt>
      <trkpt lat="44.50125" lon="5.96508">
        <ele>1565.1999511719</ele>
        <time>2016-05-06T08:14:01Z</time>
      </trkpt>
      <trkpt lat="44.50123" lon="5.96507">
        <ele>1565.5999755859</ele>
        <time>2016-05-06T08:14:02Z</time>
      </trkpt>
      <trkpt lat="44.50122" lon="5.96506">
        <ele>1566</ele>
        <time>2016-05-06T08:14:03Z</time>
      </trkpt>
      <trkpt lat="44.5012" lon="5.96508">
        <ele>1566.4000244141</ele>
        <time>2016-05-06T08:14:04Z</time>
      </trkpt>
      <trkpt lat="44.50118" lon="5.96507">
        <ele>1566.8000488281</ele>
        <time>2016-05-06T08:14:05Z</time>
      </trkpt>
      <trkpt lat="44.50111" lon="5.96508">
        <ele>1566.8000488281</ele>
        <time>2016-05-06T08:14:10Z</time>
      </trkpt>
      <trkpt lat="44.50108" lon="5.96506">
        <ele>1567.1999511719</ele>
        <time>2016-05-06T08:14:12Z</time>
      </trkpt>
      <trkpt lat="44.50108" lon="5.96505">
        <ele>1567.5999755859</ele>
        <time>2016-05-06T08:14:13Z</time>
      </trkpt>
      <trkpt lat="44.50106" lon="5.96504">
        <ele>1568</ele>
        <time>2016-05-06T08:14:14Z</time>
      </trkpt>
      <trkpt lat="44.50106" lon="5.96502">
        <ele>1568.4000244141</ele>
        <time>2016-05-06T08:14:15Z</time>
      </trkpt>
      <trkpt lat="44.50105" lon="5.96501">
        <ele>1568.8000488281</ele>
        <time>2016-05-06T08:14:16Z</time>
      </trkpt>
      <trkpt lat="44.50104" lon="5.96498">
        <ele>1568.8000488281</ele>
        <time>2016-05-06T08:14:18Z</time>
      </trkpt>
      <trkpt lat="44.50103" lon="5.96497">
        <ele>1568.8000488281</ele>
        <time>2016-05-06T08:14:19Z</time>
      </trkpt>
      <trkpt lat="44.501" lon="5.96487">
        <ele>1569.4000244141</ele>
        <time>2016-05-06T08:14:25Z</time>
      </trkpt>
      <trkpt lat="44.50099" lon="5.96486">
        <ele>1569.8000488281</ele>
        <time>2016-05-06T08:14:26Z</time>
      </trkpt>
      <trkpt lat="44.50098" lon="5.96484">
        <ele>1570.1999511719</ele>
        <time>2016-05-06T08:14:27Z</time>
      </trkpt>
      <trkpt lat="44.50098" lon="5.96483">
        <ele>1570.8000488281</ele>
        <time>2016-05-06T08:14:28Z</time>
      </trkpt>
      <trkpt lat="44.50097" lon="5.96481">
        <ele>1571.1999511719</ele>
        <time>2016-05-06T08:14:29Z</time>
      </trkpt>
      <trkpt lat="44.50092" lon="5.9647">
        <ele>1571.1999511719</ele>
        <time>2016-05-06T08:14:36Z</time>
      </trkpt>
      <trkpt lat="44.50091" lon="5.96468">
        <ele>1571.5999755859</ele>
        <time>2016-05-06T08:14:37Z</time>
      </trkpt>
      <trkpt lat="44.50091" lon="5.96467">
        <ele>1572</ele>
        <time>2016-05-06T08:14:38Z</time>
      </trkpt>
      <trkpt lat="44.50091" lon="5.96465">
        <ele>1572.4000244141</ele>
        <time>2016-05-06T08:14:39Z</time>
      </trkpt>
      <trkpt lat="44.5009" lon="5.96464">
        <ele>1572.8000488281</ele>
        <time>2016-05-06T08:14:40Z</time>
      </trkpt>
      <trkpt lat="44.5009" lon="5.96461">
        <ele>1573.1999511719</ele>
        <time>2016-05-06T08:14:42Z</time>
      </trkpt>
      <trkpt lat="44.50089" lon="5.96459">
        <ele>1573.1999511719</ele>
        <time>2016-05-06T08:14:43Z</time>
      </trkpt>
      <trkpt lat="44.50087" lon="5.96449">
        <ele>1573.1999511719</ele>
        <time>2016-05-06T08:14:50Z</time>
      </trkpt>
      <trkpt lat="44.50086" lon="5.96447">
        <ele>1573.5999755859</ele>
        <time>2016-05-06T08:14:51Z</time>
      </trkpt>
      <trkpt lat="44.50086" lon="5.96445">
        <ele>1574</ele>
        <time>2016-05-06T08:14:52Z</time>
      </trkpt>
      <trkpt lat="44.50085" lon="5.96443">
        <ele>1574.4000244141</ele>
        <time>2016-05-06T08:14:53Z</time>
      </trkpt>
      <trkpt lat="44.50085" lon="5.96442">
        <ele>1574.8000488281</ele>
        <time>2016-05-06T08:14:54Z</time>
      </trkpt>
      <trkpt lat="44.50085" lon="5.9644">
        <ele>1575.1999511719</ele>
        <time>2016-05-06T08:14:55Z</time>
      </trkpt>
      <trkpt lat="44.50084" lon="5.96433">
        <ele>1575.1999511719</ele>
        <time>2016-05-06T08:14:59Z</time>
      </trkpt>
      <trkpt lat="44.50078" lon="5.96416">
        <ele>1575.8000488281</ele>
        <time>2016-05-06T08:15:07Z</time>
      </trkpt>
      <trkpt lat="44.50078" lon="5.96414">
        <ele>1576.1999511719</ele>
        <time>2016-05-06T08:15:08Z</time>
      </trkpt>
      <trkpt lat="44.50078" lon="5.96412">
        <ele>1576.5999755859</ele>
        <time>2016-05-06T08:15:09Z</time>
      </trkpt>
      <trkpt lat="44.50078" lon="5.96409">
        <ele>1577</ele>
        <time>2016-05-06T08:15:10Z</time>
      </trkpt>
      <trkpt lat="44.50078" lon="5.96407">
        <ele>1577.5999755859</ele>
        <time>2016-05-06T08:15:11Z</time>
      </trkpt>
      <trkpt lat="44.50077" lon="5.96404">
        <ele>1577.5999755859</ele>
        <time>2016-05-06T08:15:13Z</time>
      </trkpt>
      <trkpt lat="44.50066" lon="5.96399">
        <ele>1577.5999755859</ele>
        <time>2016-05-06T08:15:19Z</time>
      </trkpt>
      <trkpt lat="44.50059" lon="5.96387">
        <ele>1577.5999755859</ele>
        <time>2016-05-06T08:15:28Z</time>
      </trkpt>
      <trkpt lat="44.50056" lon="5.96382">
        <ele>1578</ele>
        <time>2016-05-06T08:15:31Z</time>
      </trkpt>
      <trkpt lat="44.50055" lon="5.9638">
        <ele>1578.4000244141</ele>
        <time>2016-05-06T08:15:32Z</time>
      </trkpt>
      <trkpt lat="44.50055" lon="5.96378">
        <ele>1578.8000488281</ele>
        <time>2016-05-06T08:15:33Z</time>
      </trkpt>
      <trkpt lat="44.50053" lon="5.96376">
        <ele>1579.1999511719</ele>
        <time>2016-05-06T08:15:34Z</time>
      </trkpt>
      <trkpt lat="44.50051" lon="5.96375">
        <ele>1579.5999755859</ele>
        <time>2016-05-06T08:15:35Z</time>
      </trkpt>
      <trkpt lat="44.50039" lon="5.96359">
        <ele>1580</ele>
        <time>2016-05-06T08:15:44Z</time>
      </trkpt>
      <trkpt lat="44.50039" lon="5.96357">
        <ele>1580.4000244141</ele>
        <time>2016-05-06T08:15:45Z</time>
      </trkpt>
      <trkpt lat="44.50039" lon="5.96354">
        <ele>1580.8000488281</ele>
        <time>2016-05-06T08:15:46Z</time>
      </trkpt>
      <trkpt lat="44.50039" lon="5.96352">
        <ele>1581.1999511719</ele>
        <time>2016-05-06T08:15:47Z</time>
      </trkpt>
      <trkpt lat="44.50039" lon="5.9635">
        <ele>1581.5999755859</ele>
        <time>2016-05-06T08:15:48Z</time>
      </trkpt>
      <trkpt lat="44.50035" lon="5.96342">
        <ele>1581.5999755859</ele>
        <time>2016-05-06T08:15:52Z</time>
      </trkpt>
      <trkpt lat="44.50028" lon="5.96326">
        <ele>1581.5999755859</ele>
        <time>2016-05-06T08:16:00Z</time>
      </trkpt>
      <trkpt lat="44.50027" lon="5.96322">
        <ele>1582</ele>
        <time>2016-05-06T08:16:02Z</time>
      </trkpt>
      <trkpt lat="44.50026" lon="5.9632">
        <ele>1582.4000244141</ele>
        <time>2016-05-06T08:16:03Z</time>
      </trkpt>
      <trkpt lat="44.50025" lon="5.96318">
        <ele>1582.8000488281</ele>
        <time>2016-05-06T08:16:04Z</time>
      </trkpt>
      <trkpt lat="44.50024" lon="5.96316">
        <ele>1583.1999511719</ele>
        <time>2016-05-06T08:16:05Z</time>
      </trkpt>
      <trkpt lat="44.50024" lon="5.96314">
        <ele>1583.5999755859</ele>
        <time>2016-05-06T08:16:06Z</time>
      </trkpt>
      <trkpt lat="44.50023" lon="5.96306">
        <ele>1583.5999755859</ele>
        <time>2016-05-06T08:16:09Z</time>
      </trkpt>
      <trkpt lat="44.50016" lon="5.96294">
        <ele>1584</ele>
        <time>2016-05-06T08:16:15Z</time>
      </trkpt>
      <trkpt lat="44.50016" lon="5.96293">
        <ele>1584.4000244141</ele>
        <time>2016-05-06T08:16:16Z</time>
      </trkpt>
      <trkpt lat="44.50016" lon="5.96291">
        <ele>1585</ele>
        <time>2016-05-06T08:16:17Z</time>
      </trkpt>
      <trkpt lat="44.50015" lon="5.96289">
        <ele>1585.4000244141</ele>
        <time>2016-05-06T08:16:18Z</time>
      </trkpt>
      <trkpt lat="44.50014" lon="5.96288">
        <ele>1585.8000488281</ele>
        <time>2016-05-06T08:16:19Z</time>
      </trkpt>
      <trkpt lat="44.5001" lon="5.96278">
        <ele>1585.8000488281</ele>
        <time>2016-05-06T08:16:24Z</time>
      </trkpt>
      <trkpt lat="44.50005" lon="5.96257">
        <ele>1585.8000488281</ele>
        <time>2016-05-06T08:16:32Z</time>
      </trkpt>
      <trkpt lat="44.50002" lon="5.96243">
        <ele>1586.1999511719</ele>
        <time>2016-05-06T08:16:37Z</time>
      </trkpt>
      <trkpt lat="44.50002" lon="5.9624">
        <ele>1586.5999755859</ele>
        <time>2016-05-06T08:16:38Z</time>
      </trkpt>
      <trkpt lat="44.50002" lon="5.96238">
        <ele>1587</ele>
        <time>2016-05-06T08:16:39Z</time>
      </trkpt>
      <trkpt lat="44.50001" lon="5.96235">
        <ele>1587.5999755859</ele>
        <time>2016-05-06T08:16:40Z</time>
      </trkpt>
      <trkpt lat="44.5" lon="5.96232">
        <ele>1588</ele>
        <time>2016-05-06T08:16:41Z</time>
      </trkpt>
      <trkpt lat="44.49998" lon="5.96222">
        <ele>1588</ele>
        <time>2016-05-06T08:16:45Z</time>
      </trkpt>
      <trkpt lat="44.49995" lon="5.96204">
        <ele>1588</ele>
        <time>2016-05-06T08:16:53Z</time>
      </trkpt>
      <trkpt lat="44.49992" lon="5.96199">
        <ele>1588.4000244141</ele>
        <time>2016-05-06T08:16:55Z</time>
      </trkpt>
      <trkpt lat="44.49991" lon="5.96197">
        <ele>1589</ele>
        <time>2016-05-06T08:16:56Z</time>
      </trkpt>
      <trkpt lat="44.4999" lon="5.96195">
        <ele>1589.4000244141</ele>
        <time>2016-05-06T08:16:57Z</time>
      </trkpt>
      <trkpt lat="44.49989" lon="5.96193">
        <ele>1589.8000488281</ele>
        <time>2016-05-06T08:16:58Z</time>
      </trkpt>
      <trkpt lat="44.49989" lon="5.96191">
        <ele>1590.4000244141</ele>
        <time>2016-05-06T08:16:59Z</time>
      </trkpt>
      <trkpt lat="44.49982" lon="5.96171">
        <ele>1590.4000244141</ele>
        <time>2016-05-06T08:17:06Z</time>
      </trkpt>
      <trkpt lat="44.49969" lon="5.96146">
        <ele>1590.4000244141</ele>
        <time>2016-05-06T08:17:14Z</time>
      </trkpt>
      <trkpt lat="44.49961" lon="5.96132">
        <ele>1590.4000244141</ele>
        <time>2016-05-06T08:17:21Z</time>
      </trkpt>
      <trkpt lat="44.49951" lon="5.96117">
        <ele>1590.4000244141</ele>
        <time>2016-05-06T08:17:28Z</time>
      </trkpt>
      <trkpt lat="44.49944" lon="5.96101">
        <ele>1590.4000244141</ele>
        <time>2016-05-06T08:17:35Z</time>
      </trkpt>
      <trkpt lat="44.49939" lon="5.96092">
        <ele>1590.8000488281</ele>
        <time>2016-05-06T08:17:38Z</time>
      </trkpt>
      <trkpt lat="44.49937" lon="5.96089">
        <ele>1591.1999511719</ele>
        <time>2016-05-06T08:17:39Z</time>
      </trkpt>
      <trkpt lat="44.49936" lon="5.96086">
        <ele>1591.5999755859</ele>
        <time>2016-05-06T08:17:40Z</time>
      </trkpt>
      <trkpt lat="44.49934" lon="5.96084">
        <ele>1592</ele>
        <time>2016-05-06T08:17:41Z</time>
      </trkpt>
      <trkpt lat="44.49932" lon="5.96082">
        <ele>1592.4000244141</ele>
        <time>2016-05-06T08:17:42Z</time>
      </trkpt>
      <trkpt lat="44.4993" lon="5.9608">
        <ele>1592.4000244141</ele>
        <time>2016-05-06T08:17:43Z</time>
      </trkpt>
      <trkpt lat="44.49915" lon="5.96072">
        <ele>1592.4000244141</ele>
        <time>2016-05-06T08:17:51Z</time>
      </trkpt>
      <trkpt lat="44.49905" lon="5.96055">
        <ele>1592.4000244141</ele>
        <time>2016-05-06T08:17:58Z</time>
      </trkpt>
      <trkpt lat="44.49899" lon="5.9604">
        <ele>1592.8000488281</ele>
        <time>2016-05-06T08:18:05Z</time>
      </trkpt>
      <trkpt lat="44.49899" lon="5.96037">
        <ele>1593.4000244141</ele>
        <time>2016-05-06T08:18:06Z</time>
      </trkpt>
      <trkpt lat="44.49898" lon="5.96035">
        <ele>1593.8000488281</ele>
        <time>2016-05-06T08:18:07Z</time>
      </trkpt>
      <trkpt lat="44.49897" lon="5.96034">
        <ele>1594.1999511719</ele>
        <time>2016-05-06T08:18:08Z</time>
      </trkpt>
      <trkpt lat="44.49895" lon="5.96032">
        <ele>1594.8000488281</ele>
        <time>2016-05-06T08:18:09Z</time>
      </trkpt>
      <trkpt lat="44.4989" lon="5.96018">
        <ele>1594.8000488281</ele>
        <time>2016-05-06T08:18:13Z</time>
      </trkpt>
      <trkpt lat="44.49886" lon="5.96013">
        <ele>1594.8000488281</ele>
        <time>2016-05-06T08:18:16Z</time>
      </trkpt>
      <trkpt lat="44.49881" lon="5.96008">
        <ele>1594.8000488281</ele>
        <time>2016-05-06T08:18:19Z</time>
      </trkpt>
      <trkpt lat="44.49878" lon="5.96005">
        <ele>1595.1999511719</ele>
        <time>2016-05-06T08:18:21Z</time>
      </trkpt>
      <trkpt lat="44.49876" lon="5.96004">
        <ele>1595.5999755859</ele>
        <time>2016-05-06T08:18:22Z</time>
      </trkpt>
      <trkpt lat="44.49875" lon="5.96002">
        <ele>1596</ele>
        <time>2016-05-06T08:18:23Z</time>
      </trkpt>
      <trkpt lat="44.49874" lon="5.96">
        <ele>1596.4000244141</ele>
        <time>2016-05-06T08:18:24Z</time>
      </trkpt>
      <trkpt lat="44.49873" lon="5.95999">
        <ele>1596.8000488281</ele>
        <time>2016-05-06T08:18:25Z</time>
      </trkpt>
      <trkpt lat="44.49871" lon="5.95998">
        <ele>1596.8000488281</ele>
        <time>2016-05-06T08:18:26Z</time>
      </trkpt>
      <trkpt lat="44.49864" lon="5.95986">
        <ele>1597.1999511719</ele>
        <time>2016-05-06T08:18:33Z</time>
      </trkpt>
      <trkpt lat="44.49864" lon="5.95985">
        <ele>1597.5999755859</ele>
        <time>2016-05-06T08:18:34Z</time>
      </trkpt>
      <trkpt lat="44.49863" lon="5.95983">
        <ele>1598</ele>
        <time>2016-05-06T08:18:35Z</time>
      </trkpt>
      <trkpt lat="44.49863" lon="5.95981">
        <ele>1598.4000244141</ele>
        <time>2016-05-06T08:18:36Z</time>
      </trkpt>
      <trkpt lat="44.49863" lon="5.95978">
        <ele>1598.8000488281</ele>
        <time>2016-05-06T08:18:37Z</time>
      </trkpt>
      <trkpt lat="44.49858" lon="5.95971">
        <ele>1598.8000488281</ele>
        <time>2016-05-06T08:18:41Z</time>
      </trkpt>
      <trkpt lat="44.49852" lon="5.95965">
        <ele>1599.1999511719</ele>
        <time>2016-05-06T08:18:46Z</time>
      </trkpt>
      <trkpt lat="44.49853" lon="5.95964">
        <ele>1599.5999755859</ele>
        <time>2016-05-06T08:18:47Z</time>
      </trkpt>
      <trkpt lat="44.49853" lon="5.95963">
        <ele>1600</ele>
        <time>2016-05-06T08:18:48Z</time>
      </trkpt>
      <trkpt lat="44.49852" lon="5.95962">
        <ele>1600.4000244141</ele>
        <time>2016-05-06T08:18:49Z</time>
      </trkpt>
      <trkpt lat="44.49851" lon="5.9596">
        <ele>1600.8000488281</ele>
        <time>2016-05-06T08:18:50Z</time>
      </trkpt>
      <trkpt lat="44.49843" lon="5.95955">
        <ele>1600.8000488281</ele>
        <time>2016-05-06T08:18:55Z</time>
      </trkpt>
      <trkpt lat="44.49838" lon="5.95946">
        <ele>1601.1999511719</ele>
        <time>2016-05-06T08:19:02Z</time>
      </trkpt>
      <trkpt lat="44.49838" lon="5.95946">
        <ele>1601.8000488281</ele>
        <time>2016-05-06T08:19:03Z</time>
      </trkpt>
      <trkpt lat="44.49838" lon="5.95945">
        <ele>1602.1999511719</ele>
        <time>2016-05-06T08:19:04Z</time>
      </trkpt>
      <trkpt lat="44.49837" lon="5.95944">
        <ele>1602.5999755859</ele>
        <time>2016-05-06T08:19:05Z</time>
      </trkpt>
      <trkpt lat="44.49835" lon="5.95942">
        <ele>1603</ele>
        <time>2016-05-06T08:19:06Z</time>
      </trkpt>
      <trkpt lat="44.49831" lon="5.95937">
        <ele>1603</ele>
        <time>2016-05-06T08:19:09Z</time>
      </trkpt>
      <trkpt lat="44.49826" lon="5.95934">
        <ele>1603.4000244141</ele>
        <time>2016-05-06T08:19:12Z</time>
      </trkpt>
      <trkpt lat="44.49826" lon="5.95935">
        <ele>1603.8000488281</ele>
        <time>2016-05-06T08:19:13Z</time>
      </trkpt>
      <trkpt lat="44.49826" lon="5.95935">
        <ele>1604.1999511719</ele>
        <time>2016-05-06T08:19:14Z</time>
      </trkpt>
      <trkpt lat="44.49825" lon="5.95935">
        <ele>1604.5999755859</ele>
        <time>2016-05-06T08:19:15Z</time>
      </trkpt>
      <trkpt lat="44.49824" lon="5.95934">
        <ele>1605</ele>
        <time>2016-05-06T08:19:16Z</time>
      </trkpt>
      <trkpt lat="44.49825" lon="5.95936">
        <ele>1605</ele>
        <time>2016-05-06T08:19:24Z</time>
      </trkpt>
      <trkpt lat="44.4982" lon="5.95934">
        <ele>1605</ele>
        <time>2016-05-06T08:19:33Z</time>
      </trkpt>
      <trkpt lat="44.49816" lon="5.95928">
        <ele>1605.5999755859</ele>
        <time>2016-05-06T08:19:39Z</time>
      </trkpt>
      <trkpt lat="44.49815" lon="5.95926">
        <ele>1606</ele>
        <time>2016-05-06T08:19:40Z</time>
      </trkpt>
      <trkpt lat="44.49815" lon="5.95924">
        <ele>1606.4000244141</ele>
        <time>2016-05-06T08:19:41Z</time>
      </trkpt>
      <trkpt lat="44.49814" lon="5.95923">
        <ele>1606.8000488281</ele>
        <time>2016-05-06T08:19:42Z</time>
      </trkpt>
      <trkpt lat="44.49813" lon="5.95922">
        <ele>1607.4000244141</ele>
        <time>2016-05-06T08:19:43Z</time>
      </trkpt>
      <trkpt lat="44.49805" lon="5.95913">
        <ele>1607.4000244141</ele>
        <time>2016-05-06T08:19:52Z</time>
      </trkpt>
      <trkpt lat="44.49805" lon="5.95912">
        <ele>1607.8000488281</ele>
        <time>2016-05-06T08:19:53Z</time>
      </trkpt>
      <trkpt lat="44.49804" lon="5.95911">
        <ele>1608.1999511719</ele>
        <time>2016-05-06T08:19:54Z</time>
      </trkpt>
      <trkpt lat="44.49803" lon="5.95911">
        <ele>1608.5999755859</ele>
        <time>2016-05-06T08:19:55Z</time>
      </trkpt>
      <trkpt lat="44.49803" lon="5.95911">
        <ele>1609</ele>
        <time>2016-05-06T08:19:56Z</time>
      </trkpt>
      <trkpt lat="44.49802" lon="5.95909">
        <ele>1609.4000244141</ele>
        <time>2016-05-06T08:19:57Z</time>
      </trkpt>
      <trkpt lat="44.49794" lon="5.95902">
        <ele>1610</ele>
        <time>2016-05-06T08:20:06Z</time>
      </trkpt>
      <trkpt lat="44.49793" lon="5.95901">
        <ele>1610.4000244141</ele>
        <time>2016-05-06T08:20:07Z</time>
      </trkpt>
      <trkpt lat="44.49792" lon="5.95901">
        <ele>1610.8000488281</ele>
        <time>2016-05-06T08:20:08Z</time>
      </trkpt>
      <trkpt lat="44.49791" lon="5.959">
        <ele>1611.1999511719</ele>
        <time>2016-05-06T08:20:09Z</time>
      </trkpt>
      <trkpt lat="44.49791" lon="5.959">
        <ele>1611.8000488281</ele>
        <time>2016-05-06T08:20:10Z</time>
      </trkpt>
      <trkpt lat="44.49778" lon="5.95891">
        <ele>1612.1999511719</ele>
        <time>2016-05-06T08:20:22Z</time>
      </trkpt>
      <trkpt lat="44.49777" lon="5.9589">
        <ele>1612.5999755859</ele>
        <time>2016-05-06T08:20:23Z</time>
      </trkpt>
      <trkpt lat="44.49777" lon="5.95888">
        <ele>1613</ele>
        <time>2016-05-06T08:20:24Z</time>
      </trkpt>
      <trkpt lat="44.49776" lon="5.95887">
        <ele>1613.4000244141</ele>
        <time>2016-05-06T08:20:25Z</time>
      </trkpt>
      <trkpt lat="44.49776" lon="5.95887">
        <ele>1614</ele>
        <time>2016-05-06T08:20:26Z</time>
      </trkpt>
      <trkpt lat="44.4977" lon="5.95882">
        <ele>1614.4000244141</ele>
        <time>2016-05-06T08:20:34Z</time>
      </trkpt>
      <trkpt lat="44.49769" lon="5.95881">
        <ele>1614.8000488281</ele>
        <time>2016-05-06T08:20:35Z</time>
      </trkpt>
      <trkpt lat="44.49768" lon="5.9588">
        <ele>1615.1999511719</ele>
        <time>2016-05-06T08:20:36Z</time>
      </trkpt>
      <trkpt lat="44.49768" lon="5.9588">
        <ele>1615.5999755859</ele>
        <time>2016-05-06T08:20:37Z</time>
      </trkpt>
      <trkpt lat="44.49767" lon="5.95879">
        <ele>1616</ele>
        <time>2016-05-06T08:20:38Z</time>
      </trkpt>
      <trkpt lat="44.49761" lon="5.95874">
        <ele>1616.4000244141</ele>
        <time>2016-05-06T08:20:46Z</time>
      </trkpt>
      <trkpt lat="44.4976" lon="5.95873">
        <ele>1616.8000488281</ele>
        <time>2016-05-06T08:20:47Z</time>
      </trkpt>
      <trkpt lat="44.4976" lon="5.95873">
        <ele>1617.1999511719</ele>
        <time>2016-05-06T08:20:48Z</time>
      </trkpt>
      <trkpt lat="44.49759" lon="5.95872">
        <ele>1617.5999755859</ele>
        <time>2016-05-06T08:20:49Z</time>
      </trkpt>
      <trkpt lat="44.49759" lon="5.95872">
        <ele>1618</ele>
        <time>2016-05-06T08:20:50Z</time>
      </trkpt>
      <trkpt lat="44.49755" lon="5.95868">
        <ele>1618.4000244141</ele>
        <time>2016-05-06T08:20:57Z</time>
      </trkpt>
      <trkpt lat="44.49756" lon="5.95868">
        <ele>1618.8000488281</ele>
        <time>2016-05-06T08:20:58Z</time>
      </trkpt>
      <trkpt lat="44.49755" lon="5.95867">
        <ele>1619.1999511719</ele>
        <time>2016-05-06T08:20:59Z</time>
      </trkpt>
      <trkpt lat="44.49755" lon="5.95867">
        <ele>1619.5999755859</ele>
        <time>2016-05-06T08:21:00Z</time>
      </trkpt>
      <trkpt lat="44.49755" lon="5.95867">
        <ele>1620</ele>
        <time>2016-05-06T08:21:01Z</time>
      </trkpt>
      <trkpt lat="44.49747" lon="5.95863">
        <ele>1620.4000244141</ele>
        <time>2016-05-06T08:21:10Z</time>
      </trkpt>
      <trkpt lat="44.49746" lon="5.95863">
        <ele>1621</ele>
        <time>2016-05-06T08:21:11Z</time>
      </trkpt>
      <trkpt lat="44.49745" lon="5.95862">
        <ele>1621.4000244141</ele>
        <time>2016-05-06T08:21:12Z</time>
      </trkpt>
      <trkpt lat="44.49745" lon="5.95862">
        <ele>1621.8000488281</ele>
        <time>2016-05-06T08:21:13Z</time>
      </trkpt>
      <trkpt lat="44.49744" lon="5.95862">
        <ele>1622.1999511719</ele>
        <time>2016-05-06T08:21:14Z</time>
      </trkpt>
      <trkpt lat="44.49737" lon="5.95862">
        <ele>1622.5999755859</ele>
        <time>2016-05-06T08:21:24Z</time>
      </trkpt>
      <trkpt lat="44.49737" lon="5.95862">
        <ele>1623</ele>
        <time>2016-05-06T08:21:25Z</time>
      </trkpt>
      <trkpt lat="44.49736" lon="5.95862">
        <ele>1623.4000244141</ele>
        <time>2016-05-06T08:21:26Z</time>
      </trkpt>
      <trkpt lat="44.49736" lon="5.95862">
        <ele>1624</ele>
        <time>2016-05-06T08:21:27Z</time>
      </trkpt>
      <trkpt lat="44.49735" lon="5.95862">
        <ele>1624.4000244141</ele>
        <time>2016-05-06T08:21:28Z</time>
      </trkpt>
      <trkpt lat="44.49728" lon="5.95862">
        <ele>1624.8000488281</ele>
        <time>2016-05-06T08:21:38Z</time>
      </trkpt>
      <trkpt lat="44.49728" lon="5.95862">
        <ele>1625.1999511719</ele>
        <time>2016-05-06T08:21:39Z</time>
      </trkpt>
      <trkpt lat="44.49728" lon="5.95861">
        <ele>1625.5999755859</ele>
        <time>2016-05-06T08:21:40Z</time>
      </trkpt>
      <trkpt lat="44.49727" lon="5.95861">
        <ele>1626</ele>
        <time>2016-05-06T08:21:41Z</time>
      </trkpt>
      <trkpt lat="44.49726" lon="5.95861">
        <ele>1626.4000244141</ele>
        <time>2016-05-06T08:21:42Z</time>
      </trkpt>
      <trkpt lat="44.49723" lon="5.95859">
        <ele>1626.8000488281</ele>
        <time>2016-05-06T08:21:49Z</time>
      </trkpt>
      <trkpt lat="44.49722" lon="5.95859">
        <ele>1627.1999511719</ele>
        <time>2016-05-06T08:21:50Z</time>
      </trkpt>
      <trkpt lat="44.49721" lon="5.95858">
        <ele>1627.5999755859</ele>
        <time>2016-05-06T08:21:51Z</time>
      </trkpt>
      <trkpt lat="44.4972" lon="5.95858">
        <ele>1628</ele>
        <time>2016-05-06T08:21:52Z</time>
      </trkpt>
      <trkpt lat="44.49719" lon="5.95858">
        <ele>1628.4000244141</ele>
        <time>2016-05-06T08:21:53Z</time>
      </trkpt>
      <trkpt lat="44.4971" lon="5.95853">
        <ele>1628.4000244141</ele>
        <time>2016-05-06T08:22:06Z</time>
      </trkpt>
      <trkpt lat="44.4971" lon="5.95853">
        <ele>1628.8000488281</ele>
        <time>2016-05-06T08:22:07Z</time>
      </trkpt>
      <trkpt lat="44.49709" lon="5.95853">
        <ele>1629.1999511719</ele>
        <time>2016-05-06T08:22:08Z</time>
      </trkpt>
      <trkpt lat="44.49708" lon="5.95852">
        <ele>1629.5999755859</ele>
        <time>2016-05-06T08:22:09Z</time>
      </trkpt>
      <trkpt lat="44.49707" lon="5.95851">
        <ele>1630</ele>
        <time>2016-05-06T08:22:10Z</time>
      </trkpt>
      <trkpt lat="44.49707" lon="5.95849">
        <ele>1630.5999755859</ele>
        <time>2016-05-06T08:22:11Z</time>
      </trkpt>
      <trkpt lat="44.49703" lon="5.95843">
        <ele>1630.5999755859</ele>
        <time>2016-05-06T08:22:17Z</time>
      </trkpt>
      <trkpt lat="44.49697" lon="5.95834">
        <ele>1630.5999755859</ele>
        <time>2016-05-06T08:22:25Z</time>
      </trkpt>
      <trkpt lat="44.49696" lon="5.95827">
        <ele>1631</ele>
        <time>2016-05-06T08:22:30Z</time>
      </trkpt>
      <trkpt lat="44.49696" lon="5.95826">
        <ele>1631.4000244141</ele>
        <time>2016-05-06T08:22:31Z</time>
      </trkpt>
      <trkpt lat="44.49696" lon="5.95824">
        <ele>1631.8000488281</ele>
        <time>2016-05-06T08:22:32Z</time>
      </trkpt>
      <trkpt lat="44.49696" lon="5.95823">
        <ele>1632.1999511719</ele>
        <time>2016-05-06T08:22:33Z</time>
      </trkpt>
      <trkpt lat="44.49696" lon="5.95823">
        <ele>1632.5999755859</ele>
        <time>2016-05-06T08:22:34Z</time>
      </trkpt>
      <trkpt lat="44.49697" lon="5.95817">
        <ele>1632.5999755859</ele>
        <time>2016-05-06T08:22:41Z</time>
      </trkpt>
      <trkpt lat="44.49695" lon="5.95813">
        <ele>1632.5999755859</ele>
        <time>2016-05-06T08:22:50Z</time>
      </trkpt>
      <trkpt lat="44.49694" lon="5.95809">
        <ele>1632.5999755859</ele>
        <time>2016-05-06T08:22:59Z</time>
      </trkpt>
      <trkpt lat="44.49693" lon="5.95802">
        <ele>1632.5999755859</ele>
        <time>2016-05-06T08:23:06Z</time>
      </trkpt>
      <trkpt lat="44.49695" lon="5.95789">
        <ele>1632.5999755859</ele>
        <time>2016-05-06T08:23:12Z</time>
      </trkpt>
      <trkpt lat="44.49697" lon="5.95784">
        <ele>1633</ele>
        <time>2016-05-06T08:23:14Z</time>
      </trkpt>
      <trkpt lat="44.49697" lon="5.95782">
        <ele>1633.4000244141</ele>
        <time>2016-05-06T08:23:15Z</time>
      </trkpt>
      <trkpt lat="44.49698" lon="5.95779">
        <ele>1633.8000488281</ele>
        <time>2016-05-06T08:23:16Z</time>
      </trkpt>
      <trkpt lat="44.49699" lon="5.95777">
        <ele>1634.1999511719</ele>
        <time>2016-05-06T08:23:17Z</time>
      </trkpt>
      <trkpt lat="44.497" lon="5.95774">
        <ele>1634.5999755859</ele>
        <time>2016-05-06T08:23:18Z</time>
      </trkpt>
      <trkpt lat="44.49701" lon="5.95771">
        <ele>1634.5999755859</ele>
        <time>2016-05-06T08:23:20Z</time>
      </trkpt>
      <trkpt lat="44.49704" lon="5.95759">
        <ele>1634.5999755859</ele>
        <time>2016-05-06T08:23:26Z</time>
      </trkpt>
      <trkpt lat="44.49707" lon="5.95737">
        <ele>1634.5999755859</ele>
        <time>2016-05-06T08:23:34Z</time>
      </trkpt>
      <trkpt lat="44.49705" lon="5.95722">
        <ele>1634.5999755859</ele>
        <time>2016-05-06T08:23:39Z</time>
      </trkpt>
      <trkpt lat="44.49698" lon="5.957">
        <ele>1634.5999755859</ele>
        <time>2016-05-06T08:23:46Z</time>
      </trkpt>
      <trkpt lat="44.49698" lon="5.95697">
        <ele>1635.1999511719</ele>
        <time>2016-05-06T08:23:47Z</time>
      </trkpt>
      <trkpt lat="44.49698" lon="5.95695">
        <ele>1635.5999755859</ele>
        <time>2016-05-06T08:23:48Z</time>
      </trkpt>
      <trkpt lat="44.49697" lon="5.95692">
        <ele>1636</ele>
        <time>2016-05-06T08:23:49Z</time>
      </trkpt>
      <trkpt lat="44.49696" lon="5.9569">
        <ele>1636.4000244141</ele>
        <time>2016-05-06T08:23:50Z</time>
      </trkpt>
      <trkpt lat="44.49695" lon="5.95687">
        <ele>1636.8000488281</ele>
        <time>2016-05-06T08:23:51Z</time>
      </trkpt>
      <trkpt lat="44.49694" lon="5.95681">
        <ele>1636.8000488281</ele>
        <time>2016-05-06T08:23:53Z</time>
      </trkpt>
      <trkpt lat="44.49696" lon="5.95668">
        <ele>1636.8000488281</ele>
        <time>2016-05-06T08:23:57Z</time>
      </trkpt>
      <trkpt lat="44.49697" lon="5.95663">
        <ele>1636.8000488281</ele>
        <time>2016-05-06T08:23:59Z</time>
      </trkpt>
      <trkpt lat="44.49699" lon="5.95658">
        <ele>1636.8000488281</ele>
        <time>2016-05-06T08:24:01Z</time>
      </trkpt>
      <trkpt lat="44.49706" lon="5.95649">
        <ele>1637.1999511719</ele>
        <time>2016-05-06T08:24:05Z</time>
      </trkpt>
      <trkpt lat="44.49707" lon="5.95648">
        <ele>1637.5999755859</ele>
        <time>2016-05-06T08:24:06Z</time>
      </trkpt>
      <trkpt lat="44.49708" lon="5.95646">
        <ele>1638</ele>
        <time>2016-05-06T08:24:07Z</time>
      </trkpt>
      <trkpt lat="44.49709" lon="5.95644">
        <ele>1638.5999755859</ele>
        <time>2016-05-06T08:24:08Z</time>
      </trkpt>
      <trkpt lat="44.4971" lon="5.95643">
        <ele>1639</ele>
        <time>2016-05-06T08:24:09Z</time>
      </trkpt>
      <trkpt lat="44.49715" lon="5.95631">
        <ele>1639</ele>
        <time>2016-05-06T08:24:14Z</time>
      </trkpt>
      <trkpt lat="44.4972" lon="5.95619">
        <ele>1639.4000244141</ele>
        <time>2016-05-06T08:24:19Z</time>
      </trkpt>
      <trkpt lat="44.49722" lon="5.95617">
        <ele>1639.8000488281</ele>
        <time>2016-05-06T08:24:20Z</time>
      </trkpt>
      <trkpt lat="44.49723" lon="5.95616">
        <ele>1640.1999511719</ele>
        <time>2016-05-06T08:24:21Z</time>
      </trkpt>
      <trkpt lat="44.49725" lon="5.95615">
        <ele>1640.5999755859</ele>
        <time>2016-05-06T08:24:22Z</time>
      </trkpt>
      <trkpt lat="44.49726" lon="5.95612">
        <ele>1641</ele>
        <time>2016-05-06T08:24:23Z</time>
      </trkpt>
      <trkpt lat="44.49733" lon="5.95593">
        <ele>1641</ele>
        <time>2016-05-06T08:24:31Z</time>
      </trkpt>
      <trkpt lat="44.49738" lon="5.95577">
        <ele>1641</ele>
        <time>2016-05-06T08:24:37Z</time>
      </trkpt>
      <trkpt lat="44.49741" lon="5.95561">
        <ele>1641</ele>
        <time>2016-05-06T08:24:44Z</time>
      </trkpt>
      <trkpt lat="44.49741" lon="5.95558">
        <ele>1641.4000244141</ele>
        <time>2016-05-06T08:24:45Z</time>
      </trkpt>
      <trkpt lat="44.49741" lon="5.95557">
        <ele>1641.8000488281</ele>
        <time>2016-05-06T08:24:46Z</time>
      </trkpt>
      <trkpt lat="44.49742" lon="5.95555">
        <ele>1642.1999511719</ele>
        <time>2016-05-06T08:24:47Z</time>
      </trkpt>
      <trkpt lat="44.49743" lon="5.95553">
        <ele>1642.5999755859</ele>
        <time>2016-05-06T08:24:48Z</time>
      </trkpt>
      <trkpt lat="44.49744" lon="5.9555">
        <ele>1643</ele>
        <time>2016-05-06T08:24:49Z</time>
      </trkpt>
      <trkpt lat="44.49749" lon="5.95523">
        <ele>1643</ele>
        <time>2016-05-06T08:24:56Z</time>
      </trkpt>
      <trkpt lat="44.49755" lon="5.95507">
        <ele>1643</ele>
        <time>2016-05-06T08:25:02Z</time>
      </trkpt>
      <trkpt lat="44.49758" lon="5.95486">
        <ele>1643</ele>
        <time>2016-05-06T08:25:09Z</time>
      </trkpt>
      <trkpt lat="44.49758" lon="5.95476">
        <ele>1643</ele>
        <time>2016-05-06T08:25:13Z</time>
      </trkpt>
      <trkpt lat="44.49759" lon="5.9547">
        <ele>1643.4000244141</ele>
        <time>2016-05-06T08:25:15Z</time>
      </trkpt>
      <trkpt lat="44.49759" lon="5.95467">
        <ele>1643.8000488281</ele>
        <time>2016-05-06T08:25:16Z</time>
      </trkpt>
      <trkpt lat="44.49759" lon="5.95464">
        <ele>1644.4000244141</ele>
        <time>2016-05-06T08:25:17Z</time>
      </trkpt>
      <trkpt lat="44.49759" lon="5.95461">
        <ele>1644.8000488281</ele>
        <time>2016-05-06T08:25:18Z</time>
      </trkpt>
      <trkpt lat="44.49759" lon="5.95458">
        <ele>1645.1999511719</ele>
        <time>2016-05-06T08:25:19Z</time>
      </trkpt>
      <trkpt lat="44.49759" lon="5.95455">
        <ele>1645.1999511719</ele>
        <time>2016-05-06T08:25:20Z</time>
      </trkpt>
      <trkpt lat="44.49758" lon="5.95435">
        <ele>1645.1999511719</ele>
        <time>2016-05-06T08:25:28Z</time>
      </trkpt>
      <trkpt lat="44.49759" lon="5.95432">
        <ele>1645.5999755859</ele>
        <time>2016-05-06T08:25:29Z</time>
      </trkpt>
      <trkpt lat="44.49759" lon="5.95429">
        <ele>1646</ele>
        <time>2016-05-06T08:25:30Z</time>
      </trkpt>
      <trkpt lat="44.49759" lon="5.95425">
        <ele>1646.4000244141</ele>
        <time>2016-05-06T08:25:31Z</time>
      </trkpt>
      <trkpt lat="44.49758" lon="5.95422">
        <ele>1646.8000488281</ele>
        <time>2016-05-06T08:25:32Z</time>
      </trkpt>
      <trkpt lat="44.49757" lon="5.95419">
        <ele>1647.1999511719</ele>
        <time>2016-05-06T08:25:33Z</time>
      </trkpt>
      <trkpt lat="44.49756" lon="5.95417">
        <ele>1647.1999511719</ele>
        <time>2016-05-06T08:25:34Z</time>
      </trkpt>
      <trkpt lat="44.49754" lon="5.95405">
        <ele>1647.1999511719</ele>
        <time>2016-05-06T08:25:39Z</time>
      </trkpt>
      <trkpt lat="44.49753" lon="5.95403">
        <ele>1647.1999511719</ele>
        <time>2016-05-06T08:25:40Z</time>
      </trkpt>
      <trkpt lat="44.49749" lon="5.95393">
        <ele>1647.1999511719</ele>
        <time>2016-05-06T08:25:44Z</time>
      </trkpt>
      <trkpt lat="44.49747" lon="5.95387">
        <ele>1647.1999511719</ele>
        <time>2016-05-06T08:25:46Z</time>
      </trkpt>
      <trkpt lat="44.49745" lon="5.95368">
        <ele>1647.1999511719</ele>
        <time>2016-05-06T08:25:52Z</time>
      </trkpt>
      <trkpt lat="44.49742" lon="5.95354">
        <ele>1647.5999755859</ele>
        <time>2016-05-06T08:25:57Z</time>
      </trkpt>
      <trkpt lat="44.49741" lon="5.95351">
        <ele>1648</ele>
        <time>2016-05-06T08:25:58Z</time>
      </trkpt>
      <trkpt lat="44.49741" lon="5.95348">
        <ele>1648.4000244141</ele>
        <time>2016-05-06T08:25:59Z</time>
      </trkpt>
      <trkpt lat="44.49739" lon="5.95344">
        <ele>1648.8000488281</ele>
        <time>2016-05-06T08:26:00Z</time>
      </trkpt>
      <trkpt lat="44.49739" lon="5.9534">
        <ele>1649.1999511719</ele>
        <time>2016-05-06T08:26:01Z</time>
      </trkpt>
      <trkpt lat="44.49738" lon="5.95325">
        <ele>1649.1999511719</ele>
        <time>2016-05-06T08:26:05Z</time>
      </trkpt>
      <trkpt lat="44.49733" lon="5.95306">
        <ele>1649.1999511719</ele>
        <time>2016-05-06T08:26:11Z</time>
      </trkpt>
      <trkpt lat="44.49728" lon="5.95279">
        <ele>1649.1999511719</ele>
        <time>2016-05-06T08:26:17Z</time>
      </trkpt>
      <trkpt lat="44.49724" lon="5.95254">
        <ele>1649.1999511719</ele>
        <time>2016-05-06T08:26:23Z</time>
      </trkpt>
      <trkpt lat="44.49715" lon="5.95233">
        <ele>1649.1999511719</ele>
        <time>2016-05-06T08:26:28Z</time>
      </trkpt>
      <trkpt lat="44.49712" lon="5.95228">
        <ele>1648.8000488281</ele>
        <time>2016-05-06T08:26:29Z</time>
      </trkpt>
      <trkpt lat="44.4971" lon="5.95224">
        <ele>1648.1999511719</ele>
        <time>2016-05-06T08:26:30Z</time>
      </trkpt>
      <trkpt lat="44.49708" lon="5.9522">
        <ele>1647.8000488281</ele>
        <time>2016-05-06T08:26:31Z</time>
      </trkpt>
      <trkpt lat="44.49706" lon="5.95215">
        <ele>1647.1999511719</ele>
        <time>2016-05-06T08:26:32Z</time>
      </trkpt>
      <trkpt lat="44.49704" lon="5.95211">
        <ele>1646.8000488281</ele>
        <time>2016-05-06T08:26:33Z</time>
      </trkpt>
      <trkpt lat="44.49702" lon="5.95207">
        <ele>1646.8000488281</ele>
        <time>2016-05-06T08:26:34Z</time>
      </trkpt>
      <trkpt lat="44.49702" lon="5.95203">
        <ele>1646.8000488281</ele>
        <time>2016-05-06T08:26:35Z</time>
      </trkpt>
      <trkpt lat="44.49701" lon="5.9519">
        <ele>1646.8000488281</ele>
        <time>2016-05-06T08:26:38Z</time>
      </trkpt>
      <trkpt lat="44.49696" lon="5.9516">
        <ele>1646.8000488281</ele>
        <time>2016-05-06T08:26:45Z</time>
      </trkpt>
      <trkpt lat="44.49692" lon="5.95123">
        <ele>1646.8000488281</ele>
        <time>2016-05-06T08:26:51Z</time>
      </trkpt>
      <trkpt lat="44.49684" lon="5.95095">
        <ele>1646.8000488281</ele>
        <time>2016-05-06T08:26:57Z</time>
      </trkpt>
      <trkpt lat="44.49678" lon="5.95063">
        <ele>1646.8000488281</ele>
        <time>2016-05-06T08:27:04Z</time>
      </trkpt>
      <trkpt lat="44.49676" lon="5.95049">
        <ele>1646.4000244141</ele>
        <time>2016-05-06T08:27:07Z</time>
      </trkpt>
      <trkpt lat="44.49675" lon="5.95043">
        <ele>1646</ele>
        <time>2016-05-06T08:27:08Z</time>
      </trkpt>
      <trkpt lat="44.49674" lon="5.95038">
        <ele>1645.5999755859</ele>
        <time>2016-05-06T08:27:09Z</time>
      </trkpt>
      <trkpt lat="44.49673" lon="5.95032">
        <ele>1645.1999511719</ele>
        <time>2016-05-06T08:27:10Z</time>
      </trkpt>
      <trkpt lat="44.49672" lon="5.95026">
        <ele>1644.8000488281</ele>
        <time>2016-05-06T08:27:11Z</time>
      </trkpt>
      <trkpt lat="44.4967" lon="5.95014">
        <ele>1644.4000244141</ele>
        <time>2016-05-06T08:27:13Z</time>
      </trkpt>
      <trkpt lat="44.49668" lon="5.95008">
        <ele>1643.8000488281</ele>
        <time>2016-05-06T08:27:14Z</time>
      </trkpt>
      <trkpt lat="44.49667" lon="5.95004">
        <ele>1643.4000244141</ele>
        <time>2016-05-06T08:27:15Z</time>
      </trkpt>
      <trkpt lat="44.49667" lon="5.95">
        <ele>1643</ele>
        <time>2016-05-06T08:27:16Z</time>
      </trkpt>
      <trkpt lat="44.49666" lon="5.94997">
        <ele>1642.5999755859</ele>
        <time>2016-05-06T08:27:17Z</time>
      </trkpt>
      <trkpt lat="44.49665" lon="5.94992">
        <ele>1642.1999511719</ele>
        <time>2016-05-06T08:27:18Z</time>
      </trkpt>
      <trkpt lat="44.49664" lon="5.94987">
        <ele>1641.8000488281</ele>
        <time>2016-05-06T08:27:19Z</time>
      </trkpt>
      <trkpt lat="44.49664" lon="5.94982">
        <ele>1641.4000244141</ele>
        <time>2016-05-06T08:27:20Z</time>
      </trkpt>
      <trkpt lat="44.49663" lon="5.94977">
        <ele>1641</ele>
        <time>2016-05-06T08:27:21Z</time>
      </trkpt>
      <trkpt lat="44.49663" lon="5.94974">
        <ele>1640.4000244141</ele>
        <time>2016-05-06T08:27:22Z</time>
      </trkpt>
      <trkpt lat="44.49661" lon="5.94969">
        <ele>1640.4000244141</ele>
        <time>2016-05-06T08:27:23Z</time>
      </trkpt>
      <trkpt lat="44.49657" lon="5.94944">
        <ele>1640.4000244141</ele>
        <time>2016-05-06T08:27:30Z</time>
      </trkpt>
      <trkpt lat="44.49652" lon="5.94926">
        <ele>1640.4000244141</ele>
        <time>2016-05-06T08:27:35Z</time>
      </trkpt>
      <trkpt lat="44.49647" lon="5.94897">
        <ele>1640.4000244141</ele>
        <time>2016-05-06T08:27:41Z</time>
      </trkpt>
      <trkpt lat="44.49636" lon="5.94864">
        <ele>1640.4000244141</ele>
        <time>2016-05-06T08:27:49Z</time>
      </trkpt>
      <trkpt lat="44.49623" lon="5.94836">
        <ele>1640</ele>
        <time>2016-05-06T08:27:55Z</time>
      </trkpt>
      <trkpt lat="44.49622" lon="5.9483">
        <ele>1639.5999755859</ele>
        <time>2016-05-06T08:27:56Z</time>
      </trkpt>
      <trkpt lat="44.4962" lon="5.94825">
        <ele>1639.1999511719</ele>
        <time>2016-05-06T08:27:57Z</time>
      </trkpt>
      <trkpt lat="44.49619" lon="5.94818">
        <ele>1638.8000488281</ele>
        <time>2016-05-06T08:27:58Z</time>
      </trkpt>
      <trkpt lat="44.49615" lon="5.94814">
        <ele>1638.4000244141</ele>
        <time>2016-05-06T08:27:59Z</time>
      </trkpt>
      <trkpt lat="44.4961" lon="5.94805">
        <ele>1638.4000244141</ele>
        <time>2016-05-06T08:28:01Z</time>
      </trkpt>
      <trkpt lat="44.49606" lon="5.94789">
        <ele>1637.8000488281</ele>
        <time>2016-05-06T08:28:04Z</time>
      </trkpt>
      <trkpt lat="44.49603" lon="5.94786">
        <ele>1637.4000244141</ele>
        <time>2016-05-06T08:28:05Z</time>
      </trkpt>
      <trkpt lat="44.49601" lon="5.94779">
        <ele>1637</ele>
        <time>2016-05-06T08:28:06Z</time>
      </trkpt>
      <trkpt lat="44.49598" lon="5.94773">
        <ele>1636.5999755859</ele>
        <time>2016-05-06T08:28:07Z</time>
      </trkpt>
      <trkpt lat="44.49598" lon="5.94768">
        <ele>1636.1999511719</ele>
        <time>2016-05-06T08:28:08Z</time>
      </trkpt>
      <trkpt lat="44.49597" lon="5.9475">
        <ele>1636.1999511719</ele>
        <time>2016-05-06T08:28:12Z</time>
      </trkpt>
      <trkpt lat="44.49587" lon="5.94714">
        <ele>1636.1999511719</ele>
        <time>2016-05-06T08:28:21Z</time>
      </trkpt>
      <trkpt lat="44.49574" lon="5.9469">
        <ele>1636.1999511719</ele>
        <time>2016-05-06T08:28:27Z</time>
      </trkpt>
      <trkpt lat="44.49566" lon="5.94676">
        <ele>1636.1999511719</ele>
        <time>2016-05-06T08:28:31Z</time>
      </trkpt>
      <trkpt lat="44.49555" lon="5.94651">
        <ele>1636.5999755859</ele>
        <time>2016-05-06T08:28:37Z</time>
      </trkpt>
      <trkpt lat="44.49554" lon="5.9465">
        <ele>1637.1999511719</ele>
        <time>2016-05-06T08:28:38Z</time>
      </trkpt>
      <trkpt lat="44.49553" lon="5.94647">
        <ele>1637.5999755859</ele>
        <time>2016-05-06T08:28:39Z</time>
      </trkpt>
      <trkpt lat="44.49552" lon="5.94644">
        <ele>1638</ele>
        <time>2016-05-06T08:28:40Z</time>
      </trkpt>
      <trkpt lat="44.49552" lon="5.94643">
        <ele>1638.4000244141</ele>
        <time>2016-05-06T08:28:41Z</time>
      </trkpt>
      <trkpt lat="44.49551" lon="5.94643">
        <ele>1638.4000244141</ele>
        <time>2016-05-06T08:28:43Z</time>
      </trkpt>
      <trkpt lat="44.49544" lon="5.94627">
        <ele>1638.4000244141</ele>
        <time>2016-05-06T08:28:55Z</time>
      </trkpt>
      <trkpt lat="44.49532" lon="5.94603">
        <ele>1638.4000244141</ele>
        <time>2016-05-06T08:29:02Z</time>
      </trkpt>
      <trkpt lat="44.49522" lon="5.94577">
        <ele>1638.4000244141</ele>
        <time>2016-05-06T08:29:08Z</time>
      </trkpt>
      <trkpt lat="44.4952" lon="5.94547">
        <ele>1638.4000244141</ele>
        <time>2016-05-06T08:29:15Z</time>
      </trkpt>
      <trkpt lat="44.49524" lon="5.94536">
        <ele>1638.8000488281</ele>
        <time>2016-05-06T08:29:18Z</time>
      </trkpt>
      <trkpt lat="44.49526" lon="5.94532">
        <ele>1639.1999511719</ele>
        <time>2016-05-06T08:29:19Z</time>
      </trkpt>
      <trkpt lat="44.49527" lon="5.94527">
        <ele>1639.8000488281</ele>
        <time>2016-05-06T08:29:20Z</time>
      </trkpt>
      <trkpt lat="44.49528" lon="5.94522">
        <ele>1640.1999511719</ele>
        <time>2016-05-06T08:29:21Z</time>
      </trkpt>
      <trkpt lat="44.49533" lon="5.94512">
        <ele>1640.5999755859</ele>
        <time>2016-05-06T08:29:23Z</time>
      </trkpt>
      <trkpt lat="44.49534" lon="5.94502">
        <ele>1640.5999755859</ele>
        <time>2016-05-06T08:29:25Z</time>
      </trkpt>
      <trkpt lat="44.49535" lon="5.94478">
        <ele>1640.5999755859</ele>
        <time>2016-05-06T08:29:30Z</time>
      </trkpt>
      <trkpt lat="44.49531" lon="5.94446">
        <ele>1640.5999755859</ele>
        <time>2016-05-06T08:29:37Z</time>
      </trkpt>
      <trkpt lat="44.49533" lon="5.94409">
        <ele>1640.5999755859</ele>
        <time>2016-05-06T08:29:44Z</time>
      </trkpt>
      <trkpt lat="44.49534" lon="5.94374">
        <ele>1640.5999755859</ele>
        <time>2016-05-06T08:29:51Z</time>
      </trkpt>
      <trkpt lat="44.49534" lon="5.94344">
        <ele>1640.5999755859</ele>
        <time>2016-05-06T08:29:57Z</time>
      </trkpt>
      <trkpt lat="44.49535" lon="5.94339">
        <ele>1639.8000488281</ele>
        <time>2016-05-06T08:29:58Z</time>
      </trkpt>
      <trkpt lat="44.49535" lon="5.94334">
        <ele>1639.4000244141</ele>
        <time>2016-05-06T08:29:59Z</time>
      </trkpt>
      <trkpt lat="44.49535" lon="5.9433">
        <ele>1638.8000488281</ele>
        <time>2016-05-06T08:30:00Z</time>
      </trkpt>
      <trkpt lat="44.49535" lon="5.94327">
        <ele>1638.4000244141</ele>
        <time>2016-05-06T08:30:01Z</time>
      </trkpt>
      <trkpt lat="44.49536" lon="5.94325">
        <ele>1638.4000244141</ele>
        <time>2016-05-06T08:30:02Z</time>
      </trkpt>
      <trkpt lat="44.49544" lon="5.94307">
        <ele>1638.4000244141</ele>
        <time>2016-05-06T08:30:07Z</time>
      </trkpt>
      <trkpt lat="44.49544" lon="5.94303">
        <ele>1638.4000244141</ele>
        <time>2016-05-06T08:30:14Z</time>
      </trkpt>
      <trkpt lat="44.49542" lon="5.94291">
        <ele>1638.4000244141</ele>
        <time>2016-05-06T08:30:22Z</time>
      </trkpt>
      <trkpt lat="44.49542" lon="5.9429">
        <ele>1638.4000244141</ele>
        <time>2016-05-06T08:30:23Z</time>
      </trkpt>
      <trkpt lat="44.49545" lon="5.94282">
        <ele>1638.8000488281</ele>
        <time>2016-05-06T08:30:29Z</time>
      </trkpt>
      <trkpt lat="44.49545" lon="5.9428">
        <ele>1639.4000244141</ele>
        <time>2016-05-06T08:30:30Z</time>
      </trkpt>
      <trkpt lat="44.49545" lon="5.94279">
        <ele>1639.8000488281</ele>
        <time>2016-05-06T08:30:31Z</time>
      </trkpt>
      <trkpt lat="44.49546" lon="5.94277">
        <ele>1640.1999511719</ele>
        <time>2016-05-06T08:30:33Z</time>
      </trkpt>
      <trkpt lat="44.49546" lon="5.94276">
        <ele>1640.5999755859</ele>
        <time>2016-05-06T08:30:34Z</time>
      </trkpt>
      <trkpt lat="44.49544" lon="5.94273">
        <ele>1640.5999755859</ele>
        <time>2016-05-06T08:30:38Z</time>
      </trkpt>
      <trkpt lat="44.49542" lon="5.9427">
        <ele>1640.5999755859</ele>
        <time>2016-05-06T08:30:43Z</time>
      </trkpt>
      <trkpt lat="44.49541" lon="5.94269">
        <ele>1640.5999755859</ele>
        <time>2016-05-06T08:30:46Z</time>
      </trkpt>
      <trkpt lat="44.49538" lon="5.94266">
        <ele>1640.5999755859</ele>
        <time>2016-05-06T08:31:00Z</time>
      </trkpt>
      <trkpt lat="44.49539" lon="5.94266">
        <ele>1640.5999755859</ele>
        <time>2016-05-06T08:31:08Z</time>
      </trkpt>
      <trkpt lat="44.49539" lon="5.94268">
        <ele>1640.5999755859</ele>
        <time>2016-05-06T08:31:33Z</time>
      </trkpt>
      <trkpt lat="44.49533" lon="5.94263">
        <ele>1640.5999755859</ele>
        <time>2016-05-06T08:31:52Z</time>
      </trkpt>
      <trkpt lat="44.4953" lon="5.9426">
        <ele>1640.1999511719</ele>
        <time>2016-05-06T08:31:53Z</time>
      </trkpt>
      <trkpt lat="44.49527" lon="5.94257">
        <ele>1639.5999755859</ele>
        <time>2016-05-06T08:31:54Z</time>
      </trkpt>
      <trkpt lat="44.49524" lon="5.94255">
        <ele>1639.1999511719</ele>
        <time>2016-05-06T08:31:55Z</time>
      </trkpt>
      <trkpt lat="44.49522" lon="5.94252">
        <ele>1638.5999755859</ele>
        <time>2016-05-06T08:31:56Z</time>
      </trkpt>
      <trkpt lat="44.4952" lon="5.9425">
        <ele>1638</ele>
        <time>2016-05-06T08:31:57Z</time>
      </trkpt>
      <trkpt lat="44.49519" lon="5.94249">
        <ele>1637.4000244141</ele>
        <time>2016-05-06T08:31:58Z</time>
      </trkpt>
      <trkpt lat="44.49518" lon="5.94248">
        <ele>1636.5999755859</ele>
        <time>2016-05-06T08:31:59Z</time>
      </trkpt>
      <trkpt lat="44.49517" lon="5.94248">
        <ele>1636</ele>
        <time>2016-05-06T08:32:00Z</time>
      </trkpt>
      <trkpt lat="44.49517" lon="5.94248">
        <ele>1635.4000244141</ele>
        <time>2016-05-06T08:32:01Z</time>
      </trkpt>
      <trkpt lat="44.49516" lon="5.94247">
        <ele>1634.5999755859</ele>
        <time>2016-05-06T08:32:02Z</time>
      </trkpt>
      <trkpt lat="44.49514" lon="5.94245">
        <ele>1634</ele>
        <time>2016-05-06T08:32:03Z</time>
      </trkpt>
      <trkpt lat="44.49511" lon="5.94239">
        <ele>1634</ele>
        <time>2016-05-06T08:32:07Z</time>
      </trkpt>
      <trkpt lat="44.49503" lon="5.9422">
        <ele>1634</ele>
        <time>2016-05-06T08:32:13Z</time>
      </trkpt>
      <trkpt lat="44.49504" lon="5.94217">
        <ele>1634</ele>
        <time>2016-05-06T08:32:14Z</time>
      </trkpt>
      <trkpt lat="44.49504" lon="5.94207">
        <ele>1633.5999755859</ele>
        <time>2016-05-06T08:32:16Z</time>
      </trkpt>
      <trkpt lat="44.49504" lon="5.94203">
        <ele>1633.1999511719</ele>
        <time>2016-05-06T08:32:17Z</time>
      </trkpt>
      <trkpt lat="44.49504" lon="5.94194">
        <ele>1632.8000488281</ele>
        <time>2016-05-06T08:32:18Z</time>
      </trkpt>
      <trkpt lat="44.49504" lon="5.94189">
        <ele>1632</ele>
        <time>2016-05-06T08:32:19Z</time>
      </trkpt>
      <trkpt lat="44.49503" lon="5.94184">
        <ele>1631.4000244141</ele>
        <time>2016-05-06T08:32:20Z</time>
      </trkpt>
      <trkpt lat="44.49503" lon="5.94178">
        <ele>1630.5999755859</ele>
        <time>2016-05-06T08:32:21Z</time>
      </trkpt>
      <trkpt lat="44.49501" lon="5.94171">
        <ele>1629.8000488281</ele>
        <time>2016-05-06T08:32:22Z</time>
      </trkpt>
      <trkpt lat="44.49503" lon="5.94158">
        <ele>1629</ele>
        <time>2016-05-06T08:32:24Z</time>
      </trkpt>
      <trkpt lat="44.49503" lon="5.94153">
        <ele>1628.1999511719</ele>
        <time>2016-05-06T08:32:25Z</time>
      </trkpt>
      <trkpt lat="44.49503" lon="5.94149">
        <ele>1627.4000244141</ele>
        <time>2016-05-06T08:32:26Z</time>
      </trkpt>
      <trkpt lat="44.49503" lon="5.94148">
        <ele>1626.8000488281</ele>
        <time>2016-05-06T08:32:27Z</time>
      </trkpt>
      <trkpt lat="44.49504" lon="5.94145">
        <ele>1626.1999511719</ele>
        <time>2016-05-06T08:32:28Z</time>
      </trkpt>
      <trkpt lat="44.49504" lon="5.9414">
        <ele>1625.5999755859</ele>
        <time>2016-05-06T08:32:29Z</time>
      </trkpt>
      <trkpt lat="44.49504" lon="5.94136">
        <ele>1625</ele>
        <time>2016-05-06T08:32:30Z</time>
      </trkpt>
      <trkpt lat="44.49506" lon="5.94131">
        <ele>1624.4000244141</ele>
        <time>2016-05-06T08:32:31Z</time>
      </trkpt>
      <trkpt lat="44.49507" lon="5.94124">
        <ele>1623.8000488281</ele>
        <time>2016-05-06T08:32:32Z</time>
      </trkpt>
      <trkpt lat="44.49507" lon="5.94116">
        <ele>1623.1999511719</ele>
        <time>2016-05-06T08:32:33Z</time>
      </trkpt>
      <trkpt lat="44.49507" lon="5.94109">
        <ele>1622.5999755859</ele>
        <time>2016-05-06T08:32:34Z</time>
      </trkpt>
      <trkpt lat="44.49506" lon="5.94104">
        <ele>1621.8000488281</ele>
        <time>2016-05-06T08:32:35Z</time>
      </trkpt>
      <trkpt lat="44.49504" lon="5.94098">
        <ele>1621.1999511719</ele>
        <time>2016-05-06T08:32:36Z</time>
      </trkpt>
      <trkpt lat="44.49503" lon="5.94091">
        <ele>1620.4000244141</ele>
        <time>2016-05-06T08:32:37Z</time>
      </trkpt>
      <trkpt lat="44.49503" lon="5.94085">
        <ele>1619.5999755859</ele>
        <time>2016-05-06T08:32:38Z</time>
      </trkpt>
      <trkpt lat="44.49502" lon="5.94079">
        <ele>1618.8000488281</ele>
        <time>2016-05-06T08:32:39Z</time>
      </trkpt>
      <trkpt lat="44.49501" lon="5.94073">
        <ele>1618</ele>
        <time>2016-05-06T08:32:40Z</time>
      </trkpt>
      <trkpt lat="44.49501" lon="5.94067">
        <ele>1617.4000244141</ele>
        <time>2016-05-06T08:32:41Z</time>
      </trkpt>
      <trkpt lat="44.49501" lon="5.94061">
        <ele>1616.5999755859</ele>
        <time>2016-05-06T08:32:42Z</time>
      </trkpt>
      <trkpt lat="44.49501" lon="5.94056">
        <ele>1616</ele>
        <time>2016-05-06T08:32:43Z</time>
      </trkpt>
      <trkpt lat="44.49501" lon="5.94052">
        <ele>1615.1999511719</ele>
        <time>2016-05-06T08:32:44Z</time>
      </trkpt>
      <trkpt lat="44.49501" lon="5.94048">
        <ele>1615.1999511719</ele>
        <time>2016-05-06T08:32:45Z</time>
      </trkpt>
      <trkpt lat="44.49497" lon="5.94034">
        <ele>1614.5999755859</ele>
        <time>2016-05-06T08:32:48Z</time>
      </trkpt>
      <trkpt lat="44.49494" lon="5.9403">
        <ele>1614.1999511719</ele>
        <time>2016-05-06T08:32:49Z</time>
      </trkpt>
      <trkpt lat="44.49492" lon="5.94026">
        <ele>1613.4000244141</ele>
        <time>2016-05-06T08:32:50Z</time>
      </trkpt>
      <trkpt lat="44.4949" lon="5.94023">
        <ele>1612.5999755859</ele>
        <time>2016-05-06T08:32:51Z</time>
      </trkpt>
      <trkpt lat="44.49489" lon="5.94019">
        <ele>1611.5999755859</ele>
        <time>2016-05-06T08:32:52Z</time>
      </trkpt>
      <trkpt lat="44.49489" lon="5.94014">
        <ele>1610.8000488281</ele>
        <time>2016-05-06T08:32:53Z</time>
      </trkpt>
      <trkpt lat="44.49489" lon="5.94009">
        <ele>1610</ele>
        <time>2016-05-06T08:32:54Z</time>
      </trkpt>
      <trkpt lat="44.49488" lon="5.94006">
        <ele>1609</ele>
        <time>2016-05-06T08:32:55Z</time>
      </trkpt>
      <trkpt lat="44.49488" lon="5.94">
        <ele>1608.1999511719</ele>
        <time>2016-05-06T08:32:56Z</time>
      </trkpt>
      <trkpt lat="44.49486" lon="5.93989">
        <ele>1607.8000488281</ele>
        <time>2016-05-06T08:32:58Z</time>
      </trkpt>
      <trkpt lat="44.49485" lon="5.93983">
        <ele>1607.4000244141</ele>
        <time>2016-05-06T08:32:59Z</time>
      </trkpt>
      <trkpt lat="44.49484" lon="5.93978">
        <ele>1606.8000488281</ele>
        <time>2016-05-06T08:33:00Z</time>
      </trkpt>
      <trkpt lat="44.49483" lon="5.93974">
        <ele>1606.1999511719</ele>
        <time>2016-05-06T08:33:01Z</time>
      </trkpt>
      <trkpt lat="44.49482" lon="5.93971">
        <ele>1605.4000244141</ele>
        <time>2016-05-06T08:33:02Z</time>
      </trkpt>
      <trkpt lat="44.4948" lon="5.9397">
        <ele>1604.8000488281</ele>
        <time>2016-05-06T08:33:03Z</time>
      </trkpt>
      <trkpt lat="44.49479" lon="5.93968">
        <ele>1604.1999511719</ele>
        <time>2016-05-06T08:33:04Z</time>
      </trkpt>
      <trkpt lat="44.49479" lon="5.93966">
        <ele>1603.5999755859</ele>
        <time>2016-05-06T08:33:05Z</time>
      </trkpt>
      <trkpt lat="44.49477" lon="5.93963">
        <ele>1603</ele>
        <time>2016-05-06T08:33:06Z</time>
      </trkpt>
      <trkpt lat="44.49476" lon="5.9396">
        <ele>1602.4000244141</ele>
        <time>2016-05-06T08:33:07Z</time>
      </trkpt>
      <trkpt lat="44.49474" lon="5.93956">
        <ele>1602</ele>
        <time>2016-05-06T08:33:08Z</time>
      </trkpt>
      <trkpt lat="44.49473" lon="5.93954">
        <ele>1601.4000244141</ele>
        <time>2016-05-06T08:33:09Z</time>
      </trkpt>
      <trkpt lat="44.49472" lon="5.93952">
        <ele>1600.8000488281</ele>
        <time>2016-05-06T08:33:10Z</time>
      </trkpt>
      <trkpt lat="44.4947" lon="5.93952">
        <ele>1600.4000244141</ele>
        <time>2016-05-06T08:33:11Z</time>
      </trkpt>
      <trkpt lat="44.49469" lon="5.93953">
        <ele>1599.8000488281</ele>
        <time>2016-05-06T08:33:12Z</time>
      </trkpt>
      <trkpt lat="44.49469" lon="5.93956">
        <ele>1599.1999511719</ele>
        <time>2016-05-06T08:33:13Z</time>
      </trkpt>
      <trkpt lat="44.49469" lon="5.93959">
        <ele>1598.8000488281</ele>
        <time>2016-05-06T08:33:14Z</time>
      </trkpt>
      <trkpt lat="44.49469" lon="5.93961">
        <ele>1598.4000244141</ele>
        <time>2016-05-06T08:33:15Z</time>
      </trkpt>
      <trkpt lat="44.49469" lon="5.93964">
        <ele>1598</ele>
        <time>2016-05-06T08:33:16Z</time>
      </trkpt>
      <trkpt lat="44.49469" lon="5.93965">
        <ele>1597.4000244141</ele>
        <time>2016-05-06T08:33:17Z</time>
      </trkpt>
      <trkpt lat="44.49469" lon="5.93967">
        <ele>1597</ele>
        <time>2016-05-06T08:33:18Z</time>
      </trkpt>
      <trkpt lat="44.49468" lon="5.9397">
        <ele>1596.5999755859</ele>
        <time>2016-05-06T08:33:19Z</time>
      </trkpt>
      <trkpt lat="44.49468" lon="5.93974">
        <ele>1596.1999511719</ele>
        <time>2016-05-06T08:33:20Z</time>
      </trkpt>
      <trkpt lat="44.49467" lon="5.93979">
        <ele>1595.8000488281</ele>
        <time>2016-05-06T08:33:21Z</time>
      </trkpt>
      <trkpt lat="44.49466" lon="5.93985">
        <ele>1595.1999511719</ele>
        <time>2016-05-06T08:33:22Z</time>
      </trkpt>
      <trkpt lat="44.49465" lon="5.9399">
        <ele>1594.5999755859</ele>
        <time>2016-05-06T08:33:23Z</time>
      </trkpt>
      <trkpt lat="44.49465" lon="5.93995">
        <ele>1594</ele>
        <time>2016-05-06T08:33:24Z</time>
      </trkpt>
      <trkpt lat="44.49464" lon="5.94">
        <ele>1593.1999511719</ele>
        <time>2016-05-06T08:33:25Z</time>
      </trkpt>
      <trkpt lat="44.49463" lon="5.94004">
        <ele>1592.4000244141</ele>
        <time>2016-05-06T08:33:26Z</time>
      </trkpt>
      <trkpt lat="44.4946" lon="5.94006">
        <ele>1591.8000488281</ele>
        <time>2016-05-06T08:33:27Z</time>
      </trkpt>
      <trkpt lat="44.49458" lon="5.94009">
        <ele>1591</ele>
        <time>2016-05-06T08:33:28Z</time>
      </trkpt>
      <trkpt lat="44.49456" lon="5.94012">
        <ele>1590.1999511719</ele>
        <time>2016-05-06T08:33:29Z</time>
      </trkpt>
      <trkpt lat="44.49455" lon="5.94017">
        <ele>1589.4000244141</ele>
        <time>2016-05-06T08:33:30Z</time>
      </trkpt>
      <trkpt lat="44.49453" lon="5.94022">
        <ele>1588.5999755859</ele>
        <time>2016-05-06T08:33:31Z</time>
      </trkpt>
      <trkpt lat="44.4945" lon="5.94027">
        <ele>1588</ele>
        <time>2016-05-06T08:33:32Z</time>
      </trkpt>
      <trkpt lat="44.49447" lon="5.94031">
        <ele>1587.4000244141</ele>
        <time>2016-05-06T08:33:33Z</time>
      </trkpt>
      <trkpt lat="44.49444" lon="5.94036">
        <ele>1586.8000488281</ele>
        <time>2016-05-06T08:33:34Z</time>
      </trkpt>
      <trkpt lat="44.49442" lon="5.94041">
        <ele>1586</ele>
        <time>2016-05-06T08:33:35Z</time>
      </trkpt>
      <trkpt lat="44.49438" lon="5.94044">
        <ele>1585.4000244141</ele>
        <time>2016-05-06T08:33:36Z</time>
      </trkpt>
      <trkpt lat="44.49436" lon="5.94046">
        <ele>1584.5999755859</ele>
        <time>2016-05-06T08:33:37Z</time>
      </trkpt>
      <trkpt lat="44.49433" lon="5.94049">
        <ele>1583.8000488281</ele>
        <time>2016-05-06T08:33:38Z</time>
      </trkpt>
      <trkpt lat="44.4943" lon="5.94054">
        <ele>1582.8000488281</ele>
        <time>2016-05-06T08:33:39Z</time>
      </trkpt>
      <trkpt lat="44.49429" lon="5.94061">
        <ele>1582</ele>
        <time>2016-05-06T08:33:40Z</time>
      </trkpt>
      <trkpt lat="44.49427" lon="5.94069">
        <ele>1581.1999511719</ele>
        <time>2016-05-06T08:33:41Z</time>
      </trkpt>
      <trkpt lat="44.49425" lon="5.94075">
        <ele>1580.4000244141</ele>
        <time>2016-05-06T08:33:42Z</time>
      </trkpt>
      <trkpt lat="44.49422" lon="5.94081">
        <ele>1579.5999755859</ele>
        <time>2016-05-06T08:33:43Z</time>
      </trkpt>
      <trkpt lat="44.4942" lon="5.94087">
        <ele>1578.8000488281</ele>
        <time>2016-05-06T08:33:44Z</time>
      </trkpt>
      <trkpt lat="44.49417" lon="5.94096">
        <ele>1578</ele>
        <time>2016-05-06T08:33:45Z</time>
      </trkpt>
      <trkpt lat="44.49416" lon="5.94104">
        <ele>1577.1999511719</ele>
        <time>2016-05-06T08:33:46Z</time>
      </trkpt>
      <trkpt lat="44.49414" lon="5.9411">
        <ele>1576.4000244141</ele>
        <time>2016-05-06T08:33:47Z</time>
      </trkpt>
      <trkpt lat="44.49412" lon="5.94115">
        <ele>1575.5999755859</ele>
        <time>2016-05-06T08:33:48Z</time>
      </trkpt>
      <trkpt lat="44.49414" lon="5.9412">
        <ele>1574.8000488281</ele>
        <time>2016-05-06T08:33:49Z</time>
      </trkpt>
      <trkpt lat="44.49414" lon="5.94124">
        <ele>1574.1999511719</ele>
        <time>2016-05-06T08:33:50Z</time>
      </trkpt>
      <trkpt lat="44.49415" lon="5.94128">
        <ele>1573.4000244141</ele>
        <time>2016-05-06T08:33:51Z</time>
      </trkpt>
      <trkpt lat="44.49415" lon="5.94132">
        <ele>1573</ele>
        <time>2016-05-06T08:33:52Z</time>
      </trkpt>
      <trkpt lat="44.49416" lon="5.94134">
        <ele>1572.5999755859</ele>
        <time>2016-05-06T08:33:53Z</time>
      </trkpt>
      <trkpt lat="44.49416" lon="5.94137">
        <ele>1572.1999511719</ele>
        <time>2016-05-06T08:33:54Z</time>
      </trkpt>
      <trkpt lat="44.49417" lon="5.94141">
        <ele>1571.5999755859</ele>
        <time>2016-05-06T08:33:55Z</time>
      </trkpt>
      <trkpt lat="44.49418" lon="5.94144">
        <ele>1571</ele>
        <time>2016-05-06T08:33:56Z</time>
      </trkpt>
      <trkpt lat="44.49419" lon="5.94148">
        <ele>1570.4000244141</ele>
        <time>2016-05-06T08:33:57Z</time>
      </trkpt>
      <trkpt lat="44.49419" lon="5.94153">
        <ele>1569.8000488281</ele>
        <time>2016-05-06T08:33:58Z</time>
      </trkpt>
      <trkpt lat="44.49419" lon="5.94156">
        <ele>1569.1999511719</ele>
        <time>2016-05-06T08:33:59Z</time>
      </trkpt>
      <trkpt lat="44.49417" lon="5.9416">
        <ele>1568.8000488281</ele>
        <time>2016-05-06T08:34:00Z</time>
      </trkpt>
      <trkpt lat="44.49416" lon="5.94164">
        <ele>1568.1999511719</ele>
        <time>2016-05-06T08:34:01Z</time>
      </trkpt>
      <trkpt lat="44.49416" lon="5.94168">
        <ele>1567.5999755859</ele>
        <time>2016-05-06T08:34:02Z</time>
      </trkpt>
      <trkpt lat="44.49414" lon="5.94175">
        <ele>1567</ele>
        <time>2016-05-06T08:34:03Z</time>
      </trkpt>
      <trkpt lat="44.49413" lon="5.9418">
        <ele>1566.4000244141</ele>
        <time>2016-05-06T08:34:04Z</time>
      </trkpt>
      <trkpt lat="44.49411" lon="5.94184">
        <ele>1565.8000488281</ele>
        <time>2016-05-06T08:34:05Z</time>
      </trkpt>
      <trkpt lat="44.49409" lon="5.94188">
        <ele>1565</ele>
        <time>2016-05-06T08:34:06Z</time>
      </trkpt>
      <trkpt lat="44.49408" lon="5.94191">
        <ele>1564.4000244141</ele>
        <time>2016-05-06T08:34:07Z</time>
      </trkpt>
      <trkpt lat="44.49407" lon="5.94195">
        <ele>1563.5999755859</ele>
        <time>2016-05-06T08:34:08Z</time>
      </trkpt>
      <trkpt lat="44.49406" lon="5.942">
        <ele>1563</ele>
        <time>2016-05-06T08:34:09Z</time>
      </trkpt>
      <trkpt lat="44.49406" lon="5.94204">
        <ele>1562.4000244141</ele>
        <time>2016-05-06T08:34:10Z</time>
      </trkpt>
      <trkpt lat="44.49404" lon="5.94207">
        <ele>1561.8000488281</ele>
        <time>2016-05-06T08:34:11Z</time>
      </trkpt>
      <trkpt lat="44.49402" lon="5.9421">
        <ele>1561.1999511719</ele>
        <time>2016-05-06T08:34:12Z</time>
      </trkpt>
      <trkpt lat="44.49401" lon="5.94214">
        <ele>1560.5999755859</ele>
        <time>2016-05-06T08:34:13Z</time>
      </trkpt>
      <trkpt lat="44.49401" lon="5.94218">
        <ele>1560</ele>
        <time>2016-05-06T08:34:14Z</time>
      </trkpt>
      <trkpt lat="44.49401" lon="5.94223">
        <ele>1559.4000244141</ele>
        <time>2016-05-06T08:34:15Z</time>
      </trkpt>
      <trkpt lat="44.494" lon="5.94228">
        <ele>1558.8000488281</ele>
        <time>2016-05-06T08:34:16Z</time>
      </trkpt>
      <trkpt lat="44.494" lon="5.94232">
        <ele>1558.1999511719</ele>
        <time>2016-05-06T08:34:17Z</time>
      </trkpt>
      <trkpt lat="44.494" lon="5.94237">
        <ele>1557.5999755859</ele>
        <time>2016-05-06T08:34:18Z</time>
      </trkpt>
      <trkpt lat="44.49401" lon="5.94242">
        <ele>1556.8000488281</ele>
        <time>2016-05-06T08:34:19Z</time>
      </trkpt>
      <trkpt lat="44.49403" lon="5.94246">
        <ele>1556.1999511719</ele>
        <time>2016-05-06T08:34:20Z</time>
      </trkpt>
      <trkpt lat="44.49404" lon="5.94252">
        <ele>1555.5999755859</ele>
        <time>2016-05-06T08:34:21Z</time>
      </trkpt>
      <trkpt lat="44.49405" lon="5.94258">
        <ele>1555</ele>
        <time>2016-05-06T08:34:22Z</time>
      </trkpt>
      <trkpt lat="44.49406" lon="5.94264">
        <ele>1554.4000244141</ele>
        <time>2016-05-06T08:34:23Z</time>
      </trkpt>
      <trkpt lat="44.49408" lon="5.9427">
        <ele>1553.8000488281</ele>
        <time>2016-05-06T08:34:24Z</time>
      </trkpt>
      <trkpt lat="44.49409" lon="5.94275">
        <ele>1553.1999511719</ele>
        <time>2016-05-06T08:34:25Z</time>
      </trkpt>
      <trkpt lat="44.49409" lon="5.9428">
        <ele>1552.4000244141</ele>
        <time>2016-05-06T08:34:26Z</time>
      </trkpt>
      <trkpt lat="44.49409" lon="5.94285">
        <ele>1551.8000488281</ele>
        <time>2016-05-06T08:34:27Z</time>
      </trkpt>
      <trkpt lat="44.49408" lon="5.94288">
        <ele>1551.1999511719</ele>
        <time>2016-05-06T08:34:28Z</time>
      </trkpt>
      <trkpt lat="44.49408" lon="5.9429">
        <ele>1550.4000244141</ele>
        <time>2016-05-06T08:34:29Z</time>
      </trkpt>
      <trkpt lat="44.49408" lon="5.94292">
        <ele>1550.4000244141</ele>
        <time>2016-05-06T08:34:32Z</time>
      </trkpt>
      <trkpt lat="44.49407" lon="5.94293">
        <ele>1550</ele>
        <time>2016-05-06T08:34:34Z</time>
      </trkpt>
      <trkpt lat="44.49407" lon="5.94294">
        <ele>1549.5999755859</ele>
        <time>2016-05-06T08:34:36Z</time>
      </trkpt>
      <trkpt lat="44.49407" lon="5.94294">
        <ele>1549.1999511719</ele>
        <time>2016-05-06T08:34:37Z</time>
      </trkpt>
      <trkpt lat="44.49407" lon="5.94294">
        <ele>1548.8000488281</ele>
        <time>2016-05-06T08:34:38Z</time>
      </trkpt>
      <trkpt lat="44.49407" lon="5.94294">
        <ele>1548.4000244141</ele>
        <time>2016-05-06T08:34:39Z</time>
      </trkpt>
      <trkpt lat="44.49407" lon="5.94295">
        <ele>1548</ele>
        <time>2016-05-06T08:34:59Z</time>
      </trkpt>
      <trkpt lat="44.49406" lon="5.94297">
        <ele>1547.5999755859</ele>
        <time>2016-05-06T08:35:00Z</time>
      </trkpt>
      <trkpt lat="44.49405" lon="5.94301">
        <ele>1547</ele>
        <time>2016-05-06T08:35:01Z</time>
      </trkpt>
      <trkpt lat="44.49403" lon="5.94306">
        <ele>1546.5999755859</ele>
        <time>2016-05-06T08:35:02Z</time>
      </trkpt>
      <trkpt lat="44.494" lon="5.94311">
        <ele>1546.1999511719</ele>
        <time>2016-05-06T08:35:03Z</time>
      </trkpt>
      <trkpt lat="44.49398" lon="5.94322">
        <ele>1545.8000488281</ele>
        <time>2016-05-06T08:35:05Z</time>
      </trkpt>
      <trkpt lat="44.49397" lon="5.94326">
        <ele>1545.4000244141</ele>
        <time>2016-05-06T08:35:06Z</time>
      </trkpt>
      <trkpt lat="44.49397" lon="5.94328">
        <ele>1545</ele>
        <time>2016-05-06T08:35:07Z</time>
      </trkpt>
      <trkpt lat="44.49396" lon="5.9433">
        <ele>1544.4000244141</ele>
        <time>2016-05-06T08:35:08Z</time>
      </trkpt>
      <trkpt lat="44.49395" lon="5.94335">
        <ele>1544</ele>
        <time>2016-05-06T08:35:09Z</time>
      </trkpt>
      <trkpt lat="44.49393" lon="5.9434">
        <ele>1543.5999755859</ele>
        <time>2016-05-06T08:35:10Z</time>
      </trkpt>
      <trkpt lat="44.49391" lon="5.94346">
        <ele>1543.1999511719</ele>
        <time>2016-05-06T08:35:11Z</time>
      </trkpt>
      <trkpt lat="44.4939" lon="5.9435">
        <ele>1542.8000488281</ele>
        <time>2016-05-06T08:35:12Z</time>
      </trkpt>
      <trkpt lat="44.49389" lon="5.94355">
        <ele>1542.4000244141</ele>
        <time>2016-05-06T08:35:13Z</time>
      </trkpt>
      <trkpt lat="44.49389" lon="5.9436">
        <ele>1541.8000488281</ele>
        <time>2016-05-06T08:35:14Z</time>
      </trkpt>
      <trkpt lat="44.49389" lon="5.94364">
        <ele>1541.4000244141</ele>
        <time>2016-05-06T08:35:15Z</time>
      </trkpt>
      <trkpt lat="44.49388" lon="5.9437">
        <ele>1540.8000488281</ele>
        <time>2016-05-06T08:35:16Z</time>
      </trkpt>
      <trkpt lat="44.49388" lon="5.94376">
        <ele>1540.4000244141</ele>
        <time>2016-05-06T08:35:17Z</time>
      </trkpt>
      <trkpt lat="44.49387" lon="5.9438">
        <ele>1539.8000488281</ele>
        <time>2016-05-06T08:35:18Z</time>
      </trkpt>
      <trkpt lat="44.49387" lon="5.94384">
        <ele>1539.1999511719</ele>
        <time>2016-05-06T08:35:19Z</time>
      </trkpt>
      <trkpt lat="44.49387" lon="5.94387">
        <ele>1538.5999755859</ele>
        <time>2016-05-06T08:35:20Z</time>
      </trkpt>
      <trkpt lat="44.49387" lon="5.94388">
        <ele>1538</ele>
        <time>2016-05-06T08:35:21Z</time>
      </trkpt>
      <trkpt lat="44.49387" lon="5.94388">
        <ele>1537.4000244141</ele>
        <time>2016-05-06T08:35:22Z</time>
      </trkpt>
      <trkpt lat="44.49387" lon="5.94389">
        <ele>1536.8000488281</ele>
        <time>2016-05-06T08:35:23Z</time>
      </trkpt>
      <trkpt lat="44.49387" lon="5.94389">
        <ele>1536.4000244141</ele>
        <time>2016-05-06T08:35:24Z</time>
      </trkpt>
      <trkpt lat="44.49387" lon="5.94389">
        <ele>1535.8000488281</ele>
        <time>2016-05-06T08:35:25Z</time>
      </trkpt>
      <trkpt lat="44.49387" lon="5.94388">
        <ele>1535.1999511719</ele>
        <time>2016-05-06T08:35:26Z</time>
      </trkpt>
      <trkpt lat="44.49385" lon="5.94386">
        <ele>1535.1999511719</ele>
        <time>2016-05-06T08:35:38Z</time>
      </trkpt>
      <trkpt lat="44.49385" lon="5.94383">
        <ele>1535.1999511719</ele>
        <time>2016-05-06T08:35:39Z</time>
      </trkpt>
      <trkpt lat="44.49381" lon="5.94371">
        <ele>1534.8000488281</ele>
        <time>2016-05-06T08:35:42Z</time>
      </trkpt>
      <trkpt lat="44.49379" lon="5.94366">
        <ele>1534.4000244141</ele>
        <time>2016-05-06T08:35:43Z</time>
      </trkpt>
      <trkpt lat="44.49377" lon="5.94361">
        <ele>1534</ele>
        <time>2016-05-06T08:35:44Z</time>
      </trkpt>
      <trkpt lat="44.49373" lon="5.94355">
        <ele>1532.8000488281</ele>
        <time>2016-05-06T08:35:46Z</time>
      </trkpt>
      <trkpt lat="44.49372" lon="5.94352">
        <ele>1532.1999511719</ele>
        <time>2016-05-06T08:35:47Z</time>
      </trkpt>
      <trkpt lat="44.49371" lon="5.94349">
        <ele>1531.5999755859</ele>
        <time>2016-05-06T08:35:48Z</time>
      </trkpt>
      <trkpt lat="44.49371" lon="5.94344">
        <ele>1530.8000488281</ele>
        <time>2016-05-06T08:35:49Z</time>
      </trkpt>
      <trkpt lat="44.4937" lon="5.94341">
        <ele>1530.1999511719</ele>
        <time>2016-05-06T08:35:50Z</time>
      </trkpt>
      <trkpt lat="44.49369" lon="5.94337">
        <ele>1529.5999755859</ele>
        <time>2016-05-06T08:35:51Z</time>
      </trkpt>
      <trkpt lat="44.49369" lon="5.94333">
        <ele>1528.8000488281</ele>
        <time>2016-05-06T08:35:52Z</time>
      </trkpt>
      <trkpt lat="44.49369" lon="5.94329">
        <ele>1528.1999511719</ele>
        <time>2016-05-06T08:35:53Z</time>
      </trkpt>
      <trkpt lat="44.49371" lon="5.94325">
        <ele>1527.4000244141</ele>
        <time>2016-05-06T08:35:54Z</time>
      </trkpt>
      <trkpt lat="44.4937" lon="5.94317">
        <ele>1526</ele>
        <time>2016-05-06T08:35:56Z</time>
      </trkpt>
      <trkpt lat="44.49369" lon="5.94315">
        <ele>1525.4000244141</ele>
        <time>2016-05-06T08:35:57Z</time>
      </trkpt>
      <trkpt lat="44.49368" lon="5.94315">
        <ele>1524.8000488281</ele>
        <time>2016-05-06T08:35:58Z</time>
      </trkpt>
      <trkpt lat="44.49368" lon="5.94313">
        <ele>1524.1999511719</ele>
        <time>2016-05-06T08:35:59Z</time>
      </trkpt>
      <trkpt lat="44.49367" lon="5.94312">
        <ele>1524.1999511719</ele>
        <time>2016-05-06T08:36:00Z</time>
      </trkpt>
      <trkpt lat="44.49368" lon="5.9431">
        <ele>1523.1999511719</ele>
        <time>2016-05-06T08:36:01Z</time>
      </trkpt>
      <trkpt lat="44.49364" lon="5.94299">
        <ele>1523.1999511719</ele>
        <time>2016-05-06T08:36:05Z</time>
      </trkpt>
      <trkpt lat="44.49362" lon="5.94292">
        <ele>1523.1999511719</ele>
        <time>2016-05-06T08:36:11Z</time>
      </trkpt>
      <trkpt lat="44.4936" lon="5.94283">
        <ele>1523.1999511719</ele>
        <time>2016-05-06T08:36:14Z</time>
      </trkpt>
      <trkpt lat="44.4936" lon="5.94281">
        <ele>1522.8000488281</ele>
        <time>2016-05-06T08:36:15Z</time>
      </trkpt>
      <trkpt lat="44.49358" lon="5.94276">
        <ele>1522.4000244141</ele>
        <time>2016-05-06T08:36:16Z</time>
      </trkpt>
      <trkpt lat="44.49357" lon="5.94272">
        <ele>1521.8000488281</ele>
        <time>2016-05-06T08:36:17Z</time>
      </trkpt>
      <trkpt lat="44.49355" lon="5.94267">
        <ele>1521.4000244141</ele>
        <time>2016-05-06T08:36:18Z</time>
      </trkpt>
      <trkpt lat="44.49351" lon="5.94262">
        <ele>1521</ele>
        <time>2016-05-06T08:36:19Z</time>
      </trkpt>
      <trkpt lat="44.49348" lon="5.94254">
        <ele>1520.5999755859</ele>
        <time>2016-05-06T08:36:21Z</time>
      </trkpt>
      <trkpt lat="44.49345" lon="5.94249">
        <ele>1520</ele>
        <time>2016-05-06T08:36:22Z</time>
      </trkpt>
      <trkpt lat="44.49343" lon="5.94247">
        <ele>1519.4000244141</ele>
        <time>2016-05-06T08:36:23Z</time>
      </trkpt>
      <trkpt lat="44.49341" lon="5.94242">
        <ele>1519</ele>
        <time>2016-05-06T08:36:24Z</time>
      </trkpt>
      <trkpt lat="44.49339" lon="5.94239">
        <ele>1518.4000244141</ele>
        <time>2016-05-06T08:36:25Z</time>
      </trkpt>
      <trkpt lat="44.49337" lon="5.94236">
        <ele>1517.8000488281</ele>
        <time>2016-05-06T08:36:26Z</time>
      </trkpt>
      <trkpt lat="44.49336" lon="5.94234">
        <ele>1517.1999511719</ele>
        <time>2016-05-06T08:36:27Z</time>
      </trkpt>
      <trkpt lat="44.49334" lon="5.9423">
        <ele>1516.5999755859</ele>
        <time>2016-05-06T08:36:28Z</time>
      </trkpt>
      <trkpt lat="44.49332" lon="5.94225">
        <ele>1516</ele>
        <time>2016-05-06T08:36:29Z</time>
      </trkpt>
      <trkpt lat="44.49331" lon="5.94217">
        <ele>1514.8000488281</ele>
        <time>2016-05-06T08:36:31Z</time>
      </trkpt>
      <trkpt lat="44.49331" lon="5.94214">
        <ele>1514.1999511719</ele>
        <time>2016-05-06T08:36:32Z</time>
      </trkpt>
      <trkpt lat="44.49331" lon="5.9421">
        <ele>1513.8000488281</ele>
        <time>2016-05-06T08:36:33Z</time>
      </trkpt>
      <trkpt lat="44.4933" lon="5.94207">
        <ele>1513.4000244141</ele>
        <time>2016-05-06T08:36:34Z</time>
      </trkpt>
      <trkpt lat="44.49329" lon="5.94199">
        <ele>1512.4000244141</ele>
        <time>2016-05-06T08:36:36Z</time>
      </trkpt>
      <trkpt lat="44.49328" lon="5.94194">
        <ele>1512</ele>
        <time>2016-05-06T08:36:37Z</time>
      </trkpt>
      <trkpt lat="44.49327" lon="5.94191">
        <ele>1511.5999755859</ele>
        <time>2016-05-06T08:36:38Z</time>
      </trkpt>
      <trkpt lat="44.49326" lon="5.94186">
        <ele>1511.1999511719</ele>
        <time>2016-05-06T08:36:39Z</time>
      </trkpt>
      <trkpt lat="44.49324" lon="5.94177">
        <ele>1510.4000244141</ele>
        <time>2016-05-06T08:36:41Z</time>
      </trkpt>
      <trkpt lat="44.49323" lon="5.94172">
        <ele>1510</ele>
        <time>2016-05-06T08:36:42Z</time>
      </trkpt>
      <trkpt lat="44.49322" lon="5.94167">
        <ele>1509.5999755859</ele>
        <time>2016-05-06T08:36:43Z</time>
      </trkpt>
      <trkpt lat="44.49321" lon="5.94164">
        <ele>1509</ele>
        <time>2016-05-06T08:36:44Z</time>
      </trkpt>
      <trkpt lat="44.49321" lon="5.9416">
        <ele>1509</ele>
        <time>2016-05-06T08:36:45Z</time>
      </trkpt>
      <trkpt lat="44.49321" lon="5.94155">
        <ele>1508</ele>
        <time>2016-05-06T08:36:46Z</time>
      </trkpt>
      <trkpt lat="44.4932" lon="5.94152">
        <ele>1507.5999755859</ele>
        <time>2016-05-06T08:36:47Z</time>
      </trkpt>
      <trkpt lat="44.49318" lon="5.94148">
        <ele>1507.1999511719</ele>
        <time>2016-05-06T08:36:48Z</time>
      </trkpt>
      <trkpt lat="44.49316" lon="5.94139">
        <ele>1506.5999755859</ele>
        <time>2016-05-06T08:36:50Z</time>
      </trkpt>
      <trkpt lat="44.49314" lon="5.94133">
        <ele>1505.5999755859</ele>
        <time>2016-05-06T08:36:51Z</time>
      </trkpt>
      <trkpt lat="44.49314" lon="5.94127">
        <ele>1505</ele>
        <time>2016-05-06T08:36:52Z</time>
      </trkpt>
      <trkpt lat="44.49314" lon="5.9412">
        <ele>1504.4000244141</ele>
        <time>2016-05-06T08:36:53Z</time>
      </trkpt>
      <trkpt lat="44.49311" lon="5.9411">
        <ele>1503</ele>
        <time>2016-05-06T08:36:55Z</time>
      </trkpt>
      <trkpt lat="44.4931" lon="5.94106">
        <ele>1502.1999511719</ele>
        <time>2016-05-06T08:36:56Z</time>
      </trkpt>
      <trkpt lat="44.4931" lon="5.94103">
        <ele>1501.4000244141</ele>
        <time>2016-05-06T08:36:57Z</time>
      </trkpt>
      <trkpt lat="44.49308" lon="5.941">
        <ele>1501.4000244141</ele>
        <time>2016-05-06T08:36:58Z</time>
      </trkpt>
      <trkpt lat="44.49307" lon="5.94096">
        <ele>1500.5999755859</ele>
        <time>2016-05-06T08:36:59Z</time>
      </trkpt>
      <trkpt lat="44.49306" lon="5.94091">
        <ele>1499.4000244141</ele>
        <time>2016-05-06T08:37:00Z</time>
      </trkpt>
      <trkpt lat="44.49306" lon="5.94085">
        <ele>1498.8000488281</ele>
        <time>2016-05-06T08:37:01Z</time>
      </trkpt>
      <trkpt lat="44.49305" lon="5.94081">
        <ele>1498.1999511719</ele>
        <time>2016-05-06T08:37:02Z</time>
      </trkpt>
      <trkpt lat="44.49305" lon="5.94077">
        <ele>1498.1999511719</ele>
        <time>2016-05-06T08:37:03Z</time>
      </trkpt>
      <trkpt lat="44.49304" lon="5.94073">
        <ele>1497.1999511719</ele>
        <time>2016-05-06T08:37:04Z</time>
      </trkpt>
      <trkpt lat="44.49303" lon="5.94069">
        <ele>1496.5999755859</ele>
        <time>2016-05-06T08:37:05Z</time>
      </trkpt>
      <trkpt lat="44.49302" lon="5.94066">
        <ele>1496.1999511719</ele>
        <time>2016-05-06T08:37:06Z</time>
      </trkpt>
      <trkpt lat="44.49301" lon="5.94063">
        <ele>1495.8000488281</ele>
        <time>2016-05-06T08:37:07Z</time>
      </trkpt>
      <trkpt lat="44.493" lon="5.94059">
        <ele>1495.4000244141</ele>
        <time>2016-05-06T08:37:08Z</time>
      </trkpt>
      <trkpt lat="44.49299" lon="5.94054">
        <ele>1495.4000244141</ele>
        <time>2016-05-06T08:37:09Z</time>
      </trkpt>
      <trkpt lat="44.49298" lon="5.94046">
        <ele>1494.8000488281</ele>
        <time>2016-05-06T08:37:11Z</time>
      </trkpt>
      <trkpt lat="44.49297" lon="5.94041">
        <ele>1494.4000244141</ele>
        <time>2016-05-06T08:37:12Z</time>
      </trkpt>
      <trkpt lat="44.49297" lon="5.94039">
        <ele>1494</ele>
        <time>2016-05-06T08:37:13Z</time>
      </trkpt>
      <trkpt lat="44.49297" lon="5.94037">
        <ele>1493.1999511719</ele>
        <time>2016-05-06T08:37:14Z</time>
      </trkpt>
      <trkpt lat="44.49295" lon="5.94035">
        <ele>1492.5999755859</ele>
        <time>2016-05-06T08:37:15Z</time>
      </trkpt>
      <trkpt lat="44.49294" lon="5.94029">
        <ele>1492</ele>
        <time>2016-05-06T08:37:16Z</time>
      </trkpt>
      <trkpt lat="44.49292" lon="5.94022">
        <ele>1491.1999511719</ele>
        <time>2016-05-06T08:37:17Z</time>
      </trkpt>
      <trkpt lat="44.4929" lon="5.94013">
        <ele>1490.5999755859</ele>
        <time>2016-05-06T08:37:18Z</time>
      </trkpt>
      <trkpt lat="44.49289" lon="5.94006">
        <ele>1489.8000488281</ele>
        <time>2016-05-06T08:37:19Z</time>
      </trkpt>
      <trkpt lat="44.49288" lon="5.94002">
        <ele>1489</ele>
        <time>2016-05-06T08:37:20Z</time>
      </trkpt>
      <trkpt lat="44.49288" lon="5.93998">
        <ele>1488.4000244141</ele>
        <time>2016-05-06T08:37:21Z</time>
      </trkpt>
      <trkpt lat="44.49287" lon="5.93996">
        <ele>1488.4000244141</ele>
        <time>2016-05-06T08:37:22Z</time>
      </trkpt>
      <trkpt lat="44.49282" lon="5.93992">
        <ele>1488</ele>
        <time>2016-05-06T08:37:27Z</time>
      </trkpt>
      <trkpt lat="44.49282" lon="5.93991">
        <ele>1487</ele>
        <time>2016-05-06T08:37:29Z</time>
      </trkpt>
      <trkpt lat="44.49282" lon="5.93991">
        <ele>1486.5999755859</ele>
        <time>2016-05-06T08:37:30Z</time>
      </trkpt>
      <trkpt lat="44.49282" lon="5.9399">
        <ele>1486.1999511719</ele>
        <time>2016-05-06T08:37:31Z</time>
      </trkpt>
      <trkpt lat="44.49281" lon="5.9399">
        <ele>1486.1999511719</ele>
        <time>2016-05-06T08:37:34Z</time>
      </trkpt>
      <trkpt lat="44.49281" lon="5.93989">
        <ele>1485.8000488281</ele>
        <time>2016-05-06T08:37:38Z</time>
      </trkpt>
      <trkpt lat="44.4928" lon="5.93989">
        <ele>1485.4000244141</ele>
        <time>2016-05-06T08:37:39Z</time>
      </trkpt>
      <trkpt lat="44.4928" lon="5.93989">
        <ele>1485</ele>
        <time>2016-05-06T08:37:40Z</time>
      </trkpt>
      <trkpt lat="44.4928" lon="5.93989">
        <ele>1484.4000244141</ele>
        <time>2016-05-06T08:37:41Z</time>
      </trkpt>
      <trkpt lat="44.49279" lon="5.93987">
        <ele>1484</ele>
        <time>2016-05-06T08:37:42Z</time>
      </trkpt>
      <trkpt lat="44.49276" lon="5.93978">
        <ele>1484</ele>
        <time>2016-05-06T08:37:45Z</time>
      </trkpt>
      <trkpt lat="44.49275" lon="5.93976">
        <ele>1483.5999755859</ele>
        <time>2016-05-06T08:37:46Z</time>
      </trkpt>
      <trkpt lat="44.49272" lon="5.93974">
        <ele>1482.8000488281</ele>
        <time>2016-05-06T08:37:48Z</time>
      </trkpt>
      <trkpt lat="44.49271" lon="5.93973">
        <ele>1482.1999511719</ele>
        <time>2016-05-06T08:37:49Z</time>
      </trkpt>
      <trkpt lat="44.49271" lon="5.93972">
        <ele>1481.8000488281</ele>
        <time>2016-05-06T08:37:50Z</time>
      </trkpt>
      <trkpt lat="44.49269" lon="5.93969">
        <ele>1481.8000488281</ele>
        <time>2016-05-06T08:37:55Z</time>
      </trkpt>
      <trkpt lat="44.49265" lon="5.93966">
        <ele>1481.8000488281</ele>
        <time>2016-05-06T08:38:02Z</time>
      </trkpt>
      <trkpt lat="44.49261" lon="5.93957">
        <ele>1481.4000244141</ele>
        <time>2016-05-06T08:38:09Z</time>
      </trkpt>
      <trkpt lat="44.4926" lon="5.93959">
        <ele>1480.8000488281</ele>
        <time>2016-05-06T08:38:10Z</time>
      </trkpt>
      <trkpt lat="44.4926" lon="5.93961">
        <ele>1480.8000488281</ele>
        <time>2016-05-06T08:38:11Z</time>
      </trkpt>
      <trkpt lat="44.4926" lon="5.93963">
        <ele>1479.8000488281</ele>
        <time>2016-05-06T08:38:12Z</time>
      </trkpt>
      <trkpt lat="44.4926" lon="5.9398">
        <ele>1479.8000488281</ele>
        <time>2016-05-06T08:38:19Z</time>
      </trkpt>
      <trkpt lat="44.49261" lon="5.93995">
        <ele>1479.8000488281</ele>
        <time>2016-05-06T08:38:25Z</time>
      </trkpt>
      <trkpt lat="44.49259" lon="5.93998">
        <ele>1479.8000488281</ele>
        <time>2016-05-06T08:38:27Z</time>
      </trkpt>
      <trkpt lat="44.49259" lon="5.93998">
        <ele>1479.1999511719</ele>
        <time>2016-05-06T08:38:28Z</time>
      </trkpt>
      <trkpt lat="44.49259" lon="5.93998">
        <ele>1478.4000244141</ele>
        <time>2016-05-06T08:38:29Z</time>
      </trkpt>
      <trkpt lat="44.4926" lon="5.93998">
        <ele>1477.1999511719</ele>
        <time>2016-05-06T08:38:30Z</time>
      </trkpt>
      <trkpt lat="44.4926" lon="5.93998">
        <ele>1476</ele>
        <time>2016-05-06T08:38:31Z</time>
      </trkpt>
      <trkpt lat="44.4926" lon="5.93998">
        <ele>1474.8000488281</ele>
        <time>2016-05-06T08:38:32Z</time>
      </trkpt>
      <trkpt lat="44.4926" lon="5.93997">
        <ele>1473.5999755859</ele>
        <time>2016-05-06T08:38:33Z</time>
      </trkpt>
      <trkpt lat="44.4926" lon="5.93997">
        <ele>1472.4000244141</ele>
        <time>2016-05-06T08:38:34Z</time>
      </trkpt>
      <trkpt lat="44.49259" lon="5.94002">
        <ele>1472</ele>
        <time>2016-05-06T08:38:42Z</time>
      </trkpt>
      <trkpt lat="44.49259" lon="5.94003">
        <ele>1471.5999755859</ele>
        <time>2016-05-06T08:38:43Z</time>
      </trkpt>
      <trkpt lat="44.4926" lon="5.94005">
        <ele>1470.8000488281</ele>
        <time>2016-05-06T08:38:45Z</time>
      </trkpt>
      <trkpt lat="44.49259" lon="5.94007">
        <ele>1470.4000244141</ele>
        <time>2016-05-06T08:38:46Z</time>
      </trkpt>
      <trkpt lat="44.49259" lon="5.9401">
        <ele>1470.4000244141</ele>
        <time>2016-05-06T08:38:48Z</time>
      </trkpt>
      <trkpt lat="44.49255" lon="5.94018">
        <ele>1470.4000244141</ele>
        <time>2016-05-06T08:38:57Z</time>
      </trkpt>
      <trkpt lat="44.49253" lon="5.94031">
        <ele>1469.5999755859</ele>
        <time>2016-05-06T08:39:04Z</time>
      </trkpt>
      <trkpt lat="44.49251" lon="5.94036">
        <ele>1469.1999511719</ele>
        <time>2016-05-06T08:39:05Z</time>
      </trkpt>
      <trkpt lat="44.49248" lon="5.9404">
        <ele>1468.8000488281</ele>
        <time>2016-05-06T08:39:06Z</time>
      </trkpt>
      <trkpt lat="44.49247" lon="5.94043">
        <ele>1468.1999511719</ele>
        <time>2016-05-06T08:39:07Z</time>
      </trkpt>
      <trkpt lat="44.49245" lon="5.94047">
        <ele>1468.1999511719</ele>
        <time>2016-05-06T08:39:08Z</time>
      </trkpt>
      <trkpt lat="44.49245" lon="5.94052">
        <ele>1467.1999511719</ele>
        <time>2016-05-06T08:39:09Z</time>
      </trkpt>
      <trkpt lat="44.49245" lon="5.9406">
        <ele>1466.5999755859</ele>
        <time>2016-05-06T08:39:11Z</time>
      </trkpt>
      <trkpt lat="44.49246" lon="5.94064">
        <ele>1466</ele>
        <time>2016-05-06T08:39:12Z</time>
      </trkpt>
      <trkpt lat="44.49246" lon="5.94068">
        <ele>1465.4000244141</ele>
        <time>2016-05-06T08:39:13Z</time>
      </trkpt>
      <trkpt lat="44.49247" lon="5.94076">
        <ele>1464.8000488281</ele>
        <time>2016-05-06T08:39:15Z</time>
      </trkpt>
      <trkpt lat="44.49247" lon="5.9408">
        <ele>1464.1999511719</ele>
        <time>2016-05-06T08:39:16Z</time>
      </trkpt>
      <trkpt lat="44.49246" lon="5.94084">
        <ele>1463.5999755859</ele>
        <time>2016-05-06T08:39:17Z</time>
      </trkpt>
      <trkpt lat="44.49245" lon="5.9409">
        <ele>1463</ele>
        <time>2016-05-06T08:39:19Z</time>
      </trkpt>
      <trkpt lat="44.49244" lon="5.94094">
        <ele>1462.4000244141</ele>
        <time>2016-05-06T08:39:20Z</time>
      </trkpt>
      <trkpt lat="44.49242" lon="5.94098">
        <ele>1461.8000488281</ele>
        <time>2016-05-06T08:39:21Z</time>
      </trkpt>
      <trkpt lat="44.49241" lon="5.94103">
        <ele>1461.8000488281</ele>
        <time>2016-05-06T08:39:22Z</time>
      </trkpt>
      <trkpt lat="44.49238" lon="5.94113">
        <ele>1461.1999511719</ele>
        <time>2016-05-06T08:39:24Z</time>
      </trkpt>
      <trkpt lat="44.49236" lon="5.94116">
        <ele>1460.8000488281</ele>
        <time>2016-05-06T08:39:25Z</time>
      </trkpt>
      <trkpt lat="44.49235" lon="5.94119">
        <ele>1460.1999511719</ele>
        <time>2016-05-06T08:39:26Z</time>
      </trkpt>
      <trkpt lat="44.49234" lon="5.94122">
        <ele>1459.8000488281</ele>
        <time>2016-05-06T08:39:27Z</time>
      </trkpt>
      <trkpt lat="44.49234" lon="5.94124">
        <ele>1459.4000244141</ele>
        <time>2016-05-06T08:39:28Z</time>
      </trkpt>
      <trkpt lat="44.49234" lon="5.94127">
        <ele>1458.8000488281</ele>
        <time>2016-05-06T08:39:29Z</time>
      </trkpt>
      <trkpt lat="44.49235" lon="5.94129">
        <ele>1458.4000244141</ele>
        <time>2016-05-06T08:39:30Z</time>
      </trkpt>
      <trkpt lat="44.49235" lon="5.94134">
        <ele>1457.8000488281</ele>
        <time>2016-05-06T08:39:31Z</time>
      </trkpt>
      <trkpt lat="44.49234" lon="5.94141">
        <ele>1457</ele>
        <time>2016-05-06T08:39:33Z</time>
      </trkpt>
      <trkpt lat="44.49233" lon="5.94144">
        <ele>1457</ele>
        <time>2016-05-06T08:39:34Z</time>
      </trkpt>
      <trkpt lat="44.49232" lon="5.94146">
        <ele>1456.4000244141</ele>
        <time>2016-05-06T08:39:35Z</time>
      </trkpt>
      <trkpt lat="44.49232" lon="5.9415">
        <ele>1456</ele>
        <time>2016-05-06T08:39:36Z</time>
      </trkpt>
      <trkpt lat="44.49232" lon="5.94157">
        <ele>1455.1999511719</ele>
        <time>2016-05-06T08:39:38Z</time>
      </trkpt>
      <trkpt lat="44.49231" lon="5.9416">
        <ele>1454.5999755859</ele>
        <time>2016-05-06T08:39:39Z</time>
      </trkpt>
      <trkpt lat="44.4923" lon="5.94163">
        <ele>1454.1999511719</ele>
        <time>2016-05-06T08:39:40Z</time>
      </trkpt>
      <trkpt lat="44.49228" lon="5.94165">
        <ele>1453.5999755859</ele>
        <time>2016-05-06T08:39:41Z</time>
      </trkpt>
      <trkpt lat="44.49226" lon="5.94168">
        <ele>1453.1999511719</ele>
        <time>2016-05-06T08:39:42Z</time>
      </trkpt>
      <trkpt lat="44.49226" lon="5.94172">
        <ele>1452.5999755859</ele>
        <time>2016-05-06T08:39:43Z</time>
      </trkpt>
      <trkpt lat="44.49226" lon="5.94176">
        <ele>1452</ele>
        <time>2016-05-06T08:39:44Z</time>
      </trkpt>
      <trkpt lat="44.49227" lon="5.94179">
        <ele>1451.4000244141</ele>
        <time>2016-05-06T08:39:45Z</time>
      </trkpt>
      <trkpt lat="44.49227" lon="5.94181">
        <ele>1450.8000488281</ele>
        <time>2016-05-06T08:39:46Z</time>
      </trkpt>
      <trkpt lat="44.49226" lon="5.94185">
        <ele>1450.1999511719</ele>
        <time>2016-05-06T08:39:48Z</time>
      </trkpt>
      <trkpt lat="44.49224" lon="5.94188">
        <ele>1449.8000488281</ele>
        <time>2016-05-06T08:39:50Z</time>
      </trkpt>
      <trkpt lat="44.49223" lon="5.94191">
        <ele>1449.4000244141</ele>
        <time>2016-05-06T08:39:51Z</time>
      </trkpt>
      <trkpt lat="44.49223" lon="5.94198">
        <ele>1448.5999755859</ele>
        <time>2016-05-06T08:39:53Z</time>
      </trkpt>
      <trkpt lat="44.49223" lon="5.94201">
        <ele>1448.1999511719</ele>
        <time>2016-05-06T08:39:54Z</time>
      </trkpt>
      <trkpt lat="44.49224" lon="5.94203">
        <ele>1447.5999755859</ele>
        <time>2016-05-06T08:39:55Z</time>
      </trkpt>
      <trkpt lat="44.49224" lon="5.94206">
        <ele>1447.1999511719</ele>
        <time>2016-05-06T08:39:56Z</time>
      </trkpt>
      <trkpt lat="44.49224" lon="5.94208">
        <ele>1447.1999511719</ele>
        <time>2016-05-06T08:39:57Z</time>
      </trkpt>
      <trkpt lat="44.49223" lon="5.94211">
        <ele>1446.4000244141</ele>
        <time>2016-05-06T08:39:58Z</time>
      </trkpt>
      <trkpt lat="44.4922" lon="5.94214">
        <ele>1445.8000488281</ele>
        <time>2016-05-06T08:39:59Z</time>
      </trkpt>
      <trkpt lat="44.49218" lon="5.94218">
        <ele>1445.4000244141</ele>
        <time>2016-05-06T08:40:00Z</time>
      </trkpt>
      <trkpt lat="44.49216" lon="5.94221">
        <ele>1445</ele>
        <time>2016-05-06T08:40:01Z</time>
      </trkpt>
      <trkpt lat="44.49216" lon="5.94226">
        <ele>1444.5999755859</ele>
        <time>2016-05-06T08:40:02Z</time>
      </trkpt>
      <trkpt lat="44.49218" lon="5.94229">
        <ele>1444.1999511719</ele>
        <time>2016-05-06T08:40:03Z</time>
      </trkpt>
      <trkpt lat="44.49219" lon="5.94233">
        <ele>1443.5999755859</ele>
        <time>2016-05-06T08:40:04Z</time>
      </trkpt>
      <trkpt lat="44.49219" lon="5.94236">
        <ele>1443.1999511719</ele>
        <time>2016-05-06T08:40:05Z</time>
      </trkpt>
      <trkpt lat="44.49219" lon="5.94239">
        <ele>1442.8000488281</ele>
        <time>2016-05-06T08:40:06Z</time>
      </trkpt>
      <trkpt lat="44.49219" lon="5.94241">
        <ele>1442.4000244141</ele>
        <time>2016-05-06T08:40:07Z</time>
      </trkpt>
      <trkpt lat="44.49218" lon="5.94243">
        <ele>1442</ele>
        <time>2016-05-06T08:40:08Z</time>
      </trkpt>
      <trkpt lat="44.49217" lon="5.94245">
        <ele>1441.4000244141</ele>
        <time>2016-05-06T08:40:09Z</time>
      </trkpt>
      <trkpt lat="44.49214" lon="5.9425">
        <ele>1441.4000244141</ele>
        <time>2016-05-06T08:40:11Z</time>
      </trkpt>
      <trkpt lat="44.49213" lon="5.94251">
        <ele>1440.5999755859</ele>
        <time>2016-05-06T08:40:12Z</time>
      </trkpt>
      <trkpt lat="44.49213" lon="5.94251">
        <ele>1440.1999511719</ele>
        <time>2016-05-06T08:40:13Z</time>
      </trkpt>
      <trkpt lat="44.49213" lon="5.94252">
        <ele>1439.8000488281</ele>
        <time>2016-05-06T08:40:14Z</time>
      </trkpt>
      <trkpt lat="44.49213" lon="5.94252">
        <ele>1439.4000244141</ele>
        <time>2016-05-06T08:40:15Z</time>
      </trkpt>
      <trkpt lat="44.49213" lon="5.94255">
        <ele>1439.4000244141</ele>
        <time>2016-05-06T08:40:41Z</time>
      </trkpt>
      <trkpt lat="44.4921" lon="5.94263">
        <ele>1439.4000244141</ele>
        <time>2016-05-06T08:40:43Z</time>
      </trkpt>
      <trkpt lat="44.49208" lon="5.94267">
        <ele>1439</ele>
        <time>2016-05-06T08:40:45Z</time>
      </trkpt>
      <trkpt lat="44.49208" lon="5.94276">
        <ele>1438</ele>
        <time>2016-05-06T08:40:47Z</time>
      </trkpt>
      <trkpt lat="44.49209" lon="5.9428">
        <ele>1437.5999755859</ele>
        <time>2016-05-06T08:40:48Z</time>
      </trkpt>
      <trkpt lat="44.49209" lon="5.94282">
        <ele>1437</ele>
        <time>2016-05-06T08:40:49Z</time>
      </trkpt>
      <trkpt lat="44.49208" lon="5.94289">
        <ele>1436.1999511719</ele>
        <time>2016-05-06T08:40:52Z</time>
      </trkpt>
      <trkpt lat="44.49206" lon="5.94291">
        <ele>1435.8000488281</ele>
        <time>2016-05-06T08:40:53Z</time>
      </trkpt>
      <trkpt lat="44.49203" lon="5.94292">
        <ele>1435.4000244141</ele>
        <time>2016-05-06T08:40:54Z</time>
      </trkpt>
      <trkpt lat="44.492" lon="5.94293">
        <ele>1435</ele>
        <time>2016-05-06T08:40:56Z</time>
      </trkpt>
      <trkpt lat="44.49199" lon="5.94295">
        <ele>1435</ele>
        <time>2016-05-06T08:40:57Z</time>
      </trkpt>
      <trkpt lat="44.49197" lon="5.94299">
        <ele>1434.4000244141</ele>
        <time>2016-05-06T08:40:59Z</time>
      </trkpt>
      <trkpt lat="44.49193" lon="5.94305">
        <ele>1433.5999755859</ele>
        <time>2016-05-06T08:41:01Z</time>
      </trkpt>
      <trkpt lat="44.49191" lon="5.94307">
        <ele>1433</ele>
        <time>2016-05-06T08:41:02Z</time>
      </trkpt>
      <trkpt lat="44.4919" lon="5.9431">
        <ele>1432.5999755859</ele>
        <time>2016-05-06T08:41:03Z</time>
      </trkpt>
      <trkpt lat="44.49188" lon="5.94313">
        <ele>1432.1999511719</ele>
        <time>2016-05-06T08:41:06Z</time>
      </trkpt>
      <trkpt lat="44.49187" lon="5.94315">
        <ele>1431.8000488281</ele>
        <time>2016-05-06T08:41:07Z</time>
      </trkpt>
      <trkpt lat="44.49186" lon="5.94316">
        <ele>1431.1999511719</ele>
        <time>2016-05-06T08:41:08Z</time>
      </trkpt>
      <trkpt lat="44.49183" lon="5.94318">
        <ele>1430.8000488281</ele>
        <time>2016-05-06T08:41:10Z</time>
      </trkpt>
      <trkpt lat="44.4918" lon="5.94321">
        <ele>1430</ele>
        <time>2016-05-06T08:41:11Z</time>
      </trkpt>
      <trkpt lat="44.49179" lon="5.94324">
        <ele>1429.4000244141</ele>
        <time>2016-05-06T08:41:12Z</time>
      </trkpt>
      <trkpt lat="44.49177" lon="5.94326">
        <ele>1429</ele>
        <time>2016-05-06T08:41:13Z</time>
      </trkpt>
      <trkpt lat="44.49171" lon="5.94331">
        <ele>1428</ele>
        <time>2016-05-06T08:41:15Z</time>
      </trkpt>
      <trkpt lat="44.49168" lon="5.94339">
        <ele>1428</ele>
        <time>2016-05-06T08:41:18Z</time>
      </trkpt>
      <trkpt lat="44.49167" lon="5.94342">
        <ele>1427.5999755859</ele>
        <time>2016-05-06T08:41:20Z</time>
      </trkpt>
      <trkpt lat="44.49166" lon="5.94343">
        <ele>1427</ele>
        <time>2016-05-06T08:41:21Z</time>
      </trkpt>
      <trkpt lat="44.49165" lon="5.94343">
        <ele>1426.5999755859</ele>
        <time>2016-05-06T08:41:22Z</time>
      </trkpt>
      <trkpt lat="44.49163" lon="5.94342">
        <ele>1426.1999511719</ele>
        <time>2016-05-06T08:41:24Z</time>
      </trkpt>
      <trkpt lat="44.49162" lon="5.94342">
        <ele>1425.1999511719</ele>
        <time>2016-05-06T08:41:25Z</time>
      </trkpt>
      <trkpt lat="44.49161" lon="5.94344">
        <ele>1424.8000488281</ele>
        <time>2016-05-06T08:41:26Z</time>
      </trkpt>
      <trkpt lat="44.4916" lon="5.94351">
        <ele>1424</ele>
        <time>2016-05-06T08:41:29Z</time>
      </trkpt>
      <trkpt lat="44.4916" lon="5.94351">
        <ele>1423.4000244141</ele>
        <time>2016-05-06T08:41:30Z</time>
      </trkpt>
      <trkpt lat="44.4916" lon="5.94353">
        <ele>1422.5999755859</ele>
        <time>2016-05-06T08:41:33Z</time>
      </trkpt>
      <trkpt lat="44.4916" lon="5.94354">
        <ele>1422.1999511719</ele>
        <time>2016-05-06T08:41:34Z</time>
      </trkpt>
      <trkpt lat="44.4916" lon="5.94355">
        <ele>1421.8000488281</ele>
        <time>2016-05-06T08:41:35Z</time>
      </trkpt>
      <trkpt lat="44.4916" lon="5.94355">
        <ele>1421.4000244141</ele>
        <time>2016-05-06T08:41:37Z</time>
      </trkpt>
      <trkpt lat="44.4916" lon="5.94357">
        <ele>1421.4000244141</ele>
        <time>2016-05-06T08:41:39Z</time>
      </trkpt>
      <trkpt lat="44.4916" lon="5.94361">
        <ele>1421.4000244141</ele>
        <time>2016-05-06T08:41:49Z</time>
      </trkpt>
      <trkpt lat="44.49158" lon="5.94365">
        <ele>1421</ele>
        <time>2016-05-06T08:41:54Z</time>
      </trkpt>
      <trkpt lat="44.49158" lon="5.94368">
        <ele>1420.4000244141</ele>
        <time>2016-05-06T08:41:56Z</time>
      </trkpt>
      <trkpt lat="44.49157" lon="5.9437">
        <ele>1419.5999755859</ele>
        <time>2016-05-06T08:41:57Z</time>
      </trkpt>
      <trkpt lat="44.49156" lon="5.94371">
        <ele>1419.1999511719</ele>
        <time>2016-05-06T08:41:58Z</time>
      </trkpt>
      <trkpt lat="44.49155" lon="5.94372">
        <ele>1419.1999511719</ele>
        <time>2016-05-06T08:41:59Z</time>
      </trkpt>
      <trkpt lat="44.49151" lon="5.94373">
        <ele>1419.1999511719</ele>
        <time>2016-05-06T08:42:05Z</time>
      </trkpt>
      <trkpt lat="44.49147" lon="5.94371">
        <ele>1419.1999511719</ele>
        <time>2016-05-06T08:42:13Z</time>
      </trkpt>
      <trkpt lat="44.49136" lon="5.94366">
        <ele>1419.1999511719</ele>
        <time>2016-05-06T08:42:19Z</time>
      </trkpt>
      <trkpt lat="44.49132" lon="5.94369">
        <ele>1419.1999511719</ele>
        <time>2016-05-06T08:42:25Z</time>
      </trkpt>
      <trkpt lat="44.49136" lon="5.94373">
        <ele>1419.1999511719</ele>
        <time>2016-05-06T08:42:34Z</time>
      </trkpt>
      <trkpt lat="44.49126" lon="5.94373">
        <ele>1419.1999511719</ele>
        <time>2016-05-06T08:42:43Z</time>
      </trkpt>
      <trkpt lat="44.49124" lon="5.94373">
        <ele>1419.1999511719</ele>
        <time>2016-05-06T08:42:44Z</time>
      </trkpt>
      <trkpt lat="44.49119" lon="5.94373">
        <ele>1418.5999755859</ele>
        <time>2016-05-06T08:42:46Z</time>
      </trkpt>
      <trkpt lat="44.49117" lon="5.94374">
        <ele>1418</ele>
        <time>2016-05-06T08:42:47Z</time>
      </trkpt>
      <trkpt lat="44.49114" lon="5.94376">
        <ele>1417.4000244141</ele>
        <time>2016-05-06T08:42:48Z</time>
      </trkpt>
      <trkpt lat="44.49109" lon="5.94382">
        <ele>1416.8000488281</ele>
        <time>2016-05-06T08:42:50Z</time>
      </trkpt>
      <trkpt lat="44.49108" lon="5.94385">
        <ele>1416.1999511719</ele>
        <time>2016-05-06T08:42:51Z</time>
      </trkpt>
      <trkpt lat="44.49105" lon="5.94386">
        <ele>1415.8000488281</ele>
        <time>2016-05-06T08:42:52Z</time>
      </trkpt>
      <trkpt lat="44.49103" lon="5.94386">
        <ele>1415.4000244141</ele>
        <time>2016-05-06T08:42:53Z</time>
      </trkpt>
      <trkpt lat="44.491" lon="5.94388">
        <ele>1415</ele>
        <time>2016-05-06T08:42:55Z</time>
      </trkpt>
      <trkpt lat="44.49096" lon="5.9439">
        <ele>1414</ele>
        <time>2016-05-06T08:42:56Z</time>
      </trkpt>
      <trkpt lat="44.49093" lon="5.94389">
        <ele>1413.5999755859</ele>
        <time>2016-05-06T08:42:57Z</time>
      </trkpt>
      <trkpt lat="44.49091" lon="5.94388">
        <ele>1413</ele>
        <time>2016-05-06T08:42:58Z</time>
      </trkpt>
      <trkpt lat="44.49088" lon="5.94384">
        <ele>1412</ele>
        <time>2016-05-06T08:43:00Z</time>
      </trkpt>
      <trkpt lat="44.49088" lon="5.94382">
        <ele>1412</ele>
        <time>2016-05-06T08:43:02Z</time>
      </trkpt>
      <trkpt lat="44.49086" lon="5.9438">
        <ele>1411.5999755859</ele>
        <time>2016-05-06T08:43:27Z</time>
      </trkpt>
      <trkpt lat="44.49083" lon="5.9438">
        <ele>1410.8000488281</ele>
        <time>2016-05-06T08:43:29Z</time>
      </trkpt>
      <trkpt lat="44.4908" lon="5.94381">
        <ele>1410.4000244141</ele>
        <time>2016-05-06T08:43:30Z</time>
      </trkpt>
      <trkpt lat="44.49078" lon="5.94382">
        <ele>1410</ele>
        <time>2016-05-06T08:43:31Z</time>
      </trkpt>
      <trkpt lat="44.49068" lon="5.94382">
        <ele>1409.5999755859</ele>
        <time>2016-05-06T08:43:35Z</time>
      </trkpt>
      <trkpt lat="44.49066" lon="5.94382">
        <ele>1409</ele>
        <time>2016-05-06T08:43:36Z</time>
      </trkpt>
      <trkpt lat="44.49063" lon="5.94382">
        <ele>1409</ele>
        <time>2016-05-06T08:43:37Z</time>
      </trkpt>
      <trkpt lat="44.4906" lon="5.94382">
        <ele>1408.5999755859</ele>
        <time>2016-05-06T08:43:38Z</time>
      </trkpt>
      <trkpt lat="44.49058" lon="5.94384">
        <ele>1407.5999755859</ele>
        <time>2016-05-06T08:43:39Z</time>
      </trkpt>
      <trkpt lat="44.49057" lon="5.94386">
        <ele>1407.1999511719</ele>
        <time>2016-05-06T08:43:40Z</time>
      </trkpt>
      <trkpt lat="44.49054" lon="5.94388">
        <ele>1406.5999755859</ele>
        <time>2016-05-06T08:43:41Z</time>
      </trkpt>
      <trkpt lat="44.49049" lon="5.94388">
        <ele>1406.1999511719</ele>
        <time>2016-05-06T08:43:43Z</time>
      </trkpt>
      <trkpt lat="44.49049" lon="5.94385">
        <ele>1405.5999755859</ele>
        <time>2016-05-06T08:43:45Z</time>
      </trkpt>
      <trkpt lat="44.49047" lon="5.94385">
        <ele>1405.5999755859</ele>
        <time>2016-05-06T08:43:47Z</time>
      </trkpt>
      <trkpt lat="44.49046" lon="5.94384">
        <ele>1405.1999511719</ele>
        <time>2016-05-06T08:43:48Z</time>
      </trkpt>
      <trkpt lat="44.49043" lon="5.94384">
        <ele>1404.8000488281</ele>
        <time>2016-05-06T08:43:49Z</time>
      </trkpt>
      <trkpt lat="44.49039" lon="5.94382">
        <ele>1404.4000244141</ele>
        <time>2016-05-06T08:43:50Z</time>
      </trkpt>
      <trkpt lat="44.49036" lon="5.94381">
        <ele>1403.8000488281</ele>
        <time>2016-05-06T08:43:51Z</time>
      </trkpt>
      <trkpt lat="44.4903" lon="5.94383">
        <ele>1403</ele>
        <time>2016-05-06T08:43:53Z</time>
      </trkpt>
      <trkpt lat="44.49026" lon="5.94385">
        <ele>1402.4000244141</ele>
        <time>2016-05-06T08:43:54Z</time>
      </trkpt>
      <trkpt lat="44.4902" lon="5.94387">
        <ele>1402</ele>
        <time>2016-05-06T08:43:56Z</time>
      </trkpt>
      <trkpt lat="44.49016" lon="5.94387">
        <ele>1401.1999511719</ele>
        <time>2016-05-06T08:43:57Z</time>
      </trkpt>
      <trkpt lat="44.49013" lon="5.94387">
        <ele>1400.5999755859</ele>
        <time>2016-05-06T08:43:58Z</time>
      </trkpt>
      <trkpt lat="44.4901" lon="5.94387">
        <ele>1400.1999511719</ele>
        <time>2016-05-06T08:43:59Z</time>
      </trkpt>
      <trkpt lat="44.49006" lon="5.94389">
        <ele>1399.8000488281</ele>
        <time>2016-05-06T08:44:01Z</time>
      </trkpt>
      <trkpt lat="44.49003" lon="5.9439">
        <ele>1398.8000488281</ele>
        <time>2016-05-06T08:44:02Z</time>
      </trkpt>
      <trkpt lat="44.49003" lon="5.9439">
        <ele>1398.1999511719</ele>
        <time>2016-05-06T08:44:03Z</time>
      </trkpt>
      <trkpt lat="44.49003" lon="5.94391">
        <ele>1397.8000488281</ele>
        <time>2016-05-06T08:44:04Z</time>
      </trkpt>
      <trkpt lat="44.49004" lon="5.94391">
        <ele>1397.8000488281</ele>
        <time>2016-05-06T08:44:05Z</time>
      </trkpt>
      <trkpt lat="44.49003" lon="5.94391">
        <ele>1396.8000488281</ele>
        <time>2016-05-06T08:44:06Z</time>
      </trkpt>
      <trkpt lat="44.48999" lon="5.94391">
        <ele>1396.4000244141</ele>
        <time>2016-05-06T08:44:33Z</time>
      </trkpt>
      <trkpt lat="44.48996" lon="5.94391">
        <ele>1396</ele>
        <time>2016-05-06T08:44:34Z</time>
      </trkpt>
      <trkpt lat="44.48993" lon="5.94392">
        <ele>1396</ele>
        <time>2016-05-06T08:44:35Z</time>
      </trkpt>
      <trkpt lat="44.48991" lon="5.94391">
        <ele>1395</ele>
        <time>2016-05-06T08:44:36Z</time>
      </trkpt>
      <trkpt lat="44.4899" lon="5.94392">
        <ele>1394.5999755859</ele>
        <time>2016-05-06T08:44:37Z</time>
      </trkpt>
      <trkpt lat="44.4899" lon="5.94392">
        <ele>1394.1999511719</ele>
        <time>2016-05-06T08:44:38Z</time>
      </trkpt>
      <trkpt lat="44.48989" lon="5.94391">
        <ele>1393.8000488281</ele>
        <time>2016-05-06T08:44:40Z</time>
      </trkpt>
      <trkpt lat="44.48988" lon="5.9439">
        <ele>1392.8000488281</ele>
        <time>2016-05-06T08:44:41Z</time>
      </trkpt>
      <trkpt lat="44.48988" lon="5.9439">
        <ele>1392.4000244141</ele>
        <time>2016-05-06T08:44:42Z</time>
      </trkpt>
      <trkpt lat="44.48985" lon="5.94385">
        <ele>1392.4000244141</ele>
        <time>2016-05-06T08:44:50Z</time>
      </trkpt>
      <trkpt lat="44.48985" lon="5.94385">
        <ele>1392</ele>
        <time>2016-05-06T08:44:51Z</time>
      </trkpt>
      <trkpt lat="44.48983" lon="5.94387">
        <ele>1391.5999755859</ele>
        <time>2016-05-06T08:44:52Z</time>
      </trkpt>
      <trkpt lat="44.48983" lon="5.94386">
        <ele>1391.1999511719</ele>
        <time>2016-05-06T08:44:54Z</time>
      </trkpt>
      <trkpt lat="44.48983" lon="5.94385">
        <ele>1390.4000244141</ele>
        <time>2016-05-06T08:44:55Z</time>
      </trkpt>
      <trkpt lat="44.48983" lon="5.94384">
        <ele>1390.4000244141</ele>
        <time>2016-05-06T08:44:57Z</time>
      </trkpt>
      <trkpt lat="44.4898" lon="5.94382">
        <ele>1390</ele>
        <time>2016-05-06T08:45:02Z</time>
      </trkpt>
      <trkpt lat="44.48979" lon="5.94379">
        <ele>1389.5999755859</ele>
        <time>2016-05-06T08:45:04Z</time>
      </trkpt>
      <trkpt lat="44.48978" lon="5.94377">
        <ele>1388.8000488281</ele>
        <time>2016-05-06T08:45:05Z</time>
      </trkpt>
      <trkpt lat="44.48977" lon="5.94375">
        <ele>1388.4000244141</ele>
        <time>2016-05-06T08:45:06Z</time>
      </trkpt>
      <trkpt lat="44.48976" lon="5.94373">
        <ele>1388</ele>
        <time>2016-05-06T08:45:11Z</time>
      </trkpt>
      <trkpt lat="44.48975" lon="5.94373">
        <ele>1387.5999755859</ele>
        <time>2016-05-06T08:45:12Z</time>
      </trkpt>
      <trkpt lat="44.48975" lon="5.94372">
        <ele>1387.5999755859</ele>
        <time>2016-05-06T08:45:13Z</time>
      </trkpt>
      <trkpt lat="44.48975" lon="5.94372">
        <ele>1386.5999755859</ele>
        <time>2016-05-06T08:45:14Z</time>
      </trkpt>
      <trkpt lat="44.48975" lon="5.94371">
        <ele>1386.1999511719</ele>
        <time>2016-05-06T08:45:15Z</time>
      </trkpt>
      <trkpt lat="44.48971" lon="5.94366">
        <ele>1386.1999511719</ele>
        <time>2016-05-06T08:45:30Z</time>
      </trkpt>
      <trkpt lat="44.48967" lon="5.94364">
        <ele>1385.8000488281</ele>
        <time>2016-05-06T08:45:33Z</time>
      </trkpt>
      <trkpt lat="44.48965" lon="5.94363">
        <ele>1385</ele>
        <time>2016-05-06T08:45:34Z</time>
      </trkpt>
      <trkpt lat="44.48964" lon="5.94363">
        <ele>1384.4000244141</ele>
        <time>2016-05-06T08:45:35Z</time>
      </trkpt>
      <trkpt lat="44.48963" lon="5.94361">
        <ele>1383.8000488281</ele>
        <time>2016-05-06T08:45:36Z</time>
      </trkpt>
      <trkpt lat="44.48964" lon="5.94357">
        <ele>1382.8000488281</ele>
        <time>2016-05-06T08:45:38Z</time>
      </trkpt>
      <trkpt lat="44.48965" lon="5.94356">
        <ele>1382.1999511719</ele>
        <time>2016-05-06T08:45:39Z</time>
      </trkpt>
      <trkpt lat="44.48965" lon="5.94356">
        <ele>1381.5999755859</ele>
        <time>2016-05-06T08:45:40Z</time>
      </trkpt>
      <trkpt lat="44.48966" lon="5.94353">
        <ele>1381.5999755859</ele>
        <time>2016-05-06T08:45:43Z</time>
      </trkpt>
      <trkpt lat="44.48965" lon="5.94351">
        <ele>1381.1999511719</ele>
        <time>2016-05-06T08:45:45Z</time>
      </trkpt>
      <trkpt lat="44.48964" lon="5.9435">
        <ele>1380.8000488281</ele>
        <time>2016-05-06T08:45:46Z</time>
      </trkpt>
      <trkpt lat="44.48964" lon="5.94352">
        <ele>1380</ele>
        <time>2016-05-06T08:45:48Z</time>
      </trkpt>
      <trkpt lat="44.48964" lon="5.94353">
        <ele>1379.5999755859</ele>
        <time>2016-05-06T08:45:49Z</time>
      </trkpt>
      <trkpt lat="44.48964" lon="5.94353">
        <ele>1379.5999755859</ele>
        <time>2016-05-06T08:45:50Z</time>
      </trkpt>
      <trkpt lat="44.48959" lon="5.94349">
        <ele>1378.5999755859</ele>
        <time>2016-05-06T08:45:58Z</time>
      </trkpt>
      <trkpt lat="44.48958" lon="5.94348">
        <ele>1377.5999755859</ele>
        <time>2016-05-06T08:46:00Z</time>
      </trkpt>
      <trkpt lat="44.48956" lon="5.94348">
        <ele>1377.1999511719</ele>
        <time>2016-05-06T08:46:02Z</time>
      </trkpt>
      <trkpt lat="44.48954" lon="5.94345">
        <ele>1376.5999755859</ele>
        <time>2016-05-06T08:46:05Z</time>
      </trkpt>
      <trkpt lat="44.48952" lon="5.94343">
        <ele>1375.8000488281</ele>
        <time>2016-05-06T08:46:07Z</time>
      </trkpt>
      <trkpt lat="44.4895" lon="5.94342">
        <ele>1374.8000488281</ele>
        <time>2016-05-06T08:46:09Z</time>
      </trkpt>
      <trkpt lat="44.48947" lon="5.94341">
        <ele>1374.4000244141</ele>
        <time>2016-05-06T08:46:12Z</time>
      </trkpt>
      <trkpt lat="44.48946" lon="5.9434">
        <ele>1374</ele>
        <time>2016-05-06T08:46:13Z</time>
      </trkpt>
      <trkpt lat="44.48944" lon="5.9434">
        <ele>1373.5999755859</ele>
        <time>2016-05-06T08:46:14Z</time>
      </trkpt>
      <trkpt lat="44.48941" lon="5.94338">
        <ele>1373</ele>
        <time>2016-05-06T08:46:16Z</time>
      </trkpt>
      <trkpt lat="44.48941" lon="5.94337">
        <ele>1372.1999511719</ele>
        <time>2016-05-06T08:46:17Z</time>
      </trkpt>
      <trkpt lat="44.4894" lon="5.94336">
        <ele>1371.5999755859</ele>
        <time>2016-05-06T08:46:18Z</time>
      </trkpt>
      <trkpt lat="44.48939" lon="5.94335">
        <ele>1371.1999511719</ele>
        <time>2016-05-06T08:46:19Z</time>
      </trkpt>
      <trkpt lat="44.48938" lon="5.94333">
        <ele>1370.8000488281</ele>
        <time>2016-05-06T08:46:21Z</time>
      </trkpt>
      <trkpt lat="44.48939" lon="5.94333">
        <ele>1370.1999511719</ele>
        <time>2016-05-06T08:46:22Z</time>
      </trkpt>
      <trkpt lat="44.4894" lon="5.94331">
        <ele>1369.8000488281</ele>
        <time>2016-05-06T08:46:24Z</time>
      </trkpt>
      <trkpt lat="44.48938" lon="5.9433">
        <ele>1369.4000244141</ele>
        <time>2016-05-06T08:46:26Z</time>
      </trkpt>
      <trkpt lat="44.48936" lon="5.94332">
        <ele>1368.4000244141</ele>
        <time>2016-05-06T08:46:27Z</time>
      </trkpt>
      <trkpt lat="44.48935" lon="5.94333">
        <ele>1368</ele>
        <time>2016-05-06T08:46:28Z</time>
      </trkpt>
      <trkpt lat="44.48934" lon="5.94333">
        <ele>1367</ele>
        <time>2016-05-06T08:46:32Z</time>
      </trkpt>
      <trkpt lat="44.48933" lon="5.94333">
        <ele>1366.5999755859</ele>
        <time>2016-05-06T08:46:33Z</time>
      </trkpt>
      <trkpt lat="44.48932" lon="5.94333">
        <ele>1366.1999511719</ele>
        <time>2016-05-06T08:46:34Z</time>
      </trkpt>
      <trkpt lat="44.48932" lon="5.94333">
        <ele>1366.1999511719</ele>
        <time>2016-05-06T08:46:35Z</time>
      </trkpt>
      <trkpt lat="44.48931" lon="5.94333">
        <ele>1365.8000488281</ele>
        <time>2016-05-06T08:46:36Z</time>
      </trkpt>
      <trkpt lat="44.48926" lon="5.94333">
        <ele>1365</ele>
        <time>2016-05-06T08:46:41Z</time>
      </trkpt>
      <trkpt lat="44.48924" lon="5.94332">
        <ele>1364.5999755859</ele>
        <time>2016-05-06T08:46:42Z</time>
      </trkpt>
      <trkpt lat="44.48923" lon="5.94332">
        <ele>1364.1999511719</ele>
        <time>2016-05-06T08:46:43Z</time>
      </trkpt>
      <trkpt lat="44.4892" lon="5.94329">
        <ele>1363.1999511719</ele>
        <time>2016-05-06T08:46:45Z</time>
      </trkpt>
      <trkpt lat="44.48916" lon="5.94324">
        <ele>1362.8000488281</ele>
        <time>2016-05-06T08:46:49Z</time>
      </trkpt>
      <trkpt lat="44.48915" lon="5.94323">
        <ele>1361.4000244141</ele>
        <time>2016-05-06T08:46:50Z</time>
      </trkpt>
      <trkpt lat="44.48914" lon="5.94321">
        <ele>1360.5999755859</ele>
        <time>2016-05-06T08:46:51Z</time>
      </trkpt>
      <trkpt lat="44.48911" lon="5.94317">
        <ele>1360</ele>
        <time>2016-05-06T08:46:53Z</time>
      </trkpt>
      <trkpt lat="44.4891" lon="5.94316">
        <ele>1358.4000244141</ele>
        <time>2016-05-06T08:46:54Z</time>
      </trkpt>
      <trkpt lat="44.48908" lon="5.94316">
        <ele>1357.8000488281</ele>
        <time>2016-05-06T08:46:55Z</time>
      </trkpt>
      <trkpt lat="44.48906" lon="5.94315">
        <ele>1357.1999511719</ele>
        <time>2016-05-06T08:46:56Z</time>
      </trkpt>
      <trkpt lat="44.48904" lon="5.94315">
        <ele>1357.1999511719</ele>
        <time>2016-05-06T08:46:57Z</time>
      </trkpt>
      <trkpt lat="44.48902" lon="5.94314">
        <ele>1356.5999755859</ele>
        <time>2016-05-06T08:46:58Z</time>
      </trkpt>
      <trkpt lat="44.48901" lon="5.94313">
        <ele>1355.1999511719</ele>
        <time>2016-05-06T08:46:59Z</time>
      </trkpt>
      <trkpt lat="44.48901" lon="5.94313">
        <ele>1354.5999755859</ele>
        <time>2016-05-06T08:47:00Z</time>
      </trkpt>
      <trkpt lat="44.48899" lon="5.94311">
        <ele>1354</ele>
        <time>2016-05-06T08:47:01Z</time>
      </trkpt>
      <trkpt lat="44.48898" lon="5.94311">
        <ele>1354</ele>
        <time>2016-05-06T08:47:02Z</time>
      </trkpt>
      <trkpt lat="44.48895" lon="5.94311">
        <ele>1353.4000244141</ele>
        <time>2016-05-06T08:47:03Z</time>
      </trkpt>
      <trkpt lat="44.48893" lon="5.9431">
        <ele>1352.5999755859</ele>
        <time>2016-05-06T08:47:04Z</time>
      </trkpt>
      <trkpt lat="44.48886" lon="5.94313">
        <ele>1352.5999755859</ele>
        <time>2016-05-06T08:47:08Z</time>
      </trkpt>
      <trkpt lat="44.48885" lon="5.94314">
        <ele>1352.1999511719</ele>
        <time>2016-05-06T08:47:09Z</time>
      </trkpt>
      <trkpt lat="44.48883" lon="5.94314">
        <ele>1351.5999755859</ele>
        <time>2016-05-06T08:47:10Z</time>
      </trkpt>
      <trkpt lat="44.48881" lon="5.94312">
        <ele>1351.1999511719</ele>
        <time>2016-05-06T08:47:11Z</time>
      </trkpt>
      <trkpt lat="44.48878" lon="5.94311">
        <ele>1350.5999755859</ele>
        <time>2016-05-06T08:47:13Z</time>
      </trkpt>
      <trkpt lat="44.48876" lon="5.94311">
        <ele>1349.5999755859</ele>
        <time>2016-05-06T08:47:14Z</time>
      </trkpt>
      <trkpt lat="44.48874" lon="5.94311">
        <ele>1349</ele>
        <time>2016-05-06T08:47:15Z</time>
      </trkpt>
      <trkpt lat="44.48872" lon="5.94311">
        <ele>1348.5999755859</ele>
        <time>2016-05-06T08:47:16Z</time>
      </trkpt>
      <trkpt lat="44.48871" lon="5.9431">
        <ele>1348.5999755859</ele>
        <time>2016-05-06T08:47:17Z</time>
      </trkpt>
      <trkpt lat="44.48869" lon="5.94311">
        <ele>1348</ele>
        <time>2016-05-06T08:47:18Z</time>
      </trkpt>
      <trkpt lat="44.48867" lon="5.94311">
        <ele>1347.5999755859</ele>
        <time>2016-05-06T08:47:19Z</time>
      </trkpt>
      <trkpt lat="44.48866" lon="5.94311">
        <ele>1347.1999511719</ele>
        <time>2016-05-06T08:47:20Z</time>
      </trkpt>
      <trkpt lat="44.48864" lon="5.94311">
        <ele>1346.5999755859</ele>
        <time>2016-05-06T08:47:21Z</time>
      </trkpt>
      <trkpt lat="44.48862" lon="5.9431">
        <ele>1346.1999511719</ele>
        <time>2016-05-06T08:47:23Z</time>
      </trkpt>
      <trkpt lat="44.48861" lon="5.9431">
        <ele>1345.1999511719</ele>
        <time>2016-05-06T08:47:24Z</time>
      </trkpt>
      <trkpt lat="44.48861" lon="5.9431">
        <ele>1344.8000488281</ele>
        <time>2016-05-06T08:47:25Z</time>
      </trkpt>
      <trkpt lat="44.4886" lon="5.9431">
        <ele>1344.4000244141</ele>
        <time>2016-05-06T08:47:26Z</time>
      </trkpt>
      <trkpt lat="44.48859" lon="5.9431">
        <ele>1343.8000488281</ele>
        <time>2016-05-06T08:47:28Z</time>
      </trkpt>
      <trkpt lat="44.48859" lon="5.94309">
        <ele>1343.4000244141</ele>
        <time>2016-05-06T08:47:29Z</time>
      </trkpt>
      <trkpt lat="44.48856" lon="5.94309">
        <ele>1343.4000244141</ele>
        <time>2016-05-06T08:47:31Z</time>
      </trkpt>
      <trkpt lat="44.48851" lon="5.94308">
        <ele>1343</ele>
        <time>2016-05-06T08:47:34Z</time>
      </trkpt>
      <trkpt lat="44.48849" lon="5.94307">
        <ele>1342.5999755859</ele>
        <time>2016-05-06T08:47:35Z</time>
      </trkpt>
      <trkpt lat="44.48848" lon="5.94306">
        <ele>1342</ele>
        <time>2016-05-06T08:47:36Z</time>
      </trkpt>
      <trkpt lat="44.48845" lon="5.94304">
        <ele>1341.5999755859</ele>
        <time>2016-05-06T08:47:38Z</time>
      </trkpt>
      <trkpt lat="44.48843" lon="5.94303">
        <ele>1341.1999511719</ele>
        <time>2016-05-06T08:47:39Z</time>
      </trkpt>
      <trkpt lat="44.48842" lon="5.94303">
        <ele>1340.5999755859</ele>
        <time>2016-05-06T08:47:40Z</time>
      </trkpt>
      <trkpt lat="44.4884" lon="5.94302">
        <ele>1340.1999511719</ele>
        <time>2016-05-06T08:47:41Z</time>
      </trkpt>
      <trkpt lat="44.48836" lon="5.943">
        <ele>1339.8000488281</ele>
        <time>2016-05-06T08:47:43Z</time>
      </trkpt>
      <trkpt lat="44.48833" lon="5.94298">
        <ele>1338.8000488281</ele>
        <time>2016-05-06T08:47:44Z</time>
      </trkpt>
      <trkpt lat="44.48832" lon="5.94296">
        <ele>1338.4000244141</ele>
        <time>2016-05-06T08:47:45Z</time>
      </trkpt>
      <trkpt lat="44.4883" lon="5.94294">
        <ele>1337.8000488281</ele>
        <time>2016-05-06T08:47:46Z</time>
      </trkpt>
      <trkpt lat="44.48827" lon="5.9429">
        <ele>1337.4000244141</ele>
        <time>2016-05-06T08:47:48Z</time>
      </trkpt>
      <trkpt lat="44.48825" lon="5.9429">
        <ele>1336.4000244141</ele>
        <time>2016-05-06T08:47:49Z</time>
      </trkpt>
      <trkpt lat="44.48823" lon="5.94289">
        <ele>1335.8000488281</ele>
        <time>2016-05-06T08:47:50Z</time>
      </trkpt>
      <trkpt lat="44.48821" lon="5.94288">
        <ele>1335.1999511719</ele>
        <time>2016-05-06T08:47:51Z</time>
      </trkpt>
      <trkpt lat="44.48817" lon="5.94286">
        <ele>1334.5999755859</ele>
        <time>2016-05-06T08:47:53Z</time>
      </trkpt>
      <trkpt lat="44.48815" lon="5.94284">
        <ele>1333.5999755859</ele>
        <time>2016-05-06T08:47:54Z</time>
      </trkpt>
      <trkpt lat="44.48813" lon="5.94282">
        <ele>1333.1999511719</ele>
        <time>2016-05-06T08:47:55Z</time>
      </trkpt>
      <trkpt lat="44.48811" lon="5.9428">
        <ele>1332.5999755859</ele>
        <time>2016-05-06T08:47:56Z</time>
      </trkpt>
      <trkpt lat="44.48809" lon="5.94277">
        <ele>1332.5999755859</ele>
        <time>2016-05-06T08:47:57Z</time>
      </trkpt>
      <trkpt lat="44.48806" lon="5.94276">
        <ele>1332</ele>
        <time>2016-05-06T08:47:58Z</time>
      </trkpt>
      <trkpt lat="44.48804" lon="5.94274">
        <ele>1331</ele>
        <time>2016-05-06T08:47:59Z</time>
      </trkpt>
      <trkpt lat="44.48802" lon="5.94271">
        <ele>1330.5999755859</ele>
        <time>2016-05-06T08:48:00Z</time>
      </trkpt>
      <trkpt lat="44.488" lon="5.94268">
        <ele>1330.1999511719</ele>
        <time>2016-05-06T08:48:01Z</time>
      </trkpt>
      <trkpt lat="44.48793" lon="5.94261">
        <ele>1329.5999755859</ele>
        <time>2016-05-06T08:48:03Z</time>
      </trkpt>
      <trkpt lat="44.48792" lon="5.94259">
        <ele>1328.5999755859</ele>
        <time>2016-05-06T08:48:04Z</time>
      </trkpt>
      <trkpt lat="44.48789" lon="5.94257">
        <ele>1328</ele>
        <time>2016-05-06T08:48:05Z</time>
      </trkpt>
      <trkpt lat="44.48786" lon="5.94252">
        <ele>1327.4000244141</ele>
        <time>2016-05-06T08:48:07Z</time>
      </trkpt>
      <trkpt lat="44.48785" lon="5.94249">
        <ele>1326.8000488281</ele>
        <time>2016-05-06T08:48:08Z</time>
      </trkpt>
      <trkpt lat="44.48784" lon="5.94245">
        <ele>1326.4000244141</ele>
        <time>2016-05-06T08:48:09Z</time>
      </trkpt>
      <trkpt lat="44.48783" lon="5.94243">
        <ele>1326</ele>
        <time>2016-05-06T08:48:10Z</time>
      </trkpt>
      <trkpt lat="44.48782" lon="5.9424">
        <ele>1325.4000244141</ele>
        <time>2016-05-06T08:48:11Z</time>
      </trkpt>
      <trkpt lat="44.4878" lon="5.94236">
        <ele>1325</ele>
        <time>2016-05-06T08:48:13Z</time>
      </trkpt>
      <trkpt lat="44.48779" lon="5.94233">
        <ele>1324.1999511719</ele>
        <time>2016-05-06T08:48:14Z</time>
      </trkpt>
      <trkpt lat="44.48778" lon="5.94232">
        <ele>1323.8000488281</ele>
        <time>2016-05-06T08:48:15Z</time>
      </trkpt>
      <trkpt lat="44.48774" lon="5.9423">
        <ele>1323.1999511719</ele>
        <time>2016-05-06T08:48:17Z</time>
      </trkpt>
      <trkpt lat="44.4877" lon="5.94226">
        <ele>1322.1999511719</ele>
        <time>2016-05-06T08:48:19Z</time>
      </trkpt>
      <trkpt lat="44.48769" lon="5.94223">
        <ele>1321.5999755859</ele>
        <time>2016-05-06T08:48:20Z</time>
      </trkpt>
      <trkpt lat="44.48767" lon="5.94214">
        <ele>1321</ele>
        <time>2016-05-06T08:48:22Z</time>
      </trkpt>
      <trkpt lat="44.48766" lon="5.9421">
        <ele>1320.4000244141</ele>
        <time>2016-05-06T08:48:23Z</time>
      </trkpt>
      <trkpt lat="44.48766" lon="5.94207">
        <ele>1319.1999511719</ele>
        <time>2016-05-06T08:48:24Z</time>
      </trkpt>
      <trkpt lat="44.48764" lon="5.94205">
        <ele>1318.8000488281</ele>
        <time>2016-05-06T08:48:25Z</time>
      </trkpt>
      <trkpt lat="44.48763" lon="5.94203">
        <ele>1318.1999511719</ele>
        <time>2016-05-06T08:48:26Z</time>
      </trkpt>
      <trkpt lat="44.48761" lon="5.94201">
        <ele>1318.1999511719</ele>
        <time>2016-05-06T08:48:27Z</time>
      </trkpt>
      <trkpt lat="44.4876" lon="5.94198">
        <ele>1317.5999755859</ele>
        <time>2016-05-06T08:48:28Z</time>
      </trkpt>
      <trkpt lat="44.48758" lon="5.94194">
        <ele>1317</ele>
        <time>2016-05-06T08:48:29Z</time>
      </trkpt>
      <trkpt lat="44.48756" lon="5.9419">
        <ele>1316.5999755859</ele>
        <time>2016-05-06T08:48:30Z</time>
      </trkpt>
      <trkpt lat="44.48752" lon="5.94184">
        <ele>1316.1999511719</ele>
        <time>2016-05-06T08:48:32Z</time>
      </trkpt>
      <trkpt lat="44.4875" lon="5.94181">
        <ele>1315.8000488281</ele>
        <time>2016-05-06T08:48:33Z</time>
      </trkpt>
      <trkpt lat="44.48748" lon="5.94178">
        <ele>1314.5999755859</ele>
        <time>2016-05-06T08:48:34Z</time>
      </trkpt>
      <trkpt lat="44.48746" lon="5.94175">
        <ele>1314</ele>
        <time>2016-05-06T08:48:35Z</time>
      </trkpt>
      <trkpt lat="44.48744" lon="5.94172">
        <ele>1313.4000244141</ele>
        <time>2016-05-06T08:48:36Z</time>
      </trkpt>
      <trkpt lat="44.4874" lon="5.94169">
        <ele>1312.8000488281</ele>
        <time>2016-05-06T08:48:38Z</time>
      </trkpt>
      <trkpt lat="44.48739" lon="5.94166">
        <ele>1311.5999755859</ele>
        <time>2016-05-06T08:48:39Z</time>
      </trkpt>
      <trkpt lat="44.48738" lon="5.94164">
        <ele>1311</ele>
        <time>2016-05-06T08:48:40Z</time>
      </trkpt>
      <trkpt lat="44.48738" lon="5.94161">
        <ele>1310.4000244141</ele>
        <time>2016-05-06T08:48:41Z</time>
      </trkpt>
      <trkpt lat="44.48737" lon="5.94156">
        <ele>1310</ele>
        <time>2016-05-06T08:48:43Z</time>
      </trkpt>
      <trkpt lat="44.48737" lon="5.94154">
        <ele>1309</ele>
        <time>2016-05-06T08:48:44Z</time>
      </trkpt>
      <trkpt lat="44.48737" lon="5.94152">
        <ele>1308.4000244141</ele>
        <time>2016-05-06T08:48:45Z</time>
      </trkpt>
      <trkpt lat="44.48735" lon="5.9415">
        <ele>1307.8000488281</ele>
        <time>2016-05-06T08:48:46Z</time>
      </trkpt>
      <trkpt lat="44.4873" lon="5.94148">
        <ele>1307.4000244141</ele>
        <time>2016-05-06T08:48:48Z</time>
      </trkpt>
      <trkpt lat="44.48728" lon="5.94146">
        <ele>1306.8000488281</ele>
        <time>2016-05-06T08:48:49Z</time>
      </trkpt>
      <trkpt lat="44.48726" lon="5.94145">
        <ele>1305.4000244141</ele>
        <time>2016-05-06T08:48:50Z</time>
      </trkpt>
      <trkpt lat="44.48723" lon="5.94144">
        <ele>1304.8000488281</ele>
        <time>2016-05-06T08:48:51Z</time>
      </trkpt>
      <trkpt lat="44.48721" lon="5.94142">
        <ele>1304.1999511719</ele>
        <time>2016-05-06T08:48:53Z</time>
      </trkpt>
      <trkpt lat="44.48721" lon="5.9414">
        <ele>1303</ele>
        <time>2016-05-06T08:48:54Z</time>
      </trkpt>
      <trkpt lat="44.48721" lon="5.94138">
        <ele>1302.5999755859</ele>
        <time>2016-05-06T08:48:55Z</time>
      </trkpt>
      <trkpt lat="44.48719" lon="5.94136">
        <ele>1302</ele>
        <time>2016-05-06T08:48:56Z</time>
      </trkpt>
      <trkpt lat="44.48716" lon="5.94134">
        <ele>1301.5999755859</ele>
        <time>2016-05-06T08:48:58Z</time>
      </trkpt>
      <trkpt lat="44.48714" lon="5.94132">
        <ele>1301</ele>
        <time>2016-05-06T08:48:59Z</time>
      </trkpt>
      <trkpt lat="44.48712" lon="5.94129">
        <ele>1300.5999755859</ele>
        <time>2016-05-06T08:49:00Z</time>
      </trkpt>
      <trkpt lat="44.48711" lon="5.94123">
        <ele>1300.1999511719</ele>
        <time>2016-05-06T08:49:02Z</time>
      </trkpt>
      <trkpt lat="44.48711" lon="5.9412">
        <ele>1299.8000488281</ele>
        <time>2016-05-06T08:49:03Z</time>
      </trkpt>
      <trkpt lat="44.4871" lon="5.94118">
        <ele>1298.8000488281</ele>
        <time>2016-05-06T08:49:04Z</time>
      </trkpt>
      <trkpt lat="44.48708" lon="5.9411">
        <ele>1298.4000244141</ele>
        <time>2016-05-06T08:49:11Z</time>
      </trkpt>
      <trkpt lat="44.48708" lon="5.94109">
        <ele>1298</ele>
        <time>2016-05-06T08:49:13Z</time>
      </trkpt>
      <trkpt lat="44.48708" lon="5.94109">
        <ele>1297.1999511719</ele>
        <time>2016-05-06T08:49:14Z</time>
      </trkpt>
      <trkpt lat="44.48708" lon="5.94109">
        <ele>1296.8000488281</ele>
        <time>2016-05-06T08:49:15Z</time>
      </trkpt>
      <trkpt lat="44.48708" lon="5.94109">
        <ele>1296.8000488281</ele>
        <time>2016-05-06T08:49:20Z</time>
      </trkpt>
      <trkpt lat="44.48707" lon="5.94107">
        <ele>1296.1999511719</ele>
        <time>2016-05-06T08:49:24Z</time>
      </trkpt>
      <trkpt lat="44.48707" lon="5.94107">
        <ele>1295.4000244141</ele>
        <time>2016-05-06T08:49:25Z</time>
      </trkpt>
      <trkpt lat="44.48706" lon="5.94106">
        <ele>1295</ele>
        <time>2016-05-06T08:49:26Z</time>
      </trkpt>
      <trkpt lat="44.48704" lon="5.94096">
        <ele>1294.5999755859</ele>
        <time>2016-05-06T08:49:28Z</time>
      </trkpt>
      <trkpt lat="44.48703" lon="5.94093">
        <ele>1294.5999755859</ele>
        <time>2016-05-06T08:49:29Z</time>
      </trkpt>
      <trkpt lat="44.48705" lon="5.94088">
        <ele>1294</ele>
        <time>2016-05-06T08:49:32Z</time>
      </trkpt>
      <trkpt lat="44.48705" lon="5.94087">
        <ele>1293.5999755859</ele>
        <time>2016-05-06T08:49:33Z</time>
      </trkpt>
      <trkpt lat="44.48705" lon="5.94085">
        <ele>1292.5999755859</ele>
        <time>2016-05-06T08:49:34Z</time>
      </trkpt>
      <trkpt lat="44.48705" lon="5.94084">
        <ele>1292.1999511719</ele>
        <time>2016-05-06T08:49:35Z</time>
      </trkpt>
      <trkpt lat="44.48706" lon="5.94078">
        <ele>1292.1999511719</ele>
        <time>2016-05-06T08:49:43Z</time>
      </trkpt>
      <trkpt lat="44.48706" lon="5.94078">
        <ele>1291.4000244141</ele>
        <time>2016-05-06T08:49:44Z</time>
      </trkpt>
      <trkpt lat="44.48706" lon="5.94077">
        <ele>1291</ele>
        <time>2016-05-06T08:49:45Z</time>
      </trkpt>
      <trkpt lat="44.48706" lon="5.94077">
        <ele>1290.5999755859</ele>
        <time>2016-05-06T08:49:47Z</time>
      </trkpt>
      <trkpt lat="44.48706" lon="5.94077">
        <ele>1290.1999511719</ele>
        <time>2016-05-06T08:49:48Z</time>
      </trkpt>
      <trkpt lat="44.48705" lon="5.94075">
        <ele>1290.1999511719</ele>
        <time>2016-05-06T08:49:55Z</time>
      </trkpt>
      <trkpt lat="44.48703" lon="5.9407">
        <ele>1290.1999511719</ele>
        <time>2016-05-06T08:50:00Z</time>
      </trkpt>
      <trkpt lat="44.48702" lon="5.94069">
        <ele>1289.8000488281</ele>
        <time>2016-05-06T08:50:01Z</time>
      </trkpt>
      <trkpt lat="44.487" lon="5.94068">
        <ele>1289.4000244141</ele>
        <time>2016-05-06T08:50:02Z</time>
      </trkpt>
      <trkpt lat="44.48697" lon="5.94068">
        <ele>1288.5999755859</ele>
        <time>2016-05-06T08:50:03Z</time>
      </trkpt>
      <trkpt lat="44.48692" lon="5.94069">
        <ele>1288.1999511719</ele>
        <time>2016-05-06T08:50:04Z</time>
      </trkpt>
      <trkpt lat="44.48684" lon="5.94074">
        <ele>1288.1999511719</ele>
        <time>2016-05-06T08:50:06Z</time>
      </trkpt>
      <trkpt lat="44.48677" lon="5.94076">
        <ele>1288.1999511719</ele>
        <time>2016-05-06T08:50:08Z</time>
      </trkpt>
      <trkpt lat="44.48675" lon="5.94076">
        <ele>1287.4000244141</ele>
        <time>2016-05-06T08:50:09Z</time>
      </trkpt>
      <trkpt lat="44.48673" lon="5.94076">
        <ele>1286.8000488281</ele>
        <time>2016-05-06T08:50:10Z</time>
      </trkpt>
      <trkpt lat="44.48671" lon="5.94074">
        <ele>1286.8000488281</ele>
        <time>2016-05-06T08:50:11Z</time>
      </trkpt>
      <trkpt lat="44.48668" lon="5.94072">
        <ele>1286.1999511719</ele>
        <time>2016-05-06T08:50:12Z</time>
      </trkpt>
      <trkpt lat="44.48665" lon="5.9407">
        <ele>1285</ele>
        <time>2016-05-06T08:50:13Z</time>
      </trkpt>
      <trkpt lat="44.48663" lon="5.94068">
        <ele>1284.4000244141</ele>
        <time>2016-05-06T08:50:14Z</time>
      </trkpt>
      <trkpt lat="44.48661" lon="5.94066">
        <ele>1283.8000488281</ele>
        <time>2016-05-06T08:50:15Z</time>
      </trkpt>
      <trkpt lat="44.48658" lon="5.94064">
        <ele>1283.8000488281</ele>
        <time>2016-05-06T08:50:16Z</time>
      </trkpt>
      <trkpt lat="44.4865" lon="5.94062">
        <ele>1283.1999511719</ele>
        <time>2016-05-06T08:50:19Z</time>
      </trkpt>
      <trkpt lat="44.48645" lon="5.94062">
        <ele>1282.5999755859</ele>
        <time>2016-05-06T08:50:20Z</time>
      </trkpt>
      <trkpt lat="44.48633" lon="5.94059">
        <ele>1282.1999511719</ele>
        <time>2016-05-06T08:50:22Z</time>
      </trkpt>
      <trkpt lat="44.48628" lon="5.94056">
        <ele>1281.1999511719</ele>
        <time>2016-05-06T08:50:23Z</time>
      </trkpt>
      <trkpt lat="44.48619" lon="5.94045">
        <ele>1281.1999511719</ele>
        <time>2016-05-06T08:50:27Z</time>
      </trkpt>
      <trkpt lat="44.48602" lon="5.94036">
        <ele>1281.1999511719</ele>
        <time>2016-05-06T08:50:32Z</time>
      </trkpt>
      <trkpt lat="44.48587" lon="5.94031">
        <ele>1281.5999755859</ele>
        <time>2016-05-06T08:50:36Z</time>
      </trkpt>
      <trkpt lat="44.48584" lon="5.94029">
        <ele>1282</ele>
        <time>2016-05-06T08:50:37Z</time>
      </trkpt>
      <trkpt lat="44.48581" lon="5.94026">
        <ele>1282.8000488281</ele>
        <time>2016-05-06T08:50:38Z</time>
      </trkpt>
      <trkpt lat="44.48577" lon="5.94024">
        <ele>1283.1999511719</ele>
        <time>2016-05-06T08:50:39Z</time>
      </trkpt>
      <trkpt lat="44.48572" lon="5.94018">
        <ele>1283.5999755859</ele>
        <time>2016-05-06T08:50:41Z</time>
      </trkpt>
      <trkpt lat="44.4857" lon="5.94015">
        <ele>1284</ele>
        <time>2016-05-06T08:50:42Z</time>
      </trkpt>
      <trkpt lat="44.48568" lon="5.94012">
        <ele>1284</ele>
        <time>2016-05-06T08:50:43Z</time>
      </trkpt>
      <trkpt lat="44.4856" lon="5.94003">
        <ele>1284.4000244141</ele>
        <time>2016-05-06T08:50:46Z</time>
      </trkpt>
      <trkpt lat="44.48558" lon="5.94">
        <ele>1285</ele>
        <time>2016-05-06T08:50:47Z</time>
      </trkpt>
      <trkpt lat="44.48556" lon="5.93997">
        <ele>1285.4000244141</ele>
        <time>2016-05-06T08:50:48Z</time>
      </trkpt>
      <trkpt lat="44.48554" lon="5.93994">
        <ele>1285.8000488281</ele>
        <time>2016-05-06T08:50:49Z</time>
      </trkpt>
      <trkpt lat="44.48547" lon="5.93982">
        <ele>1286.1999511719</ele>
        <time>2016-05-06T08:50:53Z</time>
      </trkpt>
      <trkpt lat="44.48546" lon="5.93979">
        <ele>1286.5999755859</ele>
        <time>2016-05-06T08:50:54Z</time>
      </trkpt>
      <trkpt lat="44.48544" lon="5.93975">
        <ele>1287</ele>
        <time>2016-05-06T08:50:55Z</time>
      </trkpt>
      <trkpt lat="44.48542" lon="5.93972">
        <ele>1287.5999755859</ele>
        <time>2016-05-06T08:50:56Z</time>
      </trkpt>
      <trkpt lat="44.48531" lon="5.93955">
        <ele>1288</ele>
        <time>2016-05-06T08:51:03Z</time>
      </trkpt>
      <trkpt lat="44.4853" lon="5.93953">
        <ele>1288.4000244141</ele>
        <time>2016-05-06T08:51:04Z</time>
      </trkpt>
      <trkpt lat="44.48529" lon="5.93951">
        <ele>1289</ele>
        <time>2016-05-06T08:51:05Z</time>
      </trkpt>
      <trkpt lat="44.48528" lon="5.93949">
        <ele>1289.4000244141</ele>
        <time>2016-05-06T08:51:06Z</time>
      </trkpt>
      <trkpt lat="44.48528" lon="5.93946">
        <ele>1289.8000488281</ele>
        <time>2016-05-06T08:51:07Z</time>
      </trkpt>
      <trkpt lat="44.48523" lon="5.9394">
        <ele>1289.8000488281</ele>
        <time>2016-05-06T08:51:10Z</time>
      </trkpt>
      <trkpt lat="44.48518" lon="5.93934">
        <ele>1289.8000488281</ele>
        <time>2016-05-06T08:51:13Z</time>
      </trkpt>
      <trkpt lat="44.48518" lon="5.93931">
        <ele>1290.1999511719</ele>
        <time>2016-05-06T08:51:14Z</time>
      </trkpt>
      <trkpt lat="44.48517" lon="5.93928">
        <ele>1290.8000488281</ele>
        <time>2016-05-06T08:51:15Z</time>
      </trkpt>
      <trkpt lat="44.48516" lon="5.93925">
        <ele>1291.1999511719</ele>
        <time>2016-05-06T08:51:16Z</time>
      </trkpt>
      <trkpt lat="44.48516" lon="5.93922">
        <ele>1291.5999755859</ele>
        <time>2016-05-06T08:51:17Z</time>
      </trkpt>
      <trkpt lat="44.48516" lon="5.93919">
        <ele>1292</ele>
        <time>2016-05-06T08:51:18Z</time>
      </trkpt>
      <trkpt lat="44.48513" lon="5.9391">
        <ele>1292</ele>
        <time>2016-05-06T08:51:21Z</time>
      </trkpt>
      <trkpt lat="44.48503" lon="5.9389">
        <ele>1292</ele>
        <time>2016-05-06T08:51:29Z</time>
      </trkpt>
      <trkpt lat="44.48503" lon="5.93887">
        <ele>1292.4000244141</ele>
        <time>2016-05-06T08:51:30Z</time>
      </trkpt>
      <trkpt lat="44.48503" lon="5.93884">
        <ele>1292.8000488281</ele>
        <time>2016-05-06T08:51:31Z</time>
      </trkpt>
      <trkpt lat="44.48503" lon="5.93881">
        <ele>1293.1999511719</ele>
        <time>2016-05-06T08:51:32Z</time>
      </trkpt>
      <trkpt lat="44.48502" lon="5.93877">
        <ele>1293.5999755859</ele>
        <time>2016-05-06T08:51:33Z</time>
      </trkpt>
      <trkpt lat="44.48501" lon="5.93875">
        <ele>1294</ele>
        <time>2016-05-06T08:51:34Z</time>
      </trkpt>
      <trkpt lat="44.48498" lon="5.93869">
        <ele>1294</ele>
        <time>2016-05-06T08:51:37Z</time>
      </trkpt>
      <trkpt lat="44.48497" lon="5.93863">
        <ele>1294.4000244141</ele>
        <time>2016-05-06T08:51:40Z</time>
      </trkpt>
      <trkpt lat="44.48497" lon="5.9386">
        <ele>1295</ele>
        <time>2016-05-06T08:51:41Z</time>
      </trkpt>
      <trkpt lat="44.48496" lon="5.93858">
        <ele>1295.4000244141</ele>
        <time>2016-05-06T08:51:42Z</time>
      </trkpt>
      <trkpt lat="44.48495" lon="5.93855">
        <ele>1295.8000488281</ele>
        <time>2016-05-06T08:51:43Z</time>
      </trkpt>
      <trkpt lat="44.48495" lon="5.93853">
        <ele>1296.1999511719</ele>
        <time>2016-05-06T08:51:44Z</time>
      </trkpt>
      <trkpt lat="44.48495" lon="5.93851">
        <ele>1296.1999511719</ele>
        <time>2016-05-06T08:51:45Z</time>
      </trkpt>
      <trkpt lat="44.48495" lon="5.93828">
        <ele>1296.1999511719</ele>
        <time>2016-05-06T08:51:55Z</time>
      </trkpt>
      <trkpt lat="44.48495" lon="5.93824">
        <ele>1296.5999755859</ele>
        <time>2016-05-06T08:51:57Z</time>
      </trkpt>
      <trkpt lat="44.48494" lon="5.93821">
        <ele>1297</ele>
        <time>2016-05-06T08:51:58Z</time>
      </trkpt>
      <trkpt lat="44.48494" lon="5.93819">
        <ele>1297.4000244141</ele>
        <time>2016-05-06T08:51:59Z</time>
      </trkpt>
      <trkpt lat="44.48494" lon="5.93816">
        <ele>1298</ele>
        <time>2016-05-06T08:52:00Z</time>
      </trkpt>
      <trkpt lat="44.48494" lon="5.93814">
        <ele>1298.4000244141</ele>
        <time>2016-05-06T08:52:01Z</time>
      </trkpt>
      <trkpt lat="44.48495" lon="5.93811">
        <ele>1298.4000244141</ele>
        <time>2016-05-06T08:52:02Z</time>
      </trkpt>
      <trkpt lat="44.48496" lon="5.93788">
        <ele>1298.8000488281</ele>
        <time>2016-05-06T08:52:12Z</time>
      </trkpt>
      <trkpt lat="44.48497" lon="5.93786">
        <ele>1299.1999511719</ele>
        <time>2016-05-06T08:52:13Z</time>
      </trkpt>
      <trkpt lat="44.48497" lon="5.93783">
        <ele>1299.5999755859</ele>
        <time>2016-05-06T08:52:14Z</time>
      </trkpt>
      <trkpt lat="44.48497" lon="5.93781">
        <ele>1300</ele>
        <time>2016-05-06T08:52:15Z</time>
      </trkpt>
      <trkpt lat="44.48497" lon="5.93779">
        <ele>1300.4000244141</ele>
        <time>2016-05-06T08:52:16Z</time>
      </trkpt>
      <trkpt lat="44.48499" lon="5.93765">
        <ele>1300.4000244141</ele>
        <time>2016-05-06T08:52:22Z</time>
      </trkpt>
      <trkpt lat="44.485" lon="5.93763">
        <ele>1300.8000488281</ele>
        <time>2016-05-06T08:52:23Z</time>
      </trkpt>
      <trkpt lat="44.485" lon="5.93761">
        <ele>1301.1999511719</ele>
        <time>2016-05-06T08:52:24Z</time>
      </trkpt>
      <trkpt lat="44.48502" lon="5.9376">
        <ele>1301.5999755859</ele>
        <time>2016-05-06T08:52:25Z</time>
      </trkpt>
      <trkpt lat="44.48503" lon="5.93757">
        <ele>1302</ele>
        <time>2016-05-06T08:52:26Z</time>
      </trkpt>
      <trkpt lat="44.48504" lon="5.93756">
        <ele>1302.4000244141</ele>
        <time>2016-05-06T08:52:27Z</time>
      </trkpt>
      <trkpt lat="44.4851" lon="5.93741">
        <ele>1302.4000244141</ele>
        <time>2016-05-06T08:52:34Z</time>
      </trkpt>
      <trkpt lat="44.48513" lon="5.93733">
        <ele>1303</ele>
        <time>2016-05-06T08:52:40Z</time>
      </trkpt>
      <trkpt lat="44.48513" lon="5.93733">
        <ele>1303.4000244141</ele>
        <time>2016-05-06T08:52:41Z</time>
      </trkpt>
      <trkpt lat="44.48514" lon="5.93733">
        <ele>1303.8000488281</ele>
        <time>2016-05-06T08:52:42Z</time>
      </trkpt>
      <trkpt lat="44.48514" lon="5.93733">
        <ele>1304.4000244141</ele>
        <time>2016-05-06T08:52:43Z</time>
      </trkpt>
      <trkpt lat="44.48515" lon="5.93733">
        <ele>1304.8000488281</ele>
        <time>2016-05-06T08:52:44Z</time>
      </trkpt>
      <trkpt lat="44.48515" lon="5.93733">
        <ele>1304.8000488281</ele>
        <time>2016-05-06T08:55:44Z</time>
      </trkpt>
      <trkpt lat="44.48515" lon="5.93733">
        <ele>1304.8000488281</ele>
        <time>2016-05-06T08:58:33Z</time>
      </trkpt>
      <trkpt lat="44.48515" lon="5.93732">
        <ele>1304.8000488281</ele>
        <time>2016-05-06T09:02:30Z</time>
      </trkpt>
      <trkpt lat="44.48509" lon="5.93723">
        <ele>1304.8000488281</ele>
        <time>2016-05-06T09:02:36Z</time>
      </trkpt>
      <trkpt lat="44.48499" lon="5.93711">
        <ele>1304.8000488281</ele>
        <time>2016-05-06T09:02:44Z</time>
      </trkpt>
      <trkpt lat="44.4849" lon="5.93701">
        <ele>1304.8000488281</ele>
        <time>2016-05-06T09:02:51Z</time>
      </trkpt>
      <trkpt lat="44.48489" lon="5.93701">
        <ele>1305.1999511719</ele>
        <time>2016-05-06T09:02:52Z</time>
      </trkpt>
      <trkpt lat="44.48488" lon="5.937">
        <ele>1305.5999755859</ele>
        <time>2016-05-06T09:02:53Z</time>
      </trkpt>
      <trkpt lat="44.48486" lon="5.93699">
        <ele>1306</ele>
        <time>2016-05-06T09:02:54Z</time>
      </trkpt>
      <trkpt lat="44.48484" lon="5.93697">
        <ele>1306.5999755859</ele>
        <time>2016-05-06T09:02:56Z</time>
      </trkpt>
      <trkpt lat="44.48483" lon="5.93696">
        <ele>1307</ele>
        <time>2016-05-06T09:02:57Z</time>
      </trkpt>
      <trkpt lat="44.4848" lon="5.93694">
        <ele>1307</ele>
        <time>2016-05-06T09:03:00Z</time>
      </trkpt>
      <trkpt lat="44.48477" lon="5.93695">
        <ele>1307.4000244141</ele>
        <time>2016-05-06T09:03:02Z</time>
      </trkpt>
      <trkpt lat="44.48475" lon="5.93695">
        <ele>1308</ele>
        <time>2016-05-06T09:03:03Z</time>
      </trkpt>
      <trkpt lat="44.48474" lon="5.93695">
        <ele>1308.4000244141</ele>
        <time>2016-05-06T09:03:04Z</time>
      </trkpt>
      <trkpt lat="44.48471" lon="5.93695">
        <ele>1309.4000244141</ele>
        <time>2016-05-06T09:03:06Z</time>
      </trkpt>
      <trkpt lat="44.4847" lon="5.93696">
        <ele>1309.4000244141</ele>
        <time>2016-05-06T09:03:07Z</time>
      </trkpt>
      <trkpt lat="44.48464" lon="5.937">
        <ele>1309.8000488281</ele>
        <time>2016-05-06T09:03:11Z</time>
      </trkpt>
      <trkpt lat="44.48463" lon="5.93701">
        <ele>1310.1999511719</ele>
        <time>2016-05-06T09:03:12Z</time>
      </trkpt>
      <trkpt lat="44.48462" lon="5.93702">
        <ele>1310.5999755859</ele>
        <time>2016-05-06T09:03:13Z</time>
      </trkpt>
      <trkpt lat="44.48458" lon="5.93705">
        <ele>1311</ele>
        <time>2016-05-06T09:03:15Z</time>
      </trkpt>
      <trkpt lat="44.48457" lon="5.93706">
        <ele>1311.4000244141</ele>
        <time>2016-05-06T09:03:16Z</time>
      </trkpt>
      <trkpt lat="44.48449" lon="5.93712">
        <ele>1311.8000488281</ele>
        <time>2016-05-06T09:03:23Z</time>
      </trkpt>
      <trkpt lat="44.48447" lon="5.93714">
        <ele>1312.4000244141</ele>
        <time>2016-05-06T09:03:25Z</time>
      </trkpt>
      <trkpt lat="44.48445" lon="5.93715">
        <ele>1312.8000488281</ele>
        <time>2016-05-06T09:03:26Z</time>
      </trkpt>
      <trkpt lat="44.48443" lon="5.93718">
        <ele>1313.8000488281</ele>
        <time>2016-05-06T09:03:28Z</time>
      </trkpt>
      <trkpt lat="44.48438" lon="5.93722">
        <ele>1313.8000488281</ele>
        <time>2016-05-06T09:03:33Z</time>
      </trkpt>
      <trkpt lat="44.48431" lon="5.93728">
        <ele>1314.4000244141</ele>
        <time>2016-05-06T09:03:39Z</time>
      </trkpt>
      <trkpt lat="44.4843" lon="5.93729">
        <ele>1315.1999511719</ele>
        <time>2016-05-06T09:03:40Z</time>
      </trkpt>
      <trkpt lat="44.48429" lon="5.9373">
        <ele>1315.8000488281</ele>
        <time>2016-05-06T09:03:41Z</time>
      </trkpt>
      <trkpt lat="44.48428" lon="5.93731">
        <ele>1316.1999511719</ele>
        <time>2016-05-06T09:03:42Z</time>
      </trkpt>
      <trkpt lat="44.4842" lon="5.93736">
        <ele>1316.5999755859</ele>
        <time>2016-05-06T09:03:50Z</time>
      </trkpt>
      <trkpt lat="44.48418" lon="5.93736">
        <ele>1317</ele>
        <time>2016-05-06T09:03:51Z</time>
      </trkpt>
      <trkpt lat="44.48417" lon="5.93737">
        <ele>1317.4000244141</ele>
        <time>2016-05-06T09:03:52Z</time>
      </trkpt>
      <trkpt lat="44.48414" lon="5.93739">
        <ele>1317.8000488281</ele>
        <time>2016-05-06T09:03:54Z</time>
      </trkpt>
      <trkpt lat="44.48413" lon="5.93739">
        <ele>1318.4000244141</ele>
        <time>2016-05-06T09:03:55Z</time>
      </trkpt>
      <trkpt lat="44.48409" lon="5.93741">
        <ele>1318.8000488281</ele>
        <time>2016-05-06T09:03:58Z</time>
      </trkpt>
      <trkpt lat="44.48408" lon="5.93742">
        <ele>1318.8000488281</ele>
        <time>2016-05-06T09:03:59Z</time>
      </trkpt>
      <trkpt lat="44.48407" lon="5.93742">
        <ele>1319.1999511719</ele>
        <time>2016-05-06T09:04:00Z</time>
      </trkpt>
      <trkpt lat="44.48407" lon="5.93743">
        <ele>1319.5999755859</ele>
        <time>2016-05-06T09:04:01Z</time>
      </trkpt>
      <trkpt lat="44.48405" lon="5.93744">
        <ele>1320</ele>
        <time>2016-05-06T09:04:02Z</time>
      </trkpt>
      <trkpt lat="44.48404" lon="5.93746">
        <ele>1320.4000244141</ele>
        <time>2016-05-06T09:04:04Z</time>
      </trkpt>
      <trkpt lat="44.48399" lon="5.93749">
        <ele>1320.4000244141</ele>
        <time>2016-05-06T09:04:09Z</time>
      </trkpt>
      <trkpt lat="44.48394" lon="5.93754">
        <ele>1320.8000488281</ele>
        <time>2016-05-06T09:04:14Z</time>
      </trkpt>
      <trkpt lat="44.48392" lon="5.93755">
        <ele>1321.1999511719</ele>
        <time>2016-05-06T09:04:15Z</time>
      </trkpt>
      <trkpt lat="44.48391" lon="5.93755">
        <ele>1321.5999755859</ele>
        <time>2016-05-06T09:04:16Z</time>
      </trkpt>
      <trkpt lat="44.48389" lon="5.93757">
        <ele>1322</ele>
        <time>2016-05-06T09:04:18Z</time>
      </trkpt>
      <trkpt lat="44.48386" lon="5.93759">
        <ele>1322.4000244141</ele>
        <time>2016-05-06T09:04:20Z</time>
      </trkpt>
      <trkpt lat="44.4838" lon="5.93762">
        <ele>1322.8000488281</ele>
        <time>2016-05-06T09:04:25Z</time>
      </trkpt>
      <trkpt lat="44.48374" lon="5.93765">
        <ele>1323.1999511719</ele>
        <time>2016-05-06T09:04:29Z</time>
      </trkpt>
      <trkpt lat="44.48373" lon="5.93766">
        <ele>1323.5999755859</ele>
        <time>2016-05-06T09:04:30Z</time>
      </trkpt>
      <trkpt lat="44.48372" lon="5.93766">
        <ele>1324</ele>
        <time>2016-05-06T09:04:31Z</time>
      </trkpt>
      <trkpt lat="44.48371" lon="5.93767">
        <ele>1324</ele>
        <time>2016-05-06T09:04:32Z</time>
      </trkpt>
      <trkpt lat="44.4837" lon="5.93768">
        <ele>1324.4000244141</ele>
        <time>2016-05-06T09:04:33Z</time>
      </trkpt>
      <trkpt lat="44.48365" lon="5.93771">
        <ele>1325</ele>
        <time>2016-05-06T09:04:37Z</time>
      </trkpt>
      <trkpt lat="44.48364" lon="5.93771">
        <ele>1325.4000244141</ele>
        <time>2016-05-06T09:04:38Z</time>
      </trkpt>
      <trkpt lat="44.48363" lon="5.93771">
        <ele>1325.4000244141</ele>
        <time>2016-05-06T09:04:39Z</time>
      </trkpt>
      <trkpt lat="44.48362" lon="5.93772">
        <ele>1325.8000488281</ele>
        <time>2016-05-06T09:04:40Z</time>
      </trkpt>
      <trkpt lat="44.4836" lon="5.93773">
        <ele>1326.8000488281</ele>
        <time>2016-05-06T09:04:41Z</time>
      </trkpt>
      <trkpt lat="44.4835" lon="5.93781">
        <ele>1327.4000244141</ele>
        <time>2016-05-06T09:04:50Z</time>
      </trkpt>
      <trkpt lat="44.4835" lon="5.93781">
        <ele>1327.8000488281</ele>
        <time>2016-05-06T09:04:51Z</time>
      </trkpt>
      <trkpt lat="44.48348" lon="5.93783">
        <ele>1328.4000244141</ele>
        <time>2016-05-06T09:04:53Z</time>
      </trkpt>
      <trkpt lat="44.48347" lon="5.93784">
        <ele>1328.8000488281</ele>
        <time>2016-05-06T09:04:54Z</time>
      </trkpt>
      <trkpt lat="44.48346" lon="5.93785">
        <ele>1329.4000244141</ele>
        <time>2016-05-06T09:04:55Z</time>
      </trkpt>
      <trkpt lat="44.48345" lon="5.93786">
        <ele>1329.4000244141</ele>
        <time>2016-05-06T09:04:56Z</time>
      </trkpt>
      <trkpt lat="44.48336" lon="5.93793">
        <ele>1329.8000488281</ele>
        <time>2016-05-06T09:05:04Z</time>
      </trkpt>
      <trkpt lat="44.48335" lon="5.93794">
        <ele>1330.1999511719</ele>
        <time>2016-05-06T09:05:05Z</time>
      </trkpt>
      <trkpt lat="44.48334" lon="5.93795">
        <ele>1330.5999755859</ele>
        <time>2016-05-06T09:05:06Z</time>
      </trkpt>
      <trkpt lat="44.48333" lon="5.93795">
        <ele>1330.5999755859</ele>
        <time>2016-05-06T09:05:07Z</time>
      </trkpt>
      <trkpt lat="44.48332" lon="5.93796">
        <ele>1331.1999511719</ele>
        <time>2016-05-06T09:05:08Z</time>
      </trkpt>
      <trkpt lat="44.48331" lon="5.93797">
        <ele>1331.5999755859</ele>
        <time>2016-05-06T09:05:09Z</time>
      </trkpt>
      <trkpt lat="44.48322" lon="5.93803">
        <ele>1331.5999755859</ele>
        <time>2016-05-06T09:05:17Z</time>
      </trkpt>
      <trkpt lat="44.4832" lon="5.93803">
        <ele>1332</ele>
        <time>2016-05-06T09:05:18Z</time>
      </trkpt>
      <trkpt lat="44.48319" lon="5.93804">
        <ele>1332.4000244141</ele>
        <time>2016-05-06T09:05:19Z</time>
      </trkpt>
      <trkpt lat="44.48316" lon="5.93806">
        <ele>1332.8000488281</ele>
        <time>2016-05-06T09:05:21Z</time>
      </trkpt>
      <trkpt lat="44.48315" lon="5.93807">
        <ele>1333.8000488281</ele>
        <time>2016-05-06T09:05:22Z</time>
      </trkpt>
      <trkpt lat="44.48309" lon="5.93808">
        <ele>1333.8000488281</ele>
        <time>2016-05-06T09:05:26Z</time>
      </trkpt>
      <trkpt lat="44.48299" lon="5.93813">
        <ele>1333.8000488281</ele>
        <time>2016-05-06T09:05:34Z</time>
      </trkpt>
      <trkpt lat="44.48297" lon="5.93814">
        <ele>1334.1999511719</ele>
        <time>2016-05-06T09:05:36Z</time>
      </trkpt>
      <trkpt lat="44.48295" lon="5.93815">
        <ele>1334.5999755859</ele>
        <time>2016-05-06T09:05:37Z</time>
      </trkpt>
      <trkpt lat="44.48294" lon="5.93816">
        <ele>1335.1999511719</ele>
        <time>2016-05-06T09:05:39Z</time>
      </trkpt>
      <trkpt lat="44.48293" lon="5.93816">
        <ele>1335.5999755859</ele>
        <time>2016-05-06T09:05:40Z</time>
      </trkpt>
      <trkpt lat="44.48292" lon="5.93816">
        <ele>1336.1999511719</ele>
        <time>2016-05-06T09:05:41Z</time>
      </trkpt>
      <trkpt lat="44.48286" lon="5.93819">
        <ele>1336.5999755859</ele>
        <time>2016-05-06T09:05:48Z</time>
      </trkpt>
      <trkpt lat="44.48285" lon="5.9382">
        <ele>1337.4000244141</ele>
        <time>2016-05-06T09:05:49Z</time>
      </trkpt>
      <trkpt lat="44.48284" lon="5.93821">
        <ele>1337.8000488281</ele>
        <time>2016-05-06T09:05:50Z</time>
      </trkpt>
      <trkpt lat="44.48282" lon="5.93823">
        <ele>1338.1999511719</ele>
        <time>2016-05-06T09:05:52Z</time>
      </trkpt>
      <trkpt lat="44.48277" lon="5.93828">
        <ele>1338.1999511719</ele>
        <time>2016-05-06T09:05:57Z</time>
      </trkpt>
      <trkpt lat="44.48275" lon="5.9383">
        <ele>1338.8000488281</ele>
        <time>2016-05-06T09:05:59Z</time>
      </trkpt>
      <trkpt lat="44.48273" lon="5.93831">
        <ele>1339.1999511719</ele>
        <time>2016-05-06T09:06:01Z</time>
      </trkpt>
      <trkpt lat="44.48273" lon="5.93833">
        <ele>1339.5999755859</ele>
        <time>2016-05-06T09:06:02Z</time>
      </trkpt>
      <trkpt lat="44.48272" lon="5.93834">
        <ele>1340.4000244141</ele>
        <time>2016-05-06T09:06:03Z</time>
      </trkpt>
      <trkpt lat="44.48268" lon="5.93838">
        <ele>1340.4000244141</ele>
        <time>2016-05-06T09:06:07Z</time>
      </trkpt>
      <trkpt lat="44.48259" lon="5.9385">
        <ele>1341.4000244141</ele>
        <time>2016-05-06T09:06:15Z</time>
      </trkpt>
      <trkpt lat="44.48257" lon="5.93853">
        <ele>1341.8000488281</ele>
        <time>2016-05-06T09:06:17Z</time>
      </trkpt>
      <trkpt lat="44.48256" lon="5.93854">
        <ele>1342.1999511719</ele>
        <time>2016-05-06T09:06:18Z</time>
      </trkpt>
      <trkpt lat="44.48255" lon="5.93855">
        <ele>1342.5999755859</ele>
        <time>2016-05-06T09:06:19Z</time>
      </trkpt>
      <trkpt lat="44.48246" lon="5.9386">
        <ele>1342.5999755859</ele>
        <time>2016-05-06T09:06:26Z</time>
      </trkpt>
      <trkpt lat="44.48241" lon="5.93865">
        <ele>1343.1999511719</ele>
        <time>2016-05-06T09:06:30Z</time>
      </trkpt>
      <trkpt lat="44.48241" lon="5.93866">
        <ele>1343.5999755859</ele>
        <time>2016-05-06T09:06:31Z</time>
      </trkpt>
      <trkpt lat="44.4824" lon="5.93868">
        <ele>1344</ele>
        <time>2016-05-06T09:06:32Z</time>
      </trkpt>
      <trkpt lat="44.48238" lon="5.93869">
        <ele>1344.4000244141</ele>
        <time>2016-05-06T09:06:33Z</time>
      </trkpt>
      <trkpt lat="44.48236" lon="5.93871">
        <ele>1344.8000488281</ele>
        <time>2016-05-06T09:06:35Z</time>
      </trkpt>
      <trkpt lat="44.4823" lon="5.93883">
        <ele>1344.8000488281</ele>
        <time>2016-05-06T09:06:42Z</time>
      </trkpt>
      <trkpt lat="44.48229" lon="5.93885">
        <ele>1345.1999511719</ele>
        <time>2016-05-06T09:06:43Z</time>
      </trkpt>
      <trkpt lat="44.48227" lon="5.93889">
        <ele>1346.1999511719</ele>
        <time>2016-05-06T09:06:46Z</time>
      </trkpt>
      <trkpt lat="44.48226" lon="5.93891">
        <ele>1346.5999755859</ele>
        <time>2016-05-06T09:06:47Z</time>
      </trkpt>
      <trkpt lat="44.48225" lon="5.93892">
        <ele>1347</ele>
        <time>2016-05-06T09:06:48Z</time>
      </trkpt>
      <trkpt lat="44.48223" lon="5.93895">
        <ele>1347</ele>
        <time>2016-05-06T09:06:50Z</time>
      </trkpt>
      <trkpt lat="44.48215" lon="5.93908">
        <ele>1347.4000244141</ele>
        <time>2016-05-06T09:06:58Z</time>
      </trkpt>
      <trkpt lat="44.48213" lon="5.93911">
        <ele>1348</ele>
        <time>2016-05-06T09:07:00Z</time>
      </trkpt>
      <trkpt lat="44.48212" lon="5.93913">
        <ele>1348.4000244141</ele>
        <time>2016-05-06T09:07:01Z</time>
      </trkpt>
      <trkpt lat="44.48211" lon="5.93915">
        <ele>1348.8000488281</ele>
        <time>2016-05-06T09:07:02Z</time>
      </trkpt>
      <trkpt lat="44.48211" lon="5.93916">
        <ele>1349.1999511719</ele>
        <time>2016-05-06T09:07:03Z</time>
      </trkpt>
      <trkpt lat="44.48204" lon="5.93923">
        <ele>1349.5999755859</ele>
        <time>2016-05-06T09:07:09Z</time>
      </trkpt>
      <trkpt lat="44.48203" lon="5.93924">
        <ele>1350</ele>
        <time>2016-05-06T09:07:10Z</time>
      </trkpt>
      <trkpt lat="44.48201" lon="5.93925">
        <ele>1350.5999755859</ele>
        <time>2016-05-06T09:07:11Z</time>
      </trkpt>
      <trkpt lat="44.48199" lon="5.93928">
        <ele>1351</ele>
        <time>2016-05-06T09:07:13Z</time>
      </trkpt>
      <trkpt lat="44.48197" lon="5.9393">
        <ele>1351.4000244141</ele>
        <time>2016-05-06T09:07:14Z</time>
      </trkpt>
      <trkpt lat="44.48193" lon="5.93934">
        <ele>1351.4000244141</ele>
        <time>2016-05-06T09:07:18Z</time>
      </trkpt>
      <trkpt lat="44.48192" lon="5.93935">
        <ele>1351.8000488281</ele>
        <time>2016-05-06T09:07:19Z</time>
      </trkpt>
      <trkpt lat="44.48191" lon="5.93937">
        <ele>1352.1999511719</ele>
        <time>2016-05-06T09:07:20Z</time>
      </trkpt>
      <trkpt lat="44.48189" lon="5.9394">
        <ele>1352.5999755859</ele>
        <time>2016-05-06T09:07:22Z</time>
      </trkpt>
      <trkpt lat="44.48188" lon="5.93941">
        <ele>1353</ele>
        <time>2016-05-06T09:07:23Z</time>
      </trkpt>
      <trkpt lat="44.48187" lon="5.93942">
        <ele>1353.5999755859</ele>
        <time>2016-05-06T09:07:24Z</time>
      </trkpt>
      <trkpt lat="44.48185" lon="5.93945">
        <ele>1353.5999755859</ele>
        <time>2016-05-06T09:07:26Z</time>
      </trkpt>
      <trkpt lat="44.48177" lon="5.93957">
        <ele>1354</ele>
        <time>2016-05-06T09:07:34Z</time>
      </trkpt>
      <trkpt lat="44.48177" lon="5.93958">
        <ele>1354.4000244141</ele>
        <time>2016-05-06T09:07:35Z</time>
      </trkpt>
      <trkpt lat="44.48177" lon="5.9396">
        <ele>1354.8000488281</ele>
        <time>2016-05-06T09:07:36Z</time>
      </trkpt>
      <trkpt lat="44.48175" lon="5.93962">
        <ele>1355.1999511719</ele>
        <time>2016-05-06T09:07:38Z</time>
      </trkpt>
      <trkpt lat="44.48174" lon="5.93964">
        <ele>1355.5999755859</ele>
        <time>2016-05-06T09:07:39Z</time>
      </trkpt>
      <trkpt lat="44.48172" lon="5.93967">
        <ele>1355.5999755859</ele>
        <time>2016-05-06T09:07:42Z</time>
      </trkpt>
      <trkpt lat="44.48167" lon="5.93978">
        <ele>1356</ele>
        <time>2016-05-06T09:07:48Z</time>
      </trkpt>
      <trkpt lat="44.48165" lon="5.9398">
        <ele>1356.4000244141</ele>
        <time>2016-05-06T09:07:50Z</time>
      </trkpt>
      <trkpt lat="44.48163" lon="5.93982">
        <ele>1356.8000488281</ele>
        <time>2016-05-06T09:07:51Z</time>
      </trkpt>
      <trkpt lat="44.48161" lon="5.93983">
        <ele>1357.1999511719</ele>
        <time>2016-05-06T09:07:52Z</time>
      </trkpt>
      <trkpt lat="44.48158" lon="5.93985">
        <ele>1357.5999755859</ele>
        <time>2016-05-06T09:07:54Z</time>
      </trkpt>
      <trkpt lat="44.48154" lon="5.93988">
        <ele>1357.5999755859</ele>
        <time>2016-05-06T09:07:58Z</time>
      </trkpt>
      <trkpt lat="44.48145" lon="5.93993">
        <ele>1358</ele>
        <time>2016-05-06T09:08:04Z</time>
      </trkpt>
      <trkpt lat="44.48143" lon="5.93994">
        <ele>1358.4000244141</ele>
        <time>2016-05-06T09:08:05Z</time>
      </trkpt>
      <trkpt lat="44.48141" lon="5.93996">
        <ele>1358.8000488281</ele>
        <time>2016-05-06T09:08:07Z</time>
      </trkpt>
      <trkpt lat="44.4814" lon="5.93998">
        <ele>1359.1999511719</ele>
        <time>2016-05-06T09:08:08Z</time>
      </trkpt>
      <trkpt lat="44.48138" lon="5.93999">
        <ele>1359.5999755859</ele>
        <time>2016-05-06T09:08:09Z</time>
      </trkpt>
      <trkpt lat="44.4813" lon="5.94009">
        <ele>1359.5999755859</ele>
        <time>2016-05-06T09:08:17Z</time>
      </trkpt>
      <trkpt lat="44.48127" lon="5.94011">
        <ele>1360.1999511719</ele>
        <time>2016-05-06T09:08:19Z</time>
      </trkpt>
      <trkpt lat="44.48126" lon="5.94014">
        <ele>1360.5999755859</ele>
        <time>2016-05-06T09:08:21Z</time>
      </trkpt>
      <trkpt lat="44.48125" lon="5.94015">
        <ele>1361.5999755859</ele>
        <time>2016-05-06T09:08:22Z</time>
      </trkpt>
      <trkpt lat="44.48125" lon="5.94016">
        <ele>1362.1999511719</ele>
        <time>2016-05-06T09:08:23Z</time>
      </trkpt>
      <trkpt lat="44.4812" lon="5.94022">
        <ele>1362.1999511719</ele>
        <time>2016-05-06T09:08:28Z</time>
      </trkpt>
      <trkpt lat="44.48115" lon="5.94029">
        <ele>1363</ele>
        <time>2016-05-06T09:08:34Z</time>
      </trkpt>
      <trkpt lat="44.48114" lon="5.9403">
        <ele>1363.4000244141</ele>
        <time>2016-05-06T09:08:35Z</time>
      </trkpt>
      <trkpt lat="44.48113" lon="5.94033">
        <ele>1364.4000244141</ele>
        <time>2016-05-06T09:08:37Z</time>
      </trkpt>
      <trkpt lat="44.4811" lon="5.94038">
        <ele>1364.4000244141</ele>
        <time>2016-05-06T09:08:40Z</time>
      </trkpt>
      <trkpt lat="44.48103" lon="5.94052">
        <ele>1364.8000488281</ele>
        <time>2016-05-06T09:08:49Z</time>
      </trkpt>
      <trkpt lat="44.48102" lon="5.94053">
        <ele>1365.1999511719</ele>
        <time>2016-05-06T09:08:50Z</time>
      </trkpt>
      <trkpt lat="44.481" lon="5.94055">
        <ele>1365.5999755859</ele>
        <time>2016-05-06T09:08:52Z</time>
      </trkpt>
      <trkpt lat="44.481" lon="5.94056">
        <ele>1366</ele>
        <time>2016-05-06T09:08:53Z</time>
      </trkpt>
      <trkpt lat="44.48099" lon="5.94058">
        <ele>1366.5999755859</ele>
        <time>2016-05-06T09:08:54Z</time>
      </trkpt>
      <trkpt lat="44.48094" lon="5.94065">
        <ele>1367</ele>
        <time>2016-05-06T09:08:59Z</time>
      </trkpt>
      <trkpt lat="44.48093" lon="5.94067">
        <ele>1367</ele>
        <time>2016-05-06T09:09:00Z</time>
      </trkpt>
      <trkpt lat="44.48092" lon="5.94068">
        <ele>1367.4000244141</ele>
        <time>2016-05-06T09:09:01Z</time>
      </trkpt>
      <trkpt lat="44.48091" lon="5.9407">
        <ele>1367.8000488281</ele>
        <time>2016-05-06T09:09:02Z</time>
      </trkpt>
      <trkpt lat="44.48088" lon="5.94073">
        <ele>1368.1999511719</ele>
        <time>2016-05-06T09:09:05Z</time>
      </trkpt>
      <trkpt lat="44.48088" lon="5.94075">
        <ele>1368.5999755859</ele>
        <time>2016-05-06T09:09:06Z</time>
      </trkpt>
      <trkpt lat="44.48081" lon="5.94086">
        <ele>1368.5999755859</ele>
        <time>2016-05-06T09:09:14Z</time>
      </trkpt>
      <trkpt lat="44.48079" lon="5.9409">
        <ele>1369</ele>
        <time>2016-05-06T09:09:17Z</time>
      </trkpt>
      <trkpt lat="44.48077" lon="5.94091">
        <ele>1369.4000244141</ele>
        <time>2016-05-06T09:09:18Z</time>
      </trkpt>
      <trkpt lat="44.48076" lon="5.94093">
        <ele>1370.4000244141</ele>
        <time>2016-05-06T09:09:19Z</time>
      </trkpt>
      <trkpt lat="44.48074" lon="5.94096">
        <ele>1370.8000488281</ele>
        <time>2016-05-06T09:09:21Z</time>
      </trkpt>
      <trkpt lat="44.48073" lon="5.94097">
        <ele>1370.8000488281</ele>
        <time>2016-05-06T09:09:22Z</time>
      </trkpt>
      <trkpt lat="44.48067" lon="5.94106">
        <ele>1371.1999511719</ele>
        <time>2016-05-06T09:09:29Z</time>
      </trkpt>
      <trkpt lat="44.48066" lon="5.94108">
        <ele>1371.5999755859</ele>
        <time>2016-05-06T09:09:30Z</time>
      </trkpt>
      <trkpt lat="44.48066" lon="5.94109">
        <ele>1372.1999511719</ele>
        <time>2016-05-06T09:09:31Z</time>
      </trkpt>
      <trkpt lat="44.48065" lon="5.9411">
        <ele>1372.1999511719</ele>
        <time>2016-05-06T09:09:32Z</time>
      </trkpt>
      <trkpt lat="44.48064" lon="5.94111">
        <ele>1372.5999755859</ele>
        <time>2016-05-06T09:09:33Z</time>
      </trkpt>
      <trkpt lat="44.48063" lon="5.94113">
        <ele>1373</ele>
        <time>2016-05-06T09:09:34Z</time>
      </trkpt>
      <trkpt lat="44.48059" lon="5.94119">
        <ele>1373.4000244141</ele>
        <time>2016-05-06T09:09:39Z</time>
      </trkpt>
      <trkpt lat="44.48058" lon="5.9412">
        <ele>1374</ele>
        <time>2016-05-06T09:09:40Z</time>
      </trkpt>
      <trkpt lat="44.48057" lon="5.94121">
        <ele>1374.4000244141</ele>
        <time>2016-05-06T09:09:41Z</time>
      </trkpt>
      <trkpt lat="44.48055" lon="5.94122">
        <ele>1374.4000244141</ele>
        <time>2016-05-06T09:09:42Z</time>
      </trkpt>
      <trkpt lat="44.48054" lon="5.94123">
        <ele>1375</ele>
        <time>2016-05-06T09:09:43Z</time>
      </trkpt>
      <trkpt lat="44.48051" lon="5.94126">
        <ele>1375.4000244141</ele>
        <time>2016-05-06T09:09:45Z</time>
      </trkpt>
      <trkpt lat="44.4804" lon="5.94132">
        <ele>1375.4000244141</ele>
        <time>2016-05-06T09:09:53Z</time>
      </trkpt>
      <trkpt lat="44.48039" lon="5.94133">
        <ele>1375.8000488281</ele>
        <time>2016-05-06T09:09:54Z</time>
      </trkpt>
      <trkpt lat="44.48037" lon="5.94134">
        <ele>1376.1999511719</ele>
        <time>2016-05-06T09:09:56Z</time>
      </trkpt>
      <trkpt lat="44.48036" lon="5.94135">
        <ele>1376.5999755859</ele>
        <time>2016-05-06T09:09:57Z</time>
      </trkpt>
      <trkpt lat="44.48035" lon="5.94135">
        <ele>1377</ele>
        <time>2016-05-06T09:09:58Z</time>
      </trkpt>
      <trkpt lat="44.48033" lon="5.94137">
        <ele>1377.4000244141</ele>
        <time>2016-05-06T09:10:00Z</time>
      </trkpt>
      <trkpt lat="44.48031" lon="5.94137">
        <ele>1377.4000244141</ele>
        <time>2016-05-06T09:10:02Z</time>
      </trkpt>
      <trkpt lat="44.48024" lon="5.94139">
        <ele>1377.8000488281</ele>
        <time>2016-05-06T09:10:08Z</time>
      </trkpt>
      <trkpt lat="44.48023" lon="5.9414">
        <ele>1378.1999511719</ele>
        <time>2016-05-06T09:10:09Z</time>
      </trkpt>
      <trkpt lat="44.48021" lon="5.9414">
        <ele>1379.1999511719</ele>
        <time>2016-05-06T09:10:10Z</time>
      </trkpt>
      <trkpt lat="44.48019" lon="5.94141">
        <ele>1379.5999755859</ele>
        <time>2016-05-06T09:10:12Z</time>
      </trkpt>
      <trkpt lat="44.48016" lon="5.94141">
        <ele>1379.5999755859</ele>
        <time>2016-05-06T09:10:14Z</time>
      </trkpt>
      <trkpt lat="44.48008" lon="5.94144">
        <ele>1380</ele>
        <time>2016-05-06T09:10:21Z</time>
      </trkpt>
      <trkpt lat="44.48007" lon="5.94146">
        <ele>1380.4000244141</ele>
        <time>2016-05-06T09:10:22Z</time>
      </trkpt>
      <trkpt lat="44.48005" lon="5.94147">
        <ele>1380.8000488281</ele>
        <time>2016-05-06T09:10:23Z</time>
      </trkpt>
      <trkpt lat="44.48003" lon="5.94148">
        <ele>1381.1999511719</ele>
        <time>2016-05-06T09:10:25Z</time>
      </trkpt>
      <trkpt lat="44.48001" lon="5.94149">
        <ele>1381.5999755859</ele>
        <time>2016-05-06T09:10:26Z</time>
      </trkpt>
      <trkpt lat="44.47998" lon="5.94151">
        <ele>1381.5999755859</ele>
        <time>2016-05-06T09:10:29Z</time>
      </trkpt>
      <trkpt lat="44.47988" lon="5.94155">
        <ele>1382</ele>
        <time>2016-05-06T09:10:36Z</time>
      </trkpt>
      <trkpt lat="44.47987" lon="5.94155">
        <ele>1382.4000244141</ele>
        <time>2016-05-06T09:10:37Z</time>
      </trkpt>
      <trkpt lat="44.47985" lon="5.94156">
        <ele>1382.8000488281</ele>
        <time>2016-05-06T09:10:38Z</time>
      </trkpt>
      <trkpt lat="44.47985" lon="5.94157">
        <ele>1383.1999511719</ele>
        <time>2016-05-06T09:10:39Z</time>
      </trkpt>
      <trkpt lat="44.47984" lon="5.94157">
        <ele>1383.1999511719</ele>
        <time>2016-05-06T09:10:40Z</time>
      </trkpt>
      <trkpt lat="44.47983" lon="5.94158">
        <ele>1383.8000488281</ele>
        <time>2016-05-06T09:10:41Z</time>
      </trkpt>
      <trkpt lat="44.47977" lon="5.94162">
        <ele>1383.8000488281</ele>
        <time>2016-05-06T09:10:47Z</time>
      </trkpt>
      <trkpt lat="44.47974" lon="5.94163">
        <ele>1384.1999511719</ele>
        <time>2016-05-06T09:10:49Z</time>
      </trkpt>
      <trkpt lat="44.4797" lon="5.94164">
        <ele>1384.5999755859</ele>
        <time>2016-05-06T09:10:51Z</time>
      </trkpt>
      <trkpt lat="44.47969" lon="5.94164">
        <ele>1385</ele>
        <time>2016-05-06T09:10:52Z</time>
      </trkpt>
      <trkpt lat="44.47967" lon="5.94165">
        <ele>1385.4000244141</ele>
        <time>2016-05-06T09:10:53Z</time>
      </trkpt>
      <trkpt lat="44.47966" lon="5.94166">
        <ele>1385.8000488281</ele>
        <time>2016-05-06T09:10:54Z</time>
      </trkpt>
      <trkpt lat="44.47962" lon="5.94168">
        <ele>1385.8000488281</ele>
        <time>2016-05-06T09:10:57Z</time>
      </trkpt>
      <trkpt lat="44.47958" lon="5.94171">
        <ele>1386.1999511719</ele>
        <time>2016-05-06T09:11:00Z</time>
      </trkpt>
      <trkpt lat="44.47956" lon="5.94171">
        <ele>1387</ele>
        <time>2016-05-06T09:11:01Z</time>
      </trkpt>
      <trkpt lat="44.47955" lon="5.94172">
        <ele>1387.4000244141</ele>
        <time>2016-05-06T09:11:02Z</time>
      </trkpt>
      <trkpt lat="44.47951" lon="5.94174">
        <ele>1387.8000488281</ele>
        <time>2016-05-06T09:11:05Z</time>
      </trkpt>
      <trkpt lat="44.47947" lon="5.94177">
        <ele>1387.8000488281</ele>
        <time>2016-05-06T09:11:08Z</time>
      </trkpt>
      <trkpt lat="44.47945" lon="5.94179">
        <ele>1388.1999511719</ele>
        <time>2016-05-06T09:11:11Z</time>
      </trkpt>
      <trkpt lat="44.47944" lon="5.9418">
        <ele>1388.8000488281</ele>
        <time>2016-05-06T09:11:12Z</time>
      </trkpt>
      <trkpt lat="44.47943" lon="5.9418">
        <ele>1389.1999511719</ele>
        <time>2016-05-06T09:11:13Z</time>
      </trkpt>
      <trkpt lat="44.47942" lon="5.94181">
        <ele>1389.5999755859</ele>
        <time>2016-05-06T09:11:14Z</time>
      </trkpt>
      <trkpt lat="44.4794" lon="5.94182">
        <ele>1390</ele>
        <time>2016-05-06T09:11:16Z</time>
      </trkpt>
      <trkpt lat="44.47937" lon="5.94183">
        <ele>1390</ele>
        <time>2016-05-06T09:11:19Z</time>
      </trkpt>
      <trkpt lat="44.47931" lon="5.94193">
        <ele>1390</ele>
        <time>2016-05-06T09:11:25Z</time>
      </trkpt>
      <trkpt lat="44.47928" lon="5.94196">
        <ele>1390.4000244141</ele>
        <time>2016-05-06T09:11:28Z</time>
      </trkpt>
      <trkpt lat="44.47927" lon="5.94197">
        <ele>1390.8000488281</ele>
        <time>2016-05-06T09:11:29Z</time>
      </trkpt>
      <trkpt lat="44.47923" lon="5.94201">
        <ele>1391.5999755859</ele>
        <time>2016-05-06T09:11:33Z</time>
      </trkpt>
      <trkpt lat="44.47923" lon="5.94203">
        <ele>1392</ele>
        <time>2016-05-06T09:11:34Z</time>
      </trkpt>
      <trkpt lat="44.47918" lon="5.94211">
        <ele>1392.4000244141</ele>
        <time>2016-05-06T09:11:40Z</time>
      </trkpt>
      <trkpt lat="44.47916" lon="5.94214">
        <ele>1393.1999511719</ele>
        <time>2016-05-06T09:11:42Z</time>
      </trkpt>
      <trkpt lat="44.47915" lon="5.94217">
        <ele>1393.5999755859</ele>
        <time>2016-05-06T09:11:44Z</time>
      </trkpt>
      <trkpt lat="44.47913" lon="5.9422">
        <ele>1394</ele>
        <time>2016-05-06T09:11:46Z</time>
      </trkpt>
      <trkpt lat="44.47908" lon="5.9423">
        <ele>1394.4000244141</ele>
        <time>2016-05-06T09:11:54Z</time>
      </trkpt>
      <trkpt lat="44.47907" lon="5.94232">
        <ele>1395.1999511719</ele>
        <time>2016-05-06T09:11:55Z</time>
      </trkpt>
      <trkpt lat="44.47907" lon="5.94233">
        <ele>1395.8000488281</ele>
        <time>2016-05-06T09:11:56Z</time>
      </trkpt>
      <trkpt lat="44.47906" lon="5.94234">
        <ele>1396.1999511719</ele>
        <time>2016-05-06T09:11:57Z</time>
      </trkpt>
      <trkpt lat="44.47899" lon="5.94243">
        <ele>1396.1999511719</ele>
        <time>2016-05-06T09:12:04Z</time>
      </trkpt>
      <trkpt lat="44.47894" lon="5.94247">
        <ele>1396.5999755859</ele>
        <time>2016-05-06T09:12:08Z</time>
      </trkpt>
      <trkpt lat="44.47893" lon="5.9425">
        <ele>1397</ele>
        <time>2016-05-06T09:12:10Z</time>
      </trkpt>
      <trkpt lat="44.47892" lon="5.94251">
        <ele>1397.4000244141</ele>
        <time>2016-05-06T09:12:11Z</time>
      </trkpt>
      <trkpt lat="44.47891" lon="5.94251">
        <ele>1398</ele>
        <time>2016-05-06T09:12:12Z</time>
      </trkpt>
      <trkpt lat="44.4789" lon="5.94254">
        <ele>1398.4000244141</ele>
        <time>2016-05-06T09:12:14Z</time>
      </trkpt>
      <trkpt lat="44.47885" lon="5.94263">
        <ele>1398.4000244141</ele>
        <time>2016-05-06T09:12:21Z</time>
      </trkpt>
      <trkpt lat="44.47884" lon="5.94265">
        <ele>1398.8000488281</ele>
        <time>2016-05-06T09:12:22Z</time>
      </trkpt>
      <trkpt lat="44.47882" lon="5.94272">
        <ele>1399.5999755859</ele>
        <time>2016-05-06T09:12:26Z</time>
      </trkpt>
      <trkpt lat="44.47881" lon="5.94274">
        <ele>1400</ele>
        <time>2016-05-06T09:12:27Z</time>
      </trkpt>
      <trkpt lat="44.47881" lon="5.94278">
        <ele>1400.4000244141</ele>
        <time>2016-05-06T09:12:29Z</time>
      </trkpt>
      <trkpt lat="44.4788" lon="5.94284">
        <ele>1400.4000244141</ele>
        <time>2016-05-06T09:12:32Z</time>
      </trkpt>
      <trkpt lat="44.47879" lon="5.94293">
        <ele>1400.8000488281</ele>
        <time>2016-05-06T09:12:37Z</time>
      </trkpt>
      <trkpt lat="44.4788" lon="5.94295">
        <ele>1401.1999511719</ele>
        <time>2016-05-06T09:12:38Z</time>
      </trkpt>
      <trkpt lat="44.47879" lon="5.94296">
        <ele>1401.5999755859</ele>
        <time>2016-05-06T09:12:39Z</time>
      </trkpt>
      <trkpt lat="44.4788" lon="5.943">
        <ele>1402</ele>
        <time>2016-05-06T09:12:41Z</time>
      </trkpt>
      <trkpt lat="44.4788" lon="5.94302">
        <ele>1402.4000244141</ele>
        <time>2016-05-06T09:12:42Z</time>
      </trkpt>
      <trkpt lat="44.47881" lon="5.94306">
        <ele>1402.4000244141</ele>
        <time>2016-05-06T09:12:44Z</time>
      </trkpt>
      <trkpt lat="44.47879" lon="5.94326">
        <ele>1402.8000488281</ele>
        <time>2016-05-06T09:12:53Z</time>
      </trkpt>
      <trkpt lat="44.47878" lon="5.94332">
        <ele>1403.5999755859</ele>
        <time>2016-05-06T09:12:55Z</time>
      </trkpt>
      <trkpt lat="44.47877" lon="5.94336">
        <ele>1404.4000244141</ele>
        <time>2016-05-06T09:12:57Z</time>
      </trkpt>
      <trkpt lat="44.47872" lon="5.94349">
        <ele>1404.4000244141</ele>
        <time>2016-05-06T09:13:04Z</time>
      </trkpt>
      <trkpt lat="44.47869" lon="5.94356">
        <ele>1404.8000488281</ele>
        <time>2016-05-06T09:13:08Z</time>
      </trkpt>
      <trkpt lat="44.47868" lon="5.94357">
        <ele>1405.1999511719</ele>
        <time>2016-05-06T09:13:09Z</time>
      </trkpt>
      <trkpt lat="44.47866" lon="5.94361">
        <ele>1406.1999511719</ele>
        <time>2016-05-06T09:13:11Z</time>
      </trkpt>
      <trkpt lat="44.47863" lon="5.94363">
        <ele>1406.5999755859</ele>
        <time>2016-05-06T09:13:13Z</time>
      </trkpt>
      <trkpt lat="44.47855" lon="5.94373">
        <ele>1406.5999755859</ele>
        <time>2016-05-06T09:13:20Z</time>
      </trkpt>
      <trkpt lat="44.47853" lon="5.94375">
        <ele>1407</ele>
        <time>2016-05-06T09:13:22Z</time>
      </trkpt>
      <trkpt lat="44.47851" lon="5.94376">
        <ele>1407.4000244141</ele>
        <time>2016-05-06T09:13:23Z</time>
      </trkpt>
      <trkpt lat="44.4785" lon="5.94377">
        <ele>1408</ele>
        <time>2016-05-06T09:13:24Z</time>
      </trkpt>
      <trkpt lat="44.47848" lon="5.94377">
        <ele>1408.4000244141</ele>
        <time>2016-05-06T09:13:25Z</time>
      </trkpt>
      <trkpt lat="44.47845" lon="5.94379">
        <ele>1408.8000488281</ele>
        <time>2016-05-06T09:13:27Z</time>
      </trkpt>
      <trkpt lat="44.47837" lon="5.9438">
        <ele>1408.8000488281</ele>
        <time>2016-05-06T09:13:32Z</time>
      </trkpt>
      <trkpt lat="44.47828" lon="5.94383">
        <ele>1409.1999511719</ele>
        <time>2016-05-06T09:13:38Z</time>
      </trkpt>
      <trkpt lat="44.47826" lon="5.94384">
        <ele>1409.8000488281</ele>
        <time>2016-05-06T09:13:39Z</time>
      </trkpt>
      <trkpt lat="44.47825" lon="5.94384">
        <ele>1410.1999511719</ele>
        <time>2016-05-06T09:13:40Z</time>
      </trkpt>
      <trkpt lat="44.47822" lon="5.94385">
        <ele>1410.5999755859</ele>
        <time>2016-05-06T09:13:42Z</time>
      </trkpt>
      <trkpt lat="44.4782" lon="5.94386">
        <ele>1410.5999755859</ele>
        <time>2016-05-06T09:13:44Z</time>
      </trkpt>
      <trkpt lat="44.47818" lon="5.94386">
        <ele>1411</ele>
        <time>2016-05-06T09:13:45Z</time>
      </trkpt>
      <trkpt lat="44.47814" lon="5.94388">
        <ele>1411.4000244141</ele>
        <time>2016-05-06T09:13:48Z</time>
      </trkpt>
      <trkpt lat="44.47813" lon="5.94388">
        <ele>1411.8000488281</ele>
        <time>2016-05-06T09:13:49Z</time>
      </trkpt>
      <trkpt lat="44.47812" lon="5.94388">
        <ele>1412.1999511719</ele>
        <time>2016-05-06T09:13:50Z</time>
      </trkpt>
      <trkpt lat="44.47811" lon="5.94388">
        <ele>1412.5999755859</ele>
        <time>2016-05-06T09:13:51Z</time>
      </trkpt>
      <trkpt lat="44.47808" lon="5.94388">
        <ele>1413</ele>
        <time>2016-05-06T09:13:53Z</time>
      </trkpt>
      <trkpt lat="44.47806" lon="5.94389">
        <ele>1413</ele>
        <time>2016-05-06T09:13:55Z</time>
      </trkpt>
      <trkpt lat="44.47794" lon="5.94392">
        <ele>1413</ele>
        <time>2016-05-06T09:14:02Z</time>
      </trkpt>
      <trkpt lat="44.47791" lon="5.94392">
        <ele>1413.8000488281</ele>
        <time>2016-05-06T09:14:04Z</time>
      </trkpt>
      <trkpt lat="44.47789" lon="5.94392">
        <ele>1414.1999511719</ele>
        <time>2016-05-06T09:14:05Z</time>
      </trkpt>
      <trkpt lat="44.47787" lon="5.94391">
        <ele>1414.5999755859</ele>
        <time>2016-05-06T09:14:07Z</time>
      </trkpt>
      <trkpt lat="44.47785" lon="5.94391">
        <ele>1415</ele>
        <time>2016-05-06T09:14:08Z</time>
      </trkpt>
      <trkpt lat="44.4778" lon="5.94389">
        <ele>1415</ele>
        <time>2016-05-06T09:14:12Z</time>
      </trkpt>
      <trkpt lat="44.47772" lon="5.94386">
        <ele>1415.4000244141</ele>
        <time>2016-05-06T09:14:18Z</time>
      </trkpt>
      <trkpt lat="44.4777" lon="5.94386">
        <ele>1415.8000488281</ele>
        <time>2016-05-06T09:14:19Z</time>
      </trkpt>
      <trkpt lat="44.47769" lon="5.94385">
        <ele>1415.8000488281</ele>
        <time>2016-05-06T09:14:20Z</time>
      </trkpt>
      <trkpt lat="44.47766" lon="5.94385">
        <ele>1416.5999755859</ele>
        <time>2016-05-06T09:14:22Z</time>
      </trkpt>
      <trkpt lat="44.47764" lon="5.94384">
        <ele>1417</ele>
        <time>2016-05-06T09:14:24Z</time>
      </trkpt>
      <trkpt lat="44.47758" lon="5.94382">
        <ele>1417</ele>
        <time>2016-05-06T09:14:28Z</time>
      </trkpt>
      <trkpt lat="44.47755" lon="5.94381">
        <ele>1417.4000244141</ele>
        <time>2016-05-06T09:14:31Z</time>
      </trkpt>
      <trkpt lat="44.47752" lon="5.94381">
        <ele>1417.8000488281</ele>
        <time>2016-05-06T09:14:33Z</time>
      </trkpt>
      <trkpt lat="44.4775" lon="5.9438">
        <ele>1418.1999511719</ele>
        <time>2016-05-06T09:14:34Z</time>
      </trkpt>
      <trkpt lat="44.47749" lon="5.9438">
        <ele>1418.5999755859</ele>
        <time>2016-05-06T09:14:35Z</time>
      </trkpt>
      <trkpt lat="44.47747" lon="5.94381">
        <ele>1418.5999755859</ele>
        <time>2016-05-06T09:14:36Z</time>
      </trkpt>
      <trkpt lat="44.47746" lon="5.94381">
        <ele>1419</ele>
        <time>2016-05-06T09:14:37Z</time>
      </trkpt>
      <trkpt lat="44.47738" lon="5.94381">
        <ele>1419</ele>
        <time>2016-05-06T09:14:43Z</time>
      </trkpt>
      <trkpt lat="44.47732" lon="5.94381">
        <ele>1419.4000244141</ele>
        <time>2016-05-06T09:14:47Z</time>
      </trkpt>
      <trkpt lat="44.47731" lon="5.9438">
        <ele>1420</ele>
        <time>2016-05-06T09:14:48Z</time>
      </trkpt>
      <trkpt lat="44.47728" lon="5.9438">
        <ele>1420.4000244141</ele>
        <time>2016-05-06T09:14:50Z</time>
      </trkpt>
      <trkpt lat="44.47725" lon="5.9438">
        <ele>1420.8000488281</ele>
        <time>2016-05-06T09:14:52Z</time>
      </trkpt>
      <trkpt lat="44.47724" lon="5.9438">
        <ele>1421.1999511719</ele>
        <time>2016-05-06T09:14:53Z</time>
      </trkpt>
      <trkpt lat="44.47722" lon="5.94381">
        <ele>1421.1999511719</ele>
        <time>2016-05-06T09:14:54Z</time>
      </trkpt>
      <trkpt lat="44.47712" lon="5.94387">
        <ele>1421.5999755859</ele>
        <time>2016-05-06T09:15:01Z</time>
      </trkpt>
      <trkpt lat="44.4771" lon="5.94389">
        <ele>1422</ele>
        <time>2016-05-06T09:15:03Z</time>
      </trkpt>
      <trkpt lat="44.47709" lon="5.94389">
        <ele>1422.5999755859</ele>
        <time>2016-05-06T09:15:04Z</time>
      </trkpt>
      <trkpt lat="44.47707" lon="5.9439">
        <ele>1423</ele>
        <time>2016-05-06T09:15:05Z</time>
      </trkpt>
      <trkpt lat="44.47705" lon="5.9439">
        <ele>1423.4000244141</ele>
        <time>2016-05-06T09:15:07Z</time>
      </trkpt>
      <trkpt lat="44.47701" lon="5.94392">
        <ele>1423.4000244141</ele>
        <time>2016-05-06T09:15:11Z</time>
      </trkpt>
      <trkpt lat="44.47699" lon="5.94393">
        <ele>1423.8000488281</ele>
        <time>2016-05-06T09:15:12Z</time>
      </trkpt>
      <trkpt lat="44.47698" lon="5.94394">
        <ele>1424.1999511719</ele>
        <time>2016-05-06T09:15:13Z</time>
      </trkpt>
      <trkpt lat="44.47697" lon="5.94394">
        <ele>1424.5999755859</ele>
        <time>2016-05-06T09:15:14Z</time>
      </trkpt>
      <trkpt lat="44.47695" lon="5.94396">
        <ele>1425</ele>
        <time>2016-05-06T09:15:16Z</time>
      </trkpt>
      <trkpt lat="44.47693" lon="5.94396">
        <ele>1425.4000244141</ele>
        <time>2016-05-06T09:15:17Z</time>
      </trkpt>
      <trkpt lat="44.47684" lon="5.94405">
        <ele>1425.8000488281</ele>
        <time>2016-05-06T09:15:25Z</time>
      </trkpt>
      <trkpt lat="44.47683" lon="5.94406">
        <ele>1426.4000244141</ele>
        <time>2016-05-06T09:15:26Z</time>
      </trkpt>
      <trkpt lat="44.4768" lon="5.94408">
        <ele>1427.1999511719</ele>
        <time>2016-05-06T09:15:28Z</time>
      </trkpt>
      <trkpt lat="44.47679" lon="5.94409">
        <ele>1427.5999755859</ele>
        <time>2016-05-06T09:15:29Z</time>
      </trkpt>
      <trkpt lat="44.47673" lon="5.94416">
        <ele>1427.5999755859</ele>
        <time>2016-05-06T09:15:36Z</time>
      </trkpt>
      <trkpt lat="44.47665" lon="5.94422">
        <ele>1428</ele>
        <time>2016-05-06T09:15:42Z</time>
      </trkpt>
      <trkpt lat="44.47664" lon="5.94422">
        <ele>1428.4000244141</ele>
        <time>2016-05-06T09:15:43Z</time>
      </trkpt>
      <trkpt lat="44.47663" lon="5.94423">
        <ele>1428.4000244141</ele>
        <time>2016-05-06T09:15:44Z</time>
      </trkpt>
      <trkpt lat="44.4766" lon="5.94424">
        <ele>1428.8000488281</ele>
        <time>2016-05-06T09:15:46Z</time>
      </trkpt>
      <trkpt lat="44.4766" lon="5.94425">
        <ele>1429.1999511719</ele>
        <time>2016-05-06T09:15:47Z</time>
      </trkpt>
      <trkpt lat="44.47659" lon="5.94426">
        <ele>1429.5999755859</ele>
        <time>2016-05-06T09:15:48Z</time>
      </trkpt>
      <trkpt lat="44.47653" lon="5.9443">
        <ele>1429.5999755859</ele>
        <time>2016-05-06T09:15:52Z</time>
      </trkpt>
      <trkpt lat="44.47647" lon="5.94435">
        <ele>1430</ele>
        <time>2016-05-06T09:15:57Z</time>
      </trkpt>
      <trkpt lat="44.47646" lon="5.94436">
        <ele>1430.4000244141</ele>
        <time>2016-05-06T09:15:59Z</time>
      </trkpt>
      <trkpt lat="44.47644" lon="5.94437">
        <ele>1430.8000488281</ele>
        <time>2016-05-06T09:16:00Z</time>
      </trkpt>
      <trkpt lat="44.4764" lon="5.9444">
        <ele>1431.5999755859</ele>
        <time>2016-05-06T09:16:03Z</time>
      </trkpt>
      <trkpt lat="44.47631" lon="5.94448">
        <ele>1432.1999511719</ele>
        <time>2016-05-06T09:16:09Z</time>
      </trkpt>
      <trkpt lat="44.47628" lon="5.9445">
        <ele>1432.5999755859</ele>
        <time>2016-05-06T09:16:11Z</time>
      </trkpt>
      <trkpt lat="44.47626" lon="5.94452">
        <ele>1433</ele>
        <time>2016-05-06T09:16:13Z</time>
      </trkpt>
      <trkpt lat="44.47626" lon="5.94453">
        <ele>1433.4000244141</ele>
        <time>2016-05-06T09:16:14Z</time>
      </trkpt>
      <trkpt lat="44.47625" lon="5.94453">
        <ele>1433.8000488281</ele>
        <time>2016-05-06T09:16:15Z</time>
      </trkpt>
      <trkpt lat="44.47622" lon="5.94455">
        <ele>1433.8000488281</ele>
        <time>2016-05-06T09:16:17Z</time>
      </trkpt>
      <trkpt lat="44.47614" lon="5.94459">
        <ele>1434.4000244141</ele>
        <time>2016-05-06T09:16:22Z</time>
      </trkpt>
      <trkpt lat="44.47613" lon="5.94459">
        <ele>1434.8000488281</ele>
        <time>2016-05-06T09:16:23Z</time>
      </trkpt>
      <trkpt lat="44.4761" lon="5.9446">
        <ele>1434.8000488281</ele>
        <time>2016-05-06T09:16:25Z</time>
      </trkpt>
      <trkpt lat="44.47607" lon="5.94461">
        <ele>1435.1999511719</ele>
        <time>2016-05-06T09:16:27Z</time>
      </trkpt>
      <trkpt lat="44.47607" lon="5.94462">
        <ele>1435.8000488281</ele>
        <time>2016-05-06T09:16:28Z</time>
      </trkpt>
      <trkpt lat="44.47605" lon="5.94463">
        <ele>1436.1999511719</ele>
        <time>2016-05-06T09:16:30Z</time>
      </trkpt>
      <trkpt lat="44.47597" lon="5.94467">
        <ele>1436.1999511719</ele>
        <time>2016-05-06T09:16:36Z</time>
      </trkpt>
      <trkpt lat="44.47595" lon="5.94467">
        <ele>1436.5999755859</ele>
        <time>2016-05-06T09:16:37Z</time>
      </trkpt>
      <trkpt lat="44.47593" lon="5.94469">
        <ele>1437</ele>
        <time>2016-05-06T09:16:39Z</time>
      </trkpt>
      <trkpt lat="44.47593" lon="5.94469">
        <ele>1437.5999755859</ele>
        <time>2016-05-06T09:16:40Z</time>
      </trkpt>
      <trkpt lat="44.47591" lon="5.9447">
        <ele>1438</ele>
        <time>2016-05-06T09:16:41Z</time>
      </trkpt>
      <trkpt lat="44.47588" lon="5.94471">
        <ele>1438.4000244141</ele>
        <time>2016-05-06T09:16:43Z</time>
      </trkpt>
      <trkpt lat="44.47587" lon="5.94472">
        <ele>1438.4000244141</ele>
        <time>2016-05-06T09:16:44Z</time>
      </trkpt>
      <trkpt lat="44.4758" lon="5.94478">
        <ele>1438.8000488281</ele>
        <time>2016-05-06T09:16:51Z</time>
      </trkpt>
      <trkpt lat="44.47578" lon="5.94479">
        <ele>1439.1999511719</ele>
        <time>2016-05-06T09:16:52Z</time>
      </trkpt>
      <trkpt lat="44.47577" lon="5.9448">
        <ele>1439.5999755859</ele>
        <time>2016-05-06T09:16:53Z</time>
      </trkpt>
      <trkpt lat="44.47577" lon="5.9448">
        <ele>1439.5999755859</ele>
        <time>2016-05-06T09:16:54Z</time>
      </trkpt>
      <trkpt lat="44.47575" lon="5.94481">
        <ele>1440</ele>
        <time>2016-05-06T09:16:55Z</time>
      </trkpt>
      <trkpt lat="44.47574" lon="5.94482">
        <ele>1440.4000244141</ele>
        <time>2016-05-06T09:16:56Z</time>
      </trkpt>
      <trkpt lat="44.47566" lon="5.94488">
        <ele>1440.4000244141</ele>
        <time>2016-05-06T09:17:04Z</time>
      </trkpt>
      <trkpt lat="44.47564" lon="5.94489">
        <ele>1440.8000488281</ele>
        <time>2016-05-06T09:17:05Z</time>
      </trkpt>
      <trkpt lat="44.47563" lon="5.9449">
        <ele>1441.1999511719</ele>
        <time>2016-05-06T09:17:06Z</time>
      </trkpt>
      <trkpt lat="44.47559" lon="5.94494">
        <ele>1441.5999755859</ele>
        <time>2016-05-06T09:17:08Z</time>
      </trkpt>
      <trkpt lat="44.47558" lon="5.94494">
        <ele>1442</ele>
        <time>2016-05-06T09:17:09Z</time>
      </trkpt>
      <trkpt lat="44.47557" lon="5.94495">
        <ele>1442.5999755859</ele>
        <time>2016-05-06T09:17:10Z</time>
      </trkpt>
      <trkpt lat="44.47551" lon="5.94499">
        <ele>1442.5999755859</ele>
        <time>2016-05-06T09:17:15Z</time>
      </trkpt>
      <trkpt lat="44.47548" lon="5.94501">
        <ele>1443</ele>
        <time>2016-05-06T09:17:18Z</time>
      </trkpt>
      <trkpt lat="44.47547" lon="5.94503">
        <ele>1443.4000244141</ele>
        <time>2016-05-06T09:17:19Z</time>
      </trkpt>
      <trkpt lat="44.47544" lon="5.94505">
        <ele>1444.1999511719</ele>
        <time>2016-05-06T09:17:21Z</time>
      </trkpt>
      <trkpt lat="44.47543" lon="5.94507">
        <ele>1444.5999755859</ele>
        <time>2016-05-06T09:17:22Z</time>
      </trkpt>
      <trkpt lat="44.4754" lon="5.9451">
        <ele>1444.5999755859</ele>
        <time>2016-05-06T09:17:25Z</time>
      </trkpt>
      <trkpt lat="44.47529" lon="5.94523">
        <ele>1445</ele>
        <time>2016-05-06T09:17:36Z</time>
      </trkpt>
      <trkpt lat="44.47527" lon="5.94525">
        <ele>1445.5999755859</ele>
        <time>2016-05-06T09:17:38Z</time>
      </trkpt>
      <trkpt lat="44.47525" lon="5.94526">
        <ele>1446</ele>
        <time>2016-05-06T09:17:39Z</time>
      </trkpt>
      <trkpt lat="44.47524" lon="5.94527">
        <ele>1446.5999755859</ele>
        <time>2016-05-06T09:17:40Z</time>
      </trkpt>
      <trkpt lat="44.47522" lon="5.94528">
        <ele>1447</ele>
        <time>2016-05-06T09:17:41Z</time>
      </trkpt>
      <trkpt lat="44.47517" lon="5.94533">
        <ele>1447</ele>
        <time>2016-05-06T09:17:46Z</time>
      </trkpt>
      <trkpt lat="44.47511" lon="5.94538">
        <ele>1447.4000244141</ele>
        <time>2016-05-06T09:17:52Z</time>
      </trkpt>
      <trkpt lat="44.47509" lon="5.94539">
        <ele>1447.8000488281</ele>
        <time>2016-05-06T09:17:53Z</time>
      </trkpt>
      <trkpt lat="44.47507" lon="5.94541">
        <ele>1448.1999511719</ele>
        <time>2016-05-06T09:17:55Z</time>
      </trkpt>
      <trkpt lat="44.47506" lon="5.94542">
        <ele>1448.8000488281</ele>
        <time>2016-05-06T09:17:56Z</time>
      </trkpt>
      <trkpt lat="44.47504" lon="5.94544">
        <ele>1449.1999511719</ele>
        <time>2016-05-06T09:17:58Z</time>
      </trkpt>
      <trkpt lat="44.47498" lon="5.94553">
        <ele>1449.1999511719</ele>
        <time>2016-05-06T09:18:05Z</time>
      </trkpt>
      <trkpt lat="44.47495" lon="5.94558">
        <ele>1449.5999755859</ele>
        <time>2016-05-06T09:18:09Z</time>
      </trkpt>
      <trkpt lat="44.47494" lon="5.94559">
        <ele>1450</ele>
        <time>2016-05-06T09:18:10Z</time>
      </trkpt>
      <trkpt lat="44.47493" lon="5.9456">
        <ele>1450.4000244141</ele>
        <time>2016-05-06T09:18:11Z</time>
      </trkpt>
      <trkpt lat="44.47491" lon="5.94561">
        <ele>1451.1999511719</ele>
        <time>2016-05-06T09:18:13Z</time>
      </trkpt>
      <trkpt lat="44.4749" lon="5.94562">
        <ele>1451.1999511719</ele>
        <time>2016-05-06T09:18:14Z</time>
      </trkpt>
      <trkpt lat="44.47484" lon="5.94572">
        <ele>1451.1999511719</ele>
        <time>2016-05-06T09:18:21Z</time>
      </trkpt>
      <trkpt lat="44.47483" lon="5.94574">
        <ele>1451.1999511719</ele>
        <time>2016-05-06T09:18:22Z</time>
      </trkpt>
      <trkpt lat="44.47481" lon="5.94576">
        <ele>1451.5999755859</ele>
        <time>2016-05-06T09:18:24Z</time>
      </trkpt>
      <trkpt lat="44.4748" lon="5.94578">
        <ele>1452</ele>
        <time>2016-05-06T09:18:25Z</time>
      </trkpt>
      <trkpt lat="44.47477" lon="5.9458">
        <ele>1452.5999755859</ele>
        <time>2016-05-06T09:18:27Z</time>
      </trkpt>
      <trkpt lat="44.47475" lon="5.94581">
        <ele>1453</ele>
        <time>2016-05-06T09:18:28Z</time>
      </trkpt>
      <trkpt lat="44.47474" lon="5.94582">
        <ele>1453.4000244141</ele>
        <time>2016-05-06T09:18:29Z</time>
      </trkpt>
      <trkpt lat="44.47464" lon="5.9459">
        <ele>1453.8000488281</ele>
        <time>2016-05-06T09:18:36Z</time>
      </trkpt>
      <trkpt lat="44.47461" lon="5.94593">
        <ele>1454.8000488281</ele>
        <time>2016-05-06T09:18:38Z</time>
      </trkpt>
      <trkpt lat="44.47461" lon="5.94595">
        <ele>1454.8000488281</ele>
        <time>2016-05-06T09:18:39Z</time>
      </trkpt>
      <trkpt lat="44.47459" lon="5.94596">
        <ele>1455.1999511719</ele>
        <time>2016-05-06T09:18:40Z</time>
      </trkpt>
      <trkpt lat="44.47456" lon="5.94599">
        <ele>1455.5999755859</ele>
        <time>2016-05-06T09:18:42Z</time>
      </trkpt>
      <trkpt lat="44.47445" lon="5.94611">
        <ele>1456.1999511719</ele>
        <time>2016-05-06T09:18:51Z</time>
      </trkpt>
      <trkpt lat="44.47443" lon="5.94612">
        <ele>1456.5999755859</ele>
        <time>2016-05-06T09:18:52Z</time>
      </trkpt>
      <trkpt lat="44.47442" lon="5.94612">
        <ele>1457.1999511719</ele>
        <time>2016-05-06T09:18:53Z</time>
      </trkpt>
      <trkpt lat="44.47438" lon="5.94615">
        <ele>1457.5999755859</ele>
        <time>2016-05-06T09:18:55Z</time>
      </trkpt>
      <trkpt lat="44.47437" lon="5.94616">
        <ele>1458.1999511719</ele>
        <time>2016-05-06T09:18:56Z</time>
      </trkpt>
      <trkpt lat="44.47433" lon="5.94619">
        <ele>1458.1999511719</ele>
        <time>2016-05-06T09:18:59Z</time>
      </trkpt>
      <trkpt lat="44.47418" lon="5.94629">
        <ele>1458.5999755859</ele>
        <time>2016-05-06T09:19:09Z</time>
      </trkpt>
      <trkpt lat="44.47417" lon="5.9463">
        <ele>1459</ele>
        <time>2016-05-06T09:19:10Z</time>
      </trkpt>
      <trkpt lat="44.47415" lon="5.94632">
        <ele>1459.5999755859</ele>
        <time>2016-05-06T09:19:11Z</time>
      </trkpt>
      <trkpt lat="44.47412" lon="5.94634">
        <ele>1460</ele>
        <time>2016-05-06T09:19:13Z</time>
      </trkpt>
      <trkpt lat="44.47411" lon="5.94635">
        <ele>1460.4000244141</ele>
        <time>2016-05-06T09:19:14Z</time>
      </trkpt>
      <trkpt lat="44.474" lon="5.9465">
        <ele>1460.4000244141</ele>
        <time>2016-05-06T09:19:23Z</time>
      </trkpt>
      <trkpt lat="44.474" lon="5.94651">
        <ele>1461</ele>
        <time>2016-05-06T09:19:24Z</time>
      </trkpt>
      <trkpt lat="44.47397" lon="5.94653">
        <ele>1461.4000244141</ele>
        <time>2016-05-06T09:19:26Z</time>
      </trkpt>
      <trkpt lat="44.47396" lon="5.94654">
        <ele>1461.8000488281</ele>
        <time>2016-05-06T09:19:27Z</time>
      </trkpt>
      <trkpt lat="44.47393" lon="5.94656">
        <ele>1462.4000244141</ele>
        <time>2016-05-06T09:19:29Z</time>
      </trkpt>
      <trkpt lat="44.47392" lon="5.94656">
        <ele>1462.8000488281</ele>
        <time>2016-05-06T09:19:30Z</time>
      </trkpt>
      <trkpt lat="44.47387" lon="5.94654">
        <ele>1462.8000488281</ele>
        <time>2016-05-06T09:19:34Z</time>
      </trkpt>
      <trkpt lat="44.47383" lon="5.94638">
        <ele>1462.8000488281</ele>
        <time>2016-05-06T09:19:41Z</time>
      </trkpt>
      <trkpt lat="44.47385" lon="5.94633">
        <ele>1463.1999511719</ele>
        <time>2016-05-06T09:19:43Z</time>
      </trkpt>
      <trkpt lat="44.47387" lon="5.94629">
        <ele>1463.8000488281</ele>
        <time>2016-05-06T09:19:45Z</time>
      </trkpt>
      <trkpt lat="44.4739" lon="5.94625">
        <ele>1464.1999511719</ele>
        <time>2016-05-06T09:19:47Z</time>
      </trkpt>
      <trkpt lat="44.47391" lon="5.94624">
        <ele>1464.5999755859</ele>
        <time>2016-05-06T09:19:48Z</time>
      </trkpt>
      <trkpt lat="44.47394" lon="5.94621">
        <ele>1465</ele>
        <time>2016-05-06T09:19:50Z</time>
      </trkpt>
      <trkpt lat="44.47397" lon="5.94619">
        <ele>1465</ele>
        <time>2016-05-06T09:19:52Z</time>
      </trkpt>
      <trkpt lat="44.474" lon="5.94617">
        <ele>1465</ele>
        <time>2016-05-06T09:19:54Z</time>
      </trkpt>
      <trkpt lat="44.47408" lon="5.94609">
        <ele>1466</ele>
        <time>2016-05-06T09:20:01Z</time>
      </trkpt>
      <trkpt lat="44.47409" lon="5.94606">
        <ele>1466.4000244141</ele>
        <time>2016-05-06T09:20:03Z</time>
      </trkpt>
      <trkpt lat="44.4741" lon="5.94605">
        <ele>1466.8000488281</ele>
        <time>2016-05-06T09:20:04Z</time>
      </trkpt>
      <trkpt lat="44.47411" lon="5.94602">
        <ele>1467.1999511719</ele>
        <time>2016-05-06T09:20:06Z</time>
      </trkpt>
      <trkpt lat="44.47417" lon="5.9459">
        <ele>1467.1999511719</ele>
        <time>2016-05-06T09:20:13Z</time>
      </trkpt>
      <trkpt lat="44.4742" lon="5.94584">
        <ele>1468</ele>
        <time>2016-05-06T09:20:17Z</time>
      </trkpt>
      <trkpt lat="44.47421" lon="5.94581">
        <ele>1468.4000244141</ele>
        <time>2016-05-06T09:20:19Z</time>
      </trkpt>
      <trkpt lat="44.47422" lon="5.94578">
        <ele>1469.4000244141</ele>
        <time>2016-05-06T09:20:21Z</time>
      </trkpt>
      <trkpt lat="44.47423" lon="5.94576">
        <ele>1469.4000244141</ele>
        <time>2016-05-06T09:20:22Z</time>
      </trkpt>
      <trkpt lat="44.47427" lon="5.94569">
        <ele>1469.8000488281</ele>
        <time>2016-05-06T09:20:27Z</time>
      </trkpt>
      <trkpt lat="44.47428" lon="5.94567">
        <ele>1470.5999755859</ele>
        <time>2016-05-06T09:20:29Z</time>
      </trkpt>
      <trkpt lat="44.47429" lon="5.94564">
        <ele>1471</ele>
        <time>2016-05-06T09:20:31Z</time>
      </trkpt>
      <trkpt lat="44.4743" lon="5.94562">
        <ele>1471</ele>
        <time>2016-05-06T09:20:32Z</time>
      </trkpt>
      <trkpt lat="44.47431" lon="5.94561">
        <ele>1471.4000244141</ele>
        <time>2016-05-06T09:20:33Z</time>
      </trkpt>
      <trkpt lat="44.47434" lon="5.94551">
        <ele>1472.1999511719</ele>
        <time>2016-05-06T09:20:40Z</time>
      </trkpt>
      <trkpt lat="44.47433" lon="5.94548">
        <ele>1472.1999511719</ele>
        <time>2016-05-06T09:20:42Z</time>
      </trkpt>
      <trkpt lat="44.47433" lon="5.94546">
        <ele>1472.8000488281</ele>
        <time>2016-05-06T09:20:43Z</time>
      </trkpt>
      <trkpt lat="44.47434" lon="5.94544">
        <ele>1473.5999755859</ele>
        <time>2016-05-06T09:20:44Z</time>
      </trkpt>
      <trkpt lat="44.47439" lon="5.94535">
        <ele>1473.5999755859</ele>
        <time>2016-05-06T09:20:51Z</time>
      </trkpt>
      <trkpt lat="44.47444" lon="5.94526">
        <ele>1474</ele>
        <time>2016-05-06T09:20:58Z</time>
      </trkpt>
      <trkpt lat="44.47445" lon="5.94523">
        <ele>1474.8000488281</ele>
        <time>2016-05-06T09:21:00Z</time>
      </trkpt>
      <trkpt lat="44.47446" lon="5.9452">
        <ele>1475.1999511719</ele>
        <time>2016-05-06T09:21:02Z</time>
      </trkpt>
      <trkpt lat="44.47448" lon="5.94518">
        <ele>1475.8000488281</ele>
        <time>2016-05-06T09:21:04Z</time>
      </trkpt>
      <trkpt lat="44.47452" lon="5.94508">
        <ele>1476.1999511719</ele>
        <time>2016-05-06T09:21:12Z</time>
      </trkpt>
      <trkpt lat="44.47453" lon="5.94506">
        <ele>1477</ele>
        <time>2016-05-06T09:21:13Z</time>
      </trkpt>
      <trkpt lat="44.47453" lon="5.94503">
        <ele>1477</ele>
        <time>2016-05-06T09:21:15Z</time>
      </trkpt>
      <trkpt lat="44.47453" lon="5.94501">
        <ele>1477.8000488281</ele>
        <time>2016-05-06T09:21:16Z</time>
      </trkpt>
      <trkpt lat="44.47459" lon="5.94489">
        <ele>1477.8000488281</ele>
        <time>2016-05-06T09:21:26Z</time>
      </trkpt>
      <trkpt lat="44.47459" lon="5.94486">
        <ele>1478.1999511719</ele>
        <time>2016-05-06T09:21:28Z</time>
      </trkpt>
      <trkpt lat="44.47461" lon="5.94483">
        <ele>1479</ele>
        <time>2016-05-06T09:21:30Z</time>
      </trkpt>
      <trkpt lat="44.47461" lon="5.9448">
        <ele>1479.4000244141</ele>
        <time>2016-05-06T09:21:32Z</time>
      </trkpt>
      <trkpt lat="44.47462" lon="5.94475">
        <ele>1480</ele>
        <time>2016-05-06T09:21:35Z</time>
      </trkpt>
      <trkpt lat="44.47463" lon="5.94472">
        <ele>1480</ele>
        <time>2016-05-06T09:21:37Z</time>
      </trkpt>
      <trkpt lat="44.47464" lon="5.94468">
        <ele>1480.4000244141</ele>
        <time>2016-05-06T09:21:40Z</time>
      </trkpt>
      <trkpt lat="44.47465" lon="5.94465">
        <ele>1480.8000488281</ele>
        <time>2016-05-06T09:21:42Z</time>
      </trkpt>
      <trkpt lat="44.47466" lon="5.94462">
        <ele>1481.1999511719</ele>
        <time>2016-05-06T09:21:44Z</time>
      </trkpt>
      <trkpt lat="44.47467" lon="5.94459">
        <ele>1481.5999755859</ele>
        <time>2016-05-06T09:21:46Z</time>
      </trkpt>
      <trkpt lat="44.47467" lon="5.94457">
        <ele>1482</ele>
        <time>2016-05-06T09:21:47Z</time>
      </trkpt>
      <trkpt lat="44.47474" lon="5.94443">
        <ele>1482.4000244141</ele>
        <time>2016-05-06T09:21:56Z</time>
      </trkpt>
      <trkpt lat="44.47474" lon="5.94442">
        <ele>1482.4000244141</ele>
        <time>2016-05-06T09:21:57Z</time>
      </trkpt>
      <trkpt lat="44.47475" lon="5.9444">
        <ele>1482.8000488281</ele>
        <time>2016-05-06T09:21:58Z</time>
      </trkpt>
      <trkpt lat="44.47475" lon="5.94438">
        <ele>1483.1999511719</ele>
        <time>2016-05-06T09:21:59Z</time>
      </trkpt>
      <trkpt lat="44.47477" lon="5.94434">
        <ele>1483.5999755859</ele>
        <time>2016-05-06T09:22:01Z</time>
      </trkpt>
      <trkpt lat="44.47479" lon="5.94429">
        <ele>1484</ele>
        <time>2016-05-06T09:22:04Z</time>
      </trkpt>
      <trkpt lat="44.4748" lon="5.94422">
        <ele>1484</ele>
        <time>2016-05-06T09:22:08Z</time>
      </trkpt>
      <trkpt lat="44.4748" lon="5.9442">
        <ele>1484.4000244141</ele>
        <time>2016-05-06T09:22:09Z</time>
      </trkpt>
      <trkpt lat="44.47481" lon="5.94419">
        <ele>1484.8000488281</ele>
        <time>2016-05-06T09:22:10Z</time>
      </trkpt>
      <trkpt lat="44.47482" lon="5.94416">
        <ele>1485.5999755859</ele>
        <time>2016-05-06T09:22:12Z</time>
      </trkpt>
      <trkpt lat="44.47483" lon="5.94412">
        <ele>1486</ele>
        <time>2016-05-06T09:22:14Z</time>
      </trkpt>
      <trkpt lat="44.47487" lon="5.944">
        <ele>1486</ele>
        <time>2016-05-06T09:22:23Z</time>
      </trkpt>
      <trkpt lat="44.4749" lon="5.94392">
        <ele>1486.4000244141</ele>
        <time>2016-05-06T09:22:28Z</time>
      </trkpt>
      <trkpt lat="44.47491" lon="5.94391">
        <ele>1486.8000488281</ele>
        <time>2016-05-06T09:22:29Z</time>
      </trkpt>
      <trkpt lat="44.47493" lon="5.94387">
        <ele>1487.1999511719</ele>
        <time>2016-05-06T09:22:32Z</time>
      </trkpt>
      <trkpt lat="44.47494" lon="5.94385">
        <ele>1487.5999755859</ele>
        <time>2016-05-06T09:22:33Z</time>
      </trkpt>
      <trkpt lat="44.47495" lon="5.94384">
        <ele>1488.1999511719</ele>
        <time>2016-05-06T09:22:34Z</time>
      </trkpt>
      <trkpt lat="44.47499" lon="5.94376">
        <ele>1488.5999755859</ele>
        <time>2016-05-06T09:22:40Z</time>
      </trkpt>
      <trkpt lat="44.47501" lon="5.94373">
        <ele>1489.5999755859</ele>
        <time>2016-05-06T09:22:42Z</time>
      </trkpt>
      <trkpt lat="44.47502" lon="5.94372">
        <ele>1489.5999755859</ele>
        <time>2016-05-06T09:22:43Z</time>
      </trkpt>
      <trkpt lat="44.47504" lon="5.94369">
        <ele>1490</ele>
        <time>2016-05-06T09:22:45Z</time>
      </trkpt>
      <trkpt lat="44.47506" lon="5.94366">
        <ele>1490.4000244141</ele>
        <time>2016-05-06T09:22:47Z</time>
      </trkpt>
      <trkpt lat="44.4751" lon="5.94357">
        <ele>1490.4000244141</ele>
        <time>2016-05-06T09:22:52Z</time>
      </trkpt>
      <trkpt lat="44.47519" lon="5.94347">
        <ele>1490.4000244141</ele>
        <time>2016-05-06T09:23:00Z</time>
      </trkpt>
      <trkpt lat="44.47527" lon="5.94339">
        <ele>1491</ele>
        <time>2016-05-06T09:23:07Z</time>
      </trkpt>
      <trkpt lat="44.47528" lon="5.94338">
        <ele>1491.4000244141</ele>
        <time>2016-05-06T09:23:08Z</time>
      </trkpt>
      <trkpt lat="44.4753" lon="5.94336">
        <ele>1491.8000488281</ele>
        <time>2016-05-06T09:23:10Z</time>
      </trkpt>
      <trkpt lat="44.47532" lon="5.94335">
        <ele>1491.8000488281</ele>
        <time>2016-05-06T09:23:11Z</time>
      </trkpt>
      <trkpt lat="44.47532" lon="5.94333">
        <ele>1492.1999511719</ele>
        <time>2016-05-06T09:23:12Z</time>
      </trkpt>
      <trkpt lat="44.47533" lon="5.94331">
        <ele>1492.5999755859</ele>
        <time>2016-05-06T09:23:14Z</time>
      </trkpt>
      <trkpt lat="44.47539" lon="5.94325">
        <ele>1492.5999755859</ele>
        <time>2016-05-06T09:23:19Z</time>
      </trkpt>
      <trkpt lat="44.4754" lon="5.94324">
        <ele>1493.1999511719</ele>
        <time>2016-05-06T09:23:20Z</time>
      </trkpt>
      <trkpt lat="44.47542" lon="5.94321">
        <ele>1493.5999755859</ele>
        <time>2016-05-06T09:23:22Z</time>
      </trkpt>
      <trkpt lat="44.47543" lon="5.9432">
        <ele>1494</ele>
        <time>2016-05-06T09:23:23Z</time>
      </trkpt>
      <trkpt lat="44.47545" lon="5.94318">
        <ele>1495</ele>
        <time>2016-05-06T09:23:25Z</time>
      </trkpt>
      <trkpt lat="44.47549" lon="5.94313">
        <ele>1495</ele>
        <time>2016-05-06T09:23:30Z</time>
      </trkpt>
      <trkpt lat="44.47555" lon="5.94308">
        <ele>1495.4000244141</ele>
        <time>2016-05-06T09:23:36Z</time>
      </trkpt>
      <trkpt lat="44.47557" lon="5.94306">
        <ele>1496</ele>
        <time>2016-05-06T09:23:38Z</time>
      </trkpt>
      <trkpt lat="44.47559" lon="5.94304">
        <ele>1496.4000244141</ele>
        <time>2016-05-06T09:23:40Z</time>
      </trkpt>
      <trkpt lat="44.47559" lon="5.94302">
        <ele>1496.8000488281</ele>
        <time>2016-05-06T09:23:41Z</time>
      </trkpt>
      <trkpt lat="44.47561" lon="5.94299">
        <ele>1497.4000244141</ele>
        <time>2016-05-06T09:23:43Z</time>
      </trkpt>
      <trkpt lat="44.47563" lon="5.94297">
        <ele>1497.4000244141</ele>
        <time>2016-05-06T09:23:45Z</time>
      </trkpt>
      <trkpt lat="44.47571" lon="5.94287">
        <ele>1497.8000488281</ele>
        <time>2016-05-06T09:23:53Z</time>
      </trkpt>
      <trkpt lat="44.47572" lon="5.94285">
        <ele>1498.1999511719</ele>
        <time>2016-05-06T09:23:54Z</time>
      </trkpt>
      <trkpt lat="44.47574" lon="5.94282">
        <ele>1498.5999755859</ele>
        <time>2016-05-06T09:23:56Z</time>
      </trkpt>
      <trkpt lat="44.47575" lon="5.9428">
        <ele>1499</ele>
        <time>2016-05-06T09:23:58Z</time>
      </trkpt>
      <trkpt lat="44.47576" lon="5.94278">
        <ele>1499.4000244141</ele>
        <time>2016-05-06T09:23:59Z</time>
      </trkpt>
      <trkpt lat="44.47578" lon="5.94272">
        <ele>1499.4000244141</ele>
        <time>2016-05-06T09:24:03Z</time>
      </trkpt>
      <trkpt lat="44.47583" lon="5.94263">
        <ele>1499.8000488281</ele>
        <time>2016-05-06T09:24:09Z</time>
      </trkpt>
      <trkpt lat="44.47584" lon="5.94262">
        <ele>1500.1999511719</ele>
        <time>2016-05-06T09:24:10Z</time>
      </trkpt>
      <trkpt lat="44.47585" lon="5.94261">
        <ele>1500.1999511719</ele>
        <time>2016-05-06T09:24:11Z</time>
      </trkpt>
      <trkpt lat="44.47586" lon="5.9426">
        <ele>1500.5999755859</ele>
        <time>2016-05-06T09:24:12Z</time>
      </trkpt>
      <trkpt lat="44.47587" lon="5.94256">
        <ele>1501.1999511719</ele>
        <time>2016-05-06T09:24:14Z</time>
      </trkpt>
      <trkpt lat="44.47588" lon="5.94255">
        <ele>1501.5999755859</ele>
        <time>2016-05-06T09:24:15Z</time>
      </trkpt>
      <trkpt lat="44.47591" lon="5.94249">
        <ele>1501.5999755859</ele>
        <time>2016-05-06T09:24:19Z</time>
      </trkpt>
      <trkpt lat="44.47593" lon="5.94244">
        <ele>1502</ele>
        <time>2016-05-06T09:24:22Z</time>
      </trkpt>
      <trkpt lat="44.47594" lon="5.94241">
        <ele>1502.4000244141</ele>
        <time>2016-05-06T09:24:24Z</time>
      </trkpt>
      <trkpt lat="44.47596" lon="5.94239">
        <ele>1502.8000488281</ele>
        <time>2016-05-06T09:24:26Z</time>
      </trkpt>
      <trkpt lat="44.47597" lon="5.94236">
        <ele>1503.5999755859</ele>
        <time>2016-05-06T09:24:28Z</time>
      </trkpt>
      <trkpt lat="44.47598" lon="5.94235">
        <ele>1503.5999755859</ele>
        <time>2016-05-06T09:24:29Z</time>
      </trkpt>
      <trkpt lat="44.47602" lon="5.94224">
        <ele>1504</ele>
        <time>2016-05-06T09:24:36Z</time>
      </trkpt>
      <trkpt lat="44.47602" lon="5.94222">
        <ele>1504.4000244141</ele>
        <time>2016-05-06T09:24:37Z</time>
      </trkpt>
      <trkpt lat="44.47603" lon="5.94221">
        <ele>1504.8000488281</ele>
        <time>2016-05-06T09:24:38Z</time>
      </trkpt>
      <trkpt lat="44.47604" lon="5.94217">
        <ele>1505.1999511719</ele>
        <time>2016-05-06T09:24:40Z</time>
      </trkpt>
      <trkpt lat="44.47605" lon="5.94214">
        <ele>1505.5999755859</ele>
        <time>2016-05-06T09:24:42Z</time>
      </trkpt>
      <trkpt lat="44.47607" lon="5.94202">
        <ele>1505.5999755859</ele>
        <time>2016-05-06T09:24:50Z</time>
      </trkpt>
      <trkpt lat="44.47609" lon="5.94195">
        <ele>1506.1999511719</ele>
        <time>2016-05-06T09:24:55Z</time>
      </trkpt>
      <trkpt lat="44.4761" lon="5.94192">
        <ele>1507</ele>
        <time>2016-05-06T09:24:57Z</time>
      </trkpt>
      <trkpt lat="44.4761" lon="5.94191">
        <ele>1507</ele>
        <time>2016-05-06T09:24:58Z</time>
      </trkpt>
      <trkpt lat="44.4761" lon="5.94189">
        <ele>1507.4000244141</ele>
        <time>2016-05-06T09:24:59Z</time>
      </trkpt>
      <trkpt lat="44.47611" lon="5.94188">
        <ele>1508</ele>
        <time>2016-05-06T09:25:00Z</time>
      </trkpt>
      <trkpt lat="44.47615" lon="5.94173">
        <ele>1508</ele>
        <time>2016-05-06T09:25:11Z</time>
      </trkpt>
      <trkpt lat="44.47615" lon="5.9417">
        <ele>1508.8000488281</ele>
        <time>2016-05-06T09:25:13Z</time>
      </trkpt>
      <trkpt lat="44.47617" lon="5.94167">
        <ele>1509.1999511719</ele>
        <time>2016-05-06T09:25:15Z</time>
      </trkpt>
      <trkpt lat="44.47618" lon="5.94164">
        <ele>1509.5999755859</ele>
        <time>2016-05-06T09:25:18Z</time>
      </trkpt>
      <trkpt lat="44.4762" lon="5.94161">
        <ele>1510</ele>
        <time>2016-05-06T09:25:20Z</time>
      </trkpt>
      <trkpt lat="44.47622" lon="5.94154">
        <ele>1510</ele>
        <time>2016-05-06T09:25:25Z</time>
      </trkpt>
      <trkpt lat="44.47623" lon="5.94152">
        <ele>1510.4000244141</ele>
        <time>2016-05-06T09:25:27Z</time>
      </trkpt>
      <trkpt lat="44.47623" lon="5.9415">
        <ele>1511.1999511719</ele>
        <time>2016-05-06T09:25:29Z</time>
      </trkpt>
      <trkpt lat="44.47625" lon="5.94147">
        <ele>1511.8000488281</ele>
        <time>2016-05-06T09:25:31Z</time>
      </trkpt>
      <trkpt lat="44.47628" lon="5.94144">
        <ele>1512.1999511719</ele>
        <time>2016-05-06T09:25:34Z</time>
      </trkpt>
      <trkpt lat="44.4763" lon="5.94141">
        <ele>1512.1999511719</ele>
        <time>2016-05-06T09:25:37Z</time>
      </trkpt>
      <trkpt lat="44.47632" lon="5.94137">
        <ele>1512.5999755859</ele>
        <time>2016-05-06T09:25:40Z</time>
      </trkpt>
      <trkpt lat="44.47634" lon="5.94135">
        <ele>1513</ele>
        <time>2016-05-06T09:25:42Z</time>
      </trkpt>
      <trkpt lat="44.47635" lon="5.94133">
        <ele>1513.8000488281</ele>
        <time>2016-05-06T09:25:44Z</time>
      </trkpt>
      <trkpt lat="44.47637" lon="5.9413">
        <ele>1514.1999511719</ele>
        <time>2016-05-06T09:25:46Z</time>
      </trkpt>
      <trkpt lat="44.47639" lon="5.94128">
        <ele>1514.1999511719</ele>
        <time>2016-05-06T09:25:47Z</time>
      </trkpt>
      <trkpt lat="44.47647" lon="5.94117">
        <ele>1514.5999755859</ele>
        <time>2016-05-06T09:25:56Z</time>
      </trkpt>
      <trkpt lat="44.47649" lon="5.94115">
        <ele>1515</ele>
        <time>2016-05-06T09:25:58Z</time>
      </trkpt>
      <trkpt lat="44.4765" lon="5.94114">
        <ele>1515.4000244141</ele>
        <time>2016-05-06T09:25:59Z</time>
      </trkpt>
      <trkpt lat="44.4765" lon="5.94113">
        <ele>1515.8000488281</ele>
        <time>2016-05-06T09:26:00Z</time>
      </trkpt>
      <trkpt lat="44.47651" lon="5.94111">
        <ele>1516.1999511719</ele>
        <time>2016-05-06T09:26:01Z</time>
      </trkpt>
      <trkpt lat="44.47658" lon="5.94101">
        <ele>1516.1999511719</ele>
        <time>2016-05-06T09:26:09Z</time>
      </trkpt>
      <trkpt lat="44.47665" lon="5.94092">
        <ele>1516.5999755859</ele>
        <time>2016-05-06T09:26:16Z</time>
      </trkpt>
      <trkpt lat="44.47667" lon="5.9409">
        <ele>1517.5999755859</ele>
        <time>2016-05-06T09:26:18Z</time>
      </trkpt>
      <trkpt lat="44.47668" lon="5.94088">
        <ele>1518</ele>
        <time>2016-05-06T09:26:20Z</time>
      </trkpt>
      <trkpt lat="44.47668" lon="5.94086">
        <ele>1518.4000244141</ele>
        <time>2016-05-06T09:26:21Z</time>
      </trkpt>
      <trkpt lat="44.47668" lon="5.94085">
        <ele>1518.4000244141</ele>
        <time>2016-05-06T09:26:22Z</time>
      </trkpt>
      <trkpt lat="44.47675" lon="5.94079">
        <ele>1518.8000488281</ele>
        <time>2016-05-06T09:26:28Z</time>
      </trkpt>
      <trkpt lat="44.47677" lon="5.94077">
        <ele>1519.8000488281</ele>
        <time>2016-05-06T09:26:30Z</time>
      </trkpt>
      <trkpt lat="44.47678" lon="5.94074">
        <ele>1520.1999511719</ele>
        <time>2016-05-06T09:26:32Z</time>
      </trkpt>
      <trkpt lat="44.47679" lon="5.94072">
        <ele>1520.5999755859</ele>
        <time>2016-05-06T09:26:33Z</time>
      </trkpt>
      <trkpt lat="44.4768" lon="5.94071">
        <ele>1520.5999755859</ele>
        <time>2016-05-06T09:26:34Z</time>
      </trkpt>
      <trkpt lat="44.47688" lon="5.94059">
        <ele>1521</ele>
        <time>2016-05-06T09:26:43Z</time>
      </trkpt>
      <trkpt lat="44.47689" lon="5.94058">
        <ele>1521</ele>
        <time>2016-05-06T09:26:44Z</time>
      </trkpt>
      <trkpt lat="44.47689" lon="5.94057">
        <ele>1522</ele>
        <time>2016-05-06T09:26:45Z</time>
      </trkpt>
      <trkpt lat="44.4769" lon="5.94053">
        <ele>1523</ele>
        <time>2016-05-06T09:26:47Z</time>
      </trkpt>
      <trkpt lat="44.47691" lon="5.94049">
        <ele>1523</ele>
        <time>2016-05-06T09:26:49Z</time>
      </trkpt>
      <trkpt lat="44.47692" lon="5.94043">
        <ele>1523</ele>
        <time>2016-05-06T09:26:52Z</time>
      </trkpt>
      <trkpt lat="44.47694" lon="5.94032">
        <ele>1524</ele>
        <time>2016-05-06T09:26:59Z</time>
      </trkpt>
      <trkpt lat="44.47694" lon="5.94029">
        <ele>1524</ele>
        <time>2016-05-06T09:27:01Z</time>
      </trkpt>
      <trkpt lat="44.47694" lon="5.94027">
        <ele>1524.4000244141</ele>
        <time>2016-05-06T09:27:02Z</time>
      </trkpt>
      <trkpt lat="44.47694" lon="5.94024">
        <ele>1525</ele>
        <time>2016-05-06T09:27:04Z</time>
      </trkpt>
      <trkpt lat="44.47694" lon="5.94023">
        <ele>1525.4000244141</ele>
        <time>2016-05-06T09:27:05Z</time>
      </trkpt>
      <trkpt lat="44.47696" lon="5.94012">
        <ele>1525.8000488281</ele>
        <time>2016-05-06T09:27:12Z</time>
      </trkpt>
      <trkpt lat="44.47696" lon="5.9401">
        <ele>1526.4000244141</ele>
        <time>2016-05-06T09:27:13Z</time>
      </trkpt>
      <trkpt lat="44.47696" lon="5.94008">
        <ele>1526.4000244141</ele>
        <time>2016-05-06T09:27:14Z</time>
      </trkpt>
      <trkpt lat="44.47696" lon="5.94007">
        <ele>1526.8000488281</ele>
        <time>2016-05-06T09:27:15Z</time>
      </trkpt>
      <trkpt lat="44.47696" lon="5.94004">
        <ele>1527.1999511719</ele>
        <time>2016-05-06T09:27:17Z</time>
      </trkpt>
      <trkpt lat="44.47696" lon="5.94002">
        <ele>1527.5999755859</ele>
        <time>2016-05-06T09:27:18Z</time>
      </trkpt>
      <trkpt lat="44.47695" lon="5.93993">
        <ele>1528</ele>
        <time>2016-05-06T09:27:24Z</time>
      </trkpt>
      <trkpt lat="44.47695" lon="5.93991">
        <ele>1528.5999755859</ele>
        <time>2016-05-06T09:27:25Z</time>
      </trkpt>
      <trkpt lat="44.47695" lon="5.9399">
        <ele>1529</ele>
        <time>2016-05-06T09:27:26Z</time>
      </trkpt>
      <trkpt lat="44.47695" lon="5.93987">
        <ele>1529.8000488281</ele>
        <time>2016-05-06T09:27:28Z</time>
      </trkpt>
      <trkpt lat="44.47696" lon="5.93979">
        <ele>1529.8000488281</ele>
        <time>2016-05-06T09:27:33Z</time>
      </trkpt>
      <trkpt lat="44.47699" lon="5.93969">
        <ele>1530.1999511719</ele>
        <time>2016-05-06T09:27:39Z</time>
      </trkpt>
      <trkpt lat="44.47699" lon="5.93966">
        <ele>1530.5999755859</ele>
        <time>2016-05-06T09:27:41Z</time>
      </trkpt>
      <trkpt lat="44.477" lon="5.93965">
        <ele>1531</ele>
        <time>2016-05-06T09:27:42Z</time>
      </trkpt>
      <trkpt lat="44.477" lon="5.93963">
        <ele>1531.4000244141</ele>
        <time>2016-05-06T09:27:43Z</time>
      </trkpt>
      <trkpt lat="44.47701" lon="5.9396">
        <ele>1531.8000488281</ele>
        <time>2016-05-06T09:27:45Z</time>
      </trkpt>
      <trkpt lat="44.47703" lon="5.93951">
        <ele>1532.4000244141</ele>
        <time>2016-05-06T09:27:52Z</time>
      </trkpt>
      <trkpt lat="44.47704" lon="5.93949">
        <ele>1532.8000488281</ele>
        <time>2016-05-06T09:27:53Z</time>
      </trkpt>
      <trkpt lat="44.47703" lon="5.93948">
        <ele>1533.4000244141</ele>
        <time>2016-05-06T09:27:54Z</time>
      </trkpt>
      <trkpt lat="44.47703" lon="5.93946">
        <ele>1533.4000244141</ele>
        <time>2016-05-06T09:27:55Z</time>
      </trkpt>
      <trkpt lat="44.47703" lon="5.93945">
        <ele>1534</ele>
        <time>2016-05-06T09:27:56Z</time>
      </trkpt>
      <trkpt lat="44.47702" lon="5.93942">
        <ele>1534.4000244141</ele>
        <time>2016-05-06T09:27:58Z</time>
      </trkpt>
      <trkpt lat="44.47703" lon="5.93933">
        <ele>1534.4000244141</ele>
        <time>2016-05-06T09:28:04Z</time>
      </trkpt>
      <trkpt lat="44.47703" lon="5.93915">
        <ele>1534.8000488281</ele>
        <time>2016-05-06T09:28:15Z</time>
      </trkpt>
      <trkpt lat="44.47704" lon="5.93913">
        <ele>1535.1999511719</ele>
        <time>2016-05-06T09:28:16Z</time>
      </trkpt>
      <trkpt lat="44.47704" lon="5.93911">
        <ele>1535.8000488281</ele>
        <time>2016-05-06T09:28:17Z</time>
      </trkpt>
      <trkpt lat="44.47704" lon="5.93909">
        <ele>1535.8000488281</ele>
        <time>2016-05-06T09:28:18Z</time>
      </trkpt>
      <trkpt lat="44.47704" lon="5.93908">
        <ele>1536.1999511719</ele>
        <time>2016-05-06T09:28:19Z</time>
      </trkpt>
      <trkpt lat="44.47705" lon="5.93905">
        <ele>1536.5999755859</ele>
        <time>2016-05-06T09:28:21Z</time>
      </trkpt>
      <trkpt lat="44.47707" lon="5.93884">
        <ele>1537</ele>
        <time>2016-05-06T09:28:34Z</time>
      </trkpt>
      <trkpt lat="44.47708" lon="5.93882">
        <ele>1537.4000244141</ele>
        <time>2016-05-06T09:28:35Z</time>
      </trkpt>
      <trkpt lat="44.47708" lon="5.93881">
        <ele>1537.8000488281</ele>
        <time>2016-05-06T09:28:36Z</time>
      </trkpt>
      <trkpt lat="44.47709" lon="5.93878">
        <ele>1538.1999511719</ele>
        <time>2016-05-06T09:28:38Z</time>
      </trkpt>
      <trkpt lat="44.4771" lon="5.93875">
        <ele>1538.5999755859</ele>
        <time>2016-05-06T09:28:40Z</time>
      </trkpt>
      <trkpt lat="44.47715" lon="5.93868">
        <ele>1538.5999755859</ele>
        <time>2016-05-06T09:28:46Z</time>
      </trkpt>
      <trkpt lat="44.47717" lon="5.93864">
        <ele>1539.1999511719</ele>
        <time>2016-05-06T09:28:49Z</time>
      </trkpt>
      <trkpt lat="44.4772" lon="5.93862">
        <ele>1540</ele>
        <time>2016-05-06T09:28:51Z</time>
      </trkpt>
      <trkpt lat="44.47721" lon="5.9386">
        <ele>1540.5999755859</ele>
        <time>2016-05-06T09:28:53Z</time>
      </trkpt>
      <trkpt lat="44.47722" lon="5.93859">
        <ele>1541</ele>
        <time>2016-05-06T09:28:54Z</time>
      </trkpt>
      <trkpt lat="44.47723" lon="5.93858">
        <ele>1541</ele>
        <time>2016-05-06T09:28:55Z</time>
      </trkpt>
      <trkpt lat="44.4773" lon="5.9385">
        <ele>1541.4000244141</ele>
        <time>2016-05-06T09:29:04Z</time>
      </trkpt>
      <trkpt lat="44.47732" lon="5.93846">
        <ele>1541.8000488281</ele>
        <time>2016-05-06T09:29:07Z</time>
      </trkpt>
      <trkpt lat="44.47734" lon="5.93843">
        <ele>1542.8000488281</ele>
        <time>2016-05-06T09:29:09Z</time>
      </trkpt>
      <trkpt lat="44.47734" lon="5.9384">
        <ele>1543.1999511719</ele>
        <time>2016-05-06T09:29:11Z</time>
      </trkpt>
      <trkpt lat="44.47737" lon="5.93835">
        <ele>1543.1999511719</ele>
        <time>2016-05-06T09:29:15Z</time>
      </trkpt>
      <trkpt lat="44.47742" lon="5.93822">
        <ele>1543.5999755859</ele>
        <time>2016-05-06T09:29:24Z</time>
      </trkpt>
      <trkpt lat="44.47744" lon="5.93819">
        <ele>1544</ele>
        <time>2016-05-06T09:29:26Z</time>
      </trkpt>
      <trkpt lat="44.47744" lon="5.93817">
        <ele>1544.4000244141</ele>
        <time>2016-05-06T09:29:27Z</time>
      </trkpt>
      <trkpt lat="44.47746" lon="5.93814">
        <ele>1544.8000488281</ele>
        <time>2016-05-06T09:29:29Z</time>
      </trkpt>
      <trkpt lat="44.47746" lon="5.93811">
        <ele>1545.1999511719</ele>
        <time>2016-05-06T09:29:31Z</time>
      </trkpt>
      <trkpt lat="44.47749" lon="5.93798">
        <ele>1546</ele>
        <time>2016-05-06T09:29:39Z</time>
      </trkpt>
      <trkpt lat="44.4775" lon="5.93793">
        <ele>1546.8000488281</ele>
        <time>2016-05-06T09:29:42Z</time>
      </trkpt>
      <trkpt lat="44.4775" lon="5.93787">
        <ele>1547.1999511719</ele>
        <time>2016-05-06T09:29:45Z</time>
      </trkpt>
      <trkpt lat="44.4775" lon="5.93782">
        <ele>1547.1999511719</ele>
        <time>2016-05-06T09:29:48Z</time>
      </trkpt>
      <trkpt lat="44.47748" lon="5.93772">
        <ele>1547.5999755859</ele>
        <time>2016-05-06T09:29:54Z</time>
      </trkpt>
      <trkpt lat="44.47748" lon="5.93771">
        <ele>1548</ele>
        <time>2016-05-06T09:29:55Z</time>
      </trkpt>
      <trkpt lat="44.47747" lon="5.9377">
        <ele>1548.4000244141</ele>
        <time>2016-05-06T09:29:56Z</time>
      </trkpt>
      <trkpt lat="44.47747" lon="5.93768">
        <ele>1548.8000488281</ele>
        <time>2016-05-06T09:29:57Z</time>
      </trkpt>
      <trkpt lat="44.47746" lon="5.93767">
        <ele>1548.8000488281</ele>
        <time>2016-05-06T09:29:58Z</time>
      </trkpt>
      <trkpt lat="44.47745" lon="5.93765">
        <ele>1549.1999511719</ele>
        <time>2016-05-06T09:29:59Z</time>
      </trkpt>
      <trkpt lat="44.47745" lon="5.93746">
        <ele>1549.1999511719</ele>
        <time>2016-05-06T09:30:08Z</time>
      </trkpt>
      <trkpt lat="44.47745" lon="5.93744">
        <ele>1549.5999755859</ele>
        <time>2016-05-06T09:30:09Z</time>
      </trkpt>
      <trkpt lat="44.47745" lon="5.93741">
        <ele>1550</ele>
        <time>2016-05-06T09:30:10Z</time>
      </trkpt>
      <trkpt lat="44.47746" lon="5.93735">
        <ele>1550.4000244141</ele>
        <time>2016-05-06T09:30:12Z</time>
      </trkpt>
      <trkpt lat="44.47746" lon="5.93732">
        <ele>1550.8000488281</ele>
        <time>2016-05-06T09:30:13Z</time>
      </trkpt>
      <trkpt lat="44.47746" lon="5.93728">
        <ele>1551.1999511719</ele>
        <time>2016-05-06T09:30:14Z</time>
      </trkpt>
      <trkpt lat="44.47747" lon="5.93717">
        <ele>1551.1999511719</ele>
        <time>2016-05-06T09:30:17Z</time>
      </trkpt>
      <trkpt lat="44.47755" lon="5.93686">
        <ele>1551.1999511719</ele>
        <time>2016-05-06T09:30:26Z</time>
      </trkpt>
      <trkpt lat="44.47763" lon="5.93667">
        <ele>1551.1999511719</ele>
        <time>2016-05-06T09:30:34Z</time>
      </trkpt>
      <trkpt lat="44.47769" lon="5.93656">
        <ele>1551.5999755859</ele>
        <time>2016-05-06T09:30:39Z</time>
      </trkpt>
      <trkpt lat="44.4777" lon="5.93653">
        <ele>1552</ele>
        <time>2016-05-06T09:30:40Z</time>
      </trkpt>
      <trkpt lat="44.47772" lon="5.93649">
        <ele>1552.8000488281</ele>
        <time>2016-05-06T09:30:42Z</time>
      </trkpt>
      <trkpt lat="44.47773" lon="5.93646">
        <ele>1552.8000488281</ele>
        <time>2016-05-06T09:30:43Z</time>
      </trkpt>
      <trkpt lat="44.47775" lon="5.93642">
        <ele>1553.1999511719</ele>
        <time>2016-05-06T09:30:45Z</time>
      </trkpt>
      <trkpt lat="44.47778" lon="5.9363">
        <ele>1553.1999511719</ele>
        <time>2016-05-06T09:30:50Z</time>
      </trkpt>
      <trkpt lat="44.47779" lon="5.93618">
        <ele>1553.5999755859</ele>
        <time>2016-05-06T09:30:55Z</time>
      </trkpt>
      <trkpt lat="44.47779" lon="5.93615">
        <ele>1554.1999511719</ele>
        <time>2016-05-06T09:30:56Z</time>
      </trkpt>
      <trkpt lat="44.47779" lon="5.93613">
        <ele>1554.5999755859</ele>
        <time>2016-05-06T09:30:57Z</time>
      </trkpt>
      <trkpt lat="44.4778" lon="5.93612">
        <ele>1554.5999755859</ele>
        <time>2016-05-06T09:30:58Z</time>
      </trkpt>
      <trkpt lat="44.47779" lon="5.93609">
        <ele>1555</ele>
        <time>2016-05-06T09:30:59Z</time>
      </trkpt>
      <trkpt lat="44.47779" lon="5.93605">
        <ele>1555.4000244141</ele>
        <time>2016-05-06T09:31:01Z</time>
      </trkpt>
      <trkpt lat="44.47778" lon="5.93597">
        <ele>1555.4000244141</ele>
        <time>2016-05-06T09:31:05Z</time>
      </trkpt>
      <trkpt lat="44.47776" lon="5.93592">
        <ele>1555.8000488281</ele>
        <time>2016-05-06T09:31:08Z</time>
      </trkpt>
      <trkpt lat="44.47775" lon="5.9359">
        <ele>1556.1999511719</ele>
        <time>2016-05-06T09:31:09Z</time>
      </trkpt>
      <trkpt lat="44.47775" lon="5.93589">
        <ele>1556.8000488281</ele>
        <time>2016-05-06T09:31:10Z</time>
      </trkpt>
      <trkpt lat="44.47773" lon="5.93586">
        <ele>1557.1999511719</ele>
        <time>2016-05-06T09:31:12Z</time>
      </trkpt>
      <trkpt lat="44.47772" lon="5.93585">
        <ele>1557.5999755859</ele>
        <time>2016-05-06T09:31:13Z</time>
      </trkpt>
      <trkpt lat="44.47771" lon="5.93581">
        <ele>1557.5999755859</ele>
        <time>2016-05-06T09:31:15Z</time>
      </trkpt>
      <trkpt lat="44.47768" lon="5.9357">
        <ele>1558</ele>
        <time>2016-05-06T09:31:22Z</time>
      </trkpt>
      <trkpt lat="44.47767" lon="5.93567">
        <ele>1558.4000244141</ele>
        <time>2016-05-06T09:31:24Z</time>
      </trkpt>
      <trkpt lat="44.47767" lon="5.93566">
        <ele>1558.8000488281</ele>
        <time>2016-05-06T09:31:25Z</time>
      </trkpt>
      <trkpt lat="44.47766" lon="5.93564">
        <ele>1559.1999511719</ele>
        <time>2016-05-06T09:31:26Z</time>
      </trkpt>
      <trkpt lat="44.47766" lon="5.93561">
        <ele>1559.8000488281</ele>
        <time>2016-05-06T09:31:28Z</time>
      </trkpt>
      <trkpt lat="44.47765" lon="5.93551">
        <ele>1559.8000488281</ele>
        <time>2016-05-06T09:31:34Z</time>
      </trkpt>
      <trkpt lat="44.47764" lon="5.9355">
        <ele>1560.1999511719</ele>
        <time>2016-05-06T09:31:35Z</time>
      </trkpt>
      <trkpt lat="44.47764" lon="5.93545">
        <ele>1561</ele>
        <time>2016-05-06T09:31:38Z</time>
      </trkpt>
      <trkpt lat="44.47764" lon="5.93543">
        <ele>1561.4000244141</ele>
        <time>2016-05-06T09:31:39Z</time>
      </trkpt>
      <trkpt lat="44.47764" lon="5.9354">
        <ele>1561.8000488281</ele>
        <time>2016-05-06T09:31:41Z</time>
      </trkpt>
      <trkpt lat="44.47767" lon="5.93527">
        <ele>1561.8000488281</ele>
        <time>2016-05-06T09:31:50Z</time>
      </trkpt>
      <trkpt lat="44.47768" lon="5.93522">
        <ele>1562.4000244141</ele>
        <time>2016-05-06T09:31:53Z</time>
      </trkpt>
      <trkpt lat="44.4777" lon="5.93519">
        <ele>1562.8000488281</ele>
        <time>2016-05-06T09:31:55Z</time>
      </trkpt>
      <trkpt lat="44.4777" lon="5.93517">
        <ele>1563.1999511719</ele>
        <time>2016-05-06T09:31:56Z</time>
      </trkpt>
      <trkpt lat="44.4777" lon="5.93516">
        <ele>1563.5999755859</ele>
        <time>2016-05-06T09:31:57Z</time>
      </trkpt>
      <trkpt lat="44.47771" lon="5.93512">
        <ele>1564.1999511719</ele>
        <time>2016-05-06T09:31:59Z</time>
      </trkpt>
      <trkpt lat="44.47779" lon="5.93496">
        <ele>1565</ele>
        <time>2016-05-06T09:32:10Z</time>
      </trkpt>
      <trkpt lat="44.47781" lon="5.93492">
        <ele>1565.4000244141</ele>
        <time>2016-05-06T09:32:12Z</time>
      </trkpt>
      <trkpt lat="44.47781" lon="5.93491">
        <ele>1565.8000488281</ele>
        <time>2016-05-06T09:32:13Z</time>
      </trkpt>
      <trkpt lat="44.47782" lon="5.93489">
        <ele>1566.1999511719</ele>
        <time>2016-05-06T09:32:14Z</time>
      </trkpt>
      <trkpt lat="44.47786" lon="5.93479">
        <ele>1566.1999511719</ele>
        <time>2016-05-06T09:32:21Z</time>
      </trkpt>
      <trkpt lat="44.47786" lon="5.93477">
        <ele>1566.5999755859</ele>
        <time>2016-05-06T09:32:22Z</time>
      </trkpt>
      <trkpt lat="44.47786" lon="5.93476">
        <ele>1567</ele>
        <time>2016-05-06T09:32:23Z</time>
      </trkpt>
      <trkpt lat="44.47787" lon="5.93475">
        <ele>1567.4000244141</ele>
        <time>2016-05-06T09:32:24Z</time>
      </trkpt>
      <trkpt lat="44.47788" lon="5.93473">
        <ele>1567.8000488281</ele>
        <time>2016-05-06T09:32:25Z</time>
      </trkpt>
      <trkpt lat="44.47789" lon="5.93471">
        <ele>1568.1999511719</ele>
        <time>2016-05-06T09:32:27Z</time>
      </trkpt>
      <trkpt lat="44.4779" lon="5.93466">
        <ele>1568.1999511719</ele>
        <time>2016-05-06T09:32:30Z</time>
      </trkpt>
      <trkpt lat="44.47789" lon="5.93451">
        <ele>1568.1999511719</ele>
        <time>2016-05-06T09:32:38Z</time>
      </trkpt>
      <trkpt lat="44.47785" lon="5.93448">
        <ele>1568.5999755859</ele>
        <time>2016-05-06T09:32:42Z</time>
      </trkpt>
      <trkpt lat="44.47784" lon="5.93448">
        <ele>1569</ele>
        <time>2016-05-06T09:32:43Z</time>
      </trkpt>
      <trkpt lat="44.47781" lon="5.93447">
        <ele>1569.8000488281</ele>
        <time>2016-05-06T09:32:45Z</time>
      </trkpt>
      <trkpt lat="44.47778" lon="5.93448">
        <ele>1570.1999511719</ele>
        <time>2016-05-06T09:32:47Z</time>
      </trkpt>
      <trkpt lat="44.47771" lon="5.93448">
        <ele>1570.1999511719</ele>
        <time>2016-05-06T09:32:52Z</time>
      </trkpt>
      <trkpt lat="44.47768" lon="5.93447">
        <ele>1570.8000488281</ele>
        <time>2016-05-06T09:32:54Z</time>
      </trkpt>
      <trkpt lat="44.47766" lon="5.93448">
        <ele>1571.5999755859</ele>
        <time>2016-05-06T09:32:56Z</time>
      </trkpt>
      <trkpt lat="44.47763" lon="5.93448">
        <ele>1572</ele>
        <time>2016-05-06T09:32:58Z</time>
      </trkpt>
      <trkpt lat="44.47762" lon="5.93449">
        <ele>1572.4000244141</ele>
        <time>2016-05-06T09:32:59Z</time>
      </trkpt>
      <trkpt lat="44.47761" lon="5.9345">
        <ele>1572.4000244141</ele>
        <time>2016-05-06T09:33:00Z</time>
      </trkpt>
      <trkpt lat="44.47751" lon="5.93452">
        <ele>1572.4000244141</ele>
        <time>2016-05-06T09:33:08Z</time>
      </trkpt>
      <trkpt lat="44.47748" lon="5.93452">
        <ele>1572.8000488281</ele>
        <time>2016-05-06T09:33:10Z</time>
      </trkpt>
      <trkpt lat="44.47746" lon="5.9345">
        <ele>1573.8000488281</ele>
        <time>2016-05-06T09:33:12Z</time>
      </trkpt>
      <trkpt lat="44.47745" lon="5.93447">
        <ele>1574.1999511719</ele>
        <time>2016-05-06T09:33:14Z</time>
      </trkpt>
      <trkpt lat="44.47744" lon="5.93446">
        <ele>1574.1999511719</ele>
        <time>2016-05-06T09:33:15Z</time>
      </trkpt>
      <trkpt lat="44.47742" lon="5.93444">
        <ele>1574.5999755859</ele>
        <time>2016-05-06T09:33:16Z</time>
      </trkpt>
      <trkpt lat="44.4774" lon="5.93439">
        <ele>1575</ele>
        <time>2016-05-06T09:33:20Z</time>
      </trkpt>
      <trkpt lat="44.4774" lon="5.93437">
        <ele>1575.5999755859</ele>
        <time>2016-05-06T09:33:21Z</time>
      </trkpt>
      <trkpt lat="44.4774" lon="5.93436">
        <ele>1576</ele>
        <time>2016-05-06T09:33:22Z</time>
      </trkpt>
      <trkpt lat="44.4774" lon="5.93434">
        <ele>1576</ele>
        <time>2016-05-06T09:33:23Z</time>
      </trkpt>
      <trkpt lat="44.4774" lon="5.93433">
        <ele>1577.1999511719</ele>
        <time>2016-05-06T09:33:24Z</time>
      </trkpt>
      <trkpt lat="44.47739" lon="5.93432">
        <ele>1577.1999511719</ele>
        <time>2016-05-06T09:33:29Z</time>
      </trkpt>
      <trkpt lat="44.47739" lon="5.93432">
        <ele>1577.1999511719</ele>
        <time>2016-05-06T09:36:02Z</time>
      </trkpt>
      <trkpt lat="44.47739" lon="5.93432">
        <ele>1577.5999755859</ele>
        <time>2016-05-06T09:37:06Z</time>
      </trkpt>
      <trkpt lat="44.47739" lon="5.93432">
        <ele>1578</ele>
        <time>2016-05-06T09:37:09Z</time>
      </trkpt>
      <trkpt lat="44.47739" lon="5.93432">
        <ele>1578.4000244141</ele>
        <time>2016-05-06T09:37:11Z</time>
      </trkpt>
      <trkpt lat="44.47738" lon="5.93432">
        <ele>1578.8000488281</ele>
        <time>2016-05-06T09:37:14Z</time>
      </trkpt>
      <trkpt lat="44.47737" lon="5.93431">
        <ele>1579.1999511719</ele>
        <time>2016-05-06T09:37:17Z</time>
      </trkpt>
      <trkpt lat="44.47729" lon="5.93429">
        <ele>1579.1999511719</ele>
        <time>2016-05-06T09:37:21Z</time>
      </trkpt>
      <trkpt lat="44.47716" lon="5.93434">
        <ele>1579.1999511719</ele>
        <time>2016-05-06T09:37:24Z</time>
      </trkpt>
      <trkpt lat="44.47712" lon="5.93436">
        <ele>1579.1999511719</ele>
        <time>2016-05-06T09:37:25Z</time>
      </trkpt>
      <trkpt lat="44.47707" lon="5.93438">
        <ele>1579.1999511719</ele>
        <time>2016-05-06T09:37:26Z</time>
      </trkpt>
      <trkpt lat="44.47703" lon="5.9344">
        <ele>1578.8000488281</ele>
        <time>2016-05-06T09:37:27Z</time>
      </trkpt>
      <trkpt lat="44.47694" lon="5.93443">
        <ele>1578.1999511719</ele>
        <time>2016-05-06T09:37:29Z</time>
      </trkpt>
      <trkpt lat="44.47689" lon="5.93444">
        <ele>1578.1999511719</ele>
        <time>2016-05-06T09:37:30Z</time>
      </trkpt>
      <trkpt lat="44.47684" lon="5.93446">
        <ele>1577</ele>
        <time>2016-05-06T09:37:31Z</time>
      </trkpt>
      <trkpt lat="44.47675" lon="5.93449">
        <ele>1576.4000244141</ele>
        <time>2016-05-06T09:37:34Z</time>
      </trkpt>
      <trkpt lat="44.47672" lon="5.9345">
        <ele>1575.5999755859</ele>
        <time>2016-05-06T09:37:36Z</time>
      </trkpt>
      <trkpt lat="44.4767" lon="5.9345">
        <ele>1574.4000244141</ele>
        <time>2016-05-06T09:37:38Z</time>
      </trkpt>
      <trkpt lat="44.47664" lon="5.93451">
        <ele>1573.8000488281</ele>
        <time>2016-05-06T09:37:41Z</time>
      </trkpt>
      <trkpt lat="44.47659" lon="5.93452">
        <ele>1573.1999511719</ele>
        <time>2016-05-06T09:37:43Z</time>
      </trkpt>
      <trkpt lat="44.47656" lon="5.93453">
        <ele>1573.1999511719</ele>
        <time>2016-05-06T09:37:44Z</time>
      </trkpt>
      <trkpt lat="44.47653" lon="5.93454">
        <ele>1572.8000488281</ele>
        <time>2016-05-06T09:37:45Z</time>
      </trkpt>
      <trkpt lat="44.47642" lon="5.93455">
        <ele>1572.1999511719</ele>
        <time>2016-05-06T09:37:48Z</time>
      </trkpt>
      <trkpt lat="44.47633" lon="5.93456">
        <ele>1571.5999755859</ele>
        <time>2016-05-06T09:37:50Z</time>
      </trkpt>
      <trkpt lat="44.47623" lon="5.93456">
        <ele>1571.1999511719</ele>
        <time>2016-05-06T09:37:52Z</time>
      </trkpt>
      <trkpt lat="44.47617" lon="5.93456">
        <ele>1571.1999511719</ele>
        <time>2016-05-06T09:37:53Z</time>
      </trkpt>
      <trkpt lat="44.47607" lon="5.93455">
        <ele>1570.8000488281</ele>
        <time>2016-05-06T09:37:55Z</time>
      </trkpt>
      <trkpt lat="44.47596" lon="5.93456">
        <ele>1570</ele>
        <time>2016-05-06T09:37:57Z</time>
      </trkpt>
      <trkpt lat="44.47578" lon="5.93457">
        <ele>1569.1999511719</ele>
        <time>2016-05-06T09:38:00Z</time>
      </trkpt>
      <trkpt lat="44.47572" lon="5.93457">
        <ele>1569.1999511719</ele>
        <time>2016-05-06T09:38:01Z</time>
      </trkpt>
      <trkpt lat="44.47566" lon="5.93455">
        <ele>1568.4000244141</ele>
        <time>2016-05-06T09:38:02Z</time>
      </trkpt>
      <trkpt lat="44.47556" lon="5.93451">
        <ele>1566.8000488281</ele>
        <time>2016-05-06T09:38:04Z</time>
      </trkpt>
      <trkpt lat="44.47553" lon="5.9345">
        <ele>1566.8000488281</ele>
        <time>2016-05-06T09:38:05Z</time>
      </trkpt>
      <trkpt lat="44.4754" lon="5.93452">
        <ele>1566.8000488281</ele>
        <time>2016-05-06T09:38:09Z</time>
      </trkpt>
      <trkpt lat="44.47519" lon="5.93446">
        <ele>1566.8000488281</ele>
        <time>2016-05-06T09:38:15Z</time>
      </trkpt>
      <trkpt lat="44.47515" lon="5.93442">
        <ele>1566.1999511719</ele>
        <time>2016-05-06T09:38:17Z</time>
      </trkpt>
      <trkpt lat="44.47511" lon="5.93437">
        <ele>1565.5999755859</ele>
        <time>2016-05-06T09:38:19Z</time>
      </trkpt>
      <trkpt lat="44.47509" lon="5.93433">
        <ele>1565.5999755859</ele>
        <time>2016-05-06T09:38:20Z</time>
      </trkpt>
      <trkpt lat="44.47508" lon="5.93428">
        <ele>1564.5999755859</ele>
        <time>2016-05-06T09:38:21Z</time>
      </trkpt>
      <trkpt lat="44.47505" lon="5.93414">
        <ele>1563.5999755859</ele>
        <time>2016-05-06T09:38:24Z</time>
      </trkpt>
      <trkpt lat="44.47505" lon="5.9341">
        <ele>1563.5999755859</ele>
        <time>2016-05-06T09:38:25Z</time>
      </trkpt>
      <trkpt lat="44.47505" lon="5.93405">
        <ele>1562.5999755859</ele>
        <time>2016-05-06T09:38:26Z</time>
      </trkpt>
      <trkpt lat="44.47507" lon="5.93391">
        <ele>1561.4000244141</ele>
        <time>2016-05-06T09:38:29Z</time>
      </trkpt>
      <trkpt lat="44.4751" lon="5.93383">
        <ele>1560.1999511719</ele>
        <time>2016-05-06T09:38:31Z</time>
      </trkpt>
      <trkpt lat="44.47512" lon="5.93379">
        <ele>1560.1999511719</ele>
        <time>2016-05-06T09:38:32Z</time>
      </trkpt>
      <trkpt lat="44.47515" lon="5.93376">
        <ele>1559</ele>
        <time>2016-05-06T09:38:33Z</time>
      </trkpt>
      <trkpt lat="44.47525" lon="5.9337">
        <ele>1557.5999755859</ele>
        <time>2016-05-06T09:38:36Z</time>
      </trkpt>
      <trkpt lat="44.47527" lon="5.93369">
        <ele>1557.5999755859</ele>
        <time>2016-05-06T09:38:37Z</time>
      </trkpt>
      <trkpt lat="44.47529" lon="5.93369">
        <ele>1556.1999511719</ele>
        <time>2016-05-06T09:38:38Z</time>
      </trkpt>
      <trkpt lat="44.47533" lon="5.93367">
        <ele>1555</ele>
        <time>2016-05-06T09:38:42Z</time>
      </trkpt>
      <trkpt lat="44.47531" lon="5.93366">
        <ele>1553.5999755859</ele>
        <time>2016-05-06T09:38:44Z</time>
      </trkpt>
      <trkpt lat="44.4753" lon="5.93366">
        <ele>1552.1999511719</ele>
        <time>2016-05-06T09:38:47Z</time>
      </trkpt>
      <trkpt lat="44.4753" lon="5.93365">
        <ele>1552.1999511719</ele>
        <time>2016-05-06T09:38:48Z</time>
      </trkpt>
      <trkpt lat="44.47529" lon="5.93365">
        <ele>1551.1999511719</ele>
        <time>2016-05-06T09:38:49Z</time>
      </trkpt>
      <trkpt lat="44.47526" lon="5.9336">
        <ele>1551.1999511719</ele>
        <time>2016-05-06T09:38:50Z</time>
      </trkpt>
      <trkpt lat="44.47523" lon="5.93358">
        <ele>1550.1999511719</ele>
        <time>2016-05-06T09:38:51Z</time>
      </trkpt>
      <trkpt lat="44.4752" lon="5.93356">
        <ele>1550.1999511719</ele>
        <time>2016-05-06T09:38:52Z</time>
      </trkpt>
      <trkpt lat="44.47513" lon="5.93352">
        <ele>1549</ele>
        <time>2016-05-06T09:38:54Z</time>
      </trkpt>
      <trkpt lat="44.47503" lon="5.93351">
        <ele>1547.5999755859</ele>
        <time>2016-05-06T09:38:57Z</time>
      </trkpt>
      <trkpt lat="44.47498" lon="5.9335">
        <ele>1547.5999755859</ele>
        <time>2016-05-06T09:38:58Z</time>
      </trkpt>
      <trkpt lat="44.47491" lon="5.9335">
        <ele>1544.5999755859</ele>
        <time>2016-05-06T09:39:00Z</time>
      </trkpt>
      <trkpt lat="44.47485" lon="5.93349">
        <ele>1543</ele>
        <time>2016-05-06T09:39:02Z</time>
      </trkpt>
      <trkpt lat="44.47483" lon="5.93349">
        <ele>1543</ele>
        <time>2016-05-06T09:39:03Z</time>
      </trkpt>
      <trkpt lat="44.47479" lon="5.9335">
        <ele>1540</ele>
        <time>2016-05-06T09:39:05Z</time>
      </trkpt>
      <trkpt lat="44.47478" lon="5.9335">
        <ele>1538.4000244141</ele>
        <time>2016-05-06T09:39:07Z</time>
      </trkpt>
      <trkpt lat="44.47478" lon="5.9335">
        <ele>1538.4000244141</ele>
        <time>2016-05-06T09:39:08Z</time>
      </trkpt>
      <trkpt lat="44.47478" lon="5.9335">
        <ele>1537</ele>
        <time>2016-05-06T09:39:09Z</time>
      </trkpt>
      <trkpt lat="44.47477" lon="5.93349">
        <ele>1534</ele>
        <time>2016-05-06T09:39:12Z</time>
      </trkpt>
      <trkpt lat="44.47479" lon="5.93347">
        <ele>1534</ele>
        <time>2016-05-06T09:39:25Z</time>
      </trkpt>
      <trkpt lat="44.47481" lon="5.93343">
        <ele>1534</ele>
        <time>2016-05-06T09:39:26Z</time>
      </trkpt>
      <trkpt lat="44.4749" lon="5.93332">
        <ele>1533.4000244141</ele>
        <time>2016-05-06T09:39:29Z</time>
      </trkpt>
      <trkpt lat="44.47494" lon="5.93327">
        <ele>1533.4000244141</ele>
        <time>2016-05-06T09:39:31Z</time>
      </trkpt>
      <trkpt lat="44.47495" lon="5.93325">
        <ele>1533</ele>
        <time>2016-05-06T09:39:32Z</time>
      </trkpt>
      <trkpt lat="44.47498" lon="5.93324">
        <ele>1531.8000488281</ele>
        <time>2016-05-06T09:39:34Z</time>
      </trkpt>
      <trkpt lat="44.47499" lon="5.93323">
        <ele>1531.8000488281</ele>
        <time>2016-05-06T09:39:36Z</time>
      </trkpt>
      <trkpt lat="44.47499" lon="5.93323">
        <ele>1530.8000488281</ele>
        <time>2016-05-06T09:39:37Z</time>
      </trkpt>
      <trkpt lat="44.47499" lon="5.93321">
        <ele>1529.8000488281</ele>
        <time>2016-05-06T09:39:39Z</time>
      </trkpt>
      <trkpt lat="44.47498" lon="5.93321">
        <ele>1528.8000488281</ele>
        <time>2016-05-06T09:39:42Z</time>
      </trkpt>
      <trkpt lat="44.47498" lon="5.93322">
        <ele>1528.1999511719</ele>
        <time>2016-05-06T09:39:43Z</time>
      </trkpt>
      <trkpt lat="44.47498" lon="5.93322">
        <ele>1528.1999511719</ele>
        <time>2016-05-06T09:39:45Z</time>
      </trkpt>
      <trkpt lat="44.47497" lon="5.93322">
        <ele>1527.5999755859</ele>
        <time>2016-05-06T09:39:47Z</time>
      </trkpt>
      <trkpt lat="44.47497" lon="5.93322">
        <ele>1527</ele>
        <time>2016-05-06T09:39:48Z</time>
      </trkpt>
      <trkpt lat="44.47497" lon="5.93321">
        <ele>1526.4000244141</ele>
        <time>2016-05-06T09:39:49Z</time>
      </trkpt>
      <trkpt lat="44.47497" lon="5.93321">
        <ele>1525.8000488281</ele>
        <time>2016-05-06T09:39:50Z</time>
      </trkpt>
      <trkpt lat="44.4749" lon="5.93318">
        <ele>1525.8000488281</ele>
        <time>2016-05-06T09:39:59Z</time>
      </trkpt>
      <trkpt lat="44.47477" lon="5.93312">
        <ele>1525.1999511719</ele>
        <time>2016-05-06T09:40:04Z</time>
      </trkpt>
      <trkpt lat="44.47474" lon="5.9331">
        <ele>1525.1999511719</ele>
        <time>2016-05-06T09:40:05Z</time>
      </trkpt>
      <trkpt lat="44.4747" lon="5.93309">
        <ele>1524.1999511719</ele>
        <time>2016-05-06T09:40:06Z</time>
      </trkpt>
      <trkpt lat="44.47464" lon="5.93308">
        <ele>1523</ele>
        <time>2016-05-06T09:40:08Z</time>
      </trkpt>
      <trkpt lat="44.4746" lon="5.93307">
        <ele>1522</ele>
        <time>2016-05-06T09:40:09Z</time>
      </trkpt>
      <trkpt lat="44.47453" lon="5.93308">
        <ele>1520.5999755859</ele>
        <time>2016-05-06T09:40:11Z</time>
      </trkpt>
      <trkpt lat="44.47446" lon="5.9331">
        <ele>1519.1999511719</ele>
        <time>2016-05-06T09:40:13Z</time>
      </trkpt>
      <trkpt lat="44.47442" lon="5.93313">
        <ele>1519.1999511719</ele>
        <time>2016-05-06T09:40:14Z</time>
      </trkpt>
      <trkpt lat="44.47434" lon="5.93321">
        <ele>1517.5999755859</ele>
        <time>2016-05-06T09:40:16Z</time>
      </trkpt>
      <trkpt lat="44.47427" lon="5.93328">
        <ele>1516.1999511719</ele>
        <time>2016-05-06T09:40:18Z</time>
      </trkpt>
      <trkpt lat="44.47418" lon="5.93336">
        <ele>1512.8000488281</ele>
        <time>2016-05-06T09:40:21Z</time>
      </trkpt>
      <trkpt lat="44.47414" lon="5.93341">
        <ele>1511.1999511719</ele>
        <time>2016-05-06T09:40:23Z</time>
      </trkpt>
      <trkpt lat="44.4741" lon="5.93344">
        <ele>1509.5999755859</ele>
        <time>2016-05-06T09:40:25Z</time>
      </trkpt>
      <trkpt lat="44.47408" lon="5.93346">
        <ele>1508</ele>
        <time>2016-05-06T09:40:26Z</time>
      </trkpt>
      <trkpt lat="44.47404" lon="5.93349">
        <ele>1506.5999755859</ele>
        <time>2016-05-06T09:40:28Z</time>
      </trkpt>
      <trkpt lat="44.47401" lon="5.93351">
        <ele>1505.1999511719</ele>
        <time>2016-05-06T09:40:30Z</time>
      </trkpt>
      <trkpt lat="44.474" lon="5.93351">
        <ele>1505.1999511719</ele>
        <time>2016-05-06T09:40:32Z</time>
      </trkpt>
      <trkpt lat="44.474" lon="5.9335">
        <ele>1502.4000244141</ele>
        <time>2016-05-06T09:40:33Z</time>
      </trkpt>
      <trkpt lat="44.474" lon="5.93348">
        <ele>1501.1999511719</ele>
        <time>2016-05-06T09:40:35Z</time>
      </trkpt>
      <trkpt lat="44.474" lon="5.93348">
        <ele>1499.8000488281</ele>
        <time>2016-05-06T09:40:38Z</time>
      </trkpt>
      <trkpt lat="44.474" lon="5.93344">
        <ele>1499.8000488281</ele>
        <time>2016-05-06T09:40:40Z</time>
      </trkpt>
      <trkpt lat="44.474" lon="5.93337">
        <ele>1499.1999511719</ele>
        <time>2016-05-06T09:40:42Z</time>
      </trkpt>
      <trkpt lat="44.47399" lon="5.93326">
        <ele>1498.8000488281</ele>
        <time>2016-05-06T09:40:45Z</time>
      </trkpt>
      <trkpt lat="44.47398" lon="5.93319">
        <ele>1497.8000488281</ele>
        <time>2016-05-06T09:40:47Z</time>
      </trkpt>
      <trkpt lat="44.47398" lon="5.93312">
        <ele>1496.8000488281</ele>
        <time>2016-05-06T09:40:49Z</time>
      </trkpt>
      <trkpt lat="44.47398" lon="5.93309">
        <ele>1495.5999755859</ele>
        <time>2016-05-06T09:40:50Z</time>
      </trkpt>
      <trkpt lat="44.47399" lon="5.93301">
        <ele>1494.4000244141</ele>
        <time>2016-05-06T09:40:52Z</time>
      </trkpt>
      <trkpt lat="44.47401" lon="5.93293">
        <ele>1493.1999511719</ele>
        <time>2016-05-06T09:40:54Z</time>
      </trkpt>
      <trkpt lat="44.47401" lon="5.93289">
        <ele>1493.1999511719</ele>
        <time>2016-05-06T09:40:55Z</time>
      </trkpt>
      <trkpt lat="44.47402" lon="5.93282">
        <ele>1491.8000488281</ele>
        <time>2016-05-06T09:40:57Z</time>
      </trkpt>
      <trkpt lat="44.47403" lon="5.93273">
        <ele>1490.4000244141</ele>
        <time>2016-05-06T09:40:59Z</time>
      </trkpt>
      <trkpt lat="44.47405" lon="5.93264">
        <ele>1489</ele>
        <time>2016-05-06T09:41:01Z</time>
      </trkpt>
      <trkpt lat="44.47406" lon="5.93259">
        <ele>1487.5999755859</ele>
        <time>2016-05-06T09:41:02Z</time>
      </trkpt>
      <trkpt lat="44.47409" lon="5.93251">
        <ele>1486.1999511719</ele>
        <time>2016-05-06T09:41:04Z</time>
      </trkpt>
      <trkpt lat="44.47412" lon="5.93244">
        <ele>1485</ele>
        <time>2016-05-06T09:41:06Z</time>
      </trkpt>
      <trkpt lat="44.47412" lon="5.93242">
        <ele>1485</ele>
        <time>2016-05-06T09:41:07Z</time>
      </trkpt>
      <trkpt lat="44.47413" lon="5.93241">
        <ele>1483.5999755859</ele>
        <time>2016-05-06T09:41:09Z</time>
      </trkpt>
      <trkpt lat="44.47413" lon="5.9324">
        <ele>1482.4000244141</ele>
        <time>2016-05-06T09:41:11Z</time>
      </trkpt>
      <trkpt lat="44.47414" lon="5.9324">
        <ele>1482.4000244141</ele>
        <time>2016-05-06T09:41:12Z</time>
      </trkpt>
      <trkpt lat="44.47414" lon="5.9324">
        <ele>1480.4000244141</ele>
        <time>2016-05-06T09:41:14Z</time>
      </trkpt>
      <trkpt lat="44.47414" lon="5.9324">
        <ele>1479.5999755859</ele>
        <time>2016-05-06T09:41:16Z</time>
      </trkpt>
      <trkpt lat="44.47414" lon="5.9324">
        <ele>1478.5999755859</ele>
        <time>2016-05-06T09:41:18Z</time>
      </trkpt>
      <trkpt lat="44.47414" lon="5.9324">
        <ele>1477.5999755859</ele>
        <time>2016-05-06T09:41:21Z</time>
      </trkpt>
      <trkpt lat="44.47414" lon="5.9324">
        <ele>1477.1999511719</ele>
        <time>2016-05-06T09:41:30Z</time>
      </trkpt>
      <trkpt lat="44.47414" lon="5.9324">
        <ele>1476.4000244141</ele>
        <time>2016-05-06T09:41:33Z</time>
      </trkpt>
      <trkpt lat="44.47413" lon="5.93239">
        <ele>1476</ele>
        <time>2016-05-06T09:41:35Z</time>
      </trkpt>
      <trkpt lat="44.47412" lon="5.93239">
        <ele>1476</ele>
        <time>2016-05-06T09:41:36Z</time>
      </trkpt>
      <trkpt lat="44.4741" lon="5.9324">
        <ele>1476</ele>
        <time>2016-05-06T09:41:37Z</time>
      </trkpt>
      <trkpt lat="44.47406" lon="5.93242">
        <ele>1475.5999755859</ele>
        <time>2016-05-06T09:41:38Z</time>
      </trkpt>
      <trkpt lat="44.47399" lon="5.93246">
        <ele>1475.1999511719</ele>
        <time>2016-05-06T09:41:40Z</time>
      </trkpt>
      <trkpt lat="44.47393" lon="5.93248">
        <ele>1474.5999755859</ele>
        <time>2016-05-06T09:41:42Z</time>
      </trkpt>
      <trkpt lat="44.47391" lon="5.9325">
        <ele>1474.5999755859</ele>
        <time>2016-05-06T09:41:43Z</time>
      </trkpt>
      <trkpt lat="44.47385" lon="5.93253">
        <ele>1473</ele>
        <time>2016-05-06T09:41:45Z</time>
      </trkpt>
      <trkpt lat="44.47379" lon="5.93255">
        <ele>1471.8000488281</ele>
        <time>2016-05-06T09:41:47Z</time>
      </trkpt>
      <trkpt lat="44.47373" lon="5.93255">
        <ele>1471.8000488281</ele>
        <time>2016-05-06T09:41:49Z</time>
      </trkpt>
      <trkpt lat="44.47369" lon="5.93257">
        <ele>1470.8000488281</ele>
        <time>2016-05-06T09:41:50Z</time>
      </trkpt>
      <trkpt lat="44.47363" lon="5.93261">
        <ele>1468.1999511719</ele>
        <time>2016-05-06T09:41:52Z</time>
      </trkpt>
      <trkpt lat="44.47358" lon="5.93263">
        <ele>1466.8000488281</ele>
        <time>2016-05-06T09:41:54Z</time>
      </trkpt>
      <trkpt lat="44.47348" lon="5.93268">
        <ele>1465.4000244141</ele>
        <time>2016-05-06T09:41:57Z</time>
      </trkpt>
      <trkpt lat="44.47338" lon="5.93271">
        <ele>1462.5999755859</ele>
        <time>2016-05-06T09:41:59Z</time>
      </trkpt>
      <trkpt lat="44.47334" lon="5.93273">
        <ele>1462.5999755859</ele>
        <time>2016-05-06T09:42:00Z</time>
      </trkpt>
      <trkpt lat="44.47329" lon="5.93276">
        <ele>1461.4000244141</ele>
        <time>2016-05-06T09:42:01Z</time>
      </trkpt>
      <trkpt lat="44.47317" lon="5.93281">
        <ele>1461.4000244141</ele>
        <time>2016-05-06T09:42:03Z</time>
      </trkpt>
      <trkpt lat="44.4731" lon="5.93283">
        <ele>1460</ele>
        <time>2016-05-06T09:42:04Z</time>
      </trkpt>
      <trkpt lat="44.47295" lon="5.93288">
        <ele>1457.4000244141</ele>
        <time>2016-05-06T09:42:07Z</time>
      </trkpt>
      <trkpt lat="44.4729" lon="5.93288">
        <ele>1457.4000244141</ele>
        <time>2016-05-06T09:42:08Z</time>
      </trkpt>
      <trkpt lat="44.47277" lon="5.9329">
        <ele>1456</ele>
        <time>2016-05-06T09:42:10Z</time>
      </trkpt>
      <trkpt lat="44.47268" lon="5.93286">
        <ele>1453.4000244141</ele>
        <time>2016-05-06T09:42:12Z</time>
      </trkpt>
      <trkpt lat="44.47262" lon="5.93274">
        <ele>1452</ele>
        <time>2016-05-06T09:42:14Z</time>
      </trkpt>
      <trkpt lat="44.47258" lon="5.93267">
        <ele>1452</ele>
        <time>2016-05-06T09:42:15Z</time>
      </trkpt>
      <trkpt lat="44.47255" lon="5.9326">
        <ele>1452</ele>
        <time>2016-05-06T09:42:16Z</time>
      </trkpt>
      <trkpt lat="44.47251" lon="5.93253">
        <ele>1450.5999755859</ele>
        <time>2016-05-06T09:42:17Z</time>
      </trkpt>
      <trkpt lat="44.47241" lon="5.93235">
        <ele>1448.5999755859</ele>
        <time>2016-05-06T09:42:20Z</time>
      </trkpt>
      <trkpt lat="44.47239" lon="5.9323">
        <ele>1448.5999755859</ele>
        <time>2016-05-06T09:42:21Z</time>
      </trkpt>
      <trkpt lat="44.47237" lon="5.93223">
        <ele>1447.8000488281</ele>
        <time>2016-05-06T09:42:23Z</time>
      </trkpt>
      <trkpt lat="44.47237" lon="5.93219">
        <ele>1447.8000488281</ele>
        <time>2016-05-06T09:42:25Z</time>
      </trkpt>
      <trkpt lat="44.4724" lon="5.9321">
        <ele>1447</ele>
        <time>2016-05-06T09:42:28Z</time>
      </trkpt>
      <trkpt lat="44.47242" lon="5.93202">
        <ele>1445.5999755859</ele>
        <time>2016-05-06T09:42:30Z</time>
      </trkpt>
      <trkpt lat="44.47243" lon="5.93199">
        <ele>1445.5999755859</ele>
        <time>2016-05-06T09:42:31Z</time>
      </trkpt>
      <trkpt lat="44.47248" lon="5.93174">
        <ele>1445.5999755859</ele>
        <time>2016-05-06T09:42:36Z</time>
      </trkpt>
      <trkpt lat="44.47247" lon="5.93169">
        <ele>1445.5999755859</ele>
        <time>2016-05-06T09:42:37Z</time>
      </trkpt>
      <trkpt lat="44.47249" lon="5.93148">
        <ele>1445.5999755859</ele>
        <time>2016-05-06T09:42:41Z</time>
      </trkpt>
      <trkpt lat="44.47247" lon="5.93124">
        <ele>1445.5999755859</ele>
        <time>2016-05-06T09:42:46Z</time>
      </trkpt>
      <trkpt lat="44.47246" lon="5.93086">
        <ele>1445.5999755859</ele>
        <time>2016-05-06T09:42:54Z</time>
      </trkpt>
      <trkpt lat="44.47246" lon="5.93049">
        <ele>1445.5999755859</ele>
        <time>2016-05-06T09:43:01Z</time>
      </trkpt>
      <trkpt lat="44.47246" lon="5.93021">
        <ele>1445.5999755859</ele>
        <time>2016-05-06T09:43:07Z</time>
      </trkpt>
      <trkpt lat="44.47247" lon="5.92982">
        <ele>1445.5999755859</ele>
        <time>2016-05-06T09:43:15Z</time>
      </trkpt>
      <trkpt lat="44.47254" lon="5.92952">
        <ele>1445.5999755859</ele>
        <time>2016-05-06T09:43:24Z</time>
      </trkpt>
      <trkpt lat="44.47255" lon="5.92934">
        <ele>1446</ele>
        <time>2016-05-06T09:43:30Z</time>
      </trkpt>
      <trkpt lat="44.4725" lon="5.92927">
        <ele>1446.4000244141</ele>
        <time>2016-05-06T09:43:32Z</time>
      </trkpt>
      <trkpt lat="44.47248" lon="5.92922">
        <ele>1446.4000244141</ele>
        <time>2016-05-06T09:43:33Z</time>
      </trkpt>
      <trkpt lat="44.47248" lon="5.92912">
        <ele>1447.1999511719</ele>
        <time>2016-05-06T09:43:35Z</time>
      </trkpt>
      <trkpt lat="44.47248" lon="5.92908">
        <ele>1447.1999511719</ele>
        <time>2016-05-06T09:43:36Z</time>
      </trkpt>
      <trkpt lat="44.47249" lon="5.92905">
        <ele>1447.5999755859</ele>
        <time>2016-05-06T09:43:37Z</time>
      </trkpt>
      <trkpt lat="44.4725" lon="5.92902">
        <ele>1447.5999755859</ele>
        <time>2016-05-06T09:43:38Z</time>
      </trkpt>
      <trkpt lat="44.4725" lon="5.92893">
        <ele>1447.5999755859</ele>
        <time>2016-05-06T09:43:41Z</time>
      </trkpt>
      <trkpt lat="44.47247" lon="5.92886">
        <ele>1447.5999755859</ele>
        <time>2016-05-06T09:43:43Z</time>
      </trkpt>
      <trkpt lat="44.47244" lon="5.92878">
        <ele>1447.5999755859</ele>
        <time>2016-05-06T09:43:46Z</time>
      </trkpt>
      <trkpt lat="44.47235" lon="5.92859">
        <ele>1447.5999755859</ele>
        <time>2016-05-06T09:43:51Z</time>
      </trkpt>
      <trkpt lat="44.4723" lon="5.92848">
        <ele>1447.5999755859</ele>
        <time>2016-05-06T09:43:55Z</time>
      </trkpt>
      <trkpt lat="44.47224" lon="5.92825">
        <ele>1447.5999755859</ele>
        <time>2016-05-06T09:44:01Z</time>
      </trkpt>
      <trkpt lat="44.47223" lon="5.9282">
        <ele>1447.5999755859</ele>
        <time>2016-05-06T09:44:02Z</time>
      </trkpt>
      <trkpt lat="44.47224" lon="5.92811">
        <ele>1447.5999755859</ele>
        <time>2016-05-06T09:44:04Z</time>
      </trkpt>
      <trkpt lat="44.47221" lon="5.92785">
        <ele>1447.5999755859</ele>
        <time>2016-05-06T09:44:11Z</time>
      </trkpt>
      <trkpt lat="44.47218" lon="5.92762">
        <ele>1447.5999755859</ele>
        <time>2016-05-06T09:44:17Z</time>
      </trkpt>
      <trkpt lat="44.47219" lon="5.9274">
        <ele>1447.5999755859</ele>
        <time>2016-05-06T09:44:23Z</time>
      </trkpt>
      <trkpt lat="44.47218" lon="5.92723">
        <ele>1447.5999755859</ele>
        <time>2016-05-06T09:44:29Z</time>
      </trkpt>
      <trkpt lat="44.47222" lon="5.92705">
        <ele>1447.5999755859</ele>
        <time>2016-05-06T09:44:35Z</time>
      </trkpt>
      <trkpt lat="44.4722" lon="5.92701">
        <ele>1447.5999755859</ele>
        <time>2016-05-06T09:44:36Z</time>
      </trkpt>
      <trkpt lat="44.47214" lon="5.92689">
        <ele>1447.5999755859</ele>
        <time>2016-05-06T09:44:41Z</time>
      </trkpt>
      <trkpt lat="44.47207" lon="5.92666">
        <ele>1447.5999755859</ele>
        <time>2016-05-06T09:44:47Z</time>
      </trkpt>
      <trkpt lat="44.47205" lon="5.92649">
        <ele>1447.5999755859</ele>
        <time>2016-05-06T09:44:52Z</time>
      </trkpt>
      <trkpt lat="44.47205" lon="5.92646">
        <ele>1447.1999511719</ele>
        <time>2016-05-06T09:44:53Z</time>
      </trkpt>
      <trkpt lat="44.47203" lon="5.92638">
        <ele>1446.5999755859</ele>
        <time>2016-05-06T09:44:55Z</time>
      </trkpt>
      <trkpt lat="44.47202" lon="5.92633">
        <ele>1446.5999755859</ele>
        <time>2016-05-06T09:44:57Z</time>
      </trkpt>
      <trkpt lat="44.472" lon="5.9263">
        <ele>1445.4000244141</ele>
        <time>2016-05-06T09:44:58Z</time>
      </trkpt>
      <trkpt lat="44.47198" lon="5.92624">
        <ele>1444.5999755859</ele>
        <time>2016-05-06T09:45:00Z</time>
      </trkpt>
      <trkpt lat="44.47196" lon="5.92618">
        <ele>1444</ele>
        <time>2016-05-06T09:45:02Z</time>
      </trkpt>
      <trkpt lat="44.47195" lon="5.92611">
        <ele>1443.1999511719</ele>
        <time>2016-05-06T09:45:05Z</time>
      </trkpt>
      <trkpt lat="44.47194" lon="5.92608">
        <ele>1442.4000244141</ele>
        <time>2016-05-06T09:45:07Z</time>
      </trkpt>
      <trkpt lat="44.47188" lon="5.92587">
        <ele>1442.4000244141</ele>
        <time>2016-05-06T09:45:21Z</time>
      </trkpt>
      <trkpt lat="44.47186" lon="5.92583">
        <ele>1442</ele>
        <time>2016-05-06T09:45:22Z</time>
      </trkpt>
      <trkpt lat="44.47186" lon="5.92574">
        <ele>1441.4000244141</ele>
        <time>2016-05-06T09:45:24Z</time>
      </trkpt>
      <trkpt lat="44.47184" lon="5.92565">
        <ele>1441</ele>
        <time>2016-05-06T09:45:26Z</time>
      </trkpt>
      <trkpt lat="44.47182" lon="5.9256">
        <ele>1441</ele>
        <time>2016-05-06T09:45:27Z</time>
      </trkpt>
      <trkpt lat="44.4718" lon="5.92552">
        <ele>1439.5999755859</ele>
        <time>2016-05-06T09:45:29Z</time>
      </trkpt>
      <trkpt lat="44.47177" lon="5.92545">
        <ele>1438.8000488281</ele>
        <time>2016-05-06T09:45:31Z</time>
      </trkpt>
      <trkpt lat="44.47176" lon="5.92538">
        <ele>1438.1999511719</ele>
        <time>2016-05-06T09:45:33Z</time>
      </trkpt>
      <trkpt lat="44.47175" lon="5.92535">
        <ele>1438.1999511719</ele>
        <time>2016-05-06T09:45:34Z</time>
      </trkpt>
      <trkpt lat="44.47174" lon="5.92529">
        <ele>1437</ele>
        <time>2016-05-06T09:45:36Z</time>
      </trkpt>
      <trkpt lat="44.47174" lon="5.92523">
        <ele>1436.5999755859</ele>
        <time>2016-05-06T09:45:38Z</time>
      </trkpt>
      <trkpt lat="44.47174" lon="5.92521">
        <ele>1436.5999755859</ele>
        <time>2016-05-06T09:45:39Z</time>
      </trkpt>
      <trkpt lat="44.47173" lon="5.92518">
        <ele>1436.1999511719</ele>
        <time>2016-05-06T09:45:40Z</time>
      </trkpt>
      <trkpt lat="44.47172" lon="5.92512">
        <ele>1434.8000488281</ele>
        <time>2016-05-06T09:45:43Z</time>
      </trkpt>
      <trkpt lat="44.47173" lon="5.92508">
        <ele>1434.1999511719</ele>
        <time>2016-05-06T09:45:45Z</time>
      </trkpt>
      <trkpt lat="44.47173" lon="5.92507">
        <ele>1434.1999511719</ele>
        <time>2016-05-06T09:45:46Z</time>
      </trkpt>
      <trkpt lat="44.47173" lon="5.92507">
        <ele>1433.5999755859</ele>
        <time>2016-05-06T09:45:48Z</time>
      </trkpt>
      <trkpt lat="44.47173" lon="5.92506">
        <ele>1432.8000488281</ele>
        <time>2016-05-06T09:45:50Z</time>
      </trkpt>
      <trkpt lat="44.47173" lon="5.92506">
        <ele>1432.4000244141</ele>
        <time>2016-05-06T09:45:55Z</time>
      </trkpt>
      <trkpt lat="44.47172" lon="5.92506">
        <ele>1432</ele>
        <time>2016-05-06T09:45:57Z</time>
      </trkpt>
      <trkpt lat="44.47172" lon="5.92506">
        <ele>1432</ele>
        <time>2016-05-06T09:45:58Z</time>
      </trkpt>
      <trkpt lat="44.47172" lon="5.92505">
        <ele>1431.1999511719</ele>
        <time>2016-05-06T09:46:00Z</time>
      </trkpt>
      <trkpt lat="44.47172" lon="5.92498">
        <ele>1430.8000488281</ele>
        <time>2016-05-06T09:46:02Z</time>
      </trkpt>
      <trkpt lat="44.47168" lon="5.92486">
        <ele>1430.8000488281</ele>
        <time>2016-05-06T09:46:04Z</time>
      </trkpt>
      <trkpt lat="44.47162" lon="5.9247">
        <ele>1430.4000244141</ele>
        <time>2016-05-06T09:46:07Z</time>
      </trkpt>
      <trkpt lat="44.47159" lon="5.92461">
        <ele>1429.8000488281</ele>
        <time>2016-05-06T09:46:09Z</time>
      </trkpt>
      <trkpt lat="44.47154" lon="5.92449">
        <ele>1428.5999755859</ele>
        <time>2016-05-06T09:46:12Z</time>
      </trkpt>
      <trkpt lat="44.47151" lon="5.92444">
        <ele>1428</ele>
        <time>2016-05-06T09:46:14Z</time>
      </trkpt>
      <trkpt lat="44.47149" lon="5.92441">
        <ele>1427.1999511719</ele>
        <time>2016-05-06T09:46:16Z</time>
      </trkpt>
      <trkpt lat="44.47146" lon="5.92435">
        <ele>1426.5999755859</ele>
        <time>2016-05-06T09:46:19Z</time>
      </trkpt>
      <trkpt lat="44.47142" lon="5.92432">
        <ele>1425.8000488281</ele>
        <time>2016-05-06T09:46:21Z</time>
      </trkpt>
      <trkpt lat="44.47142" lon="5.92432">
        <ele>1425.8000488281</ele>
        <time>2016-05-06T09:46:24Z</time>
      </trkpt>
      <trkpt lat="44.47136" lon="5.9243">
        <ele>1426.1999511719</ele>
        <time>2016-05-06T09:46:28Z</time>
      </trkpt>
      <trkpt lat="44.47133" lon="5.92429">
        <ele>1426.5999755859</ele>
        <time>2016-05-06T09:46:30Z</time>
      </trkpt>
      <trkpt lat="44.47132" lon="5.92428">
        <ele>1426.5999755859</ele>
        <time>2016-05-06T09:46:31Z</time>
      </trkpt>
      <trkpt lat="44.4713" lon="5.92425">
        <ele>1427</ele>
        <time>2016-05-06T09:46:33Z</time>
      </trkpt>
      <trkpt lat="44.47125" lon="5.9242">
        <ele>1427.5999755859</ele>
        <time>2016-05-06T09:46:35Z</time>
      </trkpt>
      <trkpt lat="44.4712" lon="5.92413">
        <ele>1427.5999755859</ele>
        <time>2016-05-06T09:46:37Z</time>
      </trkpt>
      <trkpt lat="44.47117" lon="5.9241">
        <ele>1428</ele>
        <time>2016-05-06T09:46:38Z</time>
      </trkpt>
      <trkpt lat="44.47106" lon="5.92399">
        <ele>1428</ele>
        <time>2016-05-06T09:46:43Z</time>
      </trkpt>
      <trkpt lat="44.47092" lon="5.924">
        <ele>1428</ele>
        <time>2016-05-06T09:46:49Z</time>
      </trkpt>
      <trkpt lat="44.47078" lon="5.92413">
        <ele>1428</ele>
        <time>2016-05-06T09:46:57Z</time>
      </trkpt>
      <trkpt lat="44.47071" lon="5.92417">
        <ele>1428.8000488281</ele>
        <time>2016-05-06T09:47:00Z</time>
      </trkpt>
      <trkpt lat="44.47066" lon="5.92423">
        <ele>1429.1999511719</ele>
        <time>2016-05-06T09:47:03Z</time>
      </trkpt>
      <trkpt lat="44.47064" lon="5.92424">
        <ele>1429.1999511719</ele>
        <time>2016-05-06T09:47:04Z</time>
      </trkpt>
      <trkpt lat="44.47062" lon="5.92426">
        <ele>1429.5999755859</ele>
        <time>2016-05-06T09:47:05Z</time>
      </trkpt>
      <trkpt lat="44.47056" lon="5.9243">
        <ele>1430</ele>
        <time>2016-05-06T09:47:07Z</time>
      </trkpt>
      <trkpt lat="44.47048" lon="5.92437">
        <ele>1430</ele>
        <time>2016-05-06T09:47:10Z</time>
      </trkpt>
      <trkpt lat="44.47044" lon="5.92445">
        <ele>1429.5999755859</ele>
        <time>2016-05-06T09:47:13Z</time>
      </trkpt>
      <trkpt lat="44.47038" lon="5.92452">
        <ele>1428.5999755859</ele>
        <time>2016-05-06T09:47:16Z</time>
      </trkpt>
      <trkpt lat="44.47036" lon="5.92454">
        <ele>1428.5999755859</ele>
        <time>2016-05-06T09:47:17Z</time>
      </trkpt>
      <trkpt lat="44.47035" lon="5.92457">
        <ele>1428</ele>
        <time>2016-05-06T09:47:18Z</time>
      </trkpt>
      <trkpt lat="44.47031" lon="5.92461">
        <ele>1427.5999755859</ele>
        <time>2016-05-06T09:47:21Z</time>
      </trkpt>
      <trkpt lat="44.47028" lon="5.92464">
        <ele>1427.5999755859</ele>
        <time>2016-05-06T09:47:22Z</time>
      </trkpt>
      <trkpt lat="44.47011" lon="5.92478">
        <ele>1427.5999755859</ele>
        <time>2016-05-06T09:47:27Z</time>
      </trkpt>
      <trkpt lat="44.47004" lon="5.92483">
        <ele>1427.1999511719</ele>
        <time>2016-05-06T09:47:29Z</time>
      </trkpt>
      <trkpt lat="44.46998" lon="5.92489">
        <ele>1426.5999755859</ele>
        <time>2016-05-06T09:47:31Z</time>
      </trkpt>
      <trkpt lat="44.46989" lon="5.92498">
        <ele>1425.5999755859</ele>
        <time>2016-05-06T09:47:34Z</time>
      </trkpt>
      <trkpt lat="44.46984" lon="5.92503">
        <ele>1425.1999511719</ele>
        <time>2016-05-06T09:47:36Z</time>
      </trkpt>
      <trkpt lat="44.46974" lon="5.92513">
        <ele>1425.1999511719</ele>
        <time>2016-05-06T09:47:40Z</time>
      </trkpt>
      <trkpt lat="44.46955" lon="5.92529">
        <ele>1424.5999755859</ele>
        <time>2016-05-06T09:47:46Z</time>
      </trkpt>
      <trkpt lat="44.46952" lon="5.92531">
        <ele>1424.5999755859</ele>
        <time>2016-05-06T09:47:47Z</time>
      </trkpt>
      <trkpt lat="44.4695" lon="5.9253">
        <ele>1424.1999511719</ele>
        <time>2016-05-06T09:47:48Z</time>
      </trkpt>
      <trkpt lat="44.46946" lon="5.92523">
        <ele>1423.5999755859</ele>
        <time>2016-05-06T09:47:51Z</time>
      </trkpt>
      <trkpt lat="44.46944" lon="5.9252">
        <ele>1423.5999755859</ele>
        <time>2016-05-06T09:47:52Z</time>
      </trkpt>
      <trkpt lat="44.4694" lon="5.92518">
        <ele>1423</ele>
        <time>2016-05-06T09:47:53Z</time>
      </trkpt>
      <trkpt lat="44.46936" lon="5.92513">
        <ele>1422.4000244141</ele>
        <time>2016-05-06T09:47:55Z</time>
      </trkpt>
      <trkpt lat="44.46933" lon="5.92504">
        <ele>1422.4000244141</ele>
        <time>2016-05-06T09:47:57Z</time>
      </trkpt>
      <trkpt lat="44.46931" lon="5.92499">
        <ele>1420.1999511719</ele>
        <time>2016-05-06T09:47:58Z</time>
      </trkpt>
      <trkpt lat="44.46926" lon="5.92486">
        <ele>1419.1999511719</ele>
        <time>2016-05-06T09:48:00Z</time>
      </trkpt>
      <trkpt lat="44.46923" lon="5.92479">
        <ele>1419.1999511719</ele>
        <time>2016-05-06T09:48:01Z</time>
      </trkpt>
      <trkpt lat="44.46918" lon="5.92463">
        <ele>1417.4000244141</ele>
        <time>2016-05-06T09:48:03Z</time>
      </trkpt>
      <trkpt lat="44.46915" lon="5.92455">
        <ele>1417.4000244141</ele>
        <time>2016-05-06T09:48:04Z</time>
      </trkpt>
      <trkpt lat="44.46913" lon="5.92449">
        <ele>1416.5999755859</ele>
        <time>2016-05-06T09:48:05Z</time>
      </trkpt>
      <trkpt lat="44.4691" lon="5.92443">
        <ele>1416.5999755859</ele>
        <time>2016-05-06T09:48:06Z</time>
      </trkpt>
      <trkpt lat="44.46906" lon="5.92432">
        <ele>1414.8000488281</ele>
        <time>2016-05-06T09:48:08Z</time>
      </trkpt>
      <trkpt lat="44.46897" lon="5.92401">
        <ele>1414.8000488281</ele>
        <time>2016-05-06T09:48:14Z</time>
      </trkpt>
      <trkpt lat="44.46893" lon="5.92385">
        <ele>1414.4000244141</ele>
        <time>2016-05-06T09:48:17Z</time>
      </trkpt>
      <trkpt lat="44.4689" lon="5.9238">
        <ele>1414.4000244141</ele>
        <time>2016-05-06T09:48:18Z</time>
      </trkpt>
      <trkpt lat="44.46886" lon="5.92367">
        <ele>1413.5999755859</ele>
        <time>2016-05-06T09:48:20Z</time>
      </trkpt>
      <trkpt lat="44.46881" lon="5.92353">
        <ele>1413.1999511719</ele>
        <time>2016-05-06T09:48:22Z</time>
      </trkpt>
      <trkpt lat="44.46876" lon="5.92339">
        <ele>1413.1999511719</ele>
        <time>2016-05-06T09:48:24Z</time>
      </trkpt>
      <trkpt lat="44.46875" lon="5.92332">
        <ele>1412.5999755859</ele>
        <time>2016-05-06T09:48:25Z</time>
      </trkpt>
      <trkpt lat="44.46874" lon="5.92321">
        <ele>1412.1999511719</ele>
        <time>2016-05-06T09:48:27Z</time>
      </trkpt>
      <trkpt lat="44.46874" lon="5.92315">
        <ele>1412.1999511719</ele>
        <time>2016-05-06T09:48:28Z</time>
      </trkpt>
      <trkpt lat="44.46875" lon="5.92311">
        <ele>1411.5999755859</ele>
        <time>2016-05-06T09:48:29Z</time>
      </trkpt>
      <trkpt lat="44.46876" lon="5.92302">
        <ele>1411.1999511719</ele>
        <time>2016-05-06T09:48:31Z</time>
      </trkpt>
      <trkpt lat="44.46877" lon="5.92289">
        <ele>1410.8000488281</ele>
        <time>2016-05-06T09:48:34Z</time>
      </trkpt>
      <trkpt lat="44.46877" lon="5.92281">
        <ele>1410.1999511719</ele>
        <time>2016-05-06T09:48:36Z</time>
      </trkpt>
      <trkpt lat="44.46883" lon="5.92258">
        <ele>1410.1999511719</ele>
        <time>2016-05-06T09:48:42Z</time>
      </trkpt>
      <trkpt lat="44.46888" lon="5.92239">
        <ele>1410.8000488281</ele>
        <time>2016-05-06T09:48:48Z</time>
      </trkpt>
      <trkpt lat="44.46889" lon="5.92231">
        <ele>1411.1999511719</ele>
        <time>2016-05-06T09:48:50Z</time>
      </trkpt>
      <trkpt lat="44.46889" lon="5.9222">
        <ele>1411.8000488281</ele>
        <time>2016-05-06T09:48:53Z</time>
      </trkpt>
      <trkpt lat="44.46889" lon="5.92214">
        <ele>1412.1999511719</ele>
        <time>2016-05-06T09:48:55Z</time>
      </trkpt>
      <trkpt lat="44.46887" lon="5.92208">
        <ele>1412.8000488281</ele>
        <time>2016-05-06T09:48:58Z</time>
      </trkpt>
      <trkpt lat="44.46886" lon="5.92207">
        <ele>1412.8000488281</ele>
        <time>2016-05-06T09:48:59Z</time>
      </trkpt>
      <trkpt lat="44.4688" lon="5.92193">
        <ele>1412.8000488281</ele>
        <time>2016-05-06T09:49:04Z</time>
      </trkpt>
      <trkpt lat="44.4687" lon="5.92171">
        <ele>1412.8000488281</ele>
        <time>2016-05-06T09:49:10Z</time>
      </trkpt>
      <trkpt lat="44.46864" lon="5.92165">
        <ele>1412.4000244141</ele>
        <time>2016-05-06T09:49:12Z</time>
      </trkpt>
      <trkpt lat="44.46857" lon="5.9216">
        <ele>1412</ele>
        <time>2016-05-06T09:49:14Z</time>
      </trkpt>
      <trkpt lat="44.46855" lon="5.92158">
        <ele>1412</ele>
        <time>2016-05-06T09:49:15Z</time>
      </trkpt>
      <trkpt lat="44.46849" lon="5.92154">
        <ele>1411.5999755859</ele>
        <time>2016-05-06T09:49:17Z</time>
      </trkpt>
      <trkpt lat="44.46843" lon="5.92148">
        <ele>1411.1999511719</ele>
        <time>2016-05-06T09:49:19Z</time>
      </trkpt>
      <trkpt lat="44.4684" lon="5.92146">
        <ele>1411.1999511719</ele>
        <time>2016-05-06T09:49:20Z</time>
      </trkpt>
      <trkpt lat="44.46836" lon="5.92142">
        <ele>1410.1999511719</ele>
        <time>2016-05-06T09:49:22Z</time>
      </trkpt>
      <trkpt lat="44.46833" lon="5.92136">
        <ele>1409.8000488281</ele>
        <time>2016-05-06T09:49:24Z</time>
      </trkpt>
      <trkpt lat="44.46829" lon="5.92132">
        <ele>1409.4000244141</ele>
        <time>2016-05-06T09:49:26Z</time>
      </trkpt>
      <trkpt lat="44.46823" lon="5.92127">
        <ele>1408</ele>
        <time>2016-05-06T09:49:29Z</time>
      </trkpt>
      <trkpt lat="44.4682" lon="5.92124">
        <ele>1408</ele>
        <time>2016-05-06T09:49:30Z</time>
      </trkpt>
      <trkpt lat="44.46816" lon="5.92121">
        <ele>1407.1999511719</ele>
        <time>2016-05-06T09:49:31Z</time>
      </trkpt>
      <trkpt lat="44.46805" lon="5.92114">
        <ele>1406.5999755859</ele>
        <time>2016-05-06T09:49:34Z</time>
      </trkpt>
      <trkpt lat="44.46798" lon="5.92107">
        <ele>1406.5999755859</ele>
        <time>2016-05-06T09:49:36Z</time>
      </trkpt>
      <trkpt lat="44.46794" lon="5.92102">
        <ele>1405.8000488281</ele>
        <time>2016-05-06T09:49:37Z</time>
      </trkpt>
      <trkpt lat="44.46786" lon="5.92087">
        <ele>1405</ele>
        <time>2016-05-06T09:49:40Z</time>
      </trkpt>
      <trkpt lat="44.46781" lon="5.9208">
        <ele>1404.1999511719</ele>
        <time>2016-05-06T09:49:42Z</time>
      </trkpt>
      <trkpt lat="44.46775" lon="5.92072">
        <ele>1404.1999511719</ele>
        <time>2016-05-06T09:49:44Z</time>
      </trkpt>
      <trkpt lat="44.46767" lon="5.92062">
        <ele>1404.1999511719</ele>
        <time>2016-05-06T09:49:46Z</time>
      </trkpt>
      <trkpt lat="44.46762" lon="5.92058">
        <ele>1402.4000244141</ele>
        <time>2016-05-06T09:49:47Z</time>
      </trkpt>
      <trkpt lat="44.46758" lon="5.92054">
        <ele>1401.5999755859</ele>
        <time>2016-05-06T09:49:48Z</time>
      </trkpt>
      <trkpt lat="44.46753" lon="5.9205">
        <ele>1401</ele>
        <time>2016-05-06T09:49:49Z</time>
      </trkpt>
      <trkpt lat="44.46739" lon="5.92037">
        <ele>1400.1999511719</ele>
        <time>2016-05-06T09:49:52Z</time>
      </trkpt>
      <trkpt lat="44.46735" lon="5.92032">
        <ele>1400.1999511719</ele>
        <time>2016-05-06T09:49:53Z</time>
      </trkpt>
      <trkpt lat="44.46729" lon="5.92027">
        <ele>1399.4000244141</ele>
        <time>2016-05-06T09:49:55Z</time>
      </trkpt>
      <trkpt lat="44.46724" lon="5.92023">
        <ele>1398.8000488281</ele>
        <time>2016-05-06T09:49:57Z</time>
      </trkpt>
      <trkpt lat="44.46715" lon="5.92021">
        <ele>1398.8000488281</ele>
        <time>2016-05-06T09:49:59Z</time>
      </trkpt>
      <trkpt lat="44.46709" lon="5.92019">
        <ele>1398</ele>
        <time>2016-05-06T09:50:00Z</time>
      </trkpt>
      <trkpt lat="44.46705" lon="5.92016">
        <ele>1398</ele>
        <time>2016-05-06T09:50:01Z</time>
      </trkpt>
      <trkpt lat="44.46701" lon="5.92013">
        <ele>1397.1999511719</ele>
        <time>2016-05-06T09:50:02Z</time>
      </trkpt>
      <trkpt lat="44.46695" lon="5.92005">
        <ele>1396.1999511719</ele>
        <time>2016-05-06T09:50:05Z</time>
      </trkpt>
      <trkpt lat="44.46692" lon="5.92001">
        <ele>1396.1999511719</ele>
        <time>2016-05-06T09:50:06Z</time>
      </trkpt>
      <trkpt lat="44.4669" lon="5.91997">
        <ele>1395.1999511719</ele>
        <time>2016-05-06T09:50:07Z</time>
      </trkpt>
      <trkpt lat="44.46685" lon="5.91984">
        <ele>1394</ele>
        <time>2016-05-06T09:50:09Z</time>
      </trkpt>
      <trkpt lat="44.46686" lon="5.9196">
        <ele>1392.5999755859</ele>
        <time>2016-05-06T09:50:12Z</time>
      </trkpt>
      <trkpt lat="44.46688" lon="5.91954">
        <ele>1392.5999755859</ele>
        <time>2016-05-06T09:50:13Z</time>
      </trkpt>
      <trkpt lat="44.46688" lon="5.91951">
        <ele>1391.4000244141</ele>
        <time>2016-05-06T09:50:14Z</time>
      </trkpt>
      <trkpt lat="44.4669" lon="5.91948">
        <ele>1391.4000244141</ele>
        <time>2016-05-06T09:50:15Z</time>
      </trkpt>
      <trkpt lat="44.46693" lon="5.91947">
        <ele>1390</ele>
        <time>2016-05-06T09:50:16Z</time>
      </trkpt>
      <trkpt lat="44.46698" lon="5.91943">
        <ele>1387.4000244141</ele>
        <time>2016-05-06T09:50:19Z</time>
      </trkpt>
      <trkpt lat="44.467" lon="5.91936">
        <ele>1386.8000488281</ele>
        <time>2016-05-06T09:50:21Z</time>
      </trkpt>
      <trkpt lat="44.46702" lon="5.91932">
        <ele>1386.8000488281</ele>
        <time>2016-05-06T09:50:22Z</time>
      </trkpt>
      <trkpt lat="44.46704" lon="5.91929">
        <ele>1386.8000488281</ele>
        <time>2016-05-06T09:50:23Z</time>
      </trkpt>
      <trkpt lat="44.46706" lon="5.91926">
        <ele>1386</ele>
        <time>2016-05-06T09:50:24Z</time>
      </trkpt>
      <trkpt lat="44.46713" lon="5.9192">
        <ele>1384.1999511719</ele>
        <time>2016-05-06T09:50:26Z</time>
      </trkpt>
      <trkpt lat="44.46717" lon="5.91917">
        <ele>1384.1999511719</ele>
        <time>2016-05-06T09:50:27Z</time>
      </trkpt>
      <trkpt lat="44.46722" lon="5.91913">
        <ele>1383.4000244141</ele>
        <time>2016-05-06T09:50:28Z</time>
      </trkpt>
      <trkpt lat="44.46738" lon="5.91901">
        <ele>1382.4000244141</ele>
        <time>2016-05-06T09:50:31Z</time>
      </trkpt>
      <trkpt lat="44.46748" lon="5.91894">
        <ele>1381.1999511719</ele>
        <time>2016-05-06T09:50:33Z</time>
      </trkpt>
      <trkpt lat="44.4676" lon="5.91881">
        <ele>1380.1999511719</ele>
        <time>2016-05-06T09:50:36Z</time>
      </trkpt>
      <trkpt lat="44.46769" lon="5.91866">
        <ele>1377.5999755859</ele>
        <time>2016-05-06T09:50:38Z</time>
      </trkpt>
      <trkpt lat="44.46774" lon="5.91855">
        <ele>1376.4000244141</ele>
        <time>2016-05-06T09:50:40Z</time>
      </trkpt>
      <trkpt lat="44.46785" lon="5.91842">
        <ele>1375.4000244141</ele>
        <time>2016-05-06T09:50:43Z</time>
      </trkpt>
      <trkpt lat="44.46789" lon="5.9184">
        <ele>1375.4000244141</ele>
        <time>2016-05-06T09:50:44Z</time>
      </trkpt>
      <trkpt lat="44.46792" lon="5.91836">
        <ele>1374.4000244141</ele>
        <time>2016-05-06T09:50:45Z</time>
      </trkpt>
      <trkpt lat="44.46802" lon="5.91823">
        <ele>1373.4000244141</ele>
        <time>2016-05-06T09:50:48Z</time>
      </trkpt>
      <trkpt lat="44.46807" lon="5.91816">
        <ele>1372.4000244141</ele>
        <time>2016-05-06T09:50:50Z</time>
      </trkpt>
      <trkpt lat="44.4681" lon="5.91813">
        <ele>1372.4000244141</ele>
        <time>2016-05-06T09:50:51Z</time>
      </trkpt>
      <trkpt lat="44.46812" lon="5.91809">
        <ele>1371.4000244141</ele>
        <time>2016-05-06T09:50:52Z</time>
      </trkpt>
      <trkpt lat="44.46818" lon="5.91802">
        <ele>1370.4000244141</ele>
        <time>2016-05-06T09:50:55Z</time>
      </trkpt>
      <trkpt lat="44.46821" lon="5.91799">
        <ele>1370.4000244141</ele>
        <time>2016-05-06T09:50:56Z</time>
      </trkpt>
      <trkpt lat="44.46825" lon="5.91796">
        <ele>1368.5999755859</ele>
        <time>2016-05-06T09:50:57Z</time>
      </trkpt>
      <trkpt lat="44.46834" lon="5.91789">
        <ele>1367.8000488281</ele>
        <time>2016-05-06T09:50:59Z</time>
      </trkpt>
      <trkpt lat="44.46838" lon="5.91786">
        <ele>1367.8000488281</ele>
        <time>2016-05-06T09:51:00Z</time>
      </trkpt>
      <trkpt lat="44.46848" lon="5.91779">
        <ele>1366.8000488281</ele>
        <time>2016-05-06T09:51:02Z</time>
      </trkpt>
      <trkpt lat="44.46857" lon="5.91773">
        <ele>1366</ele>
        <time>2016-05-06T09:51:04Z</time>
      </trkpt>
      <trkpt lat="44.46862" lon="5.91771">
        <ele>1366</ele>
        <time>2016-05-06T09:51:05Z</time>
      </trkpt>
      <trkpt lat="44.46871" lon="5.91768">
        <ele>1364.5999755859</ele>
        <time>2016-05-06T09:51:07Z</time>
      </trkpt>
      <trkpt lat="44.46879" lon="5.91767">
        <ele>1363.1999511719</ele>
        <time>2016-05-06T09:51:09Z</time>
      </trkpt>
      <trkpt lat="44.46885" lon="5.91764">
        <ele>1361.5999755859</ele>
        <time>2016-05-06T09:51:11Z</time>
      </trkpt>
      <trkpt lat="44.46889" lon="5.91763">
        <ele>1361.5999755859</ele>
        <time>2016-05-06T09:51:13Z</time>
      </trkpt>
      <trkpt lat="44.46892" lon="5.91762">
        <ele>1360</ele>
        <time>2016-05-06T09:51:14Z</time>
      </trkpt>
      <trkpt lat="44.46896" lon="5.91761">
        <ele>1357</ele>
        <time>2016-05-06T09:51:16Z</time>
      </trkpt>
      <trkpt lat="44.46896" lon="5.91759">
        <ele>1357</ele>
        <time>2016-05-06T09:51:17Z</time>
      </trkpt>
      <trkpt lat="44.46896" lon="5.91757">
        <ele>1357</ele>
        <time>2016-05-06T09:51:18Z</time>
      </trkpt>
      <trkpt lat="44.46896" lon="5.91755">
        <ele>1355.8000488281</ele>
        <time>2016-05-06T09:51:19Z</time>
      </trkpt>
      <trkpt lat="44.46895" lon="5.91754">
        <ele>1354.8000488281</ele>
        <time>2016-05-06T09:51:20Z</time>
      </trkpt>
      <trkpt lat="44.46889" lon="5.91749">
        <ele>1353.5999755859</ele>
        <time>2016-05-06T09:51:23Z</time>
      </trkpt>
      <trkpt lat="44.46886" lon="5.91747">
        <ele>1352.5999755859</ele>
        <time>2016-05-06T09:51:25Z</time>
      </trkpt>
      <trkpt lat="44.4688" lon="5.91739">
        <ele>1351.4000244141</ele>
        <time>2016-05-06T09:51:28Z</time>
      </trkpt>
      <trkpt lat="44.46876" lon="5.91736">
        <ele>1351.4000244141</ele>
        <time>2016-05-06T09:51:29Z</time>
      </trkpt>
      <trkpt lat="44.46872" lon="5.91734">
        <ele>1351</ele>
        <time>2016-05-06T09:51:30Z</time>
      </trkpt>
      <trkpt lat="44.4686" lon="5.91723">
        <ele>1350.4000244141</ele>
        <time>2016-05-06T09:51:33Z</time>
      </trkpt>
      <trkpt lat="44.46856" lon="5.9172">
        <ele>1350.4000244141</ele>
        <time>2016-05-06T09:51:34Z</time>
      </trkpt>
      <trkpt lat="44.46851" lon="5.91716">
        <ele>1350</ele>
        <time>2016-05-06T09:51:35Z</time>
      </trkpt>
      <trkpt lat="44.46842" lon="5.91706">
        <ele>1349.1999511719</ele>
        <time>2016-05-06T09:51:37Z</time>
      </trkpt>
      <trkpt lat="44.46837" lon="5.917">
        <ele>1348.4000244141</ele>
        <time>2016-05-06T09:51:38Z</time>
      </trkpt>
      <trkpt lat="44.46833" lon="5.91695">
        <ele>1347.5999755859</ele>
        <time>2016-05-06T09:51:39Z</time>
      </trkpt>
      <trkpt lat="44.46829" lon="5.91689">
        <ele>1346.5999755859</ele>
        <time>2016-05-06T09:51:40Z</time>
      </trkpt>
      <trkpt lat="44.46821" lon="5.91677">
        <ele>1345.8000488281</ele>
        <time>2016-05-06T09:51:42Z</time>
      </trkpt>
      <trkpt lat="44.46817" lon="5.91669">
        <ele>1345.8000488281</ele>
        <time>2016-05-06T09:51:43Z</time>
      </trkpt>
      <trkpt lat="44.46814" lon="5.9166">
        <ele>1344.8000488281</ele>
        <time>2016-05-06T09:51:44Z</time>
      </trkpt>
      <trkpt lat="44.46811" lon="5.91653">
        <ele>1343.5999755859</ele>
        <time>2016-05-06T09:51:45Z</time>
      </trkpt>
      <trkpt lat="44.46809" lon="5.91647">
        <ele>1342.4000244141</ele>
        <time>2016-05-06T09:51:46Z</time>
      </trkpt>
      <trkpt lat="44.46809" lon="5.91643">
        <ele>1341</ele>
        <time>2016-05-06T09:51:47Z</time>
      </trkpt>
      <trkpt lat="44.46808" lon="5.91636">
        <ele>1341</ele>
        <time>2016-05-06T09:51:48Z</time>
      </trkpt>
      <trkpt lat="44.46809" lon="5.91628">
        <ele>1339.8000488281</ele>
        <time>2016-05-06T09:51:49Z</time>
      </trkpt>
      <trkpt lat="44.46813" lon="5.91616">
        <ele>1338.4000244141</ele>
        <time>2016-05-06T09:51:51Z</time>
      </trkpt>
      <trkpt lat="44.46814" lon="5.91611">
        <ele>1337.1999511719</ele>
        <time>2016-05-06T09:51:52Z</time>
      </trkpt>
      <trkpt lat="44.46814" lon="5.91601">
        <ele>1335.8000488281</ele>
        <time>2016-05-06T09:51:54Z</time>
      </trkpt>
      <trkpt lat="44.46812" lon="5.91599">
        <ele>1335.8000488281</ele>
        <time>2016-05-06T09:51:55Z</time>
      </trkpt>
      <trkpt lat="44.46811" lon="5.91599">
        <ele>1334.5999755859</ele>
        <time>2016-05-06T09:51:56Z</time>
      </trkpt>
      <trkpt lat="44.46811" lon="5.91599">
        <ele>1334.5999755859</ele>
        <time>2016-05-06T09:51:58Z</time>
      </trkpt>
      <trkpt lat="44.46809" lon="5.91598">
        <ele>1332.5999755859</ele>
        <time>2016-05-06T09:51:59Z</time>
      </trkpt>
      <trkpt lat="44.46808" lon="5.91598">
        <ele>1331.5999755859</ele>
        <time>2016-05-06T09:52:01Z</time>
      </trkpt>
      <trkpt lat="44.46808" lon="5.91598">
        <ele>1330.5999755859</ele>
        <time>2016-05-06T09:52:03Z</time>
      </trkpt>
      <trkpt lat="44.46808" lon="5.91598">
        <ele>1329.5999755859</ele>
        <time>2016-05-06T09:52:06Z</time>
      </trkpt>
      <trkpt lat="44.46807" lon="5.91597">
        <ele>1329.1999511719</ele>
        <time>2016-05-06T09:52:16Z</time>
      </trkpt>
      <trkpt lat="44.46807" lon="5.91597">
        <ele>1328.5999755859</ele>
        <time>2016-05-06T09:52:18Z</time>
      </trkpt>
      <trkpt lat="44.46807" lon="5.91597">
        <ele>1328.1999511719</ele>
        <time>2016-05-06T09:52:20Z</time>
      </trkpt>
      <trkpt lat="44.46807" lon="5.91597">
        <ele>1327.8000488281</ele>
        <time>2016-05-06T09:52:21Z</time>
      </trkpt>
      <trkpt lat="44.46807" lon="5.91598">
        <ele>1327.4000244141</ele>
        <time>2016-05-06T09:52:23Z</time>
      </trkpt>
      <trkpt lat="44.46807" lon="5.91598">
        <ele>1326.8000488281</ele>
        <time>2016-05-06T09:52:26Z</time>
      </trkpt>
      <trkpt lat="44.46807" lon="5.91598">
        <ele>1326.8000488281</ele>
        <time>2016-05-06T09:52:27Z</time>
      </trkpt>
      <trkpt lat="44.46807" lon="5.91598">
        <ele>1326.4000244141</ele>
        <time>2016-05-06T09:52:28Z</time>
      </trkpt>
      <trkpt lat="44.46807" lon="5.91598">
        <ele>1326</ele>
        <time>2016-05-06T09:52:30Z</time>
      </trkpt>
      <trkpt lat="44.46807" lon="5.91598">
        <ele>1325.5999755859</ele>
        <time>2016-05-06T09:52:32Z</time>
      </trkpt>
      <trkpt lat="44.46807" lon="5.91598">
        <ele>1325.1999511719</ele>
        <time>2016-05-06T09:52:33Z</time>
      </trkpt>
      <trkpt lat="44.46807" lon="5.91597">
        <ele>1324.5999755859</ele>
        <time>2016-05-06T09:52:38Z</time>
      </trkpt>
      <trkpt lat="44.46807" lon="5.91597">
        <ele>1324.1999511719</ele>
        <time>2016-05-06T09:52:39Z</time>
      </trkpt>
      <trkpt lat="44.46807" lon="5.91597">
        <ele>1323.8000488281</ele>
        <time>2016-05-06T09:52:40Z</time>
      </trkpt>
      <trkpt lat="44.46807" lon="5.91596">
        <ele>1323.4000244141</ele>
        <time>2016-05-06T09:52:42Z</time>
      </trkpt>
      <trkpt lat="44.46807" lon="5.91596">
        <ele>1323.4000244141</ele>
        <time>2016-05-06T09:52:43Z</time>
      </trkpt>
      <trkpt lat="44.46807" lon="5.91596">
        <ele>1322.8000488281</ele>
        <time>2016-05-06T09:52:44Z</time>
      </trkpt>
      <trkpt lat="44.46807" lon="5.91596">
        <ele>1322.4000244141</ele>
        <time>2016-05-06T09:52:49Z</time>
      </trkpt>
      <trkpt lat="44.46807" lon="5.91596">
        <ele>1322</ele>
        <time>2016-05-06T09:52:51Z</time>
      </trkpt>
      <trkpt lat="44.46807" lon="5.91596">
        <ele>1321.5999755859</ele>
        <time>2016-05-06T09:52:52Z</time>
      </trkpt>
      <trkpt lat="44.46807" lon="5.91596">
        <ele>1321.1999511719</ele>
        <time>2016-05-06T09:52:54Z</time>
      </trkpt>
      <trkpt lat="44.46804" lon="5.91596">
        <ele>1320.8000488281</ele>
        <time>2016-05-06T09:52:56Z</time>
      </trkpt>
      <trkpt lat="44.46795" lon="5.91599">
        <ele>1320.8000488281</ele>
        <time>2016-05-06T09:52:58Z</time>
      </trkpt>
      <trkpt lat="44.46792" lon="5.91598">
        <ele>1320.1999511719</ele>
        <time>2016-05-06T09:52:59Z</time>
      </trkpt>
      <trkpt lat="44.46788" lon="5.91593">
        <ele>1319.8000488281</ele>
        <time>2016-05-06T09:53:01Z</time>
      </trkpt>
      <trkpt lat="44.46785" lon="5.91588">
        <ele>1319.1999511719</ele>
        <time>2016-05-06T09:53:04Z</time>
      </trkpt>
      <trkpt lat="44.46785" lon="5.91584">
        <ele>1319.1999511719</ele>
        <time>2016-05-06T09:53:05Z</time>
      </trkpt>
      <trkpt lat="44.46784" lon="5.91581">
        <ele>1318.5999755859</ele>
        <time>2016-05-06T09:53:06Z</time>
      </trkpt>
      <trkpt lat="44.46783" lon="5.91576">
        <ele>1317.8000488281</ele>
        <time>2016-05-06T09:53:08Z</time>
      </trkpt>
      <trkpt lat="44.46782" lon="5.91574">
        <ele>1317.1999511719</ele>
        <time>2016-05-06T09:53:11Z</time>
      </trkpt>
      <trkpt lat="44.46782" lon="5.91574">
        <ele>1316.5999755859</ele>
        <time>2016-05-06T09:53:13Z</time>
      </trkpt>
      <trkpt lat="44.46782" lon="5.91574">
        <ele>1316</ele>
        <time>2016-05-06T09:53:16Z</time>
      </trkpt>
      <trkpt lat="44.46779" lon="5.91572">
        <ele>1315.5999755859</ele>
        <time>2016-05-06T09:53:20Z</time>
      </trkpt>
      <trkpt lat="44.46778" lon="5.91573">
        <ele>1315.5999755859</ele>
        <time>2016-05-06T09:53:21Z</time>
      </trkpt>
      <trkpt lat="44.46776" lon="5.91574">
        <ele>1315.5999755859</ele>
        <time>2016-05-06T09:53:22Z</time>
      </trkpt>
      <trkpt lat="44.46775" lon="5.91576">
        <ele>1315</ele>
        <time>2016-05-06T09:53:23Z</time>
      </trkpt>
      <trkpt lat="44.46771" lon="5.91579">
        <ele>1314.5999755859</ele>
        <time>2016-05-06T09:53:25Z</time>
      </trkpt>
      <trkpt lat="44.46765" lon="5.91584">
        <ele>1314</ele>
        <time>2016-05-06T09:53:28Z</time>
      </trkpt>
      <trkpt lat="44.46762" lon="5.91588">
        <ele>1313.1999511719</ele>
        <time>2016-05-06T09:53:30Z</time>
      </trkpt>
      <trkpt lat="44.46758" lon="5.91592">
        <ele>1312.5999755859</ele>
        <time>2016-05-06T09:53:32Z</time>
      </trkpt>
      <trkpt lat="44.46753" lon="5.91597">
        <ele>1312.5999755859</ele>
        <time>2016-05-06T09:53:35Z</time>
      </trkpt>
      <trkpt lat="44.46751" lon="5.91597">
        <ele>1311.8000488281</ele>
        <time>2016-05-06T09:53:37Z</time>
      </trkpt>
      <trkpt lat="44.46749" lon="5.91596">
        <ele>1311</ele>
        <time>2016-05-06T09:53:39Z</time>
      </trkpt>
      <trkpt lat="44.46749" lon="5.91595">
        <ele>1310.4000244141</ele>
        <time>2016-05-06T09:53:42Z</time>
      </trkpt>
      <trkpt lat="44.46749" lon="5.9159">
        <ele>1310.4000244141</ele>
        <time>2016-05-06T09:53:46Z</time>
      </trkpt>
      <trkpt lat="44.46749" lon="5.91588">
        <ele>1309.5999755859</ele>
        <time>2016-05-06T09:53:47Z</time>
      </trkpt>
      <trkpt lat="44.46751" lon="5.91584">
        <ele>1308.8000488281</ele>
        <time>2016-05-06T09:53:49Z</time>
      </trkpt>
      <trkpt lat="44.46753" lon="5.91578">
        <ele>1308.1999511719</ele>
        <time>2016-05-06T09:53:52Z</time>
      </trkpt>
      <trkpt lat="44.46753" lon="5.91575">
        <ele>1307.4000244141</ele>
        <time>2016-05-06T09:53:54Z</time>
      </trkpt>
      <trkpt lat="44.46753" lon="5.91571">
        <ele>1306.5999755859</ele>
        <time>2016-05-06T09:53:56Z</time>
      </trkpt>
      <trkpt lat="44.46753" lon="5.91568">
        <ele>1306.5999755859</ele>
        <time>2016-05-06T09:53:58Z</time>
      </trkpt>
      <trkpt lat="44.46753" lon="5.91565">
        <ele>1306</ele>
        <time>2016-05-06T09:53:59Z</time>
      </trkpt>
      <trkpt lat="44.46753" lon="5.9156">
        <ele>1305.1999511719</ele>
        <time>2016-05-06T09:54:01Z</time>
      </trkpt>
      <trkpt lat="44.46754" lon="5.91553">
        <ele>1303.8000488281</ele>
        <time>2016-05-06T09:54:04Z</time>
      </trkpt>
      <trkpt lat="44.46753" lon="5.91551">
        <ele>1303</ele>
        <time>2016-05-06T09:54:06Z</time>
      </trkpt>
      <trkpt lat="44.46753" lon="5.91548">
        <ele>1302.4000244141</ele>
        <time>2016-05-06T09:54:09Z</time>
      </trkpt>
      <trkpt lat="44.46753" lon="5.91547">
        <ele>1302.4000244141</ele>
        <time>2016-05-06T09:54:10Z</time>
      </trkpt>
      <trkpt lat="44.46753" lon="5.91546">
        <ele>1301.8000488281</ele>
        <time>2016-05-06T09:54:14Z</time>
      </trkpt>
      <trkpt lat="44.46753" lon="5.91545">
        <ele>1301.8000488281</ele>
        <time>2016-05-06T09:54:15Z</time>
      </trkpt>
      <trkpt lat="44.46752" lon="5.91544">
        <ele>1301.8000488281</ele>
        <time>2016-05-06T09:54:16Z</time>
      </trkpt>
      <trkpt lat="44.4675" lon="5.91546">
        <ele>1301.8000488281</ele>
        <time>2016-05-06T09:54:17Z</time>
      </trkpt>
      <trkpt lat="44.46749" lon="5.91547">
        <ele>1301.1999511719</ele>
        <time>2016-05-06T09:54:19Z</time>
      </trkpt>
      <trkpt lat="44.46745" lon="5.9155">
        <ele>1300</ele>
        <time>2016-05-06T09:54:22Z</time>
      </trkpt>
      <trkpt lat="44.46741" lon="5.91557">
        <ele>1300</ele>
        <time>2016-05-06T09:54:25Z</time>
      </trkpt>
      <trkpt lat="44.46734" lon="5.91569">
        <ele>1298.4000244141</ele>
        <time>2016-05-06T09:54:30Z</time>
      </trkpt>
      <trkpt lat="44.46729" lon="5.91575">
        <ele>1296.8000488281</ele>
        <time>2016-05-06T09:54:33Z</time>
      </trkpt>
      <trkpt lat="44.46725" lon="5.91578">
        <ele>1296</ele>
        <time>2016-05-06T09:54:35Z</time>
      </trkpt>
      <trkpt lat="44.46722" lon="5.91579">
        <ele>1296</ele>
        <time>2016-05-06T09:54:36Z</time>
      </trkpt>
      <trkpt lat="44.46718" lon="5.91582">
        <ele>1294.4000244141</ele>
        <time>2016-05-06T09:54:39Z</time>
      </trkpt>
      <trkpt lat="44.46711" lon="5.91588">
        <ele>1294.4000244141</ele>
        <time>2016-05-06T09:54:42Z</time>
      </trkpt>
      <trkpt lat="44.46709" lon="5.9159">
        <ele>1293.5999755859</ele>
        <time>2016-05-06T09:54:43Z</time>
      </trkpt>
      <trkpt lat="44.46707" lon="5.91595">
        <ele>1293.5999755859</ele>
        <time>2016-05-06T09:54:46Z</time>
      </trkpt>
      <trkpt lat="44.46706" lon="5.91597">
        <ele>1293.5999755859</ele>
        <time>2016-05-06T09:54:47Z</time>
      </trkpt>
      <trkpt lat="44.46703" lon="5.91598">
        <ele>1292.5999755859</ele>
        <time>2016-05-06T09:54:51Z</time>
      </trkpt>
      <trkpt lat="44.46703" lon="5.91597">
        <ele>1290.5999755859</ele>
        <time>2016-05-06T09:54:52Z</time>
      </trkpt>
      <trkpt lat="44.46702" lon="5.91596">
        <ele>1288.5999755859</ele>
        <time>2016-05-06T09:54:54Z</time>
      </trkpt>
      <trkpt lat="44.46702" lon="5.91595">
        <ele>1287.5999755859</ele>
        <time>2016-05-06T09:54:55Z</time>
      </trkpt>
      <trkpt lat="44.46704" lon="5.91591">
        <ele>1287.5999755859</ele>
        <time>2016-05-06T09:54:59Z</time>
      </trkpt>
      <trkpt lat="44.46703" lon="5.91589">
        <ele>1287.1999511719</ele>
        <time>2016-05-06T09:55:02Z</time>
      </trkpt>
      <trkpt lat="44.46704" lon="5.91587">
        <ele>1286.5999755859</ele>
        <time>2016-05-06T09:55:04Z</time>
      </trkpt>
      <trkpt lat="44.46704" lon="5.91585">
        <ele>1286.1999511719</ele>
        <time>2016-05-06T09:55:06Z</time>
      </trkpt>
      <trkpt lat="44.46703" lon="5.91585">
        <ele>1285.8000488281</ele>
        <time>2016-05-06T09:55:09Z</time>
      </trkpt>
      <trkpt lat="44.46701" lon="5.91585">
        <ele>1285.1999511719</ele>
        <time>2016-05-06T09:55:11Z</time>
      </trkpt>
      <trkpt lat="44.46701" lon="5.91586">
        <ele>1284.8000488281</ele>
        <time>2016-05-06T09:55:14Z</time>
      </trkpt>
      <trkpt lat="44.46701" lon="5.91586">
        <ele>1284.1999511719</ele>
        <time>2016-05-06T09:55:16Z</time>
      </trkpt>
      <trkpt lat="44.46698" lon="5.91588">
        <ele>1284.1999511719</ele>
        <time>2016-05-06T09:55:18Z</time>
      </trkpt>
      <trkpt lat="44.46696" lon="5.91589">
        <ele>1283.1999511719</ele>
        <time>2016-05-06T09:55:19Z</time>
      </trkpt>
      <trkpt lat="44.46687" lon="5.91594">
        <ele>1282.5999755859</ele>
        <time>2016-05-06T09:55:23Z</time>
      </trkpt>
      <trkpt lat="44.46685" lon="5.91596">
        <ele>1282.5999755859</ele>
        <time>2016-05-06T09:55:24Z</time>
      </trkpt>
      <trkpt lat="44.4668" lon="5.91599">
        <ele>1282</ele>
        <time>2016-05-06T09:55:26Z</time>
      </trkpt>
      <trkpt lat="44.46676" lon="5.91602">
        <ele>1281</ele>
        <time>2016-05-06T09:55:28Z</time>
      </trkpt>
      <trkpt lat="44.46671" lon="5.91606">
        <ele>1281</ele>
        <time>2016-05-06T09:55:30Z</time>
      </trkpt>
      <trkpt lat="44.46668" lon="5.91609">
        <ele>1280</ele>
        <time>2016-05-06T09:55:31Z</time>
      </trkpt>
      <trkpt lat="44.46665" lon="5.91614">
        <ele>1278.8000488281</ele>
        <time>2016-05-06T09:55:33Z</time>
      </trkpt>
      <trkpt lat="44.46663" lon="5.91616">
        <ele>1277.5999755859</ele>
        <time>2016-05-06T09:55:35Z</time>
      </trkpt>
      <trkpt lat="44.46656" lon="5.91619">
        <ele>1276.5999755859</ele>
        <time>2016-05-06T09:55:38Z</time>
      </trkpt>
      <trkpt lat="44.46651" lon="5.91623">
        <ele>1275.4000244141</ele>
        <time>2016-05-06T09:55:40Z</time>
      </trkpt>
      <trkpt lat="44.46648" lon="5.91626">
        <ele>1274</ele>
        <time>2016-05-06T09:55:41Z</time>
      </trkpt>
      <trkpt lat="44.46642" lon="5.91632">
        <ele>1272.5999755859</ele>
        <time>2016-05-06T09:55:43Z</time>
      </trkpt>
      <trkpt lat="44.46637" lon="5.9164">
        <ele>1271.4000244141</ele>
        <time>2016-05-06T09:55:46Z</time>
      </trkpt>
      <trkpt lat="44.46637" lon="5.91642">
        <ele>1271.4000244141</ele>
        <time>2016-05-06T09:55:47Z</time>
      </trkpt>
      <trkpt lat="44.46635" lon="5.91642">
        <ele>1270</ele>
        <time>2016-05-06T09:55:48Z</time>
      </trkpt>
      <trkpt lat="44.46635" lon="5.9164">
        <ele>1270</ele>
        <time>2016-05-06T09:55:49Z</time>
      </trkpt>
      <trkpt lat="44.46635" lon="5.91634">
        <ele>1268.5999755859</ele>
        <time>2016-05-06T09:55:51Z</time>
      </trkpt>
      <trkpt lat="44.46636" lon="5.91627">
        <ele>1267.4000244141</ele>
        <time>2016-05-06T09:55:53Z</time>
      </trkpt>
      <trkpt lat="44.46637" lon="5.9162">
        <ele>1266.1999511719</ele>
        <time>2016-05-06T09:55:56Z</time>
      </trkpt>
      <trkpt lat="44.46637" lon="5.91617">
        <ele>1266.1999511719</ele>
        <time>2016-05-06T09:55:57Z</time>
      </trkpt>
      <trkpt lat="44.46638" lon="5.91613">
        <ele>1263.8000488281</ele>
        <time>2016-05-06T09:55:58Z</time>
      </trkpt>
      <trkpt lat="44.46639" lon="5.91605">
        <ele>1262.8000488281</ele>
        <time>2016-05-06T09:56:00Z</time>
      </trkpt>
      <trkpt lat="44.46641" lon="5.91597">
        <ele>1260.5999755859</ele>
        <time>2016-05-06T09:56:03Z</time>
      </trkpt>
      <trkpt lat="44.46643" lon="5.91588">
        <ele>1259.8000488281</ele>
        <time>2016-05-06T09:56:05Z</time>
      </trkpt>
      <trkpt lat="44.46646" lon="5.91579">
        <ele>1259</ele>
        <time>2016-05-06T09:56:08Z</time>
      </trkpt>
      <trkpt lat="44.46648" lon="5.91574">
        <ele>1258</ele>
        <time>2016-05-06T09:56:10Z</time>
      </trkpt>
      <trkpt lat="44.46649" lon="5.91569">
        <ele>1257.1999511719</ele>
        <time>2016-05-06T09:56:12Z</time>
      </trkpt>
      <trkpt lat="44.4665" lon="5.91561">
        <ele>1257.1999511719</ele>
        <time>2016-05-06T09:56:14Z</time>
      </trkpt>
      <trkpt lat="44.46651" lon="5.91557">
        <ele>1255.4000244141</ele>
        <time>2016-05-06T09:56:15Z</time>
      </trkpt>
      <trkpt lat="44.46653" lon="5.9155">
        <ele>1254.4000244141</ele>
        <time>2016-05-06T09:56:17Z</time>
      </trkpt>
      <trkpt lat="44.46655" lon="5.91539">
        <ele>1253.4000244141</ele>
        <time>2016-05-06T09:56:20Z</time>
      </trkpt>
      <trkpt lat="44.46656" lon="5.9153">
        <ele>1252.1999511719</ele>
        <time>2016-05-06T09:56:22Z</time>
      </trkpt>
      <trkpt lat="44.46658" lon="5.91519">
        <ele>1250.8000488281</ele>
        <time>2016-05-06T09:56:24Z</time>
      </trkpt>
      <trkpt lat="44.46659" lon="5.91504">
        <ele>1247.8000488281</ele>
        <time>2016-05-06T09:56:27Z</time>
      </trkpt>
      <trkpt lat="44.46661" lon="5.91501">
        <ele>1247.8000488281</ele>
        <time>2016-05-06T09:56:28Z</time>
      </trkpt>
      <trkpt lat="44.46662" lon="5.91498">
        <ele>1246.5999755859</ele>
        <time>2016-05-06T09:56:29Z</time>
      </trkpt>
      <trkpt lat="44.46665" lon="5.91488">
        <ele>1244</ele>
        <time>2016-05-06T09:56:32Z</time>
      </trkpt>
      <trkpt lat="44.46666" lon="5.91481">
        <ele>1242.8000488281</ele>
        <time>2016-05-06T09:56:34Z</time>
      </trkpt>
      <trkpt lat="44.46665" lon="5.91476">
        <ele>1241.5999755859</ele>
        <time>2016-05-06T09:56:36Z</time>
      </trkpt>
      <trkpt lat="44.46663" lon="5.9147">
        <ele>1240.5999755859</ele>
        <time>2016-05-06T09:56:39Z</time>
      </trkpt>
      <trkpt lat="44.46663" lon="5.91467">
        <ele>1240.5999755859</ele>
        <time>2016-05-06T09:56:40Z</time>
      </trkpt>
      <trkpt lat="44.46663" lon="5.91465">
        <ele>1239.5999755859</ele>
        <time>2016-05-06T09:56:41Z</time>
      </trkpt>
      <trkpt lat="44.46659" lon="5.91457">
        <ele>1238.4000244141</ele>
        <time>2016-05-06T09:56:44Z</time>
      </trkpt>
      <trkpt lat="44.46658" lon="5.91452">
        <ele>1237.1999511719</ele>
        <time>2016-05-06T09:56:46Z</time>
      </trkpt>
      <trkpt lat="44.46657" lon="5.91446">
        <ele>1235.8000488281</ele>
        <time>2016-05-06T09:56:48Z</time>
      </trkpt>
      <trkpt lat="44.46659" lon="5.91439">
        <ele>1233.1999511719</ele>
        <time>2016-05-06T09:56:51Z</time>
      </trkpt>
      <trkpt lat="44.46659" lon="5.91435">
        <ele>1232</ele>
        <time>2016-05-06T09:56:53Z</time>
      </trkpt>
      <trkpt lat="44.46658" lon="5.9143">
        <ele>1232</ele>
        <time>2016-05-06T09:56:55Z</time>
      </trkpt>
      <trkpt lat="44.46656" lon="5.91428">
        <ele>1230</ele>
        <time>2016-05-06T09:56:56Z</time>
      </trkpt>
      <trkpt lat="44.46654" lon="5.91421">
        <ele>1228.8000488281</ele>
        <time>2016-05-06T09:56:59Z</time>
      </trkpt>
      <trkpt lat="44.46655" lon="5.91415">
        <ele>1227.8000488281</ele>
        <time>2016-05-06T09:57:02Z</time>
      </trkpt>
      <trkpt lat="44.46653" lon="5.914">
        <ele>1226.5999755859</ele>
        <time>2016-05-06T09:57:07Z</time>
      </trkpt>
      <trkpt lat="44.46653" lon="5.91397">
        <ele>1226.5999755859</ele>
        <time>2016-05-06T09:57:08Z</time>
      </trkpt>
      <trkpt lat="44.46651" lon="5.91384">
        <ele>1225.1999511719</ele>
        <time>2016-05-06T09:57:12Z</time>
      </trkpt>
      <trkpt lat="44.46651" lon="5.91378">
        <ele>1223.8000488281</ele>
        <time>2016-05-06T09:57:14Z</time>
      </trkpt>
      <trkpt lat="44.46651" lon="5.91376">
        <ele>1223.8000488281</ele>
        <time>2016-05-06T09:57:15Z</time>
      </trkpt>
      <trkpt lat="44.46651" lon="5.9137">
        <ele>1222.1999511719</ele>
        <time>2016-05-06T09:57:17Z</time>
      </trkpt>
      <trkpt lat="44.4665" lon="5.9136">
        <ele>1220.8000488281</ele>
        <time>2016-05-06T09:57:20Z</time>
      </trkpt>
      <trkpt lat="44.4665" lon="5.91357">
        <ele>1219.4000244141</ele>
        <time>2016-05-06T09:57:22Z</time>
      </trkpt>
      <trkpt lat="44.46648" lon="5.91353">
        <ele>1218</ele>
        <time>2016-05-06T09:57:26Z</time>
      </trkpt>
      <trkpt lat="44.46645" lon="5.91354">
        <ele>1215.8000488281</ele>
        <time>2016-05-06T09:57:29Z</time>
      </trkpt>
      <trkpt lat="44.46643" lon="5.91358">
        <ele>1215.8000488281</ele>
        <time>2016-05-06T09:57:30Z</time>
      </trkpt>
      <trkpt lat="44.4664" lon="5.91362">
        <ele>1213.8000488281</ele>
        <time>2016-05-06T09:57:32Z</time>
      </trkpt>
      <trkpt lat="44.46634" lon="5.91367">
        <ele>1213</ele>
        <time>2016-05-06T09:57:35Z</time>
      </trkpt>
      <trkpt lat="44.46632" lon="5.91369">
        <ele>1213</ele>
        <time>2016-05-06T09:57:36Z</time>
      </trkpt>
      <trkpt lat="44.4663" lon="5.91371">
        <ele>1211.8000488281</ele>
        <time>2016-05-06T09:57:37Z</time>
      </trkpt>
      <trkpt lat="44.46626" lon="5.91378">
        <ele>1210.8000488281</ele>
        <time>2016-05-06T09:57:40Z</time>
      </trkpt>
      <trkpt lat="44.46625" lon="5.91379">
        <ele>1210.8000488281</ele>
        <time>2016-05-06T09:57:41Z</time>
      </trkpt>
      <trkpt lat="44.46624" lon="5.91381">
        <ele>1209.5999755859</ele>
        <time>2016-05-06T09:57:42Z</time>
      </trkpt>
      <trkpt lat="44.46615" lon="5.91389">
        <ele>1208.1999511719</ele>
        <time>2016-05-06T09:57:47Z</time>
      </trkpt>
      <trkpt lat="44.46614" lon="5.9139">
        <ele>1208.1999511719</ele>
        <time>2016-05-06T09:57:48Z</time>
      </trkpt>
      <trkpt lat="44.46613" lon="5.91392">
        <ele>1206.8000488281</ele>
        <time>2016-05-06T09:57:49Z</time>
      </trkpt>
      <trkpt lat="44.46607" lon="5.91396">
        <ele>1205.1999511719</ele>
        <time>2016-05-06T09:57:52Z</time>
      </trkpt>
      <trkpt lat="44.46602" lon="5.91398">
        <ele>1203.8000488281</ele>
        <time>2016-05-06T09:57:54Z</time>
      </trkpt>
      <trkpt lat="44.46601" lon="5.91407">
        <ele>1200.8000488281</ele>
        <time>2016-05-06T09:57:57Z</time>
      </trkpt>
      <trkpt lat="44.46598" lon="5.9141">
        <ele>1199.1999511719</ele>
        <time>2016-05-06T09:57:59Z</time>
      </trkpt>
      <trkpt lat="44.46595" lon="5.91411">
        <ele>1199.1999511719</ele>
        <time>2016-05-06T09:58:00Z</time>
      </trkpt>
      <trkpt lat="44.46593" lon="5.91411">
        <ele>1198</ele>
        <time>2016-05-06T09:58:01Z</time>
      </trkpt>
      <trkpt lat="44.46587" lon="5.91411">
        <ele>1197</ele>
        <time>2016-05-06T09:58:04Z</time>
      </trkpt>
      <trkpt lat="44.46585" lon="5.91411">
        <ele>1197</ele>
        <time>2016-05-06T09:58:05Z</time>
      </trkpt>
      <trkpt lat="44.46583" lon="5.91411">
        <ele>1195.5999755859</ele>
        <time>2016-05-06T09:58:06Z</time>
      </trkpt>
      <trkpt lat="44.46576" lon="5.91411">
        <ele>1193.1999511719</ele>
        <time>2016-05-06T09:58:09Z</time>
      </trkpt>
      <trkpt lat="44.46572" lon="5.91412">
        <ele>1192</ele>
        <time>2016-05-06T09:58:11Z</time>
      </trkpt>
      <trkpt lat="44.46568" lon="5.91414">
        <ele>1190.8000488281</ele>
        <time>2016-05-06T09:58:13Z</time>
      </trkpt>
      <trkpt lat="44.46565" lon="5.91414">
        <ele>1190.8000488281</ele>
        <time>2016-05-06T09:58:14Z</time>
      </trkpt>
      <trkpt lat="44.4656" lon="5.91416">
        <ele>1189.5999755859</ele>
        <time>2016-05-06T09:58:16Z</time>
      </trkpt>
      <trkpt lat="44.46557" lon="5.91417">
        <ele>1188.4000244141</ele>
        <time>2016-05-06T09:58:18Z</time>
      </trkpt>
      <trkpt lat="44.46553" lon="5.91417">
        <ele>1188.4000244141</ele>
        <time>2016-05-06T09:58:20Z</time>
      </trkpt>
      <trkpt lat="44.46552" lon="5.91414">
        <ele>1186</ele>
        <time>2016-05-06T09:58:21Z</time>
      </trkpt>
      <trkpt lat="44.46554" lon="5.91405">
        <ele>1184.8000488281</ele>
        <time>2016-05-06T09:58:23Z</time>
      </trkpt>
      <trkpt lat="44.46555" lon="5.91402">
        <ele>1184.8000488281</ele>
        <time>2016-05-06T09:58:24Z</time>
      </trkpt>
      <trkpt lat="44.46555" lon="5.91399">
        <ele>1183.5999755859</ele>
        <time>2016-05-06T09:58:26Z</time>
      </trkpt>
      <trkpt lat="44.46552" lon="5.91397">
        <ele>1182.4000244141</ele>
        <time>2016-05-06T09:58:28Z</time>
      </trkpt>
      <trkpt lat="44.4655" lon="5.91398">
        <ele>1182.4000244141</ele>
        <time>2016-05-06T09:58:29Z</time>
      </trkpt>
      <trkpt lat="44.46548" lon="5.91399">
        <ele>1181</ele>
        <time>2016-05-06T09:58:30Z</time>
      </trkpt>
      <trkpt lat="44.46545" lon="5.914">
        <ele>1179.8000488281</ele>
        <time>2016-05-06T09:58:33Z</time>
      </trkpt>
      <trkpt lat="44.46541" lon="5.91402">
        <ele>1178.4000244141</ele>
        <time>2016-05-06T09:58:35Z</time>
      </trkpt>
      <trkpt lat="44.46539" lon="5.91401">
        <ele>1178.4000244141</ele>
        <time>2016-05-06T09:58:36Z</time>
      </trkpt>
      <trkpt lat="44.46538" lon="5.91398">
        <ele>1177.4000244141</ele>
        <time>2016-05-06T09:58:37Z</time>
      </trkpt>
      <trkpt lat="44.4654" lon="5.91393">
        <ele>1177.4000244141</ele>
        <time>2016-05-06T09:58:38Z</time>
      </trkpt>
      <trkpt lat="44.46541" lon="5.91388">
        <ele>1177.4000244141</ele>
        <time>2016-05-06T09:58:39Z</time>
      </trkpt>
      <trkpt lat="44.46541" lon="5.91384">
        <ele>1176.1999511719</ele>
        <time>2016-05-06T09:58:40Z</time>
      </trkpt>
      <trkpt lat="44.4654" lon="5.91376">
        <ele>1175</ele>
        <time>2016-05-06T09:58:42Z</time>
      </trkpt>
      <trkpt lat="44.46541" lon="5.91372">
        <ele>1173.8000488281</ele>
        <time>2016-05-06T09:58:44Z</time>
      </trkpt>
      <trkpt lat="44.46541" lon="5.9137">
        <ele>1173.8000488281</ele>
        <time>2016-05-06T09:58:45Z</time>
      </trkpt>
      <trkpt lat="44.46538" lon="5.91368">
        <ele>1171</ele>
        <time>2016-05-06T09:58:47Z</time>
      </trkpt>
      <trkpt lat="44.46534" lon="5.91371">
        <ele>1171</ele>
        <time>2016-05-06T09:58:48Z</time>
      </trkpt>
      <trkpt lat="44.46532" lon="5.91372">
        <ele>1171</ele>
        <time>2016-05-06T09:58:49Z</time>
      </trkpt>
      <trkpt lat="44.46529" lon="5.91374">
        <ele>1168</ele>
        <time>2016-05-06T09:58:50Z</time>
      </trkpt>
      <trkpt lat="44.46525" lon="5.91374">
        <ele>1166.4000244141</ele>
        <time>2016-05-06T09:58:53Z</time>
      </trkpt>
      <trkpt lat="44.46526" lon="5.91369">
        <ele>1166.4000244141</ele>
        <time>2016-05-06T09:58:54Z</time>
      </trkpt>
      <trkpt lat="44.46526" lon="5.91366">
        <ele>1165.5999755859</ele>
        <time>2016-05-06T09:58:55Z</time>
      </trkpt>
      <trkpt lat="44.46521" lon="5.91364">
        <ele>1165</ele>
        <time>2016-05-06T09:58:58Z</time>
      </trkpt>
      <trkpt lat="44.46518" lon="5.91366">
        <ele>1165</ele>
        <time>2016-05-06T09:58:59Z</time>
      </trkpt>
      <trkpt lat="44.46514" lon="5.9137">
        <ele>1164.1999511719</ele>
        <time>2016-05-06T09:59:00Z</time>
      </trkpt>
      <trkpt lat="44.46505" lon="5.91378">
        <ele>1163.1999511719</ele>
        <time>2016-05-06T09:59:03Z</time>
      </trkpt>
      <trkpt lat="44.465" lon="5.91382">
        <ele>1162.4000244141</ele>
        <time>2016-05-06T09:59:05Z</time>
      </trkpt>
      <trkpt lat="44.46495" lon="5.91384">
        <ele>1161.1999511719</ele>
        <time>2016-05-06T09:59:07Z</time>
      </trkpt>
      <trkpt lat="44.46495" lon="5.91382">
        <ele>1161.1999511719</ele>
        <time>2016-05-06T09:59:08Z</time>
      </trkpt>
      <trkpt lat="44.46495" lon="5.91379">
        <ele>1161.1999511719</ele>
        <time>2016-05-06T09:59:09Z</time>
      </trkpt>
      <trkpt lat="44.46496" lon="5.91374">
        <ele>1159</ele>
        <time>2016-05-06T09:59:10Z</time>
      </trkpt>
      <trkpt lat="44.46499" lon="5.91366">
        <ele>1158</ele>
        <time>2016-05-06T09:59:12Z</time>
      </trkpt>
      <trkpt lat="44.46499" lon="5.91365">
        <ele>1158</ele>
        <time>2016-05-06T09:59:13Z</time>
      </trkpt>
      <trkpt lat="44.46498" lon="5.91362">
        <ele>1155.5999755859</ele>
        <time>2016-05-06T09:59:15Z</time>
      </trkpt>
      <trkpt lat="44.46494" lon="5.91362">
        <ele>1154.1999511719</ele>
        <time>2016-05-06T09:59:18Z</time>
      </trkpt>
      <trkpt lat="44.46494" lon="5.91363">
        <ele>1152.5999755859</ele>
        <time>2016-05-06T09:59:21Z</time>
      </trkpt>
      <trkpt lat="44.46494" lon="5.91363">
        <ele>1151.8000488281</ele>
        <time>2016-05-06T09:59:23Z</time>
      </trkpt>
      <trkpt lat="44.46488" lon="5.91365">
        <ele>1151.8000488281</ele>
        <time>2016-05-06T09:59:42Z</time>
      </trkpt>
      <trkpt lat="44.46482" lon="5.91366">
        <ele>1151.4000244141</ele>
        <time>2016-05-06T09:59:45Z</time>
      </trkpt>
      <trkpt lat="44.46483" lon="5.91362">
        <ele>1151</ele>
        <time>2016-05-06T09:59:46Z</time>
      </trkpt>
      <trkpt lat="44.46483" lon="5.91351">
        <ele>1150.5999755859</ele>
        <time>2016-05-06T09:59:50Z</time>
      </trkpt>
      <trkpt lat="44.46481" lon="5.9135">
        <ele>1150.5999755859</ele>
        <time>2016-05-06T09:59:51Z</time>
      </trkpt>
      <trkpt lat="44.46479" lon="5.91351">
        <ele>1150.5999755859</ele>
        <time>2016-05-06T09:59:52Z</time>
      </trkpt>
      <trkpt lat="44.46475" lon="5.91349">
        <ele>1150.5999755859</ele>
        <time>2016-05-06T09:59:54Z</time>
      </trkpt>
      <trkpt lat="44.46474" lon="5.91348">
        <ele>1149.8000488281</ele>
        <time>2016-05-06T09:59:55Z</time>
      </trkpt>
      <trkpt lat="44.46469" lon="5.91342">
        <ele>1148.8000488281</ele>
        <time>2016-05-06T09:59:58Z</time>
      </trkpt>
      <trkpt lat="44.46463" lon="5.91339">
        <ele>1146</ele>
        <time>2016-05-06T10:00:01Z</time>
      </trkpt>
      <trkpt lat="44.46455" lon="5.91335">
        <ele>1143</ele>
        <time>2016-05-06T10:00:04Z</time>
      </trkpt>
      <trkpt lat="44.46453" lon="5.91333">
        <ele>1143</ele>
        <time>2016-05-06T10:00:05Z</time>
      </trkpt>
      <trkpt lat="44.46453" lon="5.9133">
        <ele>1141.8000488281</ele>
        <time>2016-05-06T10:00:06Z</time>
      </trkpt>
      <trkpt lat="44.46453" lon="5.91328">
        <ele>1141.8000488281</ele>
        <time>2016-05-06T10:00:07Z</time>
      </trkpt>
      <trkpt lat="44.46457" lon="5.91323">
        <ele>1140.5999755859</ele>
        <time>2016-05-06T10:00:09Z</time>
      </trkpt>
      <trkpt lat="44.4646" lon="5.91315">
        <ele>1140.5999755859</ele>
        <time>2016-05-06T10:00:11Z</time>
      </trkpt>
      <trkpt lat="44.46463" lon="5.91312">
        <ele>1138.1999511719</ele>
        <time>2016-05-06T10:00:12Z</time>
      </trkpt>
      <trkpt lat="44.46467" lon="5.91308">
        <ele>1136.8000488281</ele>
        <time>2016-05-06T10:00:15Z</time>
      </trkpt>
      <trkpt lat="44.46468" lon="5.91306">
        <ele>1136.8000488281</ele>
        <time>2016-05-06T10:00:16Z</time>
      </trkpt>
      <trkpt lat="44.46468" lon="5.91303">
        <ele>1135</ele>
        <time>2016-05-06T10:00:17Z</time>
      </trkpt>
      <trkpt lat="44.46465" lon="5.913">
        <ele>1135</ele>
        <time>2016-05-06T10:00:19Z</time>
      </trkpt>
      <trkpt lat="44.46463" lon="5.91299">
        <ele>1133.1999511719</ele>
        <time>2016-05-06T10:00:20Z</time>
      </trkpt>
      <trkpt lat="44.46455" lon="5.91296">
        <ele>1132.4000244141</ele>
        <time>2016-05-06T10:00:23Z</time>
      </trkpt>
      <trkpt lat="44.46449" lon="5.91294">
        <ele>1132.4000244141</ele>
        <time>2016-05-06T10:00:25Z</time>
      </trkpt>
      <trkpt lat="44.46445" lon="5.91293">
        <ele>1131.8000488281</ele>
        <time>2016-05-06T10:00:26Z</time>
      </trkpt>
      <trkpt lat="44.46436" lon="5.91287">
        <ele>1130.5999755859</ele>
        <time>2016-05-06T10:00:29Z</time>
      </trkpt>
      <trkpt lat="44.46423" lon="5.91285">
        <ele>1128.1999511719</ele>
        <time>2016-05-06T10:00:32Z</time>
      </trkpt>
      <trkpt lat="44.46413" lon="5.91288">
        <ele>1127</ele>
        <time>2016-05-06T10:00:35Z</time>
      </trkpt>
      <trkpt lat="44.46408" lon="5.91291">
        <ele>1127</ele>
        <time>2016-05-06T10:00:37Z</time>
      </trkpt>
      <trkpt lat="44.46406" lon="5.91292">
        <ele>1124.4000244141</ele>
        <time>2016-05-06T10:00:38Z</time>
      </trkpt>
      <trkpt lat="44.46396" lon="5.91298">
        <ele>1123.1999511719</ele>
        <time>2016-05-06T10:00:42Z</time>
      </trkpt>
      <trkpt lat="44.46388" lon="5.91297">
        <ele>1120.5999755859</ele>
        <time>2016-05-06T10:00:45Z</time>
      </trkpt>
      <trkpt lat="44.46382" lon="5.91296">
        <ele>1120.5999755859</ele>
        <time>2016-05-06T10:00:47Z</time>
      </trkpt>
      <trkpt lat="44.46378" lon="5.91295">
        <ele>1119.4000244141</ele>
        <time>2016-05-06T10:00:48Z</time>
      </trkpt>
      <trkpt lat="44.46376" lon="5.91293">
        <ele>1119.4000244141</ele>
        <time>2016-05-06T10:00:49Z</time>
      </trkpt>
      <trkpt lat="44.46375" lon="5.91292">
        <ele>1118</ele>
        <time>2016-05-06T10:00:50Z</time>
      </trkpt>
      <trkpt lat="44.46368" lon="5.91289">
        <ele>1116.8000488281</ele>
        <time>2016-05-06T10:00:53Z</time>
      </trkpt>
      <trkpt lat="44.46363" lon="5.91289">
        <ele>1115.5999755859</ele>
        <time>2016-05-06T10:00:55Z</time>
      </trkpt>
      <trkpt lat="44.46361" lon="5.91288">
        <ele>1115.5999755859</ele>
        <time>2016-05-06T10:00:56Z</time>
      </trkpt>
      <trkpt lat="44.46358" lon="5.91289">
        <ele>1113.4000244141</ele>
        <time>2016-05-06T10:00:57Z</time>
      </trkpt>
      <trkpt lat="44.46351" lon="5.91295">
        <ele>1112.1999511719</ele>
        <time>2016-05-06T10:01:00Z</time>
      </trkpt>
      <trkpt lat="44.46344" lon="5.91296">
        <ele>1110</ele>
        <time>2016-05-06T10:01:02Z</time>
      </trkpt>
      <trkpt lat="44.4634" lon="5.91297">
        <ele>1110</ele>
        <time>2016-05-06T10:01:03Z</time>
      </trkpt>
      <trkpt lat="44.46333" lon="5.91299">
        <ele>1109</ele>
        <time>2016-05-06T10:01:05Z</time>
      </trkpt>
      <trkpt lat="44.46325" lon="5.91298">
        <ele>1107.8000488281</ele>
        <time>2016-05-06T10:01:07Z</time>
      </trkpt>
      <trkpt lat="44.46319" lon="5.91295">
        <ele>1107.8000488281</ele>
        <time>2016-05-06T10:01:09Z</time>
      </trkpt>
      <trkpt lat="44.46313" lon="5.9129">
        <ele>1106.5999755859</ele>
        <time>2016-05-06T10:01:11Z</time>
      </trkpt>
      <trkpt lat="44.46306" lon="5.91281">
        <ele>1103.5999755859</ele>
        <time>2016-05-06T10:01:14Z</time>
      </trkpt>
      <trkpt lat="44.46303" lon="5.91277">
        <ele>1103.5999755859</ele>
        <time>2016-05-06T10:01:15Z</time>
      </trkpt>
      <trkpt lat="44.46296" lon="5.91271">
        <ele>1102</ele>
        <time>2016-05-06T10:01:17Z</time>
      </trkpt>
      <trkpt lat="44.46291" lon="5.91263">
        <ele>1100.4000244141</ele>
        <time>2016-05-06T10:01:19Z</time>
      </trkpt>
      <trkpt lat="44.46288" lon="5.91259">
        <ele>1100.4000244141</ele>
        <time>2016-05-06T10:01:20Z</time>
      </trkpt>
      <trkpt lat="44.46283" lon="5.91252">
        <ele>1098.8000488281</ele>
        <time>2016-05-06T10:01:22Z</time>
      </trkpt>
      <trkpt lat="44.46271" lon="5.91243">
        <ele>1098.8000488281</ele>
        <time>2016-05-06T10:01:26Z</time>
      </trkpt>
      <trkpt lat="44.46268" lon="5.9124">
        <ele>1097.8000488281</ele>
        <time>2016-05-06T10:01:27Z</time>
      </trkpt>
      <trkpt lat="44.46257" lon="5.91236">
        <ele>1096.5999755859</ele>
        <time>2016-05-06T10:01:30Z</time>
      </trkpt>
      <trkpt lat="44.46254" lon="5.91233">
        <ele>1096.5999755859</ele>
        <time>2016-05-06T10:01:31Z</time>
      </trkpt>
      <trkpt lat="44.46251" lon="5.91229">
        <ele>1095.4000244141</ele>
        <time>2016-05-06T10:01:32Z</time>
      </trkpt>
      <trkpt lat="44.46243" lon="5.91215">
        <ele>1094.1999511719</ele>
        <time>2016-05-06T10:01:35Z</time>
      </trkpt>
      <trkpt lat="44.46243" lon="5.91211">
        <ele>1093</ele>
        <time>2016-05-06T10:01:36Z</time>
      </trkpt>
      <trkpt lat="44.4624" lon="5.91204">
        <ele>1091.8000488281</ele>
        <time>2016-05-06T10:01:38Z</time>
      </trkpt>
      <trkpt lat="44.46233" lon="5.91194">
        <ele>1091</ele>
        <time>2016-05-06T10:01:41Z</time>
      </trkpt>
      <trkpt lat="44.4623" lon="5.91191">
        <ele>1091</ele>
        <time>2016-05-06T10:01:42Z</time>
      </trkpt>
      <trkpt lat="44.46219" lon="5.91183">
        <ele>1090.4000244141</ele>
        <time>2016-05-06T10:01:46Z</time>
      </trkpt>
      <trkpt lat="44.46214" lon="5.91179">
        <ele>1090.4000244141</ele>
        <time>2016-05-06T10:01:48Z</time>
      </trkpt>
      <trkpt lat="44.46211" lon="5.91176">
        <ele>1089.1999511719</ele>
        <time>2016-05-06T10:01:49Z</time>
      </trkpt>
      <trkpt lat="44.462" lon="5.91169">
        <ele>1086.8000488281</ele>
        <time>2016-05-06T10:01:52Z</time>
      </trkpt>
      <trkpt lat="44.46193" lon="5.91163">
        <ele>1085.5999755859</ele>
        <time>2016-05-06T10:01:55Z</time>
      </trkpt>
      <trkpt lat="44.46186" lon="5.91161">
        <ele>1084.4000244141</ele>
        <time>2016-05-06T10:01:57Z</time>
      </trkpt>
      <trkpt lat="44.46181" lon="5.91158">
        <ele>1083.4000244141</ele>
        <time>2016-05-06T10:02:00Z</time>
      </trkpt>
      <trkpt lat="44.46169" lon="5.91147">
        <ele>1081.1999511719</ele>
        <time>2016-05-06T10:02:04Z</time>
      </trkpt>
      <trkpt lat="44.46165" lon="5.91145">
        <ele>1081.1999511719</ele>
        <time>2016-05-06T10:02:05Z</time>
      </trkpt>
      <trkpt lat="44.46157" lon="5.9114">
        <ele>1079</ele>
        <time>2016-05-06T10:02:07Z</time>
      </trkpt>
      <trkpt lat="44.46146" lon="5.91131">
        <ele>1076.8000488281</ele>
        <time>2016-05-06T10:02:11Z</time>
      </trkpt>
      <trkpt lat="44.46144" lon="5.91131">
        <ele>1076.8000488281</ele>
        <time>2016-05-06T10:02:12Z</time>
      </trkpt>
      <trkpt lat="44.4614" lon="5.91131">
        <ele>1074.5999755859</ele>
        <time>2016-05-06T10:02:14Z</time>
      </trkpt>
      <trkpt lat="44.46134" lon="5.91136">
        <ele>1073.4000244141</ele>
        <time>2016-05-06T10:02:17Z</time>
      </trkpt>
      <trkpt lat="44.46133" lon="5.91138">
        <ele>1072.5999755859</ele>
        <time>2016-05-06T10:02:18Z</time>
      </trkpt>
      <trkpt lat="44.46127" lon="5.91143">
        <ele>1071.5999755859</ele>
        <time>2016-05-06T10:02:21Z</time>
      </trkpt>
      <trkpt lat="44.46125" lon="5.91146">
        <ele>1070.5999755859</ele>
        <time>2016-05-06T10:02:23Z</time>
      </trkpt>
      <trkpt lat="44.4612" lon="5.91151">
        <ele>1069.8000488281</ele>
        <time>2016-05-06T10:02:25Z</time>
      </trkpt>
      <trkpt lat="44.46113" lon="5.91157">
        <ele>1069</ele>
        <time>2016-05-06T10:02:28Z</time>
      </trkpt>
      <trkpt lat="44.46107" lon="5.9116">
        <ele>1068.1999511719</ele>
        <time>2016-05-06T10:02:30Z</time>
      </trkpt>
      <trkpt lat="44.461" lon="5.91161">
        <ele>1067.1999511719</ele>
        <time>2016-05-06T10:02:33Z</time>
      </trkpt>
      <trkpt lat="44.46099" lon="5.91161">
        <ele>1067.1999511719</ele>
        <time>2016-05-06T10:02:34Z</time>
      </trkpt>
      <trkpt lat="44.46094" lon="5.91159">
        <ele>1066.1999511719</ele>
        <time>2016-05-06T10:02:36Z</time>
      </trkpt>
      <trkpt lat="44.46087" lon="5.91159">
        <ele>1065</ele>
        <time>2016-05-06T10:02:39Z</time>
      </trkpt>
      <trkpt lat="44.46079" lon="5.91155">
        <ele>1063.8000488281</ele>
        <time>2016-05-06T10:02:42Z</time>
      </trkpt>
      <trkpt lat="44.46074" lon="5.91152">
        <ele>1063.8000488281</ele>
        <time>2016-05-06T10:02:44Z</time>
      </trkpt>
      <trkpt lat="44.46072" lon="5.91152">
        <ele>1061.1999511719</ele>
        <time>2016-05-06T10:02:45Z</time>
      </trkpt>
      <trkpt lat="44.46068" lon="5.91149">
        <ele>1059.8000488281</ele>
        <time>2016-05-06T10:02:48Z</time>
      </trkpt>
      <trkpt lat="44.46068" lon="5.91146">
        <ele>1058.8000488281</ele>
        <time>2016-05-06T10:02:49Z</time>
      </trkpt>
      <trkpt lat="44.46067" lon="5.9114">
        <ele>1057.8000488281</ele>
        <time>2016-05-06T10:02:52Z</time>
      </trkpt>
      <trkpt lat="44.46064" lon="5.91138">
        <ele>1056.5999755859</ele>
        <time>2016-05-06T10:02:54Z</time>
      </trkpt>
      <trkpt lat="44.46063" lon="5.91137">
        <ele>1056.5999755859</ele>
        <time>2016-05-06T10:02:55Z</time>
      </trkpt>
      <trkpt lat="44.46061" lon="5.91136">
        <ele>1054.4000244141</ele>
        <time>2016-05-06T10:02:57Z</time>
      </trkpt>
      <trkpt lat="44.46054" lon="5.9113">
        <ele>1051.5999755859</ele>
        <time>2016-05-06T10:03:05Z</time>
      </trkpt>
      <trkpt lat="44.46049" lon="5.91123">
        <ele>1050.8000488281</ele>
        <time>2016-05-06T10:03:08Z</time>
      </trkpt>
      <trkpt lat="44.46047" lon="5.9112">
        <ele>1049.8000488281</ele>
        <time>2016-05-06T10:03:09Z</time>
      </trkpt>
      <trkpt lat="44.46042" lon="5.91116">
        <ele>1047.5999755859</ele>
        <time>2016-05-06T10:03:11Z</time>
      </trkpt>
      <trkpt lat="44.46039" lon="5.91116">
        <ele>1047.5999755859</ele>
        <time>2016-05-06T10:03:12Z</time>
      </trkpt>
      <trkpt lat="44.46034" lon="5.91116">
        <ele>1045.1999511719</ele>
        <time>2016-05-06T10:03:14Z</time>
      </trkpt>
      <trkpt lat="44.46025" lon="5.91116">
        <ele>1045.1999511719</ele>
        <time>2016-05-06T10:03:17Z</time>
      </trkpt>
      <trkpt lat="44.46022" lon="5.91116">
        <ele>1042.5999755859</ele>
        <time>2016-05-06T10:03:18Z</time>
      </trkpt>
      <trkpt lat="44.46015" lon="5.91118">
        <ele>1040.1999511719</ele>
        <time>2016-05-06T10:03:21Z</time>
      </trkpt>
      <trkpt lat="44.46013" lon="5.91118">
        <ele>1040.1999511719</ele>
        <time>2016-05-06T10:03:22Z</time>
      </trkpt>
      <trkpt lat="44.46006" lon="5.91116">
        <ele>1038</ele>
        <time>2016-05-06T10:03:25Z</time>
      </trkpt>
      <trkpt lat="44.46001" lon="5.91116">
        <ele>1038</ele>
        <time>2016-05-06T10:03:27Z</time>
      </trkpt>
      <trkpt lat="44.45999" lon="5.91116">
        <ele>1036</ele>
        <time>2016-05-06T10:03:28Z</time>
      </trkpt>
      <trkpt lat="44.45989" lon="5.91112">
        <ele>1034.1999511719</ele>
        <time>2016-05-06T10:03:32Z</time>
      </trkpt>
      <trkpt lat="44.45983" lon="5.91111">
        <ele>1033.1999511719</ele>
        <time>2016-05-06T10:03:35Z</time>
      </trkpt>
      <trkpt lat="44.45982" lon="5.91111">
        <ele>1033.1999511719</ele>
        <time>2016-05-06T10:03:37Z</time>
      </trkpt>
      <trkpt lat="44.45982" lon="5.91112">
        <ele>1031.4000244141</ele>
        <time>2016-05-06T10:03:38Z</time>
      </trkpt>
      <trkpt lat="44.45982" lon="5.91112">
        <ele>1030.4000244141</ele>
        <time>2016-05-06T10:03:41Z</time>
      </trkpt>
      <trkpt lat="44.45982" lon="5.91112">
        <ele>1029.4000244141</ele>
        <time>2016-05-06T10:03:44Z</time>
      </trkpt>
      <trkpt lat="44.45981" lon="5.91113">
        <ele>1029</ele>
        <time>2016-05-06T10:03:47Z</time>
      </trkpt>
      <trkpt lat="44.45982" lon="5.91113">
        <ele>1028.5999755859</ele>
        <time>2016-05-06T10:03:48Z</time>
      </trkpt>
      <trkpt lat="44.45982" lon="5.91114">
        <ele>1028.1999511719</ele>
        <time>2016-05-06T10:03:50Z</time>
      </trkpt>
      <trkpt lat="44.45982" lon="5.91114">
        <ele>1027.8000488281</ele>
        <time>2016-05-06T10:03:53Z</time>
      </trkpt>
      <trkpt lat="44.45983" lon="5.91115">
        <ele>1027.4000244141</ele>
        <time>2016-05-06T10:03:54Z</time>
      </trkpt>
      <trkpt lat="44.45985" lon="5.91121">
        <ele>1027</ele>
        <time>2016-05-06T10:03:59Z</time>
      </trkpt>
      <trkpt lat="44.45984" lon="5.91122">
        <ele>1026.5999755859</ele>
        <time>2016-05-06T10:04:00Z</time>
      </trkpt>
      <trkpt lat="44.45984" lon="5.91124">
        <ele>1026.1999511719</ele>
        <time>2016-05-06T10:04:03Z</time>
      </trkpt>
      <trkpt lat="44.45984" lon="5.91124">
        <ele>1025.8000488281</ele>
        <time>2016-05-06T10:04:04Z</time>
      </trkpt>
      <trkpt lat="44.45984" lon="5.91124">
        <ele>1025.1999511719</ele>
        <time>2016-05-06T10:04:06Z</time>
      </trkpt>
      <trkpt lat="44.45978" lon="5.91126">
        <ele>1024.8000488281</ele>
        <time>2016-05-06T10:04:09Z</time>
      </trkpt>
      <trkpt lat="44.45975" lon="5.91127">
        <ele>1024.1999511719</ele>
        <time>2016-05-06T10:04:10Z</time>
      </trkpt>
      <trkpt lat="44.4597" lon="5.91129">
        <ele>1023.799987793</ele>
        <time>2016-05-06T10:04:12Z</time>
      </trkpt>
      <trkpt lat="44.45964" lon="5.9113">
        <ele>1023</ele>
        <time>2016-05-06T10:04:15Z</time>
      </trkpt>
      <trkpt lat="44.45963" lon="5.9113">
        <ele>1022.200012207</ele>
        <time>2016-05-06T10:04:17Z</time>
      </trkpt>
      <trkpt lat="44.4596" lon="5.91126">
        <ele>1021.200012207</ele>
        <time>2016-05-06T10:04:20Z</time>
      </trkpt>
      <trkpt lat="44.45958" lon="5.91123">
        <ele>1020.200012207</ele>
        <time>2016-05-06T10:04:21Z</time>
      </trkpt>
      <trkpt lat="44.45954" lon="5.9112">
        <ele>1018.4000244141</ele>
        <time>2016-05-06T10:04:24Z</time>
      </trkpt>
      <trkpt lat="44.45954" lon="5.91119">
        <ele>1016.5999755859</ele>
        <time>2016-05-06T10:04:28Z</time>
      </trkpt>
      <trkpt lat="44.45954" lon="5.91118">
        <ele>1016.5999755859</ele>
        <time>2016-05-06T10:04:30Z</time>
      </trkpt>
      <trkpt lat="44.45954" lon="5.91117">
        <ele>1015</ele>
        <time>2016-05-06T10:04:31Z</time>
      </trkpt>
      <trkpt lat="44.45955" lon="5.91115">
        <ele>1014.5999755859</ele>
        <time>2016-05-06T10:04:35Z</time>
      </trkpt>
      <trkpt lat="44.45956" lon="5.91113">
        <ele>1014.5999755859</ele>
        <time>2016-05-06T10:04:37Z</time>
      </trkpt>
      <trkpt lat="44.45955" lon="5.91113">
        <ele>1013.5999755859</ele>
        <time>2016-05-06T10:04:38Z</time>
      </trkpt>
      <trkpt lat="44.45954" lon="5.91113">
        <ele>1013.200012207</ele>
        <time>2016-05-06T10:04:41Z</time>
      </trkpt>
      <trkpt lat="44.4595" lon="5.91107">
        <ele>1012.799987793</ele>
        <time>2016-05-06T10:04:45Z</time>
      </trkpt>
      <trkpt lat="44.45946" lon="5.91105">
        <ele>1012.200012207</ele>
        <time>2016-05-06T10:04:48Z</time>
      </trkpt>
      <trkpt lat="44.45945" lon="5.91105">
        <ele>1011.5999755859</ele>
        <time>2016-05-06T10:04:49Z</time>
      </trkpt>
      <trkpt lat="44.45943" lon="5.91105">
        <ele>1010.5999755859</ele>
        <time>2016-05-06T10:04:51Z</time>
      </trkpt>
      <trkpt lat="44.45944" lon="5.91105">
        <ele>1010.5999755859</ele>
        <time>2016-05-06T10:04:52Z</time>
      </trkpt>
      <trkpt lat="44.45943" lon="5.91104">
        <ele>1009.799987793</ele>
        <time>2016-05-06T10:04:54Z</time>
      </trkpt>
      <trkpt lat="44.45943" lon="5.91103">
        <ele>1009</ele>
        <time>2016-05-06T10:04:55Z</time>
      </trkpt>
      <trkpt lat="44.45943" lon="5.91102">
        <ele>1008.200012207</ele>
        <time>2016-05-06T10:04:57Z</time>
      </trkpt>
      <trkpt lat="44.45944" lon="5.91102">
        <ele>1007.4000244141</ele>
        <time>2016-05-06T10:05:00Z</time>
      </trkpt>
      <trkpt lat="44.45941" lon="5.91097">
        <ele>1007.4000244141</ele>
        <time>2016-05-06T10:05:05Z</time>
      </trkpt>
      <trkpt lat="44.45941" lon="5.91097">
        <ele>1006.799987793</ele>
        <time>2016-05-06T10:05:06Z</time>
      </trkpt>
      <trkpt lat="44.45938" lon="5.91095">
        <ele>1006.4000244141</ele>
        <time>2016-05-06T10:05:08Z</time>
      </trkpt>
      <trkpt lat="44.45934" lon="5.91093">
        <ele>1005.5999755859</ele>
        <time>2016-05-06T10:05:11Z</time>
      </trkpt>
      <trkpt lat="44.45932" lon="5.91091">
        <ele>1004.799987793</ele>
        <time>2016-05-06T10:05:14Z</time>
      </trkpt>
      <trkpt lat="44.45932" lon="5.9109">
        <ele>1004.799987793</ele>
        <time>2016-05-06T10:05:16Z</time>
      </trkpt>
      <trkpt lat="44.45932" lon="5.91089">
        <ele>1003.799987793</ele>
        <time>2016-05-06T10:05:17Z</time>
      </trkpt>
      <trkpt lat="44.45932" lon="5.91089">
        <ele>1002.799987793</ele>
        <time>2016-05-06T10:05:20Z</time>
      </trkpt>
      <trkpt lat="44.45932" lon="5.91085">
        <ele>1002</ele>
        <time>2016-05-06T10:05:23Z</time>
      </trkpt>
      <trkpt lat="44.45932" lon="5.91084">
        <ele>1002</ele>
        <time>2016-05-06T10:05:25Z</time>
      </trkpt>
      <trkpt lat="44.45932" lon="5.91083">
        <ele>1001</ele>
        <time>2016-05-06T10:05:26Z</time>
      </trkpt>
      <trkpt lat="44.45934" lon="5.91081">
        <ele>1000</ele>
        <time>2016-05-06T10:05:29Z</time>
      </trkpt>
      <trkpt lat="44.45935" lon="5.91081">
        <ele>999.59997558594</ele>
        <time>2016-05-06T10:05:30Z</time>
      </trkpt>
      <trkpt lat="44.45935" lon="5.91081">
        <ele>999.59997558594</ele>
        <time>2016-05-06T10:05:31Z</time>
      </trkpt>
      <trkpt lat="44.45935" lon="5.91081">
        <ele>999</ele>
        <time>2016-05-06T10:05:32Z</time>
      </trkpt>
      <trkpt lat="44.45935" lon="5.91077">
        <ele>998.20001220703</ele>
        <time>2016-05-06T10:05:35Z</time>
      </trkpt>
      <trkpt lat="44.45934" lon="5.91076">
        <ele>998.20001220703</ele>
        <time>2016-05-06T10:05:37Z</time>
      </trkpt>
      <trkpt lat="44.45933" lon="5.91076">
        <ele>997.59997558594</ele>
        <time>2016-05-06T10:05:38Z</time>
      </trkpt>
      <trkpt lat="44.45932" lon="5.91072">
        <ele>997.20001220703</ele>
        <time>2016-05-06T10:05:41Z</time>
      </trkpt>
      <trkpt lat="44.45932" lon="5.91072">
        <ele>997.20001220703</ele>
        <time>2016-05-06T10:05:42Z</time>
      </trkpt>
      <trkpt lat="44.45932" lon="5.91073">
        <ele>996.79998779297</ele>
        <time>2016-05-06T10:05:43Z</time>
      </trkpt>
      <trkpt lat="44.45934" lon="5.91071">
        <ele>996.40002441406</ele>
        <time>2016-05-06T10:05:46Z</time>
      </trkpt>
      <trkpt lat="44.45934" lon="5.91067">
        <ele>996.40002441406</ele>
        <time>2016-05-06T10:05:48Z</time>
      </trkpt>
      <trkpt lat="44.45934" lon="5.91064">
        <ele>996.40002441406</ele>
        <time>2016-05-06T10:05:49Z</time>
      </trkpt>
      <trkpt lat="44.45933" lon="5.9106">
        <ele>995.20001220703</ele>
        <time>2016-05-06T10:05:50Z</time>
      </trkpt>
      <trkpt lat="44.45935" lon="5.9105">
        <ele>994.40002441406</ele>
        <time>2016-05-06T10:05:53Z</time>
      </trkpt>
      <trkpt lat="44.4594" lon="5.91041">
        <ele>994.40002441406</ele>
        <time>2016-05-06T10:05:56Z</time>
      </trkpt>
      <trkpt lat="44.45943" lon="5.91037">
        <ele>992.79998779297</ele>
        <time>2016-05-06T10:05:57Z</time>
      </trkpt>
      <trkpt lat="44.4595" lon="5.9103">
        <ele>991.79998779297</ele>
        <time>2016-05-06T10:06:00Z</time>
      </trkpt>
      <trkpt lat="44.45949" lon="5.91022">
        <ele>989.79998779297</ele>
        <time>2016-05-06T10:06:04Z</time>
      </trkpt>
      <trkpt lat="44.45944" lon="5.91023">
        <ele>988.79998779297</ele>
        <time>2016-05-06T10:06:07Z</time>
      </trkpt>
      <trkpt lat="44.45938" lon="5.91022">
        <ele>986.59997558594</ele>
        <time>2016-05-06T10:06:11Z</time>
      </trkpt>
      <trkpt lat="44.4594" lon="5.91017">
        <ele>986.59997558594</ele>
        <time>2016-05-06T10:06:13Z</time>
      </trkpt>
      <trkpt lat="44.45942" lon="5.91014">
        <ele>985.79998779297</ele>
        <time>2016-05-06T10:06:14Z</time>
      </trkpt>
      <trkpt lat="44.45944" lon="5.91011">
        <ele>985.79998779297</ele>
        <time>2016-05-06T10:06:15Z</time>
      </trkpt>
      <trkpt lat="44.4595" lon="5.91006">
        <ele>985</ele>
        <time>2016-05-06T10:06:17Z</time>
      </trkpt>
      <trkpt lat="44.45951" lon="5.90999">
        <ele>983</ele>
        <time>2016-05-06T10:06:20Z</time>
      </trkpt>
      <trkpt lat="44.4595" lon="5.90997">
        <ele>983</ele>
        <time>2016-05-06T10:06:21Z</time>
      </trkpt>
      <trkpt lat="44.45945" lon="5.9099">
        <ele>981</ele>
        <time>2016-05-06T10:06:24Z</time>
      </trkpt>
      <trkpt lat="44.45938" lon="5.90982">
        <ele>979</ele>
        <time>2016-05-06T10:06:27Z</time>
      </trkpt>
      <trkpt lat="44.45927" lon="5.90979">
        <ele>976.59997558594</ele>
        <time>2016-05-06T10:06:31Z</time>
      </trkpt>
      <trkpt lat="44.45924" lon="5.90984">
        <ele>976.59997558594</ele>
        <time>2016-05-06T10:06:32Z</time>
      </trkpt>
      <trkpt lat="44.45921" lon="5.90988">
        <ele>974</ele>
        <time>2016-05-06T10:06:34Z</time>
      </trkpt>
      <trkpt lat="44.45914" lon="5.90992">
        <ele>972</ele>
        <time>2016-05-06T10:06:38Z</time>
      </trkpt>
      <trkpt lat="44.45913" lon="5.90991">
        <ele>972</ele>
        <time>2016-05-06T10:06:39Z</time>
      </trkpt>
      <trkpt lat="44.45909" lon="5.90991">
        <ele>970.20001220703</ele>
        <time>2016-05-06T10:06:41Z</time>
      </trkpt>
      <trkpt lat="44.45899" lon="5.9099">
        <ele>968.40002441406</ele>
        <time>2016-05-06T10:06:45Z</time>
      </trkpt>
      <trkpt lat="44.45896" lon="5.90988">
        <ele>968.40002441406</ele>
        <time>2016-05-06T10:06:46Z</time>
      </trkpt>
      <trkpt lat="44.45893" lon="5.90982">
        <ele>967</ele>
        <time>2016-05-06T10:06:48Z</time>
      </trkpt>
      <trkpt lat="44.45894" lon="5.90976">
        <ele>967</ele>
        <time>2016-05-06T10:06:49Z</time>
      </trkpt>
      <trkpt lat="44.45895" lon="5.90971">
        <ele>967</ele>
        <time>2016-05-06T10:06:50Z</time>
      </trkpt>
      <trkpt lat="44.45899" lon="5.90961">
        <ele>965.59997558594</ele>
        <time>2016-05-06T10:06:52Z</time>
      </trkpt>
      <trkpt lat="44.45905" lon="5.90945">
        <ele>964.40002441406</ele>
        <time>2016-05-06T10:06:55Z</time>
      </trkpt>
      <trkpt lat="44.45906" lon="5.90938">
        <ele>964.40002441406</ele>
        <time>2016-05-06T10:06:56Z</time>
      </trkpt>
      <trkpt lat="44.45914" lon="5.90917">
        <ele>964</ele>
        <time>2016-05-06T10:06:59Z</time>
      </trkpt>
      <trkpt lat="44.45923" lon="5.90901">
        <ele>963</ele>
        <time>2016-05-06T10:07:02Z</time>
      </trkpt>
      <trkpt lat="44.45915" lon="5.90889">
        <ele>962.40002441406</ele>
        <time>2016-05-06T10:07:06Z</time>
      </trkpt>
      <trkpt lat="44.45897" lon="5.90885">
        <ele>961.20001220703</ele>
        <time>2016-05-06T10:07:09Z</time>
      </trkpt>
      <trkpt lat="44.4589" lon="5.90884">
        <ele>961.20001220703</ele>
        <time>2016-05-06T10:07:10Z</time>
      </trkpt>
      <trkpt lat="44.45866" lon="5.90883">
        <ele>959.40002441406</ele>
        <time>2016-05-06T10:07:13Z</time>
      </trkpt>
      <trkpt lat="44.45848" lon="5.90881">
        <ele>959.40002441406</ele>
        <time>2016-05-06T10:07:15Z</time>
      </trkpt>
      <trkpt lat="44.45838" lon="5.9088">
        <ele>957.20001220703</ele>
        <time>2016-05-06T10:07:16Z</time>
      </trkpt>
      <trkpt lat="44.45798" lon="5.90872">
        <ele>954.79998779297</ele>
        <time>2016-05-06T10:07:20Z</time>
      </trkpt>
      <trkpt lat="44.45773" lon="5.90871">
        <ele>954.79998779297</ele>
        <time>2016-05-06T10:07:23Z</time>
      </trkpt>
      <trkpt lat="44.45768" lon="5.90873">
        <ele>953.40002441406</ele>
        <time>2016-05-06T10:07:24Z</time>
      </trkpt>
      <trkpt lat="44.4576" lon="5.90873">
        <ele>950.40002441406</ele>
        <time>2016-05-06T10:07:27Z</time>
      </trkpt>
      <trkpt lat="44.45751" lon="5.90871">
        <ele>948.79998779297</ele>
        <time>2016-05-06T10:07:31Z</time>
      </trkpt>
      <trkpt lat="44.45746" lon="5.9087">
        <ele>948.79998779297</ele>
        <time>2016-05-06T10:07:32Z</time>
      </trkpt>
      <trkpt lat="44.45734" lon="5.90868">
        <ele>946</ele>
        <time>2016-05-06T10:07:34Z</time>
      </trkpt>
      <trkpt lat="44.4572" lon="5.90865">
        <ele>946</ele>
        <time>2016-05-06T10:07:36Z</time>
      </trkpt>
      <trkpt lat="44.45706" lon="5.90863">
        <ele>943.20001220703</ele>
        <time>2016-05-06T10:07:38Z</time>
      </trkpt>
      <trkpt lat="44.45699" lon="5.90865">
        <ele>943.20001220703</ele>
        <time>2016-05-06T10:07:39Z</time>
      </trkpt>
      <trkpt lat="44.45692" lon="5.9087">
        <ele>943.20001220703</ele>
        <time>2016-05-06T10:07:40Z</time>
      </trkpt>
      <trkpt lat="44.45687" lon="5.90877">
        <ele>940.59997558594</ele>
        <time>2016-05-06T10:07:41Z</time>
      </trkpt>
      <trkpt lat="44.45678" lon="5.90888">
        <ele>940.59997558594</ele>
        <time>2016-05-06T10:07:43Z</time>
      </trkpt>
      <trkpt lat="44.45671" lon="5.90892">
        <ele>938.20001220703</ele>
        <time>2016-05-06T10:07:45Z</time>
      </trkpt>
      <trkpt lat="44.45667" lon="5.90893">
        <ele>938.20001220703</ele>
        <time>2016-05-06T10:07:47Z</time>
      </trkpt>
      <trkpt lat="44.4566" lon="5.90895">
        <ele>935.79998779297</ele>
        <time>2016-05-06T10:07:50Z</time>
      </trkpt>
      <trkpt lat="44.45654" lon="5.90896">
        <ele>934.59997558594</ele>
        <time>2016-05-06T10:07:53Z</time>
      </trkpt>
      <trkpt lat="44.45654" lon="5.90896">
        <ele>933.59997558594</ele>
        <time>2016-05-06T10:07:54Z</time>
      </trkpt>
      <trkpt lat="44.45651" lon="5.90896">
        <ele>931.79998779297</ele>
        <time>2016-05-06T10:07:57Z</time>
      </trkpt>
      <trkpt lat="44.45643" lon="5.90898">
        <ele>931</ele>
        <time>2016-05-06T10:08:00Z</time>
      </trkpt>
      <trkpt lat="44.45629" lon="5.90902">
        <ele>930</ele>
        <time>2016-05-06T10:08:03Z</time>
      </trkpt>
      <trkpt lat="44.45623" lon="5.90904">
        <ele>930</ele>
        <time>2016-05-06T10:08:04Z</time>
      </trkpt>
      <trkpt lat="44.45611" lon="5.90914">
        <ele>929.40002441406</ele>
        <time>2016-05-06T10:08:06Z</time>
      </trkpt>
      <trkpt lat="44.45607" lon="5.90922">
        <ele>928.79998779297</ele>
        <time>2016-05-06T10:08:07Z</time>
      </trkpt>
      <trkpt lat="44.45602" lon="5.90932">
        <ele>928.79998779297</ele>
        <time>2016-05-06T10:08:08Z</time>
      </trkpt>
      <trkpt lat="44.45591" lon="5.90954">
        <ele>927.79998779297</ele>
        <time>2016-05-06T10:08:10Z</time>
      </trkpt>
      <trkpt lat="44.45584" lon="5.90965">
        <ele>927.79998779297</ele>
        <time>2016-05-06T10:08:11Z</time>
      </trkpt>
      <trkpt lat="44.45577" lon="5.90976">
        <ele>926.40002441406</ele>
        <time>2016-05-06T10:08:12Z</time>
      </trkpt>
      <trkpt lat="44.4557" lon="5.90986">
        <ele>924.59997558594</ele>
        <time>2016-05-06T10:08:13Z</time>
      </trkpt>
      <trkpt lat="44.45564" lon="5.90994">
        <ele>924.59997558594</ele>
        <time>2016-05-06T10:08:14Z</time>
      </trkpt>
      <trkpt lat="44.45558" lon="5.91">
        <ele>924.59997558594</ele>
        <time>2016-05-06T10:08:15Z</time>
      </trkpt>
      <trkpt lat="44.45552" lon="5.91003">
        <ele>920.59997558594</ele>
        <time>2016-05-06T10:08:16Z</time>
      </trkpt>
      <trkpt lat="44.45541" lon="5.91002">
        <ele>920.59997558594</ele>
        <time>2016-05-06T10:08:18Z</time>
      </trkpt>
      <trkpt lat="44.45539" lon="5.90995">
        <ele>917</ele>
        <time>2016-05-06T10:08:19Z</time>
      </trkpt>
      <trkpt lat="44.45539" lon="5.90988">
        <ele>917</ele>
        <time>2016-05-06T10:08:20Z</time>
      </trkpt>
      <trkpt lat="44.45541" lon="5.9097">
        <ele>913.40002441406</ele>
        <time>2016-05-06T10:08:22Z</time>
      </trkpt>
      <trkpt lat="44.45541" lon="5.90939">
        <ele>912.59997558594</ele>
        <time>2016-05-06T10:08:25Z</time>
      </trkpt>
      <trkpt lat="44.45539" lon="5.90927">
        <ele>911.79998779297</ele>
        <time>2016-05-06T10:08:26Z</time>
      </trkpt>
      <trkpt lat="44.45536" lon="5.90916">
        <ele>911.79998779297</ele>
        <time>2016-05-06T10:08:27Z</time>
      </trkpt>
      <trkpt lat="44.45533" lon="5.90905">
        <ele>911.79998779297</ele>
        <time>2016-05-06T10:08:28Z</time>
      </trkpt>
      <trkpt lat="44.45527" lon="5.90875">
        <ele>910.59997558594</ele>
        <time>2016-05-06T10:08:31Z</time>
      </trkpt>
      <trkpt lat="44.45528" lon="5.90866">
        <ele>910.59997558594</ele>
        <time>2016-05-06T10:08:32Z</time>
      </trkpt>
      <trkpt lat="44.45543" lon="5.9085">
        <ele>907.79998779297</ele>
        <time>2016-05-06T10:08:35Z</time>
      </trkpt>
      <trkpt lat="44.4555" lon="5.90846">
        <ele>907.79998779297</ele>
        <time>2016-05-06T10:08:36Z</time>
      </trkpt>
      <trkpt lat="44.45564" lon="5.90836">
        <ele>906.40002441406</ele>
        <time>2016-05-06T10:08:38Z</time>
      </trkpt>
      <trkpt lat="44.4557" lon="5.90832">
        <ele>905</ele>
        <time>2016-05-06T10:08:39Z</time>
      </trkpt>
      <trkpt lat="44.45583" lon="5.90824">
        <ele>905</ele>
        <time>2016-05-06T10:08:41Z</time>
      </trkpt>
      <trkpt lat="44.45587" lon="5.90819">
        <ele>902.40002441406</ele>
        <time>2016-05-06T10:08:42Z</time>
      </trkpt>
      <trkpt lat="44.4559" lon="5.90806">
        <ele>902.40002441406</ele>
        <time>2016-05-06T10:08:44Z</time>
      </trkpt>
      <trkpt lat="44.45588" lon="5.90792">
        <ele>900</ele>
        <time>2016-05-06T10:08:46Z</time>
      </trkpt>
      <trkpt lat="44.45588" lon="5.90778">
        <ele>900</ele>
        <time>2016-05-06T10:08:48Z</time>
      </trkpt>
      <trkpt lat="44.45587" lon="5.90771">
        <ele>897.40002441406</ele>
        <time>2016-05-06T10:08:49Z</time>
      </trkpt>
      <trkpt lat="44.45584" lon="5.90754">
        <ele>897.40002441406</ele>
        <time>2016-05-06T10:08:52Z</time>
      </trkpt>
      <trkpt lat="44.45578" lon="5.90737">
        <ele>897.40002441406</ele>
        <time>2016-05-06T10:08:57Z</time>
      </trkpt>
      <trkpt lat="44.45578" lon="5.90737">
        <ele>898.40002441406</ele>
        <time>2016-05-06T10:09:00Z</time>
      </trkpt>
      <trkpt lat="44.45578" lon="5.90737">
        <ele>899.20001220703</ele>
        <time>2016-05-06T10:09:03Z</time>
      </trkpt>
      <trkpt lat="44.45578" lon="5.90737">
        <ele>899.59997558594</ele>
        <time>2016-05-06T10:09:07Z</time>
      </trkpt>
      <trkpt lat="44.45578" lon="5.90737">
        <ele>899.59997558594</ele>
        <time>2016-05-06T10:10:37Z</time>
      </trkpt>
      <trkpt lat="44.45578" lon="5.90736">
        <ele>899.59997558594</ele>
        <time>2016-05-06T10:11:43Z</time>
      </trkpt>
      <trkpt lat="44.45579" lon="5.90735">
        <ele>899.59997558594</ele>
        <time>2016-05-06T10:12:11Z</time>
      </trkpt>
      <trkpt lat="44.4558" lon="5.90733">
        <ele>900.20001220703</ele>
        <time>2016-05-06T10:12:13Z</time>
      </trkpt>
      <trkpt lat="44.45585" lon="5.9072">
        <ele>901.20001220703</ele>
        <time>2016-05-06T10:12:17Z</time>
      </trkpt>
      <trkpt lat="44.45588" lon="5.90713">
        <ele>901.79998779297</ele>
        <time>2016-05-06T10:12:20Z</time>
      </trkpt>
      <trkpt lat="44.45592" lon="5.90705">
        <ele>903</ele>
        <time>2016-05-06T10:12:24Z</time>
      </trkpt>
      <trkpt lat="44.45593" lon="5.907">
        <ele>903.59997558594</ele>
        <time>2016-05-06T10:12:27Z</time>
      </trkpt>
      <trkpt lat="44.45596" lon="5.90694">
        <ele>904.59997558594</ele>
        <time>2016-05-06T10:12:31Z</time>
      </trkpt>
      <trkpt lat="44.45597" lon="5.90688">
        <ele>905.20001220703</ele>
        <time>2016-05-06T10:12:34Z</time>
      </trkpt>
      <trkpt lat="44.45598" lon="5.90682">
        <ele>906.20001220703</ele>
        <time>2016-05-06T10:12:38Z</time>
      </trkpt>
      <trkpt lat="44.45599" lon="5.90678">
        <ele>906.59997558594</ele>
        <time>2016-05-06T10:12:41Z</time>
      </trkpt>
      <trkpt lat="44.45601" lon="5.90672">
        <ele>907.40002441406</ele>
        <time>2016-05-06T10:12:45Z</time>
      </trkpt>
      <trkpt lat="44.45601" lon="5.90671">
        <ele>907.40002441406</ele>
        <time>2016-05-06T10:12:46Z</time>
      </trkpt>
      <trkpt lat="44.456" lon="5.90667">
        <ele>907.79998779297</ele>
        <time>2016-05-06T10:12:48Z</time>
      </trkpt>
      <trkpt lat="44.45601" lon="5.90661">
        <ele>908.79998779297</ele>
        <time>2016-05-06T10:12:52Z</time>
      </trkpt>
      <trkpt lat="44.45601" lon="5.90657">
        <ele>909.20001220703</ele>
        <time>2016-05-06T10:12:55Z</time>
      </trkpt>
      <trkpt lat="44.45601" lon="5.90654">
        <ele>909.20001220703</ele>
        <time>2016-05-06T10:12:57Z</time>
      </trkpt>
      <trkpt lat="44.45601" lon="5.90653">
        <ele>909.20001220703</ele>
        <time>2016-05-06T10:12:58Z</time>
      </trkpt>
      <trkpt lat="44.45602" lon="5.90651">
        <ele>910.20001220703</ele>
        <time>2016-05-06T10:12:59Z</time>
      </trkpt>
      <trkpt lat="44.45603" lon="5.90647">
        <ele>910.59997558594</ele>
        <time>2016-05-06T10:13:02Z</time>
      </trkpt>
      <trkpt lat="44.45603" lon="5.90646">
        <ele>910.59997558594</ele>
        <time>2016-05-06T10:13:03Z</time>
      </trkpt>
      <trkpt lat="44.45603" lon="5.90644">
        <ele>910.59997558594</ele>
        <time>2016-05-06T10:13:04Z</time>
      </trkpt>
      <trkpt lat="44.45604" lon="5.90641">
        <ele>911</ele>
        <time>2016-05-06T10:13:06Z</time>
      </trkpt>
      <trkpt lat="44.45604" lon="5.90637">
        <ele>911.40002441406</ele>
        <time>2016-05-06T10:13:09Z</time>
      </trkpt>
      <trkpt lat="44.45605" lon="5.90631">
        <ele>911.79998779297</ele>
        <time>2016-05-06T10:13:13Z</time>
      </trkpt>
      <trkpt lat="44.45605" lon="5.90629">
        <ele>911.79998779297</ele>
        <time>2016-05-06T10:13:14Z</time>
      </trkpt>
      <trkpt lat="44.45606" lon="5.90628">
        <ele>912.40002441406</ele>
        <time>2016-05-06T10:13:15Z</time>
      </trkpt>
      <trkpt lat="44.45607" lon="5.90621">
        <ele>912.79998779297</ele>
        <time>2016-05-06T10:13:19Z</time>
      </trkpt>
      <trkpt lat="44.45609" lon="5.90618">
        <ele>913.40002441406</ele>
        <time>2016-05-06T10:13:21Z</time>
      </trkpt>
      <trkpt lat="44.45609" lon="5.90616">
        <ele>914</ele>
        <time>2016-05-06T10:13:22Z</time>
      </trkpt>
      <trkpt lat="44.45609" lon="5.90611">
        <ele>914.59997558594</ele>
        <time>2016-05-06T10:13:25Z</time>
      </trkpt>
      <trkpt lat="44.45609" lon="5.90609">
        <ele>914.59997558594</ele>
        <time>2016-05-06T10:13:26Z</time>
      </trkpt>
      <trkpt lat="44.45609" lon="5.90607">
        <ele>915.20001220703</ele>
        <time>2016-05-06T10:13:27Z</time>
      </trkpt>
      <trkpt lat="44.45608" lon="5.906">
        <ele>915.59997558594</ele>
        <time>2016-05-06T10:13:31Z</time>
      </trkpt>
      <trkpt lat="44.45607" lon="5.90597">
        <ele>916.20001220703</ele>
        <time>2016-05-06T10:13:33Z</time>
      </trkpt>
      <trkpt lat="44.45606" lon="5.90591">
        <ele>916.20001220703</ele>
        <time>2016-05-06T10:13:36Z</time>
      </trkpt>
      <trkpt lat="44.45605" lon="5.9059">
        <ele>916.79998779297</ele>
        <time>2016-05-06T10:13:37Z</time>
      </trkpt>
      <trkpt lat="44.45604" lon="5.90587">
        <ele>917.40002441406</ele>
        <time>2016-05-06T10:13:39Z</time>
      </trkpt>
      <trkpt lat="44.45602" lon="5.90586">
        <ele>917.40002441406</ele>
        <time>2016-05-06T10:13:40Z</time>
      </trkpt>
      <trkpt lat="44.456" lon="5.90582">
        <ele>917.40002441406</ele>
        <time>2016-05-06T10:13:43Z</time>
      </trkpt>
      <trkpt lat="44.45598" lon="5.9058">
        <ele>917.79998779297</ele>
        <time>2016-05-06T10:13:45Z</time>
      </trkpt>
      <trkpt lat="44.45594" lon="5.90576">
        <ele>918.79998779297</ele>
        <time>2016-05-06T10:13:49Z</time>
      </trkpt>
      <trkpt lat="44.4559" lon="5.90574">
        <ele>920</ele>
        <time>2016-05-06T10:13:52Z</time>
      </trkpt>
      <trkpt lat="44.45582" lon="5.90569">
        <ele>920.79998779297</ele>
        <time>2016-05-06T10:13:59Z</time>
      </trkpt>
      <trkpt lat="44.45581" lon="5.90568">
        <ele>920.79998779297</ele>
        <time>2016-05-06T10:14:00Z</time>
      </trkpt>
      <trkpt lat="44.45578" lon="5.90567">
        <ele>921.20001220703</ele>
        <time>2016-05-06T10:14:02Z</time>
      </trkpt>
      <trkpt lat="44.45574" lon="5.90564">
        <ele>922</ele>
        <time>2016-05-06T10:14:06Z</time>
      </trkpt>
      <trkpt lat="44.45573" lon="5.90563">
        <ele>922</ele>
        <time>2016-05-06T10:14:07Z</time>
      </trkpt>
      <trkpt lat="44.45566" lon="5.90558">
        <ele>922.40002441406</ele>
        <time>2016-05-06T10:14:13Z</time>
      </trkpt>
      <trkpt lat="44.45563" lon="5.90558">
        <ele>922.40002441406</ele>
        <time>2016-05-06T10:14:15Z</time>
      </trkpt>
      <trkpt lat="44.4556" lon="5.90557">
        <ele>922.79998779297</ele>
        <time>2016-05-06T10:14:17Z</time>
      </trkpt>
      <trkpt lat="44.45555" lon="5.90556">
        <ele>923.20001220703</ele>
        <time>2016-05-06T10:14:21Z</time>
      </trkpt>
      <trkpt lat="44.45551" lon="5.90556">
        <ele>924</ele>
        <time>2016-05-06T10:14:24Z</time>
      </trkpt>
      <trkpt lat="44.45545" lon="5.90556">
        <ele>924.40002441406</ele>
        <time>2016-05-06T10:14:28Z</time>
      </trkpt>
      <trkpt lat="44.4554" lon="5.90555">
        <ele>924.79998779297</ele>
        <time>2016-05-06T10:14:31Z</time>
      </trkpt>
      <trkpt lat="44.45537" lon="5.90554">
        <ele>925.59997558594</ele>
        <time>2016-05-06T10:14:33Z</time>
      </trkpt>
      <trkpt lat="44.45533" lon="5.90554">
        <ele>925.59997558594</ele>
        <time>2016-05-06T10:14:36Z</time>
      </trkpt>
      <trkpt lat="44.45531" lon="5.90553">
        <ele>926</ele>
        <time>2016-05-06T10:14:37Z</time>
      </trkpt>
      <trkpt lat="44.45523" lon="5.90552">
        <ele>926</ele>
        <time>2016-05-06T10:14:43Z</time>
      </trkpt>
      <trkpt lat="44.45521" lon="5.90551">
        <ele>926.59997558594</ele>
        <time>2016-05-06T10:14:45Z</time>
      </trkpt>
      <trkpt lat="44.45517" lon="5.9055">
        <ele>927</ele>
        <time>2016-05-06T10:14:48Z</time>
      </trkpt>
      <trkpt lat="44.45514" lon="5.90551">
        <ele>927.40002441406</ele>
        <time>2016-05-06T10:14:51Z</time>
      </trkpt>
      <trkpt lat="44.45512" lon="5.90551">
        <ele>927.79998779297</ele>
        <time>2016-05-06T10:14:52Z</time>
      </trkpt>
      <trkpt lat="44.45509" lon="5.90551">
        <ele>927.79998779297</ele>
        <time>2016-05-06T10:14:54Z</time>
      </trkpt>
      <trkpt lat="44.45508" lon="5.90551">
        <ele>928.20001220703</ele>
        <time>2016-05-06T10:14:55Z</time>
      </trkpt>
      <trkpt lat="44.45505" lon="5.90553">
        <ele>928.79998779297</ele>
        <time>2016-05-06T10:14:58Z</time>
      </trkpt>
      <trkpt lat="44.45504" lon="5.90553">
        <ele>929.20001220703</ele>
        <time>2016-05-06T10:14:59Z</time>
      </trkpt>
      <trkpt lat="44.45499" lon="5.90554">
        <ele>929.79998779297</ele>
        <time>2016-05-06T10:15:02Z</time>
      </trkpt>
      <trkpt lat="44.45496" lon="5.90556">
        <ele>930.20001220703</ele>
        <time>2016-05-06T10:15:05Z</time>
      </trkpt>
      <trkpt lat="44.45495" lon="5.90556">
        <ele>930.79998779297</ele>
        <time>2016-05-06T10:15:06Z</time>
      </trkpt>
      <trkpt lat="44.45492" lon="5.90558">
        <ele>931.20001220703</ele>
        <time>2016-05-06T10:15:09Z</time>
      </trkpt>
      <trkpt lat="44.45488" lon="5.9056">
        <ele>931.79998779297</ele>
        <time>2016-05-06T10:15:12Z</time>
      </trkpt>
      <trkpt lat="44.45487" lon="5.9056">
        <ele>932.20001220703</ele>
        <time>2016-05-06T10:15:13Z</time>
      </trkpt>
      <trkpt lat="44.45486" lon="5.90561">
        <ele>932.20001220703</ele>
        <time>2016-05-06T10:15:14Z</time>
      </trkpt>
      <trkpt lat="44.45484" lon="5.90562">
        <ele>932.79998779297</ele>
        <time>2016-05-06T10:15:16Z</time>
      </trkpt>
      <trkpt lat="44.45479" lon="5.90565">
        <ele>933.20001220703</ele>
        <time>2016-05-06T10:15:20Z</time>
      </trkpt>
      <trkpt lat="44.45476" lon="5.90565">
        <ele>933.20001220703</ele>
        <time>2016-05-06T10:15:22Z</time>
      </trkpt>
      <trkpt lat="44.45475" lon="5.90566">
        <ele>933.59997558594</ele>
        <time>2016-05-06T10:15:23Z</time>
      </trkpt>
      <trkpt lat="44.45469" lon="5.90567">
        <ele>934</ele>
        <time>2016-05-06T10:15:26Z</time>
      </trkpt>
      <trkpt lat="44.45467" lon="5.90568">
        <ele>934.40002441406</ele>
        <time>2016-05-06T10:15:27Z</time>
      </trkpt>
      <trkpt lat="44.45464" lon="5.9057">
        <ele>934.79998779297</ele>
        <time>2016-05-06T10:15:29Z</time>
      </trkpt>
      <trkpt lat="44.45461" lon="5.90573">
        <ele>934.79998779297</ele>
        <time>2016-05-06T10:15:31Z</time>
      </trkpt>
      <trkpt lat="44.45446" lon="5.90582">
        <ele>934.79998779297</ele>
        <time>2016-05-06T10:15:41Z</time>
      </trkpt>
      <trkpt lat="44.45441" lon="5.90582">
        <ele>935.20001220703</ele>
        <time>2016-05-06T10:15:44Z</time>
      </trkpt>
      <trkpt lat="44.45438" lon="5.90581">
        <ele>935.79998779297</ele>
        <time>2016-05-06T10:15:47Z</time>
      </trkpt>
      <trkpt lat="44.45436" lon="5.90581">
        <ele>936.20001220703</ele>
        <time>2016-05-06T10:15:48Z</time>
      </trkpt>
      <trkpt lat="44.45432" lon="5.90581">
        <ele>936.59997558594</ele>
        <time>2016-05-06T10:15:51Z</time>
      </trkpt>
      <trkpt lat="44.4543" lon="5.9058">
        <ele>937</ele>
        <time>2016-05-06T10:15:52Z</time>
      </trkpt>
      <trkpt lat="44.45425" lon="5.90581">
        <ele>937.40002441406</ele>
        <time>2016-05-06T10:15:55Z</time>
      </trkpt>
      <trkpt lat="44.45424" lon="5.90582">
        <ele>937.40002441406</ele>
        <time>2016-05-06T10:15:56Z</time>
      </trkpt>
      <trkpt lat="44.45422" lon="5.90582">
        <ele>938</ele>
        <time>2016-05-06T10:15:57Z</time>
      </trkpt>
      <trkpt lat="44.45417" lon="5.90583">
        <ele>938.40002441406</ele>
        <time>2016-05-06T10:16:00Z</time>
      </trkpt>
      <trkpt lat="44.45415" lon="5.90584">
        <ele>938.79998779297</ele>
        <time>2016-05-06T10:16:01Z</time>
      </trkpt>
      <trkpt lat="44.4541" lon="5.90584">
        <ele>939.40002441406</ele>
        <time>2016-05-06T10:16:04Z</time>
      </trkpt>
      <trkpt lat="44.45398" lon="5.90585">
        <ele>939.40002441406</ele>
        <time>2016-05-06T10:16:12Z</time>
      </trkpt>
      <trkpt lat="44.45394" lon="5.90585">
        <ele>939.79998779297</ele>
        <time>2016-05-06T10:16:14Z</time>
      </trkpt>
      <trkpt lat="44.45392" lon="5.90585">
        <ele>940.20001220703</ele>
        <time>2016-05-06T10:16:15Z</time>
      </trkpt>
      <trkpt lat="44.45385" lon="5.90585">
        <ele>940.59997558594</ele>
        <time>2016-05-06T10:16:18Z</time>
      </trkpt>
      <trkpt lat="44.4538" lon="5.90585">
        <ele>941</ele>
        <time>2016-05-06T10:16:20Z</time>
      </trkpt>
      <trkpt lat="44.45378" lon="5.90584">
        <ele>941.40002441406</ele>
        <time>2016-05-06T10:16:21Z</time>
      </trkpt>
      <trkpt lat="44.45359" lon="5.90581">
        <ele>941.40002441406</ele>
        <time>2016-05-06T10:16:29Z</time>
      </trkpt>
      <trkpt lat="44.45335" lon="5.90575">
        <ele>941.79998779297</ele>
        <time>2016-05-06T10:16:38Z</time>
      </trkpt>
      <trkpt lat="44.45328" lon="5.90572">
        <ele>942.20001220703</ele>
        <time>2016-05-06T10:16:41Z</time>
      </trkpt>
      <trkpt lat="44.45321" lon="5.90567">
        <ele>942.20001220703</ele>
        <time>2016-05-06T10:16:44Z</time>
      </trkpt>
      <trkpt lat="44.45319" lon="5.90565">
        <ele>942.79998779297</ele>
        <time>2016-05-06T10:16:45Z</time>
      </trkpt>
      <trkpt lat="44.45318" lon="5.90563">
        <ele>943.20001220703</ele>
        <time>2016-05-06T10:16:46Z</time>
      </trkpt>
      <trkpt lat="44.45316" lon="5.90561">
        <ele>943.59997558594</ele>
        <time>2016-05-06T10:16:47Z</time>
      </trkpt>
      <trkpt lat="44.45314" lon="5.90548">
        <ele>943.59997558594</ele>
        <time>2016-05-06T10:16:51Z</time>
      </trkpt>
      <trkpt lat="44.45313" lon="5.90539">
        <ele>944</ele>
        <time>2016-05-06T10:16:54Z</time>
      </trkpt>
      <trkpt lat="44.45313" lon="5.90536">
        <ele>944.40002441406</ele>
        <time>2016-05-06T10:16:55Z</time>
      </trkpt>
      <trkpt lat="44.45313" lon="5.9053">
        <ele>945</ele>
        <time>2016-05-06T10:16:57Z</time>
      </trkpt>
      <trkpt lat="44.45313" lon="5.90527">
        <ele>945.40002441406</ele>
        <time>2016-05-06T10:16:58Z</time>
      </trkpt>
      <trkpt lat="44.45313" lon="5.90519">
        <ele>945.79998779297</ele>
        <time>2016-05-06T10:17:01Z</time>
      </trkpt>
      <trkpt lat="44.45314" lon="5.90502">
        <ele>946.20001220703</ele>
        <time>2016-05-06T10:17:08Z</time>
      </trkpt>
      <trkpt lat="44.45313" lon="5.90497">
        <ele>947</ele>
        <time>2016-05-06T10:17:10Z</time>
      </trkpt>
      <trkpt lat="44.45313" lon="5.90489">
        <ele>947.79998779297</ele>
        <time>2016-05-06T10:17:14Z</time>
      </trkpt>
      <trkpt lat="44.45312" lon="5.90487">
        <ele>947.79998779297</ele>
        <time>2016-05-06T10:17:15Z</time>
      </trkpt>
      <trkpt lat="44.4531" lon="5.90475">
        <ele>948.79998779297</ele>
        <time>2016-05-06T10:17:21Z</time>
      </trkpt>
      <trkpt lat="44.45308" lon="5.90468">
        <ele>949.20001220703</ele>
        <time>2016-05-06T10:17:25Z</time>
      </trkpt>
      <trkpt lat="44.45306" lon="5.90465">
        <ele>949.20001220703</ele>
        <time>2016-05-06T10:17:27Z</time>
      </trkpt>
      <trkpt lat="44.45306" lon="5.90463">
        <ele>950.20001220703</ele>
        <time>2016-05-06T10:17:28Z</time>
      </trkpt>
      <trkpt lat="44.45302" lon="5.90456">
        <ele>950.59997558594</ele>
        <time>2016-05-06T10:17:32Z</time>
      </trkpt>
      <trkpt lat="44.45299" lon="5.90452">
        <ele>951</ele>
        <time>2016-05-06T10:17:35Z</time>
      </trkpt>
      <trkpt lat="44.45299" lon="5.9045">
        <ele>951.59997558594</ele>
        <time>2016-05-06T10:17:36Z</time>
      </trkpt>
      <trkpt lat="44.45295" lon="5.90446">
        <ele>952</ele>
        <time>2016-05-06T10:17:39Z</time>
      </trkpt>
      <trkpt lat="44.45292" lon="5.90442">
        <ele>952.40002441406</ele>
        <time>2016-05-06T10:17:42Z</time>
      </trkpt>
      <trkpt lat="44.4529" lon="5.9044">
        <ele>952.40002441406</ele>
        <time>2016-05-06T10:17:44Z</time>
      </trkpt>
      <trkpt lat="44.45283" lon="5.90437">
        <ele>953.40002441406</ele>
        <time>2016-05-06T10:17:49Z</time>
      </trkpt>
      <trkpt lat="44.4528" lon="5.90435">
        <ele>953.40002441406</ele>
        <time>2016-05-06T10:17:51Z</time>
      </trkpt>
      <trkpt lat="44.45278" lon="5.90434">
        <ele>954.20001220703</ele>
        <time>2016-05-06T10:17:53Z</time>
      </trkpt>
      <trkpt lat="44.45275" lon="5.90432">
        <ele>954.59997558594</ele>
        <time>2016-05-06T10:17:56Z</time>
      </trkpt>
      <trkpt lat="44.45271" lon="5.90426">
        <ele>955.20001220703</ele>
        <time>2016-05-06T10:18:00Z</time>
      </trkpt>
      <trkpt lat="44.45271" lon="5.90424">
        <ele>955.59997558594</ele>
        <time>2016-05-06T10:18:01Z</time>
      </trkpt>
      <trkpt lat="44.4527" lon="5.9042">
        <ele>956.40002441406</ele>
        <time>2016-05-06T10:18:03Z</time>
      </trkpt>
      <trkpt lat="44.45269" lon="5.90411">
        <ele>956.79998779297</ele>
        <time>2016-05-06T10:18:07Z</time>
      </trkpt>
      <trkpt lat="44.45267" lon="5.90407">
        <ele>956.79998779297</ele>
        <time>2016-05-06T10:18:09Z</time>
      </trkpt>
      <trkpt lat="44.45264" lon="5.90393">
        <ele>957.20001220703</ele>
        <time>2016-05-06T10:18:15Z</time>
      </trkpt>
      <trkpt lat="44.45263" lon="5.90388">
        <ele>957.20001220703</ele>
        <time>2016-05-06T10:18:17Z</time>
      </trkpt>
      <trkpt lat="44.45263" lon="5.90386">
        <ele>957.79998779297</ele>
        <time>2016-05-06T10:18:18Z</time>
      </trkpt>
      <trkpt lat="44.45263" lon="5.90384">
        <ele>958.20001220703</ele>
        <time>2016-05-06T10:18:19Z</time>
      </trkpt>
      <trkpt lat="44.45262" lon="5.9038">
        <ele>958.79998779297</ele>
        <time>2016-05-06T10:18:21Z</time>
      </trkpt>
      <trkpt lat="44.45262" lon="5.90378">
        <ele>959.20001220703</ele>
        <time>2016-05-06T10:18:22Z</time>
      </trkpt>
      <trkpt lat="44.45256" lon="5.90369">
        <ele>959.20001220703</ele>
        <time>2016-05-06T10:18:27Z</time>
      </trkpt>
      <trkpt lat="44.45255" lon="5.90367">
        <ele>959.59997558594</ele>
        <time>2016-05-06T10:18:28Z</time>
      </trkpt>
      <trkpt lat="44.45253" lon="5.90363">
        <ele>960.20001220703</ele>
        <time>2016-05-06T10:18:31Z</time>
      </trkpt>
      <trkpt lat="44.45252" lon="5.90362">
        <ele>960.59997558594</ele>
        <time>2016-05-06T10:18:32Z</time>
      </trkpt>
      <trkpt lat="44.4525" lon="5.90357">
        <ele>961</ele>
        <time>2016-05-06T10:18:35Z</time>
      </trkpt>
      <trkpt lat="44.4525" lon="5.90356">
        <ele>961</ele>
        <time>2016-05-06T10:18:36Z</time>
      </trkpt>
      <trkpt lat="44.4525" lon="5.90353">
        <ele>961.59997558594</ele>
        <time>2016-05-06T10:18:38Z</time>
      </trkpt>
      <trkpt lat="44.45249" lon="5.90348">
        <ele>962</ele>
        <time>2016-05-06T10:18:41Z</time>
      </trkpt>
      <trkpt lat="44.45248" lon="5.90346">
        <ele>962</ele>
        <time>2016-05-06T10:18:42Z</time>
      </trkpt>
      <trkpt lat="44.45247" lon="5.90341">
        <ele>962.40002441406</ele>
        <time>2016-05-06T10:18:44Z</time>
      </trkpt>
      <trkpt lat="44.45246" lon="5.90338">
        <ele>962.79998779297</ele>
        <time>2016-05-06T10:18:45Z</time>
      </trkpt>
      <trkpt lat="44.45246" lon="5.90331">
        <ele>963.20001220703</ele>
        <time>2016-05-06T10:18:48Z</time>
      </trkpt>
      <trkpt lat="44.45245" lon="5.90323">
        <ele>963.79998779297</ele>
        <time>2016-05-06T10:18:51Z</time>
      </trkpt>
      <trkpt lat="44.45244" lon="5.90321">
        <ele>964.20001220703</ele>
        <time>2016-05-06T10:18:52Z</time>
      </trkpt>
      <trkpt lat="44.45242" lon="5.90314">
        <ele>964.59997558594</ele>
        <time>2016-05-06T10:18:55Z</time>
      </trkpt>
      <trkpt lat="44.45239" lon="5.90308">
        <ele>965.20001220703</ele>
        <time>2016-05-06T10:18:58Z</time>
      </trkpt>
      <trkpt lat="44.45238" lon="5.90307">
        <ele>965.59997558594</ele>
        <time>2016-05-06T10:18:59Z</time>
      </trkpt>
      <trkpt lat="44.45235" lon="5.90305">
        <ele>965.59997558594</ele>
        <time>2016-05-06T10:19:01Z</time>
      </trkpt>
      <trkpt lat="44.45233" lon="5.90305">
        <ele>966.20001220703</ele>
        <time>2016-05-06T10:19:02Z</time>
      </trkpt>
      <trkpt lat="44.45223" lon="5.90303">
        <ele>966.79998779297</ele>
        <time>2016-05-06T10:19:06Z</time>
      </trkpt>
      <trkpt lat="44.45213" lon="5.90303">
        <ele>967.40002441406</ele>
        <time>2016-05-06T10:19:09Z</time>
      </trkpt>
      <trkpt lat="44.45203" lon="5.9031">
        <ele>967.40002441406</ele>
        <time>2016-05-06T10:19:12Z</time>
      </trkpt>
      <trkpt lat="44.452" lon="5.90313">
        <ele>968</ele>
        <time>2016-05-06T10:19:13Z</time>
      </trkpt>
      <trkpt lat="44.45191" lon="5.90326">
        <ele>968.59997558594</ele>
        <time>2016-05-06T10:19:16Z</time>
      </trkpt>
      <trkpt lat="44.45189" lon="5.90331">
        <ele>968.20001220703</ele>
        <time>2016-05-06T10:19:17Z</time>
      </trkpt>
      <trkpt lat="44.45184" lon="5.90343">
        <ele>967.79998779297</ele>
        <time>2016-05-06T10:19:19Z</time>
      </trkpt>
      <trkpt lat="44.45182" lon="5.90349">
        <ele>967.40002441406</ele>
        <time>2016-05-06T10:19:20Z</time>
      </trkpt>
      <trkpt lat="44.45177" lon="5.90361">
        <ele>967.40002441406</ele>
        <time>2016-05-06T10:19:22Z</time>
      </trkpt>
      <trkpt lat="44.45174" lon="5.90368">
        <ele>967</ele>
        <time>2016-05-06T10:19:23Z</time>
      </trkpt>
      <trkpt lat="44.45171" lon="5.90375">
        <ele>966.59997558594</ele>
        <time>2016-05-06T10:19:24Z</time>
      </trkpt>
      <trkpt lat="44.45162" lon="5.90397">
        <ele>966</ele>
        <time>2016-05-06T10:19:27Z</time>
      </trkpt>
      <trkpt lat="44.45152" lon="5.90422">
        <ele>965.59997558594</ele>
        <time>2016-05-06T10:19:30Z</time>
      </trkpt>
      <trkpt lat="44.45148" lon="5.9043">
        <ele>965</ele>
        <time>2016-05-06T10:19:31Z</time>
      </trkpt>
      <trkpt lat="44.45139" lon="5.90446">
        <ele>965</ele>
        <time>2016-05-06T10:19:33Z</time>
      </trkpt>
      <trkpt lat="44.45134" lon="5.90453">
        <ele>964</ele>
        <time>2016-05-06T10:19:34Z</time>
      </trkpt>
      <trkpt lat="44.45121" lon="5.90467">
        <ele>964</ele>
        <time>2016-05-06T10:19:36Z</time>
      </trkpt>
      <trkpt lat="44.45113" lon="5.90473">
        <ele>963.40002441406</ele>
        <time>2016-05-06T10:19:37Z</time>
      </trkpt>
      <trkpt lat="44.45105" lon="5.90479">
        <ele>962.59997558594</ele>
        <time>2016-05-06T10:19:38Z</time>
      </trkpt>
      <trkpt lat="44.4508" lon="5.90492">
        <ele>961</ele>
        <time>2016-05-06T10:19:41Z</time>
      </trkpt>
      <trkpt lat="44.45061" lon="5.90498">
        <ele>961</ele>
        <time>2016-05-06T10:19:43Z</time>
      </trkpt>
      <trkpt lat="44.45052" lon="5.90502">
        <ele>960</ele>
        <time>2016-05-06T10:19:44Z</time>
      </trkpt>
      <trkpt lat="44.45043" lon="5.90509">
        <ele>959</ele>
        <time>2016-05-06T10:19:45Z</time>
      </trkpt>
      <trkpt lat="44.45034" lon="5.90517">
        <ele>959</ele>
        <time>2016-05-06T10:19:46Z</time>
      </trkpt>
      <trkpt lat="44.4502" lon="5.90537">
        <ele>957.79998779297</ele>
        <time>2016-05-06T10:19:48Z</time>
      </trkpt>
      <trkpt lat="44.45014" lon="5.90548">
        <ele>957.79998779297</ele>
        <time>2016-05-06T10:19:49Z</time>
      </trkpt>
      <trkpt lat="44.44994" lon="5.90581">
        <ele>955.59997558594</ele>
        <time>2016-05-06T10:19:52Z</time>
      </trkpt>
      <trkpt lat="44.44974" lon="5.90612">
        <ele>954.40002441406</ele>
        <time>2016-05-06T10:19:55Z</time>
      </trkpt>
      <trkpt lat="44.44967" lon="5.90623">
        <ele>953.20001220703</ele>
        <time>2016-05-06T10:19:56Z</time>
      </trkpt>
      <trkpt lat="44.44954" lon="5.90643">
        <ele>953.20001220703</ele>
        <time>2016-05-06T10:19:58Z</time>
      </trkpt>
      <trkpt lat="44.44948" lon="5.90653">
        <ele>950.59997558594</ele>
        <time>2016-05-06T10:19:59Z</time>
      </trkpt>
      <trkpt lat="44.44933" lon="5.90679">
        <ele>949.40002441406</ele>
        <time>2016-05-06T10:20:02Z</time>
      </trkpt>
      <trkpt lat="44.44929" lon="5.90686">
        <ele>948.20001220703</ele>
        <time>2016-05-06T10:20:03Z</time>
      </trkpt>
      <trkpt lat="44.44917" lon="5.90705">
        <ele>947</ele>
        <time>2016-05-06T10:20:06Z</time>
      </trkpt>
      <trkpt lat="44.4491" lon="5.90717">
        <ele>947</ele>
        <time>2016-05-06T10:20:08Z</time>
      </trkpt>
      <trkpt lat="44.44894" lon="5.90739">
        <ele>947</ele>
        <time>2016-05-06T10:20:13Z</time>
      </trkpt>
      <trkpt lat="44.4489" lon="5.90742">
        <ele>947</ele>
        <time>2016-05-06T10:20:14Z</time>
      </trkpt>
      <trkpt lat="44.44876" lon="5.90743">
        <ele>947</ele>
        <time>2016-05-06T10:20:17Z</time>
      </trkpt>
      <trkpt lat="44.4486" lon="5.90737">
        <ele>947</ele>
        <time>2016-05-06T10:20:20Z</time>
      </trkpt>
      <trkpt lat="44.44854" lon="5.90735">
        <ele>946.40002441406</ele>
        <time>2016-05-06T10:20:21Z</time>
      </trkpt>
      <trkpt lat="44.44846" lon="5.90733">
        <ele>946.40002441406</ele>
        <time>2016-05-06T10:20:22Z</time>
      </trkpt>
      <trkpt lat="44.44833" lon="5.90726">
        <ele>945.40002441406</ele>
        <time>2016-05-06T10:20:24Z</time>
      </trkpt>
      <trkpt lat="44.44814" lon="5.90715">
        <ele>944.79998779297</ele>
        <time>2016-05-06T10:20:27Z</time>
      </trkpt>
      <trkpt lat="44.44809" lon="5.90712">
        <ele>944.20001220703</ele>
        <time>2016-05-06T10:20:28Z</time>
      </trkpt>
      <trkpt lat="44.44804" lon="5.90706">
        <ele>942.79998779297</ele>
        <time>2016-05-06T10:20:31Z</time>
      </trkpt>
      <trkpt lat="44.44803" lon="5.90705">
        <ele>942.20001220703</ele>
        <time>2016-05-06T10:20:34Z</time>
      </trkpt>
      <trkpt lat="44.44803" lon="5.90703">
        <ele>942.20001220703</ele>
        <time>2016-05-06T10:20:59Z</time>
      </trkpt>
      <trkpt lat="44.44803" lon="5.90701">
        <ele>942.59997558594</ele>
        <time>2016-05-06T10:21:13Z</time>
      </trkpt>
      <trkpt lat="44.44803" lon="5.90701">
        <ele>943.59997558594</ele>
        <time>2016-05-06T10:21:17Z</time>
      </trkpt>
      <trkpt lat="44.44803" lon="5.90701">
        <ele>944</ele>
        <time>2016-05-06T10:21:21Z</time>
      </trkpt>
      <trkpt lat="44.44803" lon="5.90701">
        <ele>945</ele>
        <time>2016-05-06T10:21:24Z</time>
      </trkpt>
      <trkpt lat="44.44803" lon="5.90701">
        <ele>945.59997558594</ele>
        <time>2016-05-06T10:21:27Z</time>
      </trkpt>
      <trkpt lat="44.44803" lon="5.90701">
        <ele>946</ele>
        <time>2016-05-06T10:21:31Z</time>
      </trkpt>
      <trkpt lat="44.44802" lon="5.907">
        <ele>946.59997558594</ele>
        <time>2016-05-06T10:21:34Z</time>
      </trkpt>
      <trkpt lat="44.44802" lon="5.907">
        <ele>947</ele>
        <time>2016-05-06T10:21:38Z</time>
      </trkpt>
      <trkpt lat="44.44802" lon="5.907">
        <ele>947.59997558594</ele>
        <time>2016-05-06T10:21:41Z</time>
      </trkpt>
      <trkpt lat="44.44802" lon="5.907">
        <ele>948.40002441406</ele>
        <time>2016-05-06T10:21:45Z</time>
      </trkpt>
      <trkpt lat="44.44802" lon="5.907">
        <ele>949</ele>
        <time>2016-05-06T10:21:48Z</time>
      </trkpt>
      <trkpt lat="44.44802" lon="5.907">
        <ele>949.79998779297</ele>
        <time>2016-05-06T10:21:52Z</time>
      </trkpt>
      <trkpt lat="44.44802" lon="5.907">
        <ele>950.79998779297</ele>
        <time>2016-05-06T10:21:55Z</time>
      </trkpt>
      <trkpt lat="44.44801" lon="5.907">
        <ele>951.40002441406</ele>
        <time>2016-05-06T10:21:59Z</time>
      </trkpt>
      <trkpt lat="44.44801" lon="5.90699">
        <ele>951.40002441406</ele>
        <time>2016-05-06T10:22:02Z</time>
      </trkpt>
      <trkpt lat="44.44798" lon="5.90698">
        <ele>952.20001220703</ele>
        <time>2016-05-06T10:22:09Z</time>
      </trkpt>
      <trkpt lat="44.44797" lon="5.90698">
        <ele>953</ele>
        <time>2016-05-06T10:22:13Z</time>
      </trkpt>
      <trkpt lat="44.44796" lon="5.90698">
        <ele>953.59997558594</ele>
        <time>2016-05-06T10:22:16Z</time>
      </trkpt>
      <trkpt lat="44.44796" lon="5.90698">
        <ele>954</ele>
        <time>2016-05-06T10:22:20Z</time>
      </trkpt>
      <trkpt lat="44.44795" lon="5.90699">
        <ele>954.79998779297</ele>
        <time>2016-05-06T10:22:23Z</time>
      </trkpt>
      <trkpt lat="44.44795" lon="5.907">
        <ele>955.79998779297</ele>
        <time>2016-05-06T10:22:27Z</time>
      </trkpt>
      <trkpt lat="44.44793" lon="5.90702">
        <ele>956.59997558594</ele>
        <time>2016-05-06T10:22:37Z</time>
      </trkpt>
      <trkpt lat="44.44793" lon="5.90703">
        <ele>957.40002441406</ele>
        <time>2016-05-06T10:22:40Z</time>
      </trkpt>
      <trkpt lat="44.44792" lon="5.90703">
        <ele>957.79998779297</ele>
        <time>2016-05-06T10:22:44Z</time>
      </trkpt>
      <trkpt lat="44.44791" lon="5.90705">
        <ele>958.59997558594</ele>
        <time>2016-05-06T10:22:47Z</time>
      </trkpt>
      <trkpt lat="44.44791" lon="5.90706">
        <ele>959.40002441406</ele>
        <time>2016-05-06T10:22:51Z</time>
      </trkpt>
      <trkpt lat="44.4479" lon="5.90706">
        <ele>959.79998779297</ele>
        <time>2016-05-06T10:22:54Z</time>
      </trkpt>
      <trkpt lat="44.44789" lon="5.90708">
        <ele>960.40002441406</ele>
        <time>2016-05-06T10:23:01Z</time>
      </trkpt>
      <trkpt lat="44.44788" lon="5.90708">
        <ele>961.20001220703</ele>
        <time>2016-05-06T10:23:05Z</time>
      </trkpt>
      <trkpt lat="44.44788" lon="5.90708">
        <ele>962.20001220703</ele>
        <time>2016-05-06T10:23:08Z</time>
      </trkpt>
      <trkpt lat="44.44788" lon="5.90708">
        <ele>963</ele>
        <time>2016-05-06T10:23:15Z</time>
      </trkpt>
      <trkpt lat="44.44788" lon="5.90708">
        <ele>963.79998779297</ele>
        <time>2016-05-06T10:23:19Z</time>
      </trkpt>
      <trkpt lat="44.44788" lon="5.90708">
        <ele>963.79998779297</ele>
        <time>2016-05-06T10:23:20Z</time>
      </trkpt>
      <trkpt lat="44.44788" lon="5.90708">
        <ele>964.20001220703</ele>
        <time>2016-05-06T10:23:22Z</time>
      </trkpt>
      <trkpt lat="44.44787" lon="5.9071">
        <ele>964.20001220703</ele>
        <time>2016-05-06T10:23:28Z</time>
      </trkpt>
      <trkpt lat="44.44787" lon="5.9071">
        <ele>964.79998779297</ele>
        <time>2016-05-06T10:23:29Z</time>
      </trkpt>
      <trkpt lat="44.44787" lon="5.9071">
        <ele>965.79998779297</ele>
        <time>2016-05-06T10:23:33Z</time>
      </trkpt>
      <trkpt lat="44.44787" lon="5.9071">
        <ele>966.20001220703</ele>
        <time>2016-05-06T10:23:38Z</time>
      </trkpt>
      <trkpt lat="44.44787" lon="5.9071">
        <ele>966.79998779297</ele>
        <time>2016-05-06T10:23:39Z</time>
      </trkpt>
      <trkpt lat="44.44787" lon="5.9071">
        <ele>967.59997558594</ele>
        <time>2016-05-06T10:23:46Z</time>
      </trkpt>
      <trkpt lat="44.44786" lon="5.90711">
        <ele>968.59997558594</ele>
        <time>2016-05-06T10:23:53Z</time>
      </trkpt>
      <trkpt lat="44.44786" lon="5.90711">
        <ele>968.59997558594</ele>
        <time>2016-05-06T10:23:54Z</time>
      </trkpt>
      <trkpt lat="44.44786" lon="5.90711">
        <ele>969</ele>
        <time>2016-05-06T10:23:56Z</time>
      </trkpt>
      <trkpt lat="44.44786" lon="5.90711">
        <ele>970.20001220703</ele>
        <time>2016-05-06T10:24:07Z</time>
      </trkpt>
      <trkpt lat="44.44786" lon="5.90711">
        <ele>971.20001220703</ele>
        <time>2016-05-06T10:24:11Z</time>
      </trkpt>
      <trkpt lat="44.44786" lon="5.90711">
        <ele>971.79998779297</ele>
        <time>2016-05-06T10:24:14Z</time>
      </trkpt>
      <trkpt lat="44.44786" lon="5.90711">
        <ele>972.20001220703</ele>
        <time>2016-05-06T10:24:28Z</time>
      </trkpt>
      <trkpt lat="44.44786" lon="5.90711">
        <ele>972.79998779297</ele>
        <time>2016-05-06T10:24:32Z</time>
      </trkpt>
      <trkpt lat="44.44786" lon="5.90711">
        <ele>973.40002441406</ele>
        <time>2016-05-06T10:24:35Z</time>
      </trkpt>
      <trkpt lat="44.44786" lon="5.90711">
        <ele>974.20001220703</ele>
        <time>2016-05-06T10:24:36Z</time>
      </trkpt>
      <trkpt lat="44.44786" lon="5.9071">
        <ele>974.20001220703</ele>
        <time>2016-05-06T10:24:38Z</time>
      </trkpt>
      <trkpt lat="44.44786" lon="5.9071">
        <ele>974.79998779297</ele>
        <time>2016-05-06T10:24:39Z</time>
      </trkpt>
      <trkpt lat="44.44777" lon="5.90712">
        <ele>976.20001220703</ele>
        <time>2016-05-06T10:24:43Z</time>
      </trkpt>
      <trkpt lat="44.44754" lon="5.90716">
        <ele>977</ele>
        <time>2016-05-06T10:24:50Z</time>
      </trkpt>
      <trkpt lat="44.44751" lon="5.90716">
        <ele>977</ele>
        <time>2016-05-06T10:24:51Z</time>
      </trkpt>
      <trkpt lat="44.44748" lon="5.90717">
        <ele>977.40002441406</ele>
        <time>2016-05-06T10:24:53Z</time>
      </trkpt>
      <trkpt lat="44.44746" lon="5.90718">
        <ele>977.40002441406</ele>
        <time>2016-05-06T10:24:55Z</time>
      </trkpt>
      <trkpt lat="44.44744" lon="5.90719">
        <ele>978.20001220703</ele>
        <time>2016-05-06T10:24:57Z</time>
      </trkpt>
      <trkpt lat="44.44736" lon="5.90718">
        <ele>978.20001220703</ele>
        <time>2016-05-06T10:25:02Z</time>
      </trkpt>
      <trkpt lat="44.44718" lon="5.90718">
        <ele>978.20001220703</ele>
        <time>2016-05-06T10:25:10Z</time>
      </trkpt>
      <trkpt lat="44.44708" lon="5.90717">
        <ele>978.20001220703</ele>
        <time>2016-05-06T10:25:13Z</time>
      </trkpt>
      <trkpt lat="44.44702" lon="5.90715">
        <ele>978.20001220703</ele>
        <time>2016-05-06T10:25:15Z</time>
      </trkpt>
      <trkpt lat="44.44686" lon="5.90706">
        <ele>978.20001220703</ele>
        <time>2016-05-06T10:25:22Z</time>
      </trkpt>
      <trkpt lat="44.44678" lon="5.907">
        <ele>978.59997558594</ele>
        <time>2016-05-06T10:25:27Z</time>
      </trkpt>
      <trkpt lat="44.44677" lon="5.90696">
        <ele>978.59997558594</ele>
        <time>2016-05-06T10:25:29Z</time>
      </trkpt>
      <trkpt lat="44.44675" lon="5.90694">
        <ele>979.20001220703</ele>
        <time>2016-05-06T10:25:30Z</time>
      </trkpt>
      <trkpt lat="44.44672" lon="5.9069">
        <ele>980</ele>
        <time>2016-05-06T10:25:34Z</time>
      </trkpt>
      <trkpt lat="44.4467" lon="5.90685">
        <ele>980.40002441406</ele>
        <time>2016-05-06T10:25:37Z</time>
      </trkpt>
      <trkpt lat="44.44664" lon="5.90682">
        <ele>981.40002441406</ele>
        <time>2016-05-06T10:25:43Z</time>
      </trkpt>
      <trkpt lat="44.44663" lon="5.90682">
        <ele>981.40002441406</ele>
        <time>2016-05-06T10:25:44Z</time>
      </trkpt>
      <trkpt lat="44.44661" lon="5.90682">
        <ele>982</ele>
        <time>2016-05-06T10:25:47Z</time>
      </trkpt>
      <trkpt lat="44.44659" lon="5.9068">
        <ele>983</ele>
        <time>2016-05-06T10:25:50Z</time>
      </trkpt>
      <trkpt lat="44.44657" lon="5.90679">
        <ele>983</ele>
        <time>2016-05-06T10:25:53Z</time>
      </trkpt>
      <trkpt lat="44.44655" lon="5.90677">
        <ele>983.79998779297</ele>
        <time>2016-05-06T10:25:57Z</time>
      </trkpt>
      <trkpt lat="44.44652" lon="5.90676">
        <ele>984.20001220703</ele>
        <time>2016-05-06T10:26:01Z</time>
      </trkpt>
      <trkpt lat="44.44651" lon="5.90674">
        <ele>985</ele>
        <time>2016-05-06T10:26:04Z</time>
      </trkpt>
      <trkpt lat="44.44649" lon="5.90674">
        <ele>985</ele>
        <time>2016-05-06T10:26:06Z</time>
      </trkpt>
      <trkpt lat="44.44648" lon="5.90673">
        <ele>985.59997558594</ele>
        <time>2016-05-06T10:26:08Z</time>
      </trkpt>
      <trkpt lat="44.44646" lon="5.90673">
        <ele>986.40002441406</ele>
        <time>2016-05-06T10:26:11Z</time>
      </trkpt>
      <trkpt lat="44.44643" lon="5.90673">
        <ele>986.79998779297</ele>
        <time>2016-05-06T10:26:15Z</time>
      </trkpt>
      <trkpt lat="44.44642" lon="5.90672">
        <ele>987.20001220703</ele>
        <time>2016-05-06T10:26:19Z</time>
      </trkpt>
      <trkpt lat="44.44641" lon="5.90671">
        <ele>987.20001220703</ele>
        <time>2016-05-06T10:26:20Z</time>
      </trkpt>
      <trkpt lat="44.44639" lon="5.90667">
        <ele>987.59997558594</ele>
        <time>2016-05-06T10:26:25Z</time>
      </trkpt>
      <trkpt lat="44.44639" lon="5.90666">
        <ele>988.20001220703</ele>
        <time>2016-05-06T10:26:26Z</time>
      </trkpt>
      <trkpt lat="44.44638" lon="5.90665">
        <ele>988.59997558594</ele>
        <time>2016-05-06T10:26:29Z</time>
      </trkpt>
      <trkpt lat="44.44638" lon="5.90664">
        <ele>988.59997558594</ele>
        <time>2016-05-06T10:26:30Z</time>
      </trkpt>
      <trkpt lat="44.44637" lon="5.90662">
        <ele>989</ele>
        <time>2016-05-06T10:26:32Z</time>
      </trkpt>
      <trkpt lat="44.44637" lon="5.90661">
        <ele>989.40002441406</ele>
        <time>2016-05-06T10:26:33Z</time>
      </trkpt>
      <trkpt lat="44.44636" lon="5.90659">
        <ele>990.20001220703</ele>
        <time>2016-05-06T10:26:40Z</time>
      </trkpt>
      <trkpt lat="44.44636" lon="5.90659">
        <ele>990.20001220703</ele>
        <time>2016-05-06T10:26:41Z</time>
      </trkpt>
      <trkpt lat="44.44636" lon="5.90659">
        <ele>990.59997558594</ele>
        <time>2016-05-06T10:26:43Z</time>
      </trkpt>
      <trkpt lat="44.44636" lon="5.90659">
        <ele>991</ele>
        <time>2016-05-06T10:26:46Z</time>
      </trkpt>
      <trkpt lat="44.44636" lon="5.90659">
        <ele>991.40002441406</ele>
        <time>2016-05-06T10:26:50Z</time>
      </trkpt>
      <trkpt lat="44.44633" lon="5.90651">
        <ele>991.40002441406</ele>
        <time>2016-05-06T10:27:15Z</time>
      </trkpt>
      <trkpt lat="44.44633" lon="5.9065">
        <ele>991.40002441406</ele>
        <time>2016-05-06T10:27:16Z</time>
      </trkpt>
      <trkpt lat="44.44625" lon="5.90635">
        <ele>991.40002441406</ele>
        <time>2016-05-06T10:27:30Z</time>
      </trkpt>
      <trkpt lat="44.44625" lon="5.90632">
        <ele>991.79998779297</ele>
        <time>2016-05-06T10:27:32Z</time>
      </trkpt>
      <trkpt lat="44.44624" lon="5.90631">
        <ele>992.20001220703</ele>
        <time>2016-05-06T10:27:33Z</time>
      </trkpt>
      <trkpt lat="44.44622" lon="5.90627">
        <ele>993</ele>
        <time>2016-05-06T10:27:36Z</time>
      </trkpt>
      <trkpt lat="44.44622" lon="5.90625">
        <ele>993.40002441406</ele>
        <time>2016-05-06T10:27:39Z</time>
      </trkpt>
      <trkpt lat="44.44621" lon="5.90622">
        <ele>993.40002441406</ele>
        <time>2016-05-06T10:27:42Z</time>
      </trkpt>
      <trkpt lat="44.44621" lon="5.90621">
        <ele>994</ele>
        <time>2016-05-06T10:27:43Z</time>
      </trkpt>
      <trkpt lat="44.44621" lon="5.90618">
        <ele>994.40002441406</ele>
        <time>2016-05-06T10:27:46Z</time>
      </trkpt>
      <trkpt lat="44.4462" lon="5.90614">
        <ele>995.20001220703</ele>
        <time>2016-05-06T10:27:50Z</time>
      </trkpt>
      <trkpt lat="44.44619" lon="5.90612">
        <ele>995.59997558594</ele>
        <time>2016-05-06T10:27:53Z</time>
      </trkpt>
      <trkpt lat="44.44618" lon="5.90609">
        <ele>995.59997558594</ele>
        <time>2016-05-06T10:27:56Z</time>
      </trkpt>
      <trkpt lat="44.44617" lon="5.90608">
        <ele>996.59997558594</ele>
        <time>2016-05-06T10:27:57Z</time>
      </trkpt>
      <trkpt lat="44.44616" lon="5.90606">
        <ele>997</ele>
        <time>2016-05-06T10:28:00Z</time>
      </trkpt>
      <trkpt lat="44.44613" lon="5.90603">
        <ele>998</ele>
        <time>2016-05-06T10:28:04Z</time>
      </trkpt>
      <trkpt lat="44.44611" lon="5.90601">
        <ele>998.40002441406</ele>
        <time>2016-05-06T10:28:07Z</time>
      </trkpt>
      <trkpt lat="44.44611" lon="5.90601">
        <ele>998.40002441406</ele>
        <time>2016-05-06T10:28:08Z</time>
      </trkpt>
      <trkpt lat="44.44609" lon="5.90598">
        <ele>999.40002441406</ele>
        <time>2016-05-06T10:28:11Z</time>
      </trkpt>
      <trkpt lat="44.44608" lon="5.90596">
        <ele>999.79998779297</ele>
        <time>2016-05-06T10:28:14Z</time>
      </trkpt>
      <trkpt lat="44.44607" lon="5.90593">
        <ele>1000.200012207</ele>
        <time>2016-05-06T10:28:18Z</time>
      </trkpt>
      <trkpt lat="44.44606" lon="5.90592">
        <ele>1000.200012207</ele>
        <time>2016-05-06T10:28:20Z</time>
      </trkpt>
      <trkpt lat="44.44606" lon="5.90592">
        <ele>1000.799987793</ele>
        <time>2016-05-06T10:28:21Z</time>
      </trkpt>
      <trkpt lat="44.44604" lon="5.9059">
        <ele>1001.5999755859</ele>
        <time>2016-05-06T10:28:25Z</time>
      </trkpt>
      <trkpt lat="44.44603" lon="5.90589">
        <ele>1002</ele>
        <time>2016-05-06T10:28:28Z</time>
      </trkpt>
      <trkpt lat="44.44602" lon="5.90588">
        <ele>1002</ele>
        <time>2016-05-06T10:28:30Z</time>
      </trkpt>
      <trkpt lat="44.44601" lon="5.90587">
        <ele>1002.4000244141</ele>
        <time>2016-05-06T10:28:32Z</time>
      </trkpt>
      <trkpt lat="44.44596" lon="5.90584">
        <ele>1003.4000244141</ele>
        <time>2016-05-06T10:28:39Z</time>
      </trkpt>
      <trkpt lat="44.44596" lon="5.90582">
        <ele>1003.799987793</ele>
        <time>2016-05-06T10:28:42Z</time>
      </trkpt>
      <trkpt lat="44.44595" lon="5.90582">
        <ele>1003.799987793</ele>
        <time>2016-05-06T10:28:43Z</time>
      </trkpt>
      <trkpt lat="44.44595" lon="5.90581">
        <ele>1004.5999755859</ele>
        <time>2016-05-06T10:28:46Z</time>
      </trkpt>
      <trkpt lat="44.44593" lon="5.90577">
        <ele>1004.5999755859</ele>
        <time>2016-05-06T10:28:55Z</time>
      </trkpt>
      <trkpt lat="44.44592" lon="5.90576">
        <ele>1005</ele>
        <time>2016-05-06T10:28:56Z</time>
      </trkpt>
      <trkpt lat="44.44591" lon="5.90574">
        <ele>1005.4000244141</ele>
        <time>2016-05-06T10:29:00Z</time>
      </trkpt>
      <trkpt lat="44.44591" lon="5.90572">
        <ele>1006</ele>
        <time>2016-05-06T10:29:03Z</time>
      </trkpt>
      <trkpt lat="44.44591" lon="5.90571">
        <ele>1006</ele>
        <time>2016-05-06T10:29:04Z</time>
      </trkpt>
      <trkpt lat="44.4459" lon="5.90569">
        <ele>1006.799987793</ele>
        <time>2016-05-06T10:29:07Z</time>
      </trkpt>
      <trkpt lat="44.44588" lon="5.90567">
        <ele>1007.200012207</ele>
        <time>2016-05-06T10:29:11Z</time>
      </trkpt>
      <trkpt lat="44.44588" lon="5.90567">
        <ele>1007.200012207</ele>
        <time>2016-05-06T10:29:12Z</time>
      </trkpt>
      <trkpt lat="44.44587" lon="5.90566">
        <ele>1008</ele>
        <time>2016-05-06T10:29:14Z</time>
      </trkpt>
      <trkpt lat="44.44585" lon="5.90566">
        <ele>1009</ele>
        <time>2016-05-06T10:29:17Z</time>
      </trkpt>
      <trkpt lat="44.44584" lon="5.90565">
        <ele>1009</ele>
        <time>2016-05-06T10:29:22Z</time>
      </trkpt>
      <trkpt lat="44.44584" lon="5.90566">
        <ele>1009.799987793</ele>
        <time>2016-05-06T10:29:38Z</time>
      </trkpt>
      <trkpt lat="44.44583" lon="5.90566">
        <ele>1009.799987793</ele>
        <time>2016-05-06T10:29:41Z</time>
      </trkpt>
      <trkpt lat="44.44583" lon="5.90566">
        <ele>1010.5999755859</ele>
        <time>2016-05-06T10:29:42Z</time>
      </trkpt>
      <trkpt lat="44.44581" lon="5.90564">
        <ele>1011</ele>
        <time>2016-05-06T10:29:45Z</time>
      </trkpt>
      <trkpt lat="44.44579" lon="5.90563">
        <ele>1011.4000244141</ele>
        <time>2016-05-06T10:29:49Z</time>
      </trkpt>
      <trkpt lat="44.44578" lon="5.90562">
        <ele>1012</ele>
        <time>2016-05-06T10:29:52Z</time>
      </trkpt>
      <trkpt lat="44.44577" lon="5.90562">
        <ele>1012</ele>
        <time>2016-05-06T10:29:54Z</time>
      </trkpt>
      <trkpt lat="44.44576" lon="5.90561">
        <ele>1012.799987793</ele>
        <time>2016-05-06T10:29:56Z</time>
      </trkpt>
      <trkpt lat="44.44575" lon="5.90561">
        <ele>1013.200012207</ele>
        <time>2016-05-06T10:29:59Z</time>
      </trkpt>
      <trkpt lat="44.44573" lon="5.90561">
        <ele>1013.200012207</ele>
        <time>2016-05-06T10:30:02Z</time>
      </trkpt>
      <trkpt lat="44.44573" lon="5.90561">
        <ele>1014</ele>
        <time>2016-05-06T10:30:03Z</time>
      </trkpt>
      <trkpt lat="44.44571" lon="5.9056">
        <ele>1015</ele>
        <time>2016-05-06T10:30:07Z</time>
      </trkpt>
      <trkpt lat="44.44571" lon="5.9056">
        <ele>1015</ele>
        <time>2016-05-06T10:30:08Z</time>
      </trkpt>
      <trkpt lat="44.44571" lon="5.9056">
        <ele>1015.4000244141</ele>
        <time>2016-05-06T10:30:10Z</time>
      </trkpt>
      <trkpt lat="44.44569" lon="5.90558">
        <ele>1015.799987793</ele>
        <time>2016-05-06T10:30:17Z</time>
      </trkpt>
      <trkpt lat="44.44567" lon="5.90557">
        <ele>1015.799987793</ele>
        <time>2016-05-06T10:30:20Z</time>
      </trkpt>
      <trkpt lat="44.44567" lon="5.90557">
        <ele>1016.5999755859</ele>
        <time>2016-05-06T10:30:21Z</time>
      </trkpt>
      <trkpt lat="44.44566" lon="5.90556">
        <ele>1017.200012207</ele>
        <time>2016-05-06T10:30:24Z</time>
      </trkpt>
      <trkpt lat="44.44564" lon="5.90556">
        <ele>1018.200012207</ele>
        <time>2016-05-06T10:30:28Z</time>
      </trkpt>
      <trkpt lat="44.44563" lon="5.90555">
        <ele>1018.200012207</ele>
        <time>2016-05-06T10:30:30Z</time>
      </trkpt>
      <trkpt lat="44.44563" lon="5.90555">
        <ele>1018.5999755859</ele>
        <time>2016-05-06T10:30:31Z</time>
      </trkpt>
      <trkpt lat="44.44561" lon="5.90555">
        <ele>1019.5999755859</ele>
        <time>2016-05-06T10:30:35Z</time>
      </trkpt>
      <trkpt lat="44.4456" lon="5.90555">
        <ele>1020.200012207</ele>
        <time>2016-05-06T10:30:38Z</time>
      </trkpt>
      <trkpt lat="44.44558" lon="5.90554">
        <ele>1021</ele>
        <time>2016-05-06T10:30:42Z</time>
      </trkpt>
      <trkpt lat="44.44557" lon="5.90553">
        <ele>1021.4000244141</ele>
        <time>2016-05-06T10:30:45Z</time>
      </trkpt>
      <trkpt lat="44.44555" lon="5.90552">
        <ele>1022</ele>
        <time>2016-05-06T10:30:48Z</time>
      </trkpt>
      <trkpt lat="44.44555" lon="5.90551">
        <ele>1022</ele>
        <time>2016-05-06T10:30:49Z</time>
      </trkpt>
      <trkpt lat="44.44552" lon="5.90549">
        <ele>1022.799987793</ele>
        <time>2016-05-06T10:30:56Z</time>
      </trkpt>
      <trkpt lat="44.4455" lon="5.90548">
        <ele>1023.200012207</ele>
        <time>2016-05-06T10:30:59Z</time>
      </trkpt>
      <trkpt lat="44.44548" lon="5.90547">
        <ele>1024.1999511719</ele>
        <time>2016-05-06T10:31:03Z</time>
      </trkpt>
      <trkpt lat="44.44547" lon="5.90546">
        <ele>1024.5999755859</ele>
        <time>2016-05-06T10:31:06Z</time>
      </trkpt>
      <trkpt lat="44.44547" lon="5.90545">
        <ele>1024.5999755859</ele>
        <time>2016-05-06T10:31:07Z</time>
      </trkpt>
      <trkpt lat="44.44546" lon="5.90544">
        <ele>1025.4000244141</ele>
        <time>2016-05-06T10:31:10Z</time>
      </trkpt>
      <trkpt lat="44.44545" lon="5.90543">
        <ele>1026.1999511719</ele>
        <time>2016-05-06T10:31:13Z</time>
      </trkpt>
      <trkpt lat="44.44543" lon="5.90542">
        <ele>1027</ele>
        <time>2016-05-06T10:31:17Z</time>
      </trkpt>
      <trkpt lat="44.44542" lon="5.9054">
        <ele>1028</ele>
        <time>2016-05-06T10:31:20Z</time>
      </trkpt>
      <trkpt lat="44.4454" lon="5.90539">
        <ele>1028.4000244141</ele>
        <time>2016-05-06T10:31:24Z</time>
      </trkpt>
      <trkpt lat="44.4454" lon="5.90539">
        <ele>1028.4000244141</ele>
        <time>2016-05-06T10:31:25Z</time>
      </trkpt>
      <trkpt lat="44.44536" lon="5.90538">
        <ele>1028.8000488281</ele>
        <time>2016-05-06T10:31:34Z</time>
      </trkpt>
      <trkpt lat="44.44534" lon="5.90536">
        <ele>1029.1999511719</ele>
        <time>2016-05-06T10:31:38Z</time>
      </trkpt>
      <trkpt lat="44.44533" lon="5.90535">
        <ele>1029.1999511719</ele>
        <time>2016-05-06T10:31:41Z</time>
      </trkpt>
      <trkpt lat="44.44532" lon="5.90533">
        <ele>1030.5999755859</ele>
        <time>2016-05-06T10:31:45Z</time>
      </trkpt>
      <trkpt lat="44.44532" lon="5.90532">
        <ele>1031.1999511719</ele>
        <time>2016-05-06T10:31:46Z</time>
      </trkpt>
      <trkpt lat="44.4453" lon="5.9053">
        <ele>1031.5999755859</ele>
        <time>2016-05-06T10:31:50Z</time>
      </trkpt>
      <trkpt lat="44.44529" lon="5.90529">
        <ele>1032.8000488281</ele>
        <time>2016-05-06T10:31:53Z</time>
      </trkpt>
      <trkpt lat="44.44527" lon="5.90527">
        <ele>1033.1999511719</ele>
        <time>2016-05-06T10:32:00Z</time>
      </trkpt>
      <trkpt lat="44.44527" lon="5.90526">
        <ele>1033.1999511719</ele>
        <time>2016-05-06T10:32:01Z</time>
      </trkpt>
      <trkpt lat="44.44527" lon="5.90525">
        <ele>1033.5999755859</ele>
        <time>2016-05-06T10:32:03Z</time>
      </trkpt>
      <trkpt lat="44.44526" lon="5.90523">
        <ele>1034</ele>
        <time>2016-05-06T10:32:07Z</time>
      </trkpt>
      <trkpt lat="44.44525" lon="5.90521">
        <ele>1035</ele>
        <time>2016-05-06T10:32:10Z</time>
      </trkpt>
      <trkpt lat="44.44524" lon="5.9052">
        <ele>1035</ele>
        <time>2016-05-06T10:32:13Z</time>
      </trkpt>
      <trkpt lat="44.44524" lon="5.9052">
        <ele>1035.4000244141</ele>
        <time>2016-05-06T10:32:14Z</time>
      </trkpt>
      <trkpt lat="44.44523" lon="5.90518">
        <ele>1036.1999511719</ele>
        <time>2016-05-06T10:32:17Z</time>
      </trkpt>
      <trkpt lat="44.44522" lon="5.90516">
        <ele>1036.5999755859</ele>
        <time>2016-05-06T10:32:21Z</time>
      </trkpt>
      <trkpt lat="44.44522" lon="5.90514">
        <ele>1037.5999755859</ele>
        <time>2016-05-06T10:32:24Z</time>
      </trkpt>
      <trkpt lat="44.44522" lon="5.90511">
        <ele>1038</ele>
        <time>2016-05-06T10:32:28Z</time>
      </trkpt>
      <trkpt lat="44.44521" lon="5.90509">
        <ele>1038.4000244141</ele>
        <time>2016-05-06T10:32:31Z</time>
      </trkpt>
      <trkpt lat="44.44521" lon="5.90508">
        <ele>1038.8000488281</ele>
        <time>2016-05-06T10:32:32Z</time>
      </trkpt>
      <trkpt lat="44.44521" lon="5.90506">
        <ele>1039.1999511719</ele>
        <time>2016-05-06T10:32:35Z</time>
      </trkpt>
      <trkpt lat="44.44519" lon="5.905">
        <ele>1039.1999511719</ele>
        <time>2016-05-06T10:32:44Z</time>
      </trkpt>
      <trkpt lat="44.44519" lon="5.905">
        <ele>1039.5999755859</ele>
        <time>2016-05-06T10:32:45Z</time>
      </trkpt>
      <trkpt lat="44.44519" lon="5.90499">
        <ele>1040</ele>
        <time>2016-05-06T10:32:46Z</time>
      </trkpt>
      <trkpt lat="44.44519" lon="5.90497">
        <ele>1041</ele>
        <time>2016-05-06T10:32:49Z</time>
      </trkpt>
      <trkpt lat="44.44518" lon="5.90495">
        <ele>1041.4000244141</ele>
        <time>2016-05-06T10:32:52Z</time>
      </trkpt>
      <trkpt lat="44.44518" lon="5.90491">
        <ele>1041.8000488281</ele>
        <time>2016-05-06T10:32:59Z</time>
      </trkpt>
      <trkpt lat="44.44518" lon="5.9049">
        <ele>1042.1999511719</ele>
        <time>2016-05-06T10:33:00Z</time>
      </trkpt>
      <trkpt lat="44.44518" lon="5.90488">
        <ele>1042.1999511719</ele>
        <time>2016-05-06T10:33:02Z</time>
      </trkpt>
      <trkpt lat="44.44518" lon="5.90487">
        <ele>1043.1999511719</ele>
        <time>2016-05-06T10:33:03Z</time>
      </trkpt>
      <trkpt lat="44.44518" lon="5.90485">
        <ele>1043.5999755859</ele>
        <time>2016-05-06T10:33:06Z</time>
      </trkpt>
      <trkpt lat="44.44519" lon="5.90479">
        <ele>1043.5999755859</ele>
        <time>2016-05-06T10:33:16Z</time>
      </trkpt>
      <trkpt lat="44.44519" lon="5.90478">
        <ele>1044</ele>
        <time>2016-05-06T10:33:17Z</time>
      </trkpt>
      <trkpt lat="44.44519" lon="5.90476">
        <ele>1044.4000244141</ele>
        <time>2016-05-06T10:33:20Z</time>
      </trkpt>
      <trkpt lat="44.44518" lon="5.90473">
        <ele>1045.1999511719</ele>
        <time>2016-05-06T10:33:24Z</time>
      </trkpt>
      <trkpt lat="44.44517" lon="5.90471">
        <ele>1045.5999755859</ele>
        <time>2016-05-06T10:33:27Z</time>
      </trkpt>
      <trkpt lat="44.44516" lon="5.90471">
        <ele>1045.5999755859</ele>
        <time>2016-05-06T10:33:28Z</time>
      </trkpt>
      <trkpt lat="44.44516" lon="5.90469">
        <ele>1046.5999755859</ele>
        <time>2016-05-06T10:33:31Z</time>
      </trkpt>
      <trkpt lat="44.44514" lon="5.9047">
        <ele>1047</ele>
        <time>2016-05-06T10:33:34Z</time>
      </trkpt>
      <trkpt lat="44.44511" lon="5.9047">
        <ele>1048</ele>
        <time>2016-05-06T10:33:38Z</time>
      </trkpt>
      <trkpt lat="44.44511" lon="5.9047">
        <ele>1048</ele>
        <time>2016-05-06T10:33:39Z</time>
      </trkpt>
      <trkpt lat="44.44507" lon="5.90468">
        <ele>1048.4000244141</ele>
        <time>2016-05-06T10:33:45Z</time>
      </trkpt>
      <trkpt lat="44.44505" lon="5.90468">
        <ele>1048.8000488281</ele>
        <time>2016-05-06T10:33:48Z</time>
      </trkpt>
      <trkpt lat="44.44504" lon="5.90468">
        <ele>1048.8000488281</ele>
        <time>2016-05-06T10:33:50Z</time>
      </trkpt>
      <trkpt lat="44.44503" lon="5.90468">
        <ele>1049.8000488281</ele>
        <time>2016-05-06T10:33:52Z</time>
      </trkpt>
      <trkpt lat="44.44501" lon="5.90469">
        <ele>1050.1999511719</ele>
        <time>2016-05-06T10:33:55Z</time>
      </trkpt>
      <trkpt lat="44.445" lon="5.90469">
        <ele>1050.1999511719</ele>
        <time>2016-05-06T10:34:00Z</time>
      </trkpt>
      <trkpt lat="44.44499" lon="5.90469">
        <ele>1050.8000488281</ele>
        <time>2016-05-06T10:34:02Z</time>
      </trkpt>
      <trkpt lat="44.44498" lon="5.90471">
        <ele>1051.8000488281</ele>
        <time>2016-05-06T10:34:06Z</time>
      </trkpt>
      <trkpt lat="44.44497" lon="5.90471">
        <ele>1051.8000488281</ele>
        <time>2016-05-06T10:34:07Z</time>
      </trkpt>
      <trkpt lat="44.44496" lon="5.90472">
        <ele>1052.4000244141</ele>
        <time>2016-05-06T10:34:10Z</time>
      </trkpt>
      <trkpt lat="44.44495" lon="5.90472">
        <ele>1053.4000244141</ele>
        <time>2016-05-06T10:34:13Z</time>
      </trkpt>
      <trkpt lat="44.44493" lon="5.90472">
        <ele>1053.4000244141</ele>
        <time>2016-05-06T10:34:16Z</time>
      </trkpt>
      <trkpt lat="44.44493" lon="5.90472">
        <ele>1054</ele>
        <time>2016-05-06T10:34:17Z</time>
      </trkpt>
      <trkpt lat="44.44491" lon="5.90471">
        <ele>1054.8000488281</ele>
        <time>2016-05-06T10:34:20Z</time>
      </trkpt>
      <trkpt lat="44.44489" lon="5.90471">
        <ele>1055.8000488281</ele>
        <time>2016-05-06T10:34:24Z</time>
      </trkpt>
      <trkpt lat="44.44489" lon="5.90471">
        <ele>1055.8000488281</ele>
        <time>2016-05-06T10:34:25Z</time>
      </trkpt>
      <trkpt lat="44.44488" lon="5.9047">
        <ele>1056.5999755859</ele>
        <time>2016-05-06T10:34:27Z</time>
      </trkpt>
      <trkpt lat="44.44486" lon="5.9047">
        <ele>1057</ele>
        <time>2016-05-06T10:34:31Z</time>
      </trkpt>
      <trkpt lat="44.44485" lon="5.90469">
        <ele>1057.4000244141</ele>
        <time>2016-05-06T10:34:34Z</time>
      </trkpt>
      <trkpt lat="44.44484" lon="5.90468">
        <ele>1057.4000244141</ele>
        <time>2016-05-06T10:34:38Z</time>
      </trkpt>
      <trkpt lat="44.44482" lon="5.90466">
        <ele>1057.8000488281</ele>
        <time>2016-05-06T10:34:41Z</time>
      </trkpt>
      <trkpt lat="44.44481" lon="5.90465">
        <ele>1058.1999511719</ele>
        <time>2016-05-06T10:34:45Z</time>
      </trkpt>
      <trkpt lat="44.4448" lon="5.90464">
        <ele>1058.1999511719</ele>
        <time>2016-05-06T10:34:47Z</time>
      </trkpt>
      <trkpt lat="44.4448" lon="5.90464">
        <ele>1059</ele>
        <time>2016-05-06T10:34:48Z</time>
      </trkpt>
      <trkpt lat="44.44478" lon="5.90462">
        <ele>1059.4000244141</ele>
        <time>2016-05-06T10:34:52Z</time>
      </trkpt>
      <trkpt lat="44.44477" lon="5.90461">
        <ele>1060.4000244141</ele>
        <time>2016-05-06T10:34:55Z</time>
      </trkpt>
      <trkpt lat="44.44476" lon="5.9046">
        <ele>1060.4000244141</ele>
        <time>2016-05-06T10:34:56Z</time>
      </trkpt>
      <trkpt lat="44.44475" lon="5.90459">
        <ele>1061</ele>
        <time>2016-05-06T10:34:59Z</time>
      </trkpt>
      <trkpt lat="44.44473" lon="5.90458">
        <ele>1061.4000244141</ele>
        <time>2016-05-06T10:35:02Z</time>
      </trkpt>
      <trkpt lat="44.44472" lon="5.90458">
        <ele>1061.4000244141</ele>
        <time>2016-05-06T10:35:04Z</time>
      </trkpt>
      <trkpt lat="44.44472" lon="5.90457">
        <ele>1062</ele>
        <time>2016-05-06T10:35:06Z</time>
      </trkpt>
      <trkpt lat="44.4447" lon="5.90456">
        <ele>1062.8000488281</ele>
        <time>2016-05-06T10:35:09Z</time>
      </trkpt>
      <trkpt lat="44.44469" lon="5.90455">
        <ele>1062.8000488281</ele>
        <time>2016-05-06T10:35:11Z</time>
      </trkpt>
      <trkpt lat="44.44468" lon="5.90455">
        <ele>1063.1999511719</ele>
        <time>2016-05-06T10:35:13Z</time>
      </trkpt>
      <trkpt lat="44.44467" lon="5.90453">
        <ele>1063.8000488281</ele>
        <time>2016-05-06T10:35:16Z</time>
      </trkpt>
      <trkpt lat="44.44466" lon="5.90452">
        <ele>1063.8000488281</ele>
        <time>2016-05-06T10:35:19Z</time>
      </trkpt>
      <trkpt lat="44.44465" lon="5.90451">
        <ele>1064.5999755859</ele>
        <time>2016-05-06T10:35:20Z</time>
      </trkpt>
      <trkpt lat="44.44463" lon="5.90451">
        <ele>1065.4000244141</ele>
        <time>2016-05-06T10:35:23Z</time>
      </trkpt>
      <trkpt lat="44.44462" lon="5.9045">
        <ele>1065.8000488281</ele>
        <time>2016-05-06T10:35:27Z</time>
      </trkpt>
      <trkpt lat="44.44461" lon="5.9045">
        <ele>1065.8000488281</ele>
        <time>2016-05-06T10:35:28Z</time>
      </trkpt>
      <trkpt lat="44.4446" lon="5.9045">
        <ele>1065.8000488281</ele>
        <time>2016-05-06T10:35:30Z</time>
      </trkpt>
      <trkpt lat="44.44457" lon="5.90447">
        <ele>1065.8000488281</ele>
        <time>2016-05-06T10:35:36Z</time>
      </trkpt>
      <trkpt lat="44.44456" lon="5.90447">
        <ele>1066.1999511719</ele>
        <time>2016-05-06T10:35:37Z</time>
      </trkpt>
      <trkpt lat="44.44454" lon="5.90446">
        <ele>1067.1999511719</ele>
        <time>2016-05-06T10:35:41Z</time>
      </trkpt>
      <trkpt lat="44.44452" lon="5.90445">
        <ele>1068.1999511719</ele>
        <time>2016-05-06T10:35:44Z</time>
      </trkpt>
      <trkpt lat="44.44451" lon="5.90445">
        <ele>1068.1999511719</ele>
        <time>2016-05-06T10:35:46Z</time>
      </trkpt>
      <trkpt lat="44.44445" lon="5.90447">
        <ele>1068.1999511719</ele>
        <time>2016-05-06T10:35:56Z</time>
      </trkpt>
      <trkpt lat="44.44443" lon="5.90445">
        <ele>1069.1999511719</ele>
        <time>2016-05-06T10:35:59Z</time>
      </trkpt>
      <trkpt lat="44.44442" lon="5.90444">
        <ele>1070</ele>
        <time>2016-05-06T10:36:02Z</time>
      </trkpt>
      <trkpt lat="44.44439" lon="5.90443">
        <ele>1070.4000244141</ele>
        <time>2016-05-06T10:36:06Z</time>
      </trkpt>
      <trkpt lat="44.44435" lon="5.90441">
        <ele>1070.8000488281</ele>
        <time>2016-05-06T10:36:13Z</time>
      </trkpt>
      <trkpt lat="44.44433" lon="5.9044">
        <ele>1071.8000488281</ele>
        <time>2016-05-06T10:36:16Z</time>
      </trkpt>
      <trkpt lat="44.44431" lon="5.90438">
        <ele>1072.5999755859</ele>
        <time>2016-05-06T10:36:20Z</time>
      </trkpt>
      <trkpt lat="44.44426" lon="5.90432">
        <ele>1073</ele>
        <time>2016-05-06T10:36:28Z</time>
      </trkpt>
      <trkpt lat="44.44426" lon="5.90432">
        <ele>1073</ele>
        <time>2016-05-06T10:36:29Z</time>
      </trkpt>
      <trkpt lat="44.44425" lon="5.90431">
        <ele>1073.8000488281</ele>
        <time>2016-05-06T10:36:31Z</time>
      </trkpt>
      <trkpt lat="44.44423" lon="5.90427">
        <ele>1074.4000244141</ele>
        <time>2016-05-06T10:36:35Z</time>
      </trkpt>
      <trkpt lat="44.44422" lon="5.90425">
        <ele>1074.8000488281</ele>
        <time>2016-05-06T10:36:38Z</time>
      </trkpt>
      <trkpt lat="44.44421" lon="5.90425">
        <ele>1074.8000488281</ele>
        <time>2016-05-06T10:36:39Z</time>
      </trkpt>
      <trkpt lat="44.44419" lon="5.90419">
        <ele>1075.1999511719</ele>
        <time>2016-05-06T10:36:46Z</time>
      </trkpt>
      <trkpt lat="44.44419" lon="5.90418">
        <ele>1075.1999511719</ele>
        <time>2016-05-06T10:36:47Z</time>
      </trkpt>
      <trkpt lat="44.44418" lon="5.90417">
        <ele>1075.5999755859</ele>
        <time>2016-05-06T10:36:49Z</time>
      </trkpt>
      <trkpt lat="44.44417" lon="5.90415">
        <ele>1076.4000244141</ele>
        <time>2016-05-06T10:36:52Z</time>
      </trkpt>
      <trkpt lat="44.44415" lon="5.90412">
        <ele>1076.8000488281</ele>
        <time>2016-05-06T10:36:56Z</time>
      </trkpt>
      <trkpt lat="44.44412" lon="5.90406">
        <ele>1077.1999511719</ele>
        <time>2016-05-06T10:37:03Z</time>
      </trkpt>
      <trkpt lat="44.44411" lon="5.90404">
        <ele>1077.1999511719</ele>
        <time>2016-05-06T10:37:05Z</time>
      </trkpt>
      <trkpt lat="44.44411" lon="5.90403">
        <ele>1077.5999755859</ele>
        <time>2016-05-06T10:37:06Z</time>
      </trkpt>
      <trkpt lat="44.44411" lon="5.90402">
        <ele>1078</ele>
        <time>2016-05-06T10:37:07Z</time>
      </trkpt>
      <trkpt lat="44.4441" lon="5.90398">
        <ele>1078.5999755859</ele>
        <time>2016-05-06T10:37:10Z</time>
      </trkpt>
      <trkpt lat="44.4441" lon="5.90394">
        <ele>1079</ele>
        <time>2016-05-06T10:37:13Z</time>
      </trkpt>
      <trkpt lat="44.44411" lon="5.90392">
        <ele>1079</ele>
        <time>2016-05-06T10:37:16Z</time>
      </trkpt>
      <trkpt lat="44.44408" lon="5.90381">
        <ele>1079</ele>
        <time>2016-05-06T10:37:27Z</time>
      </trkpt>
      <trkpt lat="44.44408" lon="5.9038">
        <ele>1079.4000244141</ele>
        <time>2016-05-06T10:37:28Z</time>
      </trkpt>
      <trkpt lat="44.44407" lon="5.90377">
        <ele>1079.8000488281</ele>
        <time>2016-05-06T10:37:31Z</time>
      </trkpt>
      <trkpt lat="44.44406" lon="5.90375">
        <ele>1080.1999511719</ele>
        <time>2016-05-06T10:37:34Z</time>
      </trkpt>
      <trkpt lat="44.44406" lon="5.90375">
        <ele>1080.5999755859</ele>
        <time>2016-05-06T10:37:35Z</time>
      </trkpt>
      <trkpt lat="44.44405" lon="5.90373">
        <ele>1080.5999755859</ele>
        <time>2016-05-06T10:37:37Z</time>
      </trkpt>
      <trkpt lat="44.44405" lon="5.90371">
        <ele>1081</ele>
        <time>2016-05-06T10:37:38Z</time>
      </trkpt>
      <trkpt lat="44.44403" lon="5.90365">
        <ele>1081.4000244141</ele>
        <time>2016-05-06T10:37:45Z</time>
      </trkpt>
      <trkpt lat="44.44402" lon="5.90363">
        <ele>1081.8000488281</ele>
        <time>2016-05-06T10:37:48Z</time>
      </trkpt>
      <trkpt lat="44.44402" lon="5.90362">
        <ele>1082.1999511719</ele>
        <time>2016-05-06T10:37:49Z</time>
      </trkpt>
      <trkpt lat="44.44402" lon="5.9036">
        <ele>1082.5999755859</ele>
        <time>2016-05-06T10:37:52Z</time>
      </trkpt>
      <trkpt lat="44.44401" lon="5.90359">
        <ele>1083</ele>
        <time>2016-05-06T10:37:55Z</time>
      </trkpt>
      <trkpt lat="44.44401" lon="5.90359">
        <ele>1083</ele>
        <time>2016-05-06T10:37:57Z</time>
      </trkpt>
      <trkpt lat="44.44397" lon="5.90354">
        <ele>1083</ele>
        <time>2016-05-06T10:38:09Z</time>
      </trkpt>
      <trkpt lat="44.44395" lon="5.9035">
        <ele>1084</ele>
        <time>2016-05-06T10:38:13Z</time>
      </trkpt>
      <trkpt lat="44.44395" lon="5.9035">
        <ele>1084.4000244141</ele>
        <time>2016-05-06T10:38:16Z</time>
      </trkpt>
      <trkpt lat="44.44395" lon="5.9035">
        <ele>1084.8000488281</ele>
        <time>2016-05-06T10:38:17Z</time>
      </trkpt>
      <trkpt lat="44.44394" lon="5.90349">
        <ele>1085.4000244141</ele>
        <time>2016-05-06T10:38:20Z</time>
      </trkpt>
      <trkpt lat="44.44389" lon="5.90341">
        <ele>1085.8000488281</ele>
        <time>2016-05-06T10:38:30Z</time>
      </trkpt>
      <trkpt lat="44.44389" lon="5.9034">
        <ele>1086.4000244141</ele>
        <time>2016-05-06T10:38:31Z</time>
      </trkpt>
      <trkpt lat="44.44388" lon="5.90339">
        <ele>1086.4000244141</ele>
        <time>2016-05-06T10:38:32Z</time>
      </trkpt>
      <trkpt lat="44.44387" lon="5.90338">
        <ele>1087.4000244141</ele>
        <time>2016-05-06T10:38:34Z</time>
      </trkpt>
      <trkpt lat="44.44386" lon="5.90335">
        <ele>1088</ele>
        <time>2016-05-06T10:38:37Z</time>
      </trkpt>
      <trkpt lat="44.44383" lon="5.9033">
        <ele>1088</ele>
        <time>2016-05-06T10:38:43Z</time>
      </trkpt>
      <trkpt lat="44.44383" lon="5.90329">
        <ele>1088.4000244141</ele>
        <time>2016-05-06T10:38:44Z</time>
      </trkpt>
      <trkpt lat="44.44383" lon="5.90328">
        <ele>1088.8000488281</ele>
        <time>2016-05-06T10:38:45Z</time>
      </trkpt>
      <trkpt lat="44.44382" lon="5.90326">
        <ele>1089.5999755859</ele>
        <time>2016-05-06T10:38:48Z</time>
      </trkpt>
      <trkpt lat="44.44381" lon="5.90323">
        <ele>1090.1999511719</ele>
        <time>2016-05-06T10:38:51Z</time>
      </trkpt>
      <trkpt lat="44.4438" lon="5.9032">
        <ele>1090.1999511719</ele>
        <time>2016-05-06T10:38:55Z</time>
      </trkpt>
      <trkpt lat="44.44379" lon="5.90318">
        <ele>1090.5999755859</ele>
        <time>2016-05-06T10:38:58Z</time>
      </trkpt>
      <trkpt lat="44.44379" lon="5.90316">
        <ele>1091.4000244141</ele>
        <time>2016-05-06T10:39:01Z</time>
      </trkpt>
      <trkpt lat="44.44378" lon="5.9031">
        <ele>1091.4000244141</ele>
        <time>2016-05-06T10:39:07Z</time>
      </trkpt>
      <trkpt lat="44.44376" lon="5.90309">
        <ele>1092</ele>
        <time>2016-05-06T10:39:09Z</time>
      </trkpt>
      <trkpt lat="44.44376" lon="5.90307">
        <ele>1092.8000488281</ele>
        <time>2016-05-06T10:39:12Z</time>
      </trkpt>
      <trkpt lat="44.44374" lon="5.90304">
        <ele>1093.1999511719</ele>
        <time>2016-05-06T10:39:15Z</time>
      </trkpt>
      <trkpt lat="44.44374" lon="5.90301">
        <ele>1094</ele>
        <time>2016-05-06T10:39:19Z</time>
      </trkpt>
      <trkpt lat="44.44373" lon="5.90298">
        <ele>1094.4000244141</ele>
        <time>2016-05-06T10:39:22Z</time>
      </trkpt>
      <trkpt lat="44.4437" lon="5.90293">
        <ele>1094.8000488281</ele>
        <time>2016-05-06T10:39:29Z</time>
      </trkpt>
      <trkpt lat="44.44369" lon="5.90291">
        <ele>1095.8000488281</ele>
        <time>2016-05-06T10:39:32Z</time>
      </trkpt>
      <trkpt lat="44.44368" lon="5.90289">
        <ele>1096.1999511719</ele>
        <time>2016-05-06T10:39:36Z</time>
      </trkpt>
      <trkpt lat="44.44367" lon="5.90287">
        <ele>1096.8000488281</ele>
        <time>2016-05-06T10:39:39Z</time>
      </trkpt>
      <trkpt lat="44.44366" lon="5.90285">
        <ele>1097.1999511719</ele>
        <time>2016-05-06T10:39:43Z</time>
      </trkpt>
      <trkpt lat="44.44366" lon="5.90284">
        <ele>1097.1999511719</ele>
        <time>2016-05-06T10:39:44Z</time>
      </trkpt>
      <trkpt lat="44.44366" lon="5.90283">
        <ele>1098</ele>
        <time>2016-05-06T10:39:46Z</time>
      </trkpt>
      <trkpt lat="44.44365" lon="5.90281">
        <ele>1098.4000244141</ele>
        <time>2016-05-06T10:39:49Z</time>
      </trkpt>
      <trkpt lat="44.44363" lon="5.90278">
        <ele>1098.8000488281</ele>
        <time>2016-05-06T10:39:53Z</time>
      </trkpt>
      <trkpt lat="44.44362" lon="5.90275">
        <ele>1099.5999755859</ele>
        <time>2016-05-06T10:39:57Z</time>
      </trkpt>
      <trkpt lat="44.44361" lon="5.90272">
        <ele>1100.4000244141</ele>
        <time>2016-05-06T10:40:00Z</time>
      </trkpt>
      <trkpt lat="44.4436" lon="5.90268">
        <ele>1100.8000488281</ele>
        <time>2016-05-06T10:40:04Z</time>
      </trkpt>
      <trkpt lat="44.44359" lon="5.90262">
        <ele>1100.8000488281</ele>
        <time>2016-05-06T10:40:10Z</time>
      </trkpt>
      <trkpt lat="44.44358" lon="5.90258">
        <ele>1101.8000488281</ele>
        <time>2016-05-06T10:40:14Z</time>
      </trkpt>
      <trkpt lat="44.44357" lon="5.90254">
        <ele>1102.1999511719</ele>
        <time>2016-05-06T10:40:17Z</time>
      </trkpt>
      <trkpt lat="44.44357" lon="5.9025">
        <ele>1102.1999511719</ele>
        <time>2016-05-06T10:40:20Z</time>
      </trkpt>
      <trkpt lat="44.44357" lon="5.90248">
        <ele>1103</ele>
        <time>2016-05-06T10:40:21Z</time>
      </trkpt>
      <trkpt lat="44.44356" lon="5.90244">
        <ele>1104</ele>
        <time>2016-05-06T10:40:25Z</time>
      </trkpt>
      <trkpt lat="44.44356" lon="5.9024">
        <ele>1105</ele>
        <time>2016-05-06T10:40:28Z</time>
      </trkpt>
      <trkpt lat="44.44355" lon="5.90234">
        <ele>1105</ele>
        <time>2016-05-06T10:40:34Z</time>
      </trkpt>
      <trkpt lat="44.44353" lon="5.90224">
        <ele>1105</ele>
        <time>2016-05-06T10:40:46Z</time>
      </trkpt>
      <trkpt lat="44.44353" lon="5.90222">
        <ele>1106</ele>
        <time>2016-05-06T10:40:49Z</time>
      </trkpt>
      <trkpt lat="44.44352" lon="5.9022">
        <ele>1107.1999511719</ele>
        <time>2016-05-06T10:40:52Z</time>
      </trkpt>
      <trkpt lat="44.44351" lon="5.90216">
        <ele>1107.5999755859</ele>
        <time>2016-05-06T10:40:56Z</time>
      </trkpt>
      <trkpt lat="44.44352" lon="5.9021">
        <ele>1107.5999755859</ele>
        <time>2016-05-06T10:41:01Z</time>
      </trkpt>
      <trkpt lat="44.44352" lon="5.90199">
        <ele>1108</ele>
        <time>2016-05-06T10:41:06Z</time>
      </trkpt>
      <trkpt lat="44.44351" lon="5.90194">
        <ele>1108.8000488281</ele>
        <time>2016-05-06T10:41:10Z</time>
      </trkpt>
      <trkpt lat="44.44351" lon="5.9019">
        <ele>1109.1999511719</ele>
        <time>2016-05-06T10:41:14Z</time>
      </trkpt>
      <trkpt lat="44.44352" lon="5.90188">
        <ele>1109.1999511719</ele>
        <time>2016-05-06T10:41:15Z</time>
      </trkpt>
      <trkpt lat="44.44352" lon="5.90186">
        <ele>1109.5999755859</ele>
        <time>2016-05-06T10:41:17Z</time>
      </trkpt>
      <trkpt lat="44.44354" lon="5.90174">
        <ele>1109.5999755859</ele>
        <time>2016-05-06T10:41:27Z</time>
      </trkpt>
      <trkpt lat="44.44355" lon="5.9017">
        <ele>1110</ele>
        <time>2016-05-06T10:41:31Z</time>
      </trkpt>
      <trkpt lat="44.44355" lon="5.90169">
        <ele>1110</ele>
        <time>2016-05-06T10:41:32Z</time>
      </trkpt>
      <trkpt lat="44.44354" lon="5.90167">
        <ele>1110.5999755859</ele>
        <time>2016-05-06T10:41:35Z</time>
      </trkpt>
      <trkpt lat="44.44352" lon="5.90164">
        <ele>1110.5999755859</ele>
        <time>2016-05-06T10:41:37Z</time>
      </trkpt>
      <trkpt lat="44.44351" lon="5.90163">
        <ele>1111.5999755859</ele>
        <time>2016-05-06T10:41:38Z</time>
      </trkpt>
      <trkpt lat="44.44349" lon="5.90159">
        <ele>1112.1999511719</ele>
        <time>2016-05-06T10:41:41Z</time>
      </trkpt>
      <trkpt lat="44.44347" lon="5.90154">
        <ele>1113.1999511719</ele>
        <time>2016-05-06T10:41:45Z</time>
      </trkpt>
      <trkpt lat="44.44346" lon="5.90152">
        <ele>1113.8000488281</ele>
        <time>2016-05-06T10:41:48Z</time>
      </trkpt>
      <trkpt lat="44.44344" lon="5.90149">
        <ele>1114.4000244141</ele>
        <time>2016-05-06T10:41:52Z</time>
      </trkpt>
      <trkpt lat="44.44343" lon="5.90146">
        <ele>1115.1999511719</ele>
        <time>2016-05-06T10:41:56Z</time>
      </trkpt>
      <trkpt lat="44.44342" lon="5.90145">
        <ele>1116</ele>
        <time>2016-05-06T10:41:59Z</time>
      </trkpt>
      <trkpt lat="44.4434" lon="5.90142">
        <ele>1116</ele>
        <time>2016-05-06T10:42:03Z</time>
      </trkpt>
      <trkpt lat="44.44336" lon="5.90138">
        <ele>1116.5999755859</ele>
        <time>2016-05-06T10:42:10Z</time>
      </trkpt>
      <trkpt lat="44.44335" lon="5.90136">
        <ele>1117.4000244141</ele>
        <time>2016-05-06T10:42:13Z</time>
      </trkpt>
      <trkpt lat="44.44333" lon="5.90134">
        <ele>1117.8000488281</ele>
        <time>2016-05-06T10:42:17Z</time>
      </trkpt>
      <trkpt lat="44.44332" lon="5.90134">
        <ele>1117.8000488281</ele>
        <time>2016-05-06T10:42:18Z</time>
      </trkpt>
      <trkpt lat="44.44332" lon="5.90134">
        <ele>1118.1999511719</ele>
        <time>2016-05-06T10:42:20Z</time>
      </trkpt>
      <trkpt lat="44.44329" lon="5.90131">
        <ele>1119</ele>
        <time>2016-05-06T10:42:27Z</time>
      </trkpt>
      <trkpt lat="44.44327" lon="5.90128">
        <ele>1120</ele>
        <time>2016-05-06T10:42:31Z</time>
      </trkpt>
      <trkpt lat="44.44325" lon="5.90126">
        <ele>1120.4000244141</ele>
        <time>2016-05-06T10:42:34Z</time>
      </trkpt>
      <trkpt lat="44.44322" lon="5.90121">
        <ele>1120.4000244141</ele>
        <time>2016-05-06T10:42:44Z</time>
      </trkpt>
      <trkpt lat="44.44321" lon="5.9012">
        <ele>1121.1999511719</ele>
        <time>2016-05-06T10:42:45Z</time>
      </trkpt>
      <trkpt lat="44.44319" lon="5.90119">
        <ele>1121.8000488281</ele>
        <time>2016-05-06T10:42:48Z</time>
      </trkpt>
      <trkpt lat="44.44316" lon="5.90117">
        <ele>1122.5999755859</ele>
        <time>2016-05-06T10:42:52Z</time>
      </trkpt>
      <trkpt lat="44.44314" lon="5.90116">
        <ele>1122.5999755859</ele>
        <time>2016-05-06T10:42:56Z</time>
      </trkpt>
      <trkpt lat="44.44312" lon="5.90114">
        <ele>1123.4000244141</ele>
        <time>2016-05-06T10:42:59Z</time>
      </trkpt>
      <trkpt lat="44.44311" lon="5.90112">
        <ele>1124</ele>
        <time>2016-05-06T10:43:03Z</time>
      </trkpt>
      <trkpt lat="44.4431" lon="5.90111">
        <ele>1124.8000488281</ele>
        <time>2016-05-06T10:43:06Z</time>
      </trkpt>
      <trkpt lat="44.44308" lon="5.9011">
        <ele>1124.8000488281</ele>
        <time>2016-05-06T10:43:09Z</time>
      </trkpt>
      <trkpt lat="44.44306" lon="5.90107">
        <ele>1125.1999511719</ele>
        <time>2016-05-06T10:43:13Z</time>
      </trkpt>
      <trkpt lat="44.44304" lon="5.90104">
        <ele>1125.5999755859</ele>
        <time>2016-05-06T10:43:17Z</time>
      </trkpt>
      <trkpt lat="44.44302" lon="5.90103">
        <ele>1126.4000244141</ele>
        <time>2016-05-06T10:43:20Z</time>
      </trkpt>
      <trkpt lat="44.44301" lon="5.90101">
        <ele>1126.4000244141</ele>
        <time>2016-05-06T10:43:23Z</time>
      </trkpt>
      <trkpt lat="44.44301" lon="5.90101">
        <ele>1126.8000488281</ele>
        <time>2016-05-06T10:43:24Z</time>
      </trkpt>
      <trkpt lat="44.443" lon="5.90099">
        <ele>1127.8000488281</ele>
        <time>2016-05-06T10:43:27Z</time>
      </trkpt>
      <trkpt lat="44.44299" lon="5.90098">
        <ele>1128.1999511719</ele>
        <time>2016-05-06T10:43:30Z</time>
      </trkpt>
      <trkpt lat="44.44297" lon="5.90097">
        <ele>1128.1999511719</ele>
        <time>2016-05-06T10:43:33Z</time>
      </trkpt>
      <trkpt lat="44.44296" lon="5.90096">
        <ele>1129</ele>
        <time>2016-05-06T10:43:34Z</time>
      </trkpt>
      <trkpt lat="44.44294" lon="5.90094">
        <ele>1129</ele>
        <time>2016-05-06T10:43:38Z</time>
      </trkpt>
      <trkpt lat="44.44292" lon="5.90093">
        <ele>1129.5999755859</ele>
        <time>2016-05-06T10:43:41Z</time>
      </trkpt>
      <trkpt lat="44.44289" lon="5.9009">
        <ele>1130.5999755859</ele>
        <time>2016-05-06T10:43:46Z</time>
      </trkpt>
      <trkpt lat="44.44287" lon="5.90087">
        <ele>1131</ele>
        <time>2016-05-06T10:43:50Z</time>
      </trkpt>
      <trkpt lat="44.44287" lon="5.90086">
        <ele>1131.5999755859</ele>
        <time>2016-05-06T10:43:54Z</time>
      </trkpt>
      <trkpt lat="44.44288" lon="5.90086">
        <ele>1131.5999755859</ele>
        <time>2016-05-06T10:43:57Z</time>
      </trkpt>
      <trkpt lat="44.44284" lon="5.90076">
        <ele>1131.5999755859</ele>
        <time>2016-05-06T10:44:10Z</time>
      </trkpt>
      <trkpt lat="44.44278" lon="5.90065">
        <ele>1132</ele>
        <time>2016-05-06T10:44:22Z</time>
      </trkpt>
      <trkpt lat="44.44276" lon="5.90064">
        <ele>1132.4000244141</ele>
        <time>2016-05-06T10:44:23Z</time>
      </trkpt>
      <trkpt lat="44.44274" lon="5.90063">
        <ele>1132.8000488281</ele>
        <time>2016-05-06T10:44:26Z</time>
      </trkpt>
      <trkpt lat="44.44271" lon="5.90062">
        <ele>1133.1999511719</ele>
        <time>2016-05-06T10:44:29Z</time>
      </trkpt>
      <trkpt lat="44.44271" lon="5.90062">
        <ele>1133.5999755859</ele>
        <time>2016-05-06T10:44:30Z</time>
      </trkpt>
      <trkpt lat="44.44267" lon="5.90061">
        <ele>1134</ele>
        <time>2016-05-06T10:44:36Z</time>
      </trkpt>
      <trkpt lat="44.44267" lon="5.90061">
        <ele>1134.5999755859</ele>
        <time>2016-05-06T10:44:37Z</time>
      </trkpt>
      <trkpt lat="44.44265" lon="5.90061">
        <ele>1134.5999755859</ele>
        <time>2016-05-06T10:44:38Z</time>
      </trkpt>
      <trkpt lat="44.44263" lon="5.90061">
        <ele>1135.4000244141</ele>
        <time>2016-05-06T10:44:40Z</time>
      </trkpt>
      <trkpt lat="44.44262" lon="5.90062">
        <ele>1136</ele>
        <time>2016-05-06T10:44:43Z</time>
      </trkpt>
      <trkpt lat="44.44255" lon="5.90064">
        <ele>1136.4000244141</ele>
        <time>2016-05-06T10:44:50Z</time>
      </trkpt>
      <trkpt lat="44.44255" lon="5.90064">
        <ele>1136.8000488281</ele>
        <time>2016-05-06T10:44:51Z</time>
      </trkpt>
      <trkpt lat="44.44252" lon="5.90065">
        <ele>1137.1999511719</ele>
        <time>2016-05-06T10:44:54Z</time>
      </trkpt>
      <trkpt lat="44.44252" lon="5.90065">
        <ele>1137.1999511719</ele>
        <time>2016-05-06T10:44:55Z</time>
      </trkpt>
      <trkpt lat="44.44251" lon="5.90065">
        <ele>1137.5999755859</ele>
        <time>2016-05-06T10:44:57Z</time>
      </trkpt>
      <trkpt lat="44.4425" lon="5.90066">
        <ele>1138.1999511719</ele>
        <time>2016-05-06T10:44:58Z</time>
      </trkpt>
      <trkpt lat="44.44243" lon="5.90071">
        <ele>1138.5999755859</ele>
        <time>2016-05-06T10:45:05Z</time>
      </trkpt>
      <trkpt lat="44.44241" lon="5.90074">
        <ele>1139.1999511719</ele>
        <time>2016-05-06T10:45:08Z</time>
      </trkpt>
      <trkpt lat="44.44241" lon="5.90074">
        <ele>1139.5999755859</ele>
        <time>2016-05-06T10:45:09Z</time>
      </trkpt>
      <trkpt lat="44.4424" lon="5.90076">
        <ele>1140.5999755859</ele>
        <time>2016-05-06T10:45:12Z</time>
      </trkpt>
      <trkpt lat="44.44238" lon="5.90083">
        <ele>1141.1999511719</ele>
        <time>2016-05-06T10:45:19Z</time>
      </trkpt>
      <trkpt lat="44.44239" lon="5.90084">
        <ele>1141.1999511719</ele>
        <time>2016-05-06T10:45:21Z</time>
      </trkpt>
      <trkpt lat="44.44239" lon="5.90085">
        <ele>1141.5999755859</ele>
        <time>2016-05-06T10:45:22Z</time>
      </trkpt>
      <trkpt lat="44.4424" lon="5.90088">
        <ele>1142.1999511719</ele>
        <time>2016-05-06T10:45:25Z</time>
      </trkpt>
      <trkpt lat="44.44241" lon="5.90089">
        <ele>1142.5999755859</ele>
        <time>2016-05-06T10:45:26Z</time>
      </trkpt>
      <trkpt lat="44.44242" lon="5.90091">
        <ele>1143.1999511719</ele>
        <time>2016-05-06T10:45:29Z</time>
      </trkpt>
      <trkpt lat="44.44242" lon="5.90093">
        <ele>1143.1999511719</ele>
        <time>2016-05-06T10:45:33Z</time>
      </trkpt>
      <trkpt lat="44.44242" lon="5.90096">
        <ele>1143.5999755859</ele>
        <time>2016-05-06T10:45:39Z</time>
      </trkpt>
      <trkpt lat="44.44242" lon="5.90096">
        <ele>1144</ele>
        <time>2016-05-06T10:45:40Z</time>
      </trkpt>
      <trkpt lat="44.44242" lon="5.90096">
        <ele>1144.4000244141</ele>
        <time>2016-05-06T10:45:43Z</time>
      </trkpt>
      <trkpt lat="44.4424" lon="5.90102">
        <ele>1144.8000488281</ele>
        <time>2016-05-06T10:45:46Z</time>
      </trkpt>
      <trkpt lat="44.44241" lon="5.90103">
        <ele>1145.1999511719</ele>
        <time>2016-05-06T10:45:47Z</time>
      </trkpt>
      <trkpt lat="44.44239" lon="5.90105">
        <ele>1145.1999511719</ele>
        <time>2016-05-06T10:45:50Z</time>
      </trkpt>
      <trkpt lat="44.44235" lon="5.9011">
        <ele>1146.1999511719</ele>
        <time>2016-05-06T10:46:01Z</time>
      </trkpt>
      <trkpt lat="44.44234" lon="5.90113">
        <ele>1146.8000488281</ele>
        <time>2016-05-06T10:46:04Z</time>
      </trkpt>
      <trkpt lat="44.44234" lon="5.90113">
        <ele>1147.1999511719</ele>
        <time>2016-05-06T10:46:08Z</time>
      </trkpt>
      <trkpt lat="44.44236" lon="5.90113">
        <ele>1147.8000488281</ele>
        <time>2016-05-06T10:46:11Z</time>
      </trkpt>
      <trkpt lat="44.44235" lon="5.90114">
        <ele>1147.8000488281</ele>
        <time>2016-05-06T10:46:17Z</time>
      </trkpt>
      <trkpt lat="44.44233" lon="5.90115">
        <ele>1148.1999511719</ele>
        <time>2016-05-06T10:46:22Z</time>
      </trkpt>
      <trkpt lat="44.44228" lon="5.90118">
        <ele>1149.1999511719</ele>
        <time>2016-05-06T10:46:29Z</time>
      </trkpt>
      <trkpt lat="44.44225" lon="5.90119">
        <ele>1149.5999755859</ele>
        <time>2016-05-06T10:46:32Z</time>
      </trkpt>
      <trkpt lat="44.44223" lon="5.9012">
        <ele>1149.5999755859</ele>
        <time>2016-05-06T10:46:35Z</time>
      </trkpt>
      <trkpt lat="44.44222" lon="5.9012">
        <ele>1150</ele>
        <time>2016-05-06T10:46:36Z</time>
      </trkpt>
      <trkpt lat="44.4422" lon="5.90124">
        <ele>1150.4000244141</ele>
        <time>2016-05-06T10:46:39Z</time>
      </trkpt>
      <trkpt lat="44.4422" lon="5.90124">
        <ele>1151</ele>
        <time>2016-05-06T10:46:40Z</time>
      </trkpt>
      <trkpt lat="44.44219" lon="5.90125">
        <ele>1151.8000488281</ele>
        <time>2016-05-06T10:46:43Z</time>
      </trkpt>
      <trkpt lat="44.44218" lon="5.90125">
        <ele>1152.4000244141</ele>
        <time>2016-05-06T10:46:46Z</time>
      </trkpt>
      <trkpt lat="44.44217" lon="5.90127">
        <ele>1152.8000488281</ele>
        <time>2016-05-06T10:46:53Z</time>
      </trkpt>
      <trkpt lat="44.44216" lon="5.90126">
        <ele>1153.1999511719</ele>
        <time>2016-05-06T10:46:56Z</time>
      </trkpt>
      <trkpt lat="44.44216" lon="5.90126">
        <ele>1153.5999755859</ele>
        <time>2016-05-06T10:46:57Z</time>
      </trkpt>
      <trkpt lat="44.44215" lon="5.90126">
        <ele>1154.1999511719</ele>
        <time>2016-05-06T10:47:00Z</time>
      </trkpt>
      <trkpt lat="44.44214" lon="5.90128">
        <ele>1154.1999511719</ele>
        <time>2016-05-06T10:47:01Z</time>
      </trkpt>
      <trkpt lat="44.44213" lon="5.90129">
        <ele>1154.5999755859</ele>
        <time>2016-05-06T10:47:03Z</time>
      </trkpt>
      <trkpt lat="44.4421" lon="5.90131">
        <ele>1155</ele>
        <time>2016-05-06T10:47:07Z</time>
      </trkpt>
      <trkpt lat="44.44209" lon="5.90132">
        <ele>1155</ele>
        <time>2016-05-06T10:47:09Z</time>
      </trkpt>
      <trkpt lat="44.44208" lon="5.90132">
        <ele>1155.4000244141</ele>
        <time>2016-05-06T10:47:10Z</time>
      </trkpt>
      <trkpt lat="44.44207" lon="5.90133">
        <ele>1155.8000488281</ele>
        <time>2016-05-06T10:47:11Z</time>
      </trkpt>
      <trkpt lat="44.44202" lon="5.90135">
        <ele>1156.1999511719</ele>
        <time>2016-05-06T10:47:14Z</time>
      </trkpt>
      <trkpt lat="44.442" lon="5.90136">
        <ele>1156.5999755859</ele>
        <time>2016-05-06T10:47:17Z</time>
      </trkpt>
      <trkpt lat="44.44199" lon="5.90137">
        <ele>1156.5999755859</ele>
        <time>2016-05-06T10:47:19Z</time>
      </trkpt>
      <trkpt lat="44.44199" lon="5.90138">
        <ele>1157</ele>
        <time>2016-05-06T10:47:21Z</time>
      </trkpt>
      <trkpt lat="44.44197" lon="5.90138">
        <ele>1157.5999755859</ele>
        <time>2016-05-06T10:47:24Z</time>
      </trkpt>
      <trkpt lat="44.44197" lon="5.90138">
        <ele>1158</ele>
        <time>2016-05-06T10:47:25Z</time>
      </trkpt>
      <trkpt lat="44.44197" lon="5.90138">
        <ele>1158.4000244141</ele>
        <time>2016-05-06T10:47:28Z</time>
      </trkpt>
      <trkpt lat="44.44196" lon="5.90138">
        <ele>1158.8000488281</ele>
        <time>2016-05-06T10:47:29Z</time>
      </trkpt>
      <trkpt lat="44.44196" lon="5.90138">
        <ele>1158.8000488281</ele>
        <time>2016-05-06T10:47:31Z</time>
      </trkpt>
      <trkpt lat="44.44197" lon="5.9013">
        <ele>1159.4000244141</ele>
        <time>2016-05-06T10:48:13Z</time>
      </trkpt>
      <trkpt lat="44.44196" lon="5.90128">
        <ele>1159.8000488281</ele>
        <time>2016-05-06T10:48:14Z</time>
      </trkpt>
      <trkpt lat="44.44194" lon="5.90124">
        <ele>1160.1999511719</ele>
        <time>2016-05-06T10:48:17Z</time>
      </trkpt>
      <trkpt lat="44.44192" lon="5.90121">
        <ele>1160.8000488281</ele>
        <time>2016-05-06T10:48:20Z</time>
      </trkpt>
      <trkpt lat="44.44192" lon="5.9012">
        <ele>1161.1999511719</ele>
        <time>2016-05-06T10:48:21Z</time>
      </trkpt>
      <trkpt lat="44.44193" lon="5.90116">
        <ele>1161.5999755859</ele>
        <time>2016-05-06T10:48:24Z</time>
      </trkpt>
      <trkpt lat="44.44191" lon="5.90113">
        <ele>1161.5999755859</ele>
        <time>2016-05-06T10:48:26Z</time>
      </trkpt>
      <trkpt lat="44.44191" lon="5.90112">
        <ele>1162</ele>
        <time>2016-05-06T10:48:27Z</time>
      </trkpt>
      <trkpt lat="44.44191" lon="5.9011">
        <ele>1162.5999755859</ele>
        <time>2016-05-06T10:48:28Z</time>
      </trkpt>
      <trkpt lat="44.44191" lon="5.90106">
        <ele>1163</ele>
        <time>2016-05-06T10:48:31Z</time>
      </trkpt>
      <trkpt lat="44.44191" lon="5.90102">
        <ele>1163.4000244141</ele>
        <time>2016-05-06T10:48:34Z</time>
      </trkpt>
      <trkpt lat="44.44191" lon="5.90101">
        <ele>1163.8000488281</ele>
        <time>2016-05-06T10:48:35Z</time>
      </trkpt>
      <trkpt lat="44.4419" lon="5.90097">
        <ele>1164.4000244141</ele>
        <time>2016-05-06T10:48:38Z</time>
      </trkpt>
      <trkpt lat="44.44189" lon="5.90095">
        <ele>1164.8000488281</ele>
        <time>2016-05-06T10:48:39Z</time>
      </trkpt>
      <trkpt lat="44.44191" lon="5.90092">
        <ele>1165.5999755859</ele>
        <time>2016-05-06T10:48:42Z</time>
      </trkpt>
      <trkpt lat="44.44191" lon="5.9009">
        <ele>1165.5999755859</ele>
        <time>2016-05-06T10:48:43Z</time>
      </trkpt>
      <trkpt lat="44.44194" lon="5.90081">
        <ele>1165.5999755859</ele>
        <time>2016-05-06T10:48:53Z</time>
      </trkpt>
      <trkpt lat="44.44194" lon="5.9008">
        <ele>1166</ele>
        <time>2016-05-06T10:48:54Z</time>
      </trkpt>
      <trkpt lat="44.44193" lon="5.90075">
        <ele>1167</ele>
        <time>2016-05-06T10:48:57Z</time>
      </trkpt>
      <trkpt lat="44.44192" lon="5.9007">
        <ele>1167.4000244141</ele>
        <time>2016-05-06T10:49:00Z</time>
      </trkpt>
      <trkpt lat="44.44193" lon="5.90065">
        <ele>1167.8000488281</ele>
        <time>2016-05-06T10:49:04Z</time>
      </trkpt>
      <trkpt lat="44.44192" lon="5.90064">
        <ele>1167.8000488281</ele>
        <time>2016-05-06T10:49:05Z</time>
      </trkpt>
      <trkpt lat="44.44191" lon="5.90053">
        <ele>1168.1999511719</ele>
        <time>2016-05-06T10:49:11Z</time>
      </trkpt>
      <trkpt lat="44.44189" lon="5.90051">
        <ele>1168.5999755859</ele>
        <time>2016-05-06T10:49:14Z</time>
      </trkpt>
      <trkpt lat="44.44189" lon="5.9005">
        <ele>1168.5999755859</ele>
        <time>2016-05-06T10:49:15Z</time>
      </trkpt>
      <trkpt lat="44.44188" lon="5.90047">
        <ele>1169.1999511719</ele>
        <time>2016-05-06T10:49:17Z</time>
      </trkpt>
      <trkpt lat="44.44188" lon="5.90045">
        <ele>1169.5999755859</ele>
        <time>2016-05-06T10:49:18Z</time>
      </trkpt>
      <trkpt lat="44.44186" lon="5.90041">
        <ele>1170.1999511719</ele>
        <time>2016-05-06T10:49:21Z</time>
      </trkpt>
      <trkpt lat="44.44184" lon="5.90037">
        <ele>1170.1999511719</ele>
        <time>2016-05-06T10:49:24Z</time>
      </trkpt>
      <trkpt lat="44.44185" lon="5.9003">
        <ele>1170.5999755859</ele>
        <time>2016-05-06T10:49:31Z</time>
      </trkpt>
      <trkpt lat="44.44185" lon="5.90028">
        <ele>1171</ele>
        <time>2016-05-06T10:49:32Z</time>
      </trkpt>
      <trkpt lat="44.44185" lon="5.90024">
        <ele>1171.5999755859</ele>
        <time>2016-05-06T10:49:35Z</time>
      </trkpt>
      <trkpt lat="44.44186" lon="5.90024">
        <ele>1172</ele>
        <time>2016-05-06T10:49:36Z</time>
      </trkpt>
      <trkpt lat="44.44186" lon="5.90021">
        <ele>1173</ele>
        <time>2016-05-06T10:49:39Z</time>
      </trkpt>
      <trkpt lat="44.44187" lon="5.90019">
        <ele>1173.4000244141</ele>
        <time>2016-05-06T10:49:42Z</time>
      </trkpt>
      <trkpt lat="44.44189" lon="5.90015">
        <ele>1174.1999511719</ele>
        <time>2016-05-06T10:49:46Z</time>
      </trkpt>
      <trkpt lat="44.44192" lon="5.90014">
        <ele>1174.5999755859</ele>
        <time>2016-05-06T10:49:49Z</time>
      </trkpt>
      <trkpt lat="44.44193" lon="5.90005">
        <ele>1174.5999755859</ele>
        <time>2016-05-06T10:49:58Z</time>
      </trkpt>
      <trkpt lat="44.44192" lon="5.90003">
        <ele>1175.1999511719</ele>
        <time>2016-05-06T10:50:00Z</time>
      </trkpt>
      <trkpt lat="44.44192" lon="5.90002">
        <ele>1175.5999755859</ele>
        <time>2016-05-06T10:50:03Z</time>
      </trkpt>
      <trkpt lat="44.44192" lon="5.89999">
        <ele>1176</ele>
        <time>2016-05-06T10:50:06Z</time>
      </trkpt>
      <trkpt lat="44.44191" lon="5.89998">
        <ele>1176.4000244141</ele>
        <time>2016-05-06T10:50:07Z</time>
      </trkpt>
      <trkpt lat="44.44191" lon="5.89995">
        <ele>1176.8000488281</ele>
        <time>2016-05-06T10:50:10Z</time>
      </trkpt>
      <trkpt lat="44.44191" lon="5.89994">
        <ele>1176.8000488281</ele>
        <time>2016-05-06T10:50:11Z</time>
      </trkpt>
      <trkpt lat="44.44191" lon="5.89991">
        <ele>1177.1999511719</ele>
        <time>2016-05-06T10:50:14Z</time>
      </trkpt>
      <trkpt lat="44.4419" lon="5.89988">
        <ele>1177.5999755859</ele>
        <time>2016-05-06T10:50:17Z</time>
      </trkpt>
      <trkpt lat="44.44189" lon="5.89984">
        <ele>1178.1999511719</ele>
        <time>2016-05-06T10:50:20Z</time>
      </trkpt>
      <trkpt lat="44.44189" lon="5.89983">
        <ele>1178.5999755859</ele>
        <time>2016-05-06T10:50:21Z</time>
      </trkpt>
      <trkpt lat="44.44188" lon="5.8998">
        <ele>1179</ele>
        <time>2016-05-06T10:50:24Z</time>
      </trkpt>
      <trkpt lat="44.44187" lon="5.89974">
        <ele>1179.4000244141</ele>
        <time>2016-05-06T10:50:28Z</time>
      </trkpt>
      <trkpt lat="44.44186" lon="5.8997">
        <ele>1180</ele>
        <time>2016-05-06T10:50:31Z</time>
      </trkpt>
      <trkpt lat="44.44184" lon="5.89966">
        <ele>1180.8000488281</ele>
        <time>2016-05-06T10:50:35Z</time>
      </trkpt>
      <trkpt lat="44.44184" lon="5.89963">
        <ele>1181.4000244141</ele>
        <time>2016-05-06T10:50:38Z</time>
      </trkpt>
      <trkpt lat="44.44183" lon="5.89958">
        <ele>1181.8000488281</ele>
        <time>2016-05-06T10:50:42Z</time>
      </trkpt>
      <trkpt lat="44.44183" lon="5.89958">
        <ele>1181.8000488281</ele>
        <time>2016-05-06T10:50:43Z</time>
      </trkpt>
      <trkpt lat="44.44182" lon="5.89956">
        <ele>1182.1999511719</ele>
        <time>2016-05-06T10:50:45Z</time>
      </trkpt>
      <trkpt lat="44.44183" lon="5.89954">
        <ele>1182.5999755859</ele>
        <time>2016-05-06T10:50:48Z</time>
      </trkpt>
      <trkpt lat="44.44183" lon="5.89953">
        <ele>1183.1999511719</ele>
        <time>2016-05-06T10:50:49Z</time>
      </trkpt>
      <trkpt lat="44.44183" lon="5.89951">
        <ele>1183.5999755859</ele>
        <time>2016-05-06T10:50:52Z</time>
      </trkpt>
      <trkpt lat="44.44183" lon="5.89949">
        <ele>1183.5999755859</ele>
        <time>2016-05-06T10:50:56Z</time>
      </trkpt>
      <trkpt lat="44.44183" lon="5.89946">
        <ele>1184</ele>
        <time>2016-05-06T10:50:59Z</time>
      </trkpt>
      <trkpt lat="44.44184" lon="5.8994">
        <ele>1184.4000244141</ele>
        <time>2016-05-06T10:51:06Z</time>
      </trkpt>
      <trkpt lat="44.44184" lon="5.8994">
        <ele>1184.4000244141</ele>
        <time>2016-05-06T10:51:07Z</time>
      </trkpt>
      <trkpt lat="44.44184" lon="5.89938">
        <ele>1185.1999511719</ele>
        <time>2016-05-06T10:51:10Z</time>
      </trkpt>
      <trkpt lat="44.44182" lon="5.89934">
        <ele>1185.8000488281</ele>
        <time>2016-05-06T10:51:14Z</time>
      </trkpt>
      <trkpt lat="44.4418" lon="5.89932">
        <ele>1186.5999755859</ele>
        <time>2016-05-06T10:51:17Z</time>
      </trkpt>
      <trkpt lat="44.44178" lon="5.89929">
        <ele>1187</ele>
        <time>2016-05-06T10:51:20Z</time>
      </trkpt>
      <trkpt lat="44.44176" lon="5.89927">
        <ele>1187</ele>
        <time>2016-05-06T10:51:23Z</time>
      </trkpt>
      <trkpt lat="44.44174" lon="5.89924">
        <ele>1187.4000244141</ele>
        <time>2016-05-06T10:51:27Z</time>
      </trkpt>
      <trkpt lat="44.44173" lon="5.89921">
        <ele>1187.8000488281</ele>
        <time>2016-05-06T10:51:31Z</time>
      </trkpt>
      <trkpt lat="44.44171" lon="5.8992">
        <ele>1188.1999511719</ele>
        <time>2016-05-06T10:51:34Z</time>
      </trkpt>
      <trkpt lat="44.4417" lon="5.89918">
        <ele>1188.8000488281</ele>
        <time>2016-05-06T10:51:37Z</time>
      </trkpt>
      <trkpt lat="44.4417" lon="5.89918">
        <ele>1189.1999511719</ele>
        <time>2016-05-06T10:51:38Z</time>
      </trkpt>
      <trkpt lat="44.44169" lon="5.89915">
        <ele>1189.5999755859</ele>
        <time>2016-05-06T10:51:41Z</time>
      </trkpt>
      <trkpt lat="44.44169" lon="5.89914">
        <ele>1190</ele>
        <time>2016-05-06T10:51:44Z</time>
      </trkpt>
      <trkpt lat="44.44168" lon="5.89909">
        <ele>1190.5999755859</ele>
        <time>2016-05-06T10:51:48Z</time>
      </trkpt>
      <trkpt lat="44.44167" lon="5.89907">
        <ele>1190.5999755859</ele>
        <time>2016-05-06T10:51:49Z</time>
      </trkpt>
      <trkpt lat="44.44167" lon="5.89906">
        <ele>1191</ele>
        <time>2016-05-06T10:51:51Z</time>
      </trkpt>
      <trkpt lat="44.44166" lon="5.89905">
        <ele>1191.4000244141</ele>
        <time>2016-05-06T10:51:52Z</time>
      </trkpt>
      <trkpt lat="44.44165" lon="5.89904">
        <ele>1192</ele>
        <time>2016-05-06T10:51:55Z</time>
      </trkpt>
      <trkpt lat="44.44165" lon="5.899">
        <ele>1192</ele>
        <time>2016-05-06T10:51:58Z</time>
      </trkpt>
      <trkpt lat="44.44164" lon="5.89898">
        <ele>1192.4000244141</ele>
        <time>2016-05-06T10:51:59Z</time>
      </trkpt>
      <trkpt lat="44.44161" lon="5.89883">
        <ele>1192.4000244141</ele>
        <time>2016-05-06T10:52:10Z</time>
      </trkpt>
      <trkpt lat="44.4416" lon="5.89878">
        <ele>1192.8000488281</ele>
        <time>2016-05-06T10:52:12Z</time>
      </trkpt>
      <trkpt lat="44.4416" lon="5.89878">
        <ele>1193.4000244141</ele>
        <time>2016-05-06T10:52:13Z</time>
      </trkpt>
      <trkpt lat="44.44158" lon="5.89874">
        <ele>1193.8000488281</ele>
        <time>2016-05-06T10:52:16Z</time>
      </trkpt>
      <trkpt lat="44.44157" lon="5.89867">
        <ele>1194.5999755859</ele>
        <time>2016-05-06T10:52:22Z</time>
      </trkpt>
      <trkpt lat="44.4416" lon="5.89858">
        <ele>1195.1999511719</ele>
        <time>2016-05-06T10:52:31Z</time>
      </trkpt>
      <trkpt lat="44.4416" lon="5.89857">
        <ele>1195.1999511719</ele>
        <time>2016-05-06T10:52:32Z</time>
      </trkpt>
      <trkpt lat="44.4416" lon="5.89855">
        <ele>1195.5999755859</ele>
        <time>2016-05-06T10:52:34Z</time>
      </trkpt>
      <trkpt lat="44.4416" lon="5.89852">
        <ele>1196</ele>
        <time>2016-05-06T10:52:37Z</time>
      </trkpt>
      <trkpt lat="44.4416" lon="5.89852">
        <ele>1196.4000244141</ele>
        <time>2016-05-06T10:52:38Z</time>
      </trkpt>
      <trkpt lat="44.4416" lon="5.89849">
        <ele>1196.8000488281</ele>
        <time>2016-05-06T10:52:41Z</time>
      </trkpt>
      <trkpt lat="44.4416" lon="5.89848">
        <ele>1196.8000488281</ele>
        <time>2016-05-06T10:52:42Z</time>
      </trkpt>
      <trkpt lat="44.4416" lon="5.89847">
        <ele>1196.8000488281</ele>
        <time>2016-05-06T10:52:43Z</time>
      </trkpt>
      <trkpt lat="44.44161" lon="5.89844">
        <ele>1197.1999511719</ele>
        <time>2016-05-06T10:52:45Z</time>
      </trkpt>
      <trkpt lat="44.44162" lon="5.89842">
        <ele>1197.5999755859</ele>
        <time>2016-05-06T10:52:48Z</time>
      </trkpt>
      <trkpt lat="44.44162" lon="5.8984">
        <ele>1198.1999511719</ele>
        <time>2016-05-06T10:52:51Z</time>
      </trkpt>
      <trkpt lat="44.44163" lon="5.89839">
        <ele>1198.5999755859</ele>
        <time>2016-05-06T10:52:52Z</time>
      </trkpt>
      <trkpt lat="44.44163" lon="5.89837">
        <ele>1198.5999755859</ele>
        <time>2016-05-06T10:52:54Z</time>
      </trkpt>
      <trkpt lat="44.44163" lon="5.89836">
        <ele>1199</ele>
        <time>2016-05-06T10:52:55Z</time>
      </trkpt>
      <trkpt lat="44.44161" lon="5.89828">
        <ele>1199</ele>
        <time>2016-05-06T10:53:03Z</time>
      </trkpt>
      <trkpt lat="44.44161" lon="5.89825">
        <ele>1199.4000244141</ele>
        <time>2016-05-06T10:53:05Z</time>
      </trkpt>
      <trkpt lat="44.44161" lon="5.89825">
        <ele>1199.8000488281</ele>
        <time>2016-05-06T10:53:06Z</time>
      </trkpt>
      <trkpt lat="44.44162" lon="5.89822">
        <ele>1200.1999511719</ele>
        <time>2016-05-06T10:53:09Z</time>
      </trkpt>
      <trkpt lat="44.44162" lon="5.89818">
        <ele>1200.5999755859</ele>
        <time>2016-05-06T10:53:12Z</time>
      </trkpt>
      <trkpt lat="44.44162" lon="5.89817">
        <ele>1201</ele>
        <time>2016-05-06T10:53:13Z</time>
      </trkpt>
      <trkpt lat="44.4416" lon="5.89814">
        <ele>1201</ele>
        <time>2016-05-06T10:53:17Z</time>
      </trkpt>
      <trkpt lat="44.44159" lon="5.8981">
        <ele>1201.5999755859</ele>
        <time>2016-05-06T10:53:20Z</time>
      </trkpt>
      <trkpt lat="44.44158" lon="5.89806">
        <ele>1202</ele>
        <time>2016-05-06T10:53:23Z</time>
      </trkpt>
      <trkpt lat="44.44156" lon="5.89806">
        <ele>1202.4000244141</ele>
        <time>2016-05-06T10:53:26Z</time>
      </trkpt>
      <trkpt lat="44.44156" lon="5.89805">
        <ele>1202.8000488281</ele>
        <time>2016-05-06T10:53:27Z</time>
      </trkpt>
      <trkpt lat="44.44155" lon="5.89804">
        <ele>1202.8000488281</ele>
        <time>2016-05-06T10:53:29Z</time>
      </trkpt>
      <trkpt lat="44.44154" lon="5.89804">
        <ele>1203.4000244141</ele>
        <time>2016-05-06T10:53:30Z</time>
      </trkpt>
      <trkpt lat="44.44152" lon="5.898">
        <ele>1204</ele>
        <time>2016-05-06T10:53:37Z</time>
      </trkpt>
      <trkpt lat="44.44151" lon="5.89798">
        <ele>1205</ele>
        <time>2016-05-06T10:53:41Z</time>
      </trkpt>
      <trkpt lat="44.44149" lon="5.89796">
        <ele>1205.4000244141</ele>
        <time>2016-05-06T10:53:45Z</time>
      </trkpt>
      <trkpt lat="44.44148" lon="5.89793">
        <ele>1206.5999755859</ele>
        <time>2016-05-06T10:53:49Z</time>
      </trkpt>
      <trkpt lat="44.44148" lon="5.89792">
        <ele>1207</ele>
        <time>2016-05-06T10:53:52Z</time>
      </trkpt>
      <trkpt lat="44.44147" lon="5.8979">
        <ele>1207.5999755859</ele>
        <time>2016-05-06T10:53:56Z</time>
      </trkpt>
      <trkpt lat="44.44146" lon="5.89788">
        <ele>1208</ele>
        <time>2016-05-06T10:53:59Z</time>
      </trkpt>
      <trkpt lat="44.44145" lon="5.89787">
        <ele>1208.8000488281</ele>
        <time>2016-05-06T10:54:03Z</time>
      </trkpt>
      <trkpt lat="44.44144" lon="5.89786">
        <ele>1209.1999511719</ele>
        <time>2016-05-06T10:54:06Z</time>
      </trkpt>
      <trkpt lat="44.44143" lon="5.89784">
        <ele>1209.5999755859</ele>
        <time>2016-05-06T10:54:10Z</time>
      </trkpt>
      <trkpt lat="44.4414" lon="5.8978">
        <ele>1210.1999511719</ele>
        <time>2016-05-06T10:54:17Z</time>
      </trkpt>
      <trkpt lat="44.44138" lon="5.89777">
        <ele>1211.1999511719</ele>
        <time>2016-05-06T10:54:21Z</time>
      </trkpt>
      <trkpt lat="44.44137" lon="5.89774">
        <ele>1211.8000488281</ele>
        <time>2016-05-06T10:54:24Z</time>
      </trkpt>
      <trkpt lat="44.44136" lon="5.89773">
        <ele>1211.8000488281</ele>
        <time>2016-05-06T10:54:26Z</time>
      </trkpt>
      <trkpt lat="44.44135" lon="5.89772">
        <ele>1212.4000244141</ele>
        <time>2016-05-06T10:54:28Z</time>
      </trkpt>
      <trkpt lat="44.44133" lon="5.8977">
        <ele>1212.8000488281</ele>
        <time>2016-05-06T10:54:31Z</time>
      </trkpt>
      <trkpt lat="44.44131" lon="5.89768">
        <ele>1212.8000488281</ele>
        <time>2016-05-06T10:54:34Z</time>
      </trkpt>
      <trkpt lat="44.44131" lon="5.89768">
        <ele>1213.8000488281</ele>
        <time>2016-05-06T10:54:35Z</time>
      </trkpt>
      <trkpt lat="44.44129" lon="5.89766">
        <ele>1214.1999511719</ele>
        <time>2016-05-06T10:54:38Z</time>
      </trkpt>
      <trkpt lat="44.44129" lon="5.89766">
        <ele>1214.1999511719</ele>
        <time>2016-05-06T10:54:39Z</time>
      </trkpt>
      <trkpt lat="44.44128" lon="5.89764">
        <ele>1214.5999755859</ele>
        <time>2016-05-06T10:54:42Z</time>
      </trkpt>
      <trkpt lat="44.44123" lon="5.89763">
        <ele>1215.5999755859</ele>
        <time>2016-05-06T10:54:49Z</time>
      </trkpt>
      <trkpt lat="44.44123" lon="5.89761">
        <ele>1215.5999755859</ele>
        <time>2016-05-06T10:54:51Z</time>
      </trkpt>
      <trkpt lat="44.44123" lon="5.89761">
        <ele>1216</ele>
        <time>2016-05-06T10:54:52Z</time>
      </trkpt>
      <trkpt lat="44.44121" lon="5.89758">
        <ele>1216.8000488281</ele>
        <time>2016-05-06T10:54:56Z</time>
      </trkpt>
      <trkpt lat="44.4412" lon="5.89752">
        <ele>1216.8000488281</ele>
        <time>2016-05-06T10:55:02Z</time>
      </trkpt>
      <trkpt lat="44.4412" lon="5.89749">
        <ele>1217.1999511719</ele>
        <time>2016-05-06T10:55:06Z</time>
      </trkpt>
      <trkpt lat="44.4412" lon="5.89748">
        <ele>1217.5999755859</ele>
        <time>2016-05-06T10:55:07Z</time>
      </trkpt>
      <trkpt lat="44.44119" lon="5.89747">
        <ele>1218.5999755859</ele>
        <time>2016-05-06T10:55:10Z</time>
      </trkpt>
      <trkpt lat="44.44118" lon="5.89744">
        <ele>1219</ele>
        <time>2016-05-06T10:55:14Z</time>
      </trkpt>
      <trkpt lat="44.44118" lon="5.89742">
        <ele>1219</ele>
        <time>2016-05-06T10:55:16Z</time>
      </trkpt>
      <trkpt lat="44.44116" lon="5.89735">
        <ele>1219.4000244141</ele>
        <time>2016-05-06T10:55:24Z</time>
      </trkpt>
      <trkpt lat="44.44114" lon="5.89731">
        <ele>1220.1999511719</ele>
        <time>2016-05-06T10:55:28Z</time>
      </trkpt>
      <trkpt lat="44.44114" lon="5.89729">
        <ele>1220.5999755859</ele>
        <time>2016-05-06T10:55:31Z</time>
      </trkpt>
      <trkpt lat="44.44114" lon="5.89729">
        <ele>1221</ele>
        <time>2016-05-06T10:55:35Z</time>
      </trkpt>
      <trkpt lat="44.44112" lon="5.89719">
        <ele>1221</ele>
        <time>2016-05-06T10:56:25Z</time>
      </trkpt>
      <trkpt lat="44.44111" lon="5.89718">
        <ele>1221.4000244141</ele>
        <time>2016-05-06T10:56:26Z</time>
      </trkpt>
      <trkpt lat="44.44109" lon="5.89713">
        <ele>1221.8000488281</ele>
        <time>2016-05-06T10:56:29Z</time>
      </trkpt>
      <trkpt lat="44.44105" lon="5.89708">
        <ele>1222.5999755859</ele>
        <time>2016-05-06T10:56:33Z</time>
      </trkpt>
      <trkpt lat="44.44104" lon="5.89706">
        <ele>1222.5999755859</ele>
        <time>2016-05-06T10:56:35Z</time>
      </trkpt>
      <trkpt lat="44.44103" lon="5.89704">
        <ele>1223</ele>
        <time>2016-05-06T10:56:36Z</time>
      </trkpt>
      <trkpt lat="44.44102" lon="5.89697">
        <ele>1223.5999755859</ele>
        <time>2016-05-06T10:56:40Z</time>
      </trkpt>
      <trkpt lat="44.441" lon="5.89691">
        <ele>1224.4000244141</ele>
        <time>2016-05-06T10:56:44Z</time>
      </trkpt>
      <trkpt lat="44.44099" lon="5.8969">
        <ele>1224.4000244141</ele>
        <time>2016-05-06T10:56:45Z</time>
      </trkpt>
      <trkpt lat="44.44099" lon="5.89687">
        <ele>1225.4000244141</ele>
        <time>2016-05-06T10:56:47Z</time>
      </trkpt>
      <trkpt lat="44.44094" lon="5.89674">
        <ele>1225.4000244141</ele>
        <time>2016-05-06T10:56:55Z</time>
      </trkpt>
      <trkpt lat="44.44093" lon="5.8967">
        <ele>1226.4000244141</ele>
        <time>2016-05-06T10:56:57Z</time>
      </trkpt>
      <trkpt lat="44.4409" lon="5.89667">
        <ele>1226.8000488281</ele>
        <time>2016-05-06T10:57:00Z</time>
      </trkpt>
      <trkpt lat="44.4409" lon="5.89664">
        <ele>1226.8000488281</ele>
        <time>2016-05-06T10:57:02Z</time>
      </trkpt>
      <trkpt lat="44.44089" lon="5.89662">
        <ele>1227.8000488281</ele>
        <time>2016-05-06T10:57:04Z</time>
      </trkpt>
      <trkpt lat="44.44085" lon="5.89651">
        <ele>1228.1999511719</ele>
        <time>2016-05-06T10:57:11Z</time>
      </trkpt>
      <trkpt lat="44.44083" lon="5.89648">
        <ele>1228.1999511719</ele>
        <time>2016-05-06T10:57:13Z</time>
      </trkpt>
      <trkpt lat="44.44083" lon="5.89646">
        <ele>1229.1999511719</ele>
        <time>2016-05-06T10:57:15Z</time>
      </trkpt>
      <trkpt lat="44.44081" lon="5.89642">
        <ele>1229.5999755859</ele>
        <time>2016-05-06T10:57:18Z</time>
      </trkpt>
      <trkpt lat="44.44081" lon="5.8964">
        <ele>1230</ele>
        <time>2016-05-06T10:57:19Z</time>
      </trkpt>
      <trkpt lat="44.44079" lon="5.89637">
        <ele>1230</ele>
        <time>2016-05-06T10:57:21Z</time>
      </trkpt>
      <trkpt lat="44.44074" lon="5.89625">
        <ele>1230</ele>
        <time>2016-05-06T10:57:29Z</time>
      </trkpt>
      <trkpt lat="44.44073" lon="5.89623">
        <ele>1230.4000244141</ele>
        <time>2016-05-06T10:57:30Z</time>
      </trkpt>
      <trkpt lat="44.44072" lon="5.89618">
        <ele>1231.1999511719</ele>
        <time>2016-05-06T10:57:33Z</time>
      </trkpt>
      <trkpt lat="44.44071" lon="5.89613">
        <ele>1231.8000488281</ele>
        <time>2016-05-06T10:57:36Z</time>
      </trkpt>
      <trkpt lat="44.44071" lon="5.89607">
        <ele>1231.8000488281</ele>
        <time>2016-05-06T10:57:39Z</time>
      </trkpt>
      <trkpt lat="44.44071" lon="5.89605">
        <ele>1232.1999511719</ele>
        <time>2016-05-06T10:57:40Z</time>
      </trkpt>
      <trkpt lat="44.44073" lon="5.89594">
        <ele>1233</ele>
        <time>2016-05-06T10:57:47Z</time>
      </trkpt>
      <trkpt lat="44.44075" lon="5.89591">
        <ele>1233</ele>
        <time>2016-05-06T10:57:49Z</time>
      </trkpt>
      <trkpt lat="44.44077" lon="5.89589">
        <ele>1234</ele>
        <time>2016-05-06T10:57:51Z</time>
      </trkpt>
      <trkpt lat="44.4408" lon="5.89585">
        <ele>1234.4000244141</ele>
        <time>2016-05-06T10:57:54Z</time>
      </trkpt>
      <trkpt lat="44.44081" lon="5.89584">
        <ele>1234.4000244141</ele>
        <time>2016-05-06T10:57:55Z</time>
      </trkpt>
      <trkpt lat="44.44082" lon="5.89582">
        <ele>1234.4000244141</ele>
        <time>2016-05-06T10:57:56Z</time>
      </trkpt>
      <trkpt lat="44.4409" lon="5.89574">
        <ele>1235.4000244141</ele>
        <time>2016-05-06T10:58:02Z</time>
      </trkpt>
      <trkpt lat="44.44093" lon="5.89571">
        <ele>1235.8000488281</ele>
        <time>2016-05-06T10:58:05Z</time>
      </trkpt>
      <trkpt lat="44.44094" lon="5.89568">
        <ele>1235.8000488281</ele>
        <time>2016-05-06T10:58:07Z</time>
      </trkpt>
      <trkpt lat="44.44096" lon="5.89565">
        <ele>1236.8000488281</ele>
        <time>2016-05-06T10:58:09Z</time>
      </trkpt>
      <trkpt lat="44.44096" lon="5.89559">
        <ele>1236.8000488281</ele>
        <time>2016-05-06T10:58:13Z</time>
      </trkpt>
      <trkpt lat="44.44095" lon="5.89558">
        <ele>1236.8000488281</ele>
        <time>2016-05-06T10:58:14Z</time>
      </trkpt>
      <trkpt lat="44.4409" lon="5.89555">
        <ele>1237.1999511719</ele>
        <time>2016-05-06T10:58:19Z</time>
      </trkpt>
      <trkpt lat="44.44088" lon="5.89555">
        <ele>1237.5999755859</ele>
        <time>2016-05-06T10:58:20Z</time>
      </trkpt>
      <trkpt lat="44.44087" lon="5.89555">
        <ele>1237.5999755859</ele>
        <time>2016-05-06T10:58:21Z</time>
      </trkpt>
      <trkpt lat="44.44085" lon="5.89556">
        <ele>1237.5999755859</ele>
        <time>2016-05-06T10:58:22Z</time>
      </trkpt>
      <trkpt lat="44.44084" lon="5.89556">
        <ele>1238</ele>
        <time>2016-05-06T10:58:23Z</time>
      </trkpt>
      <trkpt lat="44.44083" lon="5.89556">
        <ele>1238.4000244141</ele>
        <time>2016-05-06T10:58:24Z</time>
      </trkpt>
      <trkpt lat="44.44079" lon="5.89558">
        <ele>1238.8000488281</ele>
        <time>2016-05-06T10:58:27Z</time>
      </trkpt>
      <trkpt lat="44.44075" lon="5.8956">
        <ele>1238.8000488281</ele>
        <time>2016-05-06T10:58:30Z</time>
      </trkpt>
      <trkpt lat="44.44065" lon="5.89565">
        <ele>1239.1999511719</ele>
        <time>2016-05-06T10:58:38Z</time>
      </trkpt>
      <trkpt lat="44.44064" lon="5.89566">
        <ele>1239.1999511719</ele>
        <time>2016-05-06T10:58:39Z</time>
      </trkpt>
      <trkpt lat="44.44062" lon="5.89568">
        <ele>1239.5999755859</ele>
        <time>2016-05-06T10:58:41Z</time>
      </trkpt>
      <trkpt lat="44.4406" lon="5.89575">
        <ele>1240.1999511719</ele>
        <time>2016-05-06T10:58:45Z</time>
      </trkpt>
      <trkpt lat="44.44059" lon="5.89579">
        <ele>1240.1999511719</ele>
        <time>2016-05-06T10:58:47Z</time>
      </trkpt>
      <trkpt lat="44.44058" lon="5.89583">
        <ele>1241</ele>
        <time>2016-05-06T10:58:49Z</time>
      </trkpt>
      <trkpt lat="44.44055" lon="5.89609">
        <ele>1241.4000244141</ele>
        <time>2016-05-06T10:58:59Z</time>
      </trkpt>
      <trkpt lat="44.44056" lon="5.89611">
        <ele>1242</ele>
        <time>2016-05-06T10:59:00Z</time>
      </trkpt>
      <trkpt lat="44.44055" lon="5.89617">
        <ele>1242.4000244141</ele>
        <time>2016-05-06T10:59:03Z</time>
      </trkpt>
      <trkpt lat="44.44053" lon="5.89622">
        <ele>1243.4000244141</ele>
        <time>2016-05-06T10:59:07Z</time>
      </trkpt>
      <trkpt lat="44.44051" lon="5.89624">
        <ele>1243.4000244141</ele>
        <time>2016-05-06T10:59:08Z</time>
      </trkpt>
      <trkpt lat="44.44039" lon="5.89631">
        <ele>1243.4000244141</ele>
        <time>2016-05-06T10:59:17Z</time>
      </trkpt>
      <trkpt lat="44.44037" lon="5.89631">
        <ele>1244.1999511719</ele>
        <time>2016-05-06T10:59:18Z</time>
      </trkpt>
      <trkpt lat="44.44033" lon="5.89633">
        <ele>1244.5999755859</ele>
        <time>2016-05-06T10:59:21Z</time>
      </trkpt>
      <trkpt lat="44.44032" lon="5.89633">
        <ele>1245</ele>
        <time>2016-05-06T10:59:22Z</time>
      </trkpt>
      <trkpt lat="44.44029" lon="5.89634">
        <ele>1245</ele>
        <time>2016-05-06T10:59:24Z</time>
      </trkpt>
      <trkpt lat="44.44028" lon="5.89634">
        <ele>1245.4000244141</ele>
        <time>2016-05-06T10:59:25Z</time>
      </trkpt>
      <trkpt lat="44.44023" lon="5.89633">
        <ele>1245.8000488281</ele>
        <time>2016-05-06T10:59:29Z</time>
      </trkpt>
      <trkpt lat="44.44021" lon="5.89628">
        <ele>1246.4000244141</ele>
        <time>2016-05-06T10:59:32Z</time>
      </trkpt>
      <trkpt lat="44.44021" lon="5.89621">
        <ele>1247.5999755859</ele>
        <time>2016-05-06T10:59:36Z</time>
      </trkpt>
      <trkpt lat="44.44022" lon="5.89618">
        <ele>1247.5999755859</ele>
        <time>2016-05-06T10:59:38Z</time>
      </trkpt>
      <trkpt lat="44.44024" lon="5.89615">
        <ele>1248.1999511719</ele>
        <time>2016-05-06T10:59:40Z</time>
      </trkpt>
      <trkpt lat="44.44027" lon="5.89611">
        <ele>1248.5999755859</ele>
        <time>2016-05-06T10:59:44Z</time>
      </trkpt>
      <trkpt lat="44.44028" lon="5.89607">
        <ele>1249.4000244141</ele>
        <time>2016-05-06T10:59:47Z</time>
      </trkpt>
      <trkpt lat="44.4403" lon="5.89602">
        <ele>1250.1999511719</ele>
        <time>2016-05-06T10:59:51Z</time>
      </trkpt>
      <trkpt lat="44.44032" lon="5.89595">
        <ele>1250.1999511719</ele>
        <time>2016-05-06T10:59:57Z</time>
      </trkpt>
      <trkpt lat="44.44032" lon="5.89594">
        <ele>1250.5999755859</ele>
        <time>2016-05-06T10:59:58Z</time>
      </trkpt>
      <trkpt lat="44.44032" lon="5.8959">
        <ele>1250.5999755859</ele>
        <time>2016-05-06T11:00:00Z</time>
      </trkpt>
      <trkpt lat="44.44033" lon="5.89587">
        <ele>1251.4000244141</ele>
        <time>2016-05-06T11:00:02Z</time>
      </trkpt>
      <trkpt lat="44.44033" lon="5.89585">
        <ele>1251.4000244141</ele>
        <time>2016-05-06T11:00:03Z</time>
      </trkpt>
      <trkpt lat="44.44033" lon="5.89582">
        <ele>1251.4000244141</ele>
        <time>2016-05-06T11:00:04Z</time>
      </trkpt>
      <trkpt lat="44.44033" lon="5.8958">
        <ele>1251.8000488281</ele>
        <time>2016-05-06T11:00:05Z</time>
      </trkpt>
      <trkpt lat="44.44035" lon="5.89575">
        <ele>1252.1999511719</ele>
        <time>2016-05-06T11:00:09Z</time>
      </trkpt>
      <trkpt lat="44.44036" lon="5.89571">
        <ele>1252.5999755859</ele>
        <time>2016-05-06T11:00:12Z</time>
      </trkpt>
      <trkpt lat="44.44038" lon="5.89567">
        <ele>1253.5999755859</ele>
        <time>2016-05-06T11:00:16Z</time>
      </trkpt>
      <trkpt lat="44.44039" lon="5.8956">
        <ele>1254</ele>
        <time>2016-05-06T11:00:20Z</time>
      </trkpt>
      <trkpt lat="44.4404" lon="5.89559">
        <ele>1254</ele>
        <time>2016-05-06T11:00:21Z</time>
      </trkpt>
      <trkpt lat="44.4404" lon="5.89556">
        <ele>1254.4000244141</ele>
        <time>2016-05-06T11:00:23Z</time>
      </trkpt>
      <trkpt lat="44.44043" lon="5.89544">
        <ele>1254.8000488281</ele>
        <time>2016-05-06T11:00:30Z</time>
      </trkpt>
      <trkpt lat="44.44046" lon="5.89537">
        <ele>1255.8000488281</ele>
        <time>2016-05-06T11:00:34Z</time>
      </trkpt>
      <trkpt lat="44.44046" lon="5.89527">
        <ele>1256.1999511719</ele>
        <time>2016-05-06T11:00:37Z</time>
      </trkpt>
      <trkpt lat="44.44046" lon="5.89524">
        <ele>1256.1999511719</ele>
        <time>2016-05-06T11:00:39Z</time>
      </trkpt>
      <trkpt lat="44.44047" lon="5.8952">
        <ele>1256.5999755859</ele>
        <time>2016-05-06T11:00:41Z</time>
      </trkpt>
      <trkpt lat="44.44051" lon="5.89504">
        <ele>1256.5999755859</ele>
        <time>2016-05-06T11:00:50Z</time>
      </trkpt>
      <trkpt lat="44.44052" lon="5.89502">
        <ele>1257</ele>
        <time>2016-05-06T11:00:51Z</time>
      </trkpt>
      <trkpt lat="44.44052" lon="5.89501">
        <ele>1257.4000244141</ele>
        <time>2016-05-06T11:00:52Z</time>
      </trkpt>
      <trkpt lat="44.44053" lon="5.89494">
        <ele>1257.8000488281</ele>
        <time>2016-05-06T11:00:56Z</time>
      </trkpt>
      <trkpt lat="44.44055" lon="5.89491">
        <ele>1258.5999755859</ele>
        <time>2016-05-06T11:00:59Z</time>
      </trkpt>
      <trkpt lat="44.44056" lon="5.89482">
        <ele>1258.5999755859</ele>
        <time>2016-05-06T11:01:04Z</time>
      </trkpt>
      <trkpt lat="44.44055" lon="5.89476">
        <ele>1258.5999755859</ele>
        <time>2016-05-06T11:01:06Z</time>
      </trkpt>
      <trkpt lat="44.44053" lon="5.89469">
        <ele>1259.5999755859</ele>
        <time>2016-05-06T11:01:10Z</time>
      </trkpt>
      <trkpt lat="44.4405" lon="5.89465">
        <ele>1260.4000244141</ele>
        <time>2016-05-06T11:01:14Z</time>
      </trkpt>
      <trkpt lat="44.44048" lon="5.89461">
        <ele>1261</ele>
        <time>2016-05-06T11:01:17Z</time>
      </trkpt>
      <trkpt lat="44.44048" lon="5.89459">
        <ele>1261</ele>
        <time>2016-05-06T11:01:18Z</time>
      </trkpt>
      <trkpt lat="44.44041" lon="5.89452">
        <ele>1261.4000244141</ele>
        <time>2016-05-06T11:01:25Z</time>
      </trkpt>
      <trkpt lat="44.4404" lon="5.89451">
        <ele>1261.4000244141</ele>
        <time>2016-05-06T11:01:26Z</time>
      </trkpt>
      <trkpt lat="44.44038" lon="5.8945">
        <ele>1262.1999511719</ele>
        <time>2016-05-06T11:01:28Z</time>
      </trkpt>
      <trkpt lat="44.44033" lon="5.89447">
        <ele>1262.8000488281</ele>
        <time>2016-05-06T11:01:32Z</time>
      </trkpt>
      <trkpt lat="44.44031" lon="5.89445">
        <ele>1263.1999511719</ele>
        <time>2016-05-06T11:01:35Z</time>
      </trkpt>
      <trkpt lat="44.4403" lon="5.89444">
        <ele>1263.1999511719</ele>
        <time>2016-05-06T11:01:36Z</time>
      </trkpt>
      <trkpt lat="44.44026" lon="5.89441">
        <ele>1264.1999511719</ele>
        <time>2016-05-06T11:01:39Z</time>
      </trkpt>
      <trkpt lat="44.44024" lon="5.89437">
        <ele>1265</ele>
        <time>2016-05-06T11:01:42Z</time>
      </trkpt>
      <trkpt lat="44.44022" lon="5.89433">
        <ele>1265</ele>
        <time>2016-05-06T11:01:45Z</time>
      </trkpt>
      <trkpt lat="44.44021" lon="5.89431">
        <ele>1265.5999755859</ele>
        <time>2016-05-06T11:01:46Z</time>
      </trkpt>
      <trkpt lat="44.44018" lon="5.89429">
        <ele>1266.4000244141</ele>
        <time>2016-05-06T11:01:50Z</time>
      </trkpt>
      <trkpt lat="44.44014" lon="5.8943">
        <ele>1267</ele>
        <time>2016-05-06T11:01:54Z</time>
      </trkpt>
      <trkpt lat="44.44011" lon="5.89432">
        <ele>1267.8000488281</ele>
        <time>2016-05-06T11:01:57Z</time>
      </trkpt>
      <trkpt lat="44.44001" lon="5.89446">
        <ele>1267.8000488281</ele>
        <time>2016-05-06T11:02:09Z</time>
      </trkpt>
      <trkpt lat="44.44" lon="5.89447">
        <ele>1268.4000244141</ele>
        <time>2016-05-06T11:02:10Z</time>
      </trkpt>
      <trkpt lat="44.44" lon="5.89449">
        <ele>1268.8000488281</ele>
        <time>2016-05-06T11:02:11Z</time>
      </trkpt>
      <trkpt lat="44.43997" lon="5.89454">
        <ele>1269.1999511719</ele>
        <time>2016-05-06T11:02:14Z</time>
      </trkpt>
      <trkpt lat="44.43997" lon="5.89456">
        <ele>1269.1999511719</ele>
        <time>2016-05-06T11:02:15Z</time>
      </trkpt>
      <trkpt lat="44.43995" lon="5.89462">
        <ele>1270.1999511719</ele>
        <time>2016-05-06T11:02:18Z</time>
      </trkpt>
      <trkpt lat="44.43998" lon="5.89473">
        <ele>1271</ele>
        <time>2016-05-06T11:02:25Z</time>
      </trkpt>
      <trkpt lat="44.43999" lon="5.89474">
        <ele>1271</ele>
        <time>2016-05-06T11:02:26Z</time>
      </trkpt>
      <trkpt lat="44.44001" lon="5.89478">
        <ele>1271.4000244141</ele>
        <time>2016-05-06T11:02:28Z</time>
      </trkpt>
      <trkpt lat="44.44004" lon="5.89486">
        <ele>1272.1999511719</ele>
        <time>2016-05-06T11:02:32Z</time>
      </trkpt>
      <trkpt lat="44.44006" lon="5.89492">
        <ele>1272.1999511719</ele>
        <time>2016-05-06T11:02:35Z</time>
      </trkpt>
      <trkpt lat="44.44005" lon="5.89499">
        <ele>1273.1999511719</ele>
        <time>2016-05-06T11:02:39Z</time>
      </trkpt>
      <trkpt lat="44.44003" lon="5.89503">
        <ele>1273.5999755859</ele>
        <time>2016-05-06T11:02:42Z</time>
      </trkpt>
      <trkpt lat="44.43999" lon="5.89507">
        <ele>1274</ele>
        <time>2016-05-06T11:02:46Z</time>
      </trkpt>
      <trkpt lat="44.43995" lon="5.89509">
        <ele>1274.4000244141</ele>
        <time>2016-05-06T11:02:49Z</time>
      </trkpt>
      <trkpt lat="44.43991" lon="5.89513">
        <ele>1275</ele>
        <time>2016-05-06T11:02:53Z</time>
      </trkpt>
      <trkpt lat="44.4399" lon="5.89514">
        <ele>1275</ele>
        <time>2016-05-06T11:02:54Z</time>
      </trkpt>
      <trkpt lat="44.43988" lon="5.89516">
        <ele>1275.4000244141</ele>
        <time>2016-05-06T11:02:56Z</time>
      </trkpt>
      <trkpt lat="44.43984" lon="5.89521">
        <ele>1276.1999511719</ele>
        <time>2016-05-06T11:03:00Z</time>
      </trkpt>
      <trkpt lat="44.43979" lon="5.89523">
        <ele>1276.5999755859</ele>
        <time>2016-05-06T11:03:04Z</time>
      </trkpt>
      <trkpt lat="44.43978" lon="5.89524">
        <ele>1276.5999755859</ele>
        <time>2016-05-06T11:03:05Z</time>
      </trkpt>
      <trkpt lat="44.43973" lon="5.89523">
        <ele>1277</ele>
        <time>2016-05-06T11:03:10Z</time>
      </trkpt>
      <trkpt lat="44.43972" lon="5.89522">
        <ele>1277.5999755859</ele>
        <time>2016-05-06T11:03:11Z</time>
      </trkpt>
      <trkpt lat="44.4397" lon="5.89519">
        <ele>1277.5999755859</ele>
        <time>2016-05-06T11:03:13Z</time>
      </trkpt>
      <trkpt lat="44.4397" lon="5.89517">
        <ele>1278</ele>
        <time>2016-05-06T11:03:14Z</time>
      </trkpt>
      <trkpt lat="44.43969" lon="5.89512">
        <ele>1278</ele>
        <time>2016-05-06T11:03:17Z</time>
      </trkpt>
      <trkpt lat="44.43969" lon="5.89511">
        <ele>1278.8000488281</ele>
        <time>2016-05-06T11:03:18Z</time>
      </trkpt>
      <trkpt lat="44.43969" lon="5.89508">
        <ele>1279.4000244141</ele>
        <time>2016-05-06T11:03:21Z</time>
      </trkpt>
      <trkpt lat="44.43969" lon="5.89501">
        <ele>1280.1999511719</ele>
        <time>2016-05-06T11:03:26Z</time>
      </trkpt>
      <trkpt lat="44.43969" lon="5.89497">
        <ele>1280.8000488281</ele>
        <time>2016-05-06T11:03:29Z</time>
      </trkpt>
      <trkpt lat="44.43969" lon="5.89494">
        <ele>1280.8000488281</ele>
        <time>2016-05-06T11:03:31Z</time>
      </trkpt>
      <trkpt lat="44.43966" lon="5.89487">
        <ele>1281.1999511719</ele>
        <time>2016-05-06T11:03:36Z</time>
      </trkpt>
      <trkpt lat="44.43964" lon="5.89483">
        <ele>1282.1999511719</ele>
        <time>2016-05-06T11:03:40Z</time>
      </trkpt>
      <trkpt lat="44.43962" lon="5.89482">
        <ele>1283.1999511719</ele>
        <time>2016-05-06T11:03:43Z</time>
      </trkpt>
      <trkpt lat="44.43959" lon="5.89478">
        <ele>1283.8000488281</ele>
        <time>2016-05-06T11:03:47Z</time>
      </trkpt>
      <trkpt lat="44.43958" lon="5.89477">
        <ele>1283.8000488281</ele>
        <time>2016-05-06T11:03:49Z</time>
      </trkpt>
      <trkpt lat="44.43957" lon="5.89477">
        <ele>1284.1999511719</ele>
        <time>2016-05-06T11:03:50Z</time>
      </trkpt>
      <trkpt lat="44.43953" lon="5.89474">
        <ele>1285</ele>
        <time>2016-05-06T11:03:54Z</time>
      </trkpt>
      <trkpt lat="44.4395" lon="5.89473">
        <ele>1285.8000488281</ele>
        <time>2016-05-06T11:03:57Z</time>
      </trkpt>
      <trkpt lat="44.43943" lon="5.89469">
        <ele>1285.8000488281</ele>
        <time>2016-05-06T11:04:03Z</time>
      </trkpt>
      <trkpt lat="44.43942" lon="5.89468">
        <ele>1286.4000244141</ele>
        <time>2016-05-06T11:04:04Z</time>
      </trkpt>
      <trkpt lat="44.43939" lon="5.89464">
        <ele>1287.4000244141</ele>
        <time>2016-05-06T11:04:08Z</time>
      </trkpt>
      <trkpt lat="44.43936" lon="5.89461">
        <ele>1288.4000244141</ele>
        <time>2016-05-06T11:04:11Z</time>
      </trkpt>
      <trkpt lat="44.43932" lon="5.89455">
        <ele>1288.4000244141</ele>
        <time>2016-05-06T11:04:16Z</time>
      </trkpt>
      <trkpt lat="44.4393" lon="5.89453">
        <ele>1288.8000488281</ele>
        <time>2016-05-06T11:04:18Z</time>
      </trkpt>
      <trkpt lat="44.43927" lon="5.89449">
        <ele>1289.1999511719</ele>
        <time>2016-05-06T11:04:21Z</time>
      </trkpt>
      <trkpt lat="44.43923" lon="5.89445">
        <ele>1290</ele>
        <time>2016-05-06T11:04:25Z</time>
      </trkpt>
      <trkpt lat="44.43921" lon="5.89441">
        <ele>1290.4000244141</ele>
        <time>2016-05-06T11:04:28Z</time>
      </trkpt>
      <trkpt lat="44.43916" lon="5.89432">
        <ele>1291</ele>
        <time>2016-05-06T11:04:35Z</time>
      </trkpt>
      <trkpt lat="44.43916" lon="5.89429">
        <ele>1291</ele>
        <time>2016-05-06T11:04:37Z</time>
      </trkpt>
      <trkpt lat="44.43916" lon="5.89425">
        <ele>1291.8000488281</ele>
        <time>2016-05-06T11:04:39Z</time>
      </trkpt>
      <trkpt lat="44.43916" lon="5.89423">
        <ele>1291.8000488281</ele>
        <time>2016-05-06T11:04:40Z</time>
      </trkpt>
      <trkpt lat="44.43918" lon="5.89419">
        <ele>1292.1999511719</ele>
        <time>2016-05-06T11:04:43Z</time>
      </trkpt>
      <trkpt lat="44.43918" lon="5.89417">
        <ele>1292.1999511719</ele>
        <time>2016-05-06T11:04:44Z</time>
      </trkpt>
      <trkpt lat="44.4392" lon="5.89413">
        <ele>1293.1999511719</ele>
        <time>2016-05-06T11:04:46Z</time>
      </trkpt>
      <trkpt lat="44.43924" lon="5.89406">
        <ele>1294</ele>
        <time>2016-05-06T11:04:50Z</time>
      </trkpt>
      <trkpt lat="44.43927" lon="5.89401">
        <ele>1294.8000488281</ele>
        <time>2016-05-06T11:04:53Z</time>
      </trkpt>
      <trkpt lat="44.43927" lon="5.89399">
        <ele>1294.8000488281</ele>
        <time>2016-05-06T11:04:54Z</time>
      </trkpt>
      <trkpt lat="44.43933" lon="5.89391">
        <ele>1294.8000488281</ele>
        <time>2016-05-06T11:05:01Z</time>
      </trkpt>
      <trkpt lat="44.43937" lon="5.89387">
        <ele>1295.1999511719</ele>
        <time>2016-05-06T11:05:04Z</time>
      </trkpt>
      <trkpt lat="44.4394" lon="5.89383">
        <ele>1296</ele>
        <time>2016-05-06T11:05:07Z</time>
      </trkpt>
      <trkpt lat="44.43944" lon="5.89379">
        <ele>1296.4000244141</ele>
        <time>2016-05-06T11:05:10Z</time>
      </trkpt>
      <trkpt lat="44.4395" lon="5.89374">
        <ele>1296.8000488281</ele>
        <time>2016-05-06T11:05:14Z</time>
      </trkpt>
      <trkpt lat="44.43955" lon="5.89368">
        <ele>1296.8000488281</ele>
        <time>2016-05-06T11:05:18Z</time>
      </trkpt>
      <trkpt lat="44.43959" lon="5.89362">
        <ele>1297.8000488281</ele>
        <time>2016-05-06T11:05:21Z</time>
      </trkpt>
      <trkpt lat="44.43961" lon="5.89357">
        <ele>1298.1999511719</ele>
        <time>2016-05-06T11:05:24Z</time>
      </trkpt>
      <trkpt lat="44.43966" lon="5.89353">
        <ele>1299</ele>
        <time>2016-05-06T11:05:28Z</time>
      </trkpt>
      <trkpt lat="44.43974" lon="5.89349">
        <ele>1300</ele>
        <time>2016-05-06T11:05:35Z</time>
      </trkpt>
      <trkpt lat="44.43978" lon="5.89349">
        <ele>1300.4000244141</ele>
        <time>2016-05-06T11:05:38Z</time>
      </trkpt>
      <trkpt lat="44.43982" lon="5.89346">
        <ele>1301.1999511719</ele>
        <time>2016-05-06T11:05:42Z</time>
      </trkpt>
      <trkpt lat="44.43985" lon="5.89346">
        <ele>1301.1999511719</ele>
        <time>2016-05-06T11:05:44Z</time>
      </trkpt>
      <trkpt lat="44.43988" lon="5.89345">
        <ele>1302</ele>
        <time>2016-05-06T11:05:47Z</time>
      </trkpt>
      <trkpt lat="44.43995" lon="5.89342">
        <ele>1302.4000244141</ele>
        <time>2016-05-06T11:05:52Z</time>
      </trkpt>
      <trkpt lat="44.43999" lon="5.89341">
        <ele>1303.1999511719</ele>
        <time>2016-05-06T11:05:55Z</time>
      </trkpt>
      <trkpt lat="44.44008" lon="5.89335">
        <ele>1304</ele>
        <time>2016-05-06T11:06:05Z</time>
      </trkpt>
      <trkpt lat="44.44012" lon="5.89332">
        <ele>1304.4000244141</ele>
        <time>2016-05-06T11:06:09Z</time>
      </trkpt>
      <trkpt lat="44.44015" lon="5.89332">
        <ele>1305.4000244141</ele>
        <time>2016-05-06T11:06:12Z</time>
      </trkpt>
      <trkpt lat="44.44019" lon="5.89331">
        <ele>1306</ele>
        <time>2016-05-06T11:06:15Z</time>
      </trkpt>
      <trkpt lat="44.44021" lon="5.8933">
        <ele>1306</ele>
        <time>2016-05-06T11:06:17Z</time>
      </trkpt>
      <trkpt lat="44.44022" lon="5.89327">
        <ele>1307</ele>
        <time>2016-05-06T11:06:19Z</time>
      </trkpt>
      <trkpt lat="44.44025" lon="5.89323">
        <ele>1307.4000244141</ele>
        <time>2016-05-06T11:06:22Z</time>
      </trkpt>
      <trkpt lat="44.44025" lon="5.8932">
        <ele>1307.4000244141</ele>
        <time>2016-05-06T11:06:24Z</time>
      </trkpt>
      <trkpt lat="44.44026" lon="5.89312">
        <ele>1308</ele>
        <time>2016-05-06T11:06:29Z</time>
      </trkpt>
      <trkpt lat="44.44027" lon="5.89305">
        <ele>1308.8000488281</ele>
        <time>2016-05-06T11:06:33Z</time>
      </trkpt>
      <trkpt lat="44.44027" lon="5.89299">
        <ele>1309.1999511719</ele>
        <time>2016-05-06T11:06:37Z</time>
      </trkpt>
      <trkpt lat="44.44028" lon="5.89296">
        <ele>1309.8000488281</ele>
        <time>2016-05-06T11:06:40Z</time>
      </trkpt>
      <trkpt lat="44.4403" lon="5.89292">
        <ele>1309.8000488281</ele>
        <time>2016-05-06T11:06:44Z</time>
      </trkpt>
      <trkpt lat="44.44035" lon="5.89274">
        <ele>1310.5999755859</ele>
        <time>2016-05-06T11:06:54Z</time>
      </trkpt>
      <trkpt lat="44.44036" lon="5.89271">
        <ele>1310.5999755859</ele>
        <time>2016-05-06T11:06:56Z</time>
      </trkpt>
      <trkpt lat="44.44037" lon="5.8927">
        <ele>1311.1999511719</ele>
        <time>2016-05-06T11:06:57Z</time>
      </trkpt>
      <trkpt lat="44.44041" lon="5.89265">
        <ele>1312</ele>
        <time>2016-05-06T11:07:01Z</time>
      </trkpt>
      <trkpt lat="44.44046" lon="5.89258">
        <ele>1313</ele>
        <time>2016-05-06T11:07:08Z</time>
      </trkpt>
      <trkpt lat="44.44049" lon="5.89255">
        <ele>1313.4000244141</ele>
        <time>2016-05-06T11:07:11Z</time>
      </trkpt>
      <trkpt lat="44.44054" lon="5.89253">
        <ele>1314.1999511719</ele>
        <time>2016-05-06T11:07:15Z</time>
      </trkpt>
      <trkpt lat="44.44058" lon="5.89251">
        <ele>1314.1999511719</ele>
        <time>2016-05-06T11:07:19Z</time>
      </trkpt>
      <trkpt lat="44.44062" lon="5.89248">
        <ele>1315</ele>
        <time>2016-05-06T11:07:22Z</time>
      </trkpt>
      <trkpt lat="44.44068" lon="5.89245">
        <ele>1316</ele>
        <time>2016-05-06T11:07:26Z</time>
      </trkpt>
      <trkpt lat="44.44072" lon="5.89242">
        <ele>1316.4000244141</ele>
        <time>2016-05-06T11:07:29Z</time>
      </trkpt>
      <trkpt lat="44.44074" lon="5.89237">
        <ele>1316.8000488281</ele>
        <time>2016-05-06T11:07:33Z</time>
      </trkpt>
      <trkpt lat="44.44075" lon="5.89235">
        <ele>1316.8000488281</ele>
        <time>2016-05-06T11:07:34Z</time>
      </trkpt>
      <trkpt lat="44.44077" lon="5.89231">
        <ele>1317.1999511719</ele>
        <time>2016-05-06T11:07:37Z</time>
      </trkpt>
      <trkpt lat="44.44078" lon="5.89225">
        <ele>1318</ele>
        <time>2016-05-06T11:07:42Z</time>
      </trkpt>
      <trkpt lat="44.44081" lon="5.89217">
        <ele>1318.5999755859</ele>
        <time>2016-05-06T11:07:47Z</time>
      </trkpt>
      <trkpt lat="44.44083" lon="5.89209">
        <ele>1319</ele>
        <time>2016-05-06T11:07:51Z</time>
      </trkpt>
      <trkpt lat="44.44085" lon="5.89201">
        <ele>1320</ele>
        <time>2016-05-06T11:07:56Z</time>
      </trkpt>
      <trkpt lat="44.44086" lon="5.89193">
        <ele>1320</ele>
        <time>2016-05-06T11:08:00Z</time>
      </trkpt>
      <trkpt lat="44.44087" lon="5.8919">
        <ele>1321.4000244141</ele>
        <time>2016-05-06T11:08:02Z</time>
      </trkpt>
      <trkpt lat="44.44089" lon="5.89183">
        <ele>1322</ele>
        <time>2016-05-06T11:08:07Z</time>
      </trkpt>
      <trkpt lat="44.44089" lon="5.89182">
        <ele>1322</ele>
        <time>2016-05-06T11:08:08Z</time>
      </trkpt>
      <trkpt lat="44.4409" lon="5.89175">
        <ele>1323.4000244141</ele>
        <time>2016-05-06T11:08:13Z</time>
      </trkpt>
      <trkpt lat="44.44091" lon="5.89163">
        <ele>1323.4000244141</ele>
        <time>2016-05-06T11:08:20Z</time>
      </trkpt>
      <trkpt lat="44.44096" lon="5.89145">
        <ele>1323.4000244141</ele>
        <time>2016-05-06T11:08:28Z</time>
      </trkpt>
      <trkpt lat="44.44097" lon="5.89143">
        <ele>1323.8000488281</ele>
        <time>2016-05-06T11:08:29Z</time>
      </trkpt>
      <trkpt lat="44.44101" lon="5.89135">
        <ele>1324.8000488281</ele>
        <time>2016-05-06T11:08:33Z</time>
      </trkpt>
      <trkpt lat="44.44103" lon="5.89128">
        <ele>1324.8000488281</ele>
        <time>2016-05-06T11:08:37Z</time>
      </trkpt>
      <trkpt lat="44.44104" lon="5.89127">
        <ele>1325.1999511719</ele>
        <time>2016-05-06T11:08:38Z</time>
      </trkpt>
      <trkpt lat="44.44106" lon="5.89121">
        <ele>1325.8000488281</ele>
        <time>2016-05-06T11:08:42Z</time>
      </trkpt>
      <trkpt lat="44.44108" lon="5.89116">
        <ele>1325.8000488281</ele>
        <time>2016-05-06T11:08:46Z</time>
      </trkpt>
      <trkpt lat="44.44109" lon="5.89113">
        <ele>1326.1999511719</ele>
        <time>2016-05-06T11:08:48Z</time>
      </trkpt>
      <trkpt lat="44.4411" lon="5.89112">
        <ele>1326.8000488281</ele>
        <time>2016-05-06T11:08:49Z</time>
      </trkpt>
      <trkpt lat="44.44113" lon="5.89103">
        <ele>1328</ele>
        <time>2016-05-06T11:08:55Z</time>
      </trkpt>
      <trkpt lat="44.44113" lon="5.891">
        <ele>1328</ele>
        <time>2016-05-06T11:08:57Z</time>
      </trkpt>
      <trkpt lat="44.44114" lon="5.89095">
        <ele>1328.5999755859</ele>
        <time>2016-05-06T11:09:00Z</time>
      </trkpt>
      <trkpt lat="44.44112" lon="5.89089">
        <ele>1329.1999511719</ele>
        <time>2016-05-06T11:09:05Z</time>
      </trkpt>
      <trkpt lat="44.4411" lon="5.89086">
        <ele>1329.1999511719</ele>
        <time>2016-05-06T11:09:07Z</time>
      </trkpt>
      <trkpt lat="44.44109" lon="5.89084">
        <ele>1329.8000488281</ele>
        <time>2016-05-06T11:09:09Z</time>
      </trkpt>
      <trkpt lat="44.44106" lon="5.89078">
        <ele>1330.4000244141</ele>
        <time>2016-05-06T11:09:14Z</time>
      </trkpt>
      <trkpt lat="44.44103" lon="5.89076">
        <ele>1331</ele>
        <time>2016-05-06T11:09:18Z</time>
      </trkpt>
      <trkpt lat="44.44102" lon="5.89075">
        <ele>1331</ele>
        <time>2016-05-06T11:09:19Z</time>
      </trkpt>
      <trkpt lat="44.44098" lon="5.89074">
        <ele>1331.4000244141</ele>
        <time>2016-05-06T11:09:23Z</time>
      </trkpt>
      <trkpt lat="44.4409" lon="5.89076">
        <ele>1332.8000488281</ele>
        <time>2016-05-06T11:09:28Z</time>
      </trkpt>
      <trkpt lat="44.44086" lon="5.89077">
        <ele>1332.8000488281</ele>
        <time>2016-05-06T11:09:32Z</time>
      </trkpt>
      <trkpt lat="44.44085" lon="5.89078">
        <ele>1333.4000244141</ele>
        <time>2016-05-06T11:09:33Z</time>
      </trkpt>
      <trkpt lat="44.44078" lon="5.89081">
        <ele>1334</ele>
        <time>2016-05-06T11:09:37Z</time>
      </trkpt>
      <trkpt lat="44.4407" lon="5.89087">
        <ele>1334</ele>
        <time>2016-05-06T11:09:41Z</time>
      </trkpt>
      <trkpt lat="44.44069" lon="5.89088">
        <ele>1334.8000488281</ele>
        <time>2016-05-06T11:09:42Z</time>
      </trkpt>
      <trkpt lat="44.44064" lon="5.8909">
        <ele>1335.4000244141</ele>
        <time>2016-05-06T11:09:46Z</time>
      </trkpt>
      <trkpt lat="44.44062" lon="5.89093">
        <ele>1335.4000244141</ele>
        <time>2016-05-06T11:09:49Z</time>
      </trkpt>
      <trkpt lat="44.44059" lon="5.89093">
        <ele>1336</ele>
        <time>2016-05-06T11:09:51Z</time>
      </trkpt>
      <trkpt lat="44.44051" lon="5.891">
        <ele>1336.4000244141</ele>
        <time>2016-05-06T11:09:56Z</time>
      </trkpt>
      <trkpt lat="44.4405" lon="5.89101">
        <ele>1336.4000244141</ele>
        <time>2016-05-06T11:09:57Z</time>
      </trkpt>
      <trkpt lat="44.44046" lon="5.89105">
        <ele>1337</ele>
        <time>2016-05-06T11:10:00Z</time>
      </trkpt>
      <trkpt lat="44.44041" lon="5.89112">
        <ele>1337.4000244141</ele>
        <time>2016-05-06T11:10:05Z</time>
      </trkpt>
      <trkpt lat="44.4404" lon="5.89112">
        <ele>1337.4000244141</ele>
        <time>2016-05-06T11:10:06Z</time>
      </trkpt>
      <trkpt lat="44.44035" lon="5.89115">
        <ele>1338.1999511719</ele>
        <time>2016-05-06T11:10:10Z</time>
      </trkpt>
      <trkpt lat="44.44027" lon="5.89121">
        <ele>1338.8000488281</ele>
        <time>2016-05-06T11:10:14Z</time>
      </trkpt>
      <trkpt lat="44.44019" lon="5.89119">
        <ele>1340.4000244141</ele>
        <time>2016-05-06T11:10:19Z</time>
      </trkpt>
      <trkpt lat="44.44014" lon="5.89114">
        <ele>1340.4000244141</ele>
        <time>2016-05-06T11:10:22Z</time>
      </trkpt>
      <trkpt lat="44.44014" lon="5.89108">
        <ele>1340.8000488281</ele>
        <time>2016-05-06T11:10:24Z</time>
      </trkpt>
      <trkpt lat="44.44012" lon="5.89101">
        <ele>1340.8000488281</ele>
        <time>2016-05-06T11:10:27Z</time>
      </trkpt>
      <trkpt lat="44.44013" lon="5.89099">
        <ele>1341.4000244141</ele>
        <time>2016-05-06T11:10:28Z</time>
      </trkpt>
      <trkpt lat="44.44016" lon="5.89094">
        <ele>1342</ele>
        <time>2016-05-06T11:10:33Z</time>
      </trkpt>
      <trkpt lat="44.4402" lon="5.89089">
        <ele>1342.5999755859</ele>
        <time>2016-05-06T11:10:38Z</time>
      </trkpt>
      <trkpt lat="44.44024" lon="5.89083">
        <ele>1343.1999511719</ele>
        <time>2016-05-06T11:10:42Z</time>
      </trkpt>
      <trkpt lat="44.44033" lon="5.89072">
        <ele>1343.1999511719</ele>
        <time>2016-05-06T11:10:50Z</time>
      </trkpt>
      <trkpt lat="44.44033" lon="5.89071">
        <ele>1343.5999755859</ele>
        <time>2016-05-06T11:10:51Z</time>
      </trkpt>
      <trkpt lat="44.44033" lon="5.89061">
        <ele>1344.1999511719</ele>
        <time>2016-05-06T11:10:56Z</time>
      </trkpt>
      <trkpt lat="44.44033" lon="5.89058">
        <ele>1344.1999511719</ele>
        <time>2016-05-06T11:10:57Z</time>
      </trkpt>
      <trkpt lat="44.44031" lon="5.89052">
        <ele>1345.1999511719</ele>
        <time>2016-05-06T11:11:01Z</time>
      </trkpt>
      <trkpt lat="44.44025" lon="5.89047">
        <ele>1345.1999511719</ele>
        <time>2016-05-06T11:11:07Z</time>
      </trkpt>
      <trkpt lat="44.44021" lon="5.89047">
        <ele>1345.1999511719</ele>
        <time>2016-05-06T11:11:10Z</time>
      </trkpt>
      <trkpt lat="44.44016" lon="5.89046">
        <ele>1345.1999511719</ele>
        <time>2016-05-06T11:11:14Z</time>
      </trkpt>
      <trkpt lat="44.44009" lon="5.89043">
        <ele>1346.1999511719</ele>
        <time>2016-05-06T11:11:20Z</time>
      </trkpt>
      <trkpt lat="44.44005" lon="5.89041">
        <ele>1346.1999511719</ele>
        <time>2016-05-06T11:11:24Z</time>
      </trkpt>
      <trkpt lat="44.43993" lon="5.8904">
        <ele>1347.1999511719</ele>
        <time>2016-05-06T11:11:33Z</time>
      </trkpt>
      <trkpt lat="44.43982" lon="5.89041">
        <ele>1349.4000244141</ele>
        <time>2016-05-06T11:11:39Z</time>
      </trkpt>
      <trkpt lat="44.43974" lon="5.89041">
        <ele>1349.4000244141</ele>
        <time>2016-05-06T11:11:44Z</time>
      </trkpt>
      <trkpt lat="44.43964" lon="5.89041">
        <ele>1350.4000244141</ele>
        <time>2016-05-06T11:11:49Z</time>
      </trkpt>
      <trkpt lat="44.43957" lon="5.89044">
        <ele>1351.5999755859</ele>
        <time>2016-05-06T11:11:54Z</time>
      </trkpt>
      <trkpt lat="44.43953" lon="5.89046">
        <ele>1351.5999755859</ele>
        <time>2016-05-06T11:11:57Z</time>
      </trkpt>
      <trkpt lat="44.4395" lon="5.89048">
        <ele>1352.5999755859</ele>
        <time>2016-05-06T11:11:59Z</time>
      </trkpt>
      <trkpt lat="44.43943" lon="5.89052">
        <ele>1354.1999511719</ele>
        <time>2016-05-06T11:12:04Z</time>
      </trkpt>
      <trkpt lat="44.43939" lon="5.89054">
        <ele>1354.1999511719</ele>
        <time>2016-05-06T11:12:08Z</time>
      </trkpt>
      <trkpt lat="44.43938" lon="5.89055">
        <ele>1355</ele>
        <time>2016-05-06T11:12:09Z</time>
      </trkpt>
      <trkpt lat="44.43934" lon="5.89059">
        <ele>1356</ele>
        <time>2016-05-06T11:12:14Z</time>
      </trkpt>
      <trkpt lat="44.43933" lon="5.89059">
        <ele>1356</ele>
        <time>2016-05-06T11:12:15Z</time>
      </trkpt>
      <trkpt lat="44.43929" lon="5.89064">
        <ele>1356.5999755859</ele>
        <time>2016-05-06T11:12:19Z</time>
      </trkpt>
      <trkpt lat="44.43924" lon="5.89072">
        <ele>1357.8000488281</ele>
        <time>2016-05-06T11:12:23Z</time>
      </trkpt>
      <trkpt lat="44.43923" lon="5.89077">
        <ele>1358.4000244141</ele>
        <time>2016-05-06T11:12:28Z</time>
      </trkpt>
      <trkpt lat="44.43921" lon="5.89084">
        <ele>1359</ele>
        <time>2016-05-06T11:12:33Z</time>
      </trkpt>
      <trkpt lat="44.43921" lon="5.89087">
        <ele>1359</ele>
        <time>2016-05-06T11:12:35Z</time>
      </trkpt>
      <trkpt lat="44.43921" lon="5.8909">
        <ele>1359.4000244141</ele>
        <time>2016-05-06T11:12:37Z</time>
      </trkpt>
      <trkpt lat="44.43921" lon="5.89096">
        <ele>1359.4000244141</ele>
        <time>2016-05-06T11:12:40Z</time>
      </trkpt>
      <trkpt lat="44.43921" lon="5.891">
        <ele>1359.8000488281</ele>
        <time>2016-05-06T11:12:42Z</time>
      </trkpt>
      <trkpt lat="44.43922" lon="5.89104">
        <ele>1359.8000488281</ele>
        <time>2016-05-06T11:12:44Z</time>
      </trkpt>
      <trkpt lat="44.43921" lon="5.8911">
        <ele>1360.1999511719</ele>
        <time>2016-05-06T11:12:47Z</time>
      </trkpt>
      <trkpt lat="44.43921" lon="5.89117">
        <ele>1360.5999755859</ele>
        <time>2016-05-06T11:12:51Z</time>
      </trkpt>
      <trkpt lat="44.43921" lon="5.89125">
        <ele>1360.5999755859</ele>
        <time>2016-05-06T11:12:55Z</time>
      </trkpt>
      <trkpt lat="44.43921" lon="5.89127">
        <ele>1361</ele>
        <time>2016-05-06T11:12:56Z</time>
      </trkpt>
      <trkpt lat="44.43925" lon="5.89137">
        <ele>1361.5999755859</ele>
        <time>2016-05-06T11:13:01Z</time>
      </trkpt>
      <trkpt lat="44.43927" lon="5.89144">
        <ele>1362</ele>
        <time>2016-05-06T11:13:05Z</time>
      </trkpt>
      <trkpt lat="44.43928" lon="5.89146">
        <ele>1362</ele>
        <time>2016-05-06T11:13:06Z</time>
      </trkpt>
      <trkpt lat="44.4393" lon="5.89152">
        <ele>1362.5999755859</ele>
        <time>2016-05-06T11:13:10Z</time>
      </trkpt>
      <trkpt lat="44.43931" lon="5.89157">
        <ele>1362.5999755859</ele>
        <time>2016-05-06T11:13:13Z</time>
      </trkpt>
      <trkpt lat="44.43931" lon="5.89161">
        <ele>1363.1999511719</ele>
        <time>2016-05-06T11:13:15Z</time>
      </trkpt>
      <trkpt lat="44.4393" lon="5.89168">
        <ele>1363.8000488281</ele>
        <time>2016-05-06T11:13:19Z</time>
      </trkpt>
      <trkpt lat="44.4393" lon="5.89169">
        <ele>1363.8000488281</ele>
        <time>2016-05-06T11:13:20Z</time>
      </trkpt>
      <trkpt lat="44.43929" lon="5.89174">
        <ele>1363.8000488281</ele>
        <time>2016-05-06T11:13:23Z</time>
      </trkpt>
      <trkpt lat="44.43928" lon="5.89176">
        <ele>1364.1999511719</ele>
        <time>2016-05-06T11:13:24Z</time>
      </trkpt>
      <trkpt lat="44.43924" lon="5.89181">
        <ele>1364.1999511719</ele>
        <time>2016-05-06T11:13:28Z</time>
      </trkpt>
      <trkpt lat="44.43923" lon="5.89183">
        <ele>1364.8000488281</ele>
        <time>2016-05-06T11:13:29Z</time>
      </trkpt>
      <trkpt lat="44.43917" lon="5.8919">
        <ele>1365.5999755859</ele>
        <time>2016-05-06T11:13:33Z</time>
      </trkpt>
      <trkpt lat="44.43915" lon="5.89194">
        <ele>1365.5999755859</ele>
        <time>2016-05-06T11:13:35Z</time>
      </trkpt>
      <trkpt lat="44.43911" lon="5.89199">
        <ele>1366.1999511719</ele>
        <time>2016-05-06T11:13:38Z</time>
      </trkpt>
      <trkpt lat="44.43908" lon="5.89205">
        <ele>1366.1999511719</ele>
        <time>2016-05-06T11:13:42Z</time>
      </trkpt>
      <trkpt lat="44.43907" lon="5.89206">
        <ele>1367.5999755859</ele>
        <time>2016-05-06T11:13:43Z</time>
      </trkpt>
      <trkpt lat="44.43902" lon="5.89211">
        <ele>1368.1999511719</ele>
        <time>2016-05-06T11:13:47Z</time>
      </trkpt>
      <trkpt lat="44.43896" lon="5.89215">
        <ele>1368.1999511719</ele>
        <time>2016-05-06T11:13:51Z</time>
      </trkpt>
      <trkpt lat="44.43894" lon="5.89216">
        <ele>1368.8000488281</ele>
        <time>2016-05-06T11:13:52Z</time>
      </trkpt>
      <trkpt lat="44.43888" lon="5.89224">
        <ele>1369.1999511719</ele>
        <time>2016-05-06T11:13:57Z</time>
      </trkpt>
      <trkpt lat="44.43885" lon="5.89227">
        <ele>1369.1999511719</ele>
        <time>2016-05-06T11:13:59Z</time>
      </trkpt>
      <trkpt lat="44.43883" lon="5.8923">
        <ele>1369.8000488281</ele>
        <time>2016-05-06T11:14:01Z</time>
      </trkpt>
      <trkpt lat="44.43876" lon="5.89237">
        <ele>1369.8000488281</ele>
        <time>2016-05-06T11:14:06Z</time>
      </trkpt>
      <trkpt lat="44.43874" lon="5.89238">
        <ele>1370.4000244141</ele>
        <time>2016-05-06T11:14:07Z</time>
      </trkpt>
      <trkpt lat="44.43867" lon="5.89242">
        <ele>1371</ele>
        <time>2016-05-06T11:14:12Z</time>
      </trkpt>
      <trkpt lat="44.43864" lon="5.89243">
        <ele>1371</ele>
        <time>2016-05-06T11:14:15Z</time>
      </trkpt>
      <trkpt lat="44.43862" lon="5.89243">
        <ele>1372.4000244141</ele>
        <time>2016-05-06T11:14:17Z</time>
      </trkpt>
      <trkpt lat="44.43854" lon="5.89248">
        <ele>1373.5999755859</ele>
        <time>2016-05-06T11:14:22Z</time>
      </trkpt>
      <trkpt lat="44.43851" lon="5.89249">
        <ele>1373.5999755859</ele>
        <time>2016-05-06T11:14:24Z</time>
      </trkpt>
      <trkpt lat="44.43848" lon="5.8925">
        <ele>1374.1999511719</ele>
        <time>2016-05-06T11:14:27Z</time>
      </trkpt>
      <trkpt lat="44.43841" lon="5.89254">
        <ele>1375</ele>
        <time>2016-05-06T11:14:32Z</time>
      </trkpt>
      <trkpt lat="44.43829" lon="5.8926">
        <ele>1375.5999755859</ele>
        <time>2016-05-06T11:14:41Z</time>
      </trkpt>
      <trkpt lat="44.43823" lon="5.89264">
        <ele>1376</ele>
        <time>2016-05-06T11:14:45Z</time>
      </trkpt>
      <trkpt lat="44.43817" lon="5.89266">
        <ele>1376</ele>
        <time>2016-05-06T11:14:49Z</time>
      </trkpt>
      <trkpt lat="44.43816" lon="5.89267">
        <ele>1376.5999755859</ele>
        <time>2016-05-06T11:14:50Z</time>
      </trkpt>
      <trkpt lat="44.43808" lon="5.89266">
        <ele>1377.1999511719</ele>
        <time>2016-05-06T11:14:54Z</time>
      </trkpt>
      <trkpt lat="44.43807" lon="5.89267">
        <ele>1377.8000488281</ele>
        <time>2016-05-06T11:14:55Z</time>
      </trkpt>
      <trkpt lat="44.438" lon="5.8927">
        <ele>1378.4000244141</ele>
        <time>2016-05-06T11:14:59Z</time>
      </trkpt>
      <trkpt lat="44.43796" lon="5.89273">
        <ele>1378.4000244141</ele>
        <time>2016-05-06T11:15:01Z</time>
      </trkpt>
      <trkpt lat="44.43792" lon="5.89274">
        <ele>1379</ele>
        <time>2016-05-06T11:15:04Z</time>
      </trkpt>
      <trkpt lat="44.43785" lon="5.89275">
        <ele>1379.5999755859</ele>
        <time>2016-05-06T11:15:08Z</time>
      </trkpt>
      <trkpt lat="44.43784" lon="5.89275">
        <ele>1380.4000244141</ele>
        <time>2016-05-06T11:15:09Z</time>
      </trkpt>
      <trkpt lat="44.43771" lon="5.89278">
        <ele>1380.4000244141</ele>
        <time>2016-05-06T11:15:17Z</time>
      </trkpt>
      <trkpt lat="44.43762" lon="5.89279">
        <ele>1380.8000488281</ele>
        <time>2016-05-06T11:15:22Z</time>
      </trkpt>
      <trkpt lat="44.43754" lon="5.89279">
        <ele>1381.1999511719</ele>
        <time>2016-05-06T11:15:27Z</time>
      </trkpt>
      <trkpt lat="44.43752" lon="5.89279">
        <ele>1381.1999511719</ele>
        <time>2016-05-06T11:15:28Z</time>
      </trkpt>
      <trkpt lat="44.43745" lon="5.89282">
        <ele>1381.5999755859</ele>
        <time>2016-05-06T11:15:33Z</time>
      </trkpt>
      <trkpt lat="44.43739" lon="5.89284">
        <ele>1382.5999755859</ele>
        <time>2016-05-06T11:15:38Z</time>
      </trkpt>
      <trkpt lat="44.43736" lon="5.89285">
        <ele>1382.5999755859</ele>
        <time>2016-05-06T11:15:40Z</time>
      </trkpt>
      <trkpt lat="44.43724" lon="5.89293">
        <ele>1383.5999755859</ele>
        <time>2016-05-06T11:15:48Z</time>
      </trkpt>
      <trkpt lat="44.43722" lon="5.89295">
        <ele>1383.5999755859</ele>
        <time>2016-05-06T11:15:50Z</time>
      </trkpt>
      <trkpt lat="44.43717" lon="5.89299">
        <ele>1385.1999511719</ele>
        <time>2016-05-06T11:15:54Z</time>
      </trkpt>
      <trkpt lat="44.4371" lon="5.89304">
        <ele>1385.8000488281</ele>
        <time>2016-05-06T11:15:59Z</time>
      </trkpt>
      <trkpt lat="44.43708" lon="5.89306">
        <ele>1385.8000488281</ele>
        <time>2016-05-06T11:16:01Z</time>
      </trkpt>
      <trkpt lat="44.43705" lon="5.89309">
        <ele>1386.5999755859</ele>
        <time>2016-05-06T11:16:03Z</time>
      </trkpt>
      <trkpt lat="44.43699" lon="5.89315">
        <ele>1387.4000244141</ele>
        <time>2016-05-06T11:16:08Z</time>
      </trkpt>
      <trkpt lat="44.43694" lon="5.89323">
        <ele>1387.8000488281</ele>
        <time>2016-05-06T11:16:13Z</time>
      </trkpt>
      <trkpt lat="44.4369" lon="5.89327">
        <ele>1387.8000488281</ele>
        <time>2016-05-06T11:16:16Z</time>
      </trkpt>
      <trkpt lat="44.43688" lon="5.8933">
        <ele>1388.4000244141</ele>
        <time>2016-05-06T11:16:18Z</time>
      </trkpt>
      <trkpt lat="44.43682" lon="5.89336">
        <ele>1388.8000488281</ele>
        <time>2016-05-06T11:16:22Z</time>
      </trkpt>
      <trkpt lat="44.43675" lon="5.89343">
        <ele>1389.4000244141</ele>
        <time>2016-05-06T11:16:27Z</time>
      </trkpt>
      <trkpt lat="44.43671" lon="5.89348">
        <ele>1389.8000488281</ele>
        <time>2016-05-06T11:16:31Z</time>
      </trkpt>
      <trkpt lat="44.43666" lon="5.89354">
        <ele>1390.4000244141</ele>
        <time>2016-05-06T11:16:36Z</time>
      </trkpt>
      <trkpt lat="44.43662" lon="5.89358">
        <ele>1390.8000488281</ele>
        <time>2016-05-06T11:16:40Z</time>
      </trkpt>
      <trkpt lat="44.43654" lon="5.89366">
        <ele>1390.8000488281</ele>
        <time>2016-05-06T11:16:46Z</time>
      </trkpt>
      <trkpt lat="44.43653" lon="5.89367">
        <ele>1392.1999511719</ele>
        <time>2016-05-06T11:16:47Z</time>
      </trkpt>
      <trkpt lat="44.43646" lon="5.89373">
        <ele>1392.8000488281</ele>
        <time>2016-05-06T11:16:53Z</time>
      </trkpt>
      <trkpt lat="44.43645" lon="5.89374">
        <ele>1392.8000488281</ele>
        <time>2016-05-06T11:16:54Z</time>
      </trkpt>
      <trkpt lat="44.43638" lon="5.89379">
        <ele>1393.4000244141</ele>
        <time>2016-05-06T11:16:58Z</time>
      </trkpt>
      <trkpt lat="44.43631" lon="5.89382">
        <ele>1394</ele>
        <time>2016-05-06T11:17:03Z</time>
      </trkpt>
      <trkpt lat="44.43625" lon="5.89385">
        <ele>1394.4000244141</ele>
        <time>2016-05-06T11:17:07Z</time>
      </trkpt>
      <trkpt lat="44.43617" lon="5.8939">
        <ele>1394.4000244141</ele>
        <time>2016-05-06T11:17:12Z</time>
      </trkpt>
      <trkpt lat="44.4361" lon="5.89395">
        <ele>1394.8000488281</ele>
        <time>2016-05-06T11:17:17Z</time>
      </trkpt>
      <trkpt lat="44.43607" lon="5.89398">
        <ele>1394.8000488281</ele>
        <time>2016-05-06T11:17:19Z</time>
      </trkpt>
      <trkpt lat="44.43604" lon="5.89402">
        <ele>1396</ele>
        <time>2016-05-06T11:17:21Z</time>
      </trkpt>
      <trkpt lat="44.436" lon="5.8941">
        <ele>1396.8000488281</ele>
        <time>2016-05-06T11:17:26Z</time>
      </trkpt>
      <trkpt lat="44.43599" lon="5.89411">
        <ele>1396.8000488281</ele>
        <time>2016-05-06T11:17:27Z</time>
      </trkpt>
      <trkpt lat="44.43596" lon="5.89416">
        <ele>1397.4000244141</ele>
        <time>2016-05-06T11:17:30Z</time>
      </trkpt>
      <trkpt lat="44.43595" lon="5.89423">
        <ele>1397.4000244141</ele>
        <time>2016-05-06T11:17:34Z</time>
      </trkpt>
      <trkpt lat="44.43595" lon="5.89426">
        <ele>1398</ele>
        <time>2016-05-06T11:17:35Z</time>
      </trkpt>
      <trkpt lat="44.43594" lon="5.89438">
        <ele>1398.8000488281</ele>
        <time>2016-05-06T11:17:40Z</time>
      </trkpt>
      <trkpt lat="44.43594" lon="5.8944">
        <ele>1398.8000488281</ele>
        <time>2016-05-06T11:17:41Z</time>
      </trkpt>
      <trkpt lat="44.43594" lon="5.89448">
        <ele>1399.1999511719</ele>
        <time>2016-05-06T11:17:45Z</time>
      </trkpt>
      <trkpt lat="44.43593" lon="5.89454">
        <ele>1399.1999511719</ele>
        <time>2016-05-06T11:17:48Z</time>
      </trkpt>
      <trkpt lat="44.43593" lon="5.89456">
        <ele>1399.8000488281</ele>
        <time>2016-05-06T11:17:49Z</time>
      </trkpt>
      <trkpt lat="44.43591" lon="5.89464">
        <ele>1400.1999511719</ele>
        <time>2016-05-06T11:17:54Z</time>
      </trkpt>
      <trkpt lat="44.43589" lon="5.89471">
        <ele>1400.5999755859</ele>
        <time>2016-05-06T11:17:59Z</time>
      </trkpt>
      <trkpt lat="44.43587" lon="5.89475">
        <ele>1400.5999755859</ele>
        <time>2016-05-06T11:18:01Z</time>
      </trkpt>
      <trkpt lat="44.43583" lon="5.89481">
        <ele>1401.1999511719</ele>
        <time>2016-05-06T11:18:04Z</time>
      </trkpt>
      <trkpt lat="44.4358" lon="5.89489">
        <ele>1401.8000488281</ele>
        <time>2016-05-06T11:18:08Z</time>
      </trkpt>
      <trkpt lat="44.43578" lon="5.89492">
        <ele>1401.8000488281</ele>
        <time>2016-05-06T11:18:10Z</time>
      </trkpt>
      <trkpt lat="44.43576" lon="5.89498">
        <ele>1402.4000244141</ele>
        <time>2016-05-06T11:18:13Z</time>
      </trkpt>
      <trkpt lat="44.43569" lon="5.89505">
        <ele>1403</ele>
        <time>2016-05-06T11:18:18Z</time>
      </trkpt>
      <trkpt lat="44.43563" lon="5.89509">
        <ele>1404.1999511719</ele>
        <time>2016-05-06T11:18:22Z</time>
      </trkpt>
      <trkpt lat="44.43555" lon="5.89514">
        <ele>1404.1999511719</ele>
        <time>2016-05-06T11:18:26Z</time>
      </trkpt>
      <trkpt lat="44.43552" lon="5.89516">
        <ele>1404.5999755859</ele>
        <time>2016-05-06T11:18:27Z</time>
      </trkpt>
      <trkpt lat="44.43539" lon="5.8952">
        <ele>1405</ele>
        <time>2016-05-06T11:18:32Z</time>
      </trkpt>
      <trkpt lat="44.43536" lon="5.89521">
        <ele>1405</ele>
        <time>2016-05-06T11:18:33Z</time>
      </trkpt>
      <trkpt lat="44.4353" lon="5.89522">
        <ele>1405.8000488281</ele>
        <time>2016-05-06T11:18:36Z</time>
      </trkpt>
      <trkpt lat="44.4352" lon="5.89521">
        <ele>1405.8000488281</ele>
        <time>2016-05-06T11:18:41Z</time>
      </trkpt>
      <trkpt lat="44.43505" lon="5.89519">
        <ele>1405.8000488281</ele>
        <time>2016-05-06T11:18:48Z</time>
      </trkpt>
      <trkpt lat="44.435" lon="5.8952">
        <ele>1406.1999511719</ele>
        <time>2016-05-06T11:18:50Z</time>
      </trkpt>
      <trkpt lat="44.43488" lon="5.89531">
        <ele>1406.5999755859</ele>
        <time>2016-05-06T11:18:55Z</time>
      </trkpt>
      <trkpt lat="44.4348" lon="5.89551">
        <ele>1407</ele>
        <time>2016-05-06T11:19:00Z</time>
      </trkpt>
      <trkpt lat="44.4348" lon="5.89555">
        <ele>1407</ele>
        <time>2016-05-06T11:19:01Z</time>
      </trkpt>
      <trkpt lat="44.43475" lon="5.89571">
        <ele>1407.4000244141</ele>
        <time>2016-05-06T11:19:05Z</time>
      </trkpt>
      <trkpt lat="44.43468" lon="5.8958">
        <ele>1407.4000244141</ele>
        <time>2016-05-06T11:19:08Z</time>
      </trkpt>
      <trkpt lat="44.43467" lon="5.89583">
        <ele>1407.8000488281</ele>
        <time>2016-05-06T11:19:09Z</time>
      </trkpt>
      <trkpt lat="44.43454" lon="5.89598">
        <ele>1407.8000488281</ele>
        <time>2016-05-06T11:19:15Z</time>
      </trkpt>
      <trkpt lat="44.43447" lon="5.89608">
        <ele>1408.4000244141</ele>
        <time>2016-05-06T11:19:19Z</time>
      </trkpt>
      <trkpt lat="44.43443" lon="5.89612">
        <ele>1408.4000244141</ele>
        <time>2016-05-06T11:19:21Z</time>
      </trkpt>
      <trkpt lat="44.43431" lon="5.89619">
        <ele>1408.8000488281</ele>
        <time>2016-05-06T11:19:25Z</time>
      </trkpt>
      <trkpt lat="44.43419" lon="5.89623">
        <ele>1408.8000488281</ele>
        <time>2016-05-06T11:19:29Z</time>
      </trkpt>
      <trkpt lat="44.43412" lon="5.89624">
        <ele>1409.1999511719</ele>
        <time>2016-05-06T11:19:31Z</time>
      </trkpt>
      <trkpt lat="44.43402" lon="5.89623">
        <ele>1409.1999511719</ele>
        <time>2016-05-06T11:19:35Z</time>
      </trkpt>
      <trkpt lat="44.43399" lon="5.89623">
        <ele>1409.8000488281</ele>
        <time>2016-05-06T11:19:36Z</time>
      </trkpt>
      <trkpt lat="44.43386" lon="5.89622">
        <ele>1410.1999511719</ele>
        <time>2016-05-06T11:19:41Z</time>
      </trkpt>
      <trkpt lat="44.43378" lon="5.89622">
        <ele>1410.1999511719</ele>
        <time>2016-05-06T11:19:44Z</time>
      </trkpt>
      <trkpt lat="44.43363" lon="5.89617">
        <ele>1410.1999511719</ele>
        <time>2016-05-06T11:19:50Z</time>
      </trkpt>
      <trkpt lat="44.43334" lon="5.89614">
        <ele>1410.1999511719</ele>
        <time>2016-05-06T11:19:59Z</time>
      </trkpt>
      <trkpt lat="44.43316" lon="5.8962">
        <ele>1410.1999511719</ele>
        <time>2016-05-06T11:20:05Z</time>
      </trkpt>
      <trkpt lat="44.43295" lon="5.89628">
        <ele>1410.1999511719</ele>
        <time>2016-05-06T11:20:12Z</time>
      </trkpt>
      <trkpt lat="44.43276" lon="5.89629">
        <ele>1410.1999511719</ele>
        <time>2016-05-06T11:20:18Z</time>
      </trkpt>
      <trkpt lat="44.43254" lon="5.89636">
        <ele>1410.1999511719</ele>
        <time>2016-05-06T11:20:25Z</time>
      </trkpt>
      <trkpt lat="44.43245" lon="5.89639">
        <ele>1410.5999755859</ele>
        <time>2016-05-06T11:20:28Z</time>
      </trkpt>
      <trkpt lat="44.43231" lon="5.89643">
        <ele>1411.1999511719</ele>
        <time>2016-05-06T11:20:33Z</time>
      </trkpt>
      <trkpt lat="44.4322" lon="5.89644">
        <ele>1411.5999755859</ele>
        <time>2016-05-06T11:20:37Z</time>
      </trkpt>
      <trkpt lat="44.4321" lon="5.89646">
        <ele>1411.5999755859</ele>
        <time>2016-05-06T11:20:41Z</time>
      </trkpt>
      <trkpt lat="44.43208" lon="5.89647">
        <ele>1412.1999511719</ele>
        <time>2016-05-06T11:20:42Z</time>
      </trkpt>
      <trkpt lat="44.43195" lon="5.89653">
        <ele>1412.5999755859</ele>
        <time>2016-05-06T11:20:47Z</time>
      </trkpt>
      <trkpt lat="44.43192" lon="5.89655">
        <ele>1412.5999755859</ele>
        <time>2016-05-06T11:20:48Z</time>
      </trkpt>
      <trkpt lat="44.43167" lon="5.89666">
        <ele>1412.5999755859</ele>
        <time>2016-05-06T11:20:57Z</time>
      </trkpt>
      <trkpt lat="44.43154" lon="5.89667">
        <ele>1413</ele>
        <time>2016-05-06T11:21:01Z</time>
      </trkpt>
      <trkpt lat="44.43145" lon="5.89669">
        <ele>1413</ele>
        <time>2016-05-06T11:21:04Z</time>
      </trkpt>
      <trkpt lat="44.43142" lon="5.8967">
        <ele>1413.5999755859</ele>
        <time>2016-05-06T11:21:05Z</time>
      </trkpt>
      <trkpt lat="44.43127" lon="5.8967">
        <ele>1414</ele>
        <time>2016-05-06T11:21:10Z</time>
      </trkpt>
      <trkpt lat="44.43115" lon="5.89681">
        <ele>1414.4000244141</ele>
        <time>2016-05-06T11:21:15Z</time>
      </trkpt>
      <trkpt lat="44.43107" lon="5.89692">
        <ele>1414.8000488281</ele>
        <time>2016-05-06T11:21:19Z</time>
      </trkpt>
      <trkpt lat="44.431" lon="5.89707">
        <ele>1414.8000488281</ele>
        <time>2016-05-06T11:21:23Z</time>
      </trkpt>
      <trkpt lat="44.43087" lon="5.89737">
        <ele>1414.8000488281</ele>
        <time>2016-05-06T11:21:31Z</time>
      </trkpt>
      <trkpt lat="44.43082" lon="5.89742">
        <ele>1415.1999511719</ele>
        <time>2016-05-06T11:21:33Z</time>
      </trkpt>
      <trkpt lat="44.43068" lon="5.89753">
        <ele>1415.5999755859</ele>
        <time>2016-05-06T11:21:38Z</time>
      </trkpt>
      <trkpt lat="44.43065" lon="5.89755">
        <ele>1415.5999755859</ele>
        <time>2016-05-06T11:21:39Z</time>
      </trkpt>
      <trkpt lat="44.43055" lon="5.89757">
        <ele>1416.1999511719</ele>
        <time>2016-05-06T11:21:42Z</time>
      </trkpt>
      <trkpt lat="44.43046" lon="5.89756">
        <ele>1416.1999511719</ele>
        <time>2016-05-06T11:21:45Z</time>
      </trkpt>
      <trkpt lat="44.43039" lon="5.89754">
        <ele>1416.5999755859</ele>
        <time>2016-05-06T11:21:47Z</time>
      </trkpt>
      <trkpt lat="44.43027" lon="5.89751">
        <ele>1417</ele>
        <time>2016-05-06T11:21:51Z</time>
      </trkpt>
      <trkpt lat="44.43021" lon="5.8975">
        <ele>1417</ele>
        <time>2016-05-06T11:21:53Z</time>
      </trkpt>
      <trkpt lat="44.42995" lon="5.89739">
        <ele>1417</ele>
        <time>2016-05-06T11:22:03Z</time>
      </trkpt>
      <trkpt lat="44.42976" lon="5.89723">
        <ele>1417</ele>
        <time>2016-05-06T11:22:10Z</time>
      </trkpt>
      <trkpt lat="44.42962" lon="5.89721">
        <ele>1417.4000244141</ele>
        <time>2016-05-06T11:22:15Z</time>
      </trkpt>
      <trkpt lat="44.42955" lon="5.89722">
        <ele>1417.4000244141</ele>
        <time>2016-05-06T11:22:18Z</time>
      </trkpt>
      <trkpt lat="44.42948" lon="5.8972">
        <ele>1418</ele>
        <time>2016-05-06T11:22:21Z</time>
      </trkpt>
      <trkpt lat="44.42937" lon="5.89711">
        <ele>1418.8000488281</ele>
        <time>2016-05-06T11:22:26Z</time>
      </trkpt>
      <trkpt lat="44.42931" lon="5.89703">
        <ele>1418.8000488281</ele>
        <time>2016-05-06T11:22:29Z</time>
      </trkpt>
      <trkpt lat="44.42917" lon="5.897">
        <ele>1418.8000488281</ele>
        <time>2016-05-06T11:22:34Z</time>
      </trkpt>
      <trkpt lat="44.42911" lon="5.897">
        <ele>1419.5999755859</ele>
        <time>2016-05-06T11:22:36Z</time>
      </trkpt>
      <trkpt lat="44.42904" lon="5.897">
        <ele>1419.5999755859</ele>
        <time>2016-05-06T11:22:38Z</time>
      </trkpt>
      <trkpt lat="44.429" lon="5.89701">
        <ele>1419.5999755859</ele>
        <time>2016-05-06T11:22:39Z</time>
      </trkpt>
      <trkpt lat="44.42897" lon="5.89703">
        <ele>1420.4000244141</ele>
        <time>2016-05-06T11:22:40Z</time>
      </trkpt>
      <trkpt lat="44.42887" lon="5.89708">
        <ele>1420.4000244141</ele>
        <time>2016-05-06T11:22:44Z</time>
      </trkpt>
      <trkpt lat="44.4287" lon="5.8971">
        <ele>1421.1999511719</ele>
        <time>2016-05-06T11:22:50Z</time>
      </trkpt>
      <trkpt lat="44.42867" lon="5.89711">
        <ele>1421.1999511719</ele>
        <time>2016-05-06T11:22:51Z</time>
      </trkpt>
      <trkpt lat="44.42852" lon="5.8972">
        <ele>1421.8000488281</ele>
        <time>2016-05-06T11:22:55Z</time>
      </trkpt>
      <trkpt lat="44.42846" lon="5.89726">
        <ele>1421.8000488281</ele>
        <time>2016-05-06T11:22:57Z</time>
      </trkpt>
      <trkpt lat="44.42836" lon="5.89735">
        <ele>1422.4000244141</ele>
        <time>2016-05-06T11:23:00Z</time>
      </trkpt>
      <trkpt lat="44.42823" lon="5.89745">
        <ele>1422.4000244141</ele>
        <time>2016-05-06T11:23:04Z</time>
      </trkpt>
      <trkpt lat="44.4282" lon="5.89748">
        <ele>1422.8000488281</ele>
        <time>2016-05-06T11:23:05Z</time>
      </trkpt>
      <trkpt lat="44.42807" lon="5.8976">
        <ele>1423.4000244141</ele>
        <time>2016-05-06T11:23:09Z</time>
      </trkpt>
      <trkpt lat="44.42794" lon="5.89768">
        <ele>1423.4000244141</ele>
        <time>2016-05-06T11:23:13Z</time>
      </trkpt>
      <trkpt lat="44.42791" lon="5.89768">
        <ele>1424</ele>
        <time>2016-05-06T11:23:14Z</time>
      </trkpt>
      <trkpt lat="44.42775" lon="5.89766">
        <ele>1424</ele>
        <time>2016-05-06T11:23:19Z</time>
      </trkpt>
      <trkpt lat="44.42772" lon="5.89766">
        <ele>1424</ele>
        <time>2016-05-06T11:23:20Z</time>
      </trkpt>
      <trkpt lat="44.42748" lon="5.89756">
        <ele>1424</ele>
        <time>2016-05-06T11:23:29Z</time>
      </trkpt>
      <trkpt lat="44.4274" lon="5.89761">
        <ele>1424.5999755859</ele>
        <time>2016-05-06T11:23:32Z</time>
      </trkpt>
      <trkpt lat="44.42735" lon="5.89764">
        <ele>1424.5999755859</ele>
        <time>2016-05-06T11:23:34Z</time>
      </trkpt>
      <trkpt lat="44.42733" lon="5.89766">
        <ele>1424.5999755859</ele>
        <time>2016-05-06T11:23:35Z</time>
      </trkpt>
      <trkpt lat="44.42728" lon="5.89769">
        <ele>1425.5999755859</ele>
        <time>2016-05-06T11:23:37Z</time>
      </trkpt>
      <trkpt lat="44.42715" lon="5.8978">
        <ele>1426</ele>
        <time>2016-05-06T11:23:42Z</time>
      </trkpt>
      <trkpt lat="44.42711" lon="5.89785">
        <ele>1426</ele>
        <time>2016-05-06T11:23:44Z</time>
      </trkpt>
      <trkpt lat="44.42704" lon="5.89793">
        <ele>1426.5999755859</ele>
        <time>2016-05-06T11:23:47Z</time>
      </trkpt>
      <trkpt lat="44.42697" lon="5.89806">
        <ele>1427</ele>
        <time>2016-05-06T11:23:51Z</time>
      </trkpt>
      <trkpt lat="44.42695" lon="5.89809">
        <ele>1427</ele>
        <time>2016-05-06T11:23:52Z</time>
      </trkpt>
      <trkpt lat="44.42685" lon="5.89816">
        <ele>1427.4000244141</ele>
        <time>2016-05-06T11:23:56Z</time>
      </trkpt>
      <trkpt lat="44.42682" lon="5.89817">
        <ele>1427.4000244141</ele>
        <time>2016-05-06T11:23:57Z</time>
      </trkpt>
      <trkpt lat="44.42673" lon="5.89819">
        <ele>1428</ele>
        <time>2016-05-06T11:24:00Z</time>
      </trkpt>
      <trkpt lat="44.42659" lon="5.89821">
        <ele>1428.4000244141</ele>
        <time>2016-05-06T11:24:05Z</time>
      </trkpt>
      <trkpt lat="44.42657" lon="5.89822">
        <ele>1428.4000244141</ele>
        <time>2016-05-06T11:24:06Z</time>
      </trkpt>
      <trkpt lat="44.42646" lon="5.89826">
        <ele>1428.8000488281</ele>
        <time>2016-05-06T11:24:10Z</time>
      </trkpt>
      <trkpt lat="44.42635" lon="5.8983">
        <ele>1428.8000488281</ele>
        <time>2016-05-06T11:24:14Z</time>
      </trkpt>
      <trkpt lat="44.42614" lon="5.89829">
        <ele>1428.8000488281</ele>
        <time>2016-05-06T11:24:21Z</time>
      </trkpt>
      <trkpt lat="44.42593" lon="5.89826">
        <ele>1428.8000488281</ele>
        <time>2016-05-06T11:24:28Z</time>
      </trkpt>
      <trkpt lat="44.42574" lon="5.89828">
        <ele>1428.8000488281</ele>
        <time>2016-05-06T11:24:34Z</time>
      </trkpt>
      <trkpt lat="44.42548" lon="5.8983">
        <ele>1428.8000488281</ele>
        <time>2016-05-06T11:24:41Z</time>
      </trkpt>
      <trkpt lat="44.42526" lon="5.89836">
        <ele>1429.1999511719</ele>
        <time>2016-05-06T11:24:47Z</time>
      </trkpt>
      <trkpt lat="44.42511" lon="5.89838">
        <ele>1429.8000488281</ele>
        <time>2016-05-06T11:24:51Z</time>
      </trkpt>
      <trkpt lat="44.42501" lon="5.8984">
        <ele>1429.8000488281</ele>
        <time>2016-05-06T11:24:54Z</time>
      </trkpt>
      <trkpt lat="44.42494" lon="5.89842">
        <ele>1430.5999755859</ele>
        <time>2016-05-06T11:24:56Z</time>
      </trkpt>
      <trkpt lat="44.42478" lon="5.89841">
        <ele>1431.1999511719</ele>
        <time>2016-05-06T11:25:01Z</time>
      </trkpt>
      <trkpt lat="44.42463" lon="5.89833">
        <ele>1431.1999511719</ele>
        <time>2016-05-06T11:25:06Z</time>
      </trkpt>
      <trkpt lat="44.42442" lon="5.89814">
        <ele>1431.1999511719</ele>
        <time>2016-05-06T11:25:14Z</time>
      </trkpt>
      <trkpt lat="44.42425" lon="5.89802">
        <ele>1431.1999511719</ele>
        <time>2016-05-06T11:25:20Z</time>
      </trkpt>
      <trkpt lat="44.42423" lon="5.89801">
        <ele>1431.5999755859</ele>
        <time>2016-05-06T11:25:21Z</time>
      </trkpt>
      <trkpt lat="44.42405" lon="5.89806">
        <ele>1431.5999755859</ele>
        <time>2016-05-06T11:25:28Z</time>
      </trkpt>
      <trkpt lat="44.4239" lon="5.89812">
        <ele>1431.5999755859</ele>
        <time>2016-05-06T11:25:33Z</time>
      </trkpt>
      <trkpt lat="44.42384" lon="5.89815">
        <ele>1432</ele>
        <time>2016-05-06T11:25:35Z</time>
      </trkpt>
      <trkpt lat="44.42368" lon="5.89819">
        <ele>1432.5999755859</ele>
        <time>2016-05-06T11:25:40Z</time>
      </trkpt>
      <trkpt lat="44.42347" lon="5.8982">
        <ele>1433</ele>
        <time>2016-05-06T11:25:46Z</time>
      </trkpt>
      <trkpt lat="44.4233" lon="5.89812">
        <ele>1434</ele>
        <time>2016-05-06T11:25:51Z</time>
      </trkpt>
      <trkpt lat="44.42317" lon="5.898">
        <ele>1434.5999755859</ele>
        <time>2016-05-06T11:25:56Z</time>
      </trkpt>
      <trkpt lat="44.42308" lon="5.89794">
        <ele>1434.5999755859</ele>
        <time>2016-05-06T11:25:59Z</time>
      </trkpt>
      <trkpt lat="44.42305" lon="5.89791">
        <ele>1435</ele>
        <time>2016-05-06T11:26:00Z</time>
      </trkpt>
      <trkpt lat="44.42283" lon="5.89771">
        <ele>1435</ele>
        <time>2016-05-06T11:26:09Z</time>
      </trkpt>
      <trkpt lat="44.42282" lon="5.89766">
        <ele>1435.5999755859</ele>
        <time>2016-05-06T11:26:10Z</time>
      </trkpt>
      <trkpt lat="44.42279" lon="5.89758">
        <ele>1435.5999755859</ele>
        <time>2016-05-06T11:26:13Z</time>
      </trkpt>
      <trkpt lat="44.42277" lon="5.89758">
        <ele>1435.5999755859</ele>
        <time>2016-05-06T11:26:18Z</time>
      </trkpt>
      <trkpt lat="44.42276" lon="5.89756">
        <ele>1435.5999755859</ele>
        <time>2016-05-06T11:28:42Z</time>
      </trkpt>
      <trkpt lat="44.42277" lon="5.89753">
        <ele>1435.5999755859</ele>
        <time>2016-05-06T11:30:12Z</time>
      </trkpt>
      <trkpt lat="44.42278" lon="5.8975">
        <ele>1435.5999755859</ele>
        <time>2016-05-06T11:30:13Z</time>
      </trkpt>
      <trkpt lat="44.42279" lon="5.89725">
        <ele>1435.5999755859</ele>
        <time>2016-05-06T11:30:18Z</time>
      </trkpt>
      <trkpt lat="44.42279" lon="5.89685">
        <ele>1435.5999755859</ele>
        <time>2016-05-06T11:30:23Z</time>
      </trkpt>
      <trkpt lat="44.42277" lon="5.89678">
        <ele>1435.5999755859</ele>
        <time>2016-05-06T11:30:24Z</time>
      </trkpt>
      <trkpt lat="44.42273" lon="5.89673">
        <ele>1435</ele>
        <time>2016-05-06T11:30:25Z</time>
      </trkpt>
      <trkpt lat="44.42264" lon="5.89664">
        <ele>1435</ele>
        <time>2016-05-06T11:30:27Z</time>
      </trkpt>
      <trkpt lat="44.4226" lon="5.8965">
        <ele>1435</ele>
        <time>2016-05-06T11:30:29Z</time>
      </trkpt>
      <trkpt lat="44.42259" lon="5.8964">
        <ele>1433.8000488281</ele>
        <time>2016-05-06T11:30:30Z</time>
      </trkpt>
      <trkpt lat="44.42261" lon="5.89618">
        <ele>1433.8000488281</ele>
        <time>2016-05-06T11:30:32Z</time>
      </trkpt>
      <trkpt lat="44.42269" lon="5.8957">
        <ele>1432.8000488281</ele>
        <time>2016-05-06T11:30:36Z</time>
      </trkpt>
      <trkpt lat="44.42273" lon="5.8956">
        <ele>1432.8000488281</ele>
        <time>2016-05-06T11:30:37Z</time>
      </trkpt>
      <trkpt lat="44.42282" lon="5.89523">
        <ele>1431.4000244141</ele>
        <time>2016-05-06T11:30:41Z</time>
      </trkpt>
      <trkpt lat="44.42281" lon="5.89514">
        <ele>1429.5999755859</ele>
        <time>2016-05-06T11:30:42Z</time>
      </trkpt>
      <trkpt lat="44.42276" lon="5.89497">
        <ele>1429.5999755859</ele>
        <time>2016-05-06T11:30:44Z</time>
      </trkpt>
      <trkpt lat="44.42265" lon="5.89487">
        <ele>1427.5999755859</ele>
        <time>2016-05-06T11:30:46Z</time>
      </trkpt>
      <trkpt lat="44.42257" lon="5.89484">
        <ele>1425.5999755859</ele>
        <time>2016-05-06T11:30:47Z</time>
      </trkpt>
      <trkpt lat="44.42249" lon="5.89481">
        <ele>1425.5999755859</ele>
        <time>2016-05-06T11:30:48Z</time>
      </trkpt>
      <trkpt lat="44.42224" lon="5.89472">
        <ele>1423.4000244141</ele>
        <time>2016-05-06T11:30:51Z</time>
      </trkpt>
      <trkpt lat="44.42217" lon="5.89469">
        <ele>1423.4000244141</ele>
        <time>2016-05-06T11:30:52Z</time>
      </trkpt>
      <trkpt lat="44.42189" lon="5.89462">
        <ele>1421.8000488281</ele>
        <time>2016-05-06T11:30:56Z</time>
      </trkpt>
      <trkpt lat="44.42184" lon="5.8946">
        <ele>1421.8000488281</ele>
        <time>2016-05-06T11:30:57Z</time>
      </trkpt>
      <trkpt lat="44.42169" lon="5.89455">
        <ele>1420</ele>
        <time>2016-05-06T11:31:00Z</time>
      </trkpt>
      <trkpt lat="44.42162" lon="5.89456">
        <ele>1418.1999511719</ele>
        <time>2016-05-06T11:31:01Z</time>
      </trkpt>
      <trkpt lat="44.42134" lon="5.89468">
        <ele>1416.5999755859</ele>
        <time>2016-05-06T11:31:05Z</time>
      </trkpt>
      <trkpt lat="44.42128" lon="5.89466">
        <ele>1416.5999755859</ele>
        <time>2016-05-06T11:31:06Z</time>
      </trkpt>
      <trkpt lat="44.42122" lon="5.89462">
        <ele>1416.5999755859</ele>
        <time>2016-05-06T11:31:07Z</time>
      </trkpt>
      <trkpt lat="44.42104" lon="5.89444">
        <ele>1414.8000488281</ele>
        <time>2016-05-06T11:31:10Z</time>
      </trkpt>
      <trkpt lat="44.42093" lon="5.89428">
        <ele>1414.8000488281</ele>
        <time>2016-05-06T11:31:12Z</time>
      </trkpt>
      <trkpt lat="44.42083" lon="5.89411">
        <ele>1414.1999511719</ele>
        <time>2016-05-06T11:31:14Z</time>
      </trkpt>
      <trkpt lat="44.42076" lon="5.89389">
        <ele>1414.1999511719</ele>
        <time>2016-05-06T11:31:16Z</time>
      </trkpt>
      <trkpt lat="44.42068" lon="5.89357">
        <ele>1413.8000488281</ele>
        <time>2016-05-06T11:31:19Z</time>
      </trkpt>
      <trkpt lat="44.42062" lon="5.8935">
        <ele>1413.8000488281</ele>
        <time>2016-05-06T11:31:20Z</time>
      </trkpt>
      <trkpt lat="44.42042" lon="5.89345">
        <ele>1413.8000488281</ele>
        <time>2016-05-06T11:31:23Z</time>
      </trkpt>
      <trkpt lat="44.42035" lon="5.89348">
        <ele>1411.8000488281</ele>
        <time>2016-05-06T11:31:24Z</time>
      </trkpt>
      <trkpt lat="44.42024" lon="5.89354">
        <ele>1411.8000488281</ele>
        <time>2016-05-06T11:31:26Z</time>
      </trkpt>
      <trkpt lat="44.42019" lon="5.89353">
        <ele>1411.8000488281</ele>
        <time>2016-05-06T11:31:27Z</time>
      </trkpt>
      <trkpt lat="44.42013" lon="5.89352">
        <ele>1411</ele>
        <time>2016-05-06T11:31:28Z</time>
      </trkpt>
      <trkpt lat="44.42007" lon="5.89353">
        <ele>1411</ele>
        <time>2016-05-06T11:31:29Z</time>
      </trkpt>
      <trkpt lat="44.41996" lon="5.89361">
        <ele>1411</ele>
        <time>2016-05-06T11:31:31Z</time>
      </trkpt>
      <trkpt lat="44.41986" lon="5.89373">
        <ele>1410</ele>
        <time>2016-05-06T11:31:33Z</time>
      </trkpt>
      <trkpt lat="44.41978" lon="5.89389">
        <ele>1410</ele>
        <time>2016-05-06T11:31:35Z</time>
      </trkpt>
      <trkpt lat="44.41972" lon="5.89407">
        <ele>1409</ele>
        <time>2016-05-06T11:31:37Z</time>
      </trkpt>
      <trkpt lat="44.41965" lon="5.89423">
        <ele>1409</ele>
        <time>2016-05-06T11:31:39Z</time>
      </trkpt>
      <trkpt lat="44.4195" lon="5.8945">
        <ele>1409</ele>
        <time>2016-05-06T11:31:43Z</time>
      </trkpt>
      <trkpt lat="44.41946" lon="5.89455">
        <ele>1409</ele>
        <time>2016-05-06T11:31:44Z</time>
      </trkpt>
      <trkpt lat="44.4193" lon="5.89463">
        <ele>1409</ele>
        <time>2016-05-06T11:31:47Z</time>
      </trkpt>
      <trkpt lat="44.41924" lon="5.89464">
        <ele>1409</ele>
        <time>2016-05-06T11:31:48Z</time>
      </trkpt>
      <trkpt lat="44.41914" lon="5.89469">
        <ele>1409</ele>
        <time>2016-05-06T11:31:50Z</time>
      </trkpt>
      <trkpt lat="44.41911" lon="5.89474">
        <ele>1409</ele>
        <time>2016-05-06T11:31:51Z</time>
      </trkpt>
      <trkpt lat="44.41894" lon="5.89506">
        <ele>1409</ele>
        <time>2016-05-06T11:31:56Z</time>
      </trkpt>
      <trkpt lat="44.41882" lon="5.8952">
        <ele>1409</ele>
        <time>2016-05-06T11:31:59Z</time>
      </trkpt>
      <trkpt lat="44.41867" lon="5.8953">
        <ele>1409</ele>
        <time>2016-05-06T11:32:02Z</time>
      </trkpt>
      <trkpt lat="44.41834" lon="5.89545">
        <ele>1409</ele>
        <time>2016-05-06T11:32:08Z</time>
      </trkpt>
      <trkpt lat="44.4183" lon="5.8955">
        <ele>1409</ele>
        <time>2016-05-06T11:32:09Z</time>
      </trkpt>
      <trkpt lat="44.41821" lon="5.89561">
        <ele>1409</ele>
        <time>2016-05-06T11:32:11Z</time>
      </trkpt>
      <trkpt lat="44.41804" lon="5.89588">
        <ele>1409</ele>
        <time>2016-05-06T11:32:15Z</time>
      </trkpt>
      <trkpt lat="44.41785" lon="5.89633">
        <ele>1409</ele>
        <time>2016-05-06T11:32:20Z</time>
      </trkpt>
      <trkpt lat="44.41781" lon="5.89651">
        <ele>1409</ele>
        <time>2016-05-06T11:32:22Z</time>
      </trkpt>
      <trkpt lat="44.41772" lon="5.89673">
        <ele>1409</ele>
        <time>2016-05-06T11:32:25Z</time>
      </trkpt>
      <trkpt lat="44.41752" lon="5.89698">
        <ele>1409</ele>
        <time>2016-05-06T11:32:30Z</time>
      </trkpt>
      <trkpt lat="44.41748" lon="5.89703">
        <ele>1409</ele>
        <time>2016-05-06T11:32:31Z</time>
      </trkpt>
      <trkpt lat="44.41735" lon="5.89716">
        <ele>1409</ele>
        <time>2016-05-06T11:32:34Z</time>
      </trkpt>
      <trkpt lat="44.41702" lon="5.89755">
        <ele>1409</ele>
        <time>2016-05-06T11:32:42Z</time>
      </trkpt>
      <trkpt lat="44.41681" lon="5.8979">
        <ele>1409</ele>
        <time>2016-05-06T11:32:48Z</time>
      </trkpt>
      <trkpt lat="44.41677" lon="5.89795">
        <ele>1409</ele>
        <time>2016-05-06T11:32:49Z</time>
      </trkpt>
      <trkpt lat="44.41662" lon="5.89804">
        <ele>1409</ele>
        <time>2016-05-06T11:32:52Z</time>
      </trkpt>
      <trkpt lat="44.41645" lon="5.89811">
        <ele>1409</ele>
        <time>2016-05-06T11:32:56Z</time>
      </trkpt>
      <trkpt lat="44.41625" lon="5.8982">
        <ele>1408.1999511719</ele>
        <time>2016-05-06T11:33:00Z</time>
      </trkpt>
      <trkpt lat="44.41621" lon="5.89822">
        <ele>1406.8000488281</ele>
        <time>2016-05-06T11:33:01Z</time>
      </trkpt>
      <trkpt lat="44.41595" lon="5.89836">
        <ele>1406.8000488281</ele>
        <time>2016-05-06T11:33:06Z</time>
      </trkpt>
      <trkpt lat="44.41578" lon="5.89844">
        <ele>1406.8000488281</ele>
        <time>2016-05-06T11:33:09Z</time>
      </trkpt>
      <trkpt lat="44.41572" lon="5.89847">
        <ele>1404.4000244141</ele>
        <time>2016-05-06T11:33:10Z</time>
      </trkpt>
      <trkpt lat="44.41548" lon="5.89855">
        <ele>1401.5999755859</ele>
        <time>2016-05-06T11:33:15Z</time>
      </trkpt>
      <trkpt lat="44.41534" lon="5.89865">
        <ele>1401.5999755859</ele>
        <time>2016-05-06T11:33:18Z</time>
      </trkpt>
      <trkpt lat="44.41529" lon="5.89869">
        <ele>1398.1999511719</ele>
        <time>2016-05-06T11:33:19Z</time>
      </trkpt>
      <trkpt lat="44.41525" lon="5.89873">
        <ele>1394.5999755859</ele>
        <time>2016-05-06T11:33:20Z</time>
      </trkpt>
      <trkpt lat="44.4152" lon="5.89878">
        <ele>1394.5999755859</ele>
        <time>2016-05-06T11:33:21Z</time>
      </trkpt>
      <trkpt lat="44.41505" lon="5.8989">
        <ele>1391</ele>
        <time>2016-05-06T11:33:24Z</time>
      </trkpt>
      <trkpt lat="44.41494" lon="5.89896">
        <ele>1391</ele>
        <time>2016-05-06T11:33:26Z</time>
      </trkpt>
      <trkpt lat="44.41488" lon="5.89899">
        <ele>1391</ele>
        <time>2016-05-06T11:33:27Z</time>
      </trkpt>
      <trkpt lat="44.41477" lon="5.89905">
        <ele>1386.8000488281</ele>
        <time>2016-05-06T11:33:29Z</time>
      </trkpt>
      <trkpt lat="44.41456" lon="5.89914">
        <ele>1382.1999511719</ele>
        <time>2016-05-06T11:33:33Z</time>
      </trkpt>
      <trkpt lat="44.41451" lon="5.89916">
        <ele>1382.1999511719</ele>
        <time>2016-05-06T11:33:34Z</time>
      </trkpt>
      <trkpt lat="44.41433" lon="5.89917">
        <ele>1382.1999511719</ele>
        <time>2016-05-06T11:33:37Z</time>
      </trkpt>
      <trkpt lat="44.41427" lon="5.89918">
        <ele>1376.8000488281</ele>
        <time>2016-05-06T11:33:38Z</time>
      </trkpt>
      <trkpt lat="44.41402" lon="5.89924">
        <ele>1376.8000488281</ele>
        <time>2016-05-06T11:33:42Z</time>
      </trkpt>
      <trkpt lat="44.41396" lon="5.89925">
        <ele>1371</ele>
        <time>2016-05-06T11:33:43Z</time>
      </trkpt>
      <trkpt lat="44.41391" lon="5.89926">
        <ele>1371</ele>
        <time>2016-05-06T11:33:44Z</time>
      </trkpt>
      <trkpt lat="44.41373" lon="5.89923">
        <ele>1365.1999511719</ele>
        <time>2016-05-06T11:33:47Z</time>
      </trkpt>
      <trkpt lat="44.41342" lon="5.89913">
        <ele>1359.1999511719</ele>
        <time>2016-05-06T11:33:52Z</time>
      </trkpt>
      <trkpt lat="44.41336" lon="5.8991">
        <ele>1359.1999511719</ele>
        <time>2016-05-06T11:33:53Z</time>
      </trkpt>
      <trkpt lat="44.41321" lon="5.89899">
        <ele>1353.1999511719</ele>
        <time>2016-05-06T11:33:56Z</time>
      </trkpt>
      <trkpt lat="44.41306" lon="5.89892">
        <ele>1353.1999511719</ele>
        <time>2016-05-06T11:33:59Z</time>
      </trkpt>
      <trkpt lat="44.41297" lon="5.89888">
        <ele>1347.4000244141</ele>
        <time>2016-05-06T11:34:01Z</time>
      </trkpt>
      <trkpt lat="44.41281" lon="5.89883">
        <ele>1347.4000244141</ele>
        <time>2016-05-06T11:34:05Z</time>
      </trkpt>
      <trkpt lat="44.41278" lon="5.89882">
        <ele>1336.1999511719</ele>
        <time>2016-05-06T11:34:06Z</time>
      </trkpt>
      <trkpt lat="44.41262" lon="5.89879">
        <ele>1331.4000244141</ele>
        <time>2016-05-06T11:34:10Z</time>
      </trkpt>
      <trkpt lat="44.41257" lon="5.89879">
        <ele>1331.4000244141</ele>
        <time>2016-05-06T11:34:11Z</time>
      </trkpt>
      <trkpt lat="44.4124" lon="5.89881">
        <ele>1327</ele>
        <time>2016-05-06T11:34:15Z</time>
      </trkpt>
      <trkpt lat="44.41231" lon="5.89883">
        <ele>1327</ele>
        <time>2016-05-06T11:34:17Z</time>
      </trkpt>
      <trkpt lat="44.41216" lon="5.89886">
        <ele>1318</ele>
        <time>2016-05-06T11:34:20Z</time>
      </trkpt>
      <trkpt lat="44.41194" lon="5.89895">
        <ele>1313.8000488281</ele>
        <time>2016-05-06T11:34:24Z</time>
      </trkpt>
      <trkpt lat="44.41169" lon="5.89904">
        <ele>1309.4000244141</ele>
        <time>2016-05-06T11:34:29Z</time>
      </trkpt>
      <trkpt lat="44.41139" lon="5.89917">
        <ele>1300.1999511719</ele>
        <time>2016-05-06T11:34:34Z</time>
      </trkpt>
      <trkpt lat="44.41128" lon="5.8992">
        <ele>1300.1999511719</ele>
        <time>2016-05-06T11:34:36Z</time>
      </trkpt>
      <trkpt lat="44.41117" lon="5.89924">
        <ele>1295.5999755859</ele>
        <time>2016-05-06T11:34:38Z</time>
      </trkpt>
      <trkpt lat="44.41095" lon="5.89938">
        <ele>1295.5999755859</ele>
        <time>2016-05-06T11:34:42Z</time>
      </trkpt>
      <trkpt lat="44.4109" lon="5.89943">
        <ele>1295.5999755859</ele>
        <time>2016-05-06T11:34:43Z</time>
      </trkpt>
      <trkpt lat="44.41076" lon="5.89956">
        <ele>1295.5999755859</ele>
        <time>2016-05-06T11:34:46Z</time>
      </trkpt>
      <trkpt lat="44.41071" lon="5.89957">
        <ele>1290.5999755859</ele>
        <time>2016-05-06T11:34:47Z</time>
      </trkpt>
      <trkpt lat="44.4106" lon="5.89952">
        <ele>1290.5999755859</ele>
        <time>2016-05-06T11:34:49Z</time>
      </trkpt>
      <trkpt lat="44.41055" lon="5.89949">
        <ele>1290.5999755859</ele>
        <time>2016-05-06T11:34:50Z</time>
      </trkpt>
      <trkpt lat="44.41048" lon="5.89942">
        <ele>1284.8000488281</ele>
        <time>2016-05-06T11:34:52Z</time>
      </trkpt>
      <trkpt lat="44.41046" lon="5.89938">
        <ele>1284.8000488281</ele>
        <time>2016-05-06T11:34:53Z</time>
      </trkpt>
      <trkpt lat="44.41047" lon="5.89934">
        <ele>1284.8000488281</ele>
        <time>2016-05-06T11:34:54Z</time>
      </trkpt>
      <trkpt lat="44.4105" lon="5.8993">
        <ele>1284.8000488281</ele>
        <time>2016-05-06T11:34:56Z</time>
      </trkpt>
      <trkpt lat="44.41052" lon="5.89928">
        <ele>1273.8000488281</ele>
        <time>2016-05-06T11:34:57Z</time>
      </trkpt>
      <trkpt lat="44.41064" lon="5.89923">
        <ele>1273.8000488281</ele>
        <time>2016-05-06T11:35:01Z</time>
      </trkpt>
      <trkpt lat="44.41071" lon="5.89919">
        <ele>1263.4000244141</ele>
        <time>2016-05-06T11:35:03Z</time>
      </trkpt>
      <trkpt lat="44.41085" lon="5.89908">
        <ele>1258.1999511719</ele>
        <time>2016-05-06T11:35:07Z</time>
      </trkpt>
      <trkpt lat="44.41091" lon="5.89901">
        <ele>1258.1999511719</ele>
        <time>2016-05-06T11:35:09Z</time>
      </trkpt>
      <trkpt lat="44.41104" lon="5.89892">
        <ele>1257.8000488281</ele>
        <time>2016-05-06T11:35:13Z</time>
      </trkpt>
      <trkpt lat="44.41117" lon="5.89883">
        <ele>1257.8000488281</ele>
        <time>2016-05-06T11:35:17Z</time>
      </trkpt>
      <trkpt lat="44.4112" lon="5.89882">
        <ele>1257.1999511719</ele>
        <time>2016-05-06T11:35:18Z</time>
      </trkpt>
      <trkpt lat="44.41135" lon="5.89871">
        <ele>1256.8000488281</ele>
        <time>2016-05-06T11:35:23Z</time>
      </trkpt>
      <trkpt lat="44.41149" lon="5.89857">
        <ele>1257.1999511719</ele>
        <time>2016-05-06T11:35:28Z</time>
      </trkpt>
      <trkpt lat="44.41152" lon="5.89855">
        <ele>1257.4000244141</ele>
        <time>2016-05-06T11:35:29Z</time>
      </trkpt>
      <trkpt lat="44.41154" lon="5.89853">
        <ele>1257.4000244141</ele>
        <time>2016-05-06T11:35:30Z</time>
      </trkpt>
      <trkpt lat="44.41165" lon="5.89845">
        <ele>1257.5999755859</ele>
        <time>2016-05-06T11:35:34Z</time>
      </trkpt>
      <trkpt lat="44.41174" lon="5.89838">
        <ele>1257.8000488281</ele>
        <time>2016-05-06T11:35:38Z</time>
      </trkpt>
      <trkpt lat="44.41186" lon="5.89829">
        <ele>1258.8000488281</ele>
        <time>2016-05-06T11:35:43Z</time>
      </trkpt>
      <trkpt lat="44.41191" lon="5.89825">
        <ele>1258.8000488281</ele>
        <time>2016-05-06T11:35:45Z</time>
      </trkpt>
      <trkpt lat="44.41198" lon="5.8982">
        <ele>1259.1999511719</ele>
        <time>2016-05-06T11:35:48Z</time>
      </trkpt>
      <trkpt lat="44.41209" lon="5.89813">
        <ele>1259.5999755859</ele>
        <time>2016-05-06T11:35:52Z</time>
      </trkpt>
      <trkpt lat="44.41211" lon="5.89811">
        <ele>1259.5999755859</ele>
        <time>2016-05-06T11:35:53Z</time>
      </trkpt>
      <trkpt lat="44.41224" lon="5.89804">
        <ele>1260</ele>
        <time>2016-05-06T11:35:57Z</time>
      </trkpt>
      <trkpt lat="44.41232" lon="5.89798">
        <ele>1260</ele>
        <time>2016-05-06T11:36:00Z</time>
      </trkpt>
      <trkpt lat="44.41249" lon="5.8979">
        <ele>1260</ele>
        <time>2016-05-06T11:36:07Z</time>
      </trkpt>
      <trkpt lat="44.41261" lon="5.89787">
        <ele>1260</ele>
        <time>2016-05-06T11:36:13Z</time>
      </trkpt>
      <trkpt lat="44.41273" lon="5.89787">
        <ele>1260</ele>
        <time>2016-05-06T11:36:19Z</time>
      </trkpt>
      <trkpt lat="44.41288" lon="5.89785">
        <ele>1260.4000244141</ele>
        <time>2016-05-06T11:36:25Z</time>
      </trkpt>
      <trkpt lat="44.413" lon="5.89787">
        <ele>1261</ele>
        <time>2016-05-06T11:36:29Z</time>
      </trkpt>
      <trkpt lat="44.41305" lon="5.89787">
        <ele>1261</ele>
        <time>2016-05-06T11:36:31Z</time>
      </trkpt>
      <trkpt lat="44.41313" lon="5.89787">
        <ele>1261.8000488281</ele>
        <time>2016-05-06T11:36:34Z</time>
      </trkpt>
      <trkpt lat="44.41319" lon="5.89788">
        <ele>1261.8000488281</ele>
        <time>2016-05-06T11:36:37Z</time>
      </trkpt>
      <trkpt lat="44.41324" lon="5.89789">
        <ele>1262.4000244141</ele>
        <time>2016-05-06T11:36:39Z</time>
      </trkpt>
      <trkpt lat="44.4134" lon="5.89791">
        <ele>1262.4000244141</ele>
        <time>2016-05-06T11:36:46Z</time>
      </trkpt>
      <trkpt lat="44.41344" lon="5.89791">
        <ele>1262.8000488281</ele>
        <time>2016-05-06T11:36:48Z</time>
      </trkpt>
      <trkpt lat="44.41355" lon="5.8979">
        <ele>1263.1999511719</ele>
        <time>2016-05-06T11:36:53Z</time>
      </trkpt>
      <trkpt lat="44.41362" lon="5.89787">
        <ele>1263.1999511719</ele>
        <time>2016-05-06T11:36:56Z</time>
      </trkpt>
      <trkpt lat="44.41365" lon="5.89786">
        <ele>1263.5999755859</ele>
        <time>2016-05-06T11:36:57Z</time>
      </trkpt>
      <trkpt lat="44.41375" lon="5.89773">
        <ele>1264.4000244141</ele>
        <time>2016-05-06T11:37:02Z</time>
      </trkpt>
      <trkpt lat="44.41376" lon="5.89769">
        <ele>1264.4000244141</ele>
        <time>2016-05-06T11:37:03Z</time>
      </trkpt>
      <trkpt lat="44.41378" lon="5.89757">
        <ele>1264.4000244141</ele>
        <time>2016-05-06T11:37:06Z</time>
      </trkpt>
      <trkpt lat="44.4138" lon="5.89748">
        <ele>1264.4000244141</ele>
        <time>2016-05-06T11:37:09Z</time>
      </trkpt>
      <trkpt lat="44.41383" lon="5.89727">
        <ele>1264.4000244141</ele>
        <time>2016-05-06T11:37:16Z</time>
      </trkpt>
      <trkpt lat="44.41391" lon="5.89706">
        <ele>1264.4000244141</ele>
        <time>2016-05-06T11:37:23Z</time>
      </trkpt>
      <trkpt lat="44.41406" lon="5.89692">
        <ele>1264.4000244141</ele>
        <time>2016-05-06T11:37:29Z</time>
      </trkpt>
      <trkpt lat="44.41408" lon="5.8969">
        <ele>1264.4000244141</ele>
        <time>2016-05-06T11:37:30Z</time>
      </trkpt>
      <trkpt lat="44.41424" lon="5.8968">
        <ele>1264.4000244141</ele>
        <time>2016-05-06T11:37:36Z</time>
      </trkpt>
      <trkpt lat="44.41442" lon="5.8967">
        <ele>1264.4000244141</ele>
        <time>2016-05-06T11:37:44Z</time>
      </trkpt>
      <trkpt lat="44.41453" lon="5.89655">
        <ele>1264.4000244141</ele>
        <time>2016-05-06T11:37:50Z</time>
      </trkpt>
      <trkpt lat="44.41451" lon="5.89638">
        <ele>1264.4000244141</ele>
        <time>2016-05-06T11:37:55Z</time>
      </trkpt>
      <trkpt lat="44.41448" lon="5.89624">
        <ele>1265</ele>
        <time>2016-05-06T11:37:59Z</time>
      </trkpt>
      <trkpt lat="44.41447" lon="5.8962">
        <ele>1265.4000244141</ele>
        <time>2016-05-06T11:38:00Z</time>
      </trkpt>
      <trkpt lat="44.41447" lon="5.89616">
        <ele>1266</ele>
        <time>2016-05-06T11:38:01Z</time>
      </trkpt>
      <trkpt lat="44.41447" lon="5.8961">
        <ele>1266</ele>
        <time>2016-05-06T11:38:03Z</time>
      </trkpt>
      <trkpt lat="44.4145" lon="5.89595">
        <ele>1266</ele>
        <time>2016-05-06T11:38:07Z</time>
      </trkpt>
      <trkpt lat="44.41451" lon="5.89589">
        <ele>1266</ele>
        <time>2016-05-06T11:38:09Z</time>
      </trkpt>
      <trkpt lat="44.41451" lon="5.89579">
        <ele>1266.4000244141</ele>
        <time>2016-05-06T11:38:12Z</time>
      </trkpt>
      <trkpt lat="44.41449" lon="5.89568">
        <ele>1266.4000244141</ele>
        <time>2016-05-06T11:38:15Z</time>
      </trkpt>
      <trkpt lat="44.41447" lon="5.89564">
        <ele>1266.8000488281</ele>
        <time>2016-05-06T11:38:16Z</time>
      </trkpt>
      <trkpt lat="44.41442" lon="5.89536">
        <ele>1266.8000488281</ele>
        <time>2016-05-06T11:38:23Z</time>
      </trkpt>
      <trkpt lat="44.41438" lon="5.89525">
        <ele>1267.4000244141</ele>
        <time>2016-05-06T11:38:26Z</time>
      </trkpt>
      <trkpt lat="44.41438" lon="5.89509">
        <ele>1267.8000488281</ele>
        <time>2016-05-06T11:38:30Z</time>
      </trkpt>
      <trkpt lat="44.41447" lon="5.89489">
        <ele>1268.1999511719</ele>
        <time>2016-05-06T11:38:36Z</time>
      </trkpt>
      <trkpt lat="44.41451" lon="5.89487">
        <ele>1268.1999511719</ele>
        <time>2016-05-06T11:38:37Z</time>
      </trkpt>
      <trkpt lat="44.41463" lon="5.8948">
        <ele>1268.5999755859</ele>
        <time>2016-05-06T11:38:41Z</time>
      </trkpt>
      <trkpt lat="44.4147" lon="5.89475">
        <ele>1268.5999755859</ele>
        <time>2016-05-06T11:38:44Z</time>
      </trkpt>
      <trkpt lat="44.41472" lon="5.89474">
        <ele>1269</ele>
        <time>2016-05-06T11:38:45Z</time>
      </trkpt>
      <trkpt lat="44.41476" lon="5.89474">
        <ele>1269</ele>
        <time>2016-05-06T11:38:46Z</time>
      </trkpt>
      <trkpt lat="44.41483" lon="5.89472">
        <ele>1269</ele>
        <time>2016-05-06T11:38:49Z</time>
      </trkpt>
      <trkpt lat="44.41484" lon="5.89472">
        <ele>1270.1999511719</ele>
        <time>2016-05-06T11:38:50Z</time>
      </trkpt>
      <trkpt lat="44.41496" lon="5.89469">
        <ele>1270.8000488281</ele>
        <time>2016-05-06T11:38:55Z</time>
      </trkpt>
      <trkpt lat="44.41497" lon="5.89467">
        <ele>1270.8000488281</ele>
        <time>2016-05-06T11:38:56Z</time>
      </trkpt>
      <trkpt lat="44.41507" lon="5.89459">
        <ele>1271.4000244141</ele>
        <time>2016-05-06T11:39:00Z</time>
      </trkpt>
      <trkpt lat="44.41509" lon="5.89459">
        <ele>1271.4000244141</ele>
        <time>2016-05-06T11:39:01Z</time>
      </trkpt>
      <trkpt lat="44.41518" lon="5.89456">
        <ele>1272</ele>
        <time>2016-05-06T11:39:05Z</time>
      </trkpt>
      <trkpt lat="44.41523" lon="5.89453">
        <ele>1272</ele>
        <time>2016-05-06T11:39:07Z</time>
      </trkpt>
      <trkpt lat="44.41525" lon="5.89452">
        <ele>1272</ele>
        <time>2016-05-06T11:39:08Z</time>
      </trkpt>
      <trkpt lat="44.41528" lon="5.89451">
        <ele>1272.8000488281</ele>
        <time>2016-05-06T11:39:09Z</time>
      </trkpt>
      <trkpt lat="44.41535" lon="5.89439">
        <ele>1273.4000244141</ele>
        <time>2016-05-06T11:39:14Z</time>
      </trkpt>
      <trkpt lat="44.41541" lon="5.89423">
        <ele>1273.4000244141</ele>
        <time>2016-05-06T11:39:18Z</time>
      </trkpt>
      <trkpt lat="44.41541" lon="5.89419">
        <ele>1273.8000488281</ele>
        <time>2016-05-06T11:39:19Z</time>
      </trkpt>
      <trkpt lat="44.41539" lon="5.89413">
        <ele>1273.8000488281</ele>
        <time>2016-05-06T11:39:21Z</time>
      </trkpt>
      <trkpt lat="44.41539" lon="5.89407">
        <ele>1274.1999511719</ele>
        <time>2016-05-06T11:39:23Z</time>
      </trkpt>
      <trkpt lat="44.41543" lon="5.8939">
        <ele>1274.1999511719</ele>
        <time>2016-05-06T11:39:29Z</time>
      </trkpt>
      <trkpt lat="44.41541" lon="5.8936">
        <ele>1274.1999511719</ele>
        <time>2016-05-06T11:39:37Z</time>
      </trkpt>
      <trkpt lat="44.41528" lon="5.89347">
        <ele>1274.5999755859</ele>
        <time>2016-05-06T11:39:42Z</time>
      </trkpt>
      <trkpt lat="44.41526" lon="5.89344">
        <ele>1274.5999755859</ele>
        <time>2016-05-06T11:39:43Z</time>
      </trkpt>
      <trkpt lat="44.41521" lon="5.89333">
        <ele>1275</ele>
        <time>2016-05-06T11:39:46Z</time>
      </trkpt>
      <trkpt lat="44.41518" lon="5.89321">
        <ele>1275</ele>
        <time>2016-05-06T11:39:49Z</time>
      </trkpt>
      <trkpt lat="44.41515" lon="5.89311">
        <ele>1275.5999755859</ele>
        <time>2016-05-06T11:39:51Z</time>
      </trkpt>
      <trkpt lat="44.41514" lon="5.8929">
        <ele>1275.5999755859</ele>
        <time>2016-05-06T11:39:55Z</time>
      </trkpt>
      <trkpt lat="44.41514" lon="5.89286">
        <ele>1276</ele>
        <time>2016-05-06T11:39:56Z</time>
      </trkpt>
      <trkpt lat="44.41517" lon="5.89263">
        <ele>1276.4000244141</ele>
        <time>2016-05-06T11:40:00Z</time>
      </trkpt>
      <trkpt lat="44.41518" lon="5.89257">
        <ele>1276.4000244141</ele>
        <time>2016-05-06T11:40:01Z</time>
      </trkpt>
      <trkpt lat="44.41528" lon="5.89219">
        <ele>1276.4000244141</ele>
        <time>2016-05-06T11:40:07Z</time>
      </trkpt>
      <trkpt lat="44.41541" lon="5.89201">
        <ele>1276.4000244141</ele>
        <time>2016-05-06T11:40:12Z</time>
      </trkpt>
      <trkpt lat="44.41564" lon="5.89178">
        <ele>1276.4000244141</ele>
        <time>2016-05-06T11:40:19Z</time>
      </trkpt>
      <trkpt lat="44.41591" lon="5.89147">
        <ele>1276.4000244141</ele>
        <time>2016-05-06T11:40:28Z</time>
      </trkpt>
      <trkpt lat="44.41594" lon="5.89142">
        <ele>1276.8000488281</ele>
        <time>2016-05-06T11:40:29Z</time>
      </trkpt>
      <trkpt lat="44.41596" lon="5.89136">
        <ele>1277.1999511719</ele>
        <time>2016-05-06T11:40:30Z</time>
      </trkpt>
      <trkpt lat="44.41597" lon="5.89125">
        <ele>1277.1999511719</ele>
        <time>2016-05-06T11:40:32Z</time>
      </trkpt>
      <trkpt lat="44.41597" lon="5.89118">
        <ele>1277.5999755859</ele>
        <time>2016-05-06T11:40:33Z</time>
      </trkpt>
      <trkpt lat="44.41592" lon="5.89097">
        <ele>1278.5999755859</ele>
        <time>2016-05-06T11:40:37Z</time>
      </trkpt>
      <trkpt lat="44.41593" lon="5.89091">
        <ele>1278.5999755859</ele>
        <time>2016-05-06T11:40:38Z</time>
      </trkpt>
      <trkpt lat="44.41599" lon="5.89074">
        <ele>1278.5999755859</ele>
        <time>2016-05-06T11:40:42Z</time>
      </trkpt>
      <trkpt lat="44.41603" lon="5.89047">
        <ele>1278.5999755859</ele>
        <time>2016-05-06T11:40:49Z</time>
      </trkpt>
      <trkpt lat="44.41595" lon="5.89023">
        <ele>1279</ele>
        <time>2016-05-06T11:40:55Z</time>
      </trkpt>
      <trkpt lat="44.41593" lon="5.89019">
        <ele>1279.4000244141</ele>
        <time>2016-05-06T11:40:56Z</time>
      </trkpt>
      <trkpt lat="44.41589" lon="5.89005">
        <ele>1279.8000488281</ele>
        <time>2016-05-06T11:40:59Z</time>
      </trkpt>
      <trkpt lat="44.41587" lon="5.88984">
        <ele>1280.5999755859</ele>
        <time>2016-05-06T11:41:03Z</time>
      </trkpt>
      <trkpt lat="44.41583" lon="5.88951">
        <ele>1280.5999755859</ele>
        <time>2016-05-06T11:41:09Z</time>
      </trkpt>
      <trkpt lat="44.41581" lon="5.8893">
        <ele>1281</ele>
        <time>2016-05-06T11:41:13Z</time>
      </trkpt>
      <trkpt lat="44.4158" lon="5.88918">
        <ele>1281</ele>
        <time>2016-05-06T11:41:15Z</time>
      </trkpt>
      <trkpt lat="44.41578" lon="5.88907">
        <ele>1281.8000488281</ele>
        <time>2016-05-06T11:41:17Z</time>
      </trkpt>
      <trkpt lat="44.41571" lon="5.88891">
        <ele>1282.1999511719</ele>
        <time>2016-05-06T11:41:20Z</time>
      </trkpt>
      <trkpt lat="44.41561" lon="5.88872">
        <ele>1282.5999755859</ele>
        <time>2016-05-06T11:41:24Z</time>
      </trkpt>
      <trkpt lat="44.41558" lon="5.88857">
        <ele>1282.5999755859</ele>
        <time>2016-05-06T11:41:27Z</time>
      </trkpt>
      <trkpt lat="44.41562" lon="5.88839">
        <ele>1282.5999755859</ele>
        <time>2016-05-06T11:41:31Z</time>
      </trkpt>
      <trkpt lat="44.41562" lon="5.88806">
        <ele>1282.5999755859</ele>
        <time>2016-05-06T11:41:37Z</time>
      </trkpt>
      <trkpt lat="44.4155" lon="5.88781">
        <ele>1282.5999755859</ele>
        <time>2016-05-06T11:41:42Z</time>
      </trkpt>
      <trkpt lat="44.4153" lon="5.88758">
        <ele>1282.5999755859</ele>
        <time>2016-05-06T11:41:48Z</time>
      </trkpt>
      <trkpt lat="44.41526" lon="5.88736">
        <ele>1282.5999755859</ele>
        <time>2016-05-06T11:41:52Z</time>
      </trkpt>
      <trkpt lat="44.41526" lon="5.88731">
        <ele>1282.5999755859</ele>
        <time>2016-05-06T11:41:53Z</time>
      </trkpt>
      <trkpt lat="44.41529" lon="5.88717">
        <ele>1282.5999755859</ele>
        <time>2016-05-06T11:41:56Z</time>
      </trkpt>
      <trkpt lat="44.4153" lon="5.88712">
        <ele>1282.5999755859</ele>
        <time>2016-05-06T11:41:59Z</time>
      </trkpt>
      <trkpt lat="44.41545" lon="5.88695">
        <ele>1282.5999755859</ele>
        <time>2016-05-06T11:42:08Z</time>
      </trkpt>
      <trkpt lat="44.41567" lon="5.88675">
        <ele>1282.5999755859</ele>
        <time>2016-05-06T11:42:12Z</time>
      </trkpt>
      <trkpt lat="44.41573" lon="5.8867">
        <ele>1282</ele>
        <time>2016-05-06T11:42:13Z</time>
      </trkpt>
      <trkpt lat="44.41595" lon="5.88653">
        <ele>1281.5999755859</ele>
        <time>2016-05-06T11:42:16Z</time>
      </trkpt>
      <trkpt lat="44.41603" lon="5.88647">
        <ele>1281.5999755859</ele>
        <time>2016-05-06T11:42:17Z</time>
      </trkpt>
      <trkpt lat="44.41628" lon="5.88629">
        <ele>1279.1999511719</ele>
        <time>2016-05-06T11:42:20Z</time>
      </trkpt>
      <trkpt lat="44.41654" lon="5.88611">
        <ele>1277.5999755859</ele>
        <time>2016-05-06T11:42:23Z</time>
      </trkpt>
      <trkpt lat="44.41662" lon="5.88605">
        <ele>1277.5999755859</ele>
        <time>2016-05-06T11:42:24Z</time>
      </trkpt>
      <trkpt lat="44.41687" lon="5.88589">
        <ele>1274.1999511719</ele>
        <time>2016-05-06T11:42:27Z</time>
      </trkpt>
      <trkpt lat="44.41711" lon="5.88574">
        <ele>1272.4000244141</ele>
        <time>2016-05-06T11:42:30Z</time>
      </trkpt>
      <trkpt lat="44.41745" lon="5.88557">
        <ele>1268.5999755859</ele>
        <time>2016-05-06T11:42:34Z</time>
      </trkpt>
      <trkpt lat="44.41759" lon="5.88553">
        <ele>1268.5999755859</ele>
        <time>2016-05-06T11:42:36Z</time>
      </trkpt>
      <trkpt lat="44.41768" lon="5.88554">
        <ele>1266.8000488281</ele>
        <time>2016-05-06T11:42:37Z</time>
      </trkpt>
      <trkpt lat="44.41796" lon="5.88548">
        <ele>1262.5999755859</ele>
        <time>2016-05-06T11:42:41Z</time>
      </trkpt>
      <trkpt lat="44.41802" lon="5.88544">
        <ele>1262.5999755859</ele>
        <time>2016-05-06T11:42:42Z</time>
      </trkpt>
      <trkpt lat="44.41811" lon="5.88529">
        <ele>1260.5999755859</ele>
        <time>2016-05-06T11:42:44Z</time>
      </trkpt>
      <trkpt lat="44.41815" lon="5.88521">
        <ele>1260.5999755859</ele>
        <time>2016-05-06T11:42:45Z</time>
      </trkpt>
      <trkpt lat="44.41819" lon="5.88511">
        <ele>1260.5999755859</ele>
        <time>2016-05-06T11:42:46Z</time>
      </trkpt>
      <trkpt lat="44.41825" lon="5.88491">
        <ele>1256.4000244141</ele>
        <time>2016-05-06T11:42:48Z</time>
      </trkpt>
      <trkpt lat="44.41829" lon="5.88474">
        <ele>1256.4000244141</ele>
        <time>2016-05-06T11:42:50Z</time>
      </trkpt>
      <trkpt lat="44.41833" lon="5.8846">
        <ele>1254.1999511719</ele>
        <time>2016-05-06T11:42:52Z</time>
      </trkpt>
      <trkpt lat="44.41836" lon="5.88454">
        <ele>1254.1999511719</ele>
        <time>2016-05-06T11:42:54Z</time>
      </trkpt>
      <trkpt lat="44.4184" lon="5.8845">
        <ele>1254.1999511719</ele>
        <time>2016-05-06T11:42:55Z</time>
      </trkpt>
      <trkpt lat="44.41849" lon="5.88441">
        <ele>1250.1999511719</ele>
        <time>2016-05-06T11:42:57Z</time>
      </trkpt>
      <trkpt lat="44.41861" lon="5.88434">
        <ele>1250.1999511719</ele>
        <time>2016-05-06T11:42:59Z</time>
      </trkpt>
      <trkpt lat="44.41892" lon="5.88424">
        <ele>1250.1999511719</ele>
        <time>2016-05-06T11:43:03Z</time>
      </trkpt>
      <trkpt lat="44.419" lon="5.88424">
        <ele>1250.1999511719</ele>
        <time>2016-05-06T11:43:04Z</time>
      </trkpt>
      <trkpt lat="44.41907" lon="5.88425">
        <ele>1248</ele>
        <time>2016-05-06T11:43:05Z</time>
      </trkpt>
      <trkpt lat="44.4192" lon="5.88429">
        <ele>1248</ele>
        <time>2016-05-06T11:43:07Z</time>
      </trkpt>
      <trkpt lat="44.41927" lon="5.88433">
        <ele>1243.4000244141</ele>
        <time>2016-05-06T11:43:08Z</time>
      </trkpt>
      <trkpt lat="44.41939" lon="5.88446">
        <ele>1243.4000244141</ele>
        <time>2016-05-06T11:43:10Z</time>
      </trkpt>
      <trkpt lat="44.41945" lon="5.88451">
        <ele>1243.4000244141</ele>
        <time>2016-05-06T11:43:11Z</time>
      </trkpt>
      <trkpt lat="44.4195" lon="5.88453">
        <ele>1243.4000244141</ele>
        <time>2016-05-06T11:43:12Z</time>
      </trkpt>
      <trkpt lat="44.41955" lon="5.88454">
        <ele>1241</ele>
        <time>2016-05-06T11:43:13Z</time>
      </trkpt>
      <trkpt lat="44.4196" lon="5.88453">
        <ele>1241</ele>
        <time>2016-05-06T11:43:14Z</time>
      </trkpt>
      <trkpt lat="44.41964" lon="5.88438">
        <ele>1238.5999755859</ele>
        <time>2016-05-06T11:43:16Z</time>
      </trkpt>
      <trkpt lat="44.41965" lon="5.88427">
        <ele>1238.5999755859</ele>
        <time>2016-05-06T11:43:17Z</time>
      </trkpt>
      <trkpt lat="44.41967" lon="5.88416">
        <ele>1238.5999755859</ele>
        <time>2016-05-06T11:43:18Z</time>
      </trkpt>
      <trkpt lat="44.41967" lon="5.88403">
        <ele>1238.5999755859</ele>
        <time>2016-05-06T11:43:19Z</time>
      </trkpt>
      <trkpt lat="44.41966" lon="5.8839">
        <ele>1236.1999511719</ele>
        <time>2016-05-06T11:43:20Z</time>
      </trkpt>
      <trkpt lat="44.41965" lon="5.88378">
        <ele>1236.1999511719</ele>
        <time>2016-05-06T11:43:21Z</time>
      </trkpt>
      <trkpt lat="44.41965" lon="5.88356">
        <ele>1231.4000244141</ele>
        <time>2016-05-06T11:43:23Z</time>
      </trkpt>
      <trkpt lat="44.41967" lon="5.88329">
        <ele>1231.4000244141</ele>
        <time>2016-05-06T11:43:26Z</time>
      </trkpt>
      <trkpt lat="44.4197" lon="5.88322">
        <ele>1229</ele>
        <time>2016-05-06T11:43:27Z</time>
      </trkpt>
      <trkpt lat="44.41977" lon="5.88312">
        <ele>1229</ele>
        <time>2016-05-06T11:43:29Z</time>
      </trkpt>
      <trkpt lat="44.41982" lon="5.88307">
        <ele>1224.4000244141</ele>
        <time>2016-05-06T11:43:30Z</time>
      </trkpt>
      <trkpt lat="44.41996" lon="5.88296">
        <ele>1224.4000244141</ele>
        <time>2016-05-06T11:43:32Z</time>
      </trkpt>
      <trkpt lat="44.4201" lon="5.88286">
        <ele>1222</ele>
        <time>2016-05-06T11:43:34Z</time>
      </trkpt>
      <trkpt lat="44.42033" lon="5.88272">
        <ele>1218</ele>
        <time>2016-05-06T11:43:37Z</time>
      </trkpt>
      <trkpt lat="44.42044" lon="5.88265">
        <ele>1218</ele>
        <time>2016-05-06T11:43:39Z</time>
      </trkpt>
      <trkpt lat="44.42048" lon="5.88261">
        <ele>1218</ele>
        <time>2016-05-06T11:43:40Z</time>
      </trkpt>
      <trkpt lat="44.42049" lon="5.88253">
        <ele>1213.5999755859</ele>
        <time>2016-05-06T11:43:41Z</time>
      </trkpt>
      <trkpt lat="44.42049" lon="5.88246">
        <ele>1213.5999755859</ele>
        <time>2016-05-06T11:43:42Z</time>
      </trkpt>
      <trkpt lat="44.42043" lon="5.88238">
        <ele>1211.8000488281</ele>
        <time>2016-05-06T11:43:44Z</time>
      </trkpt>
      <trkpt lat="44.42033" lon="5.8823">
        <ele>1211.8000488281</ele>
        <time>2016-05-06T11:43:46Z</time>
      </trkpt>
      <trkpt lat="44.42023" lon="5.88221">
        <ele>1208.1999511719</ele>
        <time>2016-05-06T11:43:48Z</time>
      </trkpt>
      <trkpt lat="44.42018" lon="5.88215">
        <ele>1208.1999511719</ele>
        <time>2016-05-06T11:43:49Z</time>
      </trkpt>
      <trkpt lat="44.42006" lon="5.88202">
        <ele>1207</ele>
        <time>2016-05-06T11:43:51Z</time>
      </trkpt>
      <trkpt lat="44.41992" lon="5.8818">
        <ele>1207</ele>
        <time>2016-05-06T11:43:54Z</time>
      </trkpt>
      <trkpt lat="44.41988" lon="5.88173">
        <ele>1204.4000244141</ele>
        <time>2016-05-06T11:43:55Z</time>
      </trkpt>
      <trkpt lat="44.41974" lon="5.88147">
        <ele>1201.5999755859</ele>
        <time>2016-05-06T11:43:58Z</time>
      </trkpt>
      <trkpt lat="44.4197" lon="5.88137">
        <ele>1201.5999755859</ele>
        <time>2016-05-06T11:43:59Z</time>
      </trkpt>
      <trkpt lat="44.41957" lon="5.88109">
        <ele>1198.1999511719</ele>
        <time>2016-05-06T11:44:02Z</time>
      </trkpt>
      <trkpt lat="44.4195" lon="5.88101">
        <ele>1198.1999511719</ele>
        <time>2016-05-06T11:44:03Z</time>
      </trkpt>
      <trkpt lat="44.41944" lon="5.88092">
        <ele>1198.1999511719</ele>
        <time>2016-05-06T11:44:04Z</time>
      </trkpt>
      <trkpt lat="44.4193" lon="5.88077">
        <ele>1196.4000244141</ele>
        <time>2016-05-06T11:44:06Z</time>
      </trkpt>
      <trkpt lat="44.41921" lon="5.88063">
        <ele>1196.4000244141</ele>
        <time>2016-05-06T11:44:08Z</time>
      </trkpt>
      <trkpt lat="44.41918" lon="5.88056">
        <ele>1192.5999755859</ele>
        <time>2016-05-06T11:44:09Z</time>
      </trkpt>
      <trkpt lat="44.41912" lon="5.88043">
        <ele>1192.5999755859</ele>
        <time>2016-05-06T11:44:11Z</time>
      </trkpt>
      <trkpt lat="44.41909" lon="5.88041">
        <ele>1189.1999511719</ele>
        <time>2016-05-06T11:44:12Z</time>
      </trkpt>
      <trkpt lat="44.41901" lon="5.88046">
        <ele>1189.1999511719</ele>
        <time>2016-05-06T11:44:15Z</time>
      </trkpt>
      <trkpt lat="44.41901" lon="5.8805">
        <ele>1185.8000488281</ele>
        <time>2016-05-06T11:44:16Z</time>
      </trkpt>
      <trkpt lat="44.41903" lon="5.88061">
        <ele>1185.8000488281</ele>
        <time>2016-05-06T11:44:18Z</time>
      </trkpt>
      <trkpt lat="44.41904" lon="5.88067">
        <ele>1184.4000244141</ele>
        <time>2016-05-06T11:44:19Z</time>
      </trkpt>
      <trkpt lat="44.41908" lon="5.881">
        <ele>1181.8000488281</ele>
        <time>2016-05-06T11:44:23Z</time>
      </trkpt>
      <trkpt lat="44.41914" lon="5.88116">
        <ele>1181.8000488281</ele>
        <time>2016-05-06T11:44:25Z</time>
      </trkpt>
      <trkpt lat="44.41918" lon="5.88123">
        <ele>1181.8000488281</ele>
        <time>2016-05-06T11:44:26Z</time>
      </trkpt>
      <trkpt lat="44.41922" lon="5.88129">
        <ele>1180.5999755859</ele>
        <time>2016-05-06T11:44:27Z</time>
      </trkpt>
      <trkpt lat="44.41927" lon="5.88138">
        <ele>1180.5999755859</ele>
        <time>2016-05-06T11:44:29Z</time>
      </trkpt>
      <trkpt lat="44.41928" lon="5.88141">
        <ele>1178.1999511719</ele>
        <time>2016-05-06T11:44:30Z</time>
      </trkpt>
      <trkpt lat="44.41929" lon="5.88144">
        <ele>1178.1999511719</ele>
        <time>2016-05-06T11:44:31Z</time>
      </trkpt>
      <trkpt lat="44.41932" lon="5.88152">
        <ele>1178.1999511719</ele>
        <time>2016-05-06T11:44:33Z</time>
      </trkpt>
      <trkpt lat="44.41934" lon="5.88158">
        <ele>1176.8000488281</ele>
        <time>2016-05-06T11:44:34Z</time>
      </trkpt>
      <trkpt lat="44.41936" lon="5.88162">
        <ele>1174.4000244141</ele>
        <time>2016-05-06T11:44:37Z</time>
      </trkpt>
      <trkpt lat="44.41937" lon="5.88161">
        <ele>1173</ele>
        <time>2016-05-06T11:44:40Z</time>
      </trkpt>
      <trkpt lat="44.41937" lon="5.8816">
        <ele>1171.8000488281</ele>
        <time>2016-05-06T11:44:44Z</time>
      </trkpt>
      <trkpt lat="44.41937" lon="5.88142">
        <ele>1171.8000488281</ele>
        <time>2016-05-06T11:44:51Z</time>
      </trkpt>
      <trkpt lat="44.41934" lon="5.88135">
        <ele>1171.8000488281</ele>
        <time>2016-05-06T11:44:54Z</time>
      </trkpt>
      <trkpt lat="44.41928" lon="5.8813">
        <ele>1171.8000488281</ele>
        <time>2016-05-06T11:45:02Z</time>
      </trkpt>
      <trkpt lat="44.41921" lon="5.88128">
        <ele>1171.1999511719</ele>
        <time>2016-05-06T11:45:05Z</time>
      </trkpt>
      <trkpt lat="44.41914" lon="5.88125">
        <ele>1171.1999511719</ele>
        <time>2016-05-06T11:45:07Z</time>
      </trkpt>
      <trkpt lat="44.41911" lon="5.88122">
        <ele>1170.5999755859</ele>
        <time>2016-05-06T11:45:08Z</time>
      </trkpt>
      <trkpt lat="44.41901" lon="5.88112">
        <ele>1170.5999755859</ele>
        <time>2016-05-06T11:45:11Z</time>
      </trkpt>
      <trkpt lat="44.41899" lon="5.88108">
        <ele>1169.1999511719</ele>
        <time>2016-05-06T11:45:12Z</time>
      </trkpt>
      <trkpt lat="44.41893" lon="5.88095">
        <ele>1168.1999511719</ele>
        <time>2016-05-06T11:45:15Z</time>
      </trkpt>
      <trkpt lat="44.41889" lon="5.88089">
        <ele>1168.1999511719</ele>
        <time>2016-05-06T11:45:17Z</time>
      </trkpt>
      <trkpt lat="44.41884" lon="5.88085">
        <ele>1166.4000244141</ele>
        <time>2016-05-06T11:45:19Z</time>
      </trkpt>
      <trkpt lat="44.41878" lon="5.88078">
        <ele>1166.4000244141</ele>
        <time>2016-05-06T11:45:20Z</time>
      </trkpt>
      <trkpt lat="44.41866" lon="5.88075">
        <ele>1165.4000244141</ele>
        <time>2016-05-06T11:45:23Z</time>
      </trkpt>
      <trkpt lat="44.4186" lon="5.88076">
        <ele>1164.4000244141</ele>
        <time>2016-05-06T11:45:24Z</time>
      </trkpt>
      <trkpt lat="44.41849" lon="5.88067">
        <ele>1162.1999511719</ele>
        <time>2016-05-06T11:45:27Z</time>
      </trkpt>
      <trkpt lat="44.41845" lon="5.88063">
        <ele>1162.1999511719</ele>
        <time>2016-05-06T11:45:28Z</time>
      </trkpt>
      <trkpt lat="44.41831" lon="5.8805">
        <ele>1161.1999511719</ele>
        <time>2016-05-06T11:45:31Z</time>
      </trkpt>
      <trkpt lat="44.41817" lon="5.88041">
        <ele>1158.5999755859</ele>
        <time>2016-05-06T11:45:34Z</time>
      </trkpt>
      <trkpt lat="44.41808" lon="5.88029">
        <ele>1158.5999755859</ele>
        <time>2016-05-06T11:45:37Z</time>
      </trkpt>
      <trkpt lat="44.41805" lon="5.88024">
        <ele>1157.1999511719</ele>
        <time>2016-05-06T11:45:38Z</time>
      </trkpt>
      <trkpt lat="44.41802" lon="5.8802">
        <ele>1157.1999511719</ele>
        <time>2016-05-06T11:45:39Z</time>
      </trkpt>
      <trkpt lat="44.41797" lon="5.88014">
        <ele>1155.8000488281</ele>
        <time>2016-05-06T11:45:41Z</time>
      </trkpt>
      <trkpt lat="44.41796" lon="5.8801">
        <ele>1155.8000488281</ele>
        <time>2016-05-06T11:45:43Z</time>
      </trkpt>
      <trkpt lat="44.41792" lon="5.88006">
        <ele>1154.5999755859</ele>
        <time>2016-05-06T11:45:48Z</time>
      </trkpt>
      <trkpt lat="44.41792" lon="5.88006">
        <ele>1153.1999511719</ele>
        <time>2016-05-06T11:45:51Z</time>
      </trkpt>
      <trkpt lat="44.41792" lon="5.88006">
        <ele>1151.4000244141</ele>
        <time>2016-05-06T11:45:55Z</time>
      </trkpt>
      <trkpt lat="44.41792" lon="5.88006">
        <ele>1150.8000488281</ele>
        <time>2016-05-06T11:45:58Z</time>
      </trkpt>
      <trkpt lat="44.41792" lon="5.88006">
        <ele>1149.8000488281</ele>
        <time>2016-05-06T11:46:02Z</time>
      </trkpt>
      <trkpt lat="44.41792" lon="5.88006">
        <ele>1149.4000244141</ele>
        <time>2016-05-06T11:46:05Z</time>
      </trkpt>
      <trkpt lat="44.41792" lon="5.88006">
        <ele>1149</ele>
        <time>2016-05-06T11:46:12Z</time>
      </trkpt>
      <trkpt lat="44.41793" lon="5.88006">
        <ele>1148</ele>
        <time>2016-05-06T11:46:16Z</time>
      </trkpt>
      <trkpt lat="44.41793" lon="5.88006">
        <ele>1147.5999755859</ele>
        <time>2016-05-06T11:46:19Z</time>
      </trkpt>
      <trkpt lat="44.41793" lon="5.88006">
        <ele>1147.5999755859</ele>
        <time>2016-05-06T11:46:21Z</time>
      </trkpt>
      <trkpt lat="44.41793" lon="5.88006">
        <ele>1147.1999511719</ele>
        <time>2016-05-06T11:46:23Z</time>
      </trkpt>
      <trkpt lat="44.41793" lon="5.88006">
        <ele>1146.8000488281</ele>
        <time>2016-05-06T11:46:26Z</time>
      </trkpt>
      <trkpt lat="44.41793" lon="5.88006">
        <ele>1146</ele>
        <time>2016-05-06T11:46:30Z</time>
      </trkpt>
      <trkpt lat="44.41793" lon="5.88006">
        <ele>1145.5999755859</ele>
        <time>2016-05-06T11:46:33Z</time>
      </trkpt>
      <trkpt lat="44.41793" lon="5.88006">
        <ele>1145.1999511719</ele>
        <time>2016-05-06T11:46:37Z</time>
      </trkpt>
      <trkpt lat="44.41793" lon="5.88006">
        <ele>1144.4000244141</ele>
        <time>2016-05-06T11:46:40Z</time>
      </trkpt>
      <trkpt lat="44.41793" lon="5.88002">
        <ele>1143.8000488281</ele>
        <time>2016-05-06T11:46:44Z</time>
      </trkpt>
      <trkpt lat="44.41795" lon="5.87997">
        <ele>1141.4000244141</ele>
        <time>2016-05-06T11:46:47Z</time>
      </trkpt>
      <trkpt lat="44.41795" lon="5.87989">
        <ele>1140.1999511719</ele>
        <time>2016-05-06T11:46:51Z</time>
      </trkpt>
      <trkpt lat="44.41797" lon="5.8798">
        <ele>1140.1999511719</ele>
        <time>2016-05-06T11:46:53Z</time>
      </trkpt>
      <trkpt lat="44.41798" lon="5.87976">
        <ele>1138.4000244141</ele>
        <time>2016-05-06T11:46:54Z</time>
      </trkpt>
      <trkpt lat="44.41799" lon="5.87961">
        <ele>1136.4000244141</ele>
        <time>2016-05-06T11:46:58Z</time>
      </trkpt>
      <trkpt lat="44.41798" lon="5.87957">
        <ele>1136.4000244141</ele>
        <time>2016-05-06T11:46:59Z</time>
      </trkpt>
      <trkpt lat="44.41795" lon="5.87948">
        <ele>1135.5999755859</ele>
        <time>2016-05-06T11:47:01Z</time>
      </trkpt>
      <trkpt lat="44.41791" lon="5.87929">
        <ele>1134.5999755859</ele>
        <time>2016-05-06T11:47:05Z</time>
      </trkpt>
      <trkpt lat="44.41791" lon="5.87924">
        <ele>1134.5999755859</ele>
        <time>2016-05-06T11:47:06Z</time>
      </trkpt>
      <trkpt lat="44.4179" lon="5.87915">
        <ele>1134.1999511719</ele>
        <time>2016-05-06T11:47:08Z</time>
      </trkpt>
      <trkpt lat="44.41787" lon="5.879">
        <ele>1134.1999511719</ele>
        <time>2016-05-06T11:47:11Z</time>
      </trkpt>
      <trkpt lat="44.41786" lon="5.87896">
        <ele>1132.8000488281</ele>
        <time>2016-05-06T11:47:12Z</time>
      </trkpt>
      <trkpt lat="44.41781" lon="5.87884">
        <ele>1132.1999511719</ele>
        <time>2016-05-06T11:47:15Z</time>
      </trkpt>
      <trkpt lat="44.41783" lon="5.87878">
        <ele>1132.1999511719</ele>
        <time>2016-05-06T11:47:17Z</time>
      </trkpt>
      <trkpt lat="44.41785" lon="5.87871">
        <ele>1130.8000488281</ele>
        <time>2016-05-06T11:47:19Z</time>
      </trkpt>
      <trkpt lat="44.41784" lon="5.87865">
        <ele>1129.4000244141</ele>
        <time>2016-05-06T11:47:22Z</time>
      </trkpt>
      <trkpt lat="44.41782" lon="5.87861">
        <ele>1128.1999511719</ele>
        <time>2016-05-06T11:47:26Z</time>
      </trkpt>
      <trkpt lat="44.4178" lon="5.87859">
        <ele>1128.1999511719</ele>
        <time>2016-05-06T11:47:28Z</time>
      </trkpt>
      <trkpt lat="44.4178" lon="5.87858">
        <ele>1127.5999755859</ele>
        <time>2016-05-06T11:47:29Z</time>
      </trkpt>
      <trkpt lat="44.4178" lon="5.87846">
        <ele>1126.1999511719</ele>
        <time>2016-05-06T11:47:33Z</time>
      </trkpt>
      <trkpt lat="44.4178" lon="5.87842">
        <ele>1126.1999511719</ele>
        <time>2016-05-06T11:47:34Z</time>
      </trkpt>
      <trkpt lat="44.41781" lon="5.87834">
        <ele>1125.5999755859</ele>
        <time>2016-05-06T11:47:36Z</time>
      </trkpt>
      <trkpt lat="44.41782" lon="5.87819">
        <ele>1124</ele>
        <time>2016-05-06T11:47:40Z</time>
      </trkpt>
      <trkpt lat="44.41782" lon="5.87818">
        <ele>1124</ele>
        <time>2016-05-06T11:47:41Z</time>
      </trkpt>
      <trkpt lat="44.4178" lon="5.8781">
        <ele>1123.1999511719</ele>
        <time>2016-05-06T11:47:43Z</time>
      </trkpt>
      <trkpt lat="44.4178" lon="5.87794">
        <ele>1123.1999511719</ele>
        <time>2016-05-06T11:47:46Z</time>
      </trkpt>
      <trkpt lat="44.4178" lon="5.87789">
        <ele>1121.4000244141</ele>
        <time>2016-05-06T11:47:47Z</time>
      </trkpt>
      <trkpt lat="44.41784" lon="5.87771">
        <ele>1120.1999511719</ele>
        <time>2016-05-06T11:47:50Z</time>
      </trkpt>
      <trkpt lat="44.41786" lon="5.8776">
        <ele>1120.1999511719</ele>
        <time>2016-05-06T11:47:52Z</time>
      </trkpt>
      <trkpt lat="44.41787" lon="5.87749">
        <ele>1119</ele>
        <time>2016-05-06T11:47:54Z</time>
      </trkpt>
      <trkpt lat="44.41787" lon="5.87734">
        <ele>1119</ele>
        <time>2016-05-06T11:47:57Z</time>
      </trkpt>
      <trkpt lat="44.41787" lon="5.87729">
        <ele>1116.8000488281</ele>
        <time>2016-05-06T11:47:58Z</time>
      </trkpt>
      <trkpt lat="44.41786" lon="5.87717">
        <ele>1114.8000488281</ele>
        <time>2016-05-06T11:48:02Z</time>
      </trkpt>
      <trkpt lat="44.41781" lon="5.87707">
        <ele>1114.8000488281</ele>
        <time>2016-05-06T11:48:08Z</time>
      </trkpt>
      <trkpt lat="44.41781" lon="5.87706">
        <ele>1112.8000488281</ele>
        <time>2016-05-06T11:48:09Z</time>
      </trkpt>
      <trkpt lat="44.41781" lon="5.87705">
        <ele>1111.8000488281</ele>
        <time>2016-05-06T11:48:13Z</time>
      </trkpt>
      <trkpt lat="44.41781" lon="5.87705">
        <ele>1110</ele>
        <time>2016-05-06T11:48:16Z</time>
      </trkpt>
      <trkpt lat="44.4178" lon="5.87712">
        <ele>1110</ele>
        <time>2016-05-06T11:48:19Z</time>
      </trkpt>
      <trkpt lat="44.41779" lon="5.87716">
        <ele>1109.1999511719</ele>
        <time>2016-05-06T11:48:20Z</time>
      </trkpt>
      <trkpt lat="44.4178" lon="5.87721">
        <ele>1109.1999511719</ele>
        <time>2016-05-06T11:48:21Z</time>
      </trkpt>
      <trkpt lat="44.41777" lon="5.87728">
        <ele>1108.4000244141</ele>
        <time>2016-05-06T11:48:23Z</time>
      </trkpt>
      <trkpt lat="44.41772" lon="5.87739">
        <ele>1107.4000244141</ele>
        <time>2016-05-06T11:48:26Z</time>
      </trkpt>
      <trkpt lat="44.41771" lon="5.87747">
        <ele>1107.4000244141</ele>
        <time>2016-05-06T11:48:28Z</time>
      </trkpt>
      <trkpt lat="44.41769" lon="5.87754">
        <ele>1106.5999755859</ele>
        <time>2016-05-06T11:48:30Z</time>
      </trkpt>
      <trkpt lat="44.41763" lon="5.87767">
        <ele>1103.8000488281</ele>
        <time>2016-05-06T11:48:33Z</time>
      </trkpt>
      <trkpt lat="44.41761" lon="5.87771">
        <ele>1103.8000488281</ele>
        <time>2016-05-06T11:48:34Z</time>
      </trkpt>
      <trkpt lat="44.41756" lon="5.87779">
        <ele>1102.1999511719</ele>
        <time>2016-05-06T11:48:37Z</time>
      </trkpt>
      <trkpt lat="44.41751" lon="5.87783">
        <ele>1102.1999511719</ele>
        <time>2016-05-06T11:48:39Z</time>
      </trkpt>
      <trkpt lat="44.41749" lon="5.87786">
        <ele>1099</ele>
        <time>2016-05-06T11:48:40Z</time>
      </trkpt>
      <trkpt lat="44.41744" lon="5.878">
        <ele>1096.1999511719</ele>
        <time>2016-05-06T11:48:44Z</time>
      </trkpt>
      <trkpt lat="44.41743" lon="5.87804">
        <ele>1096.1999511719</ele>
        <time>2016-05-06T11:48:45Z</time>
      </trkpt>
      <trkpt lat="44.41742" lon="5.87812">
        <ele>1094.8000488281</ele>
        <time>2016-05-06T11:48:47Z</time>
      </trkpt>
      <trkpt lat="44.41738" lon="5.87827">
        <ele>1092</ele>
        <time>2016-05-06T11:48:51Z</time>
      </trkpt>
      <trkpt lat="44.41736" lon="5.87833">
        <ele>1092</ele>
        <time>2016-05-06T11:48:52Z</time>
      </trkpt>
      <trkpt lat="44.41731" lon="5.87849">
        <ele>1091</ele>
        <time>2016-05-06T11:48:55Z</time>
      </trkpt>
      <trkpt lat="44.41727" lon="5.87863">
        <ele>1088.8000488281</ele>
        <time>2016-05-06T11:48:58Z</time>
      </trkpt>
      <trkpt lat="44.41722" lon="5.87876">
        <ele>1087.1999511719</ele>
        <time>2016-05-06T11:49:01Z</time>
      </trkpt>
      <trkpt lat="44.41719" lon="5.87887">
        <ele>1087.1999511719</ele>
        <time>2016-05-06T11:49:04Z</time>
      </trkpt>
      <trkpt lat="44.41718" lon="5.8789">
        <ele>1085.8000488281</ele>
        <time>2016-05-06T11:49:05Z</time>
      </trkpt>
      <trkpt lat="44.41714" lon="5.87901">
        <ele>1082.4000244141</ele>
        <time>2016-05-06T11:49:08Z</time>
      </trkpt>
      <trkpt lat="44.41713" lon="5.87911">
        <ele>1082.4000244141</ele>
        <time>2016-05-06T11:49:10Z</time>
      </trkpt>
      <trkpt lat="44.4171" lon="5.87918">
        <ele>1079.4000244141</ele>
        <time>2016-05-06T11:49:12Z</time>
      </trkpt>
      <trkpt lat="44.41709" lon="5.87929">
        <ele>1078</ele>
        <time>2016-05-06T11:49:15Z</time>
      </trkpt>
      <trkpt lat="44.41709" lon="5.87932">
        <ele>1078</ele>
        <time>2016-05-06T11:49:16Z</time>
      </trkpt>
      <trkpt lat="44.41703" lon="5.87943">
        <ele>1076</ele>
        <time>2016-05-06T11:49:19Z</time>
      </trkpt>
      <trkpt lat="44.41699" lon="5.87956">
        <ele>1074.8000488281</ele>
        <time>2016-05-06T11:49:22Z</time>
      </trkpt>
      <trkpt lat="44.41693" lon="5.87967">
        <ele>1072.4000244141</ele>
        <time>2016-05-06T11:49:26Z</time>
      </trkpt>
      <trkpt lat="44.41691" lon="5.87969">
        <ele>1072.4000244141</ele>
        <time>2016-05-06T11:49:28Z</time>
      </trkpt>
      <trkpt lat="44.4169" lon="5.87968">
        <ele>1071.1999511719</ele>
        <time>2016-05-06T11:49:30Z</time>
      </trkpt>
      <trkpt lat="44.41689" lon="5.87966">
        <ele>1068.8000488281</ele>
        <time>2016-05-06T11:49:33Z</time>
      </trkpt>
      <trkpt lat="44.41689" lon="5.87966">
        <ele>1067.5999755859</ele>
        <time>2016-05-06T11:49:36Z</time>
      </trkpt>
      <trkpt lat="44.41687" lon="5.87957">
        <ele>1067.5999755859</ele>
        <time>2016-05-06T11:49:41Z</time>
      </trkpt>
      <trkpt lat="44.41686" lon="5.8795">
        <ele>1067.5999755859</ele>
        <time>2016-05-06T11:49:43Z</time>
      </trkpt>
      <trkpt lat="44.41686" lon="5.87945">
        <ele>1067.1999511719</ele>
        <time>2016-05-06T11:49:44Z</time>
      </trkpt>
      <trkpt lat="44.41689" lon="5.87928">
        <ele>1066.8000488281</ele>
        <time>2016-05-06T11:49:47Z</time>
      </trkpt>
      <trkpt lat="44.41689" lon="5.87924">
        <ele>1066.8000488281</ele>
        <time>2016-05-06T11:49:48Z</time>
      </trkpt>
      <trkpt lat="44.4169" lon="5.87916">
        <ele>1064.5999755859</ele>
        <time>2016-05-06T11:49:51Z</time>
      </trkpt>
      <trkpt lat="44.41691" lon="5.87906">
        <ele>1064.5999755859</ele>
        <time>2016-05-06T11:49:53Z</time>
      </trkpt>
      <trkpt lat="44.41693" lon="5.87901">
        <ele>1063.4000244141</ele>
        <time>2016-05-06T11:49:54Z</time>
      </trkpt>
      <trkpt lat="44.41694" lon="5.87884">
        <ele>1062.1999511719</ele>
        <time>2016-05-06T11:49:58Z</time>
      </trkpt>
      <trkpt lat="44.41695" lon="5.87869">
        <ele>1061</ele>
        <time>2016-05-06T11:50:01Z</time>
      </trkpt>
      <trkpt lat="44.41693" lon="5.87849">
        <ele>1058.4000244141</ele>
        <time>2016-05-06T11:50:05Z</time>
      </trkpt>
      <trkpt lat="44.41691" lon="5.87844">
        <ele>1058.4000244141</ele>
        <time>2016-05-06T11:50:06Z</time>
      </trkpt>
      <trkpt lat="44.41689" lon="5.87841">
        <ele>1058.4000244141</ele>
        <time>2016-05-06T11:50:07Z</time>
      </trkpt>
      <trkpt lat="44.41688" lon="5.87837">
        <ele>1057.1999511719</ele>
        <time>2016-05-06T11:50:08Z</time>
      </trkpt>
      <trkpt lat="44.41692" lon="5.87824">
        <ele>1055</ele>
        <time>2016-05-06T11:50:12Z</time>
      </trkpt>
      <trkpt lat="44.41693" lon="5.87809">
        <ele>1054</ele>
        <time>2016-05-06T11:50:15Z</time>
      </trkpt>
      <trkpt lat="44.41695" lon="5.87799">
        <ele>1054</ele>
        <time>2016-05-06T11:50:18Z</time>
      </trkpt>
      <trkpt lat="44.41695" lon="5.87796">
        <ele>1052.1999511719</ele>
        <time>2016-05-06T11:50:19Z</time>
      </trkpt>
      <trkpt lat="44.41696" lon="5.87777">
        <ele>1051</ele>
        <time>2016-05-06T11:50:23Z</time>
      </trkpt>
      <trkpt lat="44.41697" lon="5.8777">
        <ele>1050</ele>
        <time>2016-05-06T11:50:24Z</time>
      </trkpt>
      <trkpt lat="44.41694" lon="5.87754">
        <ele>1048.8000488281</ele>
        <time>2016-05-06T11:50:27Z</time>
      </trkpt>
      <trkpt lat="44.41693" lon="5.87742">
        <ele>1048.8000488281</ele>
        <time>2016-05-06T11:50:30Z</time>
      </trkpt>
      <trkpt lat="44.41692" lon="5.87738">
        <ele>1047.4000244141</ele>
        <time>2016-05-06T11:50:31Z</time>
      </trkpt>
      <trkpt lat="44.41694" lon="5.87727">
        <ele>1046</ele>
        <time>2016-05-06T11:50:34Z</time>
      </trkpt>
      <trkpt lat="44.41693" lon="5.87722">
        <ele>1046</ele>
        <time>2016-05-06T11:50:35Z</time>
      </trkpt>
      <trkpt lat="44.4169" lon="5.87707">
        <ele>1043</ele>
        <time>2016-05-06T11:50:38Z</time>
      </trkpt>
      <trkpt lat="44.41691" lon="5.87694">
        <ele>1041.4000244141</ele>
        <time>2016-05-06T11:50:41Z</time>
      </trkpt>
      <trkpt lat="44.41691" lon="5.87691">
        <ele>1041.4000244141</ele>
        <time>2016-05-06T11:50:42Z</time>
      </trkpt>
      <trkpt lat="44.41692" lon="5.87681">
        <ele>1040.1999511719</ele>
        <time>2016-05-06T11:50:45Z</time>
      </trkpt>
      <trkpt lat="44.41692" lon="5.87678">
        <ele>1039.1999511719</ele>
        <time>2016-05-06T11:50:46Z</time>
      </trkpt>
      <trkpt lat="44.41693" lon="5.87677">
        <ele>1039.1999511719</ele>
        <time>2016-05-06T11:50:47Z</time>
      </trkpt>
      <trkpt lat="44.41692" lon="5.87675">
        <ele>1038</ele>
        <time>2016-05-06T11:50:49Z</time>
      </trkpt>
      <trkpt lat="44.41692" lon="5.87673">
        <ele>1035.8000488281</ele>
        <time>2016-05-06T11:50:53Z</time>
      </trkpt>
      <trkpt lat="44.41692" lon="5.87673">
        <ele>1035.4000244141</ele>
        <time>2016-05-06T11:50:56Z</time>
      </trkpt>
      <trkpt lat="44.41692" lon="5.87673">
        <ele>1034.4000244141</ele>
        <time>2016-05-06T11:51:00Z</time>
      </trkpt>
      <trkpt lat="44.41692" lon="5.87673">
        <ele>1034</ele>
        <time>2016-05-06T11:51:03Z</time>
      </trkpt>
      <trkpt lat="44.41692" lon="5.87673">
        <ele>1033.5999755859</ele>
        <time>2016-05-06T11:51:07Z</time>
      </trkpt>
      <trkpt lat="44.41691" lon="5.87677">
        <ele>1033.5999755859</ele>
        <time>2016-05-06T11:51:12Z</time>
      </trkpt>
      <trkpt lat="44.41685" lon="5.87681">
        <ele>1033.5999755859</ele>
        <time>2016-05-06T11:51:13Z</time>
      </trkpt>
      <trkpt lat="44.41683" lon="5.87685">
        <ele>1033</ele>
        <time>2016-05-06T11:51:14Z</time>
      </trkpt>
      <trkpt lat="44.41677" lon="5.87705">
        <ele>1031.4000244141</ele>
        <time>2016-05-06T11:51:18Z</time>
      </trkpt>
      <trkpt lat="44.41677" lon="5.87711">
        <ele>1031.4000244141</ele>
        <time>2016-05-06T11:51:19Z</time>
      </trkpt>
      <trkpt lat="44.41677" lon="5.87721">
        <ele>1030.1999511719</ele>
        <time>2016-05-06T11:51:21Z</time>
      </trkpt>
      <trkpt lat="44.41674" lon="5.87726">
        <ele>1030.1999511719</ele>
        <time>2016-05-06T11:51:23Z</time>
      </trkpt>
      <trkpt lat="44.41673" lon="5.87729">
        <ele>1029.1999511719</ele>
        <time>2016-05-06T11:51:24Z</time>
      </trkpt>
      <trkpt lat="44.41671" lon="5.87733">
        <ele>1028.4000244141</ele>
        <time>2016-05-06T11:51:25Z</time>
      </trkpt>
      <trkpt lat="44.41668" lon="5.87748">
        <ele>1027.5999755859</ele>
        <time>2016-05-06T11:51:28Z</time>
      </trkpt>
      <trkpt lat="44.41665" lon="5.87763">
        <ele>1026.4000244141</ele>
        <time>2016-05-06T11:51:31Z</time>
      </trkpt>
      <trkpt lat="44.41662" lon="5.87768">
        <ele>1025.4000244141</ele>
        <time>2016-05-06T11:51:32Z</time>
      </trkpt>
      <trkpt lat="44.41657" lon="5.87776">
        <ele>1025.4000244141</ele>
        <time>2016-05-06T11:51:34Z</time>
      </trkpt>
      <trkpt lat="44.41655" lon="5.87781">
        <ele>1024.4000244141</ele>
        <time>2016-05-06T11:51:35Z</time>
      </trkpt>
      <trkpt lat="44.41648" lon="5.87799">
        <ele>1023.200012207</ele>
        <time>2016-05-06T11:51:38Z</time>
      </trkpt>
      <trkpt lat="44.41645" lon="5.87805">
        <ele>1022</ele>
        <time>2016-05-06T11:51:39Z</time>
      </trkpt>
      <trkpt lat="44.41641" lon="5.87817">
        <ele>1020.5999755859</ele>
        <time>2016-05-06T11:51:42Z</time>
      </trkpt>
      <trkpt lat="44.41639" lon="5.87821">
        <ele>1020.5999755859</ele>
        <time>2016-05-06T11:51:43Z</time>
      </trkpt>
      <trkpt lat="44.4163" lon="5.87838">
        <ele>1018</ele>
        <time>2016-05-06T11:51:46Z</time>
      </trkpt>
      <trkpt lat="44.41628" lon="5.87848">
        <ele>1016.5999755859</ele>
        <time>2016-05-06T11:51:49Z</time>
      </trkpt>
      <trkpt lat="44.41623" lon="5.87846">
        <ele>1014</ele>
        <time>2016-05-06T11:51:53Z</time>
      </trkpt>
      <trkpt lat="44.41622" lon="5.87842">
        <ele>1014</ele>
        <time>2016-05-06T11:51:54Z</time>
      </trkpt>
      <trkpt lat="44.41624" lon="5.87832">
        <ele>1012.799987793</ele>
        <time>2016-05-06T11:51:56Z</time>
      </trkpt>
      <trkpt lat="44.41626" lon="5.87819">
        <ele>1011.5999755859</ele>
        <time>2016-05-06T11:51:59Z</time>
      </trkpt>
      <trkpt lat="44.41626" lon="5.87815">
        <ele>1010.200012207</ele>
        <time>2016-05-06T11:52:00Z</time>
      </trkpt>
      <trkpt lat="44.41629" lon="5.87803">
        <ele>1009</ele>
        <time>2016-05-06T11:52:03Z</time>
      </trkpt>
      <trkpt lat="44.41629" lon="5.87798">
        <ele>1009</ele>
        <time>2016-05-06T11:52:04Z</time>
      </trkpt>
      <trkpt lat="44.41632" lon="5.87783">
        <ele>1006.5999755859</ele>
        <time>2016-05-06T11:52:07Z</time>
      </trkpt>
      <trkpt lat="44.41633" lon="5.87774">
        <ele>1006.5999755859</ele>
        <time>2016-05-06T11:52:09Z</time>
      </trkpt>
      <trkpt lat="44.41634" lon="5.8777">
        <ele>1005.4000244141</ele>
        <time>2016-05-06T11:52:10Z</time>
      </trkpt>
      <trkpt lat="44.41635" lon="5.87767">
        <ele>1004.4000244141</ele>
        <time>2016-05-06T11:52:11Z</time>
      </trkpt>
      <trkpt lat="44.41634" lon="5.87753">
        <ele>1003.4000244141</ele>
        <time>2016-05-06T11:52:14Z</time>
      </trkpt>
      <trkpt lat="44.41635" lon="5.87739">
        <ele>1002.200012207</ele>
        <time>2016-05-06T11:52:17Z</time>
      </trkpt>
      <trkpt lat="44.41634" lon="5.87729">
        <ele>1002.200012207</ele>
        <time>2016-05-06T11:52:19Z</time>
      </trkpt>
      <trkpt lat="44.41633" lon="5.8772">
        <ele>999.40002441406</ele>
        <time>2016-05-06T11:52:21Z</time>
      </trkpt>
      <trkpt lat="44.41631" lon="5.87707">
        <ele>998.20001220703</ele>
        <time>2016-05-06T11:52:24Z</time>
      </trkpt>
      <trkpt lat="44.41632" lon="5.87688">
        <ele>995.79998779297</ele>
        <time>2016-05-06T11:52:28Z</time>
      </trkpt>
      <trkpt lat="44.41634" lon="5.87678">
        <ele>995.79998779297</ele>
        <time>2016-05-06T11:52:30Z</time>
      </trkpt>
      <trkpt lat="44.41632" lon="5.87674">
        <ele>994.40002441406</ele>
        <time>2016-05-06T11:52:31Z</time>
      </trkpt>
      <trkpt lat="44.41633" lon="5.87663">
        <ele>992</ele>
        <time>2016-05-06T11:52:35Z</time>
      </trkpt>
      <trkpt lat="44.41633" lon="5.87659">
        <ele>990.79998779297</ele>
        <time>2016-05-06T11:52:38Z</time>
      </trkpt>
      <trkpt lat="44.41633" lon="5.87659">
        <ele>990.79998779297</ele>
        <time>2016-05-06T11:52:41Z</time>
      </trkpt>
      <trkpt lat="44.41633" lon="5.87659">
        <ele>989.59997558594</ele>
        <time>2016-05-06T11:52:42Z</time>
      </trkpt>
      <trkpt lat="44.41632" lon="5.87659">
        <ele>989</ele>
        <time>2016-05-06T11:52:45Z</time>
      </trkpt>
      <trkpt lat="44.41632" lon="5.87659">
        <ele>987.59997558594</ele>
        <time>2016-05-06T11:52:50Z</time>
      </trkpt>
      <trkpt lat="44.41632" lon="5.8766">
        <ele>987</ele>
        <time>2016-05-06T11:52:53Z</time>
      </trkpt>
      <trkpt lat="44.41631" lon="5.87665">
        <ele>986.40002441406</ele>
        <time>2016-05-06T11:52:54Z</time>
      </trkpt>
      <trkpt lat="44.41627" lon="5.8767">
        <ele>986.40002441406</ele>
        <time>2016-05-06T11:52:56Z</time>
      </trkpt>
      <trkpt lat="44.41624" lon="5.87676">
        <ele>985.79998779297</ele>
        <time>2016-05-06T11:52:58Z</time>
      </trkpt>
      <trkpt lat="44.41618" lon="5.87683">
        <ele>985.20001220703</ele>
        <time>2016-05-06T11:53:01Z</time>
      </trkpt>
      <trkpt lat="44.41616" lon="5.87684">
        <ele>984.20001220703</ele>
        <time>2016-05-06T11:53:02Z</time>
      </trkpt>
      <trkpt lat="44.41615" lon="5.87684">
        <ele>984.20001220703</ele>
        <time>2016-05-06T11:53:03Z</time>
      </trkpt>
      <trkpt lat="44.41614" lon="5.87685">
        <ele>983.40002441406</ele>
        <time>2016-05-06T11:53:05Z</time>
      </trkpt>
      <trkpt lat="44.41611" lon="5.87687">
        <ele>981.79998779297</ele>
        <time>2016-05-06T11:53:09Z</time>
      </trkpt>
      <trkpt lat="44.4161" lon="5.87687">
        <ele>981.79998779297</ele>
        <time>2016-05-06T11:53:10Z</time>
      </trkpt>
      <trkpt lat="44.41609" lon="5.87685">
        <ele>981</ele>
        <time>2016-05-06T11:53:12Z</time>
      </trkpt>
      <trkpt lat="44.41608" lon="5.87682">
        <ele>980.59997558594</ele>
        <time>2016-05-06T11:53:15Z</time>
      </trkpt>
      <trkpt lat="44.41608" lon="5.87681">
        <ele>980</ele>
        <time>2016-05-06T11:53:16Z</time>
      </trkpt>
      <trkpt lat="44.41609" lon="5.8768">
        <ele>980</ele>
        <time>2016-05-06T11:53:18Z</time>
      </trkpt>
      <trkpt lat="44.41609" lon="5.8768">
        <ele>979.59997558594</ele>
        <time>2016-05-06T11:53:19Z</time>
      </trkpt>
      <trkpt lat="44.41608" lon="5.87678">
        <ele>979</ele>
        <time>2016-05-06T11:53:22Z</time>
      </trkpt>
      <trkpt lat="44.41609" lon="5.87672">
        <ele>979</ele>
        <time>2016-05-06T11:53:25Z</time>
      </trkpt>
      <trkpt lat="44.41609" lon="5.87669">
        <ele>978.20001220703</ele>
        <time>2016-05-06T11:53:26Z</time>
      </trkpt>
      <trkpt lat="44.4161" lon="5.87658">
        <ele>977.79998779297</ele>
        <time>2016-05-06T11:53:29Z</time>
      </trkpt>
      <trkpt lat="44.41609" lon="5.87654">
        <ele>977.79998779297</ele>
        <time>2016-05-06T11:53:30Z</time>
      </trkpt>
      <trkpt lat="44.41609" lon="5.87651">
        <ele>977.79998779297</ele>
        <time>2016-05-06T11:53:31Z</time>
      </trkpt>
      <trkpt lat="44.41609" lon="5.87647">
        <ele>976</ele>
        <time>2016-05-06T11:53:33Z</time>
      </trkpt>
      <trkpt lat="44.41608" lon="5.87639">
        <ele>975</ele>
        <time>2016-05-06T11:53:36Z</time>
      </trkpt>
      <trkpt lat="44.4161" lon="5.87632">
        <ele>972.79998779297</ele>
        <time>2016-05-06T11:53:40Z</time>
      </trkpt>
      <trkpt lat="44.41609" lon="5.8763">
        <ele>971.79998779297</ele>
        <time>2016-05-06T11:53:43Z</time>
      </trkpt>
      <trkpt lat="44.41608" lon="5.87631">
        <ele>970.59997558594</ele>
        <time>2016-05-06T11:53:47Z</time>
      </trkpt>
      <trkpt lat="44.41607" lon="5.87633">
        <ele>970.20001220703</ele>
        <time>2016-05-06T11:53:50Z</time>
      </trkpt>
      <trkpt lat="44.41599" lon="5.87637">
        <ele>969.20001220703</ele>
        <time>2016-05-06T11:53:54Z</time>
      </trkpt>
      <trkpt lat="44.41596" lon="5.87641">
        <ele>968.59997558594</ele>
        <time>2016-05-06T11:53:57Z</time>
      </trkpt>
      <trkpt lat="44.41592" lon="5.87643">
        <ele>968.59997558594</ele>
        <time>2016-05-06T11:53:58Z</time>
      </trkpt>
      <trkpt lat="44.4159" lon="5.87648">
        <ele>967</ele>
        <time>2016-05-06T11:54:01Z</time>
      </trkpt>
      <trkpt lat="44.4159" lon="5.87649">
        <ele>967</ele>
        <time>2016-05-06T11:54:03Z</time>
      </trkpt>
      <trkpt lat="44.4159" lon="5.87648">
        <ele>966.20001220703</ele>
        <time>2016-05-06T11:54:04Z</time>
      </trkpt>
      <trkpt lat="44.4159" lon="5.87648">
        <ele>964.20001220703</ele>
        <time>2016-05-06T11:54:08Z</time>
      </trkpt>
      <trkpt lat="44.4159" lon="5.87648">
        <ele>964.20001220703</ele>
        <time>2016-05-06T11:54:09Z</time>
      </trkpt>
      <trkpt lat="44.4159" lon="5.87646">
        <ele>963.20001220703</ele>
        <time>2016-05-06T11:54:11Z</time>
      </trkpt>
      <trkpt lat="44.41588" lon="5.87637">
        <ele>962.20001220703</ele>
        <time>2016-05-06T11:54:15Z</time>
      </trkpt>
      <trkpt lat="44.41586" lon="5.87631">
        <ele>961.40002441406</ele>
        <time>2016-05-06T11:54:18Z</time>
      </trkpt>
      <trkpt lat="44.41586" lon="5.87627">
        <ele>960.59997558594</ele>
        <time>2016-05-06T11:54:22Z</time>
      </trkpt>
      <trkpt lat="44.41584" lon="5.87626">
        <ele>959.79998779297</ele>
        <time>2016-05-06T11:54:25Z</time>
      </trkpt>
      <trkpt lat="44.41582" lon="5.87628">
        <ele>958.79998779297</ele>
        <time>2016-05-06T11:54:29Z</time>
      </trkpt>
      <trkpt lat="44.41581" lon="5.87628">
        <ele>958.79998779297</ele>
        <time>2016-05-06T11:54:30Z</time>
      </trkpt>
      <trkpt lat="44.41581" lon="5.87629">
        <ele>958</ele>
        <time>2016-05-06T11:54:32Z</time>
      </trkpt>
      <trkpt lat="44.41576" lon="5.87635">
        <ele>956.20001220703</ele>
        <time>2016-05-06T11:54:36Z</time>
      </trkpt>
      <trkpt lat="44.41573" lon="5.87641">
        <ele>956.20001220703</ele>
        <time>2016-05-06T11:54:38Z</time>
      </trkpt>
      <trkpt lat="44.41571" lon="5.87645">
        <ele>955.40002441406</ele>
        <time>2016-05-06T11:54:39Z</time>
      </trkpt>
      <trkpt lat="44.41567" lon="5.87665">
        <ele>954.20001220703</ele>
        <time>2016-05-06T11:54:43Z</time>
      </trkpt>
      <trkpt lat="44.41566" lon="5.8767">
        <ele>954.20001220703</ele>
        <time>2016-05-06T11:54:44Z</time>
      </trkpt>
      <trkpt lat="44.41564" lon="5.87677">
        <ele>952.79998779297</ele>
        <time>2016-05-06T11:54:46Z</time>
      </trkpt>
      <trkpt lat="44.41563" lon="5.8768">
        <ele>951.40002441406</ele>
        <time>2016-05-06T11:54:47Z</time>
      </trkpt>
      <trkpt lat="44.41557" lon="5.8769">
        <ele>949.79998779297</ele>
        <time>2016-05-06T11:54:50Z</time>
      </trkpt>
      <trkpt lat="44.41549" lon="5.87701">
        <ele>948.40002441406</ele>
        <time>2016-05-06T11:54:53Z</time>
      </trkpt>
      <trkpt lat="44.41547" lon="5.87703">
        <ele>947</ele>
        <time>2016-05-06T11:54:54Z</time>
      </trkpt>
      <trkpt lat="44.41544" lon="5.87715">
        <ele>945.59997558594</ele>
        <time>2016-05-06T11:54:58Z</time>
      </trkpt>
      <trkpt lat="44.41544" lon="5.87719">
        <ele>945.59997558594</ele>
        <time>2016-05-06T11:55:00Z</time>
      </trkpt>
      <trkpt lat="44.41543" lon="5.8772">
        <ele>942.59997558594</ele>
        <time>2016-05-06T11:55:01Z</time>
      </trkpt>
      <trkpt lat="44.41542" lon="5.87722">
        <ele>940.20001220703</ele>
        <time>2016-05-06T11:55:05Z</time>
      </trkpt>
      <trkpt lat="44.41542" lon="5.87722">
        <ele>940.20001220703</ele>
        <time>2016-05-06T11:55:07Z</time>
      </trkpt>
      <trkpt lat="44.41542" lon="5.87722">
        <ele>939</ele>
        <time>2016-05-06T11:55:08Z</time>
      </trkpt>
      <trkpt lat="44.41542" lon="5.87722">
        <ele>936.40002441406</ele>
        <time>2016-05-06T11:55:12Z</time>
      </trkpt>
      <trkpt lat="44.41537" lon="5.87723">
        <ele>936.40002441406</ele>
        <time>2016-05-06T11:55:17Z</time>
      </trkpt>
      <trkpt lat="44.41531" lon="5.87727">
        <ele>936.40002441406</ele>
        <time>2016-05-06T11:55:18Z</time>
      </trkpt>
      <trkpt lat="44.41508" lon="5.87732">
        <ele>936.40002441406</ele>
        <time>2016-05-06T11:55:25Z</time>
      </trkpt>
      <trkpt lat="44.41505" lon="5.87735">
        <ele>935.20001220703</ele>
        <time>2016-05-06T11:55:26Z</time>
      </trkpt>
      <trkpt lat="44.415" lon="5.8774">
        <ele>935.20001220703</ele>
        <time>2016-05-06T11:55:28Z</time>
      </trkpt>
      <trkpt lat="44.41499" lon="5.87743">
        <ele>934.40002441406</ele>
        <time>2016-05-06T11:55:29Z</time>
      </trkpt>
      <trkpt lat="44.41491" lon="5.87748">
        <ele>932.59997558594</ele>
        <time>2016-05-06T11:55:33Z</time>
      </trkpt>
      <trkpt lat="44.41488" lon="5.87746">
        <ele>932.59997558594</ele>
        <time>2016-05-06T11:55:35Z</time>
      </trkpt>
      <trkpt lat="44.41486" lon="5.87744">
        <ele>931.59997558594</ele>
        <time>2016-05-06T11:55:36Z</time>
      </trkpt>
      <trkpt lat="44.41483" lon="5.87743">
        <ele>931.59997558594</ele>
        <time>2016-05-06T11:55:37Z</time>
      </trkpt>
      <trkpt lat="44.41474" lon="5.87741">
        <ele>929.79998779297</ele>
        <time>2016-05-06T11:55:40Z</time>
      </trkpt>
      <trkpt lat="44.41465" lon="5.87743">
        <ele>928.79998779297</ele>
        <time>2016-05-06T11:55:43Z</time>
      </trkpt>
      <trkpt lat="44.4145" lon="5.87744">
        <ele>926.79998779297</ele>
        <time>2016-05-06T11:55:47Z</time>
      </trkpt>
      <trkpt lat="44.41446" lon="5.87745">
        <ele>926.79998779297</ele>
        <time>2016-05-06T11:55:48Z</time>
      </trkpt>
      <trkpt lat="44.41439" lon="5.87748">
        <ele>925.79998779297</ele>
        <time>2016-05-06T11:55:50Z</time>
      </trkpt>
      <trkpt lat="44.41433" lon="5.87753">
        <ele>925.79998779297</ele>
        <time>2016-05-06T11:55:53Z</time>
      </trkpt>
      <trkpt lat="44.41433" lon="5.87754">
        <ele>923.79998779297</ele>
        <time>2016-05-06T11:55:54Z</time>
      </trkpt>
      <trkpt lat="44.4143" lon="5.87752">
        <ele>922.79998779297</ele>
        <time>2016-05-06T11:55:57Z</time>
      </trkpt>
      <trkpt lat="44.41426" lon="5.87752">
        <ele>922.79998779297</ele>
        <time>2016-05-06T11:55:59Z</time>
      </trkpt>
      <trkpt lat="44.41418" lon="5.87754">
        <ele>921.40002441406</ele>
        <time>2016-05-06T11:56:01Z</time>
      </trkpt>
      <trkpt lat="44.41413" lon="5.87759">
        <ele>920.79998779297</ele>
        <time>2016-05-06T11:56:04Z</time>
      </trkpt>
      <trkpt lat="44.41411" lon="5.87763">
        <ele>919.20001220703</ele>
        <time>2016-05-06T11:56:08Z</time>
      </trkpt>
      <trkpt lat="44.41411" lon="5.87763">
        <ele>919.20001220703</ele>
        <time>2016-05-06T11:56:09Z</time>
      </trkpt>
      <trkpt lat="44.4141" lon="5.87762">
        <ele>918.59997558594</ele>
        <time>2016-05-06T11:56:11Z</time>
      </trkpt>
      <trkpt lat="44.41408" lon="5.8776">
        <ele>917.20001220703</ele>
        <time>2016-05-06T11:56:15Z</time>
      </trkpt>
      <trkpt lat="44.41399" lon="5.87759">
        <ele>916.59997558594</ele>
        <time>2016-05-06T11:56:18Z</time>
      </trkpt>
      <trkpt lat="44.41396" lon="5.87759">
        <ele>916.59997558594</ele>
        <time>2016-05-06T11:56:19Z</time>
      </trkpt>
      <trkpt lat="44.41382" lon="5.87763">
        <ele>915.20001220703</ele>
        <time>2016-05-06T11:56:22Z</time>
      </trkpt>
      <trkpt lat="44.41375" lon="5.87766">
        <ele>915.20001220703</ele>
        <time>2016-05-06T11:56:24Z</time>
      </trkpt>
      <trkpt lat="44.4137" lon="5.87767">
        <ele>914.40002441406</ele>
        <time>2016-05-06T11:56:25Z</time>
      </trkpt>
      <trkpt lat="44.41362" lon="5.87767">
        <ele>914.40002441406</ele>
        <time>2016-05-06T11:56:28Z</time>
      </trkpt>
      <trkpt lat="44.41361" lon="5.87766">
        <ele>912.40002441406</ele>
        <time>2016-05-06T11:56:29Z</time>
      </trkpt>
      <trkpt lat="44.41361" lon="5.87762">
        <ele>912.40002441406</ele>
        <time>2016-05-06T11:56:31Z</time>
      </trkpt>
      <trkpt lat="44.41362" lon="5.87761">
        <ele>911.40002441406</ele>
        <time>2016-05-06T11:56:32Z</time>
      </trkpt>
      <trkpt lat="44.41364" lon="5.87758">
        <ele>911.40002441406</ele>
        <time>2016-05-06T11:56:33Z</time>
      </trkpt>
      <trkpt lat="44.4137" lon="5.87751">
        <ele>909.40002441406</ele>
        <time>2016-05-06T11:56:36Z</time>
      </trkpt>
      <trkpt lat="44.41376" lon="5.87744">
        <ele>908.20001220703</ele>
        <time>2016-05-06T11:56:39Z</time>
      </trkpt>
      <trkpt lat="44.41377" lon="5.87741">
        <ele>908.20001220703</ele>
        <time>2016-05-06T11:56:40Z</time>
      </trkpt>
      <trkpt lat="44.41383" lon="5.8773">
        <ele>906</ele>
        <time>2016-05-06T11:56:43Z</time>
      </trkpt>
      <trkpt lat="44.41391" lon="5.87725">
        <ele>905</ele>
        <time>2016-05-06T11:56:46Z</time>
      </trkpt>
      <trkpt lat="44.41393" lon="5.87726">
        <ele>905</ele>
        <time>2016-05-06T11:56:47Z</time>
      </trkpt>
      <trkpt lat="44.41396" lon="5.87726">
        <ele>905</ele>
        <time>2016-05-06T11:56:49Z</time>
      </trkpt>
      <trkpt lat="44.41396" lon="5.87726">
        <ele>902.79998779297</ele>
        <time>2016-05-06T11:56:50Z</time>
      </trkpt>
      <trkpt lat="44.41399" lon="5.87725">
        <ele>901.79998779297</ele>
        <time>2016-05-06T11:56:53Z</time>
      </trkpt>
      <trkpt lat="44.41399" lon="5.87725">
        <ele>900.59997558594</ele>
        <time>2016-05-06T11:56:57Z</time>
      </trkpt>
      <trkpt lat="44.41399" lon="5.87725">
        <ele>900.20001220703</ele>
        <time>2016-05-06T11:57:00Z</time>
      </trkpt>
      <trkpt lat="44.41399" lon="5.87725">
        <ele>899.40002441406</ele>
        <time>2016-05-06T11:57:04Z</time>
      </trkpt>
      <trkpt lat="44.41399" lon="5.87725">
        <ele>898.59997558594</ele>
        <time>2016-05-06T11:57:07Z</time>
      </trkpt>
      <trkpt lat="44.41396" lon="5.87723">
        <ele>898.59997558594</ele>
        <time>2016-05-06T11:57:10Z</time>
      </trkpt>
      <trkpt lat="44.41396" lon="5.87719">
        <ele>898.59997558594</ele>
        <time>2016-05-06T11:57:11Z</time>
      </trkpt>
      <trkpt lat="44.41389" lon="5.87706">
        <ele>898</ele>
        <time>2016-05-06T11:57:14Z</time>
      </trkpt>
      <trkpt lat="44.41381" lon="5.87692">
        <ele>896.79998779297</ele>
        <time>2016-05-06T11:57:18Z</time>
      </trkpt>
      <trkpt lat="44.41383" lon="5.87682">
        <ele>896</ele>
        <time>2016-05-06T11:57:21Z</time>
      </trkpt>
      <trkpt lat="44.41384" lon="5.87677">
        <ele>896</ele>
        <time>2016-05-06T11:57:22Z</time>
      </trkpt>
      <trkpt lat="44.41392" lon="5.8766">
        <ele>894</ele>
        <time>2016-05-06T11:57:25Z</time>
      </trkpt>
      <trkpt lat="44.41393" lon="5.87653">
        <ele>894</ele>
        <time>2016-05-06T11:57:26Z</time>
      </trkpt>
      <trkpt lat="44.41395" lon="5.87645">
        <ele>894</ele>
        <time>2016-05-06T11:57:27Z</time>
      </trkpt>
      <trkpt lat="44.41397" lon="5.87638">
        <ele>891.20001220703</ele>
        <time>2016-05-06T11:57:28Z</time>
      </trkpt>
      <trkpt lat="44.41401" lon="5.87625">
        <ele>891.20001220703</ele>
        <time>2016-05-06T11:57:30Z</time>
      </trkpt>
      <trkpt lat="44.41402" lon="5.8762">
        <ele>891.20001220703</ele>
        <time>2016-05-06T11:57:31Z</time>
      </trkpt>
      <trkpt lat="44.41404" lon="5.87615">
        <ele>889.79998779297</ele>
        <time>2016-05-06T11:57:32Z</time>
      </trkpt>
      <trkpt lat="44.41406" lon="5.87607">
        <ele>887</ele>
        <time>2016-05-06T11:57:35Z</time>
      </trkpt>
      <trkpt lat="44.41407" lon="5.87607">
        <ele>887</ele>
        <time>2016-05-06T11:57:36Z</time>
      </trkpt>
      <trkpt lat="44.41408" lon="5.87608">
        <ele>887</ele>
        <time>2016-05-06T11:57:37Z</time>
      </trkpt>
      <trkpt lat="44.4141" lon="5.87611">
        <ele>884</ele>
        <time>2016-05-06T11:57:39Z</time>
      </trkpt>
      <trkpt lat="44.41413" lon="5.8761">
        <ele>884</ele>
        <time>2016-05-06T11:57:41Z</time>
      </trkpt>
      <trkpt lat="44.41413" lon="5.87607">
        <ele>884</ele>
        <time>2016-05-06T11:57:42Z</time>
      </trkpt>
      <trkpt lat="44.41423" lon="5.87594">
        <ele>881.79998779297</ele>
        <time>2016-05-06T11:57:46Z</time>
      </trkpt>
      <trkpt lat="44.41425" lon="5.87591">
        <ele>881</ele>
        <time>2016-05-06T11:57:47Z</time>
      </trkpt>
      <trkpt lat="44.41426" lon="5.87589">
        <ele>880.40002441406</ele>
        <time>2016-05-06T11:57:48Z</time>
      </trkpt>
      <trkpt lat="44.41427" lon="5.87586">
        <ele>879.59997558594</ele>
        <time>2016-05-06T11:57:49Z</time>
      </trkpt>
      <trkpt lat="44.41426" lon="5.87583">
        <ele>879.59997558594</ele>
        <time>2016-05-06T11:57:50Z</time>
      </trkpt>
      <trkpt lat="44.41425" lon="5.87579">
        <ele>878.79998779297</ele>
        <time>2016-05-06T11:57:51Z</time>
      </trkpt>
      <trkpt lat="44.41422" lon="5.87574">
        <ele>878.40002441406</ele>
        <time>2016-05-06T11:57:52Z</time>
      </trkpt>
      <trkpt lat="44.41415" lon="5.87568">
        <ele>878.40002441406</ele>
        <time>2016-05-06T11:57:54Z</time>
      </trkpt>
      <trkpt lat="44.41408" lon="5.87562">
        <ele>877.20001220703</ele>
        <time>2016-05-06T11:57:56Z</time>
      </trkpt>
      <trkpt lat="44.41395" lon="5.8755">
        <ele>876.40002441406</ele>
        <time>2016-05-06T11:58:00Z</time>
      </trkpt>
      <trkpt lat="44.41391" lon="5.87543">
        <ele>876.40002441406</ele>
        <time>2016-05-06T11:58:01Z</time>
      </trkpt>
      <trkpt lat="44.41386" lon="5.87532">
        <ele>874.20001220703</ele>
        <time>2016-05-06T11:58:03Z</time>
      </trkpt>
      <trkpt lat="44.41383" lon="5.87518">
        <ele>874.20001220703</ele>
        <time>2016-05-06T11:58:05Z</time>
      </trkpt>
      <trkpt lat="44.41383" lon="5.87511">
        <ele>874.20001220703</ele>
        <time>2016-05-06T11:58:06Z</time>
      </trkpt>
      <trkpt lat="44.41382" lon="5.87503">
        <ele>871.79998779297</ele>
        <time>2016-05-06T11:58:07Z</time>
      </trkpt>
      <trkpt lat="44.4138" lon="5.87483">
        <ele>870.40002441406</ele>
        <time>2016-05-06T11:58:10Z</time>
      </trkpt>
      <trkpt lat="44.41381" lon="5.87461">
        <ele>867.40002441406</ele>
        <time>2016-05-06T11:58:14Z</time>
      </trkpt>
      <trkpt lat="44.4138" lon="5.87454">
        <ele>867.40002441406</ele>
        <time>2016-05-06T11:58:15Z</time>
      </trkpt>
      <trkpt lat="44.41378" lon="5.8744">
        <ele>865.79998779297</ele>
        <time>2016-05-06T11:58:17Z</time>
      </trkpt>
      <trkpt lat="44.41369" lon="5.8742">
        <ele>862.59997558594</ele>
        <time>2016-05-06T11:58:21Z</time>
      </trkpt>
      <trkpt lat="44.41364" lon="5.87418">
        <ele>862.59997558594</ele>
        <time>2016-05-06T11:58:22Z</time>
      </trkpt>
      <trkpt lat="44.41359" lon="5.87417">
        <ele>862.59997558594</ele>
        <time>2016-05-06T11:58:23Z</time>
      </trkpt>
      <trkpt lat="44.41349" lon="5.87417">
        <ele>861</ele>
        <time>2016-05-06T11:58:25Z</time>
      </trkpt>
      <trkpt lat="44.41339" lon="5.87417">
        <ele>861</ele>
        <time>2016-05-06T11:58:27Z</time>
      </trkpt>
      <trkpt lat="44.41328" lon="5.87418">
        <ele>859.79998779297</ele>
        <time>2016-05-06T11:58:29Z</time>
      </trkpt>
      <trkpt lat="44.41313" lon="5.87415">
        <ele>859.79998779297</ele>
        <time>2016-05-06T11:58:32Z</time>
      </trkpt>
      <trkpt lat="44.41309" lon="5.87411">
        <ele>856.40002441406</ele>
        <time>2016-05-06T11:58:33Z</time>
      </trkpt>
      <trkpt lat="44.41296" lon="5.87396">
        <ele>856.40002441406</ele>
        <time>2016-05-06T11:58:36Z</time>
      </trkpt>
      <trkpt lat="44.41291" lon="5.87391">
        <ele>854.40002441406</ele>
        <time>2016-05-06T11:58:37Z</time>
      </trkpt>
      <trkpt lat="44.41282" lon="5.87379">
        <ele>850.20001220703</ele>
        <time>2016-05-06T11:58:40Z</time>
      </trkpt>
      <trkpt lat="44.41273" lon="5.87375">
        <ele>850.20001220703</ele>
        <time>2016-05-06T11:58:42Z</time>
      </trkpt>
      <trkpt lat="44.41262" lon="5.87375">
        <ele>848</ele>
        <time>2016-05-06T11:58:44Z</time>
      </trkpt>
      <trkpt lat="44.41249" lon="5.87374">
        <ele>848</ele>
        <time>2016-05-06T11:58:46Z</time>
      </trkpt>
      <trkpt lat="44.41242" lon="5.87372">
        <ele>843.59997558594</ele>
        <time>2016-05-06T11:58:47Z</time>
      </trkpt>
      <trkpt lat="44.41232" lon="5.87364">
        <ele>843.59997558594</ele>
        <time>2016-05-06T11:58:49Z</time>
      </trkpt>
      <trkpt lat="44.41221" lon="5.87355">
        <ele>841.40002441406</ele>
        <time>2016-05-06T11:58:51Z</time>
      </trkpt>
      <trkpt lat="44.41209" lon="5.87345">
        <ele>837.20001220703</ele>
        <time>2016-05-06T11:58:54Z</time>
      </trkpt>
      <trkpt lat="44.41206" lon="5.87342">
        <ele>837.20001220703</ele>
        <time>2016-05-06T11:58:55Z</time>
      </trkpt>
      <trkpt lat="44.41203" lon="5.87331">
        <ele>835</ele>
        <time>2016-05-06T11:58:58Z</time>
      </trkpt>
      <trkpt lat="44.41203" lon="5.87327">
        <ele>835</ele>
        <time>2016-05-06T11:58:59Z</time>
      </trkpt>
      <trkpt lat="44.41204" lon="5.87317">
        <ele>831.20001220703</ele>
        <time>2016-05-06T11:59:01Z</time>
      </trkpt>
      <trkpt lat="44.41199" lon="5.87298">
        <ele>831.20001220703</ele>
        <time>2016-05-06T11:59:04Z</time>
      </trkpt>
      <trkpt lat="44.41196" lon="5.87292">
        <ele>831.20001220703</ele>
        <time>2016-05-06T11:59:05Z</time>
      </trkpt>
      <trkpt lat="44.41188" lon="5.87278">
        <ele>829.20001220703</ele>
        <time>2016-05-06T11:59:07Z</time>
      </trkpt>
      <trkpt lat="44.41185" lon="5.87271">
        <ele>829.20001220703</ele>
        <time>2016-05-06T11:59:08Z</time>
      </trkpt>
      <trkpt lat="44.41181" lon="5.87256">
        <ele>825.79998779297</ele>
        <time>2016-05-06T11:59:10Z</time>
      </trkpt>
      <trkpt lat="44.41182" lon="5.8723">
        <ele>824.20001220703</ele>
        <time>2016-05-06T11:59:14Z</time>
      </trkpt>
      <trkpt lat="44.41185" lon="5.8722">
        <ele>824.20001220703</ele>
        <time>2016-05-06T11:59:16Z</time>
      </trkpt>
      <trkpt lat="44.41186" lon="5.87216">
        <ele>820.59997558594</ele>
        <time>2016-05-06T11:59:17Z</time>
      </trkpt>
      <trkpt lat="44.41187" lon="5.87211">
        <ele>820.59997558594</ele>
        <time>2016-05-06T11:59:18Z</time>
      </trkpt>
      <trkpt lat="44.41188" lon="5.87202">
        <ele>820.59997558594</ele>
        <time>2016-05-06T11:59:20Z</time>
      </trkpt>
      <trkpt lat="44.4119" lon="5.87185">
        <ele>820.59997558594</ele>
        <time>2016-05-06T11:59:23Z</time>
      </trkpt>
      <trkpt lat="44.41188" lon="5.87174">
        <ele>820.59997558594</ele>
        <time>2016-05-06T11:59:25Z</time>
      </trkpt>
      <trkpt lat="44.41176" lon="5.87163">
        <ele>820.59997558594</ele>
        <time>2016-05-06T11:59:28Z</time>
      </trkpt>
      <trkpt lat="44.41172" lon="5.87159">
        <ele>820.59997558594</ele>
        <time>2016-05-06T11:59:29Z</time>
      </trkpt>
      <trkpt lat="44.41162" lon="5.87153">
        <ele>820.20001220703</ele>
        <time>2016-05-06T11:59:31Z</time>
      </trkpt>
      <trkpt lat="44.41158" lon="5.87149">
        <ele>820.20001220703</ele>
        <time>2016-05-06T11:59:32Z</time>
      </trkpt>
      <trkpt lat="44.41151" lon="5.87137">
        <ele>820.20001220703</ele>
        <time>2016-05-06T11:59:34Z</time>
      </trkpt>
      <trkpt lat="44.4115" lon="5.87129">
        <ele>819.79998779297</ele>
        <time>2016-05-06T11:59:35Z</time>
      </trkpt>
      <trkpt lat="44.41153" lon="5.87112">
        <ele>819.79998779297</ele>
        <time>2016-05-06T11:59:37Z</time>
      </trkpt>
      <trkpt lat="44.41154" lon="5.87105">
        <ele>819</ele>
        <time>2016-05-06T11:59:38Z</time>
      </trkpt>
      <trkpt lat="44.41156" lon="5.87097">
        <ele>819</ele>
        <time>2016-05-06T11:59:39Z</time>
      </trkpt>
      <trkpt lat="44.41161" lon="5.87074">
        <ele>818.59997558594</ele>
        <time>2016-05-06T11:59:42Z</time>
      </trkpt>
      <trkpt lat="44.41164" lon="5.87036">
        <ele>818.59997558594</ele>
        <time>2016-05-06T11:59:47Z</time>
      </trkpt>
      <trkpt lat="44.41163" lon="5.87027">
        <ele>818.59997558594</ele>
        <time>2016-05-06T11:59:48Z</time>
      </trkpt>
      <trkpt lat="44.41165" lon="5.86975">
        <ele>818.59997558594</ele>
        <time>2016-05-06T11:59:55Z</time>
      </trkpt>
      <trkpt lat="44.41174" lon="5.86936">
        <ele>818.59997558594</ele>
        <time>2016-05-06T12:00:01Z</time>
      </trkpt>
      <trkpt lat="44.41177" lon="5.86931">
        <ele>818.59997558594</ele>
        <time>2016-05-06T12:00:02Z</time>
      </trkpt>
      <trkpt lat="44.4118" lon="5.86926">
        <ele>818.59997558594</ele>
        <time>2016-05-06T12:00:03Z</time>
      </trkpt>
      <trkpt lat="44.41193" lon="5.86908">
        <ele>818.59997558594</ele>
        <time>2016-05-06T12:00:07Z</time>
      </trkpt>
      <trkpt lat="44.41205" lon="5.86899">
        <ele>818.59997558594</ele>
        <time>2016-05-06T12:00:10Z</time>
      </trkpt>
      <trkpt lat="44.41214" lon="5.86896">
        <ele>818.59997558594</ele>
        <time>2016-05-06T12:00:12Z</time>
      </trkpt>
      <trkpt lat="44.41222" lon="5.86892">
        <ele>819</ele>
        <time>2016-05-06T12:00:14Z</time>
      </trkpt>
      <trkpt lat="44.41233" lon="5.86884">
        <ele>819.40002441406</ele>
        <time>2016-05-06T12:00:17Z</time>
      </trkpt>
      <trkpt lat="44.41237" lon="5.86881">
        <ele>819.40002441406</ele>
        <time>2016-05-06T12:00:18Z</time>
      </trkpt>
      <trkpt lat="44.41249" lon="5.86871">
        <ele>820</ele>
        <time>2016-05-06T12:00:21Z</time>
      </trkpt>
      <trkpt lat="44.41253" lon="5.8687">
        <ele>820.40002441406</ele>
        <time>2016-05-06T12:00:22Z</time>
      </trkpt>
      <trkpt lat="44.41257" lon="5.86867">
        <ele>820.40002441406</ele>
        <time>2016-05-06T12:00:23Z</time>
      </trkpt>
      <trkpt lat="44.41264" lon="5.86865">
        <ele>820.79998779297</ele>
        <time>2016-05-06T12:00:25Z</time>
      </trkpt>
      <trkpt lat="44.41286" lon="5.86861">
        <ele>820.79998779297</ele>
        <time>2016-05-06T12:00:32Z</time>
      </trkpt>
      <trkpt lat="44.41296" lon="5.8686">
        <ele>821.20001220703</ele>
        <time>2016-05-06T12:00:36Z</time>
      </trkpt>
      <trkpt lat="44.41299" lon="5.86859">
        <ele>821.20001220703</ele>
        <time>2016-05-06T12:00:37Z</time>
      </trkpt>
      <trkpt lat="44.41301" lon="5.86857">
        <ele>821.20001220703</ele>
        <time>2016-05-06T12:00:38Z</time>
      </trkpt>
      <trkpt lat="44.41303" lon="5.86854">
        <ele>821.59997558594</ele>
        <time>2016-05-06T12:00:39Z</time>
      </trkpt>
      <trkpt lat="44.41303" lon="5.86842">
        <ele>822.20001220703</ele>
        <time>2016-05-06T12:00:42Z</time>
      </trkpt>
      <trkpt lat="44.41303" lon="5.86839">
        <ele>822.59997558594</ele>
        <time>2016-05-06T12:00:43Z</time>
      </trkpt>
      <trkpt lat="44.41301" lon="5.86836">
        <ele>822.59997558594</ele>
        <time>2016-05-06T12:00:44Z</time>
      </trkpt>
      <trkpt lat="44.41298" lon="5.86831">
        <ele>823</ele>
        <time>2016-05-06T12:00:46Z</time>
      </trkpt>
      <trkpt lat="44.41293" lon="5.86825">
        <ele>823</ele>
        <time>2016-05-06T12:00:49Z</time>
      </trkpt>
      <trkpt lat="44.41285" lon="5.86805">
        <ele>823</ele>
        <time>2016-05-06T12:00:55Z</time>
      </trkpt>
      <trkpt lat="44.41284" lon="5.86801">
        <ele>823.40002441406</ele>
        <time>2016-05-06T12:00:56Z</time>
      </trkpt>
      <trkpt lat="44.41284" lon="5.8679">
        <ele>823.79998779297</ele>
        <time>2016-05-06T12:01:00Z</time>
      </trkpt>
      <trkpt lat="44.41285" lon="5.86789">
        <ele>823.79998779297</ele>
        <time>2016-05-06T12:01:01Z</time>
      </trkpt>
      <trkpt lat="44.41288" lon="5.86786">
        <ele>824.20001220703</ele>
        <time>2016-05-06T12:01:03Z</time>
      </trkpt>
      <trkpt lat="44.4129" lon="5.86785">
        <ele>824.79998779297</ele>
        <time>2016-05-06T12:01:04Z</time>
      </trkpt>
      <trkpt lat="44.41296" lon="5.86785">
        <ele>825.20001220703</ele>
        <time>2016-05-06T12:01:07Z</time>
      </trkpt>
      <trkpt lat="44.41298" lon="5.86785">
        <ele>825.20001220703</ele>
        <time>2016-05-06T12:01:08Z</time>
      </trkpt>
      <trkpt lat="44.41302" lon="5.86786">
        <ele>826</ele>
        <time>2016-05-06T12:01:10Z</time>
      </trkpt>
      <trkpt lat="44.4131" lon="5.86785">
        <ele>826.40002441406</ele>
        <time>2016-05-06T12:01:14Z</time>
      </trkpt>
      <trkpt lat="44.41314" lon="5.86785">
        <ele>826.40002441406</ele>
        <time>2016-05-06T12:01:16Z</time>
      </trkpt>
      <trkpt lat="44.41315" lon="5.86785">
        <ele>827</ele>
        <time>2016-05-06T12:01:17Z</time>
      </trkpt>
      <trkpt lat="44.41318" lon="5.86785">
        <ele>827.40002441406</ele>
        <time>2016-05-06T12:01:18Z</time>
      </trkpt>
      <trkpt lat="44.41331" lon="5.86786">
        <ele>827.79998779297</ele>
        <time>2016-05-06T12:01:24Z</time>
      </trkpt>
      <trkpt lat="44.41333" lon="5.86786">
        <ele>828.20001220703</ele>
        <time>2016-05-06T12:01:25Z</time>
      </trkpt>
      <trkpt lat="44.41337" lon="5.86786">
        <ele>828.59997558594</ele>
        <time>2016-05-06T12:01:28Z</time>
      </trkpt>
      <trkpt lat="44.41343" lon="5.86786">
        <ele>829.20001220703</ele>
        <time>2016-05-06T12:01:31Z</time>
      </trkpt>
      <trkpt lat="44.41344" lon="5.86786">
        <ele>829.59997558594</ele>
        <time>2016-05-06T12:01:32Z</time>
      </trkpt>
      <trkpt lat="44.41348" lon="5.86786">
        <ele>830</ele>
        <time>2016-05-06T12:01:35Z</time>
      </trkpt>
      <trkpt lat="44.41352" lon="5.86785">
        <ele>830.40002441406</ele>
        <time>2016-05-06T12:01:38Z</time>
      </trkpt>
      <trkpt lat="44.41354" lon="5.86785">
        <ele>830.79998779297</ele>
        <time>2016-05-06T12:01:39Z</time>
      </trkpt>
      <trkpt lat="44.41359" lon="5.86784">
        <ele>831.20001220703</ele>
        <time>2016-05-06T12:01:42Z</time>
      </trkpt>
      <trkpt lat="44.41363" lon="5.86783">
        <ele>831.79998779297</ele>
        <time>2016-05-06T12:01:45Z</time>
      </trkpt>
      <trkpt lat="44.41364" lon="5.86783">
        <ele>832.20001220703</ele>
        <time>2016-05-06T12:01:46Z</time>
      </trkpt>
      <trkpt lat="44.41368" lon="5.86783">
        <ele>832.59997558594</ele>
        <time>2016-05-06T12:01:49Z</time>
      </trkpt>
      <trkpt lat="44.41372" lon="5.86782">
        <ele>833</ele>
        <time>2016-05-06T12:01:52Z</time>
      </trkpt>
      <trkpt lat="44.41373" lon="5.86782">
        <ele>833.40002441406</ele>
        <time>2016-05-06T12:01:53Z</time>
      </trkpt>
      <trkpt lat="44.41374" lon="5.86782">
        <ele>833.40002441406</ele>
        <time>2016-05-06T12:01:54Z</time>
      </trkpt>
      <trkpt lat="44.41378" lon="5.8678">
        <ele>833.79998779297</ele>
        <time>2016-05-06T12:01:56Z</time>
      </trkpt>
      <trkpt lat="44.41384" lon="5.8678">
        <ele>834.20001220703</ele>
        <time>2016-05-06T12:02:00Z</time>
      </trkpt>
      <trkpt lat="44.41389" lon="5.8678">
        <ele>834.59997558594</ele>
        <time>2016-05-06T12:02:03Z</time>
      </trkpt>
      <trkpt lat="44.41394" lon="5.8678">
        <ele>835</ele>
        <time>2016-05-06T12:02:06Z</time>
      </trkpt>
      <trkpt lat="44.41396" lon="5.8678">
        <ele>835.40002441406</ele>
        <time>2016-05-06T12:02:07Z</time>
      </trkpt>
      <trkpt lat="44.41399" lon="5.86781">
        <ele>836.40002441406</ele>
        <time>2016-05-06T12:02:10Z</time>
      </trkpt>
      <trkpt lat="44.41404" lon="5.86781">
        <ele>836.79998779297</ele>
        <time>2016-05-06T12:02:13Z</time>
      </trkpt>
      <trkpt lat="44.41405" lon="5.8678">
        <ele>837.20001220703</ele>
        <time>2016-05-06T12:02:14Z</time>
      </trkpt>
      <trkpt lat="44.41409" lon="5.8678">
        <ele>838</ele>
        <time>2016-05-06T12:02:17Z</time>
      </trkpt>
      <trkpt lat="44.4141" lon="5.8678">
        <ele>838</ele>
        <time>2016-05-06T12:02:18Z</time>
      </trkpt>
      <trkpt lat="44.41422" lon="5.86779">
        <ele>838</ele>
        <time>2016-05-06T12:02:26Z</time>
      </trkpt>
      <trkpt lat="44.41425" lon="5.86779">
        <ele>838.40002441406</ele>
        <time>2016-05-06T12:02:28Z</time>
      </trkpt>
      <trkpt lat="44.41426" lon="5.8678">
        <ele>838.79998779297</ele>
        <time>2016-05-06T12:02:29Z</time>
      </trkpt>
      <trkpt lat="44.41431" lon="5.86781">
        <ele>839.20001220703</ele>
        <time>2016-05-06T12:02:32Z</time>
      </trkpt>
      <trkpt lat="44.41436" lon="5.86781">
        <ele>839.59997558594</ele>
        <time>2016-05-06T12:02:36Z</time>
      </trkpt>
      <trkpt lat="44.41437" lon="5.86781">
        <ele>840</ele>
        <time>2016-05-06T12:02:37Z</time>
      </trkpt>
      <trkpt lat="44.41444" lon="5.86783">
        <ele>840.59997558594</ele>
        <time>2016-05-06T12:02:43Z</time>
      </trkpt>
      <trkpt lat="44.41446" lon="5.86783">
        <ele>841</ele>
        <time>2016-05-06T12:02:44Z</time>
      </trkpt>
      <trkpt lat="44.41447" lon="5.86782">
        <ele>841</ele>
        <time>2016-05-06T12:02:45Z</time>
      </trkpt>
      <trkpt lat="44.41451" lon="5.86782">
        <ele>841.59997558594</ele>
        <time>2016-05-06T12:02:47Z</time>
      </trkpt>
      <trkpt lat="44.41456" lon="5.86782">
        <ele>842.20001220703</ele>
        <time>2016-05-06T12:02:51Z</time>
      </trkpt>
      <trkpt lat="44.41461" lon="5.86783">
        <ele>842.20001220703</ele>
        <time>2016-05-06T12:02:53Z</time>
      </trkpt>
      <trkpt lat="44.41463" lon="5.86783">
        <ele>842.79998779297</ele>
        <time>2016-05-06T12:02:54Z</time>
      </trkpt>
      <trkpt lat="44.41465" lon="5.86784">
        <ele>843.40002441406</ele>
        <time>2016-05-06T12:02:55Z</time>
      </trkpt>
      <trkpt lat="44.4147" lon="5.86783">
        <ele>844</ele>
        <time>2016-05-06T12:02:58Z</time>
      </trkpt>
      <trkpt lat="44.41473" lon="5.86784">
        <ele>844</ele>
        <time>2016-05-06T12:03:00Z</time>
      </trkpt>
      <trkpt lat="44.41474" lon="5.86784">
        <ele>844.59997558594</ele>
        <time>2016-05-06T12:03:01Z</time>
      </trkpt>
      <trkpt lat="44.41481" lon="5.86782">
        <ele>845.20001220703</ele>
        <time>2016-05-06T12:03:05Z</time>
      </trkpt>
      <trkpt lat="44.41486" lon="5.86781">
        <ele>845.59997558594</ele>
        <time>2016-05-06T12:03:08Z</time>
      </trkpt>
      <trkpt lat="44.41487" lon="5.86781">
        <ele>846</ele>
        <time>2016-05-06T12:03:09Z</time>
      </trkpt>
      <trkpt lat="44.41491" lon="5.86781">
        <ele>847</ele>
        <time>2016-05-06T12:03:12Z</time>
      </trkpt>
      <trkpt lat="44.41502" lon="5.8678">
        <ele>847.79998779297</ele>
        <time>2016-05-06T12:03:20Z</time>
      </trkpt>
      <trkpt lat="44.41505" lon="5.8678">
        <ele>848.20001220703</ele>
        <time>2016-05-06T12:03:23Z</time>
      </trkpt>
      <trkpt lat="44.41507" lon="5.86779">
        <ele>848.59997558594</ele>
        <time>2016-05-06T12:03:24Z</time>
      </trkpt>
      <trkpt lat="44.41511" lon="5.8678">
        <ele>849</ele>
        <time>2016-05-06T12:03:27Z</time>
      </trkpt>
      <trkpt lat="44.41516" lon="5.86779">
        <ele>849</ele>
        <time>2016-05-06T12:03:32Z</time>
      </trkpt>
      <trkpt lat="44.41519" lon="5.86778">
        <ele>849.59997558594</ele>
        <time>2016-05-06T12:03:34Z</time>
      </trkpt>
      <trkpt lat="44.41523" lon="5.86777">
        <ele>850</ele>
        <time>2016-05-06T12:03:37Z</time>
      </trkpt>
      <trkpt lat="44.41527" lon="5.86778">
        <ele>850.79998779297</ele>
        <time>2016-05-06T12:03:41Z</time>
      </trkpt>
      <trkpt lat="44.41531" lon="5.86777">
        <ele>851.40002441406</ele>
        <time>2016-05-06T12:03:44Z</time>
      </trkpt>
      <trkpt lat="44.41535" lon="5.86777">
        <ele>851.40002441406</ele>
        <time>2016-05-06T12:03:47Z</time>
      </trkpt>
      <trkpt lat="44.41537" lon="5.86777">
        <ele>851.79998779297</ele>
        <time>2016-05-06T12:03:48Z</time>
      </trkpt>
      <trkpt lat="44.41542" lon="5.86777">
        <ele>852.59997558594</ele>
        <time>2016-05-06T12:03:52Z</time>
      </trkpt>
      <trkpt lat="44.41545" lon="5.86778">
        <ele>853.40002441406</ele>
        <time>2016-05-06T12:03:55Z</time>
      </trkpt>
      <trkpt lat="44.41549" lon="5.86778">
        <ele>853.40002441406</ele>
        <time>2016-05-06T12:03:57Z</time>
      </trkpt>
      <trkpt lat="44.41551" lon="5.86778">
        <ele>853.79998779297</ele>
        <time>2016-05-06T12:03:58Z</time>
      </trkpt>
      <trkpt lat="44.41558" lon="5.86778">
        <ele>854.59997558594</ele>
        <time>2016-05-06T12:04:02Z</time>
      </trkpt>
      <trkpt lat="44.41563" lon="5.86778">
        <ele>855</ele>
        <time>2016-05-06T12:04:05Z</time>
      </trkpt>
      <trkpt lat="44.41564" lon="5.86777">
        <ele>855.40002441406</ele>
        <time>2016-05-06T12:04:06Z</time>
      </trkpt>
      <trkpt lat="44.41566" lon="5.86777">
        <ele>855.40002441406</ele>
        <time>2016-05-06T12:04:08Z</time>
      </trkpt>
      <trkpt lat="44.41571" lon="5.86777">
        <ele>855.79998779297</ele>
        <time>2016-05-06T12:04:12Z</time>
      </trkpt>
      <trkpt lat="44.41575" lon="5.86776">
        <ele>855.79998779297</ele>
        <time>2016-05-06T12:04:15Z</time>
      </trkpt>
      <trkpt lat="44.41576" lon="5.86776">
        <ele>856.59997558594</ele>
        <time>2016-05-06T12:04:16Z</time>
      </trkpt>
      <trkpt lat="44.4158" lon="5.86776">
        <ele>857</ele>
        <time>2016-05-06T12:04:19Z</time>
      </trkpt>
      <trkpt lat="44.41584" lon="5.86777">
        <ele>857.79998779297</ele>
        <time>2016-05-06T12:04:23Z</time>
      </trkpt>
      <trkpt lat="44.41588" lon="5.86778">
        <ele>858.40002441406</ele>
        <time>2016-05-06T12:04:26Z</time>
      </trkpt>
      <trkpt lat="44.41589" lon="5.86778">
        <ele>858.79998779297</ele>
        <time>2016-05-06T12:04:27Z</time>
      </trkpt>
      <trkpt lat="44.41595" lon="5.86779">
        <ele>859.79998779297</ele>
        <time>2016-05-06T12:04:30Z</time>
      </trkpt>
      <trkpt lat="44.41602" lon="5.86778">
        <ele>859.79998779297</ele>
        <time>2016-05-06T12:04:36Z</time>
      </trkpt>
      <trkpt lat="44.41603" lon="5.86778">
        <ele>860.20001220703</ele>
        <time>2016-05-06T12:04:37Z</time>
      </trkpt>
      <trkpt lat="44.41607" lon="5.86777">
        <ele>860.59997558594</ele>
        <time>2016-05-06T12:04:40Z</time>
      </trkpt>
      <trkpt lat="44.41612" lon="5.86776">
        <ele>861.20001220703</ele>
        <time>2016-05-06T12:04:44Z</time>
      </trkpt>
      <trkpt lat="44.41613" lon="5.86776">
        <ele>861.59997558594</ele>
        <time>2016-05-06T12:04:45Z</time>
      </trkpt>
      <trkpt lat="44.41613" lon="5.86775">
        <ele>862.20001220703</ele>
        <time>2016-05-06T12:04:46Z</time>
      </trkpt>
      <trkpt lat="44.41614" lon="5.86774">
        <ele>862.59997558594</ele>
        <time>2016-05-06T12:04:47Z</time>
      </trkpt>
      <trkpt lat="44.41615" lon="5.86774">
        <ele>863</ele>
        <time>2016-05-06T12:04:48Z</time>
      </trkpt>
      <trkpt lat="44.41617" lon="5.86772">
        <ele>864</ele>
        <time>2016-05-06T12:04:50Z</time>
      </trkpt>
      <trkpt lat="44.41622" lon="5.86762">
        <ele>864</ele>
        <time>2016-05-06T12:04:57Z</time>
      </trkpt>
      <trkpt lat="44.41623" lon="5.86758">
        <ele>864.59997558594</ele>
        <time>2016-05-06T12:04:59Z</time>
      </trkpt>
      <trkpt lat="44.41623" lon="5.86752">
        <ele>864.59997558594</ele>
        <time>2016-05-06T12:05:01Z</time>
      </trkpt>
      <trkpt lat="44.41622" lon="5.8675">
        <ele>865</ele>
        <time>2016-05-06T12:05:02Z</time>
      </trkpt>
      <trkpt lat="44.41622" lon="5.86748">
        <ele>865.40002441406</ele>
        <time>2016-05-06T12:05:03Z</time>
      </trkpt>
      <trkpt lat="44.41622" lon="5.86746">
        <ele>865.79998779297</ele>
        <time>2016-05-06T12:05:04Z</time>
      </trkpt>
      <trkpt lat="44.41621" lon="5.86744">
        <ele>866.20001220703</ele>
        <time>2016-05-06T12:05:05Z</time>
      </trkpt>
      <trkpt lat="44.41618" lon="5.86733">
        <ele>866.20001220703</ele>
        <time>2016-05-06T12:05:10Z</time>
      </trkpt>
      <trkpt lat="44.41609" lon="5.86718">
        <ele>866.20001220703</ele>
        <time>2016-05-06T12:05:17Z</time>
      </trkpt>
      <trkpt lat="44.41599" lon="5.86689">
        <ele>866.20001220703</ele>
        <time>2016-05-06T12:05:23Z</time>
      </trkpt>
      <trkpt lat="44.41592" lon="5.86661">
        <ele>866.20001220703</ele>
        <time>2016-05-06T12:05:29Z</time>
      </trkpt>
      <trkpt lat="44.41583" lon="5.86632">
        <ele>866.20001220703</ele>
        <time>2016-05-06T12:05:34Z</time>
      </trkpt>
      <trkpt lat="44.4157" lon="5.86597">
        <ele>866.20001220703</ele>
        <time>2016-05-06T12:05:40Z</time>
      </trkpt>
      <trkpt lat="44.41553" lon="5.86583">
        <ele>865.79998779297</ele>
        <time>2016-05-06T12:05:43Z</time>
      </trkpt>
      <trkpt lat="44.41546" lon="5.86582">
        <ele>865.40002441406</ele>
        <time>2016-05-06T12:05:44Z</time>
      </trkpt>
      <trkpt lat="44.41539" lon="5.86582">
        <ele>865</ele>
        <time>2016-05-06T12:05:45Z</time>
      </trkpt>
      <trkpt lat="44.41532" lon="5.86582">
        <ele>864.40002441406</ele>
        <time>2016-05-06T12:05:46Z</time>
      </trkpt>
      <trkpt lat="44.41526" lon="5.86585">
        <ele>864</ele>
        <time>2016-05-06T12:05:47Z</time>
      </trkpt>
      <trkpt lat="44.41515" lon="5.86591">
        <ele>864</ele>
        <time>2016-05-06T12:05:49Z</time>
      </trkpt>
      <trkpt lat="44.41486" lon="5.86597">
        <ele>864</ele>
        <time>2016-05-06T12:05:55Z</time>
      </trkpt>
      <trkpt lat="44.41478" lon="5.86596">
        <ele>864</ele>
        <time>2016-05-06T12:05:57Z</time>
      </trkpt>
      <trkpt lat="44.41468" lon="5.86595">
        <ele>864</ele>
        <time>2016-05-06T12:05:59Z</time>
      </trkpt>
      <trkpt lat="44.41464" lon="5.86593">
        <ele>864</ele>
        <time>2016-05-06T12:06:00Z</time>
      </trkpt>
      <trkpt lat="44.41434" lon="5.86589">
        <ele>864</ele>
        <time>2016-05-06T12:06:07Z</time>
      </trkpt>
      <trkpt lat="44.4142" lon="5.8659">
        <ele>864</ele>
        <time>2016-05-06T12:06:12Z</time>
      </trkpt>
      <trkpt lat="44.41407" lon="5.8658">
        <ele>864</ele>
        <time>2016-05-06T12:06:17Z</time>
      </trkpt>
      <trkpt lat="44.414" lon="5.86567">
        <ele>864</ele>
        <time>2016-05-06T12:06:20Z</time>
      </trkpt>
      <trkpt lat="44.41399" lon="5.86554">
        <ele>864</ele>
        <time>2016-05-06T12:06:22Z</time>
      </trkpt>
      <trkpt lat="44.41401" lon="5.86531">
        <ele>863.59997558594</ele>
        <time>2016-05-06T12:06:25Z</time>
      </trkpt>
      <trkpt lat="44.41403" lon="5.86524">
        <ele>863.20001220703</ele>
        <time>2016-05-06T12:06:26Z</time>
      </trkpt>
      <trkpt lat="44.41406" lon="5.86519">
        <ele>862.79998779297</ele>
        <time>2016-05-06T12:06:27Z</time>
      </trkpt>
      <trkpt lat="44.4141" lon="5.86514">
        <ele>862.20001220703</ele>
        <time>2016-05-06T12:06:28Z</time>
      </trkpt>
      <trkpt lat="44.41415" lon="5.86509">
        <ele>861.59997558594</ele>
        <time>2016-05-06T12:06:29Z</time>
      </trkpt>
      <trkpt lat="44.41422" lon="5.86502">
        <ele>861</ele>
        <time>2016-05-06T12:06:30Z</time>
      </trkpt>
      <trkpt lat="44.41427" lon="5.86496">
        <ele>860.40002441406</ele>
        <time>2016-05-06T12:06:31Z</time>
      </trkpt>
      <trkpt lat="44.41431" lon="5.86488">
        <ele>859.59997558594</ele>
        <time>2016-05-06T12:06:32Z</time>
      </trkpt>
      <trkpt lat="44.41435" lon="5.86476">
        <ele>859</ele>
        <time>2016-05-06T12:06:33Z</time>
      </trkpt>
      <trkpt lat="44.41438" lon="5.86465">
        <ele>858.40002441406</ele>
        <time>2016-05-06T12:06:34Z</time>
      </trkpt>
      <trkpt lat="44.41441" lon="5.86453">
        <ele>857.59997558594</ele>
        <time>2016-05-06T12:06:35Z</time>
      </trkpt>
      <trkpt lat="44.41445" lon="5.86441">
        <ele>857</ele>
        <time>2016-05-06T12:06:36Z</time>
      </trkpt>
      <trkpt lat="44.41448" lon="5.8643">
        <ele>856</ele>
        <time>2016-05-06T12:06:37Z</time>
      </trkpt>
      <trkpt lat="44.41451" lon="5.86418">
        <ele>855.20001220703</ele>
        <time>2016-05-06T12:06:38Z</time>
      </trkpt>
      <trkpt lat="44.41454" lon="5.86405">
        <ele>854.20001220703</ele>
        <time>2016-05-06T12:06:39Z</time>
      </trkpt>
      <trkpt lat="44.41456" lon="5.86393">
        <ele>853.40002441406</ele>
        <time>2016-05-06T12:06:40Z</time>
      </trkpt>
      <trkpt lat="44.41458" lon="5.86381">
        <ele>852.59997558594</ele>
        <time>2016-05-06T12:06:41Z</time>
      </trkpt>
      <trkpt lat="44.41459" lon="5.86369">
        <ele>851.79998779297</ele>
        <time>2016-05-06T12:06:42Z</time>
      </trkpt>
      <trkpt lat="44.41459" lon="5.86358">
        <ele>851</ele>
        <time>2016-05-06T12:06:43Z</time>
      </trkpt>
      <trkpt lat="44.4146" lon="5.86346">
        <ele>850.40002441406</ele>
        <time>2016-05-06T12:06:44Z</time>
      </trkpt>
      <trkpt lat="44.4146" lon="5.86338">
        <ele>849.59997558594</ele>
        <time>2016-05-06T12:06:45Z</time>
      </trkpt>
      <trkpt lat="44.41459" lon="5.86332">
        <ele>849</ele>
        <time>2016-05-06T12:06:46Z</time>
      </trkpt>
      <trkpt lat="44.41457" lon="5.86328">
        <ele>848.40002441406</ele>
        <time>2016-05-06T12:06:47Z</time>
      </trkpt>
      <trkpt lat="44.41454" lon="5.86324">
        <ele>847.59997558594</ele>
        <time>2016-05-06T12:06:48Z</time>
      </trkpt>
      <trkpt lat="44.4145" lon="5.86322">
        <ele>847.59997558594</ele>
        <time>2016-05-06T12:06:49Z</time>
      </trkpt>
      <trkpt lat="44.41446" lon="5.86322">
        <ele>847.20001220703</ele>
        <time>2016-05-06T12:06:50Z</time>
      </trkpt>
      <trkpt lat="44.41441" lon="5.86324">
        <ele>846.59997558594</ele>
        <time>2016-05-06T12:06:51Z</time>
      </trkpt>
      <trkpt lat="44.41437" lon="5.86326">
        <ele>846.20001220703</ele>
        <time>2016-05-06T12:06:52Z</time>
      </trkpt>
      <trkpt lat="44.41432" lon="5.86328">
        <ele>845.59997558594</ele>
        <time>2016-05-06T12:06:53Z</time>
      </trkpt>
      <trkpt lat="44.41428" lon="5.86328">
        <ele>845</ele>
        <time>2016-05-06T12:06:54Z</time>
      </trkpt>
      <trkpt lat="44.41423" lon="5.86329">
        <ele>844.59997558594</ele>
        <time>2016-05-06T12:06:55Z</time>
      </trkpt>
      <trkpt lat="44.4142" lon="5.8633">
        <ele>844</ele>
        <time>2016-05-06T12:06:56Z</time>
      </trkpt>
      <trkpt lat="44.41417" lon="5.86333">
        <ele>843.40002441406</ele>
        <time>2016-05-06T12:06:57Z</time>
      </trkpt>
      <trkpt lat="44.41414" lon="5.86335">
        <ele>843</ele>
        <time>2016-05-06T12:06:58Z</time>
      </trkpt>
      <trkpt lat="44.4141" lon="5.86336">
        <ele>842.40002441406</ele>
        <time>2016-05-06T12:06:59Z</time>
      </trkpt>
      <trkpt lat="44.41406" lon="5.8634">
        <ele>841.79998779297</ele>
        <time>2016-05-06T12:07:00Z</time>
      </trkpt>
      <trkpt lat="44.41403" lon="5.86344">
        <ele>841.20001220703</ele>
        <time>2016-05-06T12:07:01Z</time>
      </trkpt>
      <trkpt lat="44.41401" lon="5.86348">
        <ele>840.59997558594</ele>
        <time>2016-05-06T12:07:02Z</time>
      </trkpt>
      <trkpt lat="44.41397" lon="5.86352">
        <ele>840.20001220703</ele>
        <time>2016-05-06T12:07:03Z</time>
      </trkpt>
      <trkpt lat="44.41393" lon="5.86356">
        <ele>839.59997558594</ele>
        <time>2016-05-06T12:07:04Z</time>
      </trkpt>
      <trkpt lat="44.4139" lon="5.8636">
        <ele>839</ele>
        <time>2016-05-06T12:07:05Z</time>
      </trkpt>
      <trkpt lat="44.41386" lon="5.86362">
        <ele>838.40002441406</ele>
        <time>2016-05-06T12:07:06Z</time>
      </trkpt>
      <trkpt lat="44.41381" lon="5.86367">
        <ele>837.79998779297</ele>
        <time>2016-05-06T12:07:07Z</time>
      </trkpt>
      <trkpt lat="44.41376" lon="5.86371">
        <ele>837</ele>
        <time>2016-05-06T12:07:08Z</time>
      </trkpt>
      <trkpt lat="44.41371" lon="5.86372">
        <ele>836</ele>
        <time>2016-05-06T12:07:09Z</time>
      </trkpt>
      <trkpt lat="44.41365" lon="5.86373">
        <ele>835.20001220703</ele>
        <time>2016-05-06T12:07:10Z</time>
      </trkpt>
      <trkpt lat="44.41361" lon="5.86373">
        <ele>834.40002441406</ele>
        <time>2016-05-06T12:07:11Z</time>
      </trkpt>
      <trkpt lat="44.41357" lon="5.86373">
        <ele>833.59997558594</ele>
        <time>2016-05-06T12:07:12Z</time>
      </trkpt>
      <trkpt lat="44.41355" lon="5.86374">
        <ele>832.79998779297</ele>
        <time>2016-05-06T12:07:13Z</time>
      </trkpt>
      <trkpt lat="44.41353" lon="5.86375">
        <ele>832</ele>
        <time>2016-05-06T12:07:14Z</time>
      </trkpt>
      <trkpt lat="44.41352" lon="5.86377">
        <ele>831.20001220703</ele>
        <time>2016-05-06T12:07:15Z</time>
      </trkpt>
      <trkpt lat="44.4135" lon="5.86379">
        <ele>831.20001220703</ele>
        <time>2016-05-06T12:07:16Z</time>
      </trkpt>
      <trkpt lat="44.41342" lon="5.86388">
        <ele>830.79998779297</ele>
        <time>2016-05-06T12:07:21Z</time>
      </trkpt>
      <trkpt lat="44.4134" lon="5.86388">
        <ele>830.40002441406</ele>
        <time>2016-05-06T12:07:22Z</time>
      </trkpt>
      <trkpt lat="44.41339" lon="5.86387">
        <ele>830</ele>
        <time>2016-05-06T12:07:23Z</time>
      </trkpt>
      <trkpt lat="44.41337" lon="5.86387">
        <ele>829.59997558594</ele>
        <time>2016-05-06T12:07:24Z</time>
      </trkpt>
      <trkpt lat="44.41338" lon="5.86386">
        <ele>829</ele>
        <time>2016-05-06T12:07:25Z</time>
      </trkpt>
      <trkpt lat="44.41337" lon="5.86387">
        <ele>829</ele>
        <time>2016-05-06T12:07:27Z</time>
      </trkpt>
      <trkpt lat="44.41336" lon="5.86385">
        <ele>829.40002441406</ele>
        <time>2016-05-06T12:07:37Z</time>
      </trkpt>
      <trkpt lat="44.41336" lon="5.86385">
        <ele>829.79998779297</ele>
        <time>2016-05-06T12:07:38Z</time>
      </trkpt>
      <trkpt lat="44.41336" lon="5.86385">
        <ele>830.40002441406</ele>
        <time>2016-05-06T12:07:39Z</time>
      </trkpt>
      <trkpt lat="44.41336" lon="5.86385">
        <ele>830.79998779297</ele>
        <time>2016-05-06T12:07:40Z</time>
      </trkpt>
      <trkpt lat="44.41336" lon="5.86385">
        <ele>831.20001220703</ele>
        <time>2016-05-06T12:07:41Z</time>
      </trkpt>
      <trkpt lat="44.41335" lon="5.86383">
        <ele>831.59997558594</ele>
        <time>2016-05-06T12:07:53Z</time>
      </trkpt>
      <trkpt lat="44.41335" lon="5.86383">
        <ele>832</ele>
        <time>2016-05-06T12:07:54Z</time>
      </trkpt>
      <trkpt lat="44.41335" lon="5.86383">
        <ele>832.40002441406</ele>
        <time>2016-05-06T12:07:55Z</time>
      </trkpt>
      <trkpt lat="44.41335" lon="5.86383">
        <ele>832.79998779297</ele>
        <time>2016-05-06T12:07:56Z</time>
      </trkpt>
      <trkpt lat="44.41335" lon="5.86383">
        <ele>833.20001220703</ele>
        <time>2016-05-06T12:07:57Z</time>
      </trkpt>
      <trkpt lat="44.41334" lon="5.86378">
        <ele>833.20001220703</ele>
        <time>2016-05-06T12:08:16Z</time>
      </trkpt>
      <trkpt lat="44.41327" lon="5.86372">
        <ele>833.79998779297</ele>
        <time>2016-05-06T12:08:20Z</time>
      </trkpt>
      <trkpt lat="44.41323" lon="5.86359">
        <ele>834.20001220703</ele>
        <time>2016-05-06T12:08:23Z</time>
      </trkpt>
      <trkpt lat="44.41321" lon="5.86354">
        <ele>834.20001220703</ele>
        <time>2016-05-06T12:08:24Z</time>
      </trkpt>
      <trkpt lat="44.41311" lon="5.86347">
        <ele>835</ele>
        <time>2016-05-06T12:08:27Z</time>
      </trkpt>
      <trkpt lat="44.41303" lon="5.86341">
        <ele>835.40002441406</ele>
        <time>2016-05-06T12:08:30Z</time>
      </trkpt>
      <trkpt lat="44.41291" lon="5.86315">
        <ele>835.40002441406</ele>
        <time>2016-05-06T12:08:38Z</time>
      </trkpt>
      <trkpt lat="44.41266" lon="5.86285">
        <ele>835.40002441406</ele>
        <time>2016-05-06T12:08:45Z</time>
      </trkpt>
      <trkpt lat="44.4125" lon="5.86267">
        <ele>835.40002441406</ele>
        <time>2016-05-06T12:08:50Z</time>
      </trkpt>
      <trkpt lat="44.41238" lon="5.86267">
        <ele>835.40002441406</ele>
        <time>2016-05-06T12:08:56Z</time>
      </trkpt>
      <trkpt lat="44.41233" lon="5.86265">
        <ele>836</ele>
        <time>2016-05-06T12:08:58Z</time>
      </trkpt>
      <trkpt lat="44.4123" lon="5.86261">
        <ele>836</ele>
        <time>2016-05-06T12:09:00Z</time>
      </trkpt>
      <trkpt lat="44.41226" lon="5.86258">
        <ele>837</ele>
        <time>2016-05-06T12:09:02Z</time>
      </trkpt>
      <trkpt lat="44.41222" lon="5.86253">
        <ele>837.40002441406</ele>
        <time>2016-05-06T12:09:05Z</time>
      </trkpt>
      <trkpt lat="44.41219" lon="5.86246">
        <ele>837.40002441406</ele>
        <time>2016-05-06T12:09:08Z</time>
      </trkpt>
      <trkpt lat="44.41219" lon="5.86243">
        <ele>837.79998779297</ele>
        <time>2016-05-06T12:09:09Z</time>
      </trkpt>
      <trkpt lat="44.41204" lon="5.86226">
        <ele>837.79998779297</ele>
        <time>2016-05-06T12:09:17Z</time>
      </trkpt>
      <trkpt lat="44.41195" lon="5.86216">
        <ele>838.79998779297</ele>
        <time>2016-05-06T12:09:23Z</time>
      </trkpt>
      <trkpt lat="44.41193" lon="5.86216">
        <ele>838.79998779297</ele>
        <time>2016-05-06T12:09:24Z</time>
      </trkpt>
      <trkpt lat="44.4119" lon="5.86213">
        <ele>839.20001220703</ele>
        <time>2016-05-06T12:09:27Z</time>
      </trkpt>
      <trkpt lat="44.41187" lon="5.86211">
        <ele>840</ele>
        <time>2016-05-06T12:09:30Z</time>
      </trkpt>
      <trkpt lat="44.41187" lon="5.86209">
        <ele>840</ele>
        <time>2016-05-06T12:09:31Z</time>
      </trkpt>
      <trkpt lat="44.41186" lon="5.86207">
        <ele>840</ele>
        <time>2016-05-06T12:09:32Z</time>
      </trkpt>
      <trkpt lat="44.41186" lon="5.86205">
        <ele>840.59997558594</ele>
        <time>2016-05-06T12:09:33Z</time>
      </trkpt>
      <trkpt lat="44.41184" lon="5.86198">
        <ele>841.59997558594</ele>
        <time>2016-05-06T12:09:37Z</time>
      </trkpt>
      <trkpt lat="44.41183" lon="5.86193">
        <ele>842.20001220703</ele>
        <time>2016-05-06T12:09:40Z</time>
      </trkpt>
      <trkpt lat="44.41182" lon="5.86191">
        <ele>842.20001220703</ele>
        <time>2016-05-06T12:09:41Z</time>
      </trkpt>
      <trkpt lat="44.4118" lon="5.86186">
        <ele>843.20001220703</ele>
        <time>2016-05-06T12:09:44Z</time>
      </trkpt>
      <trkpt lat="44.41175" lon="5.86179">
        <ele>843.79998779297</ele>
        <time>2016-05-06T12:09:47Z</time>
      </trkpt>
      <trkpt lat="44.41171" lon="5.86171">
        <ele>843.79998779297</ele>
        <time>2016-05-06T12:09:50Z</time>
      </trkpt>
      <trkpt lat="44.41169" lon="5.86169">
        <ele>844.79998779297</ele>
        <time>2016-05-06T12:09:51Z</time>
      </trkpt>
      <trkpt lat="44.41159" lon="5.86153">
        <ele>844.79998779297</ele>
        <time>2016-05-06T12:09:56Z</time>
      </trkpt>
      <trkpt lat="44.4115" lon="5.86142">
        <ele>844.79998779297</ele>
        <time>2016-05-06T12:10:01Z</time>
      </trkpt>
      <trkpt lat="44.41134" lon="5.86121">
        <ele>844.79998779297</ele>
        <time>2016-05-06T12:10:08Z</time>
      </trkpt>
      <trkpt lat="44.41125" lon="5.86103">
        <ele>844.79998779297</ele>
        <time>2016-05-06T12:10:12Z</time>
      </trkpt>
      <trkpt lat="44.41124" lon="5.86098">
        <ele>844.79998779297</ele>
        <time>2016-05-06T12:10:13Z</time>
      </trkpt>
      <trkpt lat="44.41114" lon="5.86074">
        <ele>844.79998779297</ele>
        <time>2016-05-06T12:10:17Z</time>
      </trkpt>
      <trkpt lat="44.41101" lon="5.86062">
        <ele>844.79998779297</ele>
        <time>2016-05-06T12:10:22Z</time>
      </trkpt>
      <trkpt lat="44.4108" lon="5.86045">
        <ele>844.79998779297</ele>
        <time>2016-05-06T12:10:28Z</time>
      </trkpt>
      <trkpt lat="44.41067" lon="5.86032">
        <ele>844.79998779297</ele>
        <time>2016-05-06T12:10:31Z</time>
      </trkpt>
      <trkpt lat="44.41063" lon="5.8602">
        <ele>844.79998779297</ele>
        <time>2016-05-06T12:10:33Z</time>
      </trkpt>
      <trkpt lat="44.41059" lon="5.86004">
        <ele>843.79998779297</ele>
        <time>2016-05-06T12:10:37Z</time>
      </trkpt>
      <trkpt lat="44.41058" lon="5.85986">
        <ele>842.79998779297</ele>
        <time>2016-05-06T12:10:41Z</time>
      </trkpt>
      <trkpt lat="44.41061" lon="5.85973">
        <ele>842.79998779297</ele>
        <time>2016-05-06T12:10:43Z</time>
      </trkpt>
      <trkpt lat="44.41062" lon="5.8596">
        <ele>841.40002441406</ele>
        <time>2016-05-06T12:10:45Z</time>
      </trkpt>
      <trkpt lat="44.41063" lon="5.85947">
        <ele>839.59997558594</ele>
        <time>2016-05-06T12:10:48Z</time>
      </trkpt>
      <trkpt lat="44.41064" lon="5.85943">
        <ele>839.59997558594</ele>
        <time>2016-05-06T12:10:49Z</time>
      </trkpt>
      <trkpt lat="44.4107" lon="5.85925">
        <ele>837.59997558594</ele>
        <time>2016-05-06T12:10:52Z</time>
      </trkpt>
      <trkpt lat="44.41074" lon="5.85916">
        <ele>837.59997558594</ele>
        <time>2016-05-06T12:10:53Z</time>
      </trkpt>
      <trkpt lat="44.41078" lon="5.85906">
        <ele>837.59997558594</ele>
        <time>2016-05-06T12:10:55Z</time>
      </trkpt>
      <trkpt lat="44.4108" lon="5.85903">
        <ele>835.59997558594</ele>
        <time>2016-05-06T12:10:56Z</time>
      </trkpt>
      <trkpt lat="44.41085" lon="5.859">
        <ele>835.59997558594</ele>
        <time>2016-05-06T12:10:57Z</time>
      </trkpt>
      <trkpt lat="44.41089" lon="5.85897">
        <ele>835.59997558594</ele>
        <time>2016-05-06T12:10:59Z</time>
      </trkpt>
      <trkpt lat="44.41091" lon="5.85896">
        <ele>834.59997558594</ele>
        <time>2016-05-06T12:11:00Z</time>
      </trkpt>
      <trkpt lat="44.411" lon="5.85892">
        <ele>833.59997558594</ele>
        <time>2016-05-06T12:11:04Z</time>
      </trkpt>
      <trkpt lat="44.41101" lon="5.85891">
        <ele>833.59997558594</ele>
        <time>2016-05-06T12:11:05Z</time>
      </trkpt>
      <trkpt lat="44.41102" lon="5.85889">
        <ele>832.59997558594</ele>
        <time>2016-05-06T12:11:08Z</time>
      </trkpt>
      <trkpt lat="44.41103" lon="5.85888">
        <ele>832.59997558594</ele>
        <time>2016-05-06T12:11:09Z</time>
      </trkpt>
      <trkpt lat="44.41103" lon="5.85885">
        <ele>832.20001220703</ele>
        <time>2016-05-06T12:11:11Z</time>
      </trkpt>
      <trkpt lat="44.41104" lon="5.85885">
        <ele>831.79998779297</ele>
        <time>2016-05-06T12:11:15Z</time>
      </trkpt>
      <trkpt lat="44.41104" lon="5.85885">
        <ele>830.79998779297</ele>
        <time>2016-05-06T12:11:19Z</time>
      </trkpt>
      <trkpt lat="44.41104" lon="5.85884">
        <ele>830.40002441406</ele>
        <time>2016-05-06T12:11:23Z</time>
      </trkpt>
      <trkpt lat="44.41104" lon="5.85884">
        <ele>830</ele>
        <time>2016-05-06T12:11:26Z</time>
      </trkpt>
      <trkpt lat="44.41104" lon="5.85884">
        <ele>831</ele>
        <time>2016-05-06T12:11:37Z</time>
      </trkpt>
      <trkpt lat="44.41104" lon="5.85884">
        <ele>831.40002441406</ele>
        <time>2016-05-06T12:11:40Z</time>
      </trkpt>
      <trkpt lat="44.41104" lon="5.85884">
        <ele>832.40002441406</ele>
        <time>2016-05-06T12:11:44Z</time>
      </trkpt>
      <trkpt lat="44.41103" lon="5.85883">
        <ele>832.40002441406</ele>
        <time>2016-05-06T12:11:51Z</time>
      </trkpt>
      <trkpt lat="44.41103" lon="5.85883">
        <ele>833</ele>
        <time>2016-05-06T12:11:57Z</time>
      </trkpt>
      <trkpt lat="44.41103" lon="5.85882">
        <ele>833.40002441406</ele>
        <time>2016-05-06T12:12:00Z</time>
      </trkpt>
      <trkpt lat="44.41103" lon="5.85882">
        <ele>834.40002441406</ele>
        <time>2016-05-06T12:12:04Z</time>
      </trkpt>
      <trkpt lat="44.41104" lon="5.85881">
        <ele>834.79998779297</ele>
        <time>2016-05-06T12:12:07Z</time>
      </trkpt>
      <trkpt lat="44.41105" lon="5.85878">
        <ele>835.79998779297</ele>
        <time>2016-05-06T12:12:15Z</time>
      </trkpt>
      <trkpt lat="44.41105" lon="5.85878">
        <ele>836.79998779297</ele>
        <time>2016-05-06T12:12:19Z</time>
      </trkpt>
      <trkpt lat="44.41105" lon="5.85878">
        <ele>837.59997558594</ele>
        <time>2016-05-06T12:12:23Z</time>
      </trkpt>
      <trkpt lat="44.41105" lon="5.85878">
        <ele>838.59997558594</ele>
        <time>2016-05-06T12:12:27Z</time>
      </trkpt>
      <trkpt lat="44.41105" lon="5.85878">
        <ele>839.20001220703</ele>
        <time>2016-05-06T12:12:30Z</time>
      </trkpt>
      <trkpt lat="44.41105" lon="5.85878">
        <ele>839.59997558594</ele>
        <time>2016-05-06T12:12:34Z</time>
      </trkpt>
      <trkpt lat="44.41106" lon="5.85877">
        <ele>839.59997558594</ele>
        <time>2016-05-06T12:12:40Z</time>
      </trkpt>
      <trkpt lat="44.41106" lon="5.85877">
        <ele>840.59997558594</ele>
        <time>2016-05-06T12:12:42Z</time>
      </trkpt>
      <trkpt lat="44.41106" lon="5.85877">
        <ele>841</ele>
        <time>2016-05-06T12:12:45Z</time>
      </trkpt>
      <trkpt lat="44.41106" lon="5.85877">
        <ele>841.40002441406</ele>
        <time>2016-05-06T12:12:46Z</time>
      </trkpt>
      <trkpt lat="44.41106" lon="5.85876">
        <ele>841.79998779297</ele>
        <time>2016-05-06T12:12:49Z</time>
      </trkpt>
      <trkpt lat="44.41108" lon="5.85875">
        <ele>842.40002441406</ele>
        <time>2016-05-06T12:12:57Z</time>
      </trkpt>
      <trkpt lat="44.41108" lon="5.85874">
        <ele>843.20001220703</ele>
        <time>2016-05-06T12:13:01Z</time>
      </trkpt>
      <trkpt lat="44.41108" lon="5.85874">
        <ele>844.20001220703</ele>
        <time>2016-05-06T12:13:05Z</time>
      </trkpt>
      <trkpt lat="44.41108" lon="5.85874">
        <ele>844.59997558594</ele>
        <time>2016-05-06T12:13:12Z</time>
      </trkpt>
      <trkpt lat="44.41108" lon="5.85874">
        <ele>845</ele>
        <time>2016-05-06T12:13:13Z</time>
      </trkpt>
      <trkpt lat="44.41108" lon="5.85873">
        <ele>845.40002441406</ele>
        <time>2016-05-06T12:13:16Z</time>
      </trkpt>
      <trkpt lat="44.41108" lon="5.85873">
        <ele>846</ele>
        <time>2016-05-06T12:13:17Z</time>
      </trkpt>
      <trkpt lat="44.41108" lon="5.85873">
        <ele>846.40002441406</ele>
        <time>2016-05-06T12:13:20Z</time>
      </trkpt>
      <trkpt lat="44.41108" lon="5.8587">
        <ele>846.40002441406</ele>
        <time>2016-05-06T12:13:28Z</time>
      </trkpt>
      <trkpt lat="44.41108" lon="5.8583">
        <ele>846.40002441406</ele>
        <time>2016-05-06T12:13:37Z</time>
      </trkpt>
      <trkpt lat="44.41111" lon="5.85812">
        <ele>846.79998779297</ele>
        <time>2016-05-06T12:13:40Z</time>
      </trkpt>
      <trkpt lat="44.41112" lon="5.85799">
        <ele>847.20001220703</ele>
        <time>2016-05-06T12:13:43Z</time>
      </trkpt>
      <trkpt lat="44.41113" lon="5.85797">
        <ele>847.79998779297</ele>
        <time>2016-05-06T12:13:44Z</time>
      </trkpt>
      <trkpt lat="44.41115" lon="5.85786">
        <ele>848.20001220703</ele>
        <time>2016-05-06T12:13:47Z</time>
      </trkpt>
      <trkpt lat="44.41116" lon="5.85783">
        <ele>848.79998779297</ele>
        <time>2016-05-06T12:13:48Z</time>
      </trkpt>
      <trkpt lat="44.41121" lon="5.85771">
        <ele>849.20001220703</ele>
        <time>2016-05-06T12:13:51Z</time>
      </trkpt>
      <trkpt lat="44.41123" lon="5.85758">
        <ele>849.79998779297</ele>
        <time>2016-05-06T12:13:55Z</time>
      </trkpt>
      <trkpt lat="44.41128" lon="5.85743">
        <ele>850.79998779297</ele>
        <time>2016-05-06T12:13:59Z</time>
      </trkpt>
      <trkpt lat="44.4113" lon="5.85738">
        <ele>850.79998779297</ele>
        <time>2016-05-06T12:14:01Z</time>
      </trkpt>
      <trkpt lat="44.41132" lon="5.85732">
        <ele>851.79998779297</ele>
        <time>2016-05-06T12:14:03Z</time>
      </trkpt>
      <trkpt lat="44.41134" lon="5.8572">
        <ele>852.59997558594</ele>
        <time>2016-05-06T12:14:07Z</time>
      </trkpt>
      <trkpt lat="44.41135" lon="5.85709">
        <ele>853.20001220703</ele>
        <time>2016-05-06T12:14:10Z</time>
      </trkpt>
      <trkpt lat="44.41153" lon="5.85686">
        <ele>853.20001220703</ele>
        <time>2016-05-06T12:14:16Z</time>
      </trkpt>
      <trkpt lat="44.41159" lon="5.8568">
        <ele>853.59997558594</ele>
        <time>2016-05-06T12:14:18Z</time>
      </trkpt>
      <trkpt lat="44.41164" lon="5.85668">
        <ele>854.40002441406</ele>
        <time>2016-05-06T12:14:22Z</time>
      </trkpt>
      <trkpt lat="44.41164" lon="5.85652">
        <ele>855.40002441406</ele>
        <time>2016-05-06T12:14:26Z</time>
      </trkpt>
      <trkpt lat="44.41172" lon="5.85627">
        <ele>855.40002441406</ele>
        <time>2016-05-06T12:14:32Z</time>
      </trkpt>
      <trkpt lat="44.41174" lon="5.85624">
        <ele>855.79998779297</ele>
        <time>2016-05-06T12:14:34Z</time>
      </trkpt>
      <trkpt lat="44.41176" lon="5.85619">
        <ele>856.20001220703</ele>
        <time>2016-05-06T12:14:37Z</time>
      </trkpt>
      <trkpt lat="44.41177" lon="5.85617">
        <ele>856.59997558594</ele>
        <time>2016-05-06T12:14:38Z</time>
      </trkpt>
      <trkpt lat="44.41179" lon="5.85609">
        <ele>857</ele>
        <time>2016-05-06T12:14:41Z</time>
      </trkpt>
      <trkpt lat="44.41179" lon="5.85596">
        <ele>857.40002441406</ele>
        <time>2016-05-06T12:14:45Z</time>
      </trkpt>
      <trkpt lat="44.41184" lon="5.85586">
        <ele>857.40002441406</ele>
        <time>2016-05-06T12:14:51Z</time>
      </trkpt>
      <trkpt lat="44.41191" lon="5.85577">
        <ele>857.40002441406</ele>
        <time>2016-05-06T12:14:54Z</time>
      </trkpt>
      <trkpt lat="44.41195" lon="5.85562">
        <ele>857.40002441406</ele>
        <time>2016-05-06T12:14:58Z</time>
      </trkpt>
      <trkpt lat="44.41195" lon="5.85557">
        <ele>857.40002441406</ele>
        <time>2016-05-06T12:14:59Z</time>
      </trkpt>
      <trkpt lat="44.41195" lon="5.85553">
        <ele>857.40002441406</ele>
        <time>2016-05-06T12:15:00Z</time>
      </trkpt>
      <trkpt lat="44.41196" lon="5.85545">
        <ele>857.40002441406</ele>
        <time>2016-05-06T12:15:02Z</time>
      </trkpt>
      <trkpt lat="44.41199" lon="5.85531">
        <ele>857.40002441406</ele>
        <time>2016-05-06T12:15:07Z</time>
      </trkpt>
      <trkpt lat="44.41204" lon="5.85514">
        <ele>857.40002441406</ele>
        <time>2016-05-06T12:15:14Z</time>
      </trkpt>
      <trkpt lat="44.41209" lon="5.85508">
        <ele>857.40002441406</ele>
        <time>2016-05-06T12:15:18Z</time>
      </trkpt>
      <trkpt lat="44.4121" lon="5.85507">
        <ele>858.40002441406</ele>
        <time>2016-05-06T12:15:19Z</time>
      </trkpt>
      <trkpt lat="44.41211" lon="5.85503">
        <ele>858.40002441406</ele>
        <time>2016-05-06T12:15:21Z</time>
      </trkpt>
      <trkpt lat="44.41213" lon="5.855">
        <ele>859.20001220703</ele>
        <time>2016-05-06T12:15:23Z</time>
      </trkpt>
      <trkpt lat="44.41216" lon="5.85495">
        <ele>859.79998779297</ele>
        <time>2016-05-06T12:15:26Z</time>
      </trkpt>
      <trkpt lat="44.41219" lon="5.8549">
        <ele>859.79998779297</ele>
        <time>2016-05-06T12:15:29Z</time>
      </trkpt>
      <trkpt lat="44.4122" lon="5.85489">
        <ele>860.20001220703</ele>
        <time>2016-05-06T12:15:30Z</time>
      </trkpt>
      <trkpt lat="44.41223" lon="5.85484">
        <ele>861.20001220703</ele>
        <time>2016-05-06T12:15:34Z</time>
      </trkpt>
      <trkpt lat="44.41223" lon="5.85481">
        <ele>861.20001220703</ele>
        <time>2016-05-06T12:15:35Z</time>
      </trkpt>
      <trkpt lat="44.41223" lon="5.85477">
        <ele>861.20001220703</ele>
        <time>2016-05-06T12:15:37Z</time>
      </trkpt>
      <trkpt lat="44.41222" lon="5.85476">
        <ele>862.40002441406</ele>
        <time>2016-05-06T12:15:38Z</time>
      </trkpt>
      <trkpt lat="44.41223" lon="5.85472">
        <ele>862.79998779297</ele>
        <time>2016-05-06T12:15:41Z</time>
      </trkpt>
      <trkpt lat="44.41224" lon="5.8547">
        <ele>863.40002441406</ele>
        <time>2016-05-06T12:15:42Z</time>
      </trkpt>
      <trkpt lat="44.41224" lon="5.85465">
        <ele>864</ele>
        <time>2016-05-06T12:15:45Z</time>
      </trkpt>
      <trkpt lat="44.41224" lon="5.8546">
        <ele>864</ele>
        <time>2016-05-06T12:15:47Z</time>
      </trkpt>
      <trkpt lat="44.41224" lon="5.85455">
        <ele>864.59997558594</ele>
        <time>2016-05-06T12:15:49Z</time>
      </trkpt>
      <trkpt lat="44.4123" lon="5.8545">
        <ele>864.59997558594</ele>
        <time>2016-05-06T12:15:53Z</time>
      </trkpt>
      <trkpt lat="44.41231" lon="5.8545">
        <ele>864.59997558594</ele>
        <time>2016-05-06T12:15:54Z</time>
      </trkpt>
      <trkpt lat="44.41242" lon="5.85447">
        <ele>864.59997558594</ele>
        <time>2016-05-06T12:15:58Z</time>
      </trkpt>
      <trkpt lat="44.41248" lon="5.85436">
        <ele>864.59997558594</ele>
        <time>2016-05-06T12:16:02Z</time>
      </trkpt>
      <trkpt lat="44.41246" lon="5.85434">
        <ele>864.59997558594</ele>
        <time>2016-05-06T12:16:06Z</time>
      </trkpt>
      <trkpt lat="44.41244" lon="5.85428">
        <ele>864.59997558594</ele>
        <time>2016-05-06T12:16:12Z</time>
      </trkpt>
      <trkpt lat="44.41245" lon="5.85421">
        <ele>864.59997558594</ele>
        <time>2016-05-06T12:16:20Z</time>
      </trkpt>
      <trkpt lat="44.41243" lon="5.85406">
        <ele>864.59997558594</ele>
        <time>2016-05-06T12:16:27Z</time>
      </trkpt>
      <trkpt lat="44.41233" lon="5.85385">
        <ele>864.59997558594</ele>
        <time>2016-05-06T12:16:35Z</time>
      </trkpt>
      <trkpt lat="44.41231" lon="5.85371">
        <ele>865</ele>
        <time>2016-05-06T12:16:41Z</time>
      </trkpt>
      <trkpt lat="44.4123" lon="5.85366">
        <ele>865</ele>
        <time>2016-05-06T12:16:43Z</time>
      </trkpt>
      <trkpt lat="44.41229" lon="5.85349">
        <ele>865.40002441406</ele>
        <time>2016-05-06T12:16:49Z</time>
      </trkpt>
      <trkpt lat="44.41229" lon="5.85347">
        <ele>865.79998779297</ele>
        <time>2016-05-06T12:16:50Z</time>
      </trkpt>
      <trkpt lat="44.4123" lon="5.85336">
        <ele>866.20001220703</ele>
        <time>2016-05-06T12:16:54Z</time>
      </trkpt>
      <trkpt lat="44.41229" lon="5.85333">
        <ele>866.59997558594</ele>
        <time>2016-05-06T12:16:55Z</time>
      </trkpt>
      <trkpt lat="44.41232" lon="5.85327">
        <ele>866.59997558594</ele>
        <time>2016-05-06T12:16:57Z</time>
      </trkpt>
      <trkpt lat="44.41242" lon="5.85311">
        <ele>866.59997558594</ele>
        <time>2016-05-06T12:17:03Z</time>
      </trkpt>
      <trkpt lat="44.41248" lon="5.85286">
        <ele>866.59997558594</ele>
        <time>2016-05-06T12:17:08Z</time>
      </trkpt>
      <trkpt lat="44.41247" lon="5.85284">
        <ele>866</ele>
        <time>2016-05-06T12:17:09Z</time>
      </trkpt>
      <trkpt lat="44.41241" lon="5.85283">
        <ele>865.59997558594</ele>
        <time>2016-05-06T12:17:12Z</time>
      </trkpt>
      <trkpt lat="44.41236" lon="5.85285">
        <ele>865.59997558594</ele>
        <time>2016-05-06T12:17:13Z</time>
      </trkpt>
      <trkpt lat="44.41233" lon="5.85282">
        <ele>865.20001220703</ele>
        <time>2016-05-06T12:17:15Z</time>
      </trkpt>
      <trkpt lat="44.41232" lon="5.8528">
        <ele>865.59997558594</ele>
        <time>2016-05-06T12:17:16Z</time>
      </trkpt>
      <trkpt lat="44.41232" lon="5.85277">
        <ele>865.59997558594</ele>
        <time>2016-05-06T12:17:17Z</time>
      </trkpt>
      <trkpt lat="44.41227" lon="5.85274">
        <ele>865.79998779297</ele>
        <time>2016-05-06T12:17:19Z</time>
      </trkpt>
      <trkpt lat="44.41224" lon="5.85274">
        <ele>866.20001220703</ele>
        <time>2016-05-06T12:17:20Z</time>
      </trkpt>
      <trkpt lat="44.41213" lon="5.85268">
        <ele>866.40002441406</ele>
        <time>2016-05-06T12:17:23Z</time>
      </trkpt>
      <trkpt lat="44.4121" lon="5.85263">
        <ele>866.40002441406</ele>
        <time>2016-05-06T12:17:25Z</time>
      </trkpt>
      <trkpt lat="44.41207" lon="5.85261">
        <ele>866.79998779297</ele>
        <time>2016-05-06T12:17:26Z</time>
      </trkpt>
      <trkpt lat="44.41202" lon="5.85251">
        <ele>866.79998779297</ele>
        <time>2016-05-06T12:17:29Z</time>
      </trkpt>
      <trkpt lat="44.41208" lon="5.85231">
        <ele>866.79998779297</ele>
        <time>2016-05-06T12:17:34Z</time>
      </trkpt>
      <trkpt lat="44.41211" lon="5.85222">
        <ele>866.79998779297</ele>
        <time>2016-05-06T12:17:39Z</time>
      </trkpt>
      <trkpt lat="44.41208" lon="5.85218">
        <ele>867.20001220703</ele>
        <time>2016-05-06T12:17:41Z</time>
      </trkpt>
      <trkpt lat="44.41205" lon="5.85211">
        <ele>867.59997558594</ele>
        <time>2016-05-06T12:17:44Z</time>
      </trkpt>
      <trkpt lat="44.41203" lon="5.85203">
        <ele>868.20001220703</ele>
        <time>2016-05-06T12:17:47Z</time>
      </trkpt>
      <trkpt lat="44.41203" lon="5.85201">
        <ele>868.59997558594</ele>
        <time>2016-05-06T12:17:48Z</time>
      </trkpt>
      <trkpt lat="44.412" lon="5.85195">
        <ele>869.20001220703</ele>
        <time>2016-05-06T12:17:51Z</time>
      </trkpt>
      <trkpt lat="44.41192" lon="5.85188">
        <ele>869.20001220703</ele>
        <time>2016-05-06T12:17:54Z</time>
      </trkpt>
      <trkpt lat="44.41179" lon="5.85171">
        <ele>869.20001220703</ele>
        <time>2016-05-06T12:18:00Z</time>
      </trkpt>
      <trkpt lat="44.41164" lon="5.85155">
        <ele>869.20001220703</ele>
        <time>2016-05-06T12:18:05Z</time>
      </trkpt>
      <trkpt lat="44.4114" lon="5.85133">
        <ele>869.20001220703</ele>
        <time>2016-05-06T12:18:11Z</time>
      </trkpt>
      <trkpt lat="44.41136" lon="5.85121">
        <ele>868.59997558594</ele>
        <time>2016-05-06T12:18:13Z</time>
      </trkpt>
      <trkpt lat="44.41135" lon="5.85098">
        <ele>868.20001220703</ele>
        <time>2016-05-06T12:18:16Z</time>
      </trkpt>
      <trkpt lat="44.41136" lon="5.85089">
        <ele>868.20001220703</ele>
        <time>2016-05-06T12:18:17Z</time>
      </trkpt>
      <trkpt lat="44.41138" lon="5.85072">
        <ele>867.40002441406</ele>
        <time>2016-05-06T12:18:19Z</time>
      </trkpt>
      <trkpt lat="44.41142" lon="5.85065">
        <ele>866.40002441406</ele>
        <time>2016-05-06T12:18:20Z</time>
      </trkpt>
      <trkpt lat="44.41146" lon="5.85061">
        <ele>866.40002441406</ele>
        <time>2016-05-06T12:18:21Z</time>
      </trkpt>
      <trkpt lat="44.41154" lon="5.85061">
        <ele>865.40002441406</ele>
        <time>2016-05-06T12:18:23Z</time>
      </trkpt>
      <trkpt lat="44.41157" lon="5.85064">
        <ele>865.40002441406</ele>
        <time>2016-05-06T12:18:24Z</time>
      </trkpt>
      <trkpt lat="44.41163" lon="5.85071">
        <ele>864.20001220703</ele>
        <time>2016-05-06T12:18:26Z</time>
      </trkpt>
      <trkpt lat="44.41166" lon="5.85073">
        <ele>863.20001220703</ele>
        <time>2016-05-06T12:18:27Z</time>
      </trkpt>
      <trkpt lat="44.41168" lon="5.85074">
        <ele>863.20001220703</ele>
        <time>2016-05-06T12:18:28Z</time>
      </trkpt>
      <trkpt lat="44.41171" lon="5.85072">
        <ele>863.20001220703</ele>
        <time>2016-05-06T12:18:29Z</time>
      </trkpt>
      <trkpt lat="44.41173" lon="5.8507">
        <ele>862</ele>
        <time>2016-05-06T12:18:30Z</time>
      </trkpt>
      <trkpt lat="44.41175" lon="5.85068">
        <ele>862</ele>
        <time>2016-05-06T12:18:31Z</time>
      </trkpt>
      <trkpt lat="44.41175" lon="5.85064">
        <ele>861</ele>
        <time>2016-05-06T12:18:33Z</time>
      </trkpt>
      <trkpt lat="44.41175" lon="5.85059">
        <ele>860</ele>
        <time>2016-05-06T12:18:34Z</time>
      </trkpt>
      <trkpt lat="44.41171" lon="5.85053">
        <ele>860</ele>
        <time>2016-05-06T12:18:36Z</time>
      </trkpt>
      <trkpt lat="44.4117" lon="5.85051">
        <ele>858.79998779297</ele>
        <time>2016-05-06T12:18:37Z</time>
      </trkpt>
      <trkpt lat="44.41165" lon="5.85042">
        <ele>858.79998779297</ele>
        <time>2016-05-06T12:18:41Z</time>
      </trkpt>
      <trkpt lat="44.4115" lon="5.8502">
        <ele>858.79998779297</ele>
        <time>2016-05-06T12:18:47Z</time>
      </trkpt>
      <trkpt lat="44.41132" lon="5.85006">
        <ele>858.79998779297</ele>
        <time>2016-05-06T12:18:52Z</time>
      </trkpt>
      <trkpt lat="44.41117" lon="5.84992">
        <ele>858.79998779297</ele>
        <time>2016-05-06T12:18:57Z</time>
      </trkpt>
      <trkpt lat="44.41108" lon="5.84984">
        <ele>858.79998779297</ele>
        <time>2016-05-06T12:19:01Z</time>
      </trkpt>
      <trkpt lat="44.41098" lon="5.84975">
        <ele>859.20001220703</ele>
        <time>2016-05-06T12:19:05Z</time>
      </trkpt>
      <trkpt lat="44.4109" lon="5.84967">
        <ele>859.79998779297</ele>
        <time>2016-05-06T12:19:09Z</time>
      </trkpt>
      <trkpt lat="44.41088" lon="5.84966">
        <ele>859.79998779297</ele>
        <time>2016-05-06T12:19:10Z</time>
      </trkpt>
      <trkpt lat="44.41082" lon="5.84964">
        <ele>860.40002441406</ele>
        <time>2016-05-06T12:19:13Z</time>
      </trkpt>
      <trkpt lat="44.4108" lon="5.84963">
        <ele>861</ele>
        <time>2016-05-06T12:19:14Z</time>
      </trkpt>
      <trkpt lat="44.41074" lon="5.8496">
        <ele>861.59997558594</ele>
        <time>2016-05-06T12:19:17Z</time>
      </trkpt>
      <trkpt lat="44.41065" lon="5.84952">
        <ele>862.40002441406</ele>
        <time>2016-05-06T12:19:21Z</time>
      </trkpt>
      <trkpt lat="44.41063" lon="5.84941">
        <ele>863</ele>
        <time>2016-05-06T12:19:24Z</time>
      </trkpt>
      <trkpt lat="44.41062" lon="5.84938">
        <ele>863</ele>
        <time>2016-05-06T12:19:25Z</time>
      </trkpt>
      <trkpt lat="44.41061" lon="5.84929">
        <ele>863</ele>
        <time>2016-05-06T12:19:27Z</time>
      </trkpt>
      <trkpt lat="44.41056" lon="5.84927">
        <ele>863</ele>
        <time>2016-05-06T12:19:29Z</time>
      </trkpt>
      <trkpt lat="44.41048" lon="5.84928">
        <ele>863</ele>
        <time>2016-05-06T12:19:35Z</time>
      </trkpt>
      <trkpt lat="44.41039" lon="5.84927">
        <ele>863.40002441406</ele>
        <time>2016-05-06T12:19:38Z</time>
      </trkpt>
      <trkpt lat="44.41037" lon="5.84927">
        <ele>863.79998779297</ele>
        <time>2016-05-06T12:19:39Z</time>
      </trkpt>
      <trkpt lat="44.41032" lon="5.84928">
        <ele>864.40002441406</ele>
        <time>2016-05-06T12:19:42Z</time>
      </trkpt>
      <trkpt lat="44.41025" lon="5.84925">
        <ele>865.20001220703</ele>
        <time>2016-05-06T12:19:46Z</time>
      </trkpt>
      <trkpt lat="44.41021" lon="5.84925">
        <ele>865.59997558594</ele>
        <time>2016-05-06T12:19:49Z</time>
      </trkpt>
      <trkpt lat="44.41021" lon="5.84925">
        <ele>865.59997558594</ele>
        <time>2016-05-06T12:19:50Z</time>
      </trkpt>
      <trkpt lat="44.41016" lon="5.84924">
        <ele>866.20001220703</ele>
        <time>2016-05-06T12:19:54Z</time>
      </trkpt>
      <trkpt lat="44.41014" lon="5.84921">
        <ele>866.59997558594</ele>
        <time>2016-05-06T12:19:57Z</time>
      </trkpt>
      <trkpt lat="44.41011" lon="5.84919">
        <ele>866.59997558594</ele>
        <time>2016-05-06T12:20:00Z</time>
      </trkpt>
      <trkpt lat="44.41009" lon="5.84918">
        <ele>867.40002441406</ele>
        <time>2016-05-06T12:20:01Z</time>
      </trkpt>
      <trkpt lat="44.41006" lon="5.84916">
        <ele>868</ele>
        <time>2016-05-06T12:20:04Z</time>
      </trkpt>
      <trkpt lat="44.41005" lon="5.84916">
        <ele>868.40002441406</ele>
        <time>2016-05-06T12:20:05Z</time>
      </trkpt>
      <trkpt lat="44.40999" lon="5.84913">
        <ele>869</ele>
        <time>2016-05-06T12:20:08Z</time>
      </trkpt>
      <trkpt lat="44.40994" lon="5.84913">
        <ele>869.40002441406</ele>
        <time>2016-05-06T12:20:11Z</time>
      </trkpt>
      <trkpt lat="44.40989" lon="5.84912">
        <ele>870.40002441406</ele>
        <time>2016-05-06T12:20:15Z</time>
      </trkpt>
      <trkpt lat="44.40985" lon="5.84912">
        <ele>870.79998779297</ele>
        <time>2016-05-06T12:20:18Z</time>
      </trkpt>
      <trkpt lat="44.40984" lon="5.84912">
        <ele>871.20001220703</ele>
        <time>2016-05-06T12:20:19Z</time>
      </trkpt>
      <trkpt lat="44.40983" lon="5.84912">
        <ele>871.20001220703</ele>
        <time>2016-05-06T12:20:20Z</time>
      </trkpt>
      <trkpt lat="44.40981" lon="5.84912">
        <ele>871.59997558594</ele>
        <time>2016-05-06T12:20:22Z</time>
      </trkpt>
      <trkpt lat="44.40978" lon="5.84911">
        <ele>872</ele>
        <time>2016-05-06T12:20:25Z</time>
      </trkpt>
      <trkpt lat="44.40977" lon="5.84911">
        <ele>872</ele>
        <time>2016-05-06T12:20:26Z</time>
      </trkpt>
      <trkpt lat="44.40974" lon="5.8491">
        <ele>873</ele>
        <time>2016-05-06T12:20:29Z</time>
      </trkpt>
      <trkpt lat="44.40972" lon="5.8491">
        <ele>873.40002441406</ele>
        <time>2016-05-06T12:20:32Z</time>
      </trkpt>
      <trkpt lat="44.40971" lon="5.84909">
        <ele>873.79998779297</ele>
        <time>2016-05-06T12:20:33Z</time>
      </trkpt>
      <trkpt lat="44.40968" lon="5.84907">
        <ele>874.20001220703</ele>
        <time>2016-05-06T12:20:36Z</time>
      </trkpt>
      <trkpt lat="44.40965" lon="5.84905">
        <ele>874.20001220703</ele>
        <time>2016-05-06T12:20:39Z</time>
      </trkpt>
      <trkpt lat="44.40958" lon="5.849">
        <ele>874.79998779297</ele>
        <time>2016-05-06T12:20:43Z</time>
      </trkpt>
      <trkpt lat="44.40954" lon="5.84899">
        <ele>875.20001220703</ele>
        <time>2016-05-06T12:20:46Z</time>
      </trkpt>
      <trkpt lat="44.40953" lon="5.84899">
        <ele>875.79998779297</ele>
        <time>2016-05-06T12:20:47Z</time>
      </trkpt>
      <trkpt lat="44.40953" lon="5.84898">
        <ele>875.79998779297</ele>
        <time>2016-05-06T12:20:48Z</time>
      </trkpt>
      <trkpt lat="44.40952" lon="5.84898">
        <ele>876.20001220703</ele>
        <time>2016-05-06T12:20:50Z</time>
      </trkpt>
      <trkpt lat="44.40948" lon="5.84898">
        <ele>876.79998779297</ele>
        <time>2016-05-06T12:20:53Z</time>
      </trkpt>
      <trkpt lat="44.40939" lon="5.84896">
        <ele>877.20001220703</ele>
        <time>2016-05-06T12:21:00Z</time>
      </trkpt>
      <trkpt lat="44.40938" lon="5.84895">
        <ele>877.79998779297</ele>
        <time>2016-05-06T12:21:01Z</time>
      </trkpt>
      <trkpt lat="44.40936" lon="5.84893">
        <ele>877.79998779297</ele>
        <time>2016-05-06T12:21:03Z</time>
      </trkpt>
      <trkpt lat="44.40935" lon="5.84893">
        <ele>878.20001220703</ele>
        <time>2016-05-06T12:21:04Z</time>
      </trkpt>
      <trkpt lat="44.40932" lon="5.84891">
        <ele>878.79998779297</ele>
        <time>2016-05-06T12:21:07Z</time>
      </trkpt>
      <trkpt lat="44.40932" lon="5.84891">
        <ele>879.20001220703</ele>
        <time>2016-05-06T12:21:08Z</time>
      </trkpt>
      <trkpt lat="44.40928" lon="5.84888">
        <ele>879.20001220703</ele>
        <time>2016-05-06T12:21:11Z</time>
      </trkpt>
      <trkpt lat="44.40919" lon="5.84882">
        <ele>879.59997558594</ele>
        <time>2016-05-06T12:21:18Z</time>
      </trkpt>
      <trkpt lat="44.40917" lon="5.84881">
        <ele>880.20001220703</ele>
        <time>2016-05-06T12:21:21Z</time>
      </trkpt>
      <trkpt lat="44.40916" lon="5.8488">
        <ele>880.59997558594</ele>
        <time>2016-05-06T12:21:22Z</time>
      </trkpt>
      <trkpt lat="44.40914" lon="5.8488">
        <ele>881.20001220703</ele>
        <time>2016-05-06T12:21:25Z</time>
      </trkpt>
      <trkpt lat="44.40908" lon="5.8488">
        <ele>881.20001220703</ele>
        <time>2016-05-06T12:21:30Z</time>
      </trkpt>
      <trkpt lat="44.40905" lon="5.8488">
        <ele>881.79998779297</ele>
        <time>2016-05-06T12:21:32Z</time>
      </trkpt>
      <trkpt lat="44.40902" lon="5.84878">
        <ele>882.40002441406</ele>
        <time>2016-05-06T12:21:35Z</time>
      </trkpt>
      <trkpt lat="44.40901" lon="5.84878">
        <ele>883</ele>
        <time>2016-05-06T12:21:36Z</time>
      </trkpt>
      <trkpt lat="44.40899" lon="5.84877">
        <ele>883</ele>
        <time>2016-05-06T12:21:38Z</time>
      </trkpt>
      <trkpt lat="44.40898" lon="5.84876">
        <ele>883.59997558594</ele>
        <time>2016-05-06T12:21:39Z</time>
      </trkpt>
      <trkpt lat="44.40892" lon="5.8487">
        <ele>884.40002441406</ele>
        <time>2016-05-06T12:21:43Z</time>
      </trkpt>
      <trkpt lat="44.40891" lon="5.8487">
        <ele>885</ele>
        <time>2016-05-06T12:21:44Z</time>
      </trkpt>
      <trkpt lat="44.40887" lon="5.84863">
        <ele>885.59997558594</ele>
        <time>2016-05-06T12:21:48Z</time>
      </trkpt>
      <trkpt lat="44.40883" lon="5.8486">
        <ele>885.59997558594</ele>
        <time>2016-05-06T12:21:52Z</time>
      </trkpt>
      <trkpt lat="44.40879" lon="5.8485">
        <ele>886.20001220703</ele>
        <time>2016-05-06T12:21:59Z</time>
      </trkpt>
      <trkpt lat="44.40878" lon="5.84846">
        <ele>886.59997558594</ele>
        <time>2016-05-06T12:22:02Z</time>
      </trkpt>
      <trkpt lat="44.40878" lon="5.84842">
        <ele>886.59997558594</ele>
        <time>2016-05-06T12:22:04Z</time>
      </trkpt>
      <trkpt lat="44.40879" lon="5.84838">
        <ele>887.59997558594</ele>
        <time>2016-05-06T12:22:06Z</time>
      </trkpt>
      <trkpt lat="44.40879" lon="5.84834">
        <ele>888.20001220703</ele>
        <time>2016-05-06T12:22:09Z</time>
      </trkpt>
      <trkpt lat="44.4088" lon="5.84824">
        <ele>888.20001220703</ele>
        <time>2016-05-06T12:22:15Z</time>
      </trkpt>
      <trkpt lat="44.40881" lon="5.84824">
        <ele>888.59997558594</ele>
        <time>2016-05-06T12:22:16Z</time>
      </trkpt>
      <trkpt lat="44.40881" lon="5.84823">
        <ele>889.20001220703</ele>
        <time>2016-05-06T12:22:17Z</time>
      </trkpt>
      <trkpt lat="44.40881" lon="5.84817">
        <ele>889.79998779297</ele>
        <time>2016-05-06T12:22:20Z</time>
      </trkpt>
      <trkpt lat="44.40881" lon="5.84812">
        <ele>890.20001220703</ele>
        <time>2016-05-06T12:22:23Z</time>
      </trkpt>
      <trkpt lat="44.40881" lon="5.84811">
        <ele>890.79998779297</ele>
        <time>2016-05-06T12:22:24Z</time>
      </trkpt>
      <trkpt lat="44.40881" lon="5.84808">
        <ele>890.79998779297</ele>
        <time>2016-05-06T12:22:26Z</time>
      </trkpt>
      <trkpt lat="44.40882" lon="5.84807">
        <ele>891.20001220703</ele>
        <time>2016-05-06T12:22:27Z</time>
      </trkpt>
      <trkpt lat="44.40884" lon="5.84803">
        <ele>891.79998779297</ele>
        <time>2016-05-06T12:22:30Z</time>
      </trkpt>
      <trkpt lat="44.40886" lon="5.84798">
        <ele>892.79998779297</ele>
        <time>2016-05-06T12:22:34Z</time>
      </trkpt>
      <trkpt lat="44.40886" lon="5.84796">
        <ele>892.79998779297</ele>
        <time>2016-05-06T12:22:35Z</time>
      </trkpt>
      <trkpt lat="44.40886" lon="5.84793">
        <ele>893.20001220703</ele>
        <time>2016-05-06T12:22:37Z</time>
      </trkpt>
      <trkpt lat="44.40887" lon="5.84784">
        <ele>893.79998779297</ele>
        <time>2016-05-06T12:22:44Z</time>
      </trkpt>
      <trkpt lat="44.40888" lon="5.84778">
        <ele>893.79998779297</ele>
        <time>2016-05-06T12:22:47Z</time>
      </trkpt>
      <trkpt lat="44.40889" lon="5.84767">
        <ele>895.20001220703</ele>
        <time>2016-05-06T12:22:54Z</time>
      </trkpt>
      <trkpt lat="44.4089" lon="5.8476">
        <ele>895.59997558594</ele>
        <time>2016-05-06T12:22:58Z</time>
      </trkpt>
      <trkpt lat="44.40892" lon="5.84747">
        <ele>895.59997558594</ele>
        <time>2016-05-06T12:23:05Z</time>
      </trkpt>
      <trkpt lat="44.40892" lon="5.8474">
        <ele>896</ele>
        <time>2016-05-06T12:23:08Z</time>
      </trkpt>
      <trkpt lat="44.40891" lon="5.84732">
        <ele>897</ele>
        <time>2016-05-06T12:23:12Z</time>
      </trkpt>
      <trkpt lat="44.4089" lon="5.84728">
        <ele>897</ele>
        <time>2016-05-06T12:23:14Z</time>
      </trkpt>
      <trkpt lat="44.4089" lon="5.84725">
        <ele>897.40002441406</ele>
        <time>2016-05-06T12:23:15Z</time>
      </trkpt>
      <trkpt lat="44.4089" lon="5.84715">
        <ele>897.79998779297</ele>
        <time>2016-05-06T12:23:19Z</time>
      </trkpt>
      <trkpt lat="44.40888" lon="5.84707">
        <ele>897.79998779297</ele>
        <time>2016-05-06T12:23:23Z</time>
      </trkpt>
      <trkpt lat="44.40886" lon="5.84702">
        <ele>898.79998779297</ele>
        <time>2016-05-06T12:23:26Z</time>
      </trkpt>
      <trkpt lat="44.40884" lon="5.84695">
        <ele>899.20001220703</ele>
        <time>2016-05-06T12:23:29Z</time>
      </trkpt>
      <trkpt lat="44.40882" lon="5.84686">
        <ele>900</ele>
        <time>2016-05-06T12:23:33Z</time>
      </trkpt>
      <trkpt lat="44.40879" lon="5.84671">
        <ele>900</ele>
        <time>2016-05-06T12:23:40Z</time>
      </trkpt>
      <trkpt lat="44.40877" lon="5.84663">
        <ele>900.59997558594</ele>
        <time>2016-05-06T12:23:44Z</time>
      </trkpt>
      <trkpt lat="44.40874" lon="5.84657">
        <ele>901.40002441406</ele>
        <time>2016-05-06T12:23:47Z</time>
      </trkpt>
      <trkpt lat="44.40871" lon="5.84649">
        <ele>902</ele>
        <time>2016-05-06T12:23:50Z</time>
      </trkpt>
      <trkpt lat="44.40868" lon="5.84641">
        <ele>903.20001220703</ele>
        <time>2016-05-06T12:23:54Z</time>
      </trkpt>
      <trkpt lat="44.40866" lon="5.84638">
        <ele>903.20001220703</ele>
        <time>2016-05-06T12:23:56Z</time>
      </trkpt>
      <trkpt lat="44.40863" lon="5.84629">
        <ele>904.40002441406</ele>
        <time>2016-05-06T12:24:01Z</time>
      </trkpt>
      <trkpt lat="44.40861" lon="5.84625">
        <ele>904.40002441406</ele>
        <time>2016-05-06T12:24:03Z</time>
      </trkpt>
      <trkpt lat="44.40861" lon="5.84606">
        <ele>904.40002441406</ele>
        <time>2016-05-06T12:24:11Z</time>
      </trkpt>
      <trkpt lat="44.40862" lon="5.84603">
        <ele>905.20001220703</ele>
        <time>2016-05-06T12:24:12Z</time>
      </trkpt>
      <trkpt lat="44.40865" lon="5.84597">
        <ele>906.20001220703</ele>
        <time>2016-05-06T12:24:16Z</time>
      </trkpt>
      <trkpt lat="44.40866" lon="5.84594">
        <ele>906.20001220703</ele>
        <time>2016-05-06T12:24:17Z</time>
      </trkpt>
      <trkpt lat="44.40877" lon="5.84579">
        <ele>906.20001220703</ele>
        <time>2016-05-06T12:24:22Z</time>
      </trkpt>
      <trkpt lat="44.4088" lon="5.84576">
        <ele>906.59997558594</ele>
        <time>2016-05-06T12:24:23Z</time>
      </trkpt>
      <trkpt lat="44.40898" lon="5.84554">
        <ele>906.59997558594</ele>
        <time>2016-05-06T12:24:28Z</time>
      </trkpt>
      <trkpt lat="44.40906" lon="5.84546">
        <ele>905.79998779297</ele>
        <time>2016-05-06T12:24:30Z</time>
      </trkpt>
      <trkpt lat="44.40916" lon="5.84537">
        <ele>905.79998779297</ele>
        <time>2016-05-06T12:24:32Z</time>
      </trkpt>
      <trkpt lat="44.40922" lon="5.84528">
        <ele>905.40002441406</ele>
        <time>2016-05-06T12:24:34Z</time>
      </trkpt>
      <trkpt lat="44.40932" lon="5.84514">
        <ele>905</ele>
        <time>2016-05-06T12:24:37Z</time>
      </trkpt>
      <trkpt lat="44.40948" lon="5.84499">
        <ele>904.20001220703</ele>
        <time>2016-05-06T12:24:41Z</time>
      </trkpt>
      <trkpt lat="44.40952" lon="5.84496">
        <ele>904.20001220703</ele>
        <time>2016-05-06T12:24:42Z</time>
      </trkpt>
      <trkpt lat="44.40963" lon="5.84492">
        <ele>903.59997558594</ele>
        <time>2016-05-06T12:24:45Z</time>
      </trkpt>
      <trkpt lat="44.40965" lon="5.84489">
        <ele>903</ele>
        <time>2016-05-06T12:24:46Z</time>
      </trkpt>
      <trkpt lat="44.40973" lon="5.84471">
        <ele>903</ele>
        <time>2016-05-06T12:24:50Z</time>
      </trkpt>
      <trkpt lat="44.40976" lon="5.84464">
        <ele>903</ele>
        <time>2016-05-06T12:24:51Z</time>
      </trkpt>
      <trkpt lat="44.40982" lon="5.84457">
        <ele>903</ele>
        <time>2016-05-06T12:24:53Z</time>
      </trkpt>
      <trkpt lat="44.40985" lon="5.84453">
        <ele>902.20001220703</ele>
        <time>2016-05-06T12:24:54Z</time>
      </trkpt>
      <trkpt lat="44.40989" lon="5.84444">
        <ele>901.20001220703</ele>
        <time>2016-05-06T12:24:57Z</time>
      </trkpt>
      <trkpt lat="44.40989" lon="5.84441">
        <ele>901.20001220703</ele>
        <time>2016-05-06T12:24:58Z</time>
      </trkpt>
      <trkpt lat="44.40987" lon="5.84436">
        <ele>900.59997558594</ele>
        <time>2016-05-06T12:25:01Z</time>
      </trkpt>
      <trkpt lat="44.40986" lon="5.84436">
        <ele>900.59997558594</ele>
        <time>2016-05-06T12:25:03Z</time>
      </trkpt>
      <trkpt lat="44.40986" lon="5.84436">
        <ele>900</ele>
        <time>2016-05-06T12:25:04Z</time>
      </trkpt>
      <trkpt lat="44.40982" lon="5.84434">
        <ele>899.59997558594</ele>
        <time>2016-05-06T12:25:08Z</time>
      </trkpt>
      <trkpt lat="44.4098" lon="5.84431">
        <ele>899</ele>
        <time>2016-05-06T12:25:11Z</time>
      </trkpt>
      <trkpt lat="44.4098" lon="5.8443">
        <ele>898.40002441406</ele>
        <time>2016-05-06T12:25:12Z</time>
      </trkpt>
      <trkpt lat="44.40981" lon="5.84428">
        <ele>898</ele>
        <time>2016-05-06T12:25:15Z</time>
      </trkpt>
      <trkpt lat="44.40981" lon="5.84425">
        <ele>897.40002441406</ele>
        <time>2016-05-06T12:25:18Z</time>
      </trkpt>
      <trkpt lat="44.40979" lon="5.84424">
        <ele>896.79998779297</ele>
        <time>2016-05-06T12:25:19Z</time>
      </trkpt>
      <trkpt lat="44.40977" lon="5.84421">
        <ele>896.79998779297</ele>
        <time>2016-05-06T12:25:20Z</time>
      </trkpt>
      <trkpt lat="44.40974" lon="5.84413">
        <ele>896.79998779297</ele>
        <time>2016-05-06T12:25:27Z</time>
      </trkpt>
      <trkpt lat="44.40974" lon="5.84403">
        <ele>897.20001220703</ele>
        <time>2016-05-06T12:25:36Z</time>
      </trkpt>
      <trkpt lat="44.40974" lon="5.844">
        <ele>897.59997558594</ele>
        <time>2016-05-06T12:25:39Z</time>
      </trkpt>
      <trkpt lat="44.40974" lon="5.84399">
        <ele>898.20001220703</ele>
        <time>2016-05-06T12:25:40Z</time>
      </trkpt>
      <trkpt lat="44.40974" lon="5.84397">
        <ele>898.59997558594</ele>
        <time>2016-05-06T12:25:43Z</time>
      </trkpt>
      <trkpt lat="44.40973" lon="5.84394">
        <ele>899</ele>
        <time>2016-05-06T12:25:46Z</time>
      </trkpt>
      <trkpt lat="44.40973" lon="5.84393">
        <ele>899</ele>
        <time>2016-05-06T12:25:48Z</time>
      </trkpt>
      <trkpt lat="44.40971" lon="5.84391">
        <ele>899.40002441406</ele>
        <time>2016-05-06T12:25:53Z</time>
      </trkpt>
      <trkpt lat="44.4097" lon="5.8439">
        <ele>899.79998779297</ele>
        <time>2016-05-06T12:25:54Z</time>
      </trkpt>
      <trkpt lat="44.40969" lon="5.84389">
        <ele>900.20001220703</ele>
        <time>2016-05-06T12:25:57Z</time>
      </trkpt>
      <trkpt lat="44.40969" lon="5.84388">
        <ele>900.59997558594</ele>
        <time>2016-05-06T12:25:58Z</time>
      </trkpt>
      <trkpt lat="44.40968" lon="5.84388">
        <ele>901</ele>
        <time>2016-05-06T12:26:01Z</time>
      </trkpt>
      <trkpt lat="44.40963" lon="5.84379">
        <ele>901</ele>
        <time>2016-05-06T12:26:13Z</time>
      </trkpt>
      <trkpt lat="44.4096" lon="5.84378">
        <ele>901</ele>
        <time>2016-05-06T12:26:15Z</time>
      </trkpt>
      <trkpt lat="44.40954" lon="5.84371">
        <ele>901.40002441406</ele>
        <time>2016-05-06T12:26:19Z</time>
      </trkpt>
      <trkpt lat="44.40953" lon="5.8437">
        <ele>901.79998779297</ele>
        <time>2016-05-06T12:26:20Z</time>
      </trkpt>
      <trkpt lat="44.40952" lon="5.84368">
        <ele>901.79998779297</ele>
        <time>2016-05-06T12:26:22Z</time>
      </trkpt>
      <trkpt lat="44.40949" lon="5.84365">
        <ele>902.20001220703</ele>
        <time>2016-05-06T12:26:25Z</time>
      </trkpt>
      <trkpt lat="44.40948" lon="5.84364">
        <ele>902.59997558594</ele>
        <time>2016-05-06T12:26:26Z</time>
      </trkpt>
      <trkpt lat="44.40944" lon="5.84359">
        <ele>903.20001220703</ele>
        <time>2016-05-06T12:26:31Z</time>
      </trkpt>
      <trkpt lat="44.4094" lon="5.84353">
        <ele>903.20001220703</ele>
        <time>2016-05-06T12:26:35Z</time>
      </trkpt>
      <trkpt lat="44.40937" lon="5.8435">
        <ele>903.59997558594</ele>
        <time>2016-05-06T12:26:37Z</time>
      </trkpt>
      <trkpt lat="44.40926" lon="5.84341">
        <ele>903.59997558594</ele>
        <time>2016-05-06T12:26:42Z</time>
      </trkpt>
      <trkpt lat="44.40922" lon="5.84339">
        <ele>904.59997558594</ele>
        <time>2016-05-06T12:26:43Z</time>
      </trkpt>
      <trkpt lat="44.40913" lon="5.84336">
        <ele>904.59997558594</ele>
        <time>2016-05-06T12:26:45Z</time>
      </trkpt>
      <trkpt lat="44.40908" lon="5.84336">
        <ele>904.59997558594</ele>
        <time>2016-05-06T12:26:46Z</time>
      </trkpt>
      <trkpt lat="44.40894" lon="5.84336">
        <ele>905.79998779297</ele>
        <time>2016-05-06T12:26:49Z</time>
      </trkpt>
      <trkpt lat="44.40881" lon="5.84333">
        <ele>905.79998779297</ele>
        <time>2016-05-06T12:26:52Z</time>
      </trkpt>
      <trkpt lat="44.40873" lon="5.84328">
        <ele>905.79998779297</ele>
        <time>2016-05-06T12:26:54Z</time>
      </trkpt>
      <trkpt lat="44.40868" lon="5.84326">
        <ele>905.20001220703</ele>
        <time>2016-05-06T12:26:55Z</time>
      </trkpt>
      <trkpt lat="44.4086" lon="5.84323">
        <ele>905.20001220703</ele>
        <time>2016-05-06T12:26:57Z</time>
      </trkpt>
      <trkpt lat="44.40857" lon="5.84321">
        <ele>904.59997558594</ele>
        <time>2016-05-06T12:26:58Z</time>
      </trkpt>
      <trkpt lat="44.40854" lon="5.84321">
        <ele>904.59997558594</ele>
        <time>2016-05-06T12:27:00Z</time>
      </trkpt>
      <trkpt lat="44.40853" lon="5.84318">
        <ele>904</ele>
        <time>2016-05-06T12:27:02Z</time>
      </trkpt>
      <trkpt lat="44.40852" lon="5.84316">
        <ele>903.59997558594</ele>
        <time>2016-05-06T12:27:03Z</time>
      </trkpt>
      <trkpt lat="44.40847" lon="5.84312">
        <ele>903.59997558594</ele>
        <time>2016-05-06T12:27:07Z</time>
      </trkpt>
      <trkpt lat="44.40846" lon="5.8431">
        <ele>903</ele>
        <time>2016-05-06T12:27:08Z</time>
      </trkpt>
      <trkpt lat="44.40838" lon="5.84301">
        <ele>903.40002441406</ele>
        <time>2016-05-06T12:27:15Z</time>
      </trkpt>
      <trkpt lat="44.40837" lon="5.84298">
        <ele>903.40002441406</ele>
        <time>2016-05-06T12:27:17Z</time>
      </trkpt>
      <trkpt lat="44.40834" lon="5.84294">
        <ele>903.79998779297</ele>
        <time>2016-05-06T12:27:20Z</time>
      </trkpt>
      <trkpt lat="44.40829" lon="5.8429">
        <ele>903.79998779297</ele>
        <time>2016-05-06T12:27:25Z</time>
      </trkpt>
      <trkpt lat="44.40829" lon="5.84289">
        <ele>904.79998779297</ele>
        <time>2016-05-06T12:27:26Z</time>
      </trkpt>
      <trkpt lat="44.40825" lon="5.84286">
        <ele>905.59997558594</ele>
        <time>2016-05-06T12:27:31Z</time>
      </trkpt>
      <trkpt lat="44.40824" lon="5.84286">
        <ele>906.40002441406</ele>
        <time>2016-05-06T12:27:32Z</time>
      </trkpt>
      <trkpt lat="44.40823" lon="5.84285">
        <ele>907.20001220703</ele>
        <time>2016-05-06T12:27:37Z</time>
      </trkpt>
      <trkpt lat="44.40823" lon="5.84285">
        <ele>908</ele>
        <time>2016-05-06T12:27:38Z</time>
      </trkpt>
      <trkpt lat="44.40822" lon="5.84284">
        <ele>908.79998779297</ele>
        <time>2016-05-06T12:27:43Z</time>
      </trkpt>
      <trkpt lat="44.40821" lon="5.84283">
        <ele>909.59997558594</ele>
        <time>2016-05-06T12:27:49Z</time>
      </trkpt>
      <trkpt lat="44.4082" lon="5.84281">
        <ele>911.20001220703</ele>
        <time>2016-05-06T12:27:55Z</time>
      </trkpt>
      <trkpt lat="44.4082" lon="5.84281">
        <ele>912.59997558594</ele>
        <time>2016-05-06T12:28:01Z</time>
      </trkpt>
      <trkpt lat="44.4082" lon="5.84281">
        <ele>914.20001220703</ele>
        <time>2016-05-06T12:28:07Z</time>
      </trkpt>
      <trkpt lat="44.4082" lon="5.8428">
        <ele>914.79998779297</ele>
        <time>2016-05-06T12:28:12Z</time>
      </trkpt>
      <trkpt lat="44.40818" lon="5.84276">
        <ele>915.79998779297</ele>
        <time>2016-05-06T12:28:30Z</time>
      </trkpt>
      <trkpt lat="44.40809" lon="5.84268">
        <ele>915.79998779297</ele>
        <time>2016-05-06T12:28:34Z</time>
      </trkpt>
      <trkpt lat="44.40799" lon="5.84253">
        <ele>916.79998779297</ele>
        <time>2016-05-06T12:28:36Z</time>
      </trkpt>
      <trkpt lat="44.40781" lon="5.84237">
        <ele>917.20001220703</ele>
        <time>2016-05-06T12:28:42Z</time>
      </trkpt>
      <trkpt lat="44.40778" lon="5.8424">
        <ele>917.20001220703</ele>
        <time>2016-05-06T12:28:44Z</time>
      </trkpt>
      <trkpt lat="44.40775" lon="5.84243">
        <ele>917.20001220703</ele>
        <time>2016-05-06T12:28:46Z</time>
      </trkpt>
      <trkpt lat="44.4077" lon="5.84247">
        <ele>917.20001220703</ele>
        <time>2016-05-06T12:28:49Z</time>
      </trkpt>
      <trkpt lat="44.40767" lon="5.84242">
        <ele>917.20001220703</ele>
        <time>2016-05-06T12:28:53Z</time>
      </trkpt>
      <trkpt lat="44.40766" lon="5.84241">
        <ele>917.20001220703</ele>
        <time>2016-05-06T12:28:54Z</time>
      </trkpt>
      <trkpt lat="44.40759" lon="5.84237">
        <ele>917.20001220703</ele>
        <time>2016-05-06T12:29:00Z</time>
      </trkpt>
      <trkpt lat="44.40748" lon="5.8423">
        <ele>917.20001220703</ele>
        <time>2016-05-06T12:29:08Z</time>
      </trkpt>
      <trkpt lat="44.40738" lon="5.84232">
        <ele>917.20001220703</ele>
        <time>2016-05-06T12:29:15Z</time>
      </trkpt>
      <trkpt lat="44.40728" lon="5.84235">
        <ele>918.40002441406</ele>
        <time>2016-05-06T12:29:23Z</time>
      </trkpt>
      <trkpt lat="44.40725" lon="5.84237">
        <ele>918.40002441406</ele>
        <time>2016-05-06T12:29:26Z</time>
      </trkpt>
      <trkpt lat="44.40721" lon="5.84237">
        <ele>919</ele>
        <time>2016-05-06T12:29:29Z</time>
      </trkpt>
      <trkpt lat="44.40716" lon="5.84237">
        <ele>919</ele>
        <time>2016-05-06T12:29:34Z</time>
      </trkpt>
      <trkpt lat="44.40714" lon="5.84237">
        <ele>919.59997558594</ele>
        <time>2016-05-06T12:29:36Z</time>
      </trkpt>
      <trkpt lat="44.40708" lon="5.84238">
        <ele>920.40002441406</ele>
        <time>2016-05-06T12:29:42Z</time>
      </trkpt>
      <trkpt lat="44.40702" lon="5.84237">
        <ele>921.20001220703</ele>
        <time>2016-05-06T12:29:48Z</time>
      </trkpt>
      <trkpt lat="44.40698" lon="5.84237">
        <ele>921.20001220703</ele>
        <time>2016-05-06T12:29:52Z</time>
      </trkpt>
      <trkpt lat="44.40695" lon="5.84237">
        <ele>923.20001220703</ele>
        <time>2016-05-06T12:29:55Z</time>
      </trkpt>
      <trkpt lat="44.40689" lon="5.84238">
        <ele>925.40002441406</ele>
        <time>2016-05-06T12:30:01Z</time>
      </trkpt>
      <trkpt lat="44.40687" lon="5.84237">
        <ele>925.40002441406</ele>
        <time>2016-05-06T12:30:03Z</time>
      </trkpt>
      <trkpt lat="44.40685" lon="5.84237">
        <ele>926.59997558594</ele>
        <time>2016-05-06T12:30:06Z</time>
      </trkpt>
      <trkpt lat="44.40684" lon="5.84237">
        <ele>927.59997558594</ele>
        <time>2016-05-06T12:30:07Z</time>
      </trkpt>
      <trkpt lat="44.4068" lon="5.84238">
        <ele>927.59997558594</ele>
        <time>2016-05-06T12:30:11Z</time>
      </trkpt>
      <trkpt lat="44.40679" lon="5.84238">
        <ele>928</ele>
        <time>2016-05-06T12:30:12Z</time>
      </trkpt>
      <trkpt lat="44.40676" lon="5.84241">
        <ele>928</ele>
        <time>2016-05-06T12:30:16Z</time>
      </trkpt>
      <trkpt lat="44.40675" lon="5.84242">
        <ele>929</ele>
        <time>2016-05-06T12:30:18Z</time>
      </trkpt>
      <trkpt lat="44.40673" lon="5.84243">
        <ele>929</ele>
        <time>2016-05-06T12:30:20Z</time>
      </trkpt>
      <trkpt lat="44.40672" lon="5.84244">
        <ele>929</ele>
        <time>2016-05-06T12:30:21Z</time>
      </trkpt>
      <trkpt lat="44.4067" lon="5.84244">
        <ele>929.40002441406</ele>
        <time>2016-05-06T12:30:23Z</time>
      </trkpt>
      <trkpt lat="44.40668" lon="5.84245">
        <ele>930</ele>
        <time>2016-05-06T12:30:24Z</time>
      </trkpt>
      <trkpt lat="44.40666" lon="5.84246">
        <ele>930</ele>
        <time>2016-05-06T12:30:27Z</time>
      </trkpt>
      <trkpt lat="44.40664" lon="5.84247">
        <ele>930.59997558594</ele>
        <time>2016-05-06T12:30:29Z</time>
      </trkpt>
      <trkpt lat="44.40658" lon="5.84248">
        <ele>931.20001220703</ele>
        <time>2016-05-06T12:30:35Z</time>
      </trkpt>
      <trkpt lat="44.40656" lon="5.84247">
        <ele>931.20001220703</ele>
        <time>2016-05-06T12:30:37Z</time>
      </trkpt>
      <trkpt lat="44.40652" lon="5.84244">
        <ele>933</ele>
        <time>2016-05-06T12:30:41Z</time>
      </trkpt>
      <trkpt lat="44.40646" lon="5.84242">
        <ele>933</ele>
        <time>2016-05-06T12:30:46Z</time>
      </trkpt>
      <trkpt lat="44.40644" lon="5.84241">
        <ele>934.59997558594</ele>
        <time>2016-05-06T12:30:47Z</time>
      </trkpt>
      <trkpt lat="44.40639" lon="5.84238">
        <ele>935.20001220703</ele>
        <time>2016-05-06T12:30:52Z</time>
      </trkpt>
      <trkpt lat="44.40634" lon="5.84236">
        <ele>935.20001220703</ele>
        <time>2016-05-06T12:30:57Z</time>
      </trkpt>
      <trkpt lat="44.40633" lon="5.84236">
        <ele>935.79998779297</ele>
        <time>2016-05-06T12:30:58Z</time>
      </trkpt>
      <trkpt lat="44.40627" lon="5.84233">
        <ele>937</ele>
        <time>2016-05-06T12:31:04Z</time>
      </trkpt>
      <trkpt lat="44.40624" lon="5.84232">
        <ele>937</ele>
        <time>2016-05-06T12:31:07Z</time>
      </trkpt>
      <trkpt lat="44.40622" lon="5.84231">
        <ele>938.20001220703</ele>
        <time>2016-05-06T12:31:10Z</time>
      </trkpt>
      <trkpt lat="44.40617" lon="5.8423">
        <ele>938.79998779297</ele>
        <time>2016-05-06T12:31:15Z</time>
      </trkpt>
      <trkpt lat="44.40616" lon="5.84229">
        <ele>938.79998779297</ele>
        <time>2016-05-06T12:31:16Z</time>
      </trkpt>
      <trkpt lat="44.40612" lon="5.84229">
        <ele>939.59997558594</ele>
        <time>2016-05-06T12:31:21Z</time>
      </trkpt>
      <trkpt lat="44.40606" lon="5.84231">
        <ele>941.20001220703</ele>
        <time>2016-05-06T12:31:27Z</time>
      </trkpt>
      <trkpt lat="44.40605" lon="5.84231">
        <ele>941.20001220703</ele>
        <time>2016-05-06T12:31:28Z</time>
      </trkpt>
      <trkpt lat="44.40599" lon="5.84231">
        <ele>942</ele>
        <time>2016-05-06T12:31:33Z</time>
      </trkpt>
      <trkpt lat="44.40595" lon="5.84231">
        <ele>942</ele>
        <time>2016-05-06T12:31:37Z</time>
      </trkpt>
      <trkpt lat="44.40591" lon="5.84231">
        <ele>942.79998779297</ele>
        <time>2016-05-06T12:31:39Z</time>
      </trkpt>
      <trkpt lat="44.40583" lon="5.84229">
        <ele>943.79998779297</ele>
        <time>2016-05-06T12:31:44Z</time>
      </trkpt>
      <trkpt lat="44.40581" lon="5.84229">
        <ele>943.79998779297</ele>
        <time>2016-05-06T12:31:45Z</time>
      </trkpt>
      <trkpt lat="44.40575" lon="5.8423">
        <ele>945.59997558594</ele>
        <time>2016-05-06T12:31:50Z</time>
      </trkpt>
      <trkpt lat="44.40575" lon="5.84231">
        <ele>945.59997558594</ele>
        <time>2016-05-06T12:31:52Z</time>
      </trkpt>
      <trkpt lat="44.40575" lon="5.84231">
        <ele>946.40002441406</ele>
        <time>2016-05-06T12:31:56Z</time>
      </trkpt>
      <trkpt lat="44.40575" lon="5.84231">
        <ele>947.20001220703</ele>
        <time>2016-05-06T12:31:57Z</time>
      </trkpt>
      <trkpt lat="44.40572" lon="5.84228">
        <ele>947.20001220703</ele>
        <time>2016-05-06T12:32:35Z</time>
      </trkpt>
      <trkpt lat="44.40558" lon="5.8422">
        <ele>947.20001220703</ele>
        <time>2016-05-06T12:32:41Z</time>
      </trkpt>
      <trkpt lat="44.40533" lon="5.84204">
        <ele>947.20001220703</ele>
        <time>2016-05-06T12:32:47Z</time>
      </trkpt>
      <trkpt lat="44.4052" lon="5.84192">
        <ele>947.20001220703</ele>
        <time>2016-05-06T12:32:50Z</time>
      </trkpt>
      <trkpt lat="44.40506" lon="5.84178">
        <ele>947.20001220703</ele>
        <time>2016-05-06T12:32:53Z</time>
      </trkpt>
      <trkpt lat="44.40491" lon="5.84163">
        <ele>947.20001220703</ele>
        <time>2016-05-06T12:32:56Z</time>
      </trkpt>
      <trkpt lat="44.4048" lon="5.84154">
        <ele>947.20001220703</ele>
        <time>2016-05-06T12:32:58Z</time>
      </trkpt>
      <trkpt lat="44.40462" lon="5.84143">
        <ele>947.20001220703</ele>
        <time>2016-05-06T12:33:01Z</time>
      </trkpt>
      <trkpt lat="44.40454" lon="5.84132">
        <ele>947.20001220703</ele>
        <time>2016-05-06T12:33:03Z</time>
      </trkpt>
      <trkpt lat="44.40448" lon="5.84125">
        <ele>946.79998779297</ele>
        <time>2016-05-06T12:33:05Z</time>
      </trkpt>
      <trkpt lat="44.40443" lon="5.8412">
        <ele>946.79998779297</ele>
        <time>2016-05-06T12:33:07Z</time>
      </trkpt>
      <trkpt lat="44.40437" lon="5.84115">
        <ele>946.40002441406</ele>
        <time>2016-05-06T12:33:10Z</time>
      </trkpt>
      <trkpt lat="44.40435" lon="5.84108">
        <ele>946.40002441406</ele>
        <time>2016-05-06T12:33:13Z</time>
      </trkpt>
      <trkpt lat="44.40432" lon="5.84103">
        <ele>946.40002441406</ele>
        <time>2016-05-06T12:33:16Z</time>
      </trkpt>
      <trkpt lat="44.40426" lon="5.84093">
        <ele>946.59997558594</ele>
        <time>2016-05-06T12:33:22Z</time>
      </trkpt>
      <trkpt lat="44.40425" lon="5.84092">
        <ele>946.59997558594</ele>
        <time>2016-05-06T12:33:23Z</time>
      </trkpt>
      <trkpt lat="44.40424" lon="5.84084">
        <ele>947.20001220703</ele>
        <time>2016-05-06T12:33:28Z</time>
      </trkpt>
      <trkpt lat="44.40423" lon="5.84076">
        <ele>947.20001220703</ele>
        <time>2016-05-06T12:33:33Z</time>
      </trkpt>
      <trkpt lat="44.40422" lon="5.84075">
        <ele>948.59997558594</ele>
        <time>2016-05-06T12:33:34Z</time>
      </trkpt>
      <trkpt lat="44.40421" lon="5.84068">
        <ele>949.20001220703</ele>
        <time>2016-05-06T12:33:39Z</time>
      </trkpt>
      <trkpt lat="44.40421" lon="5.8406">
        <ele>950</ele>
        <time>2016-05-06T12:33:45Z</time>
      </trkpt>
      <trkpt lat="44.40421" lon="5.84052">
        <ele>951.59997558594</ele>
        <time>2016-05-06T12:33:51Z</time>
      </trkpt>
      <trkpt lat="44.4042" lon="5.84048">
        <ele>951.59997558594</ele>
        <time>2016-05-06T12:33:54Z</time>
      </trkpt>
      <trkpt lat="44.40417" lon="5.84045">
        <ele>953.20001220703</ele>
        <time>2016-05-06T12:33:57Z</time>
      </trkpt>
      <trkpt lat="44.40412" lon="5.84039">
        <ele>954.79998779297</ele>
        <time>2016-05-06T12:34:03Z</time>
      </trkpt>
      <trkpt lat="44.40411" lon="5.84038">
        <ele>954.79998779297</ele>
        <time>2016-05-06T12:34:04Z</time>
      </trkpt>
      <trkpt lat="44.40401" lon="5.84029">
        <ele>955.20001220703</ele>
        <time>2016-05-06T12:34:14Z</time>
      </trkpt>
      <trkpt lat="44.40393" lon="5.84027">
        <ele>956</ele>
        <time>2016-05-06T12:34:20Z</time>
      </trkpt>
      <trkpt lat="44.40384" lon="5.84025">
        <ele>956.40002441406</ele>
        <time>2016-05-06T12:34:26Z</time>
      </trkpt>
      <trkpt lat="44.40377" lon="5.84023">
        <ele>956.79998779297</ele>
        <time>2016-05-06T12:34:32Z</time>
      </trkpt>
      <trkpt lat="44.40372" lon="5.84023">
        <ele>956.79998779297</ele>
        <time>2016-05-06T12:34:36Z</time>
      </trkpt>
      <trkpt lat="44.40371" lon="5.84023">
        <ele>957.20001220703</ele>
        <time>2016-05-06T12:34:37Z</time>
      </trkpt>
      <trkpt lat="44.40361" lon="5.8402">
        <ele>958.20001220703</ele>
        <time>2016-05-06T12:34:43Z</time>
      </trkpt>
      <trkpt lat="44.40359" lon="5.84017">
        <ele>958.20001220703</ele>
        <time>2016-05-06T12:34:45Z</time>
      </trkpt>
      <trkpt lat="44.40353" lon="5.84013">
        <ele>959</ele>
        <time>2016-05-06T12:34:49Z</time>
      </trkpt>
      <trkpt lat="44.40348" lon="5.84007">
        <ele>959</ele>
        <time>2016-05-06T12:34:53Z</time>
      </trkpt>
      <trkpt lat="44.40345" lon="5.84005">
        <ele>959.59997558594</ele>
        <time>2016-05-06T12:34:55Z</time>
      </trkpt>
      <trkpt lat="44.40336" lon="5.83995">
        <ele>960</ele>
        <time>2016-05-06T12:35:01Z</time>
      </trkpt>
      <trkpt lat="44.40324" lon="5.83982">
        <ele>960.59997558594</ele>
        <time>2016-05-06T12:35:07Z</time>
      </trkpt>
      <trkpt lat="44.40322" lon="5.83981">
        <ele>961</ele>
        <time>2016-05-06T12:35:08Z</time>
      </trkpt>
      <trkpt lat="44.40316" lon="5.83981">
        <ele>961</ele>
        <time>2016-05-06T12:35:11Z</time>
      </trkpt>
      <trkpt lat="44.40299" lon="5.83983">
        <ele>961.59997558594</ele>
        <time>2016-05-06T12:35:21Z</time>
      </trkpt>
      <trkpt lat="44.40292" lon="5.83985">
        <ele>962.20001220703</ele>
        <time>2016-05-06T12:35:26Z</time>
      </trkpt>
      <trkpt lat="44.40288" lon="5.83986">
        <ele>962.20001220703</ele>
        <time>2016-05-06T12:35:29Z</time>
      </trkpt>
      <trkpt lat="44.40284" lon="5.83984">
        <ele>962.59997558594</ele>
        <time>2016-05-06T12:35:32Z</time>
      </trkpt>
      <trkpt lat="44.40279" lon="5.83976">
        <ele>963.79998779297</ele>
        <time>2016-05-06T12:35:38Z</time>
      </trkpt>
      <trkpt lat="44.40272" lon="5.83962">
        <ele>964.40002441406</ele>
        <time>2016-05-06T12:35:43Z</time>
      </trkpt>
      <trkpt lat="44.4027" lon="5.83958">
        <ele>965</ele>
        <time>2016-05-06T12:35:44Z</time>
      </trkpt>
      <trkpt lat="44.40269" lon="5.83954">
        <ele>965</ele>
        <time>2016-05-06T12:35:45Z</time>
      </trkpt>
      <trkpt lat="44.40266" lon="5.83947">
        <ele>965</ele>
        <time>2016-05-06T12:35:47Z</time>
      </trkpt>
      <trkpt lat="44.40265" lon="5.83942">
        <ele>965.59997558594</ele>
        <time>2016-05-06T12:35:49Z</time>
      </trkpt>
      <trkpt lat="44.40263" lon="5.83937">
        <ele>965.59997558594</ele>
        <time>2016-05-06T12:35:51Z</time>
      </trkpt>
      <trkpt lat="44.40262" lon="5.83934">
        <ele>965.59997558594</ele>
        <time>2016-05-06T12:35:52Z</time>
      </trkpt>
      <trkpt lat="44.40259" lon="5.83928">
        <ele>966.20001220703</ele>
        <time>2016-05-06T12:35:55Z</time>
      </trkpt>
      <trkpt lat="44.40255" lon="5.83918">
        <ele>966.20001220703</ele>
        <time>2016-05-06T12:36:00Z</time>
      </trkpt>
      <trkpt lat="44.40254" lon="5.83912">
        <ele>966.20001220703</ele>
        <time>2016-05-06T12:36:02Z</time>
      </trkpt>
      <trkpt lat="44.40255" lon="5.83906">
        <ele>966.20001220703</ele>
        <time>2016-05-06T12:36:04Z</time>
      </trkpt>
      <trkpt lat="44.40252" lon="5.83878">
        <ele>966.20001220703</ele>
        <time>2016-05-06T12:36:12Z</time>
      </trkpt>
      <trkpt lat="44.40252" lon="5.83859">
        <ele>966.20001220703</ele>
        <time>2016-05-06T12:36:18Z</time>
      </trkpt>
      <trkpt lat="44.40242" lon="5.83824">
        <ele>966.20001220703</ele>
        <time>2016-05-06T12:36:23Z</time>
      </trkpt>
      <trkpt lat="44.40239" lon="5.83799">
        <ele>966.20001220703</ele>
        <time>2016-05-06T12:36:27Z</time>
      </trkpt>
      <trkpt lat="44.40236" lon="5.83779">
        <ele>966.20001220703</ele>
        <time>2016-05-06T12:36:32Z</time>
      </trkpt>
      <trkpt lat="44.4022" lon="5.83763">
        <ele>966.20001220703</ele>
        <time>2016-05-06T12:36:38Z</time>
      </trkpt>
      <trkpt lat="44.40208" lon="5.83751">
        <ele>966.20001220703</ele>
        <time>2016-05-06T12:36:44Z</time>
      </trkpt>
      <trkpt lat="44.40197" lon="5.83743">
        <ele>966.20001220703</ele>
        <time>2016-05-06T12:36:51Z</time>
      </trkpt>
      <trkpt lat="44.40185" lon="5.83741">
        <ele>966.59997558594</ele>
        <time>2016-05-06T12:36:58Z</time>
      </trkpt>
      <trkpt lat="44.40183" lon="5.8374">
        <ele>967</ele>
        <time>2016-05-06T12:36:59Z</time>
      </trkpt>
      <trkpt lat="44.40181" lon="5.8374">
        <ele>967</ele>
        <time>2016-05-06T12:37:00Z</time>
      </trkpt>
      <trkpt lat="44.40176" lon="5.83735">
        <ele>967.59997558594</ele>
        <time>2016-05-06T12:37:04Z</time>
      </trkpt>
      <trkpt lat="44.40174" lon="5.83734">
        <ele>968.20001220703</ele>
        <time>2016-05-06T12:37:05Z</time>
      </trkpt>
      <trkpt lat="44.4017" lon="5.83727">
        <ele>968.79998779297</ele>
        <time>2016-05-06T12:37:10Z</time>
      </trkpt>
      <trkpt lat="44.40169" lon="5.83725">
        <ele>969.40002441406</ele>
        <time>2016-05-06T12:37:11Z</time>
      </trkpt>
      <trkpt lat="44.40163" lon="5.83714">
        <ele>970.20001220703</ele>
        <time>2016-05-06T12:37:16Z</time>
      </trkpt>
      <trkpt lat="44.40161" lon="5.83708">
        <ele>970.20001220703</ele>
        <time>2016-05-06T12:37:19Z</time>
      </trkpt>
      <trkpt lat="44.40158" lon="5.83705">
        <ele>970.79998779297</ele>
        <time>2016-05-06T12:37:22Z</time>
      </trkpt>
      <trkpt lat="44.40148" lon="5.83694">
        <ele>970.79998779297</ele>
        <time>2016-05-06T12:37:30Z</time>
      </trkpt>
      <trkpt lat="44.40144" lon="5.83686">
        <ele>972.40002441406</ele>
        <time>2016-05-06T12:37:34Z</time>
      </trkpt>
      <trkpt lat="44.40144" lon="5.8368">
        <ele>972.40002441406</ele>
        <time>2016-05-06T12:37:38Z</time>
      </trkpt>
      <trkpt lat="44.40144" lon="5.83678">
        <ele>973.20001220703</ele>
        <time>2016-05-06T12:37:39Z</time>
      </trkpt>
      <trkpt lat="44.40147" lon="5.83665">
        <ele>973.59997558594</ele>
        <time>2016-05-06T12:37:46Z</time>
      </trkpt>
      <trkpt lat="44.40147" lon="5.83664">
        <ele>974.20001220703</ele>
        <time>2016-05-06T12:37:47Z</time>
      </trkpt>
      <trkpt lat="44.4015" lon="5.83654">
        <ele>974.79998779297</ele>
        <time>2016-05-06T12:37:53Z</time>
      </trkpt>
      <trkpt lat="44.4015" lon="5.83653">
        <ele>975.20001220703</ele>
        <time>2016-05-06T12:37:54Z</time>
      </trkpt>
      <trkpt lat="44.40152" lon="5.83648">
        <ele>975.20001220703</ele>
        <time>2016-05-06T12:37:57Z</time>
      </trkpt>
      <trkpt lat="44.40153" lon="5.83645">
        <ele>975.79998779297</ele>
        <time>2016-05-06T12:37:59Z</time>
      </trkpt>
      <trkpt lat="44.40154" lon="5.83634">
        <ele>976.40002441406</ele>
        <time>2016-05-06T12:38:05Z</time>
      </trkpt>
      <trkpt lat="44.40154" lon="5.83628">
        <ele>976.40002441406</ele>
        <time>2016-05-06T12:38:09Z</time>
      </trkpt>
      <trkpt lat="44.40154" lon="5.83624">
        <ele>977.40002441406</ele>
        <time>2016-05-06T12:38:11Z</time>
      </trkpt>
      <trkpt lat="44.40154" lon="5.83613">
        <ele>978</ele>
        <time>2016-05-06T12:38:16Z</time>
      </trkpt>
      <trkpt lat="44.40154" lon="5.8361">
        <ele>978.40002441406</ele>
        <time>2016-05-06T12:38:17Z</time>
      </trkpt>
      <trkpt lat="44.40153" lon="5.83599">
        <ele>978.79998779297</ele>
        <time>2016-05-06T12:38:22Z</time>
      </trkpt>
      <trkpt lat="44.40153" lon="5.83588">
        <ele>979.40002441406</ele>
        <time>2016-05-06T12:38:28Z</time>
      </trkpt>
      <trkpt lat="44.40153" lon="5.83579">
        <ele>980</ele>
        <time>2016-05-06T12:38:33Z</time>
      </trkpt>
      <trkpt lat="44.40153" lon="5.83578">
        <ele>980.59997558594</ele>
        <time>2016-05-06T12:38:34Z</time>
      </trkpt>
      <trkpt lat="44.40152" lon="5.8357">
        <ele>981.20001220703</ele>
        <time>2016-05-06T12:38:39Z</time>
      </trkpt>
      <trkpt lat="44.40152" lon="5.83569">
        <ele>981.79998779297</ele>
        <time>2016-05-06T12:38:40Z</time>
      </trkpt>
      <trkpt lat="44.40153" lon="5.8356">
        <ele>982.40002441406</ele>
        <time>2016-05-06T12:38:45Z</time>
      </trkpt>
      <trkpt lat="44.40152" lon="5.83549">
        <ele>982.40002441406</ele>
        <time>2016-05-06T12:38:50Z</time>
      </trkpt>
      <trkpt lat="44.40151" lon="5.83548">
        <ele>983</ele>
        <time>2016-05-06T12:38:51Z</time>
      </trkpt>
      <trkpt lat="44.40149" lon="5.8354">
        <ele>983.59997558594</ele>
        <time>2016-05-06T12:38:57Z</time>
      </trkpt>
      <trkpt lat="44.40145" lon="5.83533">
        <ele>984.40002441406</ele>
        <time>2016-05-06T12:39:02Z</time>
      </trkpt>
      <trkpt lat="44.40144" lon="5.83532">
        <ele>985.20001220703</ele>
        <time>2016-05-06T12:39:03Z</time>
      </trkpt>
      <trkpt lat="44.40142" lon="5.83526">
        <ele>985.79998779297</ele>
        <time>2016-05-06T12:39:08Z</time>
      </trkpt>
      <trkpt lat="44.40141" lon="5.83524">
        <ele>986.59997558594</ele>
        <time>2016-05-06T12:39:09Z</time>
      </trkpt>
      <trkpt lat="44.40139" lon="5.83518">
        <ele>987.40002441406</ele>
        <time>2016-05-06T12:39:14Z</time>
      </trkpt>
      <trkpt lat="44.40139" lon="5.83517">
        <ele>987.40002441406</ele>
        <time>2016-05-06T12:39:15Z</time>
      </trkpt>
      <trkpt lat="44.40134" lon="5.83509">
        <ele>987.79998779297</ele>
        <time>2016-05-06T12:39:20Z</time>
      </trkpt>
      <trkpt lat="44.40132" lon="5.83501">
        <ele>987.79998779297</ele>
        <time>2016-05-06T12:39:25Z</time>
      </trkpt>
      <trkpt lat="44.40131" lon="5.835">
        <ele>988.59997558594</ele>
        <time>2016-05-06T12:39:26Z</time>
      </trkpt>
      <trkpt lat="44.40128" lon="5.83495">
        <ele>989</ele>
        <time>2016-05-06T12:39:31Z</time>
      </trkpt>
      <trkpt lat="44.40127" lon="5.83494">
        <ele>989.40002441406</ele>
        <time>2016-05-06T12:39:32Z</time>
      </trkpt>
      <trkpt lat="44.40123" lon="5.8349">
        <ele>989.40002441406</ele>
        <time>2016-05-06T12:39:36Z</time>
      </trkpt>
      <trkpt lat="44.40122" lon="5.83489">
        <ele>990</ele>
        <time>2016-05-06T12:39:37Z</time>
      </trkpt>
      <trkpt lat="44.40121" lon="5.83488">
        <ele>990.40002441406</ele>
        <time>2016-05-06T12:39:38Z</time>
      </trkpt>
      <trkpt lat="44.40117" lon="5.83484">
        <ele>990.79998779297</ele>
        <time>2016-05-06T12:39:43Z</time>
      </trkpt>
      <trkpt lat="44.40113" lon="5.83482">
        <ele>990.79998779297</ele>
        <time>2016-05-06T12:39:47Z</time>
      </trkpt>
      <trkpt lat="44.40112" lon="5.83482">
        <ele>991.40002441406</ele>
        <time>2016-05-06T12:39:49Z</time>
      </trkpt>
      <trkpt lat="44.40104" lon="5.8348">
        <ele>992.40002441406</ele>
        <time>2016-05-06T12:39:55Z</time>
      </trkpt>
      <trkpt lat="44.40101" lon="5.8348">
        <ele>992.40002441406</ele>
        <time>2016-05-06T12:39:58Z</time>
      </trkpt>
      <trkpt lat="44.40099" lon="5.8348">
        <ele>993</ele>
        <time>2016-05-06T12:40:00Z</time>
      </trkpt>
      <trkpt lat="44.40098" lon="5.8348">
        <ele>993.59997558594</ele>
        <time>2016-05-06T12:40:01Z</time>
      </trkpt>
      <trkpt lat="44.40092" lon="5.83481">
        <ele>994.20001220703</ele>
        <time>2016-05-06T12:40:07Z</time>
      </trkpt>
      <trkpt lat="44.40091" lon="5.83481">
        <ele>994.59997558594</ele>
        <time>2016-05-06T12:40:08Z</time>
      </trkpt>
      <trkpt lat="44.4009" lon="5.83481">
        <ele>994.59997558594</ele>
        <time>2016-05-06T12:40:09Z</time>
      </trkpt>
      <trkpt lat="44.40086" lon="5.83481">
        <ele>995.20001220703</ele>
        <time>2016-05-06T12:40:13Z</time>
      </trkpt>
      <trkpt lat="44.40081" lon="5.83484">
        <ele>995.79998779297</ele>
        <time>2016-05-06T12:40:19Z</time>
      </trkpt>
      <trkpt lat="44.4008" lon="5.83484">
        <ele>996.40002441406</ele>
        <time>2016-05-06T12:40:20Z</time>
      </trkpt>
      <trkpt lat="44.40076" lon="5.83489">
        <ele>996.79998779297</ele>
        <time>2016-05-06T12:40:25Z</time>
      </trkpt>
      <trkpt lat="44.40071" lon="5.83494">
        <ele>997.40002441406</ele>
        <time>2016-05-06T12:40:31Z</time>
      </trkpt>
      <trkpt lat="44.40068" lon="5.83499">
        <ele>999</ele>
        <time>2016-05-06T12:40:38Z</time>
      </trkpt>
      <trkpt lat="44.40063" lon="5.83504">
        <ele>1000.4000244141</ele>
        <time>2016-05-06T12:40:44Z</time>
      </trkpt>
      <trkpt lat="44.4006" lon="5.83508">
        <ele>1001</ele>
        <time>2016-05-06T12:40:49Z</time>
      </trkpt>
      <trkpt lat="44.40059" lon="5.8351">
        <ele>1001</ele>
        <time>2016-05-06T12:40:52Z</time>
      </trkpt>
      <trkpt lat="44.40056" lon="5.83514">
        <ele>1001.799987793</ele>
        <time>2016-05-06T12:40:55Z</time>
      </trkpt>
      <trkpt lat="44.40048" lon="5.83518">
        <ele>1003.5999755859</ele>
        <time>2016-05-06T12:41:01Z</time>
      </trkpt>
      <trkpt lat="44.40047" lon="5.8352">
        <ele>1003.5999755859</ele>
        <time>2016-05-06T12:41:03Z</time>
      </trkpt>
      <trkpt lat="44.40043" lon="5.83524">
        <ele>1005.4000244141</ele>
        <time>2016-05-06T12:41:07Z</time>
      </trkpt>
      <trkpt lat="44.40039" lon="5.83528">
        <ele>1006</ele>
        <time>2016-05-06T12:41:13Z</time>
      </trkpt>
      <trkpt lat="44.40035" lon="5.8353">
        <ele>1006</ele>
        <time>2016-05-06T12:41:16Z</time>
      </trkpt>
      <trkpt lat="44.40034" lon="5.83531">
        <ele>1006.799987793</ele>
        <time>2016-05-06T12:41:18Z</time>
      </trkpt>
      <trkpt lat="44.40031" lon="5.83532">
        <ele>1008.200012207</ele>
        <time>2016-05-06T12:41:24Z</time>
      </trkpt>
      <trkpt lat="44.4003" lon="5.83533">
        <ele>1009.5999755859</ele>
        <time>2016-05-06T12:41:30Z</time>
      </trkpt>
      <trkpt lat="44.40027" lon="5.83536">
        <ele>1010.4000244141</ele>
        <time>2016-05-06T12:41:36Z</time>
      </trkpt>
      <trkpt lat="44.40024" lon="5.83537">
        <ele>1010.4000244141</ele>
        <time>2016-05-06T12:41:40Z</time>
      </trkpt>
      <trkpt lat="44.40023" lon="5.83537">
        <ele>1011.200012207</ele>
        <time>2016-05-06T12:41:41Z</time>
      </trkpt>
      <trkpt lat="44.40016" lon="5.83539">
        <ele>1012.200012207</ele>
        <time>2016-05-06T12:41:53Z</time>
      </trkpt>
      <trkpt lat="44.40011" lon="5.83541">
        <ele>1012.5999755859</ele>
        <time>2016-05-06T12:41:59Z</time>
      </trkpt>
      <trkpt lat="44.40007" lon="5.83542">
        <ele>1013.200012207</ele>
        <time>2016-05-06T12:42:04Z</time>
      </trkpt>
      <trkpt lat="44.4" lon="5.83542">
        <ele>1014.200012207</ele>
        <time>2016-05-06T12:42:10Z</time>
      </trkpt>
      <trkpt lat="44.39995" lon="5.83543">
        <ele>1014.200012207</ele>
        <time>2016-05-06T12:42:13Z</time>
      </trkpt>
      <trkpt lat="44.39992" lon="5.83542">
        <ele>1015.200012207</ele>
        <time>2016-05-06T12:42:16Z</time>
      </trkpt>
      <trkpt lat="44.39988" lon="5.83541">
        <ele>1016.4000244141</ele>
        <time>2016-05-06T12:42:22Z</time>
      </trkpt>
      <trkpt lat="44.39985" lon="5.83543">
        <ele>1017</ele>
        <time>2016-05-06T12:42:28Z</time>
      </trkpt>
      <trkpt lat="44.39985" lon="5.83543">
        <ele>1017</ele>
        <time>2016-05-06T12:42:29Z</time>
      </trkpt>
      <trkpt lat="44.39982" lon="5.8354">
        <ele>1018</ele>
        <time>2016-05-06T12:42:34Z</time>
      </trkpt>
      <trkpt lat="44.3998" lon="5.8354">
        <ele>1018</ele>
        <time>2016-05-06T12:42:38Z</time>
      </trkpt>
      <trkpt lat="44.39979" lon="5.8354">
        <ele>1018.5999755859</ele>
        <time>2016-05-06T12:42:40Z</time>
      </trkpt>
      <trkpt lat="44.39979" lon="5.83541">
        <ele>1019.799987793</ele>
        <time>2016-05-06T12:42:47Z</time>
      </trkpt>
      <trkpt lat="44.3998" lon="5.83541">
        <ele>1020.4000244141</ele>
        <time>2016-05-06T12:42:48Z</time>
      </trkpt>
      <trkpt lat="44.39976" lon="5.83542">
        <ele>1021.4000244141</ele>
        <time>2016-05-06T12:43:22Z</time>
      </trkpt>
      <trkpt lat="44.39976" lon="5.83543">
        <ele>1021.4000244141</ele>
        <time>2016-05-06T12:43:23Z</time>
      </trkpt>
      <trkpt lat="44.39973" lon="5.83544">
        <ele>1022.200012207</ele>
        <time>2016-05-06T12:43:28Z</time>
      </trkpt>
      <trkpt lat="44.3997" lon="5.83543">
        <ele>1023.200012207</ele>
        <time>2016-05-06T12:43:34Z</time>
      </trkpt>
      <trkpt lat="44.39968" lon="5.83543">
        <ele>1023.200012207</ele>
        <time>2016-05-06T12:43:37Z</time>
      </trkpt>
      <trkpt lat="44.39968" lon="5.83543">
        <ele>1023.799987793</ele>
        <time>2016-05-06T12:43:39Z</time>
      </trkpt>
      <trkpt lat="44.39965" lon="5.83543">
        <ele>1024.8000488281</ele>
        <time>2016-05-06T12:43:45Z</time>
      </trkpt>
      <trkpt lat="44.39962" lon="5.83545">
        <ele>1025.8000488281</ele>
        <time>2016-05-06T12:43:51Z</time>
      </trkpt>
      <trkpt lat="44.39959" lon="5.83546">
        <ele>1027</ele>
        <time>2016-05-06T12:43:57Z</time>
      </trkpt>
      <trkpt lat="44.39958" lon="5.83547">
        <ele>1027</ele>
        <time>2016-05-06T12:43:59Z</time>
      </trkpt>
      <trkpt lat="44.39956" lon="5.83548">
        <ele>1027.4000244141</ele>
        <time>2016-05-06T12:44:03Z</time>
      </trkpt>
      <trkpt lat="44.39954" lon="5.83548">
        <ele>1028</ele>
        <time>2016-05-06T12:44:08Z</time>
      </trkpt>
      <trkpt lat="44.39952" lon="5.83548">
        <ele>1028.5999755859</ele>
        <time>2016-05-06T12:44:14Z</time>
      </trkpt>
      <trkpt lat="44.3995" lon="5.8355">
        <ele>1029.5999755859</ele>
        <time>2016-05-06T12:44:20Z</time>
      </trkpt>
      <trkpt lat="44.39949" lon="5.83551">
        <ele>1029.5999755859</ele>
        <time>2016-05-06T12:44:23Z</time>
      </trkpt>
      <trkpt lat="44.39948" lon="5.83552">
        <ele>1030.8000488281</ele>
        <time>2016-05-06T12:44:26Z</time>
      </trkpt>
      <trkpt lat="44.39946" lon="5.83554">
        <ele>1031.1999511719</ele>
        <time>2016-05-06T12:44:32Z</time>
      </trkpt>
      <trkpt lat="44.39944" lon="5.83555">
        <ele>1031.8000488281</ele>
        <time>2016-05-06T12:44:37Z</time>
      </trkpt>
      <trkpt lat="44.39941" lon="5.83557">
        <ele>1032.8000488281</ele>
        <time>2016-05-06T12:44:43Z</time>
      </trkpt>
      <trkpt lat="44.39938" lon="5.8356">
        <ele>1032.8000488281</ele>
        <time>2016-05-06T12:44:48Z</time>
      </trkpt>
      <trkpt lat="44.39937" lon="5.83561">
        <ele>1033.8000488281</ele>
        <time>2016-05-06T12:44:49Z</time>
      </trkpt>
      <trkpt lat="44.39933" lon="5.83563">
        <ele>1034.4000244141</ele>
        <time>2016-05-06T12:44:55Z</time>
      </trkpt>
      <trkpt lat="44.3993" lon="5.83565">
        <ele>1035.1999511719</ele>
        <time>2016-05-06T12:45:01Z</time>
      </trkpt>
      <trkpt lat="44.3993" lon="5.83566">
        <ele>1035.1999511719</ele>
        <time>2016-05-06T12:45:02Z</time>
      </trkpt>
      <trkpt lat="44.39929" lon="5.83569">
        <ele>1035.8000488281</ele>
        <time>2016-05-06T12:45:07Z</time>
      </trkpt>
      <trkpt lat="44.39927" lon="5.83577">
        <ele>1035.8000488281</ele>
        <time>2016-05-06T12:45:17Z</time>
      </trkpt>
      <trkpt lat="44.39927" lon="5.83578">
        <ele>1036.4000244141</ele>
        <time>2016-05-06T12:45:18Z</time>
      </trkpt>
      <trkpt lat="44.39927" lon="5.83582">
        <ele>1037</ele>
        <time>2016-05-06T12:45:24Z</time>
      </trkpt>
      <trkpt lat="44.39925" lon="5.83586">
        <ele>1038.4000244141</ele>
        <time>2016-05-06T12:45:31Z</time>
      </trkpt>
      <trkpt lat="44.39925" lon="5.8359">
        <ele>1040</ele>
        <time>2016-05-06T12:45:37Z</time>
      </trkpt>
      <trkpt lat="44.39924" lon="5.8359">
        <ele>1040</ele>
        <time>2016-05-06T12:45:38Z</time>
      </trkpt>
      <trkpt lat="44.39923" lon="5.83593">
        <ele>1040.8000488281</ele>
        <time>2016-05-06T12:45:43Z</time>
      </trkpt>
      <trkpt lat="44.39921" lon="5.83595">
        <ele>1040.8000488281</ele>
        <time>2016-05-06T12:45:47Z</time>
      </trkpt>
      <trkpt lat="44.39921" lon="5.83595">
        <ele>1041.4000244141</ele>
        <time>2016-05-06T12:45:48Z</time>
      </trkpt>
      <trkpt lat="44.39919" lon="5.83597">
        <ele>1042.4000244141</ele>
        <time>2016-05-06T12:45:54Z</time>
      </trkpt>
      <trkpt lat="44.39917" lon="5.83597">
        <ele>1042.4000244141</ele>
        <time>2016-05-06T12:45:58Z</time>
      </trkpt>
      <trkpt lat="44.39915" lon="5.83598">
        <ele>1043.1999511719</ele>
        <time>2016-05-06T12:46:00Z</time>
      </trkpt>
      <trkpt lat="44.39912" lon="5.83599">
        <ele>1044.1999511719</ele>
        <time>2016-05-06T12:46:06Z</time>
      </trkpt>
      <trkpt lat="44.39911" lon="5.836">
        <ele>1044.8000488281</ele>
        <time>2016-05-06T12:46:11Z</time>
      </trkpt>
      <trkpt lat="44.39909" lon="5.836">
        <ele>1044.8000488281</ele>
        <time>2016-05-06T12:46:16Z</time>
      </trkpt>
      <trkpt lat="44.39909" lon="5.836">
        <ele>1045.1999511719</ele>
        <time>2016-05-06T12:46:17Z</time>
      </trkpt>
      <trkpt lat="44.39907" lon="5.83602">
        <ele>1046.1999511719</ele>
        <time>2016-05-06T12:46:23Z</time>
      </trkpt>
      <trkpt lat="44.39905" lon="5.83605">
        <ele>1047</ele>
        <time>2016-05-06T12:46:29Z</time>
      </trkpt>
      <trkpt lat="44.39904" lon="5.83607">
        <ele>1047</ele>
        <time>2016-05-06T12:46:33Z</time>
      </trkpt>
      <trkpt lat="44.39904" lon="5.83608">
        <ele>1047.8000488281</ele>
        <time>2016-05-06T12:46:35Z</time>
      </trkpt>
      <trkpt lat="44.39902" lon="5.83611">
        <ele>1048.1999511719</ele>
        <time>2016-05-06T12:46:41Z</time>
      </trkpt>
      <trkpt lat="44.39901" lon="5.83613">
        <ele>1048.5999755859</ele>
        <time>2016-05-06T12:46:46Z</time>
      </trkpt>
      <trkpt lat="44.39901" lon="5.83614">
        <ele>1048.5999755859</ele>
        <time>2016-05-06T12:46:49Z</time>
      </trkpt>
      <trkpt lat="44.399" lon="5.83616">
        <ele>1049.5999755859</ele>
        <time>2016-05-06T12:46:52Z</time>
      </trkpt>
      <trkpt lat="44.399" lon="5.83618">
        <ele>1050.4000244141</ele>
        <time>2016-05-06T12:46:58Z</time>
      </trkpt>
      <trkpt lat="44.39898" lon="5.8362">
        <ele>1050.4000244141</ele>
        <time>2016-05-06T12:47:02Z</time>
      </trkpt>
      <trkpt lat="44.39898" lon="5.83621">
        <ele>1051.4000244141</ele>
        <time>2016-05-06T12:47:04Z</time>
      </trkpt>
      <trkpt lat="44.39898" lon="5.83623">
        <ele>1051.8000488281</ele>
        <time>2016-05-06T12:47:09Z</time>
      </trkpt>
      <trkpt lat="44.39898" lon="5.83623">
        <ele>1051.8000488281</ele>
        <time>2016-05-06T12:47:12Z</time>
      </trkpt>
      <trkpt lat="44.39896" lon="5.83624">
        <ele>1053</ele>
        <time>2016-05-06T12:47:15Z</time>
      </trkpt>
      <trkpt lat="44.39891" lon="5.83625">
        <ele>1054.1999511719</ele>
        <time>2016-05-06T12:47:21Z</time>
      </trkpt>
      <trkpt lat="44.39891" lon="5.83626">
        <ele>1054.1999511719</ele>
        <time>2016-05-06T12:47:22Z</time>
      </trkpt>
      <trkpt lat="44.39888" lon="5.83629">
        <ele>1054.5999755859</ele>
        <time>2016-05-06T12:47:27Z</time>
      </trkpt>
      <trkpt lat="44.39885" lon="5.83634">
        <ele>1055.5999755859</ele>
        <time>2016-05-06T12:47:33Z</time>
      </trkpt>
      <trkpt lat="44.39884" lon="5.83635">
        <ele>1055.5999755859</ele>
        <time>2016-05-06T12:47:35Z</time>
      </trkpt>
      <trkpt lat="44.39882" lon="5.83638">
        <ele>1056</ele>
        <time>2016-05-06T12:47:39Z</time>
      </trkpt>
      <trkpt lat="44.3988" lon="5.83642">
        <ele>1056.8000488281</ele>
        <time>2016-05-06T12:47:46Z</time>
      </trkpt>
      <trkpt lat="44.39879" lon="5.83643">
        <ele>1056.8000488281</ele>
        <time>2016-05-06T12:47:48Z</time>
      </trkpt>
      <trkpt lat="44.39878" lon="5.83647">
        <ele>1057.4000244141</ele>
        <time>2016-05-06T12:47:52Z</time>
      </trkpt>
      <trkpt lat="44.39877" lon="5.83652">
        <ele>1058.1999511719</ele>
        <time>2016-05-06T12:47:58Z</time>
      </trkpt>
      <trkpt lat="44.39875" lon="5.83654">
        <ele>1058.1999511719</ele>
        <time>2016-05-06T12:48:02Z</time>
      </trkpt>
      <trkpt lat="44.39874" lon="5.83656">
        <ele>1059.1999511719</ele>
        <time>2016-05-06T12:48:04Z</time>
      </trkpt>
      <trkpt lat="44.39874" lon="5.8366">
        <ele>1059.8000488281</ele>
        <time>2016-05-06T12:48:09Z</time>
      </trkpt>
      <trkpt lat="44.39872" lon="5.83664">
        <ele>1060.1999511719</ele>
        <time>2016-05-06T12:48:15Z</time>
      </trkpt>
      <trkpt lat="44.39871" lon="5.83668">
        <ele>1061.1999511719</ele>
        <time>2016-05-06T12:48:21Z</time>
      </trkpt>
      <trkpt lat="44.3987" lon="5.8367">
        <ele>1062.5999755859</ele>
        <time>2016-05-06T12:48:27Z</time>
      </trkpt>
      <trkpt lat="44.3987" lon="5.83671">
        <ele>1064</ele>
        <time>2016-05-06T12:48:33Z</time>
      </trkpt>
      <trkpt lat="44.39866" lon="5.83677">
        <ele>1064</ele>
        <time>2016-05-06T12:49:08Z</time>
      </trkpt>
      <trkpt lat="44.39867" lon="5.83689">
        <ele>1064</ele>
        <time>2016-05-06T12:49:16Z</time>
      </trkpt>
      <trkpt lat="44.39871" lon="5.83703">
        <ele>1064</ele>
        <time>2016-05-06T12:49:25Z</time>
      </trkpt>
      <trkpt lat="44.39873" lon="5.83706">
        <ele>1064.4000244141</ele>
        <time>2016-05-06T12:49:30Z</time>
      </trkpt>
      <trkpt lat="44.39873" lon="5.83707">
        <ele>1064.4000244141</ele>
        <time>2016-05-06T12:49:32Z</time>
      </trkpt>
      <trkpt lat="44.39875" lon="5.8371">
        <ele>1065.4000244141</ele>
        <time>2016-05-06T12:49:36Z</time>
      </trkpt>
      <trkpt lat="44.39876" lon="5.83711">
        <ele>1065.4000244141</ele>
        <time>2016-05-06T12:49:38Z</time>
      </trkpt>
      <trkpt lat="44.3988" lon="5.83713">
        <ele>1065.8000488281</ele>
        <time>2016-05-06T12:49:41Z</time>
      </trkpt>
      <trkpt lat="44.39883" lon="5.83716">
        <ele>1065.8000488281</ele>
        <time>2016-05-06T12:49:45Z</time>
      </trkpt>
      <trkpt lat="44.39885" lon="5.83718">
        <ele>1066.1999511719</ele>
        <time>2016-05-06T12:49:47Z</time>
      </trkpt>
      <trkpt lat="44.39895" lon="5.83726">
        <ele>1067.1999511719</ele>
        <time>2016-05-06T12:49:53Z</time>
      </trkpt>
      <trkpt lat="44.39898" lon="5.83731">
        <ele>1067.1999511719</ele>
        <time>2016-05-06T12:49:56Z</time>
      </trkpt>
      <trkpt lat="44.399" lon="5.83734">
        <ele>1067.8000488281</ele>
        <time>2016-05-06T12:49:59Z</time>
      </trkpt>
      <trkpt lat="44.39902" lon="5.8374">
        <ele>1068.1999511719</ele>
        <time>2016-05-06T12:50:05Z</time>
      </trkpt>
      <trkpt lat="44.39903" lon="5.83741">
        <ele>1068.1999511719</ele>
        <time>2016-05-06T12:50:06Z</time>
      </trkpt>
      <trkpt lat="44.39904" lon="5.83742">
        <ele>1068.1999511719</ele>
        <time>2016-05-06T12:50:07Z</time>
      </trkpt>
      <trkpt lat="44.39917" lon="5.83752">
        <ele>1069.1999511719</ele>
        <time>2016-05-06T12:50:18Z</time>
      </trkpt>
      <trkpt lat="44.3992" lon="5.83754">
        <ele>1069.1999511719</ele>
        <time>2016-05-06T12:50:19Z</time>
      </trkpt>
      <trkpt lat="44.39923" lon="5.83759">
        <ele>1069.8000488281</ele>
        <time>2016-05-06T12:50:24Z</time>
      </trkpt>
      <trkpt lat="44.39925" lon="5.83761">
        <ele>1069.8000488281</ele>
        <time>2016-05-06T12:50:28Z</time>
      </trkpt>
      <trkpt lat="44.39926" lon="5.83764">
        <ele>1070.1999511719</ele>
        <time>2016-05-06T12:50:30Z</time>
      </trkpt>
      <trkpt lat="44.39925" lon="5.83768">
        <ele>1070.8000488281</ele>
        <time>2016-05-06T12:50:35Z</time>
      </trkpt>
      <trkpt lat="44.39927" lon="5.83774">
        <ele>1071.4000244141</ele>
        <time>2016-05-06T12:50:41Z</time>
      </trkpt>
      <trkpt lat="44.39927" lon="5.8378">
        <ele>1072.5999755859</ele>
        <time>2016-05-06T12:50:47Z</time>
      </trkpt>
      <trkpt lat="44.39926" lon="5.83782">
        <ele>1072.5999755859</ele>
        <time>2016-05-06T12:50:49Z</time>
      </trkpt>
      <trkpt lat="44.39924" lon="5.83786">
        <ele>1074</ele>
        <time>2016-05-06T12:50:53Z</time>
      </trkpt>
      <trkpt lat="44.39922" lon="5.83791">
        <ele>1074.5999755859</ele>
        <time>2016-05-06T12:50:58Z</time>
      </trkpt>
      <trkpt lat="44.39922" lon="5.83792">
        <ele>1074.5999755859</ele>
        <time>2016-05-06T12:51:02Z</time>
      </trkpt>
      <trkpt lat="44.39922" lon="5.83793">
        <ele>1075.1999511719</ele>
        <time>2016-05-06T12:51:04Z</time>
      </trkpt>
      <trkpt lat="44.39922" lon="5.83796">
        <ele>1076.4000244141</ele>
        <time>2016-05-06T12:51:10Z</time>
      </trkpt>
      <trkpt lat="44.3992" lon="5.83798">
        <ele>1076.4000244141</ele>
        <time>2016-05-06T12:51:14Z</time>
      </trkpt>
      <trkpt lat="44.3992" lon="5.83799">
        <ele>1076.8000488281</ele>
        <time>2016-05-06T12:51:16Z</time>
      </trkpt>
      <trkpt lat="44.39922" lon="5.83803">
        <ele>1077.4000244141</ele>
        <time>2016-05-06T12:51:21Z</time>
      </trkpt>
      <trkpt lat="44.39923" lon="5.83806">
        <ele>1077.4000244141</ele>
        <time>2016-05-06T12:51:23Z</time>
      </trkpt>
      <trkpt lat="44.39924" lon="5.8381">
        <ele>1077.8000488281</ele>
        <time>2016-05-06T12:51:27Z</time>
      </trkpt>
      <trkpt lat="44.39925" lon="5.83816">
        <ele>1079</ele>
        <time>2016-05-06T12:51:33Z</time>
      </trkpt>
      <trkpt lat="44.39925" lon="5.83819">
        <ele>1079</ele>
        <time>2016-05-06T12:51:38Z</time>
      </trkpt>
      <trkpt lat="44.39925" lon="5.8382">
        <ele>1080.1999511719</ele>
        <time>2016-05-06T12:51:39Z</time>
      </trkpt>
      <trkpt lat="44.39925" lon="5.83826">
        <ele>1080.5999755859</ele>
        <time>2016-05-06T12:51:44Z</time>
      </trkpt>
      <trkpt lat="44.39928" lon="5.83832">
        <ele>1081.1999511719</ele>
        <time>2016-05-06T12:51:50Z</time>
      </trkpt>
      <trkpt lat="44.39928" lon="5.83834">
        <ele>1081.1999511719</ele>
        <time>2016-05-06T12:51:52Z</time>
      </trkpt>
      <trkpt lat="44.39929" lon="5.83839">
        <ele>1082.4000244141</ele>
        <time>2016-05-06T12:51:56Z</time>
      </trkpt>
      <trkpt lat="44.39931" lon="5.83846">
        <ele>1083.5999755859</ele>
        <time>2016-05-06T12:52:02Z</time>
      </trkpt>
      <trkpt lat="44.39932" lon="5.8385">
        <ele>1083.5999755859</ele>
        <time>2016-05-06T12:52:06Z</time>
      </trkpt>
      <trkpt lat="44.39933" lon="5.83852">
        <ele>1084.1999511719</ele>
        <time>2016-05-06T12:52:08Z</time>
      </trkpt>
      <trkpt lat="44.39936" lon="5.83858">
        <ele>1084.8000488281</ele>
        <time>2016-05-06T12:52:13Z</time>
      </trkpt>
      <trkpt lat="44.39937" lon="5.83863">
        <ele>1085.8000488281</ele>
        <time>2016-05-06T12:52:19Z</time>
      </trkpt>
      <trkpt lat="44.39937" lon="5.83865">
        <ele>1085.8000488281</ele>
        <time>2016-05-06T12:52:22Z</time>
      </trkpt>
      <trkpt lat="44.39938" lon="5.83868">
        <ele>1086.5999755859</ele>
        <time>2016-05-06T12:52:25Z</time>
      </trkpt>
      <trkpt lat="44.39936" lon="5.83873">
        <ele>1087.1999511719</ele>
        <time>2016-05-06T12:52:30Z</time>
      </trkpt>
      <trkpt lat="44.39934" lon="5.83877">
        <ele>1088.5999755859</ele>
        <time>2016-05-06T12:52:36Z</time>
      </trkpt>
      <trkpt lat="44.39931" lon="5.83874">
        <ele>1089.8000488281</ele>
        <time>2016-05-06T12:52:42Z</time>
      </trkpt>
      <trkpt lat="44.3993" lon="5.83873">
        <ele>1089.8000488281</ele>
        <time>2016-05-06T12:52:43Z</time>
      </trkpt>
      <trkpt lat="44.39927" lon="5.83863">
        <ele>1089.8000488281</ele>
        <time>2016-05-06T12:52:50Z</time>
      </trkpt>
      <trkpt lat="44.39922" lon="5.83846">
        <ele>1089.8000488281</ele>
        <time>2016-05-06T12:52:55Z</time>
      </trkpt>
      <trkpt lat="44.39912" lon="5.83834">
        <ele>1089.8000488281</ele>
        <time>2016-05-06T12:52:58Z</time>
      </trkpt>
      <trkpt lat="44.39907" lon="5.83826">
        <ele>1089.8000488281</ele>
        <time>2016-05-06T12:53:00Z</time>
      </trkpt>
      <trkpt lat="44.39889" lon="5.83794">
        <ele>1089.8000488281</ele>
        <time>2016-05-06T12:53:07Z</time>
      </trkpt>
      <trkpt lat="44.39872" lon="5.83766">
        <ele>1089.4000244141</ele>
        <time>2016-05-06T12:53:13Z</time>
      </trkpt>
      <trkpt lat="44.39869" lon="5.8376">
        <ele>1089.4000244141</ele>
        <time>2016-05-06T12:53:14Z</time>
      </trkpt>
      <trkpt lat="44.39864" lon="5.83756">
        <ele>1089.4000244141</ele>
        <time>2016-05-06T12:53:15Z</time>
      </trkpt>
      <trkpt lat="44.39845" lon="5.83736">
        <ele>1088.5999755859</ele>
        <time>2016-05-06T12:53:19Z</time>
      </trkpt>
      <trkpt lat="44.39833" lon="5.83723">
        <ele>1088.5999755859</ele>
        <time>2016-05-06T12:53:22Z</time>
      </trkpt>
      <trkpt lat="44.39824" lon="5.83707">
        <ele>1088.5999755859</ele>
        <time>2016-05-06T12:53:25Z</time>
      </trkpt>
      <trkpt lat="44.3982" lon="5.837">
        <ele>1087.5999755859</ele>
        <time>2016-05-06T12:53:26Z</time>
      </trkpt>
      <trkpt lat="44.39815" lon="5.83684">
        <ele>1087.5999755859</ele>
        <time>2016-05-06T12:53:28Z</time>
      </trkpt>
      <trkpt lat="44.39813" lon="5.83677">
        <ele>1087.5999755859</ele>
        <time>2016-05-06T12:53:29Z</time>
      </trkpt>
      <trkpt lat="44.39807" lon="5.83664">
        <ele>1087.5999755859</ele>
        <time>2016-05-06T12:53:31Z</time>
      </trkpt>
      <trkpt lat="44.39803" lon="5.83659">
        <ele>1087</ele>
        <time>2016-05-06T12:53:32Z</time>
      </trkpt>
      <trkpt lat="44.39799" lon="5.83653">
        <ele>1087</ele>
        <time>2016-05-06T12:53:33Z</time>
      </trkpt>
      <trkpt lat="44.39788" lon="5.83625">
        <ele>1085.5999755859</ele>
        <time>2016-05-06T12:53:37Z</time>
      </trkpt>
      <trkpt lat="44.39787" lon="5.83618">
        <ele>1085.5999755859</ele>
        <time>2016-05-06T12:53:38Z</time>
      </trkpt>
      <trkpt lat="44.39785" lon="5.83613">
        <ele>1085.5999755859</ele>
        <time>2016-05-06T12:53:39Z</time>
      </trkpt>
      <trkpt lat="44.39777" lon="5.83593">
        <ele>1084</ele>
        <time>2016-05-06T12:53:43Z</time>
      </trkpt>
      <trkpt lat="44.39773" lon="5.83583">
        <ele>1084</ele>
        <time>2016-05-06T12:53:45Z</time>
      </trkpt>
      <trkpt lat="44.39767" lon="5.83562">
        <ele>1083.1999511719</ele>
        <time>2016-05-06T12:53:49Z</time>
      </trkpt>
      <trkpt lat="44.39767" lon="5.83551">
        <ele>1083.1999511719</ele>
        <time>2016-05-06T12:53:51Z</time>
      </trkpt>
      <trkpt lat="44.39757" lon="5.83521">
        <ele>1083.1999511719</ele>
        <time>2016-05-06T12:53:57Z</time>
      </trkpt>
      <trkpt lat="44.39744" lon="5.83484">
        <ele>1083.1999511719</ele>
        <time>2016-05-06T12:54:05Z</time>
      </trkpt>
      <trkpt lat="44.39745" lon="5.83462">
        <ele>1083.1999511719</ele>
        <time>2016-05-06T12:54:10Z</time>
      </trkpt>
      <trkpt lat="44.3975" lon="5.83441">
        <ele>1083.1999511719</ele>
        <time>2016-05-06T12:54:16Z</time>
      </trkpt>
      <trkpt lat="44.39752" lon="5.83437">
        <ele>1083.8000488281</ele>
        <time>2016-05-06T12:54:17Z</time>
      </trkpt>
      <trkpt lat="44.39757" lon="5.83416">
        <ele>1084.1999511719</ele>
        <time>2016-05-06T12:54:23Z</time>
      </trkpt>
      <trkpt lat="44.39763" lon="5.83399">
        <ele>1085.1999511719</ele>
        <time>2016-05-06T12:54:29Z</time>
      </trkpt>
      <trkpt lat="44.39764" lon="5.83396">
        <ele>1085.1999511719</ele>
        <time>2016-05-06T12:54:30Z</time>
      </trkpt>
      <trkpt lat="44.39771" lon="5.83379">
        <ele>1085.8000488281</ele>
        <time>2016-05-06T12:54:35Z</time>
      </trkpt>
      <trkpt lat="44.39776" lon="5.8337">
        <ele>1085.8000488281</ele>
        <time>2016-05-06T12:54:38Z</time>
      </trkpt>
      <trkpt lat="44.3978" lon="5.83364">
        <ele>1086.1999511719</ele>
        <time>2016-05-06T12:54:40Z</time>
      </trkpt>
      <trkpt lat="44.39789" lon="5.83347">
        <ele>1087</ele>
        <time>2016-05-06T12:54:46Z</time>
      </trkpt>
      <trkpt lat="44.39791" lon="5.83323">
        <ele>1087.8000488281</ele>
        <time>2016-05-06T12:54:52Z</time>
      </trkpt>
      <trkpt lat="44.39791" lon="5.8332">
        <ele>1087.8000488281</ele>
        <time>2016-05-06T12:54:53Z</time>
      </trkpt>
      <trkpt lat="44.39784" lon="5.83291">
        <ele>1087.8000488281</ele>
        <time>2016-05-06T12:55:01Z</time>
      </trkpt>
      <trkpt lat="44.39776" lon="5.83275">
        <ele>1087.8000488281</ele>
        <time>2016-05-06T12:55:06Z</time>
      </trkpt>
      <trkpt lat="44.39773" lon="5.83263">
        <ele>1088.5999755859</ele>
        <time>2016-05-06T12:55:09Z</time>
      </trkpt>
      <trkpt lat="44.39772" lon="5.83253">
        <ele>1088.5999755859</ele>
        <time>2016-05-06T12:55:11Z</time>
      </trkpt>
      <trkpt lat="44.39769" lon="5.83237">
        <ele>1089.4000244141</ele>
        <time>2016-05-06T12:55:16Z</time>
      </trkpt>
      <trkpt lat="44.39767" lon="5.8323">
        <ele>1089.4000244141</ele>
        <time>2016-05-06T12:55:18Z</time>
      </trkpt>
      <trkpt lat="44.39763" lon="5.83213">
        <ele>1089.8000488281</ele>
        <time>2016-05-06T12:55:22Z</time>
      </trkpt>
      <trkpt lat="44.39761" lon="5.83206">
        <ele>1089.8000488281</ele>
        <time>2016-05-06T12:55:24Z</time>
      </trkpt>
      <trkpt lat="44.39756" lon="5.8318">
        <ele>1089.8000488281</ele>
        <time>2016-05-06T12:55:31Z</time>
      </trkpt>
      <trkpt lat="44.39757" lon="5.83156">
        <ele>1089.8000488281</ele>
        <time>2016-05-06T12:55:36Z</time>
      </trkpt>
      <trkpt lat="44.3977" lon="5.83142">
        <ele>1089.8000488281</ele>
        <time>2016-05-06T12:55:41Z</time>
      </trkpt>
      <trkpt lat="44.39775" lon="5.8311">
        <ele>1090.1999511719</ele>
        <time>2016-05-06T12:55:48Z</time>
      </trkpt>
      <trkpt lat="44.39779" lon="5.83106">
        <ele>1090.1999511719</ele>
        <time>2016-05-06T12:55:49Z</time>
      </trkpt>
      <trkpt lat="44.39788" lon="5.83098">
        <ele>1091</ele>
        <time>2016-05-06T12:55:53Z</time>
      </trkpt>
      <trkpt lat="44.39801" lon="5.83094">
        <ele>1091.5999755859</ele>
        <time>2016-05-06T12:55:59Z</time>
      </trkpt>
      <trkpt lat="44.39812" lon="5.8308">
        <ele>1091.5999755859</ele>
        <time>2016-05-06T12:56:04Z</time>
      </trkpt>
      <trkpt lat="44.39813" lon="5.83071">
        <ele>1092</ele>
        <time>2016-05-06T12:56:06Z</time>
      </trkpt>
      <trkpt lat="44.39817" lon="5.83052">
        <ele>1092</ele>
        <time>2016-05-06T12:56:11Z</time>
      </trkpt>
      <trkpt lat="44.39822" lon="5.83019">
        <ele>1092</ele>
        <time>2016-05-06T12:56:19Z</time>
      </trkpt>
      <trkpt lat="44.39822" lon="5.83015">
        <ele>1092</ele>
        <time>2016-05-06T12:56:20Z</time>
      </trkpt>
      <trkpt lat="44.39821" lon="5.82999">
        <ele>1092</ele>
        <time>2016-05-06T12:56:24Z</time>
      </trkpt>
      <trkpt lat="44.39822" lon="5.82993">
        <ele>1092</ele>
        <time>2016-05-06T12:56:28Z</time>
      </trkpt>
      <trkpt lat="44.39822" lon="5.82993">
        <ele>1092.4000244141</ele>
        <time>2016-05-06T12:56:48Z</time>
      </trkpt>
      <trkpt lat="44.39822" lon="5.82993">
        <ele>1092.8000488281</ele>
        <time>2016-05-06T12:56:53Z</time>
      </trkpt>
      <trkpt lat="44.39822" lon="5.82993">
        <ele>1093.1999511719</ele>
        <time>2016-05-06T12:56:54Z</time>
      </trkpt>
      <trkpt lat="44.39822" lon="5.82993">
        <ele>1093.5999755859</ele>
        <time>2016-05-06T12:56:59Z</time>
      </trkpt>
      <trkpt lat="44.39822" lon="5.82993">
        <ele>1094</ele>
        <time>2016-05-06T12:57:05Z</time>
      </trkpt>
      <trkpt lat="44.3982" lon="5.82983">
        <ele>1094</ele>
        <time>2016-05-06T13:00:04Z</time>
      </trkpt>
      <trkpt lat="44.39819" lon="5.82981">
        <ele>1094</ele>
        <time>2016-05-06T13:00:05Z</time>
      </trkpt>
      <trkpt lat="44.39812" lon="5.82972">
        <ele>1094</ele>
        <time>2016-05-06T13:00:09Z</time>
      </trkpt>
      <trkpt lat="44.39802" lon="5.82956">
        <ele>1094</ele>
        <time>2016-05-06T13:00:13Z</time>
      </trkpt>
      <trkpt lat="44.398" lon="5.82949">
        <ele>1094</ele>
        <time>2016-05-06T13:00:14Z</time>
      </trkpt>
      <trkpt lat="44.39801" lon="5.82925">
        <ele>1094</ele>
        <time>2016-05-06T13:00:17Z</time>
      </trkpt>
      <trkpt lat="44.39808" lon="5.82911">
        <ele>1093.4000244141</ele>
        <time>2016-05-06T13:00:19Z</time>
      </trkpt>
      <trkpt lat="44.39812" lon="5.82904">
        <ele>1093.4000244141</ele>
        <time>2016-05-06T13:00:20Z</time>
      </trkpt>
      <trkpt lat="44.39815" lon="5.82896">
        <ele>1093.4000244141</ele>
        <time>2016-05-06T13:00:21Z</time>
      </trkpt>
      <trkpt lat="44.39817" lon="5.82887">
        <ele>1093.4000244141</ele>
        <time>2016-05-06T13:00:22Z</time>
      </trkpt>
      <trkpt lat="44.3982" lon="5.82866">
        <ele>1093</ele>
        <time>2016-05-06T13:00:24Z</time>
      </trkpt>
      <trkpt lat="44.3982" lon="5.82844">
        <ele>1093</ele>
        <time>2016-05-06T13:00:26Z</time>
      </trkpt>
      <trkpt lat="44.39819" lon="5.82821">
        <ele>1093</ele>
        <time>2016-05-06T13:00:28Z</time>
      </trkpt>
      <trkpt lat="44.39818" lon="5.82799">
        <ele>1092</ele>
        <time>2016-05-06T13:00:30Z</time>
      </trkpt>
      <trkpt lat="44.39817" lon="5.82787">
        <ele>1090.5999755859</ele>
        <time>2016-05-06T13:00:31Z</time>
      </trkpt>
      <trkpt lat="44.39815" lon="5.82738">
        <ele>1090.5999755859</ele>
        <time>2016-05-06T13:00:35Z</time>
      </trkpt>
      <trkpt lat="44.39814" lon="5.82726">
        <ele>1089.1999511719</ele>
        <time>2016-05-06T13:00:36Z</time>
      </trkpt>
      <trkpt lat="44.39813" lon="5.82713">
        <ele>1087.8000488281</ele>
        <time>2016-05-06T13:00:37Z</time>
      </trkpt>
      <trkpt lat="44.39804" lon="5.82652">
        <ele>1087.8000488281</ele>
        <time>2016-05-06T13:00:42Z</time>
      </trkpt>
      <trkpt lat="44.39802" lon="5.8264">
        <ele>1086</ele>
        <time>2016-05-06T13:00:43Z</time>
      </trkpt>
      <trkpt lat="44.39795" lon="5.82589">
        <ele>1086</ele>
        <time>2016-05-06T13:00:47Z</time>
      </trkpt>
      <trkpt lat="44.39796" lon="5.82576">
        <ele>1086</ele>
        <time>2016-05-06T13:00:48Z</time>
      </trkpt>
      <trkpt lat="44.39795" lon="5.82564">
        <ele>1084.1999511719</ele>
        <time>2016-05-06T13:00:49Z</time>
      </trkpt>
      <trkpt lat="44.39791" lon="5.82542">
        <ele>1084.1999511719</ele>
        <time>2016-05-06T13:00:51Z</time>
      </trkpt>
      <trkpt lat="44.39787" lon="5.82535">
        <ele>1084.1999511719</ele>
        <time>2016-05-06T13:00:52Z</time>
      </trkpt>
      <trkpt lat="44.39785" lon="5.82517">
        <ele>1082</ele>
        <time>2016-05-06T13:00:54Z</time>
      </trkpt>
      <trkpt lat="44.39791" lon="5.82488">
        <ele>1082</ele>
        <time>2016-05-06T13:00:57Z</time>
      </trkpt>
      <trkpt lat="44.39799" lon="5.82458">
        <ele>1079.5999755859</ele>
        <time>2016-05-06T13:01:00Z</time>
      </trkpt>
      <trkpt lat="44.39799" lon="5.82449">
        <ele>1079.5999755859</ele>
        <time>2016-05-06T13:01:01Z</time>
      </trkpt>
      <trkpt lat="44.39806" lon="5.82392">
        <ele>1077.1999511719</ele>
        <time>2016-05-06T13:01:06Z</time>
      </trkpt>
      <trkpt lat="44.39815" lon="5.82344">
        <ele>1077.1999511719</ele>
        <time>2016-05-06T13:01:10Z</time>
      </trkpt>
      <trkpt lat="44.3982" lon="5.82335">
        <ele>1074.8000488281</ele>
        <time>2016-05-06T13:01:11Z</time>
      </trkpt>
      <trkpt lat="44.39823" lon="5.82327">
        <ele>1072.4000244141</ele>
        <time>2016-05-06T13:01:12Z</time>
      </trkpt>
      <trkpt lat="44.39825" lon="5.82314">
        <ele>1072.4000244141</ele>
        <time>2016-05-06T13:01:14Z</time>
      </trkpt>
      <trkpt lat="44.39818" lon="5.82306">
        <ele>1072.4000244141</ele>
        <time>2016-05-06T13:01:15Z</time>
      </trkpt>
      <trkpt lat="44.39816" lon="5.82298">
        <ele>1072.4000244141</ele>
        <time>2016-05-06T13:01:16Z</time>
      </trkpt>
      <trkpt lat="44.39817" lon="5.82288">
        <ele>1070.1999511719</ele>
        <time>2016-05-06T13:01:17Z</time>
      </trkpt>
      <trkpt lat="44.3982" lon="5.82279">
        <ele>1068</ele>
        <time>2016-05-06T13:01:18Z</time>
      </trkpt>
      <trkpt lat="44.3983" lon="5.82254">
        <ele>1068</ele>
        <time>2016-05-06T13:01:21Z</time>
      </trkpt>
      <trkpt lat="44.39832" lon="5.82244">
        <ele>1068</ele>
        <time>2016-05-06T13:01:22Z</time>
      </trkpt>
      <trkpt lat="44.39833" lon="5.82233">
        <ele>1066.1999511719</ele>
        <time>2016-05-06T13:01:23Z</time>
      </trkpt>
      <trkpt lat="44.39844" lon="5.8219">
        <ele>1066.1999511719</ele>
        <time>2016-05-06T13:01:27Z</time>
      </trkpt>
      <trkpt lat="44.39849" lon="5.82166">
        <ele>1064.4000244141</ele>
        <time>2016-05-06T13:01:29Z</time>
      </trkpt>
      <trkpt lat="44.39851" lon="5.82117">
        <ele>1064.4000244141</ele>
        <time>2016-05-06T13:01:33Z</time>
      </trkpt>
      <trkpt lat="44.39849" lon="5.82108">
        <ele>1062.4000244141</ele>
        <time>2016-05-06T13:01:34Z</time>
      </trkpt>
      <trkpt lat="44.39842" lon="5.82101">
        <ele>1060.4000244141</ele>
        <time>2016-05-06T13:01:35Z</time>
      </trkpt>
      <trkpt lat="44.39838" lon="5.82095">
        <ele>1060.4000244141</ele>
        <time>2016-05-06T13:01:36Z</time>
      </trkpt>
      <trkpt lat="44.39833" lon="5.82091">
        <ele>1060.4000244141</ele>
        <time>2016-05-06T13:01:37Z</time>
      </trkpt>
      <trkpt lat="44.39814" lon="5.82073">
        <ele>1058.4000244141</ele>
        <time>2016-05-06T13:01:40Z</time>
      </trkpt>
      <trkpt lat="44.39808" lon="5.82066">
        <ele>1056.1999511719</ele>
        <time>2016-05-06T13:01:41Z</time>
      </trkpt>
      <trkpt lat="44.39804" lon="5.8206">
        <ele>1056.1999511719</ele>
        <time>2016-05-06T13:01:42Z</time>
      </trkpt>
      <trkpt lat="44.39797" lon="5.82042">
        <ele>1056.1999511719</ele>
        <time>2016-05-06T13:01:44Z</time>
      </trkpt>
      <trkpt lat="44.39795" lon="5.82022">
        <ele>1055</ele>
        <time>2016-05-06T13:01:46Z</time>
      </trkpt>
      <trkpt lat="44.39797" lon="5.82011">
        <ele>1053.5999755859</ele>
        <time>2016-05-06T13:01:47Z</time>
      </trkpt>
      <trkpt lat="44.39809" lon="5.81987">
        <ele>1053.5999755859</ele>
        <time>2016-05-06T13:01:50Z</time>
      </trkpt>
      <trkpt lat="44.39815" lon="5.81979">
        <ele>1053.5999755859</ele>
        <time>2016-05-06T13:01:51Z</time>
      </trkpt>
      <trkpt lat="44.3982" lon="5.81971">
        <ele>1052.4000244141</ele>
        <time>2016-05-06T13:01:52Z</time>
      </trkpt>
      <trkpt lat="44.3984" lon="5.81939">
        <ele>1052.4000244141</ele>
        <time>2016-05-06T13:01:56Z</time>
      </trkpt>
      <trkpt lat="44.39852" lon="5.81923">
        <ele>1051.1999511719</ele>
        <time>2016-05-06T13:01:58Z</time>
      </trkpt>
      <trkpt lat="44.39859" lon="5.81916">
        <ele>1051.1999511719</ele>
        <time>2016-05-06T13:01:59Z</time>
      </trkpt>
      <trkpt lat="44.3987" lon="5.81903">
        <ele>1051.1999511719</ele>
        <time>2016-05-06T13:02:01Z</time>
      </trkpt>
      <trkpt lat="44.39876" lon="5.81886">
        <ele>1050</ele>
        <time>2016-05-06T13:02:03Z</time>
      </trkpt>
      <trkpt lat="44.39878" lon="5.81876">
        <ele>1048.5999755859</ele>
        <time>2016-05-06T13:02:04Z</time>
      </trkpt>
      <trkpt lat="44.39881" lon="5.81854">
        <ele>1048.5999755859</ele>
        <time>2016-05-06T13:02:06Z</time>
      </trkpt>
      <trkpt lat="44.39885" lon="5.8182">
        <ele>1047.1999511719</ele>
        <time>2016-05-06T13:02:09Z</time>
      </trkpt>
      <trkpt lat="44.39886" lon="5.81811">
        <ele>1046</ele>
        <time>2016-05-06T13:02:10Z</time>
      </trkpt>
      <trkpt lat="44.39874" lon="5.81787">
        <ele>1046</ele>
        <time>2016-05-06T13:02:13Z</time>
      </trkpt>
      <trkpt lat="44.39869" lon="5.81779">
        <ele>1046</ele>
        <time>2016-05-06T13:02:14Z</time>
      </trkpt>
      <trkpt lat="44.39865" lon="5.8177">
        <ele>1044.8000488281</ele>
        <time>2016-05-06T13:02:15Z</time>
      </trkpt>
      <trkpt lat="44.39864" lon="5.8176">
        <ele>1044.8000488281</ele>
        <time>2016-05-06T13:02:16Z</time>
      </trkpt>
      <trkpt lat="44.39864" lon="5.8175">
        <ele>1044.8000488281</ele>
        <time>2016-05-06T13:02:17Z</time>
      </trkpt>
      <trkpt lat="44.3987" lon="5.81726">
        <ele>1044.8000488281</ele>
        <time>2016-05-06T13:02:20Z</time>
      </trkpt>
      <trkpt lat="44.39874" lon="5.81718">
        <ele>1043.5999755859</ele>
        <time>2016-05-06T13:02:21Z</time>
      </trkpt>
      <trkpt lat="44.39887" lon="5.81698">
        <ele>1043.5999755859</ele>
        <time>2016-05-06T13:02:24Z</time>
      </trkpt>
      <trkpt lat="44.39897" lon="5.81685">
        <ele>1042.4000244141</ele>
        <time>2016-05-06T13:02:26Z</time>
      </trkpt>
      <trkpt lat="44.39902" lon="5.81678">
        <ele>1041.1999511719</ele>
        <time>2016-05-06T13:02:27Z</time>
      </trkpt>
      <trkpt lat="44.39913" lon="5.81663">
        <ele>1041.1999511719</ele>
        <time>2016-05-06T13:02:29Z</time>
      </trkpt>
      <trkpt lat="44.39932" lon="5.8164">
        <ele>1040.4000244141</ele>
        <time>2016-05-06T13:02:32Z</time>
      </trkpt>
      <trkpt lat="44.39935" lon="5.8163">
        <ele>1039.8000488281</ele>
        <time>2016-05-06T13:02:33Z</time>
      </trkpt>
      <trkpt lat="44.39939" lon="5.81621">
        <ele>1039.8000488281</ele>
        <time>2016-05-06T13:02:34Z</time>
      </trkpt>
      <trkpt lat="44.39949" lon="5.81586">
        <ele>1039.8000488281</ele>
        <time>2016-05-06T13:02:37Z</time>
      </trkpt>
      <trkpt lat="44.39954" lon="5.81577">
        <ele>1039</ele>
        <time>2016-05-06T13:02:38Z</time>
      </trkpt>
      <trkpt lat="44.39977" lon="5.81552">
        <ele>1039</ele>
        <time>2016-05-06T13:02:42Z</time>
      </trkpt>
      <trkpt lat="44.3999" lon="5.81542">
        <ele>1038.4000244141</ele>
        <time>2016-05-06T13:02:44Z</time>
      </trkpt>
      <trkpt lat="44.39997" lon="5.81537">
        <ele>1038.4000244141</ele>
        <time>2016-05-06T13:02:45Z</time>
      </trkpt>
      <trkpt lat="44.40001" lon="5.81529">
        <ele>1038.4000244141</ele>
        <time>2016-05-06T13:02:46Z</time>
      </trkpt>
      <trkpt lat="44.40007" lon="5.81497">
        <ele>1038.4000244141</ele>
        <time>2016-05-06T13:02:49Z</time>
      </trkpt>
      <trkpt lat="44.40008" lon="5.81486">
        <ele>1037.8000488281</ele>
        <time>2016-05-06T13:02:50Z</time>
      </trkpt>
      <trkpt lat="44.40004" lon="5.81441">
        <ele>1037.8000488281</ele>
        <time>2016-05-06T13:02:53Z</time>
      </trkpt>
      <trkpt lat="44.39997" lon="5.81414">
        <ele>1037.8000488281</ele>
        <time>2016-05-06T13:02:55Z</time>
      </trkpt>
      <trkpt lat="44.39999" lon="5.8139">
        <ele>1036</ele>
        <time>2016-05-06T13:02:57Z</time>
      </trkpt>
      <trkpt lat="44.40013" lon="5.81346">
        <ele>1036</ele>
        <time>2016-05-06T13:03:01Z</time>
      </trkpt>
      <trkpt lat="44.40015" lon="5.81333">
        <ele>1036</ele>
        <time>2016-05-06T13:03:02Z</time>
      </trkpt>
      <trkpt lat="44.40016" lon="5.8132">
        <ele>1034.8000488281</ele>
        <time>2016-05-06T13:03:03Z</time>
      </trkpt>
      <trkpt lat="44.40015" lon="5.81307">
        <ele>1034.8000488281</ele>
        <time>2016-05-06T13:03:04Z</time>
      </trkpt>
      <trkpt lat="44.40009" lon="5.81266">
        <ele>1034.8000488281</ele>
        <time>2016-05-06T13:03:07Z</time>
      </trkpt>
      <trkpt lat="44.40007" lon="5.81253">
        <ele>1034.8000488281</ele>
        <time>2016-05-06T13:03:08Z</time>
      </trkpt>
      <trkpt lat="44.40001" lon="5.81226">
        <ele>1034.8000488281</ele>
        <time>2016-05-06T13:03:10Z</time>
      </trkpt>
      <trkpt lat="44.40001" lon="5.81198">
        <ele>1034.8000488281</ele>
        <time>2016-05-06T13:03:12Z</time>
      </trkpt>
      <trkpt lat="44.40002" lon="5.81171">
        <ele>1033.1999511719</ele>
        <time>2016-05-06T13:03:14Z</time>
      </trkpt>
      <trkpt lat="44.40004" lon="5.81159">
        <ele>1031.4000244141</ele>
        <time>2016-05-06T13:03:15Z</time>
      </trkpt>
      <trkpt lat="44.40006" lon="5.81147">
        <ele>1031.4000244141</ele>
        <time>2016-05-06T13:03:16Z</time>
      </trkpt>
      <trkpt lat="44.40016" lon="5.81102">
        <ele>1029.5999755859</ele>
        <time>2016-05-06T13:03:20Z</time>
      </trkpt>
      <trkpt lat="44.40018" lon="5.81092">
        <ele>1029.5999755859</ele>
        <time>2016-05-06T13:03:21Z</time>
      </trkpt>
      <trkpt lat="44.40031" lon="5.81042">
        <ele>1029.5999755859</ele>
        <time>2016-05-06T13:03:26Z</time>
      </trkpt>
      <trkpt lat="44.40034" lon="5.81033">
        <ele>1027.8000488281</ele>
        <time>2016-05-06T13:03:27Z</time>
      </trkpt>
      <trkpt lat="44.40035" lon="5.80988">
        <ele>1027.8000488281</ele>
        <time>2016-05-06T13:03:32Z</time>
      </trkpt>
      <trkpt lat="44.40034" lon="5.80979">
        <ele>1026</ele>
        <time>2016-05-06T13:03:33Z</time>
      </trkpt>
      <trkpt lat="44.40027" lon="5.80963">
        <ele>1026</ele>
        <time>2016-05-06T13:03:35Z</time>
      </trkpt>
      <trkpt lat="44.40024" lon="5.80956">
        <ele>1026</ele>
        <time>2016-05-06T13:03:36Z</time>
      </trkpt>
      <trkpt lat="44.40015" lon="5.80933">
        <ele>1024.1999511719</ele>
        <time>2016-05-06T13:03:39Z</time>
      </trkpt>
      <trkpt lat="44.40012" lon="5.80917">
        <ele>1024.1999511719</ele>
        <time>2016-05-06T13:03:41Z</time>
      </trkpt>
      <trkpt lat="44.40017" lon="5.80886">
        <ele>1024.1999511719</ele>
        <time>2016-05-06T13:03:45Z</time>
      </trkpt>
      <trkpt lat="44.40023" lon="5.80873">
        <ele>1024.1999511719</ele>
        <time>2016-05-06T13:03:47Z</time>
      </trkpt>
      <trkpt lat="44.40029" lon="5.80844">
        <ele>1024.1999511719</ele>
        <time>2016-05-06T13:03:51Z</time>
      </trkpt>
      <trkpt lat="44.40034" lon="5.80799">
        <ele>1024.1999511719</ele>
        <time>2016-05-06T13:03:57Z</time>
      </trkpt>
      <trkpt lat="44.40047" lon="5.80775">
        <ele>1024.1999511719</ele>
        <time>2016-05-06T13:04:01Z</time>
      </trkpt>
      <trkpt lat="44.4005" lon="5.80762">
        <ele>1024.1999511719</ele>
        <time>2016-05-06T13:04:03Z</time>
      </trkpt>
      <trkpt lat="44.40059" lon="5.80711">
        <ele>1024.1999511719</ele>
        <time>2016-05-06T13:04:10Z</time>
      </trkpt>
      <trkpt lat="44.40066" lon="5.80647">
        <ele>1024.5999755859</ele>
        <time>2016-05-06T13:04:19Z</time>
      </trkpt>
      <trkpt lat="44.40066" lon="5.8064">
        <ele>1024.5999755859</ele>
        <time>2016-05-06T13:04:20Z</time>
      </trkpt>
      <trkpt lat="44.40061" lon="5.8062">
        <ele>1024.5999755859</ele>
        <time>2016-05-06T13:04:23Z</time>
      </trkpt>
      <trkpt lat="44.40055" lon="5.80607">
        <ele>1025</ele>
        <time>2016-05-06T13:04:25Z</time>
      </trkpt>
      <trkpt lat="44.4005" lon="5.80579">
        <ele>1025</ele>
        <time>2016-05-06T13:04:29Z</time>
      </trkpt>
      <trkpt lat="44.4005" lon="5.80573">
        <ele>1025.8000488281</ele>
        <time>2016-05-06T13:04:30Z</time>
      </trkpt>
      <trkpt lat="44.40051" lon="5.80567">
        <ele>1025.8000488281</ele>
        <time>2016-05-06T13:04:31Z</time>
      </trkpt>
      <trkpt lat="44.40052" lon="5.80555">
        <ele>1025.8000488281</ele>
        <time>2016-05-06T13:04:33Z</time>
      </trkpt>
      <trkpt lat="44.40051" lon="5.80549">
        <ele>1025.8000488281</ele>
        <time>2016-05-06T13:04:34Z</time>
      </trkpt>
      <trkpt lat="44.4005" lon="5.80536">
        <ele>1026.1999511719</ele>
        <time>2016-05-06T13:04:36Z</time>
      </trkpt>
      <trkpt lat="44.40049" lon="5.80524">
        <ele>1026.1999511719</ele>
        <time>2016-05-06T13:04:38Z</time>
      </trkpt>
      <trkpt lat="44.40041" lon="5.80479">
        <ele>1026.1999511719</ele>
        <time>2016-05-06T13:04:46Z</time>
      </trkpt>
      <trkpt lat="44.40042" lon="5.80473">
        <ele>1026.1999511719</ele>
        <time>2016-05-06T13:04:47Z</time>
      </trkpt>
      <trkpt lat="44.40045" lon="5.80438">
        <ele>1026.1999511719</ele>
        <time>2016-05-06T13:04:53Z</time>
      </trkpt>
      <trkpt lat="44.40044" lon="5.80432">
        <ele>1026.8000488281</ele>
        <time>2016-05-06T13:04:54Z</time>
      </trkpt>
      <trkpt lat="44.40041" lon="5.80399">
        <ele>1027.8000488281</ele>
        <time>2016-05-06T13:04:59Z</time>
      </trkpt>
      <trkpt lat="44.40039" lon="5.80365">
        <ele>1028.8000488281</ele>
        <time>2016-05-06T13:05:05Z</time>
      </trkpt>
      <trkpt lat="44.40038" lon="5.8036">
        <ele>1028.8000488281</ele>
        <time>2016-05-06T13:05:06Z</time>
      </trkpt>
      <trkpt lat="44.40034" lon="5.80343">
        <ele>1028.8000488281</ele>
        <time>2016-05-06T13:05:09Z</time>
      </trkpt>
      <trkpt lat="44.40031" lon="5.80332">
        <ele>1028.8000488281</ele>
        <time>2016-05-06T13:05:11Z</time>
      </trkpt>
      <trkpt lat="44.40018" lon="5.80297">
        <ele>1028.8000488281</ele>
        <time>2016-05-06T13:05:18Z</time>
      </trkpt>
      <trkpt lat="44.40006" lon="5.80262">
        <ele>1028.8000488281</ele>
        <time>2016-05-06T13:05:24Z</time>
      </trkpt>
      <trkpt lat="44.39998" lon="5.80238">
        <ele>1028.8000488281</ele>
        <time>2016-05-06T13:05:27Z</time>
      </trkpt>
      <trkpt lat="44.39996" lon="5.80227">
        <ele>1028.8000488281</ele>
        <time>2016-05-06T13:05:28Z</time>
      </trkpt>
      <trkpt lat="44.39992" lon="5.80208">
        <ele>1028.8000488281</ele>
        <time>2016-05-06T13:05:30Z</time>
      </trkpt>
      <trkpt lat="44.39985" lon="5.80179">
        <ele>1028.8000488281</ele>
        <time>2016-05-06T13:05:33Z</time>
      </trkpt>
      <trkpt lat="44.39986" lon="5.80145">
        <ele>1028.8000488281</ele>
        <time>2016-05-06T13:05:36Z</time>
      </trkpt>
      <trkpt lat="44.39988" lon="5.80135">
        <ele>1028.8000488281</ele>
        <time>2016-05-06T13:05:37Z</time>
      </trkpt>
      <trkpt lat="44.39984" lon="5.80107">
        <ele>1028</ele>
        <time>2016-05-06T13:05:40Z</time>
      </trkpt>
      <trkpt lat="44.39974" lon="5.80088">
        <ele>1028</ele>
        <time>2016-05-06T13:05:42Z</time>
      </trkpt>
      <trkpt lat="44.39963" lon="5.80067">
        <ele>1028</ele>
        <time>2016-05-06T13:05:44Z</time>
      </trkpt>
      <trkpt lat="44.39952" lon="5.80046">
        <ele>1026.8000488281</ele>
        <time>2016-05-06T13:05:46Z</time>
      </trkpt>
      <trkpt lat="44.39944" lon="5.80036">
        <ele>1026.8000488281</ele>
        <time>2016-05-06T13:05:47Z</time>
      </trkpt>
      <trkpt lat="44.39937" lon="5.80026">
        <ele>1026.8000488281</ele>
        <time>2016-05-06T13:05:48Z</time>
      </trkpt>
      <trkpt lat="44.39912" lon="5.79999">
        <ele>1026.8000488281</ele>
        <time>2016-05-06T13:05:51Z</time>
      </trkpt>
      <trkpt lat="44.39903" lon="5.79989">
        <ele>1022.5999755859</ele>
        <time>2016-05-06T13:05:52Z</time>
      </trkpt>
      <trkpt lat="44.39859" lon="5.79938">
        <ele>1022.5999755859</ele>
        <time>2016-05-06T13:05:57Z</time>
      </trkpt>
      <trkpt lat="44.39849" lon="5.79929">
        <ele>1017.200012207</ele>
        <time>2016-05-06T13:05:58Z</time>
      </trkpt>
      <trkpt lat="44.39808" lon="5.7989">
        <ele>1017.200012207</ele>
        <time>2016-05-06T13:06:02Z</time>
      </trkpt>
      <trkpt lat="44.39786" lon="5.79874">
        <ele>1014</ele>
        <time>2016-05-06T13:06:04Z</time>
      </trkpt>
      <trkpt lat="44.39766" lon="5.79861">
        <ele>1014</ele>
        <time>2016-05-06T13:06:06Z</time>
      </trkpt>
      <trkpt lat="44.3974" lon="5.79846">
        <ele>1010.4000244141</ele>
        <time>2016-05-06T13:06:09Z</time>
      </trkpt>
      <trkpt lat="44.39731" lon="5.79841">
        <ele>1010.4000244141</ele>
        <time>2016-05-06T13:06:10Z</time>
      </trkpt>
      <trkpt lat="44.39685" lon="5.79823">
        <ele>1001.799987793</ele>
        <time>2016-05-06T13:06:15Z</time>
      </trkpt>
      <trkpt lat="44.39664" lon="5.79814">
        <ele>1001.799987793</ele>
        <time>2016-05-06T13:06:17Z</time>
      </trkpt>
      <trkpt lat="44.39621" lon="5.79791">
        <ele>993.40002441406</ele>
        <time>2016-05-06T13:06:21Z</time>
      </trkpt>
      <trkpt lat="44.39582" lon="5.79781">
        <ele>993.40002441406</ele>
        <time>2016-05-06T13:06:25Z</time>
      </trkpt>
      <trkpt lat="44.39563" lon="5.7978">
        <ele>989.40002441406</ele>
        <time>2016-05-06T13:06:27Z</time>
      </trkpt>
      <trkpt lat="44.39543" lon="5.79783">
        <ele>989.40002441406</ele>
        <time>2016-05-06T13:06:29Z</time>
      </trkpt>
      <trkpt lat="44.39512" lon="5.79784">
        <ele>981.40002441406</ele>
        <time>2016-05-06T13:06:32Z</time>
      </trkpt>
      <trkpt lat="44.39494" lon="5.79783">
        <ele>981.40002441406</ele>
        <time>2016-05-06T13:06:34Z</time>
      </trkpt>
      <trkpt lat="44.39465" lon="5.79785">
        <ele>973.79998779297</ele>
        <time>2016-05-06T13:06:38Z</time>
      </trkpt>
      <trkpt lat="44.39452" lon="5.79783">
        <ele>973.79998779297</ele>
        <time>2016-05-06T13:06:41Z</time>
      </trkpt>
      <trkpt lat="44.39453" lon="5.79772">
        <ele>973.79998779297</ele>
        <time>2016-05-06T13:06:43Z</time>
      </trkpt>
      <trkpt lat="44.39456" lon="5.79768">
        <ele>966.79998779297</ele>
        <time>2016-05-06T13:06:44Z</time>
      </trkpt>
      <trkpt lat="44.39467" lon="5.79763">
        <ele>966.79998779297</ele>
        <time>2016-05-06T13:06:47Z</time>
      </trkpt>
      <trkpt lat="44.39479" lon="5.79761">
        <ele>966.79998779297</ele>
        <time>2016-05-06T13:06:49Z</time>
      </trkpt>
      <trkpt lat="44.39485" lon="5.79759">
        <ele>964.20001220703</ele>
        <time>2016-05-06T13:06:50Z</time>
      </trkpt>
      <trkpt lat="44.39508" lon="5.79753">
        <ele>964.20001220703</ele>
        <time>2016-05-06T13:06:53Z</time>
      </trkpt>
      <trkpt lat="44.39533" lon="5.79742">
        <ele>961.59997558594</ele>
        <time>2016-05-06T13:06:56Z</time>
      </trkpt>
      <trkpt lat="44.39551" lon="5.79732">
        <ele>961.59997558594</ele>
        <time>2016-05-06T13:06:58Z</time>
      </trkpt>
      <trkpt lat="44.3957" lon="5.79725">
        <ele>961.59997558594</ele>
        <time>2016-05-06T13:07:00Z</time>
      </trkpt>
      <trkpt lat="44.3958" lon="5.79722">
        <ele>959</ele>
        <time>2016-05-06T13:07:01Z</time>
      </trkpt>
      <trkpt lat="44.3959" lon="5.79721">
        <ele>959</ele>
        <time>2016-05-06T13:07:02Z</time>
      </trkpt>
      <trkpt lat="44.3965" lon="5.7971">
        <ele>956</ele>
        <time>2016-05-06T13:07:08Z</time>
      </trkpt>
      <trkpt lat="44.397" lon="5.79696">
        <ele>952.59997558594</ele>
        <time>2016-05-06T13:07:13Z</time>
      </trkpt>
      <trkpt lat="44.39711" lon="5.79697">
        <ele>952.59997558594</ele>
        <time>2016-05-06T13:07:14Z</time>
      </trkpt>
      <trkpt lat="44.39768" lon="5.79693">
        <ele>945.40002441406</ele>
        <time>2016-05-06T13:07:19Z</time>
      </trkpt>
      <trkpt lat="44.39779" lon="5.79692">
        <ele>945.40002441406</ele>
        <time>2016-05-06T13:07:20Z</time>
      </trkpt>
      <trkpt lat="44.39837" lon="5.79689">
        <ele>938.59997558594</ele>
        <time>2016-05-06T13:07:25Z</time>
      </trkpt>
      <trkpt lat="44.39883" lon="5.79677">
        <ele>938.59997558594</ele>
        <time>2016-05-06T13:07:29Z</time>
      </trkpt>
      <trkpt lat="44.39902" lon="5.79669">
        <ele>935.20001220703</ele>
        <time>2016-05-06T13:07:31Z</time>
      </trkpt>
      <trkpt lat="44.39911" lon="5.79662">
        <ele>935.20001220703</ele>
        <time>2016-05-06T13:07:32Z</time>
      </trkpt>
      <trkpt lat="44.39918" lon="5.79654">
        <ele>935.20001220703</ele>
        <time>2016-05-06T13:07:33Z</time>
      </trkpt>
      <trkpt lat="44.39927" lon="5.79631">
        <ele>935.20001220703</ele>
        <time>2016-05-06T13:07:35Z</time>
      </trkpt>
      <trkpt lat="44.39931" lon="5.79608">
        <ele>931.59997558594</ele>
        <time>2016-05-06T13:07:37Z</time>
      </trkpt>
      <trkpt lat="44.39936" lon="5.79583">
        <ele>931.59997558594</ele>
        <time>2016-05-06T13:07:39Z</time>
      </trkpt>
      <trkpt lat="44.39943" lon="5.79545">
        <ele>924.40002441406</ele>
        <time>2016-05-06T13:07:42Z</time>
      </trkpt>
      <trkpt lat="44.39952" lon="5.79505">
        <ele>924.40002441406</ele>
        <time>2016-05-06T13:07:45Z</time>
      </trkpt>
      <trkpt lat="44.39962" lon="5.79475">
        <ele>917.79998779297</ele>
        <time>2016-05-06T13:07:48Z</time>
      </trkpt>
      <trkpt lat="44.39969" lon="5.7946">
        <ele>917.79998779297</ele>
        <time>2016-05-06T13:07:51Z</time>
      </trkpt>
      <trkpt lat="44.39972" lon="5.79454">
        <ele>917.79998779297</ele>
        <time>2016-05-06T13:07:53Z</time>
      </trkpt>
      <trkpt lat="44.39973" lon="5.79451">
        <ele>913</ele>
        <time>2016-05-06T13:07:55Z</time>
      </trkpt>
      <trkpt lat="44.39972" lon="5.7945">
        <ele>913</ele>
        <time>2016-05-06T13:07:56Z</time>
      </trkpt>
      <trkpt lat="44.39971" lon="5.79445">
        <ele>913</ele>
        <time>2016-05-06T13:10:06Z</time>
      </trkpt>
      <trkpt lat="44.39971" lon="5.79445">
        <ele>910.59997558594</ele>
        <time>2016-05-06T13:11:13Z</time>
      </trkpt>
      <trkpt lat="44.39971" lon="5.79446">
        <ele>908</ele>
        <time>2016-05-06T13:12:34Z</time>
      </trkpt>
      <trkpt lat="44.3997" lon="5.79449">
        <ele>905.59997558594</ele>
        <time>2016-05-06T13:14:24Z</time>
      </trkpt>
      <trkpt lat="44.39965" lon="5.79464">
        <ele>905.59997558594</ele>
        <time>2016-05-06T13:20:01Z</time>
      </trkpt>
      <trkpt lat="44.39962" lon="5.79471">
        <ele>905.59997558594</ele>
        <time>2016-05-06T13:20:04Z</time>
      </trkpt>
      <trkpt lat="44.39957" lon="5.79476">
        <ele>905.59997558594</ele>
        <time>2016-05-06T13:20:07Z</time>
      </trkpt>
      <trkpt lat="44.3994" lon="5.79484">
        <ele>905.59997558594</ele>
        <time>2016-05-06T13:20:13Z</time>
      </trkpt>
      <trkpt lat="44.39918" lon="5.79499">
        <ele>905.59997558594</ele>
        <time>2016-05-06T13:20:18Z</time>
      </trkpt>
      <trkpt lat="44.39904" lon="5.79509">
        <ele>905.59997558594</ele>
        <time>2016-05-06T13:20:20Z</time>
      </trkpt>
      <trkpt lat="44.3989" lon="5.79518">
        <ele>905.59997558594</ele>
        <time>2016-05-06T13:20:22Z</time>
      </trkpt>
      <trkpt lat="44.39865" lon="5.79535">
        <ele>905.59997558594</ele>
        <time>2016-05-06T13:20:26Z</time>
      </trkpt>
      <trkpt lat="44.39851" lon="5.79547">
        <ele>905.59997558594</ele>
        <time>2016-05-06T13:20:29Z</time>
      </trkpt>
      <trkpt lat="44.39809" lon="5.79581">
        <ele>905.59997558594</ele>
        <time>2016-05-06T13:20:36Z</time>
      </trkpt>
      <trkpt lat="44.39804" lon="5.79584">
        <ele>905.59997558594</ele>
        <time>2016-05-06T13:20:37Z</time>
      </trkpt>
      <trkpt lat="44.39789" lon="5.79587">
        <ele>905.59997558594</ele>
        <time>2016-05-06T13:20:40Z</time>
      </trkpt>
      <trkpt lat="44.3977" lon="5.79579">
        <ele>905.59997558594</ele>
        <time>2016-05-06T13:20:44Z</time>
      </trkpt>
      <trkpt lat="44.39737" lon="5.79559">
        <ele>905.59997558594</ele>
        <time>2016-05-06T13:20:50Z</time>
      </trkpt>
      <trkpt lat="44.39713" lon="5.79543">
        <ele>905.59997558594</ele>
        <time>2016-05-06T13:20:53Z</time>
      </trkpt>
      <trkpt lat="44.39698" lon="5.79534">
        <ele>905.59997558594</ele>
        <time>2016-05-06T13:20:55Z</time>
      </trkpt>
      <trkpt lat="44.39682" lon="5.79533">
        <ele>905.59997558594</ele>
        <time>2016-05-06T13:20:57Z</time>
      </trkpt>
      <trkpt lat="44.39666" lon="5.79538">
        <ele>905.59997558594</ele>
        <time>2016-05-06T13:20:59Z</time>
      </trkpt>
      <trkpt lat="44.3965" lon="5.79541">
        <ele>905.59997558594</ele>
        <time>2016-05-06T13:21:01Z</time>
      </trkpt>
      <trkpt lat="44.39622" lon="5.79549">
        <ele>905.59997558594</ele>
        <time>2016-05-06T13:21:04Z</time>
      </trkpt>
      <trkpt lat="44.39602" lon="5.79557">
        <ele>905.59997558594</ele>
        <time>2016-05-06T13:21:07Z</time>
      </trkpt>
      <trkpt lat="44.39577" lon="5.79561">
        <ele>905.59997558594</ele>
        <time>2016-05-06T13:21:11Z</time>
      </trkpt>
      <trkpt lat="44.3957" lon="5.79562">
        <ele>905.59997558594</ele>
        <time>2016-05-06T13:21:12Z</time>
      </trkpt>
      <trkpt lat="44.39539" lon="5.79573">
        <ele>905.59997558594</ele>
        <time>2016-05-06T13:21:17Z</time>
      </trkpt>
      <trkpt lat="44.39518" lon="5.79578">
        <ele>905.59997558594</ele>
        <time>2016-05-06T13:21:20Z</time>
      </trkpt>
      <trkpt lat="44.39502" lon="5.79578">
        <ele>905.59997558594</ele>
        <time>2016-05-06T13:21:22Z</time>
      </trkpt>
      <trkpt lat="44.39467" lon="5.79586">
        <ele>905.59997558594</ele>
        <time>2016-05-06T13:21:26Z</time>
      </trkpt>
      <trkpt lat="44.39444" lon="5.79589">
        <ele>905.59997558594</ele>
        <time>2016-05-06T13:21:29Z</time>
      </trkpt>
      <trkpt lat="44.39436" lon="5.79589">
        <ele>905.59997558594</ele>
        <time>2016-05-06T13:21:30Z</time>
      </trkpt>
      <trkpt lat="44.39428" lon="5.79589">
        <ele>904</ele>
        <time>2016-05-06T13:21:31Z</time>
      </trkpt>
      <trkpt lat="44.39399" lon="5.79593">
        <ele>904</ele>
        <time>2016-05-06T13:21:34Z</time>
      </trkpt>
      <trkpt lat="44.39368" lon="5.79593">
        <ele>896.59997558594</ele>
        <time>2016-05-06T13:21:37Z</time>
      </trkpt>
      <trkpt lat="44.39339" lon="5.79594">
        <ele>896.59997558594</ele>
        <time>2016-05-06T13:21:40Z</time>
      </trkpt>
      <trkpt lat="44.39319" lon="5.79592">
        <ele>892.59997558594</ele>
        <time>2016-05-06T13:21:42Z</time>
      </trkpt>
      <trkpt lat="44.39309" lon="5.7959">
        <ele>888.59997558594</ele>
        <time>2016-05-06T13:21:43Z</time>
      </trkpt>
      <trkpt lat="44.39288" lon="5.79585">
        <ele>888.59997558594</ele>
        <time>2016-05-06T13:21:45Z</time>
      </trkpt>
      <trkpt lat="44.39262" lon="5.79586">
        <ele>885.40002441406</ele>
        <time>2016-05-06T13:21:48Z</time>
      </trkpt>
      <trkpt lat="44.39254" lon="5.79588">
        <ele>882</ele>
        <time>2016-05-06T13:21:49Z</time>
      </trkpt>
      <trkpt lat="44.39236" lon="5.79595">
        <ele>882</ele>
        <time>2016-05-06T13:21:51Z</time>
      </trkpt>
      <trkpt lat="44.39221" lon="5.79604">
        <ele>882</ele>
        <time>2016-05-06T13:21:53Z</time>
      </trkpt>
      <trkpt lat="44.39214" lon="5.79608">
        <ele>879</ele>
        <time>2016-05-06T13:21:54Z</time>
      </trkpt>
      <trkpt lat="44.39188" lon="5.79619">
        <ele>879</ele>
        <time>2016-05-06T13:21:58Z</time>
      </trkpt>
      <trkpt lat="44.39183" lon="5.79621">
        <ele>879</ele>
        <time>2016-05-06T13:21:59Z</time>
      </trkpt>
      <trkpt lat="44.39178" lon="5.79623">
        <ele>875.40002441406</ele>
        <time>2016-05-06T13:22:00Z</time>
      </trkpt>
      <trkpt lat="44.39173" lon="5.79624">
        <ele>875.40002441406</ele>
        <time>2016-05-06T13:22:01Z</time>
      </trkpt>
      <trkpt lat="44.39169" lon="5.79625">
        <ele>875.40002441406</ele>
        <time>2016-05-06T13:22:02Z</time>
      </trkpt>
      <trkpt lat="44.39158" lon="5.79627">
        <ele>875.40002441406</ele>
        <time>2016-05-06T13:22:04Z</time>
      </trkpt>
      <trkpt lat="44.39153" lon="5.79629">
        <ele>871.20001220703</ele>
        <time>2016-05-06T13:22:05Z</time>
      </trkpt>
      <trkpt lat="44.39149" lon="5.79629">
        <ele>866.79998779297</ele>
        <time>2016-05-06T13:22:06Z</time>
      </trkpt>
      <trkpt lat="44.39141" lon="5.7963">
        <ele>866.79998779297</ele>
        <time>2016-05-06T13:22:08Z</time>
      </trkpt>
      <trkpt lat="44.3913" lon="5.79631">
        <ele>862.59997558594</ele>
        <time>2016-05-06T13:22:11Z</time>
      </trkpt>
      <trkpt lat="44.39125" lon="5.79631">
        <ele>858.59997558594</ele>
        <time>2016-05-06T13:22:12Z</time>
      </trkpt>
      <trkpt lat="44.39114" lon="5.79632">
        <ele>858.59997558594</ele>
        <time>2016-05-06T13:22:15Z</time>
      </trkpt>
      <trkpt lat="44.39107" lon="5.79634">
        <ele>854.59997558594</ele>
        <time>2016-05-06T13:22:17Z</time>
      </trkpt>
      <trkpt lat="44.39099" lon="5.79638">
        <ele>854.59997558594</ele>
        <time>2016-05-06T13:22:20Z</time>
      </trkpt>
      <trkpt lat="44.39095" lon="5.79643">
        <ele>847.40002441406</ele>
        <time>2016-05-06T13:22:23Z</time>
      </trkpt>
      <trkpt lat="44.39091" lon="5.79645">
        <ele>847.40002441406</ele>
        <time>2016-05-06T13:22:25Z</time>
      </trkpt>
      <trkpt lat="44.39087" lon="5.79644">
        <ele>844</ele>
        <time>2016-05-06T13:22:28Z</time>
      </trkpt>
      <trkpt lat="44.39087" lon="5.79643">
        <ele>840.40002441406</ele>
        <time>2016-05-06T13:22:29Z</time>
      </trkpt>
      <trkpt lat="44.39087" lon="5.79644">
        <ele>840.40002441406</ele>
        <time>2016-05-06T13:22:31Z</time>
      </trkpt>
      <trkpt lat="44.39087" lon="5.79645">
        <ele>838.59997558594</ele>
        <time>2016-05-06T13:22:34Z</time>
      </trkpt>
      <trkpt lat="44.39087" lon="5.79645">
        <ele>835</ele>
        <time>2016-05-06T13:22:40Z</time>
      </trkpt>
      <trkpt lat="44.39087" lon="5.79645">
        <ele>831.40002441406</ele>
        <time>2016-05-06T13:22:46Z</time>
      </trkpt>
      <trkpt lat="44.39086" lon="5.79645">
        <ele>831.40002441406</ele>
        <time>2016-05-06T13:22:56Z</time>
      </trkpt>
      <trkpt lat="44.39086" lon="5.79645">
        <ele>830.79998779297</ele>
        <time>2016-05-06T13:23:20Z</time>
      </trkpt>
      <trkpt lat="44.39086" lon="5.79645">
        <ele>830.40002441406</ele>
        <time>2016-05-06T13:23:26Z</time>
      </trkpt>
      <trkpt lat="44.39085" lon="5.79644">
        <ele>830.40002441406</ele>
        <time>2016-05-06T13:23:29Z</time>
      </trkpt>
      <trkpt lat="44.39084" lon="5.79644">
        <ele>829.59997558594</ele>
        <time>2016-05-06T13:23:31Z</time>
      </trkpt>
      <trkpt lat="44.39084" lon="5.79644">
        <ele>829</ele>
        <time>2016-05-06T13:23:32Z</time>
      </trkpt>
      <trkpt lat="44.39084" lon="5.79644">
        <ele>828.20001220703</ele>
        <time>2016-05-06T13:23:37Z</time>
      </trkpt>
      <trkpt lat="44.39079" lon="5.79641">
        <ele>827.40002441406</ele>
        <time>2016-05-06T13:23:49Z</time>
      </trkpt>
      <trkpt lat="44.39063" lon="5.79634">
        <ele>826.79998779297</ele>
        <time>2016-05-06T13:23:54Z</time>
      </trkpt>
      <trkpt lat="44.39059" lon="5.79632">
        <ele>826</ele>
        <time>2016-05-06T13:23:55Z</time>
      </trkpt>
      <trkpt lat="44.3903" lon="5.79613">
        <ele>825</ele>
        <time>2016-05-06T13:24:00Z</time>
      </trkpt>
      <trkpt lat="44.39018" lon="5.7959">
        <ele>825</ele>
        <time>2016-05-06T13:24:04Z</time>
      </trkpt>
      <trkpt lat="44.39016" lon="5.79585">
        <ele>825</ele>
        <time>2016-05-06T13:24:05Z</time>
      </trkpt>
      <trkpt lat="44.39015" lon="5.79581">
        <ele>823.79998779297</ele>
        <time>2016-05-06T13:24:06Z</time>
      </trkpt>
      <trkpt lat="44.39009" lon="5.79563">
        <ele>823.79998779297</ele>
        <time>2016-05-06T13:24:10Z</time>
      </trkpt>
      <trkpt lat="44.39007" lon="5.79553">
        <ele>821.40002441406</ele>
        <time>2016-05-06T13:24:12Z</time>
      </trkpt>
      <trkpt lat="44.39006" lon="5.79538">
        <ele>821.40002441406</ele>
        <time>2016-05-06T13:24:15Z</time>
      </trkpt>
      <trkpt lat="44.39006" lon="5.79529">
        <ele>820.20001220703</ele>
        <time>2016-05-06T13:24:17Z</time>
      </trkpt>
      <trkpt lat="44.39007" lon="5.79526">
        <ele>819</ele>
        <time>2016-05-06T13:24:18Z</time>
      </trkpt>
      <trkpt lat="44.39005" lon="5.7952">
        <ele>819</ele>
        <time>2016-05-06T13:24:20Z</time>
      </trkpt>
      <trkpt lat="44.39" lon="5.79514">
        <ele>818</ele>
        <time>2016-05-06T13:24:23Z</time>
      </trkpt>
      <trkpt lat="44.38999" lon="5.79514">
        <ele>818</ele>
        <time>2016-05-06T13:24:24Z</time>
      </trkpt>
      <trkpt lat="44.38999" lon="5.79509">
        <ele>815.59997558594</ele>
        <time>2016-05-06T13:24:29Z</time>
      </trkpt>
      <trkpt lat="44.38998" lon="5.79492">
        <ele>815.59997558594</ele>
        <time>2016-05-06T13:24:35Z</time>
      </trkpt>
      <trkpt lat="44.38995" lon="5.79471">
        <ele>815.59997558594</ele>
        <time>2016-05-06T13:24:41Z</time>
      </trkpt>
      <trkpt lat="44.38991" lon="5.79464">
        <ele>815.59997558594</ele>
        <time>2016-05-06T13:24:46Z</time>
      </trkpt>
      <trkpt lat="44.38988" lon="5.79459">
        <ele>815.59997558594</ele>
        <time>2016-05-06T13:24:49Z</time>
      </trkpt>
      <trkpt lat="44.38987" lon="5.7945">
        <ele>815.59997558594</ele>
        <time>2016-05-06T13:24:54Z</time>
      </trkpt>
      <trkpt lat="44.38985" lon="5.7944">
        <ele>815</ele>
        <time>2016-05-06T13:24:57Z</time>
      </trkpt>
      <trkpt lat="44.38983" lon="5.79437">
        <ele>814.40002441406</ele>
        <time>2016-05-06T13:24:58Z</time>
      </trkpt>
      <trkpt lat="44.3898" lon="5.79434">
        <ele>814.40002441406</ele>
        <time>2016-05-06T13:24:59Z</time>
      </trkpt>
      <trkpt lat="44.38975" lon="5.79431">
        <ele>813.79998779297</ele>
        <time>2016-05-06T13:25:03Z</time>
      </trkpt>
      <trkpt lat="44.38969" lon="5.79426">
        <ele>813.20001220703</ele>
        <time>2016-05-06T13:25:09Z</time>
      </trkpt>
      <trkpt lat="44.38968" lon="5.79425">
        <ele>812.59997558594</ele>
        <time>2016-05-06T13:25:15Z</time>
      </trkpt>
      <trkpt lat="44.38967" lon="5.79424">
        <ele>812.59997558594</ele>
        <time>2016-05-06T13:25:16Z</time>
      </trkpt>
      <trkpt lat="44.38966" lon="5.79422">
        <ele>813</ele>
        <time>2016-05-06T13:25:20Z</time>
      </trkpt>
      <trkpt lat="44.38966" lon="5.79422">
        <ele>813.40002441406</ele>
        <time>2016-05-06T13:25:21Z</time>
      </trkpt>
      <trkpt lat="44.38965" lon="5.7942">
        <ele>813.79998779297</ele>
        <time>2016-05-06T13:25:26Z</time>
      </trkpt>
      <trkpt lat="44.38964" lon="5.7942">
        <ele>813.79998779297</ele>
        <time>2016-05-06T13:25:29Z</time>
      </trkpt>
      <trkpt lat="44.38964" lon="5.79419">
        <ele>814.79998779297</ele>
        <time>2016-05-06T13:25:32Z</time>
      </trkpt>
      <trkpt lat="44.38962" lon="5.79416">
        <ele>815.59997558594</ele>
        <time>2016-05-06T13:25:38Z</time>
      </trkpt>
      <trkpt lat="44.38961" lon="5.79414">
        <ele>816.20001220703</ele>
        <time>2016-05-06T13:25:43Z</time>
      </trkpt>
      <trkpt lat="44.38961" lon="5.79414">
        <ele>816.59997558594</ele>
        <time>2016-05-06T13:25:44Z</time>
      </trkpt>
      <trkpt lat="44.38961" lon="5.79414">
        <ele>817.20001220703</ele>
        <time>2016-05-06T13:25:49Z</time>
      </trkpt>
      <trkpt lat="44.3896" lon="5.79413">
        <ele>818.20001220703</ele>
        <time>2016-05-06T13:25:55Z</time>
      </trkpt>
      <trkpt lat="44.38957" lon="5.7941">
        <ele>818.59997558594</ele>
        <time>2016-05-06T13:26:02Z</time>
      </trkpt>
      <trkpt lat="44.38952" lon="5.79408">
        <ele>820</ele>
        <time>2016-05-06T13:26:08Z</time>
      </trkpt>
      <trkpt lat="44.3895" lon="5.79406">
        <ele>820.59997558594</ele>
        <time>2016-05-06T13:26:14Z</time>
      </trkpt>
      <trkpt lat="44.3895" lon="5.79406">
        <ele>821.20001220703</ele>
        <time>2016-05-06T13:26:15Z</time>
      </trkpt>
      <trkpt lat="44.38946" lon="5.79404">
        <ele>821.79998779297</ele>
        <time>2016-05-06T13:26:20Z</time>
      </trkpt>
      <trkpt lat="44.38945" lon="5.79404">
        <ele>821.79998779297</ele>
        <time>2016-05-06T13:26:22Z</time>
      </trkpt>
      <trkpt lat="44.38943" lon="5.79406">
        <ele>822.40002441406</ele>
        <time>2016-05-06T13:26:26Z</time>
      </trkpt>
      <trkpt lat="44.38937" lon="5.79409">
        <ele>823.40002441406</ele>
        <time>2016-05-06T13:26:37Z</time>
      </trkpt>
      <trkpt lat="44.38935" lon="5.79409">
        <ele>824.59997558594</ele>
        <time>2016-05-06T13:26:39Z</time>
      </trkpt>
      <trkpt lat="44.38932" lon="5.79412">
        <ele>825.20001220703</ele>
        <time>2016-05-06T13:26:45Z</time>
      </trkpt>
      <trkpt lat="44.38929" lon="5.79414">
        <ele>826.40002441406</ele>
        <time>2016-05-06T13:26:51Z</time>
      </trkpt>
      <trkpt lat="44.38927" lon="5.79415">
        <ele>826.40002441406</ele>
        <time>2016-05-06T13:26:55Z</time>
      </trkpt>
      <trkpt lat="44.38927" lon="5.79416">
        <ele>827</ele>
        <time>2016-05-06T13:26:56Z</time>
      </trkpt>
      <trkpt lat="44.38923" lon="5.79414">
        <ele>827.79998779297</ele>
        <time>2016-05-06T13:27:02Z</time>
      </trkpt>
      <trkpt lat="44.38921" lon="5.79414">
        <ele>828.40002441406</ele>
        <time>2016-05-06T13:27:08Z</time>
      </trkpt>
      <trkpt lat="44.38921" lon="5.79413">
        <ele>828.40002441406</ele>
        <time>2016-05-06T13:27:09Z</time>
      </trkpt>
      <trkpt lat="44.38919" lon="5.79413">
        <ele>829.59997558594</ele>
        <time>2016-05-06T13:27:14Z</time>
      </trkpt>
      <trkpt lat="44.38914" lon="5.79409">
        <ele>830.79998779297</ele>
        <time>2016-05-06T13:27:20Z</time>
      </trkpt>
      <trkpt lat="44.38912" lon="5.79405">
        <ele>830.79998779297</ele>
        <time>2016-05-06T13:27:24Z</time>
      </trkpt>
      <trkpt lat="44.3891" lon="5.79403">
        <ele>832</ele>
        <time>2016-05-06T13:27:26Z</time>
      </trkpt>
      <trkpt lat="44.38908" lon="5.794">
        <ele>832.79998779297</ele>
        <time>2016-05-06T13:27:31Z</time>
      </trkpt>
      <trkpt lat="44.38908" lon="5.794">
        <ele>832.79998779297</ele>
        <time>2016-05-06T13:27:32Z</time>
      </trkpt>
      <trkpt lat="44.38908" lon="5.79396">
        <ele>833.40002441406</ele>
        <time>2016-05-06T13:27:37Z</time>
      </trkpt>
      <trkpt lat="44.38907" lon="5.79392">
        <ele>834.79998779297</ele>
        <time>2016-05-06T13:27:43Z</time>
      </trkpt>
      <trkpt lat="44.38905" lon="5.79389">
        <ele>836.40002441406</ele>
        <time>2016-05-06T13:27:49Z</time>
      </trkpt>
      <trkpt lat="44.38904" lon="5.79388">
        <ele>836.40002441406</ele>
        <time>2016-05-06T13:27:50Z</time>
      </trkpt>
      <trkpt lat="44.38902" lon="5.79382">
        <ele>837</ele>
        <time>2016-05-06T13:27:55Z</time>
      </trkpt>
      <trkpt lat="44.38897" lon="5.79378">
        <ele>837.59997558594</ele>
        <time>2016-05-06T13:28:00Z</time>
      </trkpt>
      <trkpt lat="44.38896" lon="5.79373">
        <ele>837.59997558594</ele>
        <time>2016-05-06T13:28:04Z</time>
      </trkpt>
      <trkpt lat="44.38896" lon="5.7937">
        <ele>838</ele>
        <time>2016-05-06T13:28:06Z</time>
      </trkpt>
      <trkpt lat="44.38894" lon="5.79363">
        <ele>839</ele>
        <time>2016-05-06T13:28:12Z</time>
      </trkpt>
      <trkpt lat="44.38894" lon="5.79356">
        <ele>840.20001220703</ele>
        <time>2016-05-06T13:28:18Z</time>
      </trkpt>
      <trkpt lat="44.38897" lon="5.79344">
        <ele>840.79998779297</ele>
        <time>2016-05-06T13:28:29Z</time>
      </trkpt>
      <trkpt lat="44.38897" lon="5.79341">
        <ele>840.79998779297</ele>
        <time>2016-05-06T13:28:31Z</time>
      </trkpt>
      <trkpt lat="44.38898" lon="5.79339">
        <ele>841.40002441406</ele>
        <time>2016-05-06T13:28:35Z</time>
      </trkpt>
      <trkpt lat="44.38899" lon="5.79331">
        <ele>841.40002441406</ele>
        <time>2016-05-06T13:28:43Z</time>
      </trkpt>
      <trkpt lat="44.38901" lon="5.79326">
        <ele>842.79998779297</ele>
        <time>2016-05-06T13:28:47Z</time>
      </trkpt>
      <trkpt lat="44.38901" lon="5.79325">
        <ele>843.59997558594</ele>
        <time>2016-05-06T13:28:48Z</time>
      </trkpt>
      <trkpt lat="44.38901" lon="5.79324">
        <ele>844.40002441406</ele>
        <time>2016-05-06T13:28:49Z</time>
      </trkpt>
      <trkpt lat="44.38902" lon="5.79323">
        <ele>845.20001220703</ele>
        <time>2016-05-06T13:28:50Z</time>
      </trkpt>
      <trkpt lat="44.38902" lon="5.79318">
        <ele>845.20001220703</ele>
        <time>2016-05-06T13:28:54Z</time>
      </trkpt>
      <trkpt lat="44.38904" lon="5.79312">
        <ele>846.79998779297</ele>
        <time>2016-05-06T13:29:02Z</time>
      </trkpt>
      <trkpt lat="44.38906" lon="5.79307">
        <ele>847.79998779297</ele>
        <time>2016-05-06T13:29:08Z</time>
      </trkpt>
      <trkpt lat="44.38906" lon="5.79306">
        <ele>847.79998779297</ele>
        <time>2016-05-06T13:29:09Z</time>
      </trkpt>
      <trkpt lat="44.38906" lon="5.79302">
        <ele>848.20001220703</ele>
        <time>2016-05-06T13:29:13Z</time>
      </trkpt>
      <trkpt lat="44.38908" lon="5.79297">
        <ele>848.59997558594</ele>
        <time>2016-05-06T13:29:19Z</time>
      </trkpt>
      <trkpt lat="44.38916" lon="5.79286">
        <ele>848.59997558594</ele>
        <time>2016-05-06T13:29:23Z</time>
      </trkpt>
      <trkpt lat="44.38919" lon="5.79282">
        <ele>849.20001220703</ele>
        <time>2016-05-06T13:29:25Z</time>
      </trkpt>
      <trkpt lat="44.38914" lon="5.79273">
        <ele>849.20001220703</ele>
        <time>2016-05-06T13:29:29Z</time>
      </trkpt>
      <trkpt lat="44.38898" lon="5.79265">
        <ele>849.20001220703</ele>
        <time>2016-05-06T13:29:33Z</time>
      </trkpt>
      <trkpt lat="44.38894" lon="5.79262">
        <ele>849.20001220703</ele>
        <time>2016-05-06T13:29:34Z</time>
      </trkpt>
      <trkpt lat="44.38879" lon="5.79252">
        <ele>848</ele>
        <time>2016-05-06T13:29:37Z</time>
      </trkpt>
      <trkpt lat="44.38874" lon="5.79248">
        <ele>848</ele>
        <time>2016-05-06T13:29:38Z</time>
      </trkpt>
      <trkpt lat="44.38855" lon="5.79231">
        <ele>846.79998779297</ele>
        <time>2016-05-06T13:29:42Z</time>
      </trkpt>
      <trkpt lat="44.38852" lon="5.79226">
        <ele>846.79998779297</ele>
        <time>2016-05-06T13:29:43Z</time>
      </trkpt>
      <trkpt lat="44.38847" lon="5.7922">
        <ele>846.79998779297</ele>
        <time>2016-05-06T13:29:44Z</time>
      </trkpt>
      <trkpt lat="44.38835" lon="5.79198">
        <ele>845.20001220703</ele>
        <time>2016-05-06T13:29:48Z</time>
      </trkpt>
      <trkpt lat="44.38829" lon="5.79183">
        <ele>845.20001220703</ele>
        <time>2016-05-06T13:29:51Z</time>
      </trkpt>
      <trkpt lat="44.38815" lon="5.79183">
        <ele>843.20001220703</ele>
        <time>2016-05-06T13:29:55Z</time>
      </trkpt>
      <trkpt lat="44.38811" lon="5.79187">
        <ele>843.20001220703</ele>
        <time>2016-05-06T13:29:56Z</time>
      </trkpt>
      <trkpt lat="44.38802" lon="5.79205">
        <ele>843.20001220703</ele>
        <time>2016-05-06T13:30:00Z</time>
      </trkpt>
      <trkpt lat="44.388" lon="5.7921">
        <ele>838.20001220703</ele>
        <time>2016-05-06T13:30:01Z</time>
      </trkpt>
      <trkpt lat="44.38798" lon="5.79221">
        <ele>838.20001220703</ele>
        <time>2016-05-06T13:30:03Z</time>
      </trkpt>
      <trkpt lat="44.38797" lon="5.79228">
        <ele>838.20001220703</ele>
        <time>2016-05-06T13:30:05Z</time>
      </trkpt>
      <trkpt lat="44.38796" lon="5.79234">
        <ele>833.79998779297</ele>
        <time>2016-05-06T13:30:07Z</time>
      </trkpt>
      <trkpt lat="44.38795" lon="5.7924">
        <ele>833.79998779297</ele>
        <time>2016-05-06T13:30:09Z</time>
      </trkpt>
      <trkpt lat="44.38792" lon="5.79244">
        <ele>831.79998779297</ele>
        <time>2016-05-06T13:30:12Z</time>
      </trkpt>
      <trkpt lat="44.38787" lon="5.79239">
        <ele>831.79998779297</ele>
        <time>2016-05-06T13:30:14Z</time>
      </trkpt>
      <trkpt lat="44.38784" lon="5.7923">
        <ele>830</ele>
        <time>2016-05-06T13:30:18Z</time>
      </trkpt>
      <trkpt lat="44.38785" lon="5.79221">
        <ele>830</ele>
        <time>2016-05-06T13:30:21Z</time>
      </trkpt>
      <trkpt lat="44.38786" lon="5.79208">
        <ele>826</ele>
        <time>2016-05-06T13:30:24Z</time>
      </trkpt>
      <trkpt lat="44.38786" lon="5.79201">
        <ele>826</ele>
        <time>2016-05-06T13:30:26Z</time>
      </trkpt>
      <trkpt lat="44.38787" lon="5.79183">
        <ele>822.40002441406</ele>
        <time>2016-05-06T13:30:30Z</time>
      </trkpt>
      <trkpt lat="44.38789" lon="5.79171">
        <ele>822.40002441406</ele>
        <time>2016-05-06T13:30:33Z</time>
      </trkpt>
      <trkpt lat="44.38792" lon="5.79164">
        <ele>820.79998779297</ele>
        <time>2016-05-06T13:30:35Z</time>
      </trkpt>
      <trkpt lat="44.38789" lon="5.79153">
        <ele>820.79998779297</ele>
        <time>2016-05-06T13:30:38Z</time>
      </trkpt>
      <trkpt lat="44.38778" lon="5.79146">
        <ele>819.20001220703</ele>
        <time>2016-05-06T13:30:41Z</time>
      </trkpt>
      <trkpt lat="44.38776" lon="5.79145">
        <ele>819.20001220703</ele>
        <time>2016-05-06T13:30:43Z</time>
      </trkpt>
      <trkpt lat="44.38771" lon="5.79144">
        <ele>817.59997558594</ele>
        <time>2016-05-06T13:30:47Z</time>
      </trkpt>
      <trkpt lat="44.3877" lon="5.79142">
        <ele>817.59997558594</ele>
        <time>2016-05-06T13:30:48Z</time>
      </trkpt>
      <trkpt lat="44.38769" lon="5.79142">
        <ele>814.40002441406</ele>
        <time>2016-05-06T13:30:53Z</time>
      </trkpt>
      <trkpt lat="44.38769" lon="5.79142">
        <ele>814.40002441406</ele>
        <time>2016-05-06T13:30:55Z</time>
      </trkpt>
      <trkpt lat="44.38767" lon="5.79142">
        <ele>811.20001220703</ele>
        <time>2016-05-06T13:30:59Z</time>
      </trkpt>
      <trkpt lat="44.38767" lon="5.7914">
        <ele>809.79998779297</ele>
        <time>2016-05-06T13:31:04Z</time>
      </trkpt>
      <trkpt lat="44.38771" lon="5.79128">
        <ele>808.79998779297</ele>
        <time>2016-05-06T13:31:11Z</time>
      </trkpt>
      <trkpt lat="44.38774" lon="5.79125">
        <ele>808.79998779297</ele>
        <time>2016-05-06T13:31:12Z</time>
      </trkpt>
      <trkpt lat="44.38779" lon="5.79122">
        <ele>808.79998779297</ele>
        <time>2016-05-06T13:31:14Z</time>
      </trkpt>
      <trkpt lat="44.38783" lon="5.79118">
        <ele>807.79998779297</ele>
        <time>2016-05-06T13:31:16Z</time>
      </trkpt>
      <trkpt lat="44.38789" lon="5.79099">
        <ele>807.79998779297</ele>
        <time>2016-05-06T13:31:20Z</time>
      </trkpt>
      <trkpt lat="44.38795" lon="5.79084">
        <ele>804.79998779297</ele>
        <time>2016-05-06T13:31:22Z</time>
      </trkpt>
      <trkpt lat="44.38804" lon="5.7907">
        <ele>804.79998779297</ele>
        <time>2016-05-06T13:31:24Z</time>
      </trkpt>
      <trkpt lat="44.38812" lon="5.79055">
        <ele>804.79998779297</ele>
        <time>2016-05-06T13:31:27Z</time>
      </trkpt>
      <trkpt lat="44.38815" lon="5.79051">
        <ele>801.20001220703</ele>
        <time>2016-05-06T13:31:29Z</time>
      </trkpt>
      <trkpt lat="44.38813" lon="5.79048">
        <ele>801.20001220703</ele>
        <time>2016-05-06T13:31:30Z</time>
      </trkpt>
      <trkpt lat="44.38798" lon="5.7903">
        <ele>801.20001220703</ele>
        <time>2016-05-06T13:31:34Z</time>
      </trkpt>
      <trkpt lat="44.38796" lon="5.79025">
        <ele>797.40002441406</ele>
        <time>2016-05-06T13:31:35Z</time>
      </trkpt>
      <trkpt lat="44.38795" lon="5.79004">
        <ele>797.40002441406</ele>
        <time>2016-05-06T13:31:39Z</time>
      </trkpt>
      <trkpt lat="44.38794" lon="5.78989">
        <ele>793.20001220703</ele>
        <time>2016-05-06T13:31:41Z</time>
      </trkpt>
      <trkpt lat="44.38798" lon="5.78982">
        <ele>793.20001220703</ele>
        <time>2016-05-06T13:31:42Z</time>
      </trkpt>
      <trkpt lat="44.38799" lon="5.78974">
        <ele>793.20001220703</ele>
        <time>2016-05-06T13:31:43Z</time>
      </trkpt>
      <trkpt lat="44.38811" lon="5.78956">
        <ele>791.40002441406</ele>
        <time>2016-05-06T13:31:47Z</time>
      </trkpt>
      <trkpt lat="44.38826" lon="5.78946">
        <ele>789.40002441406</ele>
        <time>2016-05-06T13:31:52Z</time>
      </trkpt>
      <trkpt lat="44.38838" lon="5.78931">
        <ele>785.20001220703</ele>
        <time>2016-05-06T13:31:58Z</time>
      </trkpt>
      <trkpt lat="44.3884" lon="5.78909">
        <ele>781.79998779297</ele>
        <time>2016-05-06T13:32:04Z</time>
      </trkpt>
      <trkpt lat="44.38839" lon="5.78892">
        <ele>781.79998779297</ele>
        <time>2016-05-06T13:32:08Z</time>
      </trkpt>
      <trkpt lat="44.38838" lon="5.78887">
        <ele>781.79998779297</ele>
        <time>2016-05-06T13:32:09Z</time>
      </trkpt>
      <trkpt lat="44.38836" lon="5.78881">
        <ele>778.79998779297</ele>
        <time>2016-05-06T13:32:10Z</time>
      </trkpt>
      <trkpt lat="44.38829" lon="5.78863">
        <ele>778.79998779297</ele>
        <time>2016-05-06T13:32:14Z</time>
      </trkpt>
      <trkpt lat="44.38825" lon="5.78858">
        <ele>777.59997558594</ele>
        <time>2016-05-06T13:32:15Z</time>
      </trkpt>
      <trkpt lat="44.388" lon="5.7884">
        <ele>777.59997558594</ele>
        <time>2016-05-06T13:32:19Z</time>
      </trkpt>
      <trkpt lat="44.38792" lon="5.78834">
        <ele>776.40002441406</ele>
        <time>2016-05-06T13:32:21Z</time>
      </trkpt>
      <trkpt lat="44.38776" lon="5.78826">
        <ele>776.40002441406</ele>
        <time>2016-05-06T13:32:23Z</time>
      </trkpt>
      <trkpt lat="44.38762" lon="5.78813">
        <ele>775.59997558594</ele>
        <time>2016-05-06T13:32:27Z</time>
      </trkpt>
      <trkpt lat="44.38754" lon="5.78807">
        <ele>775.59997558594</ele>
        <time>2016-05-06T13:32:29Z</time>
      </trkpt>
      <trkpt lat="44.38751" lon="5.78795">
        <ele>775.59997558594</ele>
        <time>2016-05-06T13:32:32Z</time>
      </trkpt>
      <trkpt lat="44.38751" lon="5.78787">
        <ele>773.59997558594</ele>
        <time>2016-05-06T13:32:33Z</time>
      </trkpt>
      <trkpt lat="44.38752" lon="5.78779">
        <ele>773.59997558594</ele>
        <time>2016-05-06T13:32:34Z</time>
      </trkpt>
      <trkpt lat="44.38753" lon="5.78755">
        <ele>773.59997558594</ele>
        <time>2016-05-06T13:32:37Z</time>
      </trkpt>
      <trkpt lat="44.38754" lon="5.78746">
        <ele>772.59997558594</ele>
        <time>2016-05-06T13:32:38Z</time>
      </trkpt>
      <trkpt lat="44.3875" lon="5.78729">
        <ele>772.59997558594</ele>
        <time>2016-05-06T13:32:40Z</time>
      </trkpt>
      <trkpt lat="44.38744" lon="5.78717">
        <ele>772.59997558594</ele>
        <time>2016-05-06T13:32:42Z</time>
      </trkpt>
      <trkpt lat="44.38738" lon="5.78708">
        <ele>771.79998779297</ele>
        <time>2016-05-06T13:32:44Z</time>
      </trkpt>
      <trkpt lat="44.38732" lon="5.78703">
        <ele>771.79998779297</ele>
        <time>2016-05-06T13:32:46Z</time>
      </trkpt>
      <trkpt lat="44.38729" lon="5.787">
        <ele>771.79998779297</ele>
        <time>2016-05-06T13:32:47Z</time>
      </trkpt>
      <trkpt lat="44.38721" lon="5.78692">
        <ele>769.20001220703</ele>
        <time>2016-05-06T13:32:50Z</time>
      </trkpt>
      <trkpt lat="44.38711" lon="5.78685">
        <ele>769.20001220703</ele>
        <time>2016-05-06T13:32:53Z</time>
      </trkpt>
      <trkpt lat="44.38696" lon="5.78673">
        <ele>766.79998779297</ele>
        <time>2016-05-06T13:32:56Z</time>
      </trkpt>
      <trkpt lat="44.38691" lon="5.78663">
        <ele>766.79998779297</ele>
        <time>2016-05-06T13:32:58Z</time>
      </trkpt>
      <trkpt lat="44.38689" lon="5.78645">
        <ele>765.59997558594</ele>
        <time>2016-05-06T13:33:01Z</time>
      </trkpt>
      <trkpt lat="44.3869" lon="5.7864">
        <ele>765.59997558594</ele>
        <time>2016-05-06T13:33:02Z</time>
      </trkpt>
      <trkpt lat="44.3869" lon="5.78635">
        <ele>765.59997558594</ele>
        <time>2016-05-06T13:33:03Z</time>
      </trkpt>
      <trkpt lat="44.38692" lon="5.78624">
        <ele>765.59997558594</ele>
        <time>2016-05-06T13:33:05Z</time>
      </trkpt>
      <trkpt lat="44.38696" lon="5.78614">
        <ele>764.40002441406</ele>
        <time>2016-05-06T13:33:07Z</time>
      </trkpt>
      <trkpt lat="44.38694" lon="5.78608">
        <ele>764.40002441406</ele>
        <time>2016-05-06T13:33:08Z</time>
      </trkpt>
      <trkpt lat="44.38683" lon="5.78578">
        <ele>762.79998779297</ele>
        <time>2016-05-06T13:33:13Z</time>
      </trkpt>
      <trkpt lat="44.38665" lon="5.78542">
        <ele>762.79998779297</ele>
        <time>2016-05-06T13:33:18Z</time>
      </trkpt>
      <trkpt lat="44.38661" lon="5.78535">
        <ele>761.20001220703</ele>
        <time>2016-05-06T13:33:19Z</time>
      </trkpt>
      <trkpt lat="44.38646" lon="5.78491">
        <ele>760.40002441406</ele>
        <time>2016-05-06T13:33:25Z</time>
      </trkpt>
      <trkpt lat="44.38642" lon="5.78483">
        <ele>760.40002441406</ele>
        <time>2016-05-06T13:33:26Z</time>
      </trkpt>
      <trkpt lat="44.38631" lon="5.78464">
        <ele>760.40002441406</ele>
        <time>2016-05-06T13:33:29Z</time>
      </trkpt>
      <trkpt lat="44.38626" lon="5.7846">
        <ele>759</ele>
        <time>2016-05-06T13:33:30Z</time>
      </trkpt>
      <trkpt lat="44.38624" lon="5.78454">
        <ele>759</ele>
        <time>2016-05-06T13:33:31Z</time>
      </trkpt>
      <trkpt lat="44.38621" lon="5.78442">
        <ele>759</ele>
        <time>2016-05-06T13:33:33Z</time>
      </trkpt>
      <trkpt lat="44.3862" lon="5.78429">
        <ele>759</ele>
        <time>2016-05-06T13:33:35Z</time>
      </trkpt>
      <trkpt lat="44.38618" lon="5.78419">
        <ele>757.40002441406</ele>
        <time>2016-05-06T13:33:37Z</time>
      </trkpt>
      <trkpt lat="44.38613" lon="5.78406">
        <ele>757.40002441406</ele>
        <time>2016-05-06T13:33:41Z</time>
      </trkpt>
      <trkpt lat="44.3861" lon="5.78404">
        <ele>757.40002441406</ele>
        <time>2016-05-06T13:33:42Z</time>
      </trkpt>
      <trkpt lat="44.38609" lon="5.78401">
        <ele>756.59997558594</ele>
        <time>2016-05-06T13:33:43Z</time>
      </trkpt>
      <trkpt lat="44.38597" lon="5.78384">
        <ele>756.59997558594</ele>
        <time>2016-05-06T13:33:47Z</time>
      </trkpt>
      <trkpt lat="44.38591" lon="5.78374">
        <ele>755.79998779297</ele>
        <time>2016-05-06T13:33:49Z</time>
      </trkpt>
      <trkpt lat="44.38586" lon="5.7837">
        <ele>754.79998779297</ele>
        <time>2016-05-06T13:33:50Z</time>
      </trkpt>
      <trkpt lat="44.38574" lon="5.78354">
        <ele>754.79998779297</ele>
        <time>2016-05-06T13:33:53Z</time>
      </trkpt>
      <trkpt lat="44.3856" lon="5.78337">
        <ele>753</ele>
        <time>2016-05-06T13:33:57Z</time>
      </trkpt>
      <trkpt lat="44.38557" lon="5.78333">
        <ele>753</ele>
        <time>2016-05-06T13:33:58Z</time>
      </trkpt>
      <trkpt lat="44.38547" lon="5.78319">
        <ele>753</ele>
        <time>2016-05-06T13:34:01Z</time>
      </trkpt>
      <trkpt lat="44.38541" lon="5.78309">
        <ele>751.20001220703</ele>
        <time>2016-05-06T13:34:03Z</time>
      </trkpt>
      <trkpt lat="44.38539" lon="5.78305">
        <ele>751.20001220703</ele>
        <time>2016-05-06T13:34:04Z</time>
      </trkpt>
      <trkpt lat="44.3852" lon="5.7827">
        <ele>751.20001220703</ele>
        <time>2016-05-06T13:34:11Z</time>
      </trkpt>
      <trkpt lat="44.38497" lon="5.78226">
        <ele>751.20001220703</ele>
        <time>2016-05-06T13:34:19Z</time>
      </trkpt>
      <trkpt lat="44.38493" lon="5.78214">
        <ele>751.20001220703</ele>
        <time>2016-05-06T13:34:21Z</time>
      </trkpt>
      <trkpt lat="44.38487" lon="5.78196">
        <ele>751.20001220703</ele>
        <time>2016-05-06T13:34:24Z</time>
      </trkpt>
      <trkpt lat="44.38479" lon="5.78168">
        <ele>751.20001220703</ele>
        <time>2016-05-06T13:34:29Z</time>
      </trkpt>
      <trkpt lat="44.38477" lon="5.78162">
        <ele>751.20001220703</ele>
        <time>2016-05-06T13:34:30Z</time>
      </trkpt>
      <trkpt lat="44.38466" lon="5.78127">
        <ele>751.20001220703</ele>
        <time>2016-05-06T13:34:37Z</time>
      </trkpt>
      <trkpt lat="44.38465" lon="5.78106">
        <ele>751.20001220703</ele>
        <time>2016-05-06T13:34:42Z</time>
      </trkpt>
      <trkpt lat="44.38465" lon="5.78101">
        <ele>752.20001220703</ele>
        <time>2016-05-06T13:34:43Z</time>
      </trkpt>
      <trkpt lat="44.38459" lon="5.78077">
        <ele>753.20001220703</ele>
        <time>2016-05-06T13:34:49Z</time>
      </trkpt>
      <trkpt lat="44.38457" lon="5.78074">
        <ele>753.20001220703</ele>
        <time>2016-05-06T13:34:50Z</time>
      </trkpt>
      <trkpt lat="44.38448" lon="5.78055">
        <ele>753.79998779297</ele>
        <time>2016-05-06T13:34:55Z</time>
      </trkpt>
      <trkpt lat="44.3844" lon="5.78038">
        <ele>753.79998779297</ele>
        <time>2016-05-06T13:34:59Z</time>
      </trkpt>
      <trkpt lat="44.38435" lon="5.78031">
        <ele>754.20001220703</ele>
        <time>2016-05-06T13:35:01Z</time>
      </trkpt>
      <trkpt lat="44.38427" lon="5.78021">
        <ele>754.20001220703</ele>
        <time>2016-05-06T13:35:04Z</time>
      </trkpt>
      <trkpt lat="44.3842" lon="5.78008">
        <ele>754.59997558594</ele>
        <time>2016-05-06T13:35:07Z</time>
      </trkpt>
      <trkpt lat="44.38416" lon="5.77993">
        <ele>754.59997558594</ele>
        <time>2016-05-06T13:35:10Z</time>
      </trkpt>
      <trkpt lat="44.38414" lon="5.7798">
        <ele>755.40002441406</ele>
        <time>2016-05-06T13:35:12Z</time>
      </trkpt>
      <trkpt lat="44.38412" lon="5.77954">
        <ele>755.40002441406</ele>
        <time>2016-05-06T13:35:15Z</time>
      </trkpt>
      <trkpt lat="44.38409" lon="5.77929">
        <ele>755.40002441406</ele>
        <time>2016-05-06T13:35:18Z</time>
      </trkpt>
      <trkpt lat="44.38408" lon="5.77908">
        <ele>755.40002441406</ele>
        <time>2016-05-06T13:35:21Z</time>
      </trkpt>
      <trkpt lat="44.38407" lon="5.77887">
        <ele>754.59997558594</ele>
        <time>2016-05-06T13:35:24Z</time>
      </trkpt>
      <trkpt lat="44.38403" lon="5.77851">
        <ele>754.59997558594</ele>
        <time>2016-05-06T13:35:29Z</time>
      </trkpt>
      <trkpt lat="44.38402" lon="5.77844">
        <ele>754.20001220703</ele>
        <time>2016-05-06T13:35:30Z</time>
      </trkpt>
      <trkpt lat="44.38397" lon="5.77826">
        <ele>754.20001220703</ele>
        <time>2016-05-06T13:35:33Z</time>
      </trkpt>
      <trkpt lat="44.38394" lon="5.77814">
        <ele>753.59997558594</ele>
        <time>2016-05-06T13:35:35Z</time>
      </trkpt>
      <trkpt lat="44.38395" lon="5.77773">
        <ele>753.59997558594</ele>
        <time>2016-05-06T13:35:42Z</time>
      </trkpt>
      <trkpt lat="44.38398" lon="5.7774">
        <ele>753.59997558594</ele>
        <time>2016-05-06T13:35:50Z</time>
      </trkpt>
      <trkpt lat="44.38404" lon="5.77718">
        <ele>753.59997558594</ele>
        <time>2016-05-06T13:35:56Z</time>
      </trkpt>
      <trkpt lat="44.38407" lon="5.77692">
        <ele>753.59997558594</ele>
        <time>2016-05-06T13:36:01Z</time>
      </trkpt>
      <trkpt lat="44.38406" lon="5.77686">
        <ele>753.59997558594</ele>
        <time>2016-05-06T13:36:02Z</time>
      </trkpt>
      <trkpt lat="44.38401" lon="5.77664">
        <ele>753.59997558594</ele>
        <time>2016-05-06T13:36:06Z</time>
      </trkpt>
      <trkpt lat="44.38396" lon="5.77632">
        <ele>753.59997558594</ele>
        <time>2016-05-06T13:36:12Z</time>
      </trkpt>
      <trkpt lat="44.38387" lon="5.77597">
        <ele>753.59997558594</ele>
        <time>2016-05-06T13:36:19Z</time>
      </trkpt>
      <trkpt lat="44.38375" lon="5.77569">
        <ele>753.59997558594</ele>
        <time>2016-05-06T13:36:25Z</time>
      </trkpt>
      <trkpt lat="44.38369" lon="5.77554">
        <ele>754</ele>
        <time>2016-05-06T13:36:28Z</time>
      </trkpt>
      <trkpt lat="44.38361" lon="5.77532">
        <ele>754</ele>
        <time>2016-05-06T13:36:32Z</time>
      </trkpt>
      <trkpt lat="44.38359" lon="5.77526">
        <ele>755</ele>
        <time>2016-05-06T13:36:33Z</time>
      </trkpt>
      <trkpt lat="44.38358" lon="5.77509">
        <ele>755</ele>
        <time>2016-05-06T13:36:36Z</time>
      </trkpt>
      <trkpt lat="44.38358" lon="5.77505">
        <ele>755</ele>
        <time>2016-05-06T13:36:37Z</time>
      </trkpt>
      <trkpt lat="44.38357" lon="5.77499">
        <ele>755.79998779297</ele>
        <time>2016-05-06T13:36:39Z</time>
      </trkpt>
      <trkpt lat="44.38356" lon="5.77496">
        <ele>755.79998779297</ele>
        <time>2016-05-06T13:36:40Z</time>
      </trkpt>
      <trkpt lat="44.38351" lon="5.77473">
        <ele>755.79998779297</ele>
        <time>2016-05-06T13:36:45Z</time>
      </trkpt>
      <trkpt lat="44.38338" lon="5.77456">
        <ele>755.79998779297</ele>
        <time>2016-05-06T13:36:50Z</time>
      </trkpt>
      <trkpt lat="44.38323" lon="5.7744">
        <ele>755.79998779297</ele>
        <time>2016-05-06T13:36:54Z</time>
      </trkpt>
      <trkpt lat="44.38314" lon="5.77411">
        <ele>755.79998779297</ele>
        <time>2016-05-06T13:37:00Z</time>
      </trkpt>
      <trkpt lat="44.38303" lon="5.77377">
        <ele>755.79998779297</ele>
        <time>2016-05-06T13:37:07Z</time>
      </trkpt>
      <trkpt lat="44.38297" lon="5.77336">
        <ele>755.79998779297</ele>
        <time>2016-05-06T13:37:14Z</time>
      </trkpt>
      <trkpt lat="44.38292" lon="5.77313">
        <ele>755.79998779297</ele>
        <time>2016-05-06T13:37:18Z</time>
      </trkpt>
      <trkpt lat="44.38287" lon="5.77303">
        <ele>755.79998779297</ele>
        <time>2016-05-06T13:37:20Z</time>
      </trkpt>
      <trkpt lat="44.3828" lon="5.77286">
        <ele>755.79998779297</ele>
        <time>2016-05-06T13:37:23Z</time>
      </trkpt>
      <trkpt lat="44.38279" lon="5.77274">
        <ele>755.79998779297</ele>
        <time>2016-05-06T13:37:25Z</time>
      </trkpt>
      <trkpt lat="44.38272" lon="5.77264">
        <ele>755.79998779297</ele>
        <time>2016-05-06T13:37:27Z</time>
      </trkpt>
      <trkpt lat="44.38268" lon="5.7726">
        <ele>755.79998779297</ele>
        <time>2016-05-06T13:37:28Z</time>
      </trkpt>
      <trkpt lat="44.38257" lon="5.77232">
        <ele>755.79998779297</ele>
        <time>2016-05-06T13:37:35Z</time>
      </trkpt>
      <trkpt lat="44.38257" lon="5.77228">
        <ele>755.79998779297</ele>
        <time>2016-05-06T13:37:36Z</time>
      </trkpt>
      <trkpt lat="44.38255" lon="5.77217">
        <ele>755.79998779297</ele>
        <time>2016-05-06T13:37:39Z</time>
      </trkpt>
      <trkpt lat="44.3825" lon="5.77187">
        <ele>755.79998779297</ele>
        <time>2016-05-06T13:37:46Z</time>
      </trkpt>
      <trkpt lat="44.38255" lon="5.77163">
        <ele>755.79998779297</ele>
        <time>2016-05-06T13:37:51Z</time>
      </trkpt>
      <trkpt lat="44.3827" lon="5.77123">
        <ele>756.20001220703</ele>
        <time>2016-05-06T13:38:00Z</time>
      </trkpt>
      <trkpt lat="44.38271" lon="5.77105">
        <ele>756.20001220703</ele>
        <time>2016-05-06T13:38:05Z</time>
      </trkpt>
      <trkpt lat="44.3827" lon="5.77102">
        <ele>757</ele>
        <time>2016-05-06T13:38:06Z</time>
      </trkpt>
      <trkpt lat="44.38271" lon="5.77084">
        <ele>757</ele>
        <time>2016-05-06T13:38:11Z</time>
      </trkpt>
      <trkpt lat="44.38271" lon="5.77082">
        <ele>757.59997558594</ele>
        <time>2016-05-06T13:38:12Z</time>
      </trkpt>
      <trkpt lat="44.38269" lon="5.7708">
        <ele>758.40002441406</ele>
        <time>2016-05-06T13:38:13Z</time>
      </trkpt>
      <trkpt lat="44.3826" lon="5.77071">
        <ele>758.40002441406</ele>
        <time>2016-05-06T13:38:16Z</time>
      </trkpt>
      <trkpt lat="44.38258" lon="5.77063">
        <ele>759.59997558594</ele>
        <time>2016-05-06T13:38:18Z</time>
      </trkpt>
      <trkpt lat="44.38252" lon="5.77045">
        <ele>760.20001220703</ele>
        <time>2016-05-06T13:38:24Z</time>
      </trkpt>
      <trkpt lat="44.38242" lon="5.77056">
        <ele>760.20001220703</ele>
        <time>2016-05-06T13:38:27Z</time>
      </trkpt>
      <trkpt lat="44.38234" lon="5.77073">
        <ele>760.20001220703</ele>
        <time>2016-05-06T13:38:33Z</time>
      </trkpt>
      <trkpt lat="44.38226" lon="5.7709">
        <ele>760.20001220703</ele>
        <time>2016-05-06T13:38:39Z</time>
      </trkpt>
      <trkpt lat="44.38213" lon="5.77108">
        <ele>760.20001220703</ele>
        <time>2016-05-06T13:38:46Z</time>
      </trkpt>
      <trkpt lat="44.38211" lon="5.77111">
        <ele>760.59997558594</ele>
        <time>2016-05-06T13:38:47Z</time>
      </trkpt>
      <trkpt lat="44.38208" lon="5.77113">
        <ele>761.20001220703</ele>
        <time>2016-05-06T13:38:48Z</time>
      </trkpt>
      <trkpt lat="44.38205" lon="5.77114">
        <ele>761.59997558594</ele>
        <time>2016-05-06T13:38:49Z</time>
      </trkpt>
      <trkpt lat="44.38202" lon="5.77114">
        <ele>762.20001220703</ele>
        <time>2016-05-06T13:38:50Z</time>
      </trkpt>
      <trkpt lat="44.38198" lon="5.77112">
        <ele>762.20001220703</ele>
        <time>2016-05-06T13:38:51Z</time>
      </trkpt>
      <trkpt lat="44.38186" lon="5.77099">
        <ele>762.20001220703</ele>
        <time>2016-05-06T13:38:55Z</time>
      </trkpt>
      <trkpt lat="44.38183" lon="5.77095">
        <ele>762.59997558594</ele>
        <time>2016-05-06T13:38:56Z</time>
      </trkpt>
      <trkpt lat="44.38172" lon="5.77091">
        <ele>762.59997558594</ele>
        <time>2016-05-06T13:38:59Z</time>
      </trkpt>
      <trkpt lat="44.38157" lon="5.77086">
        <ele>762.59997558594</ele>
        <time>2016-05-06T13:39:03Z</time>
      </trkpt>
      <trkpt lat="44.38145" lon="5.77081">
        <ele>762.59997558594</ele>
        <time>2016-05-06T13:39:07Z</time>
      </trkpt>
      <trkpt lat="44.38137" lon="5.77078">
        <ele>762.59997558594</ele>
        <time>2016-05-06T13:39:09Z</time>
      </trkpt>
      <trkpt lat="44.38126" lon="5.77071">
        <ele>762.59997558594</ele>
        <time>2016-05-06T13:39:11Z</time>
      </trkpt>
      <trkpt lat="44.38121" lon="5.77066">
        <ele>762.59997558594</ele>
        <time>2016-05-06T13:39:12Z</time>
      </trkpt>
      <trkpt lat="44.38114" lon="5.77058">
        <ele>762.59997558594</ele>
        <time>2016-05-06T13:39:14Z</time>
      </trkpt>
      <trkpt lat="44.381" lon="5.7703">
        <ele>761.79998779297</ele>
        <time>2016-05-06T13:39:19Z</time>
      </trkpt>
      <trkpt lat="44.38099" lon="5.77022">
        <ele>760.59997558594</ele>
        <time>2016-05-06T13:39:20Z</time>
      </trkpt>
      <trkpt lat="44.381" lon="5.76995">
        <ele>760.59997558594</ele>
        <time>2016-05-06T13:39:23Z</time>
      </trkpt>
      <trkpt lat="44.38102" lon="5.76987">
        <ele>760.59997558594</ele>
        <time>2016-05-06T13:39:24Z</time>
      </trkpt>
      <trkpt lat="44.38105" lon="5.76978">
        <ele>759.59997558594</ele>
        <time>2016-05-06T13:39:25Z</time>
      </trkpt>
      <trkpt lat="44.38113" lon="5.76965">
        <ele>759.59997558594</ele>
        <time>2016-05-06T13:39:27Z</time>
      </trkpt>
      <trkpt lat="44.38123" lon="5.76951">
        <ele>758.20001220703</ele>
        <time>2016-05-06T13:39:30Z</time>
      </trkpt>
      <trkpt lat="44.38126" lon="5.76945">
        <ele>757</ele>
        <time>2016-05-06T13:39:31Z</time>
      </trkpt>
      <trkpt lat="44.38128" lon="5.76936">
        <ele>757</ele>
        <time>2016-05-06T13:39:32Z</time>
      </trkpt>
      <trkpt lat="44.38129" lon="5.76917">
        <ele>757</ele>
        <time>2016-05-06T13:39:34Z</time>
      </trkpt>
      <trkpt lat="44.38124" lon="5.76896">
        <ele>755.59997558594</ele>
        <time>2016-05-06T13:39:36Z</time>
      </trkpt>
      <trkpt lat="44.38121" lon="5.76885">
        <ele>755.59997558594</ele>
        <time>2016-05-06T13:39:37Z</time>
      </trkpt>
      <trkpt lat="44.38116" lon="5.76877">
        <ele>755.59997558594</ele>
        <time>2016-05-06T13:39:38Z</time>
      </trkpt>
      <trkpt lat="44.38108" lon="5.76872">
        <ele>755.59997558594</ele>
        <time>2016-05-06T13:39:39Z</time>
      </trkpt>
      <trkpt lat="44.38091" lon="5.76871">
        <ele>754.20001220703</ele>
        <time>2016-05-06T13:39:41Z</time>
      </trkpt>
      <trkpt lat="44.38084" lon="5.76875">
        <ele>754.20001220703</ele>
        <time>2016-05-06T13:39:42Z</time>
      </trkpt>
      <trkpt lat="44.38067" lon="5.76899">
        <ele>754.20001220703</ele>
        <time>2016-05-06T13:39:45Z</time>
      </trkpt>
      <trkpt lat="44.38061" lon="5.76906">
        <ele>753</ele>
        <time>2016-05-06T13:39:46Z</time>
      </trkpt>
      <trkpt lat="44.38027" lon="5.76915">
        <ele>753</ele>
        <time>2016-05-06T13:39:50Z</time>
      </trkpt>
      <trkpt lat="44.38017" lon="5.76915">
        <ele>751.79998779297</ele>
        <time>2016-05-06T13:39:51Z</time>
      </trkpt>
      <trkpt lat="44.38008" lon="5.76915">
        <ele>750.40002441406</ele>
        <time>2016-05-06T13:39:52Z</time>
      </trkpt>
      <trkpt lat="44.37981" lon="5.76917">
        <ele>750.40002441406</ele>
        <time>2016-05-06T13:39:55Z</time>
      </trkpt>
      <trkpt lat="44.37973" lon="5.76914">
        <ele>750.40002441406</ele>
        <time>2016-05-06T13:39:56Z</time>
      </trkpt>
      <trkpt lat="44.37965" lon="5.76911">
        <ele>748.79998779297</ele>
        <time>2016-05-06T13:39:57Z</time>
      </trkpt>
      <trkpt lat="44.37946" lon="5.76896">
        <ele>748.79998779297</ele>
        <time>2016-05-06T13:40:00Z</time>
      </trkpt>
      <trkpt lat="44.37931" lon="5.76888">
        <ele>747</ele>
        <time>2016-05-06T13:40:02Z</time>
      </trkpt>
      <trkpt lat="44.37908" lon="5.76879">
        <ele>747</ele>
        <time>2016-05-06T13:40:06Z</time>
      </trkpt>
      <trkpt lat="44.37908" lon="5.76873">
        <ele>745.40002441406</ele>
        <time>2016-05-06T13:40:07Z</time>
      </trkpt>
      <trkpt lat="44.37905" lon="5.76849">
        <ele>745.40002441406</ele>
        <time>2016-05-06T13:40:10Z</time>
      </trkpt>
      <trkpt lat="44.37905" lon="5.76832">
        <ele>743.59997558594</ele>
        <time>2016-05-06T13:40:12Z</time>
      </trkpt>
      <trkpt lat="44.37904" lon="5.76824">
        <ele>741.79998779297</ele>
        <time>2016-05-06T13:40:13Z</time>
      </trkpt>
      <trkpt lat="44.37903" lon="5.76816">
        <ele>741.79998779297</ele>
        <time>2016-05-06T13:40:14Z</time>
      </trkpt>
      <trkpt lat="44.3789" lon="5.76781">
        <ele>740.20001220703</ele>
        <time>2016-05-06T13:40:18Z</time>
      </trkpt>
      <trkpt lat="44.37886" lon="5.76772">
        <ele>738.40002441406</ele>
        <time>2016-05-06T13:40:19Z</time>
      </trkpt>
      <trkpt lat="44.37878" lon="5.76755">
        <ele>738.40002441406</ele>
        <time>2016-05-06T13:40:21Z</time>
      </trkpt>
      <trkpt lat="44.37864" lon="5.76744">
        <ele>738.40002441406</ele>
        <time>2016-05-06T13:40:23Z</time>
      </trkpt>
      <trkpt lat="44.37856" lon="5.76739">
        <ele>736.79998779297</ele>
        <time>2016-05-06T13:40:24Z</time>
      </trkpt>
      <trkpt lat="44.37816" lon="5.76716">
        <ele>735</ele>
        <time>2016-05-06T13:40:29Z</time>
      </trkpt>
      <trkpt lat="44.3781" lon="5.76712">
        <ele>733.20001220703</ele>
        <time>2016-05-06T13:40:30Z</time>
      </trkpt>
      <trkpt lat="44.37803" lon="5.76705">
        <ele>733.20001220703</ele>
        <time>2016-05-06T13:40:31Z</time>
      </trkpt>
      <trkpt lat="44.37789" lon="5.76689">
        <ele>733.20001220703</ele>
        <time>2016-05-06T13:40:33Z</time>
      </trkpt>
      <trkpt lat="44.37783" lon="5.7668">
        <ele>733.20001220703</ele>
        <time>2016-05-06T13:40:34Z</time>
      </trkpt>
      <trkpt lat="44.37778" lon="5.76668">
        <ele>731.20001220703</ele>
        <time>2016-05-06T13:40:35Z</time>
      </trkpt>
      <trkpt lat="44.37773" lon="5.76641">
        <ele>731.20001220703</ele>
        <time>2016-05-06T13:40:36Z</time>
      </trkpt>
      <trkpt lat="44.37754" lon="5.766">
        <ele>728.79998779297</ele>
        <time>2016-05-06T13:40:40Z</time>
      </trkpt>
      <trkpt lat="44.37745" lon="5.76599">
        <ele>726.40002441406</ele>
        <time>2016-05-06T13:40:41Z</time>
      </trkpt>
      <trkpt lat="44.37737" lon="5.76602">
        <ele>726.40002441406</ele>
        <time>2016-05-06T13:40:42Z</time>
      </trkpt>
      <trkpt lat="44.37704" lon="5.76621">
        <ele>724</ele>
        <time>2016-05-06T13:40:46Z</time>
      </trkpt>
      <trkpt lat="44.37696" lon="5.76625">
        <ele>721.59997558594</ele>
        <time>2016-05-06T13:40:47Z</time>
      </trkpt>
      <trkpt lat="44.37669" lon="5.76627">
        <ele>721.59997558594</ele>
        <time>2016-05-06T13:40:50Z</time>
      </trkpt>
      <trkpt lat="44.37653" lon="5.76612">
        <ele>719.59997558594</ele>
        <time>2016-05-06T13:40:52Z</time>
      </trkpt>
      <trkpt lat="44.37635" lon="5.76582">
        <ele>719.59997558594</ele>
        <time>2016-05-06T13:40:55Z</time>
      </trkpt>
      <trkpt lat="44.37619" lon="5.76553">
        <ele>715.79998779297</ele>
        <time>2016-05-06T13:40:58Z</time>
      </trkpt>
      <trkpt lat="44.376" lon="5.76513">
        <ele>715.79998779297</ele>
        <time>2016-05-06T13:41:02Z</time>
      </trkpt>
      <trkpt lat="44.37588" lon="5.76482">
        <ele>715.79998779297</ele>
        <time>2016-05-06T13:41:05Z</time>
      </trkpt>
      <trkpt lat="44.37584" lon="5.7646">
        <ele>715.79998779297</ele>
        <time>2016-05-06T13:41:07Z</time>
      </trkpt>
      <trkpt lat="44.37581" lon="5.76446">
        <ele>714</ele>
        <time>2016-05-06T13:41:09Z</time>
      </trkpt>
      <trkpt lat="44.37578" lon="5.76444">
        <ele>712.20001220703</ele>
        <time>2016-05-06T13:41:10Z</time>
      </trkpt>
      <trkpt lat="44.37566" lon="5.76455">
        <ele>712.20001220703</ele>
        <time>2016-05-06T13:41:12Z</time>
      </trkpt>
      <trkpt lat="44.3755" lon="5.76479">
        <ele>710.40002441406</ele>
        <time>2016-05-06T13:41:15Z</time>
      </trkpt>
      <trkpt lat="44.37545" lon="5.76488">
        <ele>710.40002441406</ele>
        <time>2016-05-06T13:41:16Z</time>
      </trkpt>
      <trkpt lat="44.37513" lon="5.76528">
        <ele>708.59997558594</ele>
        <time>2016-05-06T13:41:21Z</time>
      </trkpt>
      <trkpt lat="44.37501" lon="5.76546">
        <ele>708.59997558594</ele>
        <time>2016-05-06T13:41:23Z</time>
      </trkpt>
      <trkpt lat="44.37477" lon="5.76588">
        <ele>706.79998779297</ele>
        <time>2016-05-06T13:41:27Z</time>
      </trkpt>
      <trkpt lat="44.37466" lon="5.76608">
        <ele>706.79998779297</ele>
        <time>2016-05-06T13:41:29Z</time>
      </trkpt>
      <trkpt lat="44.37449" lon="5.76633">
        <ele>704.79998779297</ele>
        <time>2016-05-06T13:41:32Z</time>
      </trkpt>
      <trkpt lat="44.37446" lon="5.76634">
        <ele>702.79998779297</ele>
        <time>2016-05-06T13:41:33Z</time>
      </trkpt>
      <trkpt lat="44.37446" lon="5.76635">
        <ele>702.79998779297</ele>
        <time>2016-05-06T13:41:36Z</time>
      </trkpt>
      <trkpt lat="44.37449" lon="5.76634">
        <ele>701.20001220703</ele>
        <time>2016-05-06T13:41:38Z</time>
      </trkpt>
      <trkpt lat="44.3745" lon="5.76633">
        <ele>699.59997558594</ele>
        <time>2016-05-06T13:41:39Z</time>
      </trkpt>
      <trkpt lat="44.37455" lon="5.76633">
        <ele>699.59997558594</ele>
        <time>2016-05-06T13:41:43Z</time>
      </trkpt>
      <trkpt lat="44.37455" lon="5.76639">
        <ele>699.59997558594</ele>
        <time>2016-05-06T13:41:45Z</time>
      </trkpt>
      <trkpt lat="44.37442" lon="5.76656">
        <ele>698</ele>
        <time>2016-05-06T13:41:48Z</time>
      </trkpt>
      <trkpt lat="44.37434" lon="5.76672">
        <ele>698</ele>
        <time>2016-05-06T13:41:50Z</time>
      </trkpt>
      <trkpt lat="44.37431" lon="5.76682">
        <ele>698</ele>
        <time>2016-05-06T13:41:51Z</time>
      </trkpt>
      <trkpt lat="44.37428" lon="5.76693">
        <ele>698</ele>
        <time>2016-05-06T13:41:52Z</time>
      </trkpt>
      <trkpt lat="44.37424" lon="5.76704">
        <ele>696.79998779297</ele>
        <time>2016-05-06T13:41:53Z</time>
      </trkpt>
      <trkpt lat="44.3742" lon="5.76715">
        <ele>695.59997558594</ele>
        <time>2016-05-06T13:41:54Z</time>
      </trkpt>
      <trkpt lat="44.37415" lon="5.76739">
        <ele>695.59997558594</ele>
        <time>2016-05-06T13:41:56Z</time>
      </trkpt>
      <trkpt lat="44.3741" lon="5.76776">
        <ele>692.40002441406</ele>
        <time>2016-05-06T13:41:59Z</time>
      </trkpt>
      <trkpt lat="44.37402" lon="5.76783">
        <ele>692.40002441406</ele>
        <time>2016-05-06T13:42:00Z</time>
      </trkpt>
      <trkpt lat="44.37394" lon="5.76787">
        <ele>692.40002441406</ele>
        <time>2016-05-06T13:42:01Z</time>
      </trkpt>
      <trkpt lat="44.37365" lon="5.76792">
        <ele>692.40002441406</ele>
        <time>2016-05-06T13:42:04Z</time>
      </trkpt>
      <trkpt lat="44.37356" lon="5.76793">
        <ele>689.20001220703</ele>
        <time>2016-05-06T13:42:05Z</time>
      </trkpt>
      <trkpt lat="44.37309" lon="5.76807">
        <ele>687.59997558594</ele>
        <time>2016-05-06T13:42:10Z</time>
      </trkpt>
      <trkpt lat="44.37273" lon="5.76835">
        <ele>687.59997558594</ele>
        <time>2016-05-06T13:42:14Z</time>
      </trkpt>
      <trkpt lat="44.37265" lon="5.76844">
        <ele>686.20001220703</ele>
        <time>2016-05-06T13:42:15Z</time>
      </trkpt>
      <trkpt lat="44.37258" lon="5.76855">
        <ele>684.59997558594</ele>
        <time>2016-05-06T13:42:16Z</time>
      </trkpt>
      <trkpt lat="44.37252" lon="5.76866">
        <ele>684.59997558594</ele>
        <time>2016-05-06T13:42:17Z</time>
      </trkpt>
      <trkpt lat="44.3724" lon="5.76882">
        <ele>684.59997558594</ele>
        <time>2016-05-06T13:42:19Z</time>
      </trkpt>
      <trkpt lat="44.37231" lon="5.76886">
        <ele>684.59997558594</ele>
        <time>2016-05-06T13:42:20Z</time>
      </trkpt>
      <trkpt lat="44.37222" lon="5.76887">
        <ele>681</ele>
        <time>2016-05-06T13:42:21Z</time>
      </trkpt>
      <trkpt lat="44.37204" lon="5.76891">
        <ele>681</ele>
        <time>2016-05-06T13:42:23Z</time>
      </trkpt>
      <trkpt lat="44.37167" lon="5.76901">
        <ele>678</ele>
        <time>2016-05-06T13:42:27Z</time>
      </trkpt>
      <trkpt lat="44.37159" lon="5.76901">
        <ele>678</ele>
        <time>2016-05-06T13:42:28Z</time>
      </trkpt>
      <trkpt lat="44.37114" lon="5.76899">
        <ele>675.59997558594</ele>
        <time>2016-05-06T13:42:33Z</time>
      </trkpt>
      <trkpt lat="44.37097" lon="5.769">
        <ele>675.59997558594</ele>
        <time>2016-05-06T13:42:35Z</time>
      </trkpt>
      <trkpt lat="44.37071" lon="5.76901">
        <ele>674.59997558594</ele>
        <time>2016-05-06T13:42:38Z</time>
      </trkpt>
      <trkpt lat="44.37063" lon="5.76901">
        <ele>673.79998779297</ele>
        <time>2016-05-06T13:42:39Z</time>
      </trkpt>
      <trkpt lat="44.37048" lon="5.76902">
        <ele>673.79998779297</ele>
        <time>2016-05-06T13:42:41Z</time>
      </trkpt>
      <trkpt lat="44.37025" lon="5.76906">
        <ele>672.59997558594</ele>
        <time>2016-05-06T13:42:44Z</time>
      </trkpt>
      <trkpt lat="44.37019" lon="5.76907">
        <ele>671.59997558594</ele>
        <time>2016-05-06T13:42:45Z</time>
      </trkpt>
      <trkpt lat="44.36997" lon="5.76911">
        <ele>671.59997558594</ele>
        <time>2016-05-06T13:42:48Z</time>
      </trkpt>
      <trkpt lat="44.36985" lon="5.76917">
        <ele>670.59997558594</ele>
        <time>2016-05-06T13:42:50Z</time>
      </trkpt>
      <trkpt lat="44.36967" lon="5.76932">
        <ele>670.59997558594</ele>
        <time>2016-05-06T13:42:53Z</time>
      </trkpt>
      <trkpt lat="44.36963" lon="5.76937">
        <ele>669.40002441406</ele>
        <time>2016-05-06T13:42:54Z</time>
      </trkpt>
      <trkpt lat="44.36955" lon="5.76955">
        <ele>669.40002441406</ele>
        <time>2016-05-06T13:42:57Z</time>
      </trkpt>
      <trkpt lat="44.36951" lon="5.76959">
        <ele>669.40002441406</ele>
        <time>2016-05-06T13:42:58Z</time>
      </trkpt>
      <trkpt lat="44.36948" lon="5.76962">
        <ele>668.40002441406</ele>
        <time>2016-05-06T13:42:59Z</time>
      </trkpt>
      <trkpt lat="44.36943" lon="5.76968">
        <ele>668.40002441406</ele>
        <time>2016-05-06T13:43:01Z</time>
      </trkpt>
      <trkpt lat="44.36935" lon="5.76977">
        <ele>669.20001220703</ele>
        <time>2016-05-06T13:43:05Z</time>
      </trkpt>
      <trkpt lat="44.36929" lon="5.76984">
        <ele>669.20001220703</ele>
        <time>2016-05-06T13:43:08Z</time>
      </trkpt>
      <trkpt lat="44.36924" lon="5.76988">
        <ele>669.79998779297</ele>
        <time>2016-05-06T13:43:10Z</time>
      </trkpt>
      <trkpt lat="44.36914" lon="5.77">
        <ele>670.20001220703</ele>
        <time>2016-05-06T13:43:15Z</time>
      </trkpt>
      <trkpt lat="44.36911" lon="5.77002">
        <ele>670.79998779297</ele>
        <time>2016-05-06T13:43:16Z</time>
      </trkpt>
      <trkpt lat="44.36906" lon="5.77007">
        <ele>670.79998779297</ele>
        <time>2016-05-06T13:43:18Z</time>
      </trkpt>
      <trkpt lat="44.369" lon="5.77014">
        <ele>671.40002441406</ele>
        <time>2016-05-06T13:43:21Z</time>
      </trkpt>
      <trkpt lat="44.36896" lon="5.77018">
        <ele>672</ele>
        <time>2016-05-06T13:43:23Z</time>
      </trkpt>
      <trkpt lat="44.36881" lon="5.77032">
        <ele>672</ele>
        <time>2016-05-06T13:43:29Z</time>
      </trkpt>
      <trkpt lat="44.36869" lon="5.77044">
        <ele>673.40002441406</ele>
        <time>2016-05-06T13:43:34Z</time>
      </trkpt>
      <trkpt lat="44.36863" lon="5.77056">
        <ele>673.40002441406</ele>
        <time>2016-05-06T13:43:38Z</time>
      </trkpt>
      <trkpt lat="44.36859" lon="5.77061">
        <ele>674.79998779297</ele>
        <time>2016-05-06T13:43:40Z</time>
      </trkpt>
      <trkpt lat="44.36847" lon="5.77079">
        <ele>675.79998779297</ele>
        <time>2016-05-06T13:43:46Z</time>
      </trkpt>
      <trkpt lat="44.36836" lon="5.77098">
        <ele>676.40002441406</ele>
        <time>2016-05-06T13:43:52Z</time>
      </trkpt>
      <trkpt lat="44.36835" lon="5.77101">
        <ele>676.40002441406</ele>
        <time>2016-05-06T13:43:53Z</time>
      </trkpt>
      <trkpt lat="44.36829" lon="5.77126">
        <ele>677</ele>
        <time>2016-05-06T13:43:58Z</time>
      </trkpt>
      <trkpt lat="44.36827" lon="5.77132">
        <ele>677</ele>
        <time>2016-05-06T13:43:59Z</time>
      </trkpt>
      <trkpt lat="44.36821" lon="5.77153">
        <ele>677</ele>
        <time>2016-05-06T13:44:02Z</time>
      </trkpt>
      <trkpt lat="44.36819" lon="5.7716">
        <ele>677.59997558594</ele>
        <time>2016-05-06T13:44:03Z</time>
      </trkpt>
      <trkpt lat="44.36802" lon="5.77214">
        <ele>677.59997558594</ele>
        <time>2016-05-06T13:44:10Z</time>
      </trkpt>
      <trkpt lat="44.36799" lon="5.77218">
        <ele>677.59997558594</ele>
        <time>2016-05-06T13:44:11Z</time>
      </trkpt>
      <trkpt lat="44.36792" lon="5.7723">
        <ele>677.59997558594</ele>
        <time>2016-05-06T13:44:14Z</time>
      </trkpt>
      <trkpt lat="44.36777" lon="5.77261">
        <ele>677.59997558594</ele>
        <time>2016-05-06T13:44:21Z</time>
      </trkpt>
      <trkpt lat="44.36774" lon="5.77266">
        <ele>677.59997558594</ele>
        <time>2016-05-06T13:44:22Z</time>
      </trkpt>
      <trkpt lat="44.36759" lon="5.7729">
        <ele>677.59997558594</ele>
        <time>2016-05-06T13:44:27Z</time>
      </trkpt>
      <trkpt lat="44.36734" lon="5.77323">
        <ele>677.59997558594</ele>
        <time>2016-05-06T13:44:34Z</time>
      </trkpt>
      <trkpt lat="44.3672" lon="5.77337">
        <ele>677.59997558594</ele>
        <time>2016-05-06T13:44:39Z</time>
      </trkpt>
      <trkpt lat="44.36702" lon="5.77353">
        <ele>677.59997558594</ele>
        <time>2016-05-06T13:44:47Z</time>
      </trkpt>
      <trkpt lat="44.3669" lon="5.77347">
        <ele>677.59997558594</ele>
        <time>2016-05-06T13:44:51Z</time>
      </trkpt>
      <trkpt lat="44.36684" lon="5.77346">
        <ele>678.59997558594</ele>
        <time>2016-05-06T13:44:55Z</time>
      </trkpt>
      <trkpt lat="44.36676" lon="5.77348">
        <ele>678.59997558594</ele>
        <time>2016-05-06T13:44:59Z</time>
      </trkpt>
      <trkpt lat="44.36674" lon="5.77348">
        <ele>678.59997558594</ele>
        <time>2016-05-06T13:45:00Z</time>
      </trkpt>
      <trkpt lat="44.36673" lon="5.77348">
        <ele>679</ele>
        <time>2016-05-06T13:45:01Z</time>
      </trkpt>
      <trkpt lat="44.36664" lon="5.7735">
        <ele>680.59997558594</ele>
        <time>2016-05-06T13:45:06Z</time>
      </trkpt>
      <trkpt lat="44.3666" lon="5.77351">
        <ele>680.59997558594</ele>
        <time>2016-05-06T13:45:09Z</time>
      </trkpt>
      <trkpt lat="44.36657" lon="5.77353">
        <ele>681.40002441406</ele>
        <time>2016-05-06T13:45:11Z</time>
      </trkpt>
      <trkpt lat="44.3665" lon="5.77357">
        <ele>682</ele>
        <time>2016-05-06T13:45:16Z</time>
      </trkpt>
      <trkpt lat="44.36649" lon="5.77358">
        <ele>682</ele>
        <time>2016-05-06T13:45:17Z</time>
      </trkpt>
      <trkpt lat="44.36644" lon="5.77361">
        <ele>682.79998779297</ele>
        <time>2016-05-06T13:45:21Z</time>
      </trkpt>
      <trkpt lat="44.36637" lon="5.77362">
        <ele>684.59997558594</ele>
        <time>2016-05-06T13:45:26Z</time>
      </trkpt>
      <trkpt lat="44.36634" lon="5.77363">
        <ele>684.59997558594</ele>
        <time>2016-05-06T13:45:28Z</time>
      </trkpt>
      <trkpt lat="44.3663" lon="5.77367">
        <ele>685.59997558594</ele>
        <time>2016-05-06T13:45:31Z</time>
      </trkpt>
      <trkpt lat="44.36622" lon="5.77368">
        <ele>686.59997558594</ele>
        <time>2016-05-06T13:45:36Z</time>
      </trkpt>
      <trkpt lat="44.36621" lon="5.77366">
        <ele>686.59997558594</ele>
        <time>2016-05-06T13:45:37Z</time>
      </trkpt>
      <trkpt lat="44.36616" lon="5.77365">
        <ele>687.40002441406</ele>
        <time>2016-05-06T13:45:41Z</time>
      </trkpt>
      <trkpt lat="44.36609" lon="5.77366">
        <ele>687.40002441406</ele>
        <time>2016-05-06T13:45:46Z</time>
      </trkpt>
      <trkpt lat="44.36596" lon="5.77366">
        <ele>689.40002441406</ele>
        <time>2016-05-06T13:45:55Z</time>
      </trkpt>
      <trkpt lat="44.36595" lon="5.77366">
        <ele>689.40002441406</ele>
        <time>2016-05-06T13:45:56Z</time>
      </trkpt>
      <trkpt lat="44.36586" lon="5.77367">
        <ele>690.59997558594</ele>
        <time>2016-05-06T13:46:01Z</time>
      </trkpt>
      <trkpt lat="44.36581" lon="5.77369">
        <ele>690.59997558594</ele>
        <time>2016-05-06T13:46:03Z</time>
      </trkpt>
      <trkpt lat="44.36572" lon="5.77374">
        <ele>691.59997558594</ele>
        <time>2016-05-06T13:46:07Z</time>
      </trkpt>
      <trkpt lat="44.36562" lon="5.7738">
        <ele>691.59997558594</ele>
        <time>2016-05-06T13:46:11Z</time>
      </trkpt>
      <trkpt lat="44.36559" lon="5.77384">
        <ele>692.79998779297</ele>
        <time>2016-05-06T13:46:12Z</time>
      </trkpt>
      <trkpt lat="44.36543" lon="5.77399">
        <ele>692.79998779297</ele>
        <time>2016-05-06T13:46:17Z</time>
      </trkpt>
      <trkpt lat="44.3654" lon="5.77402">
        <ele>693.79998779297</ele>
        <time>2016-05-06T13:46:18Z</time>
      </trkpt>
      <trkpt lat="44.36522" lon="5.77421">
        <ele>695</ele>
        <time>2016-05-06T13:46:23Z</time>
      </trkpt>
      <trkpt lat="44.36514" lon="5.77429">
        <ele>695</ele>
        <time>2016-05-06T13:46:25Z</time>
      </trkpt>
      <trkpt lat="44.36491" lon="5.77458">
        <ele>695</ele>
        <time>2016-05-06T13:46:31Z</time>
      </trkpt>
      <trkpt lat="44.36487" lon="5.77465">
        <ele>695</ele>
        <time>2016-05-06T13:46:32Z</time>
      </trkpt>
      <trkpt lat="44.3648" lon="5.77492">
        <ele>695</ele>
        <time>2016-05-06T13:46:35Z</time>
      </trkpt>
      <trkpt lat="44.36479" lon="5.77501">
        <ele>695</ele>
        <time>2016-05-06T13:46:36Z</time>
      </trkpt>
      <trkpt lat="44.36472" lon="5.77538">
        <ele>694.59997558594</ele>
        <time>2016-05-06T13:46:40Z</time>
      </trkpt>
      <trkpt lat="44.36464" lon="5.7756">
        <ele>694.59997558594</ele>
        <time>2016-05-06T13:46:43Z</time>
      </trkpt>
      <trkpt lat="44.36457" lon="5.77574">
        <ele>694.20001220703</ele>
        <time>2016-05-06T13:46:45Z</time>
      </trkpt>
      <trkpt lat="44.36449" lon="5.77588">
        <ele>694.20001220703</ele>
        <time>2016-05-06T13:46:47Z</time>
      </trkpt>
      <trkpt lat="44.36438" lon="5.77608">
        <ele>693.59997558594</ele>
        <time>2016-05-06T13:46:50Z</time>
      </trkpt>
      <trkpt lat="44.36417" lon="5.77643">
        <ele>693.20001220703</ele>
        <time>2016-05-06T13:46:55Z</time>
      </trkpt>
      <trkpt lat="44.36404" lon="5.77665">
        <ele>693.20001220703</ele>
        <time>2016-05-06T13:46:58Z</time>
      </trkpt>
      <trkpt lat="44.36397" lon="5.77681">
        <ele>692.79998779297</ele>
        <time>2016-05-06T13:47:00Z</time>
      </trkpt>
      <trkpt lat="44.36393" lon="5.77689">
        <ele>692.79998779297</ele>
        <time>2016-05-06T13:47:01Z</time>
      </trkpt>
      <trkpt lat="44.36388" lon="5.77695">
        <ele>692.79998779297</ele>
        <time>2016-05-06T13:47:02Z</time>
      </trkpt>
      <trkpt lat="44.36375" lon="5.77697">
        <ele>692.79998779297</ele>
        <time>2016-05-06T13:47:04Z</time>
      </trkpt>
      <trkpt lat="44.36363" lon="5.77698">
        <ele>692.79998779297</ele>
        <time>2016-05-06T13:47:06Z</time>
      </trkpt>
      <trkpt lat="44.36352" lon="5.77701">
        <ele>692.79998779297</ele>
        <time>2016-05-06T13:47:08Z</time>
      </trkpt>
      <trkpt lat="44.36347" lon="5.77705">
        <ele>692.79998779297</ele>
        <time>2016-05-06T13:47:09Z</time>
      </trkpt>
      <trkpt lat="44.36334" lon="5.7772">
        <ele>692.79998779297</ele>
        <time>2016-05-06T13:47:12Z</time>
      </trkpt>
      <trkpt lat="44.36326" lon="5.7773">
        <ele>692.79998779297</ele>
        <time>2016-05-06T13:47:14Z</time>
      </trkpt>
      <trkpt lat="44.363" lon="5.77757">
        <ele>692.79998779297</ele>
        <time>2016-05-06T13:47:21Z</time>
      </trkpt>
      <trkpt lat="44.36274" lon="5.77778">
        <ele>692.79998779297</ele>
        <time>2016-05-06T13:47:28Z</time>
      </trkpt>
      <trkpt lat="44.36257" lon="5.77798">
        <ele>692.79998779297</ele>
        <time>2016-05-06T13:47:34Z</time>
      </trkpt>
      <trkpt lat="44.36241" lon="5.7782">
        <ele>692.79998779297</ele>
        <time>2016-05-06T13:47:40Z</time>
      </trkpt>
      <trkpt lat="44.3622" lon="5.77838">
        <ele>692.40002441406</ele>
        <time>2016-05-06T13:47:45Z</time>
      </trkpt>
      <trkpt lat="44.36216" lon="5.77842">
        <ele>692.40002441406</ele>
        <time>2016-05-06T13:47:46Z</time>
      </trkpt>
      <trkpt lat="44.36203" lon="5.77854">
        <ele>692</ele>
        <time>2016-05-06T13:47:49Z</time>
      </trkpt>
      <trkpt lat="44.36194" lon="5.77861">
        <ele>692</ele>
        <time>2016-05-06T13:47:51Z</time>
      </trkpt>
      <trkpt lat="44.3619" lon="5.77862">
        <ele>692</ele>
        <time>2016-05-06T13:47:52Z</time>
      </trkpt>
      <trkpt lat="44.36184" lon="5.77863">
        <ele>691.20001220703</ele>
        <time>2016-05-06T13:47:54Z</time>
      </trkpt>
      <trkpt lat="44.36177" lon="5.77865">
        <ele>691.20001220703</ele>
        <time>2016-05-06T13:47:56Z</time>
      </trkpt>
      <trkpt lat="44.36169" lon="5.77874">
        <ele>690.40002441406</ele>
        <time>2016-05-06T13:47:59Z</time>
      </trkpt>
      <trkpt lat="44.36167" lon="5.77878">
        <ele>689.20001220703</ele>
        <time>2016-05-06T13:48:00Z</time>
      </trkpt>
      <trkpt lat="44.36165" lon="5.77882">
        <ele>689.20001220703</ele>
        <time>2016-05-06T13:48:01Z</time>
      </trkpt>
      <trkpt lat="44.3616" lon="5.77893">
        <ele>689.20001220703</ele>
        <time>2016-05-06T13:48:03Z</time>
      </trkpt>
      <trkpt lat="44.36158" lon="5.77899">
        <ele>687.79998779297</ele>
        <time>2016-05-06T13:48:04Z</time>
      </trkpt>
      <trkpt lat="44.36156" lon="5.7791">
        <ele>687.79998779297</ele>
        <time>2016-05-06T13:48:06Z</time>
      </trkpt>
      <trkpt lat="44.36155" lon="5.77915">
        <ele>687.79998779297</ele>
        <time>2016-05-06T13:48:07Z</time>
      </trkpt>
      <trkpt lat="44.36155" lon="5.7792">
        <ele>686.40002441406</ele>
        <time>2016-05-06T13:48:09Z</time>
      </trkpt>
      <trkpt lat="44.36154" lon="5.77924">
        <ele>685</ele>
        <time>2016-05-06T13:48:10Z</time>
      </trkpt>
      <trkpt lat="44.36149" lon="5.77933">
        <ele>682.40002441406</ele>
        <time>2016-05-06T13:48:15Z</time>
      </trkpt>
      <trkpt lat="44.36143" lon="5.77928">
        <ele>681</ele>
        <time>2016-05-06T13:48:19Z</time>
      </trkpt>
      <trkpt lat="44.36143" lon="5.77927">
        <ele>681</ele>
        <time>2016-05-06T13:48:20Z</time>
      </trkpt>
      <trkpt lat="44.36139" lon="5.77924">
        <ele>679.79998779297</ele>
        <time>2016-05-06T13:48:24Z</time>
      </trkpt>
      <trkpt lat="44.36135" lon="5.77927">
        <ele>679.79998779297</ele>
        <time>2016-05-06T13:48:29Z</time>
      </trkpt>
      <trkpt lat="44.36135" lon="5.77927">
        <ele>680</ele>
        <time>2016-05-06T13:48:30Z</time>
      </trkpt>
      <trkpt lat="44.36134" lon="5.77931">
        <ele>680.20001220703</ele>
        <time>2016-05-06T13:48:34Z</time>
      </trkpt>
      <trkpt lat="44.36133" lon="5.77932">
        <ele>680.20001220703</ele>
        <time>2016-05-06T13:48:35Z</time>
      </trkpt>
      <trkpt lat="44.36132" lon="5.77936">
        <ele>680.40002441406</ele>
        <time>2016-05-06T13:48:39Z</time>
      </trkpt>
      <trkpt lat="44.36128" lon="5.77952">
        <ele>680.79998779297</ele>
        <time>2016-05-06T13:48:49Z</time>
      </trkpt>
      <trkpt lat="44.36127" lon="5.77953">
        <ele>681.40002441406</ele>
        <time>2016-05-06T13:48:50Z</time>
      </trkpt>
      <trkpt lat="44.36127" lon="5.77954">
        <ele>682</ele>
        <time>2016-05-06T13:48:51Z</time>
      </trkpt>
      <trkpt lat="44.36127" lon="5.77955">
        <ele>682.59997558594</ele>
        <time>2016-05-06T13:48:52Z</time>
      </trkpt>
      <trkpt lat="44.36126" lon="5.77956">
        <ele>683.20001220703</ele>
        <time>2016-05-06T13:48:53Z</time>
      </trkpt>
      <trkpt lat="44.36124" lon="5.77962">
        <ele>683.59997558594</ele>
        <time>2016-05-06T13:48:59Z</time>
      </trkpt>
      <trkpt lat="44.36123" lon="5.77964">
        <ele>683.59997558594</ele>
        <time>2016-05-06T13:49:03Z</time>
      </trkpt>
      <trkpt lat="44.36123" lon="5.77965">
        <ele>684.59997558594</ele>
        <time>2016-05-06T13:49:04Z</time>
      </trkpt>
      <trkpt lat="44.36123" lon="5.7797">
        <ele>685.20001220703</ele>
        <time>2016-05-06T13:49:09Z</time>
      </trkpt>
      <trkpt lat="44.36123" lon="5.77973">
        <ele>685.20001220703</ele>
        <time>2016-05-06T13:49:13Z</time>
      </trkpt>
      <trkpt lat="44.36124" lon="5.77974">
        <ele>685.79998779297</ele>
        <time>2016-05-06T13:49:14Z</time>
      </trkpt>
      <trkpt lat="44.36125" lon="5.77978">
        <ele>686.20001220703</ele>
        <time>2016-05-06T13:49:18Z</time>
      </trkpt>
      <trkpt lat="44.36126" lon="5.77984">
        <ele>686.59997558594</ele>
        <time>2016-05-06T13:49:23Z</time>
      </trkpt>
      <trkpt lat="44.36126" lon="5.77986">
        <ele>686.59997558594</ele>
        <time>2016-05-06T13:49:27Z</time>
      </trkpt>
      <trkpt lat="44.36126" lon="5.77987">
        <ele>687</ele>
        <time>2016-05-06T13:49:28Z</time>
      </trkpt>
      <trkpt lat="44.36127" lon="5.77988">
        <ele>687.59997558594</ele>
        <time>2016-05-06T13:49:30Z</time>
      </trkpt>
      <trkpt lat="44.36127" lon="5.77992">
        <ele>688.79998779297</ele>
        <time>2016-05-06T13:49:35Z</time>
      </trkpt>
      <trkpt lat="44.36129" lon="5.77995">
        <ele>689.40002441406</ele>
        <time>2016-05-06T13:49:41Z</time>
      </trkpt>
      <trkpt lat="44.36129" lon="5.77996">
        <ele>689.40002441406</ele>
        <time>2016-05-06T13:49:42Z</time>
      </trkpt>
      <trkpt lat="44.36129" lon="5.77999">
        <ele>690.20001220703</ele>
        <time>2016-05-06T13:49:45Z</time>
      </trkpt>
      <trkpt lat="44.36128" lon="5.78002">
        <ele>690.79998779297</ele>
        <time>2016-05-06T13:49:50Z</time>
      </trkpt>
      <trkpt lat="44.36127" lon="5.78002">
        <ele>690.79998779297</ele>
        <time>2016-05-06T13:49:53Z</time>
      </trkpt>
      <trkpt lat="44.36126" lon="5.78006">
        <ele>692</ele>
        <time>2016-05-06T13:49:56Z</time>
      </trkpt>
      <trkpt lat="44.36126" lon="5.78007">
        <ele>692</ele>
        <time>2016-05-06T13:49:58Z</time>
      </trkpt>
      <trkpt lat="44.36129" lon="5.7801">
        <ele>692.59997558594</ele>
        <time>2016-05-06T13:50:01Z</time>
      </trkpt>
      <trkpt lat="44.36127" lon="5.78017">
        <ele>692.59997558594</ele>
        <time>2016-05-06T13:50:04Z</time>
      </trkpt>
      <trkpt lat="44.36124" lon="5.78034">
        <ele>693</ele>
        <time>2016-05-06T13:50:11Z</time>
      </trkpt>
      <trkpt lat="44.36124" lon="5.78037">
        <ele>693</ele>
        <time>2016-05-06T13:50:12Z</time>
      </trkpt>
      <trkpt lat="44.36121" lon="5.78048">
        <ele>693.59997558594</ele>
        <time>2016-05-06T13:50:16Z</time>
      </trkpt>
      <trkpt lat="44.3612" lon="5.78054">
        <ele>693.59997558594</ele>
        <time>2016-05-06T13:50:19Z</time>
      </trkpt>
      <trkpt lat="44.36121" lon="5.78057">
        <ele>694</ele>
        <time>2016-05-06T13:50:21Z</time>
      </trkpt>
      <trkpt lat="44.36122" lon="5.78069">
        <ele>694</ele>
        <time>2016-05-06T13:50:25Z</time>
      </trkpt>
      <trkpt lat="44.36123" lon="5.78072">
        <ele>694.79998779297</ele>
        <time>2016-05-06T13:50:26Z</time>
      </trkpt>
      <trkpt lat="44.36126" lon="5.78084">
        <ele>695.20001220703</ele>
        <time>2016-05-06T13:50:31Z</time>
      </trkpt>
      <trkpt lat="44.36127" lon="5.78088">
        <ele>695.20001220703</ele>
        <time>2016-05-06T13:50:33Z</time>
      </trkpt>
      <trkpt lat="44.36129" lon="5.78093">
        <ele>696.20001220703</ele>
        <time>2016-05-06T13:50:36Z</time>
      </trkpt>
      <trkpt lat="44.36137" lon="5.781">
        <ele>697</ele>
        <time>2016-05-06T13:50:41Z</time>
      </trkpt>
      <trkpt lat="44.36139" lon="5.78103">
        <ele>697</ele>
        <time>2016-05-06T13:50:42Z</time>
      </trkpt>
      <trkpt lat="44.36143" lon="5.78114">
        <ele>697.59997558594</ele>
        <time>2016-05-06T13:50:47Z</time>
      </trkpt>
      <trkpt lat="44.36142" lon="5.78118">
        <ele>697.59997558594</ele>
        <time>2016-05-06T13:50:50Z</time>
      </trkpt>
      <trkpt lat="44.36143" lon="5.78122">
        <ele>698</ele>
        <time>2016-05-06T13:50:52Z</time>
      </trkpt>
      <trkpt lat="44.36145" lon="5.78133">
        <ele>699.20001220703</ele>
        <time>2016-05-06T13:50:58Z</time>
      </trkpt>
      <trkpt lat="44.36145" lon="5.78139">
        <ele>699.20001220703</ele>
        <time>2016-05-06T13:51:01Z</time>
      </trkpt>
      <trkpt lat="44.36138" lon="5.7815">
        <ele>700</ele>
        <time>2016-05-06T13:51:05Z</time>
      </trkpt>
      <trkpt lat="44.36134" lon="5.78153">
        <ele>700</ele>
        <time>2016-05-06T13:51:06Z</time>
      </trkpt>
      <trkpt lat="44.36122" lon="5.78162">
        <ele>700</ele>
        <time>2016-05-06T13:51:10Z</time>
      </trkpt>
      <trkpt lat="44.36121" lon="5.78163">
        <ele>700.59997558594</ele>
        <time>2016-05-06T13:51:11Z</time>
      </trkpt>
      <trkpt lat="44.3611" lon="5.78167">
        <ele>702.20001220703</ele>
        <time>2016-05-06T13:51:16Z</time>
      </trkpt>
      <trkpt lat="44.36095" lon="5.7817">
        <ele>702.20001220703</ele>
        <time>2016-05-06T13:51:23Z</time>
      </trkpt>
      <trkpt lat="44.36092" lon="5.78171">
        <ele>702.20001220703</ele>
        <time>2016-05-06T13:51:25Z</time>
      </trkpt>
      <trkpt lat="44.3609" lon="5.78174">
        <ele>702.20001220703</ele>
        <time>2016-05-06T13:51:27Z</time>
      </trkpt>
      <trkpt lat="44.36091" lon="5.78188">
        <ele>702.20001220703</ele>
        <time>2016-05-06T13:51:31Z</time>
      </trkpt>
      <trkpt lat="44.3609" lon="5.78189">
        <ele>702.20001220703</ele>
        <time>2016-05-06T13:51:35Z</time>
      </trkpt>
      <trkpt lat="44.36089" lon="5.78189">
        <ele>701</ele>
        <time>2016-05-06T13:51:37Z</time>
      </trkpt>
      <trkpt lat="44.36086" lon="5.78192">
        <ele>700.59997558594</ele>
        <time>2016-05-06T13:51:42Z</time>
      </trkpt>
      <trkpt lat="44.36086" lon="5.78194">
        <ele>700.59997558594</ele>
        <time>2016-05-06T13:51:44Z</time>
      </trkpt>
      <trkpt lat="44.36085" lon="5.78196">
        <ele>699.59997558594</ele>
        <time>2016-05-06T13:51:47Z</time>
      </trkpt>
      <trkpt lat="44.36084" lon="5.78198">
        <ele>699.59997558594</ele>
        <time>2016-05-06T13:51:51Z</time>
      </trkpt>
      <trkpt lat="44.36083" lon="5.782">
        <ele>700</ele>
        <time>2016-05-06T13:51:57Z</time>
      </trkpt>
      <trkpt lat="44.36083" lon="5.78201">
        <ele>700.59997558594</ele>
        <time>2016-05-06T13:52:02Z</time>
      </trkpt>
      <trkpt lat="44.36082" lon="5.78201">
        <ele>701</ele>
        <time>2016-05-06T13:52:06Z</time>
      </trkpt>
      <trkpt lat="44.36082" lon="5.78202">
        <ele>701.40002441406</ele>
        <time>2016-05-06T13:52:11Z</time>
      </trkpt>
      <trkpt lat="44.36081" lon="5.78202">
        <ele>702.40002441406</ele>
        <time>2016-05-06T13:52:16Z</time>
      </trkpt>
      <trkpt lat="44.3608" lon="5.78204">
        <ele>702.79998779297</ele>
        <time>2016-05-06T13:52:21Z</time>
      </trkpt>
      <trkpt lat="44.36077" lon="5.78207">
        <ele>703.20001220703</ele>
        <time>2016-05-06T13:52:26Z</time>
      </trkpt>
      <trkpt lat="44.36075" lon="5.78208">
        <ele>703.20001220703</ele>
        <time>2016-05-06T13:52:29Z</time>
      </trkpt>
      <trkpt lat="44.36075" lon="5.78208">
        <ele>703.79998779297</ele>
        <time>2016-05-06T13:52:30Z</time>
      </trkpt>
      <trkpt lat="44.3607" lon="5.78207">
        <ele>703.79998779297</ele>
        <time>2016-05-06T13:52:33Z</time>
      </trkpt>
      <trkpt lat="44.36064" lon="5.7821">
        <ele>704.20001220703</ele>
        <time>2016-05-06T13:52:35Z</time>
      </trkpt>
      <trkpt lat="44.36055" lon="5.78219">
        <ele>704.20001220703</ele>
        <time>2016-05-06T13:52:38Z</time>
      </trkpt>
      <trkpt lat="44.36052" lon="5.78225">
        <ele>705.20001220703</ele>
        <time>2016-05-06T13:52:40Z</time>
      </trkpt>
      <trkpt lat="44.36051" lon="5.78228">
        <ele>705.20001220703</ele>
        <time>2016-05-06T13:52:41Z</time>
      </trkpt>
      <trkpt lat="44.3605" lon="5.7823">
        <ele>705.20001220703</ele>
        <time>2016-05-06T13:52:42Z</time>
      </trkpt>
      <trkpt lat="44.36049" lon="5.78237">
        <ele>705.79998779297</ele>
        <time>2016-05-06T13:52:45Z</time>
      </trkpt>
      <trkpt lat="44.36044" lon="5.78247">
        <ele>706.20001220703</ele>
        <time>2016-05-06T13:52:50Z</time>
      </trkpt>
      <trkpt lat="44.36037" lon="5.78261">
        <ele>706.20001220703</ele>
        <time>2016-05-06T13:52:57Z</time>
      </trkpt>
      <trkpt lat="44.36033" lon="5.78263">
        <ele>706.79998779297</ele>
        <time>2016-05-06T13:52:59Z</time>
      </trkpt>
      <trkpt lat="44.36026" lon="5.78269">
        <ele>706.79998779297</ele>
        <time>2016-05-06T13:53:02Z</time>
      </trkpt>
      <trkpt lat="44.36016" lon="5.78276">
        <ele>707.20001220703</ele>
        <time>2016-05-06T13:53:05Z</time>
      </trkpt>
      <trkpt lat="44.36005" lon="5.78279">
        <ele>707.20001220703</ele>
        <time>2016-05-06T13:53:08Z</time>
      </trkpt>
      <trkpt lat="44.36003" lon="5.78279">
        <ele>708</ele>
        <time>2016-05-06T13:53:09Z</time>
      </trkpt>
      <trkpt lat="44.35993" lon="5.78278">
        <ele>708.59997558594</ele>
        <time>2016-05-06T13:53:14Z</time>
      </trkpt>
      <trkpt lat="44.35992" lon="5.78278">
        <ele>708.59997558594</ele>
        <time>2016-05-06T13:53:15Z</time>
      </trkpt>
      <trkpt lat="44.35987" lon="5.78279">
        <ele>709</ele>
        <time>2016-05-06T13:53:19Z</time>
      </trkpt>
      <trkpt lat="44.35985" lon="5.78279">
        <ele>709.40002441406</ele>
        <time>2016-05-06T13:53:23Z</time>
      </trkpt>
      <trkpt lat="44.35985" lon="5.78279">
        <ele>709.40002441406</ele>
        <time>2016-05-06T13:53:24Z</time>
      </trkpt>
      <trkpt lat="44.35984" lon="5.78279">
        <ele>709.79998779297</ele>
        <time>2016-05-06T13:53:28Z</time>
      </trkpt>
      <trkpt lat="44.35984" lon="5.78279">
        <ele>709.79998779297</ele>
        <time>2016-05-06T13:53:34Z</time>
      </trkpt>
      <trkpt lat="44.35984" lon="5.78279">
        <ele>710.40002441406</ele>
        <time>2016-05-06T13:53:38Z</time>
      </trkpt>
      <trkpt lat="44.35984" lon="5.78279">
        <ele>711.20001220703</ele>
        <time>2016-05-06T13:53:43Z</time>
      </trkpt>
      <trkpt lat="44.35984" lon="5.78279">
        <ele>712.79998779297</ele>
        <time>2016-05-06T13:53:52Z</time>
      </trkpt>
      <trkpt lat="44.35984" lon="5.78279">
        <ele>714.59997558594</ele>
        <time>2016-05-06T13:53:58Z</time>
      </trkpt>
      <trkpt lat="44.35984" lon="5.78279">
        <ele>715.20001220703</ele>
        <time>2016-05-06T13:54:03Z</time>
      </trkpt>
      <trkpt lat="44.35984" lon="5.78279">
        <ele>716</ele>
        <time>2016-05-06T13:54:08Z</time>
      </trkpt>
      <trkpt lat="44.35984" lon="5.78279">
        <ele>716.59997558594</ele>
        <time>2016-05-06T13:54:13Z</time>
      </trkpt>
      <trkpt lat="44.35984" lon="5.78279">
        <ele>717.40002441406</ele>
        <time>2016-05-06T13:54:18Z</time>
      </trkpt>
      <trkpt lat="44.35984" lon="5.78279">
        <ele>718</ele>
        <time>2016-05-06T13:54:22Z</time>
      </trkpt>
      <trkpt lat="44.35984" lon="5.78279">
        <ele>718.79998779297</ele>
        <time>2016-05-06T13:54:27Z</time>
      </trkpt>
      <trkpt lat="44.35984" lon="5.78279">
        <ele>719.59997558594</ele>
        <time>2016-05-06T13:54:32Z</time>
      </trkpt>
      <trkpt lat="44.35984" lon="5.78279">
        <ele>720.40002441406</ele>
        <time>2016-05-06T13:54:37Z</time>
      </trkpt>
      <trkpt lat="44.35984" lon="5.78279">
        <ele>721.20001220703</ele>
        <time>2016-05-06T13:54:41Z</time>
      </trkpt>
      <trkpt lat="44.35984" lon="5.78279">
        <ele>722</ele>
        <time>2016-05-06T13:54:47Z</time>
      </trkpt>
      <trkpt lat="44.35984" lon="5.78279">
        <ele>722.59997558594</ele>
        <time>2016-05-06T13:54:51Z</time>
      </trkpt>
      <trkpt lat="44.35984" lon="5.78279">
        <ele>723.79998779297</ele>
        <time>2016-05-06T13:54:56Z</time>
      </trkpt>
      <trkpt lat="44.35977" lon="5.78282">
        <ele>724.40002441406</ele>
        <time>2016-05-06T13:55:01Z</time>
      </trkpt>
      <trkpt lat="44.35973" lon="5.78284">
        <ele>724.40002441406</ele>
        <time>2016-05-06T13:55:02Z</time>
      </trkpt>
      <trkpt lat="44.3596" lon="5.78295">
        <ele>723.79998779297</ele>
        <time>2016-05-06T13:55:06Z</time>
      </trkpt>
      <trkpt lat="44.35952" lon="5.78307">
        <ele>723.79998779297</ele>
        <time>2016-05-06T13:55:09Z</time>
      </trkpt>
      <trkpt lat="44.35942" lon="5.78318">
        <ele>722.79998779297</ele>
        <time>2016-05-06T13:55:11Z</time>
      </trkpt>
      <trkpt lat="44.35937" lon="5.78328">
        <ele>722.79998779297</ele>
        <time>2016-05-06T13:55:14Z</time>
      </trkpt>
      <trkpt lat="44.35933" lon="5.78334">
        <ele>721</ele>
        <time>2016-05-06T13:55:16Z</time>
      </trkpt>
      <trkpt lat="44.35929" lon="5.78342">
        <ele>721</ele>
        <time>2016-05-06T13:55:18Z</time>
      </trkpt>
      <trkpt lat="44.35924" lon="5.78351">
        <ele>716.59997558594</ele>
        <time>2016-05-06T13:55:20Z</time>
      </trkpt>
      <trkpt lat="44.3591" lon="5.7836">
        <ele>716.59997558594</ele>
        <time>2016-05-06T13:55:23Z</time>
      </trkpt>
      <trkpt lat="44.35898" lon="5.78368">
        <ele>712</ele>
        <time>2016-05-06T13:55:25Z</time>
      </trkpt>
      <trkpt lat="44.35882" lon="5.7838">
        <ele>712</ele>
        <time>2016-05-06T13:55:28Z</time>
      </trkpt>
      <trkpt lat="44.35877" lon="5.7839">
        <ele>708.40002441406</ele>
        <time>2016-05-06T13:55:30Z</time>
      </trkpt>
      <trkpt lat="44.35876" lon="5.78399">
        <ele>708.40002441406</ele>
        <time>2016-05-06T13:55:32Z</time>
      </trkpt>
      <trkpt lat="44.35876" lon="5.78408">
        <ele>706.59997558594</ele>
        <time>2016-05-06T13:55:35Z</time>
      </trkpt>
      <trkpt lat="44.35875" lon="5.78414">
        <ele>706.59997558594</ele>
        <time>2016-05-06T13:55:37Z</time>
      </trkpt>
      <trkpt lat="44.35871" lon="5.78421">
        <ele>704.79998779297</ele>
        <time>2016-05-06T13:55:40Z</time>
      </trkpt>
      <trkpt lat="44.35858" lon="5.78427">
        <ele>704.79998779297</ele>
        <time>2016-05-06T13:55:44Z</time>
      </trkpt>
      <trkpt lat="44.35854" lon="5.78428">
        <ele>702.79998779297</ele>
        <time>2016-05-06T13:55:45Z</time>
      </trkpt>
      <trkpt lat="44.35848" lon="5.7843">
        <ele>702.79998779297</ele>
        <time>2016-05-06T13:55:46Z</time>
      </trkpt>
      <trkpt lat="44.35842" lon="5.78433">
        <ele>702.79998779297</ele>
        <time>2016-05-06T13:55:47Z</time>
      </trkpt>
      <trkpt lat="44.3583" lon="5.78439">
        <ele>702.40002441406</ele>
        <time>2016-05-06T13:55:49Z</time>
      </trkpt>
      <trkpt lat="44.35809" lon="5.78443">
        <ele>702.40002441406</ele>
        <time>2016-05-06T13:55:52Z</time>
      </trkpt>
      <trkpt lat="44.35796" lon="5.78447">
        <ele>701.20001220703</ele>
        <time>2016-05-06T13:55:54Z</time>
      </trkpt>
      <trkpt lat="44.35767" lon="5.78453">
        <ele>701.20001220703</ele>
        <time>2016-05-06T13:55:58Z</time>
      </trkpt>
      <trkpt lat="44.35755" lon="5.78455">
        <ele>700.40002441406</ele>
        <time>2016-05-06T13:56:00Z</time>
      </trkpt>
      <trkpt lat="44.35738" lon="5.78456">
        <ele>700.40002441406</ele>
        <time>2016-05-06T13:56:03Z</time>
      </trkpt>
      <trkpt lat="44.35706" lon="5.78459">
        <ele>700.40002441406</ele>
        <time>2016-05-06T13:56:08Z</time>
      </trkpt>
      <trkpt lat="44.35696" lon="5.78463">
        <ele>700.40002441406</ele>
        <time>2016-05-06T13:56:10Z</time>
      </trkpt>
      <trkpt lat="44.35686" lon="5.78471">
        <ele>700.40002441406</ele>
        <time>2016-05-06T13:56:12Z</time>
      </trkpt>
      <trkpt lat="44.3567" lon="5.78486">
        <ele>698.59997558594</ele>
        <time>2016-05-06T13:56:15Z</time>
      </trkpt>
      <trkpt lat="44.35647" lon="5.78513">
        <ele>698.59997558594</ele>
        <time>2016-05-06T13:56:20Z</time>
      </trkpt>
      <trkpt lat="44.35618" lon="5.7854">
        <ele>697.59997558594</ele>
        <time>2016-05-06T13:56:26Z</time>
      </trkpt>
      <trkpt lat="44.35607" lon="5.78548">
        <ele>697.59997558594</ele>
        <time>2016-05-06T13:56:28Z</time>
      </trkpt>
      <trkpt lat="44.35593" lon="5.78562">
        <ele>696.59997558594</ele>
        <time>2016-05-06T13:56:31Z</time>
      </trkpt>
      <trkpt lat="44.35575" lon="5.78585">
        <ele>696.59997558594</ele>
        <time>2016-05-06T13:56:35Z</time>
      </trkpt>
      <trkpt lat="44.35569" lon="5.78591">
        <ele>695.40002441406</ele>
        <time>2016-05-06T13:56:36Z</time>
      </trkpt>
      <trkpt lat="44.35547" lon="5.7862">
        <ele>695.40002441406</ele>
        <time>2016-05-06T13:56:40Z</time>
      </trkpt>
      <trkpt lat="44.35541" lon="5.78628">
        <ele>693.59997558594</ele>
        <time>2016-05-06T13:56:41Z</time>
      </trkpt>
      <trkpt lat="44.35527" lon="5.78651">
        <ele>693.59997558594</ele>
        <time>2016-05-06T13:56:44Z</time>
      </trkpt>
      <trkpt lat="44.35512" lon="5.78671">
        <ele>693.59997558594</ele>
        <time>2016-05-06T13:56:47Z</time>
      </trkpt>
      <trkpt lat="44.35506" lon="5.78673">
        <ele>693.59997558594</ele>
        <time>2016-05-06T13:56:48Z</time>
      </trkpt>
      <trkpt lat="44.35485" lon="5.78673">
        <ele>693.59997558594</ele>
        <time>2016-05-06T13:56:51Z</time>
      </trkpt>
      <trkpt lat="44.35478" lon="5.78675">
        <ele>693.59997558594</ele>
        <time>2016-05-06T13:56:52Z</time>
      </trkpt>
      <trkpt lat="44.35448" lon="5.78694">
        <ele>692</ele>
        <time>2016-05-06T13:56:56Z</time>
      </trkpt>
      <trkpt lat="44.35418" lon="5.78692">
        <ele>689.59997558594</ele>
        <time>2016-05-06T13:57:00Z</time>
      </trkpt>
      <trkpt lat="44.35412" lon="5.78689">
        <ele>689.59997558594</ele>
        <time>2016-05-06T13:57:01Z</time>
      </trkpt>
      <trkpt lat="44.354" lon="5.78674">
        <ele>689.59997558594</ele>
        <time>2016-05-06T13:57:04Z</time>
      </trkpt>
      <trkpt lat="44.35397" lon="5.78667">
        <ele>686.59997558594</ele>
        <time>2016-05-06T13:57:05Z</time>
      </trkpt>
      <trkpt lat="44.35393" lon="5.78661">
        <ele>683.40002441406</ele>
        <time>2016-05-06T13:57:06Z</time>
      </trkpt>
      <trkpt lat="44.35383" lon="5.78649">
        <ele>683.40002441406</ele>
        <time>2016-05-06T13:57:09Z</time>
      </trkpt>
      <trkpt lat="44.35379" lon="5.78648">
        <ele>680.40002441406</ele>
        <time>2016-05-06T13:57:11Z</time>
      </trkpt>
      <trkpt lat="44.35376" lon="5.7865">
        <ele>680.40002441406</ele>
        <time>2016-05-06T13:57:13Z</time>
      </trkpt>
      <trkpt lat="44.35376" lon="5.78648">
        <ele>677.40002441406</ele>
        <time>2016-05-06T13:57:16Z</time>
      </trkpt>
      <trkpt lat="44.35376" lon="5.78648">
        <ele>677.40002441406</ele>
        <time>2016-05-06T13:57:18Z</time>
      </trkpt>
      <trkpt lat="44.35376" lon="5.78647">
        <ele>671.40002441406</ele>
        <time>2016-05-06T13:57:21Z</time>
      </trkpt>
      <trkpt lat="44.35376" lon="5.78647">
        <ele>671.79998779297</ele>
        <time>2016-05-06T13:57:30Z</time>
      </trkpt>
      <trkpt lat="44.35376" lon="5.78648">
        <ele>672.20001220703</ele>
        <time>2016-05-06T13:57:34Z</time>
      </trkpt>
      <trkpt lat="44.35376" lon="5.78648">
        <ele>672.20001220703</ele>
        <time>2016-05-06T13:57:37Z</time>
      </trkpt>
      <trkpt lat="44.35376" lon="5.78648">
        <ele>672.79998779297</ele>
        <time>2016-05-06T13:57:39Z</time>
      </trkpt>
      <trkpt lat="44.35376" lon="5.78649">
        <ele>673.20001220703</ele>
        <time>2016-05-06T13:57:44Z</time>
      </trkpt>
      <trkpt lat="44.35376" lon="5.78652">
        <ele>674.59997558594</ele>
        <time>2016-05-06T13:57:49Z</time>
      </trkpt>
      <trkpt lat="44.35376" lon="5.78652">
        <ele>675.20001220703</ele>
        <time>2016-05-06T13:57:53Z</time>
      </trkpt>
      <trkpt lat="44.35377" lon="5.78654">
        <ele>676</ele>
        <time>2016-05-06T13:57:58Z</time>
      </trkpt>
      <trkpt lat="44.35377" lon="5.78655">
        <ele>676.79998779297</ele>
        <time>2016-05-06T13:58:02Z</time>
      </trkpt>
      <trkpt lat="44.35378" lon="5.78656">
        <ele>677.59997558594</ele>
        <time>2016-05-06T13:58:07Z</time>
      </trkpt>
      <trkpt lat="44.35378" lon="5.78658">
        <ele>678.40002441406</ele>
        <time>2016-05-06T13:58:11Z</time>
      </trkpt>
      <trkpt lat="44.35378" lon="5.78659">
        <ele>679.20001220703</ele>
        <time>2016-05-06T13:58:12Z</time>
      </trkpt>
      <trkpt lat="44.35378" lon="5.78659">
        <ele>680</ele>
        <time>2016-05-06T13:58:16Z</time>
      </trkpt>
      <trkpt lat="44.35378" lon="5.78659">
        <ele>680.79998779297</ele>
        <time>2016-05-06T13:58:21Z</time>
      </trkpt>
      <trkpt lat="44.35378" lon="5.78659">
        <ele>681.59997558594</ele>
        <time>2016-05-06T13:58:25Z</time>
      </trkpt>
      <trkpt lat="44.35378" lon="5.78659">
        <ele>682.40002441406</ele>
        <time>2016-05-06T13:58:35Z</time>
      </trkpt>
      <trkpt lat="44.35378" lon="5.78659">
        <ele>682.79998779297</ele>
        <time>2016-05-06T13:58:39Z</time>
      </trkpt>
      <trkpt lat="44.35378" lon="5.78659">
        <ele>683.20001220703</ele>
        <time>2016-05-06T13:58:44Z</time>
      </trkpt>
      <trkpt lat="44.35378" lon="5.78659">
        <ele>683.59997558594</ele>
        <time>2016-05-06T13:58:49Z</time>
      </trkpt>
      <trkpt lat="44.35378" lon="5.7866">
        <ele>683.59997558594</ele>
        <time>2016-05-06T13:59:07Z</time>
      </trkpt>
      <trkpt lat="44.35373" lon="5.78665">
        <ele>683.59997558594</ele>
        <time>2016-05-06T13:59:17Z</time>
      </trkpt>
      <trkpt lat="44.35359" lon="5.78685">
        <ele>684.20001220703</ele>
        <time>2016-05-06T13:59:24Z</time>
      </trkpt>
      <trkpt lat="44.35355" lon="5.78691">
        <ele>684.20001220703</ele>
        <time>2016-05-06T13:59:26Z</time>
      </trkpt>
      <trkpt lat="44.35351" lon="5.78698">
        <ele>684.59997558594</ele>
        <time>2016-05-06T13:59:28Z</time>
      </trkpt>
      <trkpt lat="44.35337" lon="5.78733">
        <ele>685.40002441406</ele>
        <time>2016-05-06T13:59:33Z</time>
      </trkpt>
      <trkpt lat="44.35333" lon="5.78736">
        <ele>685.40002441406</ele>
        <time>2016-05-06T13:59:35Z</time>
      </trkpt>
      <trkpt lat="44.35328" lon="5.78738">
        <ele>686.79998779297</ele>
        <time>2016-05-06T13:59:38Z</time>
      </trkpt>
      <trkpt lat="44.35322" lon="5.78739">
        <ele>687.59997558594</ele>
        <time>2016-05-06T13:59:42Z</time>
      </trkpt>
      <trkpt lat="44.3532" lon="5.7874">
        <ele>687.59997558594</ele>
        <time>2016-05-06T13:59:44Z</time>
      </trkpt>
      <trkpt lat="44.35315" lon="5.7874">
        <ele>688.20001220703</ele>
        <time>2016-05-06T13:59:47Z</time>
      </trkpt>
      <trkpt lat="44.35308" lon="5.78739">
        <ele>689.40002441406</ele>
        <time>2016-05-06T13:59:52Z</time>
      </trkpt>
      <trkpt lat="44.35303" lon="5.78737">
        <ele>689.40002441406</ele>
        <time>2016-05-06T13:59:55Z</time>
      </trkpt>
      <trkpt lat="44.35302" lon="5.78736">
        <ele>690</ele>
        <time>2016-05-06T13:59:56Z</time>
      </trkpt>
      <trkpt lat="44.35294" lon="5.78734">
        <ele>690.59997558594</ele>
        <time>2016-05-06T14:00:01Z</time>
      </trkpt>
      <trkpt lat="44.35288" lon="5.78732">
        <ele>691.20001220703</ele>
        <time>2016-05-06T14:00:06Z</time>
      </trkpt>
      <trkpt lat="44.35284" lon="5.78732">
        <ele>691.20001220703</ele>
        <time>2016-05-06T14:00:09Z</time>
      </trkpt>
      <trkpt lat="44.35283" lon="5.78732">
        <ele>691.79998779297</ele>
        <time>2016-05-06T14:00:10Z</time>
      </trkpt>
      <trkpt lat="44.35276" lon="5.78728">
        <ele>692.40002441406</ele>
        <time>2016-05-06T14:00:15Z</time>
      </trkpt>
      <trkpt lat="44.35275" lon="5.78728">
        <ele>692.40002441406</ele>
        <time>2016-05-06T14:00:16Z</time>
      </trkpt>
      <trkpt lat="44.35272" lon="5.78724">
        <ele>693.20001220703</ele>
        <time>2016-05-06T14:00:19Z</time>
      </trkpt>
      <trkpt lat="44.35267" lon="5.78722">
        <ele>693.79998779297</ele>
        <time>2016-05-06T14:00:24Z</time>
      </trkpt>
      <trkpt lat="44.35266" lon="5.78722">
        <ele>693.79998779297</ele>
        <time>2016-05-06T14:00:25Z</time>
      </trkpt>
      <trkpt lat="44.35266" lon="5.78718">
        <ele>694.59997558594</ele>
        <time>2016-05-06T14:00:29Z</time>
      </trkpt>
      <trkpt lat="44.35266" lon="5.78717">
        <ele>694.59997558594</ele>
        <time>2016-05-06T14:00:30Z</time>
      </trkpt>
      <trkpt lat="44.35266" lon="5.78715">
        <ele>694.59997558594</ele>
        <time>2016-05-06T14:00:31Z</time>
      </trkpt>
      <trkpt lat="44.35268" lon="5.78711">
        <ele>695.79998779297</ele>
        <time>2016-05-06T14:00:34Z</time>
      </trkpt>
      <trkpt lat="44.3527" lon="5.78701">
        <ele>697.20001220703</ele>
        <time>2016-05-06T14:00:39Z</time>
      </trkpt>
      <trkpt lat="44.35271" lon="5.78694">
        <ele>697.59997558594</ele>
        <time>2016-05-06T14:00:43Z</time>
      </trkpt>
      <trkpt lat="44.35273" lon="5.7869">
        <ele>697.59997558594</ele>
        <time>2016-05-06T14:00:46Z</time>
      </trkpt>
      <trkpt lat="44.35274" lon="5.78688">
        <ele>698.20001220703</ele>
        <time>2016-05-06T14:00:48Z</time>
      </trkpt>
      <trkpt lat="44.35275" lon="5.78679">
        <ele>699</ele>
        <time>2016-05-06T14:00:53Z</time>
      </trkpt>
      <trkpt lat="44.35276" lon="5.78674">
        <ele>699</ele>
        <time>2016-05-06T14:00:56Z</time>
      </trkpt>
      <trkpt lat="44.35276" lon="5.7867">
        <ele>700</ele>
        <time>2016-05-06T14:00:58Z</time>
      </trkpt>
      <trkpt lat="44.35276" lon="5.78664">
        <ele>700.59997558594</ele>
        <time>2016-05-06T14:01:02Z</time>
      </trkpt>
      <trkpt lat="44.35276" lon="5.78663">
        <ele>700.59997558594</ele>
        <time>2016-05-06T14:01:03Z</time>
      </trkpt>
      <trkpt lat="44.35274" lon="5.78656">
        <ele>700.59997558594</ele>
        <time>2016-05-06T14:01:06Z</time>
      </trkpt>
      <trkpt lat="44.35273" lon="5.78655">
        <ele>701.20001220703</ele>
        <time>2016-05-06T14:01:07Z</time>
      </trkpt>
      <trkpt lat="44.35271" lon="5.78652">
        <ele>701.20001220703</ele>
        <time>2016-05-06T14:01:09Z</time>
      </trkpt>
      <trkpt lat="44.35268" lon="5.78648">
        <ele>702</ele>
        <time>2016-05-06T14:01:12Z</time>
      </trkpt>
      <trkpt lat="44.35266" lon="5.78644">
        <ele>702</ele>
        <time>2016-05-06T14:01:15Z</time>
      </trkpt>
      <trkpt lat="44.35266" lon="5.78642">
        <ele>702.59997558594</ele>
        <time>2016-05-06T14:01:16Z</time>
      </trkpt>
      <trkpt lat="44.35266" lon="5.7864">
        <ele>702.59997558594</ele>
        <time>2016-05-06T14:01:17Z</time>
      </trkpt>
      <trkpt lat="44.35265" lon="5.78631">
        <ele>703</ele>
        <time>2016-05-06T14:01:21Z</time>
      </trkpt>
      <trkpt lat="44.35266" lon="5.78622">
        <ele>703.79998779297</ele>
        <time>2016-05-06T14:01:26Z</time>
      </trkpt>
      <trkpt lat="44.35265" lon="5.78616">
        <ele>703.79998779297</ele>
        <time>2016-05-06T14:01:28Z</time>
      </trkpt>
      <trkpt lat="44.35264" lon="5.78611">
        <ele>704.20001220703</ele>
        <time>2016-05-06T14:01:30Z</time>
      </trkpt>
      <trkpt lat="44.3526" lon="5.78605">
        <ele>704.20001220703</ele>
        <time>2016-05-06T14:01:33Z</time>
      </trkpt>
      <trkpt lat="44.35259" lon="5.78605">
        <ele>704.20001220703</ele>
        <time>2016-05-06T14:01:34Z</time>
      </trkpt>
      <trkpt lat="44.35257" lon="5.78605">
        <ele>704.59997558594</ele>
        <time>2016-05-06T14:01:35Z</time>
      </trkpt>
      <trkpt lat="44.35255" lon="5.78604">
        <ele>705</ele>
        <time>2016-05-06T14:01:36Z</time>
      </trkpt>
      <trkpt lat="44.3525" lon="5.78604">
        <ele>705</ele>
        <time>2016-05-06T14:01:39Z</time>
      </trkpt>
      <trkpt lat="44.35247" lon="5.78603">
        <ele>705.40002441406</ele>
        <time>2016-05-06T14:01:41Z</time>
      </trkpt>
      <trkpt lat="44.35241" lon="5.78595">
        <ele>706.40002441406</ele>
        <time>2016-05-06T14:01:47Z</time>
      </trkpt>
      <trkpt lat="44.35241" lon="5.78593">
        <ele>707</ele>
        <time>2016-05-06T14:01:48Z</time>
      </trkpt>
      <trkpt lat="44.35242" lon="5.78585">
        <ele>707</ele>
        <time>2016-05-06T14:01:52Z</time>
      </trkpt>
      <trkpt lat="44.35242" lon="5.78581">
        <ele>707.40002441406</ele>
        <time>2016-05-06T14:01:54Z</time>
      </trkpt>
      <trkpt lat="44.35244" lon="5.78574">
        <ele>708</ele>
        <time>2016-05-06T14:01:58Z</time>
      </trkpt>
      <trkpt lat="44.35245" lon="5.78567">
        <ele>708</ele>
        <time>2016-05-06T14:02:02Z</time>
      </trkpt>
      <trkpt lat="44.35245" lon="5.78565">
        <ele>708.59997558594</ele>
        <time>2016-05-06T14:02:03Z</time>
      </trkpt>
      <trkpt lat="44.35245" lon="5.78563">
        <ele>709</ele>
        <time>2016-05-06T14:02:04Z</time>
      </trkpt>
      <trkpt lat="44.35242" lon="5.78557">
        <ele>709.59997558594</ele>
        <time>2016-05-06T14:02:08Z</time>
      </trkpt>
      <trkpt lat="44.3524" lon="5.78554">
        <ele>709.59997558594</ele>
        <time>2016-05-06T14:02:11Z</time>
      </trkpt>
      <trkpt lat="44.35238" lon="5.78553">
        <ele>710.20001220703</ele>
        <time>2016-05-06T14:02:13Z</time>
      </trkpt>
      <trkpt lat="44.35234" lon="5.78553">
        <ele>711.20001220703</ele>
        <time>2016-05-06T14:02:18Z</time>
      </trkpt>
      <trkpt lat="44.35232" lon="5.78554">
        <ele>711.20001220703</ele>
        <time>2016-05-06T14:02:20Z</time>
      </trkpt>
      <trkpt lat="44.35229" lon="5.78556">
        <ele>712.40002441406</ele>
        <time>2016-05-06T14:02:23Z</time>
      </trkpt>
      <trkpt lat="44.35224" lon="5.7856">
        <ele>713</ele>
        <time>2016-05-06T14:02:28Z</time>
      </trkpt>
      <trkpt lat="44.35222" lon="5.78562">
        <ele>713</ele>
        <time>2016-05-06T14:02:30Z</time>
      </trkpt>
      <trkpt lat="44.3522" lon="5.78563">
        <ele>713.59997558594</ele>
        <time>2016-05-06T14:02:32Z</time>
      </trkpt>
      <trkpt lat="44.35217" lon="5.78569">
        <ele>714.20001220703</ele>
        <time>2016-05-06T14:02:37Z</time>
      </trkpt>
      <trkpt lat="44.35215" lon="5.78572">
        <ele>714.20001220703</ele>
        <time>2016-05-06T14:02:40Z</time>
      </trkpt>
      <trkpt lat="44.35213" lon="5.78573">
        <ele>715</ele>
        <time>2016-05-06T14:02:41Z</time>
      </trkpt>
      <trkpt lat="44.35207" lon="5.78573">
        <ele>716.40002441406</ele>
        <time>2016-05-06T14:02:46Z</time>
      </trkpt>
      <trkpt lat="44.35205" lon="5.78573">
        <ele>716.40002441406</ele>
        <time>2016-05-06T14:02:48Z</time>
      </trkpt>
      <trkpt lat="44.35203" lon="5.78574">
        <ele>717</ele>
        <time>2016-05-06T14:02:50Z</time>
      </trkpt>
      <trkpt lat="44.35199" lon="5.78577">
        <ele>717.59997558594</ele>
        <time>2016-05-06T14:02:55Z</time>
      </trkpt>
      <trkpt lat="44.35196" lon="5.7858">
        <ele>718.40002441406</ele>
        <time>2016-05-06T14:02:59Z</time>
      </trkpt>
      <trkpt lat="44.35196" lon="5.78581">
        <ele>718.40002441406</ele>
        <time>2016-05-06T14:03:00Z</time>
      </trkpt>
      <trkpt lat="44.35193" lon="5.78584">
        <ele>719</ele>
        <time>2016-05-06T14:03:04Z</time>
      </trkpt>
      <trkpt lat="44.35189" lon="5.78586">
        <ele>720.59997558594</ele>
        <time>2016-05-06T14:03:09Z</time>
      </trkpt>
      <trkpt lat="44.35186" lon="5.78588">
        <ele>720.59997558594</ele>
        <time>2016-05-06T14:03:12Z</time>
      </trkpt>
      <trkpt lat="44.35185" lon="5.78589">
        <ele>721.40002441406</ele>
        <time>2016-05-06T14:03:13Z</time>
      </trkpt>
      <trkpt lat="44.35181" lon="5.78591">
        <ele>721.40002441406</ele>
        <time>2016-05-06T14:03:17Z</time>
      </trkpt>
      <trkpt lat="44.3518" lon="5.78589">
        <ele>722.20001220703</ele>
        <time>2016-05-06T14:03:18Z</time>
      </trkpt>
      <trkpt lat="44.35179" lon="5.78587">
        <ele>722.20001220703</ele>
        <time>2016-05-06T14:03:20Z</time>
      </trkpt>
      <trkpt lat="44.35179" lon="5.78585">
        <ele>722.79998779297</ele>
        <time>2016-05-06T14:03:22Z</time>
      </trkpt>
      <trkpt lat="44.35177" lon="5.78582">
        <ele>722.79998779297</ele>
        <time>2016-05-06T14:03:25Z</time>
      </trkpt>
      <trkpt lat="44.35175" lon="5.78581">
        <ele>723.40002441406</ele>
        <time>2016-05-06T14:03:27Z</time>
      </trkpt>
      <trkpt lat="44.35174" lon="5.78579">
        <ele>723.40002441406</ele>
        <time>2016-05-06T14:03:29Z</time>
      </trkpt>
      <trkpt lat="44.35172" lon="5.78576">
        <ele>724.20001220703</ele>
        <time>2016-05-06T14:03:32Z</time>
      </trkpt>
      <trkpt lat="44.35168" lon="5.78575">
        <ele>725</ele>
        <time>2016-05-06T14:03:36Z</time>
      </trkpt>
      <trkpt lat="44.35168" lon="5.78575">
        <ele>725</ele>
        <time>2016-05-06T14:03:37Z</time>
      </trkpt>
      <trkpt lat="44.35165" lon="5.78574">
        <ele>725</ele>
        <time>2016-05-06T14:03:40Z</time>
      </trkpt>
      <trkpt lat="44.35164" lon="5.78574">
        <ele>725.79998779297</ele>
        <time>2016-05-06T14:03:41Z</time>
      </trkpt>
      <trkpt lat="44.35161" lon="5.78576">
        <ele>726.59997558594</ele>
        <time>2016-05-06T14:03:46Z</time>
      </trkpt>
      <trkpt lat="44.35159" lon="5.78578">
        <ele>727.40002441406</ele>
        <time>2016-05-06T14:03:50Z</time>
      </trkpt>
      <trkpt lat="44.35159" lon="5.78578">
        <ele>727.40002441406</ele>
        <time>2016-05-06T14:03:54Z</time>
      </trkpt>
      <trkpt lat="44.35159" lon="5.78577">
        <ele>728.20001220703</ele>
        <time>2016-05-06T14:03:55Z</time>
      </trkpt>
      <trkpt lat="44.35159" lon="5.78578">
        <ele>729.20001220703</ele>
        <time>2016-05-06T14:04:00Z</time>
      </trkpt>
      <trkpt lat="44.35156" lon="5.78581">
        <ele>729.20001220703</ele>
        <time>2016-05-06T14:04:05Z</time>
      </trkpt>
      <trkpt lat="44.35152" lon="5.78582">
        <ele>730.59997558594</ele>
        <time>2016-05-06T14:04:11Z</time>
      </trkpt>
      <trkpt lat="44.35148" lon="5.78583">
        <ele>731.40002441406</ele>
        <time>2016-05-06T14:04:16Z</time>
      </trkpt>
      <trkpt lat="44.35144" lon="5.78583">
        <ele>732</ele>
        <time>2016-05-06T14:04:20Z</time>
      </trkpt>
      <trkpt lat="44.3514" lon="5.78584">
        <ele>733</ele>
        <time>2016-05-06T14:04:26Z</time>
      </trkpt>
      <trkpt lat="44.35136" lon="5.78581">
        <ele>733.79998779297</ele>
        <time>2016-05-06T14:04:31Z</time>
      </trkpt>
      <trkpt lat="44.35135" lon="5.78579">
        <ele>733.79998779297</ele>
        <time>2016-05-06T14:04:34Z</time>
      </trkpt>
      <trkpt lat="44.35134" lon="5.78578">
        <ele>734.59997558594</ele>
        <time>2016-05-06T14:04:35Z</time>
      </trkpt>
      <trkpt lat="44.35132" lon="5.78574">
        <ele>735.40002441406</ele>
        <time>2016-05-06T14:04:40Z</time>
      </trkpt>
      <trkpt lat="44.3513" lon="5.78571">
        <ele>735.40002441406</ele>
        <time>2016-05-06T14:04:45Z</time>
      </trkpt>
      <trkpt lat="44.35125" lon="5.78559">
        <ele>736</ele>
        <time>2016-05-06T14:04:59Z</time>
      </trkpt>
      <trkpt lat="44.35127" lon="5.78556">
        <ele>736.59997558594</ele>
        <time>2016-05-06T14:05:04Z</time>
      </trkpt>
      <trkpt lat="44.35128" lon="5.78553">
        <ele>737.79998779297</ele>
        <time>2016-05-06T14:05:09Z</time>
      </trkpt>
      <trkpt lat="44.35129" lon="5.78549">
        <ele>739</ele>
        <time>2016-05-06T14:05:14Z</time>
      </trkpt>
      <trkpt lat="44.35129" lon="5.78546">
        <ele>740.20001220703</ele>
        <time>2016-05-06T14:05:18Z</time>
      </trkpt>
      <trkpt lat="44.35128" lon="5.78541">
        <ele>741</ele>
        <time>2016-05-06T14:05:23Z</time>
      </trkpt>
      <trkpt lat="44.35126" lon="5.78538">
        <ele>742</ele>
        <time>2016-05-06T14:05:27Z</time>
      </trkpt>
      <trkpt lat="44.35126" lon="5.78537">
        <ele>742</ele>
        <time>2016-05-06T14:05:28Z</time>
      </trkpt>
      <trkpt lat="44.35126" lon="5.78533">
        <ele>743.59997558594</ele>
        <time>2016-05-06T14:05:32Z</time>
      </trkpt>
      <trkpt lat="44.35126" lon="5.78528">
        <ele>744.59997558594</ele>
        <time>2016-05-06T14:05:37Z</time>
      </trkpt>
      <trkpt lat="44.35125" lon="5.78525">
        <ele>744.59997558594</ele>
        <time>2016-05-06T14:05:41Z</time>
      </trkpt>
      <trkpt lat="44.35123" lon="5.78521">
        <ele>745.59997558594</ele>
        <time>2016-05-06T14:05:46Z</time>
      </trkpt>
      <trkpt lat="44.35121" lon="5.7852">
        <ele>746.20001220703</ele>
        <time>2016-05-06T14:05:50Z</time>
      </trkpt>
      <trkpt lat="44.3512" lon="5.7852">
        <ele>746.20001220703</ele>
        <time>2016-05-06T14:05:51Z</time>
      </trkpt>
      <trkpt lat="44.35118" lon="5.7852">
        <ele>746.20001220703</ele>
        <time>2016-05-06T14:05:53Z</time>
      </trkpt>
      <trkpt lat="44.35117" lon="5.78521">
        <ele>746.79998779297</ele>
        <time>2016-05-06T14:05:55Z</time>
      </trkpt>
      <trkpt lat="44.35115" lon="5.78525">
        <ele>747.40002441406</ele>
        <time>2016-05-06T14:06:00Z</time>
      </trkpt>
      <trkpt lat="44.35115" lon="5.78526">
        <ele>747.40002441406</ele>
        <time>2016-05-06T14:06:02Z</time>
      </trkpt>
      <trkpt lat="44.35113" lon="5.78528">
        <ele>748.59997558594</ele>
        <time>2016-05-06T14:06:06Z</time>
      </trkpt>
      <trkpt lat="44.3511" lon="5.78532">
        <ele>749.20001220703</ele>
        <time>2016-05-06T14:06:11Z</time>
      </trkpt>
      <trkpt lat="44.35107" lon="5.78535">
        <ele>749.79998779297</ele>
        <time>2016-05-06T14:06:16Z</time>
      </trkpt>
      <trkpt lat="44.35106" lon="5.78535">
        <ele>749.79998779297</ele>
        <time>2016-05-06T14:06:17Z</time>
      </trkpt>
      <trkpt lat="44.35104" lon="5.78536">
        <ele>750.40002441406</ele>
        <time>2016-05-06T14:06:20Z</time>
      </trkpt>
      <trkpt lat="44.351" lon="5.78538">
        <ele>751.79998779297</ele>
        <time>2016-05-06T14:06:25Z</time>
      </trkpt>
      <trkpt lat="44.35096" lon="5.78538">
        <ele>752.40002441406</ele>
        <time>2016-05-06T14:06:30Z</time>
      </trkpt>
      <trkpt lat="44.35094" lon="5.78538">
        <ele>752.40002441406</ele>
        <time>2016-05-06T14:06:32Z</time>
      </trkpt>
      <trkpt lat="44.35092" lon="5.78537">
        <ele>753</ele>
        <time>2016-05-06T14:06:34Z</time>
      </trkpt>
      <trkpt lat="44.35089" lon="5.78535">
        <ele>754</ele>
        <time>2016-05-06T14:06:39Z</time>
      </trkpt>
      <trkpt lat="44.35088" lon="5.78531">
        <ele>754</ele>
        <time>2016-05-06T14:06:43Z</time>
      </trkpt>
      <trkpt lat="44.35088" lon="5.78529">
        <ele>754.59997558594</ele>
        <time>2016-05-06T14:06:44Z</time>
      </trkpt>
      <trkpt lat="44.35086" lon="5.78525">
        <ele>755.20001220703</ele>
        <time>2016-05-06T14:06:48Z</time>
      </trkpt>
      <trkpt lat="44.35085" lon="5.7852">
        <ele>756.40002441406</ele>
        <time>2016-05-06T14:06:53Z</time>
      </trkpt>
      <trkpt lat="44.35084" lon="5.78515">
        <ele>756.40002441406</ele>
        <time>2016-05-06T14:06:57Z</time>
      </trkpt>
      <trkpt lat="44.35083" lon="5.78514">
        <ele>757.20001220703</ele>
        <time>2016-05-06T14:06:58Z</time>
      </trkpt>
      <trkpt lat="44.35083" lon="5.78509">
        <ele>757.79998779297</ele>
        <time>2016-05-06T14:07:02Z</time>
      </trkpt>
      <trkpt lat="44.35081" lon="5.78503">
        <ele>758.40002441406</ele>
        <time>2016-05-06T14:07:07Z</time>
      </trkpt>
      <trkpt lat="44.35078" lon="5.78499">
        <ele>759</ele>
        <time>2016-05-06T14:07:12Z</time>
      </trkpt>
      <trkpt lat="44.35078" lon="5.78498">
        <ele>759</ele>
        <time>2016-05-06T14:07:13Z</time>
      </trkpt>
      <trkpt lat="44.35076" lon="5.78493">
        <ele>760</ele>
        <time>2016-05-06T14:07:18Z</time>
      </trkpt>
      <trkpt lat="44.35076" lon="5.78488">
        <ele>761.20001220703</ele>
        <time>2016-05-06T14:07:24Z</time>
      </trkpt>
      <trkpt lat="44.35077" lon="5.78486">
        <ele>761.20001220703</ele>
        <time>2016-05-06T14:07:27Z</time>
      </trkpt>
      <trkpt lat="44.35076" lon="5.78483">
        <ele>761.59997558594</ele>
        <time>2016-05-06T14:07:29Z</time>
      </trkpt>
      <trkpt lat="44.35073" lon="5.78479">
        <ele>762.20001220703</ele>
        <time>2016-05-06T14:07:34Z</time>
      </trkpt>
      <trkpt lat="44.35071" lon="5.78474">
        <ele>763.40002441406</ele>
        <time>2016-05-06T14:07:39Z</time>
      </trkpt>
      <trkpt lat="44.3507" lon="5.78471">
        <ele>763.40002441406</ele>
        <time>2016-05-06T14:07:41Z</time>
      </trkpt>
      <trkpt lat="44.3507" lon="5.78466">
        <ele>764</ele>
        <time>2016-05-06T14:07:49Z</time>
      </trkpt>
      <trkpt lat="44.3507" lon="5.78466">
        <ele>764</ele>
        <time>2016-05-06T14:07:50Z</time>
      </trkpt>
      <trkpt lat="44.35071" lon="5.78462">
        <ele>764.59997558594</ele>
        <time>2016-05-06T14:07:53Z</time>
      </trkpt>
      <trkpt lat="44.35072" lon="5.78455">
        <ele>764.59997558594</ele>
        <time>2016-05-06T14:07:57Z</time>
      </trkpt>
      <trkpt lat="44.35072" lon="5.78453">
        <ele>765.20001220703</ele>
        <time>2016-05-06T14:07:58Z</time>
      </trkpt>
      <trkpt lat="44.35074" lon="5.78446">
        <ele>765.59997558594</ele>
        <time>2016-05-06T14:08:02Z</time>
      </trkpt>
      <trkpt lat="44.35077" lon="5.78436">
        <ele>766.40002441406</ele>
        <time>2016-05-06T14:08:07Z</time>
      </trkpt>
      <trkpt lat="44.3508" lon="5.78427">
        <ele>766.40002441406</ele>
        <time>2016-05-06T14:08:11Z</time>
      </trkpt>
      <trkpt lat="44.35081" lon="5.78424">
        <ele>766.79998779297</ele>
        <time>2016-05-06T14:08:12Z</time>
      </trkpt>
      <trkpt lat="44.35084" lon="5.78415">
        <ele>767.40002441406</ele>
        <time>2016-05-06T14:08:16Z</time>
      </trkpt>
      <trkpt lat="44.35084" lon="5.78409">
        <ele>767.40002441406</ele>
        <time>2016-05-06T14:08:19Z</time>
      </trkpt>
      <trkpt lat="44.35081" lon="5.78391">
        <ele>767.40002441406</ele>
        <time>2016-05-06T14:08:27Z</time>
      </trkpt>
      <trkpt lat="44.35077" lon="5.78367">
        <ele>767.79998779297</ele>
        <time>2016-05-06T14:08:35Z</time>
      </trkpt>
      <trkpt lat="44.35075" lon="5.78347">
        <ele>768.20001220703</ele>
        <time>2016-05-06T14:08:40Z</time>
      </trkpt>
      <trkpt lat="44.35075" lon="5.78339">
        <ele>768.20001220703</ele>
        <time>2016-05-06T14:08:42Z</time>
      </trkpt>
      <trkpt lat="44.35077" lon="5.78331">
        <ele>768.59997558594</ele>
        <time>2016-05-06T14:08:44Z</time>
      </trkpt>
      <trkpt lat="44.35078" lon="5.78314">
        <ele>768.59997558594</ele>
        <time>2016-05-06T14:08:47Z</time>
      </trkpt>
      <trkpt lat="44.35078" lon="5.78299">
        <ele>769</ele>
        <time>2016-05-06T14:08:49Z</time>
      </trkpt>
      <trkpt lat="44.35077" lon="5.78284">
        <ele>769</ele>
        <time>2016-05-06T14:08:51Z</time>
      </trkpt>
      <trkpt lat="44.35076" lon="5.78276">
        <ele>769</ele>
        <time>2016-05-06T14:08:52Z</time>
      </trkpt>
      <trkpt lat="44.35071" lon="5.78258">
        <ele>768.59997558594</ele>
        <time>2016-05-06T14:08:54Z</time>
      </trkpt>
      <trkpt lat="44.35069" lon="5.78248">
        <ele>768.59997558594</ele>
        <time>2016-05-06T14:08:55Z</time>
      </trkpt>
      <trkpt lat="44.35067" lon="5.78236">
        <ele>768.59997558594</ele>
        <time>2016-05-06T14:08:56Z</time>
      </trkpt>
      <trkpt lat="44.35059" lon="5.78213">
        <ele>767.79998779297</ele>
        <time>2016-05-06T14:08:58Z</time>
      </trkpt>
      <trkpt lat="44.35055" lon="5.78203">
        <ele>767.79998779297</ele>
        <time>2016-05-06T14:08:59Z</time>
      </trkpt>
      <trkpt lat="44.35051" lon="5.78195">
        <ele>767.79998779297</ele>
        <time>2016-05-06T14:09:00Z</time>
      </trkpt>
      <trkpt lat="44.35043" lon="5.78168">
        <ele>766.59997558594</ele>
        <time>2016-05-06T14:09:03Z</time>
      </trkpt>
      <trkpt lat="44.35037" lon="5.78155">
        <ele>766.59997558594</ele>
        <time>2016-05-06T14:09:05Z</time>
      </trkpt>
      <trkpt lat="44.35027" lon="5.78149">
        <ele>766.59997558594</ele>
        <time>2016-05-06T14:09:07Z</time>
      </trkpt>
      <trkpt lat="44.35021" lon="5.78145">
        <ele>764.79998779297</ele>
        <time>2016-05-06T14:09:08Z</time>
      </trkpt>
      <trkpt lat="44.35009" lon="5.78141">
        <ele>764.79998779297</ele>
        <time>2016-05-06T14:09:10Z</time>
      </trkpt>
      <trkpt lat="44.34999" lon="5.78139">
        <ele>760.20001220703</ele>
        <time>2016-05-06T14:09:12Z</time>
      </trkpt>
      <trkpt lat="44.3497" lon="5.78138">
        <ele>757.79998779297</ele>
        <time>2016-05-06T14:09:17Z</time>
      </trkpt>
      <trkpt lat="44.34936" lon="5.7814">
        <ele>757.79998779297</ele>
        <time>2016-05-06T14:09:21Z</time>
      </trkpt>
      <trkpt lat="44.34928" lon="5.78136">
        <ele>755.40002441406</ele>
        <time>2016-05-06T14:09:22Z</time>
      </trkpt>
      <trkpt lat="44.34918" lon="5.78128">
        <ele>755.40002441406</ele>
        <time>2016-05-06T14:09:24Z</time>
      </trkpt>
      <trkpt lat="44.34916" lon="5.78126">
        <ele>752.79998779297</ele>
        <time>2016-05-06T14:09:26Z</time>
      </trkpt>
      <trkpt lat="44.34916" lon="5.78126">
        <ele>752.79998779297</ele>
        <time>2016-05-06T14:09:27Z</time>
      </trkpt>
      <trkpt lat="44.34916" lon="5.78126">
        <ele>750.20001220703</ele>
        <time>2016-05-06T14:09:31Z</time>
      </trkpt>
      <trkpt lat="44.34912" lon="5.78121">
        <ele>747.59997558594</ele>
        <time>2016-05-06T14:09:36Z</time>
      </trkpt>
      <trkpt lat="44.34911" lon="5.78113">
        <ele>747.59997558594</ele>
        <time>2016-05-06T14:09:38Z</time>
      </trkpt>
      <trkpt lat="44.34911" lon="5.78108">
        <ele>745.20001220703</ele>
        <time>2016-05-06T14:09:40Z</time>
      </trkpt>
      <trkpt lat="44.34913" lon="5.78107">
        <ele>745.20001220703</ele>
        <time>2016-05-06T14:09:41Z</time>
      </trkpt>
      <trkpt lat="44.34913" lon="5.78105">
        <ele>745.20001220703</ele>
        <time>2016-05-06T14:09:42Z</time>
      </trkpt>
      <trkpt lat="44.34912" lon="5.78102">
        <ele>742.59997558594</ele>
        <time>2016-05-06T14:09:45Z</time>
      </trkpt>
      <trkpt lat="44.34912" lon="5.78102">
        <ele>742.59997558594</ele>
        <time>2016-05-06T14:09:46Z</time>
      </trkpt>
      <trkpt lat="44.34915" lon="5.78094">
        <ele>739.40002441406</ele>
        <time>2016-05-06T14:09:49Z</time>
      </trkpt>
      <trkpt lat="44.34918" lon="5.78083">
        <ele>739.40002441406</ele>
        <time>2016-05-06T14:09:51Z</time>
      </trkpt>
      <trkpt lat="44.34922" lon="5.78071">
        <ele>738.20001220703</ele>
        <time>2016-05-06T14:09:55Z</time>
      </trkpt>
      <trkpt lat="44.34925" lon="5.78064">
        <ele>738.20001220703</ele>
        <time>2016-05-06T14:09:57Z</time>
      </trkpt>
      <trkpt lat="44.3493" lon="5.78054">
        <ele>736.40002441406</ele>
        <time>2016-05-06T14:10:01Z</time>
      </trkpt>
      <trkpt lat="44.34933" lon="5.7805">
        <ele>736.40002441406</ele>
        <time>2016-05-06T14:10:03Z</time>
      </trkpt>
      <trkpt lat="44.34939" lon="5.78029">
        <ele>734</ele>
        <time>2016-05-06T14:10:10Z</time>
      </trkpt>
      <trkpt lat="44.34937" lon="5.78011">
        <ele>734</ele>
        <time>2016-05-06T14:10:15Z</time>
      </trkpt>
      <trkpt lat="44.34927" lon="5.77999">
        <ele>734</ele>
        <time>2016-05-06T14:10:19Z</time>
      </trkpt>
      <trkpt lat="44.34925" lon="5.77998">
        <ele>731</ele>
        <time>2016-05-06T14:10:20Z</time>
      </trkpt>
      <trkpt lat="44.34924" lon="5.77998">
        <ele>727.79998779297</ele>
        <time>2016-05-06T14:10:21Z</time>
      </trkpt>
      <trkpt lat="44.34919" lon="5.77996">
        <ele>727.79998779297</ele>
        <time>2016-05-06T14:10:23Z</time>
      </trkpt>
      <trkpt lat="44.3491" lon="5.77978">
        <ele>727.79998779297</ele>
        <time>2016-05-06T14:10:29Z</time>
      </trkpt>
      <trkpt lat="44.34909" lon="5.77974">
        <ele>724.59997558594</ele>
        <time>2016-05-06T14:10:30Z</time>
      </trkpt>
      <trkpt lat="44.34909" lon="5.77964">
        <ele>724.59997558594</ele>
        <time>2016-05-06T14:10:32Z</time>
      </trkpt>
      <trkpt lat="44.34908" lon="5.77952">
        <ele>724.59997558594</ele>
        <time>2016-05-06T14:10:34Z</time>
      </trkpt>
      <trkpt lat="44.34907" lon="5.77946">
        <ele>721.59997558594</ele>
        <time>2016-05-06T14:10:35Z</time>
      </trkpt>
      <trkpt lat="44.34903" lon="5.77927">
        <ele>721.59997558594</ele>
        <time>2016-05-06T14:10:38Z</time>
      </trkpt>
      <trkpt lat="44.34901" lon="5.77922">
        <ele>719.20001220703</ele>
        <time>2016-05-06T14:10:39Z</time>
      </trkpt>
      <trkpt lat="44.34899" lon="5.77918">
        <ele>716.59997558594</ele>
        <time>2016-05-06T14:10:40Z</time>
      </trkpt>
      <trkpt lat="44.34898" lon="5.77914">
        <ele>716.59997558594</ele>
        <time>2016-05-06T14:10:42Z</time>
      </trkpt>
      <trkpt lat="44.34894" lon="5.77911">
        <ele>714</ele>
        <time>2016-05-06T14:10:44Z</time>
      </trkpt>
      <trkpt lat="44.34891" lon="5.77901">
        <ele>714</ele>
        <time>2016-05-06T14:10:47Z</time>
      </trkpt>
      <trkpt lat="44.34891" lon="5.77899">
        <ele>714</ele>
        <time>2016-05-06T14:10:48Z</time>
      </trkpt>
      <trkpt lat="44.34891" lon="5.77898">
        <ele>712.40002441406</ele>
        <time>2016-05-06T14:10:49Z</time>
      </trkpt>
      <trkpt lat="44.34891" lon="5.77898">
        <ele>712.40002441406</ele>
        <time>2016-05-06T14:10:50Z</time>
      </trkpt>
      <trkpt lat="44.34891" lon="5.77893">
        <ele>710.59997558594</ele>
        <time>2016-05-06T14:10:54Z</time>
      </trkpt>
      <trkpt lat="44.34892" lon="5.77884">
        <ele>708.79998779297</ele>
        <time>2016-05-06T14:10:59Z</time>
      </trkpt>
      <trkpt lat="44.34893" lon="5.77883">
        <ele>708.79998779297</ele>
        <time>2016-05-06T14:11:01Z</time>
      </trkpt>
      <trkpt lat="44.34893" lon="5.77883">
        <ele>705.20001220703</ele>
        <time>2016-05-06T14:11:04Z</time>
      </trkpt>
      <trkpt lat="44.34893" lon="5.77884">
        <ele>703.59997558594</ele>
        <time>2016-05-06T14:11:08Z</time>
      </trkpt>
      <trkpt lat="44.34893" lon="5.77884">
        <ele>702</ele>
        <time>2016-05-06T14:11:13Z</time>
      </trkpt>
      <trkpt lat="44.34893" lon="5.77884">
        <ele>700.40002441406</ele>
        <time>2016-05-06T14:11:18Z</time>
      </trkpt>
      <trkpt lat="44.34893" lon="5.77884">
        <ele>698.79998779297</ele>
        <time>2016-05-06T14:11:22Z</time>
      </trkpt>
      <trkpt lat="44.34893" lon="5.77875">
        <ele>698.79998779297</ele>
        <time>2016-05-06T14:11:47Z</time>
      </trkpt>
      <trkpt lat="44.34892" lon="5.7786">
        <ele>698</ele>
        <time>2016-05-06T14:11:50Z</time>
      </trkpt>
      <trkpt lat="44.34891" lon="5.7785">
        <ele>698</ele>
        <time>2016-05-06T14:11:52Z</time>
      </trkpt>
      <trkpt lat="44.34888" lon="5.77837">
        <ele>696.79998779297</ele>
        <time>2016-05-06T14:11:55Z</time>
      </trkpt>
      <trkpt lat="44.34887" lon="5.77831">
        <ele>696.79998779297</ele>
        <time>2016-05-06T14:11:57Z</time>
      </trkpt>
      <trkpt lat="44.34887" lon="5.77831">
        <ele>695.20001220703</ele>
        <time>2016-05-06T14:12:00Z</time>
      </trkpt>
      <trkpt lat="44.34887" lon="5.77831">
        <ele>695.20001220703</ele>
        <time>2016-05-06T14:12:01Z</time>
      </trkpt>
      <trkpt lat="44.34887" lon="5.77831">
        <ele>693.59997558594</ele>
        <time>2016-05-06T14:12:05Z</time>
      </trkpt>
      <trkpt lat="44.34887" lon="5.77831">
        <ele>692.20001220703</ele>
        <time>2016-05-06T14:12:09Z</time>
      </trkpt>
      <trkpt lat="44.34886" lon="5.7783">
        <ele>689.79998779297</ele>
        <time>2016-05-06T14:12:14Z</time>
      </trkpt>
      <trkpt lat="44.34886" lon="5.7783">
        <ele>689.79998779297</ele>
        <time>2016-05-06T14:12:16Z</time>
      </trkpt>
      <trkpt lat="44.34886" lon="5.7783">
        <ele>688.79998779297</ele>
        <time>2016-05-06T14:12:18Z</time>
      </trkpt>
      <trkpt lat="44.34882" lon="5.77822">
        <ele>687.79998779297</ele>
        <time>2016-05-06T14:12:23Z</time>
      </trkpt>
      <trkpt lat="44.34879" lon="5.77816">
        <ele>687.79998779297</ele>
        <time>2016-05-06T14:12:24Z</time>
      </trkpt>
      <trkpt lat="44.34871" lon="5.77802">
        <ele>686.79998779297</ele>
        <time>2016-05-06T14:12:28Z</time>
      </trkpt>
      <trkpt lat="44.34871" lon="5.77799">
        <ele>686.79998779297</ele>
        <time>2016-05-06T14:12:29Z</time>
      </trkpt>
      <trkpt lat="44.34868" lon="5.77789">
        <ele>685.79998779297</ele>
        <time>2016-05-06T14:12:33Z</time>
      </trkpt>
      <trkpt lat="44.34864" lon="5.77782">
        <ele>685.79998779297</ele>
        <time>2016-05-06T14:12:36Z</time>
      </trkpt>
      <trkpt lat="44.3486" lon="5.77779">
        <ele>684.59997558594</ele>
        <time>2016-05-06T14:12:38Z</time>
      </trkpt>
      <trkpt lat="44.34855" lon="5.7777">
        <ele>684.59997558594</ele>
        <time>2016-05-06T14:12:42Z</time>
      </trkpt>
      <trkpt lat="44.34854" lon="5.77768">
        <ele>683</ele>
        <time>2016-05-06T14:12:43Z</time>
      </trkpt>
      <trkpt lat="44.34853" lon="5.77758">
        <ele>683</ele>
        <time>2016-05-06T14:12:48Z</time>
      </trkpt>
      <trkpt lat="44.34853" lon="5.77747">
        <ele>683</ele>
        <time>2016-05-06T14:12:52Z</time>
      </trkpt>
      <trkpt lat="44.34852" lon="5.77743">
        <ele>681.20001220703</ele>
        <time>2016-05-06T14:12:53Z</time>
      </trkpt>
      <trkpt lat="44.3485" lon="5.7774">
        <ele>679.20001220703</ele>
        <time>2016-05-06T14:12:54Z</time>
      </trkpt>
      <trkpt lat="44.34848" lon="5.77737">
        <ele>677.20001220703</ele>
        <time>2016-05-06T14:12:55Z</time>
      </trkpt>
      <trkpt lat="44.34846" lon="5.77734">
        <ele>675.20001220703</ele>
        <time>2016-05-06T14:12:56Z</time>
      </trkpt>
      <trkpt lat="44.34845" lon="5.77731">
        <ele>673.20001220703</ele>
        <time>2016-05-06T14:12:57Z</time>
      </trkpt>
      <trkpt lat="44.34842" lon="5.77728">
        <ele>671.20001220703</ele>
        <time>2016-05-06T14:12:58Z</time>
      </trkpt>
      <trkpt lat="44.3484" lon="5.77724">
        <ele>670.20001220703</ele>
        <time>2016-05-06T14:12:59Z</time>
      </trkpt>
      <trkpt lat="44.34839" lon="5.77718">
        <ele>668.59997558594</ele>
        <time>2016-05-06T14:13:01Z</time>
      </trkpt>
      <trkpt lat="44.34838" lon="5.77716">
        <ele>667.59997558594</ele>
        <time>2016-05-06T14:13:02Z</time>
      </trkpt>
      <trkpt lat="44.34838" lon="5.77713">
        <ele>667.59997558594</ele>
        <time>2016-05-06T14:13:03Z</time>
      </trkpt>
      <trkpt lat="44.34835" lon="5.77701">
        <ele>667.59997558594</ele>
        <time>2016-05-06T14:13:09Z</time>
      </trkpt>
      <trkpt lat="44.34824" lon="5.77703">
        <ele>666.79998779297</ele>
        <time>2016-05-06T14:13:13Z</time>
      </trkpt>
      <trkpt lat="44.34822" lon="5.77705">
        <ele>666.79998779297</ele>
        <time>2016-05-06T14:13:14Z</time>
      </trkpt>
      <trkpt lat="44.34819" lon="5.77708">
        <ele>665</ele>
        <time>2016-05-06T14:13:17Z</time>
      </trkpt>
      <trkpt lat="44.34814" lon="5.77709">
        <ele>665</ele>
        <time>2016-05-06T14:13:21Z</time>
      </trkpt>
      <trkpt lat="44.34813" lon="5.77709">
        <ele>664</ele>
        <time>2016-05-06T14:13:22Z</time>
      </trkpt>
      <trkpt lat="44.34813" lon="5.77709">
        <ele>664</ele>
        <time>2016-05-06T14:13:25Z</time>
      </trkpt>
      <trkpt lat="44.34813" lon="5.77709">
        <ele>662.79998779297</ele>
        <time>2016-05-06T14:13:26Z</time>
      </trkpt>
      <trkpt lat="44.34812" lon="5.77709">
        <ele>661.59997558594</ele>
        <time>2016-05-06T14:13:31Z</time>
      </trkpt>
      <trkpt lat="44.3481" lon="5.7771">
        <ele>661.59997558594</ele>
        <time>2016-05-06T14:13:32Z</time>
      </trkpt>
      <trkpt lat="44.34805" lon="5.77715">
        <ele>660.40002441406</ele>
        <time>2016-05-06T14:13:35Z</time>
      </trkpt>
      <trkpt lat="44.348" lon="5.77721">
        <ele>658.59997558594</ele>
        <time>2016-05-06T14:13:40Z</time>
      </trkpt>
      <trkpt lat="44.34798" lon="5.77722">
        <ele>657.59997558594</ele>
        <time>2016-05-06T14:13:45Z</time>
      </trkpt>
      <trkpt lat="44.34793" lon="5.77723">
        <ele>657.59997558594</ele>
        <time>2016-05-06T14:13:48Z</time>
      </trkpt>
      <trkpt lat="44.34787" lon="5.77722">
        <ele>656.79998779297</ele>
        <time>2016-05-06T14:13:50Z</time>
      </trkpt>
      <trkpt lat="44.34781" lon="5.77721">
        <ele>656.79998779297</ele>
        <time>2016-05-06T14:13:52Z</time>
      </trkpt>
      <trkpt lat="44.34775" lon="5.77717">
        <ele>655.79998779297</ele>
        <time>2016-05-06T14:13:54Z</time>
      </trkpt>
      <trkpt lat="44.3477" lon="5.77712">
        <ele>655.79998779297</ele>
        <time>2016-05-06T14:13:56Z</time>
      </trkpt>
      <trkpt lat="44.34769" lon="5.77709">
        <ele>655.79998779297</ele>
        <time>2016-05-06T14:13:57Z</time>
      </trkpt>
      <trkpt lat="44.34767" lon="5.77702">
        <ele>655.40002441406</ele>
        <time>2016-05-06T14:13:59Z</time>
      </trkpt>
      <trkpt lat="44.34766" lon="5.77698">
        <ele>655.40002441406</ele>
        <time>2016-05-06T14:14:00Z</time>
      </trkpt>
      <trkpt lat="44.34763" lon="5.7769">
        <ele>655.40002441406</ele>
        <time>2016-05-06T14:14:02Z</time>
      </trkpt>
      <trkpt lat="44.34761" lon="5.77686">
        <ele>654.79998779297</ele>
        <time>2016-05-06T14:14:03Z</time>
      </trkpt>
      <trkpt lat="44.34749" lon="5.77668">
        <ele>654.79998779297</ele>
        <time>2016-05-06T14:14:07Z</time>
      </trkpt>
      <trkpt lat="44.34745" lon="5.77663">
        <ele>653.40002441406</ele>
        <time>2016-05-06T14:14:08Z</time>
      </trkpt>
      <trkpt lat="44.3474" lon="5.77652">
        <ele>653.40002441406</ele>
        <time>2016-05-06T14:14:10Z</time>
      </trkpt>
      <trkpt lat="44.34737" lon="5.77642">
        <ele>653.40002441406</ele>
        <time>2016-05-06T14:14:12Z</time>
      </trkpt>
      <trkpt lat="44.34734" lon="5.77638">
        <ele>652.40002441406</ele>
        <time>2016-05-06T14:14:13Z</time>
      </trkpt>
      <trkpt lat="44.34723" lon="5.77623">
        <ele>651.40002441406</ele>
        <time>2016-05-06T14:14:17Z</time>
      </trkpt>
      <trkpt lat="44.3472" lon="5.77619">
        <ele>651.40002441406</ele>
        <time>2016-05-06T14:14:18Z</time>
      </trkpt>
      <trkpt lat="44.34707" lon="5.77608">
        <ele>649.40002441406</ele>
        <time>2016-05-06T14:14:22Z</time>
      </trkpt>
      <trkpt lat="44.34703" lon="5.77606">
        <ele>649.40002441406</ele>
        <time>2016-05-06T14:14:23Z</time>
      </trkpt>
      <trkpt lat="44.3469" lon="5.77594">
        <ele>648.40002441406</ele>
        <time>2016-05-06T14:14:27Z</time>
      </trkpt>
      <trkpt lat="44.34684" lon="5.77589">
        <ele>648.40002441406</ele>
        <time>2016-05-06T14:14:29Z</time>
      </trkpt>
      <trkpt lat="44.34678" lon="5.77583">
        <ele>647.20001220703</ele>
        <time>2016-05-06T14:14:31Z</time>
      </trkpt>
      <trkpt lat="44.34666" lon="5.77565">
        <ele>644.59997558594</ele>
        <time>2016-05-06T14:14:36Z</time>
      </trkpt>
      <trkpt lat="44.34648" lon="5.77555">
        <ele>643.40002441406</ele>
        <time>2016-05-06T14:14:41Z</time>
      </trkpt>
      <trkpt lat="44.34645" lon="5.77546">
        <ele>643.40002441406</ele>
        <time>2016-05-06T14:14:43Z</time>
      </trkpt>
      <trkpt lat="44.34643" lon="5.77534">
        <ele>642</ele>
        <time>2016-05-06T14:14:45Z</time>
      </trkpt>
      <trkpt lat="44.34641" lon="5.77516">
        <ele>642</ele>
        <time>2016-05-06T14:14:47Z</time>
      </trkpt>
      <trkpt lat="44.34633" lon="5.77487">
        <ele>639</ele>
        <time>2016-05-06T14:14:50Z</time>
      </trkpt>
      <trkpt lat="44.3462" lon="5.77472">
        <ele>639</ele>
        <time>2016-05-06T14:14:52Z</time>
      </trkpt>
      <trkpt lat="44.34596" lon="5.77457">
        <ele>637.20001220703</ele>
        <time>2016-05-06T14:14:55Z</time>
      </trkpt>
      <trkpt lat="44.34591" lon="5.77454">
        <ele>637.20001220703</ele>
        <time>2016-05-06T14:14:56Z</time>
      </trkpt>
      <trkpt lat="44.34583" lon="5.77453">
        <ele>635.59997558594</ele>
        <time>2016-05-06T14:14:59Z</time>
      </trkpt>
      <trkpt lat="44.34585" lon="5.77454">
        <ele>635.59997558594</ele>
        <time>2016-05-06T14:15:02Z</time>
      </trkpt>
      <trkpt lat="44.34589" lon="5.77454">
        <ele>634.20001220703</ele>
        <time>2016-05-06T14:15:04Z</time>
      </trkpt>
      <trkpt lat="44.346" lon="5.77458">
        <ele>634.20001220703</ele>
        <time>2016-05-06T14:15:08Z</time>
      </trkpt>
      <trkpt lat="44.34602" lon="5.77456">
        <ele>632.79998779297</ele>
        <time>2016-05-06T14:15:09Z</time>
      </trkpt>
      <trkpt lat="44.346" lon="5.77451">
        <ele>632.79998779297</ele>
        <time>2016-05-06T14:15:12Z</time>
      </trkpt>
      <trkpt lat="44.34599" lon="5.77448">
        <ele>631.20001220703</ele>
        <time>2016-05-06T14:15:13Z</time>
      </trkpt>
      <trkpt lat="44.34597" lon="5.77445">
        <ele>631.20001220703</ele>
        <time>2016-05-06T14:15:14Z</time>
      </trkpt>
      <trkpt lat="44.3459" lon="5.77434">
        <ele>629.79998779297</ele>
        <time>2016-05-06T14:15:18Z</time>
      </trkpt>
      <trkpt lat="44.34587" lon="5.77429">
        <ele>629.79998779297</ele>
        <time>2016-05-06T14:15:20Z</time>
      </trkpt>
      <trkpt lat="44.34584" lon="5.77425">
        <ele>629</ele>
        <time>2016-05-06T14:15:22Z</time>
      </trkpt>
      <trkpt lat="44.34574" lon="5.77415">
        <ele>629</ele>
        <time>2016-05-06T14:15:25Z</time>
      </trkpt>
      <trkpt lat="44.34568" lon="5.77411">
        <ele>628.20001220703</ele>
        <time>2016-05-06T14:15:28Z</time>
      </trkpt>
      <trkpt lat="44.34567" lon="5.7741">
        <ele>628.20001220703</ele>
        <time>2016-05-06T14:15:30Z</time>
      </trkpt>
      <trkpt lat="44.34563" lon="5.77412">
        <ele>627.40002441406</ele>
        <time>2016-05-06T14:15:33Z</time>
      </trkpt>
      <trkpt lat="44.34554" lon="5.77415">
        <ele>626</ele>
        <time>2016-05-06T14:15:38Z</time>
      </trkpt>
      <trkpt lat="44.34545" lon="5.77422">
        <ele>626</ele>
        <time>2016-05-06T14:15:45Z</time>
      </trkpt>
      <trkpt lat="44.34541" lon="5.77427">
        <ele>626</ele>
        <time>2016-05-06T14:15:49Z</time>
      </trkpt>
      <trkpt lat="44.34536" lon="5.77431">
        <ele>626</ele>
        <time>2016-05-06T14:15:52Z</time>
      </trkpt>
      <trkpt lat="44.34534" lon="5.77432">
        <ele>625</ele>
        <time>2016-05-06T14:15:53Z</time>
      </trkpt>
      <trkpt lat="44.3453" lon="5.77434">
        <ele>624</ele>
        <time>2016-05-06T14:15:55Z</time>
      </trkpt>
      <trkpt lat="44.34529" lon="5.77434">
        <ele>623.40002441406</ele>
        <time>2016-05-06T14:15:56Z</time>
      </trkpt>
      <trkpt lat="44.34526" lon="5.77435">
        <ele>623.40002441406</ele>
        <time>2016-05-06T14:15:58Z</time>
      </trkpt>
      <trkpt lat="44.34512" lon="5.77431">
        <ele>623.40002441406</ele>
        <time>2016-05-06T14:16:05Z</time>
      </trkpt>
      <trkpt lat="44.34507" lon="5.77431">
        <ele>623.40002441406</ele>
        <time>2016-05-06T14:16:07Z</time>
      </trkpt>
      <trkpt lat="44.34496" lon="5.77428">
        <ele>623</ele>
        <time>2016-05-06T14:16:11Z</time>
      </trkpt>
      <trkpt lat="44.34492" lon="5.77429">
        <ele>623</ele>
        <time>2016-05-06T14:16:13Z</time>
      </trkpt>
      <trkpt lat="44.34484" lon="5.77432">
        <ele>622.59997558594</ele>
        <time>2016-05-06T14:16:16Z</time>
      </trkpt>
      <trkpt lat="44.34474" lon="5.77431">
        <ele>622.20001220703</ele>
        <time>2016-05-06T14:16:20Z</time>
      </trkpt>
      <trkpt lat="44.34471" lon="5.77426">
        <ele>622.20001220703</ele>
        <time>2016-05-06T14:16:22Z</time>
      </trkpt>
      <trkpt lat="44.34467" lon="5.77419">
        <ele>621.59997558594</ele>
        <time>2016-05-06T14:16:25Z</time>
      </trkpt>
      <trkpt lat="44.34462" lon="5.77416">
        <ele>621.59997558594</ele>
        <time>2016-05-06T14:16:29Z</time>
      </trkpt>
      <trkpt lat="44.34461" lon="5.77416">
        <ele>621.20001220703</ele>
        <time>2016-05-06T14:16:30Z</time>
      </trkpt>
      <trkpt lat="44.34454" lon="5.77413">
        <ele>620.20001220703</ele>
        <time>2016-05-06T14:16:34Z</time>
      </trkpt>
      <trkpt lat="44.34452" lon="5.77413">
        <ele>620.20001220703</ele>
        <time>2016-05-06T14:16:35Z</time>
      </trkpt>
      <trkpt lat="44.34449" lon="5.77415">
        <ele>619.40002441406</ele>
        <time>2016-05-06T14:16:39Z</time>
      </trkpt>
      <trkpt lat="44.34449" lon="5.77415">
        <ele>619.40002441406</ele>
        <time>2016-05-06T14:16:40Z</time>
      </trkpt>
      <trkpt lat="44.34444" lon="5.77413">
        <ele>618.79998779297</ele>
        <time>2016-05-06T14:16:44Z</time>
      </trkpt>
      <trkpt lat="44.34441" lon="5.77411">
        <ele>618.79998779297</ele>
        <time>2016-05-06T14:16:47Z</time>
      </trkpt>
      <trkpt lat="44.34439" lon="5.77411">
        <ele>617.40002441406</ele>
        <time>2016-05-06T14:16:48Z</time>
      </trkpt>
      <trkpt lat="44.34436" lon="5.77409">
        <ele>616.79998779297</ele>
        <time>2016-05-06T14:16:53Z</time>
      </trkpt>
      <trkpt lat="44.34433" lon="5.77402">
        <ele>616.79998779297</ele>
        <time>2016-05-06T14:16:58Z</time>
      </trkpt>
      <trkpt lat="44.34432" lon="5.77401">
        <ele>616.79998779297</ele>
        <time>2016-05-06T14:16:59Z</time>
      </trkpt>
      <trkpt lat="44.3443" lon="5.77396">
        <ele>616.79998779297</ele>
        <time>2016-05-06T14:17:04Z</time>
      </trkpt>
      <trkpt lat="44.34417" lon="5.77383">
        <ele>616.79998779297</ele>
        <time>2016-05-06T14:17:10Z</time>
      </trkpt>
      <trkpt lat="44.34408" lon="5.77379">
        <ele>616.79998779297</ele>
        <time>2016-05-06T14:17:15Z</time>
      </trkpt>
      <trkpt lat="44.34405" lon="5.77355">
        <ele>616.79998779297</ele>
        <time>2016-05-06T14:17:22Z</time>
      </trkpt>
      <trkpt lat="44.34407" lon="5.77348">
        <ele>616.79998779297</ele>
        <time>2016-05-06T14:17:24Z</time>
      </trkpt>
      <trkpt lat="44.34408" lon="5.77345">
        <ele>616.79998779297</ele>
        <time>2016-05-06T14:17:25Z</time>
      </trkpt>
      <trkpt lat="44.34418" lon="5.77334">
        <ele>616.79998779297</ele>
        <time>2016-05-06T14:17:30Z</time>
      </trkpt>
      <trkpt lat="44.34423" lon="5.77321">
        <ele>616.79998779297</ele>
        <time>2016-05-06T14:17:34Z</time>
      </trkpt>
      <trkpt lat="44.3442" lon="5.7731">
        <ele>616.79998779297</ele>
        <time>2016-05-06T14:17:36Z</time>
      </trkpt>
      <trkpt lat="44.34417" lon="5.77286">
        <ele>616.79998779297</ele>
        <time>2016-05-06T14:17:41Z</time>
      </trkpt>
      <trkpt lat="44.34408" lon="5.77234">
        <ele>616.79998779297</ele>
        <time>2016-05-06T14:17:51Z</time>
      </trkpt>
      <trkpt lat="44.34405" lon="5.772">
        <ele>616.79998779297</ele>
        <time>2016-05-06T14:17:57Z</time>
      </trkpt>
      <trkpt lat="44.34406" lon="5.77188">
        <ele>616.79998779297</ele>
        <time>2016-05-06T14:17:59Z</time>
      </trkpt>
      <trkpt lat="44.3441" lon="5.77172">
        <ele>616.79998779297</ele>
        <time>2016-05-06T14:18:02Z</time>
      </trkpt>
      <trkpt lat="44.34414" lon="5.77163">
        <ele>616.79998779297</ele>
        <time>2016-05-06T14:18:04Z</time>
      </trkpt>
      <trkpt lat="44.34428" lon="5.77133">
        <ele>616.79998779297</ele>
        <time>2016-05-06T14:18:11Z</time>
      </trkpt>
      <trkpt lat="44.34445" lon="5.77088">
        <ele>616.79998779297</ele>
        <time>2016-05-06T14:18:20Z</time>
      </trkpt>
      <trkpt lat="44.34459" lon="5.77051">
        <ele>616.79998779297</ele>
        <time>2016-05-06T14:18:28Z</time>
      </trkpt>
      <trkpt lat="44.34472" lon="5.77027">
        <ele>616.79998779297</ele>
        <time>2016-05-06T14:18:35Z</time>
      </trkpt>
      <trkpt lat="44.34478" lon="5.77024">
        <ele>616.79998779297</ele>
        <time>2016-05-06T14:18:38Z</time>
      </trkpt>
      <trkpt lat="44.3448" lon="5.77024">
        <ele>616.79998779297</ele>
        <time>2016-05-06T14:18:39Z</time>
      </trkpt>
      <trkpt lat="44.34482" lon="5.77023">
        <ele>616.79998779297</ele>
        <time>2016-05-06T14:18:43Z</time>
      </trkpt>
      <trkpt lat="44.34482" lon="5.77023">
        <ele>617.20001220703</ele>
        <time>2016-05-06T14:18:45Z</time>
      </trkpt>
      <trkpt lat="44.34482" lon="5.77023">
        <ele>617.59997558594</ele>
        <time>2016-05-06T14:18:46Z</time>
      </trkpt>
      <trkpt lat="44.34482" lon="5.77023">
        <ele>618.20001220703</ele>
        <time>2016-05-06T14:18:47Z</time>
      </trkpt>
      <trkpt lat="44.34482" lon="5.77023">
        <ele>618.59997558594</ele>
        <time>2016-05-06T14:18:48Z</time>
      </trkpt>
      <trkpt lat="44.34482" lon="5.77023">
        <ele>619</ele>
        <time>2016-05-06T14:18:49Z</time>
      </trkpt>
      <trkpt lat="44.34481" lon="5.77019">
        <ele>619</ele>
        <time>2016-05-06T14:21:20Z</time>
      </trkpt>
      <trkpt lat="44.3448" lon="5.77015">
        <ele>619</ele>
        <time>2016-05-06T14:21:21Z</time>
      </trkpt>
      <trkpt lat="44.34467" lon="5.77">
        <ele>619</ele>
        <time>2016-05-06T14:21:27Z</time>
      </trkpt>
      <trkpt lat="44.34452" lon="5.76982">
        <ele>619</ele>
        <time>2016-05-06T14:21:33Z</time>
      </trkpt>
      <trkpt lat="44.34424" lon="5.76952">
        <ele>619</ele>
        <time>2016-05-06T14:21:42Z</time>
      </trkpt>
      <trkpt lat="44.34399" lon="5.76917">
        <ele>619</ele>
        <time>2016-05-06T14:21:51Z</time>
      </trkpt>
      <trkpt lat="44.34381" lon="5.76883">
        <ele>619</ele>
        <time>2016-05-06T14:21:59Z</time>
      </trkpt>
      <trkpt lat="44.3436" lon="5.76836">
        <ele>619</ele>
        <time>2016-05-06T14:22:09Z</time>
      </trkpt>
      <trkpt lat="44.34334" lon="5.76785">
        <ele>619</ele>
        <time>2016-05-06T14:22:20Z</time>
      </trkpt>
      <trkpt lat="44.34322" lon="5.76757">
        <ele>619</ele>
        <time>2016-05-06T14:22:26Z</time>
      </trkpt>
      <trkpt lat="44.34316" lon="5.76742">
        <ele>619</ele>
        <time>2016-05-06T14:22:29Z</time>
      </trkpt>
      <trkpt lat="44.34303" lon="5.76712">
        <ele>619</ele>
        <time>2016-05-06T14:22:36Z</time>
      </trkpt>
      <trkpt lat="44.34278" lon="5.76664">
        <ele>619</ele>
        <time>2016-05-06T14:22:47Z</time>
      </trkpt>
      <trkpt lat="44.34259" lon="5.76625">
        <ele>619</ele>
        <time>2016-05-06T14:22:56Z</time>
      </trkpt>
      <trkpt lat="44.3425" lon="5.76608">
        <ele>619.79998779297</ele>
        <time>2016-05-06T14:23:00Z</time>
      </trkpt>
      <trkpt lat="44.34241" lon="5.7659">
        <ele>619.79998779297</ele>
        <time>2016-05-06T14:23:04Z</time>
      </trkpt>
      <trkpt lat="44.34237" lon="5.76581">
        <ele>620.40002441406</ele>
        <time>2016-05-06T14:23:06Z</time>
      </trkpt>
      <trkpt lat="44.34229" lon="5.76563">
        <ele>621.59997558594</ele>
        <time>2016-05-06T14:23:10Z</time>
      </trkpt>
      <trkpt lat="44.34218" lon="5.76542">
        <ele>622.20001220703</ele>
        <time>2016-05-06T14:23:15Z</time>
      </trkpt>
      <trkpt lat="44.34214" lon="5.76533">
        <ele>622.20001220703</ele>
        <time>2016-05-06T14:23:17Z</time>
      </trkpt>
      <trkpt lat="44.34189" lon="5.76482">
        <ele>622.59997558594</ele>
        <time>2016-05-06T14:23:29Z</time>
      </trkpt>
      <trkpt lat="44.34185" lon="5.76474">
        <ele>622.59997558594</ele>
        <time>2016-05-06T14:23:31Z</time>
      </trkpt>
      <trkpt lat="44.34181" lon="5.76466">
        <ele>623</ele>
        <time>2016-05-06T14:23:33Z</time>
      </trkpt>
      <trkpt lat="44.34162" lon="5.76426">
        <ele>623.40002441406</ele>
        <time>2016-05-06T14:23:43Z</time>
      </trkpt>
      <trkpt lat="44.34159" lon="5.76422">
        <ele>624.20001220703</ele>
        <time>2016-05-06T14:23:44Z</time>
      </trkpt>
      <trkpt lat="44.34144" lon="5.76386">
        <ele>624.20001220703</ele>
        <time>2016-05-06T14:23:53Z</time>
      </trkpt>
      <trkpt lat="44.34142" lon="5.76366">
        <ele>624.79998779297</ele>
        <time>2016-05-06T14:23:57Z</time>
      </trkpt>
      <trkpt lat="44.3414" lon="5.76356">
        <ele>624.79998779297</ele>
        <time>2016-05-06T14:23:59Z</time>
      </trkpt>
      <trkpt lat="44.34136" lon="5.76349">
        <ele>625.59997558594</ele>
        <time>2016-05-06T14:24:01Z</time>
      </trkpt>
      <trkpt lat="44.34119" lon="5.76337">
        <ele>626</ele>
        <time>2016-05-06T14:24:06Z</time>
      </trkpt>
      <trkpt lat="44.34108" lon="5.76318">
        <ele>626.59997558594</ele>
        <time>2016-05-06T14:24:11Z</time>
      </trkpt>
      <trkpt lat="44.341" lon="5.76302">
        <ele>626.59997558594</ele>
        <time>2016-05-06T14:24:15Z</time>
      </trkpt>
      <trkpt lat="44.34081" lon="5.76263">
        <ele>627</ele>
        <time>2016-05-06T14:24:25Z</time>
      </trkpt>
      <trkpt lat="44.34074" lon="5.76248">
        <ele>627.79998779297</ele>
        <time>2016-05-06T14:24:29Z</time>
      </trkpt>
      <trkpt lat="44.34068" lon="5.76237">
        <ele>627.79998779297</ele>
        <time>2016-05-06T14:24:32Z</time>
      </trkpt>
      <trkpt lat="44.34064" lon="5.7623">
        <ele>628.40002441406</ele>
        <time>2016-05-06T14:24:34Z</time>
      </trkpt>
      <trkpt lat="44.34058" lon="5.76215">
        <ele>628.79998779297</ele>
        <time>2016-05-06T14:24:38Z</time>
      </trkpt>
      <trkpt lat="44.34048" lon="5.76195">
        <ele>629.59997558594</ele>
        <time>2016-05-06T14:24:43Z</time>
      </trkpt>
      <trkpt lat="44.34039" lon="5.76175">
        <ele>630</ele>
        <time>2016-05-06T14:24:48Z</time>
      </trkpt>
      <trkpt lat="44.34031" lon="5.7616">
        <ele>630.40002441406</ele>
        <time>2016-05-06T14:24:52Z</time>
      </trkpt>
      <trkpt lat="44.34021" lon="5.76138">
        <ele>630.79998779297</ele>
        <time>2016-05-06T14:24:57Z</time>
      </trkpt>
      <trkpt lat="44.34019" lon="5.76134">
        <ele>630.79998779297</ele>
        <time>2016-05-06T14:24:58Z</time>
      </trkpt>
      <trkpt lat="44.33987" lon="5.76069">
        <ele>630.79998779297</ele>
        <time>2016-05-06T14:25:13Z</time>
      </trkpt>
      <trkpt lat="44.33982" lon="5.7606">
        <ele>630.79998779297</ele>
        <time>2016-05-06T14:25:15Z</time>
      </trkpt>
      <trkpt lat="44.33959" lon="5.76013">
        <ele>630.79998779297</ele>
        <time>2016-05-06T14:25:26Z</time>
      </trkpt>
      <trkpt lat="44.33932" lon="5.75961">
        <ele>630.79998779297</ele>
        <time>2016-05-06T14:25:39Z</time>
      </trkpt>
      <trkpt lat="44.33924" lon="5.75944">
        <ele>631.20001220703</ele>
        <time>2016-05-06T14:25:43Z</time>
      </trkpt>
      <trkpt lat="44.33904" lon="5.75902">
        <ele>632</ele>
        <time>2016-05-06T14:25:53Z</time>
      </trkpt>
      <trkpt lat="44.339" lon="5.75893">
        <ele>632.79998779297</ele>
        <time>2016-05-06T14:25:55Z</time>
      </trkpt>
      <trkpt lat="44.33892" lon="5.75877">
        <ele>633.20001220703</ele>
        <time>2016-05-06T14:25:59Z</time>
      </trkpt>
      <trkpt lat="44.33891" lon="5.75873">
        <ele>633.79998779297</ele>
        <time>2016-05-06T14:26:00Z</time>
      </trkpt>
      <trkpt lat="44.33888" lon="5.75869">
        <ele>634.20001220703</ele>
        <time>2016-05-06T14:26:01Z</time>
      </trkpt>
      <trkpt lat="44.33883" lon="5.75857">
        <ele>634.20001220703</ele>
        <time>2016-05-06T14:26:04Z</time>
      </trkpt>
      <trkpt lat="44.33875" lon="5.75841">
        <ele>634.59997558594</ele>
        <time>2016-05-06T14:26:08Z</time>
      </trkpt>
      <trkpt lat="44.33863" lon="5.75825">
        <ele>635</ele>
        <time>2016-05-06T14:26:13Z</time>
      </trkpt>
      <trkpt lat="44.33861" lon="5.75821">
        <ele>635</ele>
        <time>2016-05-06T14:26:14Z</time>
      </trkpt>
      <trkpt lat="44.33836" lon="5.75786">
        <ele>635</ele>
        <time>2016-05-06T14:26:24Z</time>
      </trkpt>
      <trkpt lat="44.33829" lon="5.7578">
        <ele>635.40002441406</ele>
        <time>2016-05-06T14:26:26Z</time>
      </trkpt>
      <trkpt lat="44.33813" lon="5.75763">
        <ele>635.79998779297</ele>
        <time>2016-05-06T14:26:31Z</time>
      </trkpt>
      <trkpt lat="44.33807" lon="5.75757">
        <ele>635.79998779297</ele>
        <time>2016-05-06T14:26:33Z</time>
      </trkpt>
      <trkpt lat="44.33799" lon="5.75747">
        <ele>636.40002441406</ele>
        <time>2016-05-06T14:26:36Z</time>
      </trkpt>
      <trkpt lat="44.33788" lon="5.75735">
        <ele>637.20001220703</ele>
        <time>2016-05-06T14:26:40Z</time>
      </trkpt>
      <trkpt lat="44.33767" lon="5.75713">
        <ele>637.20001220703</ele>
        <time>2016-05-06T14:26:47Z</time>
      </trkpt>
      <trkpt lat="44.33725" lon="5.75666">
        <ele>637.20001220703</ele>
        <time>2016-05-06T14:27:01Z</time>
      </trkpt>
      <trkpt lat="44.33718" lon="5.75653">
        <ele>637.20001220703</ele>
        <time>2016-05-06T14:27:04Z</time>
      </trkpt>
      <trkpt lat="44.3371" lon="5.7564">
        <ele>637.20001220703</ele>
        <time>2016-05-06T14:27:07Z</time>
      </trkpt>
      <trkpt lat="44.33704" lon="5.75624">
        <ele>637.20001220703</ele>
        <time>2016-05-06T14:27:10Z</time>
      </trkpt>
      <trkpt lat="44.33698" lon="5.75609">
        <ele>637.20001220703</ele>
        <time>2016-05-06T14:27:13Z</time>
      </trkpt>
      <trkpt lat="44.3368" lon="5.75576">
        <ele>637.20001220703</ele>
        <time>2016-05-06T14:27:21Z</time>
      </trkpt>
      <trkpt lat="44.33676" lon="5.75575">
        <ele>637.20001220703</ele>
        <time>2016-05-06T14:27:22Z</time>
      </trkpt>
      <trkpt lat="44.33667" lon="5.75578">
        <ele>637.20001220703</ele>
        <time>2016-05-06T14:27:24Z</time>
      </trkpt>
      <trkpt lat="44.33662" lon="5.75581">
        <ele>637.20001220703</ele>
        <time>2016-05-06T14:27:25Z</time>
      </trkpt>
      <trkpt lat="44.33658" lon="5.75583">
        <ele>637.20001220703</ele>
        <time>2016-05-06T14:27:26Z</time>
      </trkpt>
      <trkpt lat="44.33646" lon="5.75591">
        <ele>637.20001220703</ele>
        <time>2016-05-06T14:27:29Z</time>
      </trkpt>
      <trkpt lat="44.33637" lon="5.75594">
        <ele>637.20001220703</ele>
        <time>2016-05-06T14:27:31Z</time>
      </trkpt>
      <trkpt lat="44.33624" lon="5.75592">
        <ele>637.20001220703</ele>
        <time>2016-05-06T14:27:34Z</time>
      </trkpt>
      <trkpt lat="44.3362" lon="5.75591">
        <ele>637.20001220703</ele>
        <time>2016-05-06T14:27:35Z</time>
      </trkpt>
      <trkpt lat="44.33583" lon="5.75582">
        <ele>637.20001220703</ele>
        <time>2016-05-06T14:27:44Z</time>
      </trkpt>
      <trkpt lat="44.33546" lon="5.75573">
        <ele>637.20001220703</ele>
        <time>2016-05-06T14:27:53Z</time>
      </trkpt>
      <trkpt lat="44.33513" lon="5.75571">
        <ele>637.20001220703</ele>
        <time>2016-05-06T14:28:01Z</time>
      </trkpt>
      <trkpt lat="44.33473" lon="5.75571">
        <ele>637.20001220703</ele>
        <time>2016-05-06T14:28:11Z</time>
      </trkpt>
      <trkpt lat="44.33437" lon="5.75563">
        <ele>637.20001220703</ele>
        <time>2016-05-06T14:28:20Z</time>
      </trkpt>
      <trkpt lat="44.33384" lon="5.75542">
        <ele>637.20001220703</ele>
        <time>2016-05-06T14:28:33Z</time>
      </trkpt>
      <trkpt lat="44.33327" lon="5.75523">
        <ele>637.20001220703</ele>
        <time>2016-05-06T14:28:47Z</time>
      </trkpt>
      <trkpt lat="44.33287" lon="5.75518">
        <ele>637.20001220703</ele>
        <time>2016-05-06T14:28:57Z</time>
      </trkpt>
      <trkpt lat="44.33245" lon="5.75506">
        <ele>637.20001220703</ele>
        <time>2016-05-06T14:29:07Z</time>
      </trkpt>
      <trkpt lat="44.33204" lon="5.75495">
        <ele>637.20001220703</ele>
        <time>2016-05-06T14:29:17Z</time>
      </trkpt>
      <trkpt lat="44.33168" lon="5.75489">
        <ele>637.20001220703</ele>
        <time>2016-05-06T14:29:24Z</time>
      </trkpt>
      <trkpt lat="44.33157" lon="5.7547">
        <ele>637.20001220703</ele>
        <time>2016-05-06T14:29:27Z</time>
      </trkpt>
      <trkpt lat="44.33151" lon="5.75456">
        <ele>637.20001220703</ele>
        <time>2016-05-06T14:29:29Z</time>
      </trkpt>
      <trkpt lat="44.33137" lon="5.75442">
        <ele>637.20001220703</ele>
        <time>2016-05-06T14:29:32Z</time>
      </trkpt>
      <trkpt lat="44.33105" lon="5.75433">
        <ele>637.20001220703</ele>
        <time>2016-05-06T14:29:37Z</time>
      </trkpt>
      <trkpt lat="44.33092" lon="5.75432">
        <ele>636.59997558594</ele>
        <time>2016-05-06T14:29:39Z</time>
      </trkpt>
      <trkpt lat="44.33067" lon="5.75421">
        <ele>636.20001220703</ele>
        <time>2016-05-06T14:29:43Z</time>
      </trkpt>
      <trkpt lat="44.33042" lon="5.75397">
        <ele>635.20001220703</ele>
        <time>2016-05-06T14:29:48Z</time>
      </trkpt>
      <trkpt lat="44.33037" lon="5.75393">
        <ele>635.20001220703</ele>
        <time>2016-05-06T14:29:49Z</time>
      </trkpt>
      <trkpt lat="44.33019" lon="5.75375">
        <ele>634.59997558594</ele>
        <time>2016-05-06T14:29:53Z</time>
      </trkpt>
      <trkpt lat="44.32988" lon="5.75343">
        <ele>634.59997558594</ele>
        <time>2016-05-06T14:30:00Z</time>
      </trkpt>
      <trkpt lat="44.32943" lon="5.75296">
        <ele>634.59997558594</ele>
        <time>2016-05-06T14:30:11Z</time>
      </trkpt>
      <trkpt lat="44.32912" lon="5.75253">
        <ele>634.59997558594</ele>
        <time>2016-05-06T14:30:20Z</time>
      </trkpt>
      <trkpt lat="44.32875" lon="5.75197">
        <ele>634.59997558594</ele>
        <time>2016-05-06T14:30:32Z</time>
      </trkpt>
      <trkpt lat="44.32848" lon="5.75143">
        <ele>634.59997558594</ele>
        <time>2016-05-06T14:30:42Z</time>
      </trkpt>
      <trkpt lat="44.32832" lon="5.75097">
        <ele>635.20001220703</ele>
        <time>2016-05-06T14:30:50Z</time>
      </trkpt>
      <trkpt lat="44.32827" lon="5.75087">
        <ele>635.20001220703</ele>
        <time>2016-05-06T14:30:52Z</time>
      </trkpt>
      <trkpt lat="44.32821" lon="5.75077">
        <ele>635.20001220703</ele>
        <time>2016-05-06T14:30:54Z</time>
      </trkpt>
      <trkpt lat="44.32818" lon="5.75073">
        <ele>636.20001220703</ele>
        <time>2016-05-06T14:30:55Z</time>
      </trkpt>
      <trkpt lat="44.32808" lon="5.75061">
        <ele>636.20001220703</ele>
        <time>2016-05-06T14:30:58Z</time>
      </trkpt>
      <trkpt lat="44.32804" lon="5.75058">
        <ele>636.20001220703</ele>
        <time>2016-05-06T14:30:59Z</time>
      </trkpt>
      <trkpt lat="44.328" lon="5.75055">
        <ele>636.59997558594</ele>
        <time>2016-05-06T14:31:00Z</time>
      </trkpt>
      <trkpt lat="44.32786" lon="5.75044">
        <ele>637.20001220703</ele>
        <time>2016-05-06T14:31:04Z</time>
      </trkpt>
      <trkpt lat="44.32779" lon="5.7504">
        <ele>637.20001220703</ele>
        <time>2016-05-06T14:31:06Z</time>
      </trkpt>
      <trkpt lat="44.32748" lon="5.75018">
        <ele>637.20001220703</ele>
        <time>2016-05-06T14:31:14Z</time>
      </trkpt>
      <trkpt lat="44.32719" lon="5.74993">
        <ele>637.20001220703</ele>
        <time>2016-05-06T14:31:23Z</time>
      </trkpt>
      <trkpt lat="44.32687" lon="5.74967">
        <ele>637.59997558594</ele>
        <time>2016-05-06T14:31:32Z</time>
      </trkpt>
      <trkpt lat="44.32673" lon="5.74955">
        <ele>638</ele>
        <time>2016-05-06T14:31:36Z</time>
      </trkpt>
      <trkpt lat="44.32655" lon="5.74939">
        <ele>638.79998779297</ele>
        <time>2016-05-06T14:31:41Z</time>
      </trkpt>
      <trkpt lat="44.32645" lon="5.7493">
        <ele>638.79998779297</ele>
        <time>2016-05-06T14:31:44Z</time>
      </trkpt>
      <trkpt lat="44.32637" lon="5.74924">
        <ele>639.40002441406</ele>
        <time>2016-05-06T14:31:46Z</time>
      </trkpt>
      <trkpt lat="44.32619" lon="5.74898">
        <ele>639.40002441406</ele>
        <time>2016-05-06T14:31:52Z</time>
      </trkpt>
      <trkpt lat="44.32617" lon="5.74894">
        <ele>639.40002441406</ele>
        <time>2016-05-06T14:31:53Z</time>
      </trkpt>
      <trkpt lat="44.32613" lon="5.74883">
        <ele>639.40002441406</ele>
        <time>2016-05-06T14:31:55Z</time>
      </trkpt>
      <trkpt lat="44.32605" lon="5.74859">
        <ele>639.40002441406</ele>
        <time>2016-05-06T14:32:00Z</time>
      </trkpt>
      <trkpt lat="44.326" lon="5.74841">
        <ele>640.40002441406</ele>
        <time>2016-05-06T14:32:04Z</time>
      </trkpt>
      <trkpt lat="44.32596" lon="5.74833">
        <ele>640.40002441406</ele>
        <time>2016-05-06T14:32:07Z</time>
      </trkpt>
      <trkpt lat="44.32591" lon="5.7483">
        <ele>640.79998779297</ele>
        <time>2016-05-06T14:32:09Z</time>
      </trkpt>
      <trkpt lat="44.32581" lon="5.74833">
        <ele>640.79998779297</ele>
        <time>2016-05-06T14:32:12Z</time>
      </trkpt>
      <trkpt lat="44.32578" lon="5.74837">
        <ele>641.79998779297</ele>
        <time>2016-05-06T14:32:13Z</time>
      </trkpt>
      <trkpt lat="44.32572" lon="5.7484">
        <ele>641.79998779297</ele>
        <time>2016-05-06T14:32:15Z</time>
      </trkpt>
      <trkpt lat="44.32542" lon="5.74852">
        <ele>641.79998779297</ele>
        <time>2016-05-06T14:32:23Z</time>
      </trkpt>
      <trkpt lat="44.32515" lon="5.74862">
        <ele>641.79998779297</ele>
        <time>2016-05-06T14:32:31Z</time>
      </trkpt>
      <trkpt lat="44.325" lon="5.74867">
        <ele>642.40002441406</ele>
        <time>2016-05-06T14:32:36Z</time>
      </trkpt>
      <trkpt lat="44.32487" lon="5.74871">
        <ele>643.40002441406</ele>
        <time>2016-05-06T14:32:41Z</time>
      </trkpt>
      <trkpt lat="44.32478" lon="5.74873">
        <ele>643.40002441406</ele>
        <time>2016-05-06T14:32:45Z</time>
      </trkpt>
      <trkpt lat="44.32475" lon="5.74873">
        <ele>644</ele>
        <time>2016-05-06T14:32:46Z</time>
      </trkpt>
      <trkpt lat="44.32463" lon="5.74873">
        <ele>644.79998779297</ele>
        <time>2016-05-06T14:32:51Z</time>
      </trkpt>
      <trkpt lat="44.32453" lon="5.7487">
        <ele>646.20001220703</ele>
        <time>2016-05-06T14:32:55Z</time>
      </trkpt>
      <trkpt lat="44.32441" lon="5.74864">
        <ele>646.79998779297</ele>
        <time>2016-05-06T14:33:00Z</time>
      </trkpt>
      <trkpt lat="44.32434" lon="5.74862">
        <ele>646.79998779297</ele>
        <time>2016-05-06T14:33:03Z</time>
      </trkpt>
      <trkpt lat="44.3241" lon="5.74856">
        <ele>646.79998779297</ele>
        <time>2016-05-06T14:33:13Z</time>
      </trkpt>
      <trkpt lat="44.32408" lon="5.74855">
        <ele>647.20001220703</ele>
        <time>2016-05-06T14:33:14Z</time>
      </trkpt>
      <trkpt lat="44.32403" lon="5.74852">
        <ele>647.20001220703</ele>
        <time>2016-05-06T14:33:16Z</time>
      </trkpt>
      <trkpt lat="44.32397" lon="5.74848">
        <ele>648.79998779297</ele>
        <time>2016-05-06T14:33:18Z</time>
      </trkpt>
      <trkpt lat="44.32394" lon="5.74846">
        <ele>648.79998779297</ele>
        <time>2016-05-06T14:33:19Z</time>
      </trkpt>
      <trkpt lat="44.32388" lon="5.74838">
        <ele>648.79998779297</ele>
        <time>2016-05-06T14:33:21Z</time>
      </trkpt>
      <trkpt lat="44.32383" lon="5.7483">
        <ele>649.40002441406</ele>
        <time>2016-05-06T14:33:23Z</time>
      </trkpt>
      <trkpt lat="44.32381" lon="5.74827">
        <ele>649.40002441406</ele>
        <time>2016-05-06T14:33:24Z</time>
      </trkpt>
      <trkpt lat="44.32372" lon="5.74813">
        <ele>650.20001220703</ele>
        <time>2016-05-06T14:33:28Z</time>
      </trkpt>
      <trkpt lat="44.32364" lon="5.74799">
        <ele>651</ele>
        <time>2016-05-06T14:33:32Z</time>
      </trkpt>
      <trkpt lat="44.32346" lon="5.74765">
        <ele>651</ele>
        <time>2016-05-06T14:33:41Z</time>
      </trkpt>
      <trkpt lat="44.32328" lon="5.74729">
        <ele>651</ele>
        <time>2016-05-06T14:33:49Z</time>
      </trkpt>
      <trkpt lat="44.32312" lon="5.74692">
        <ele>651</ele>
        <time>2016-05-06T14:33:58Z</time>
      </trkpt>
      <trkpt lat="44.32288" lon="5.7464">
        <ele>651</ele>
        <time>2016-05-06T14:34:10Z</time>
      </trkpt>
      <trkpt lat="44.32278" lon="5.74628">
        <ele>651</ele>
        <time>2016-05-06T14:34:13Z</time>
      </trkpt>
      <trkpt lat="44.32267" lon="5.74621">
        <ele>651</ele>
        <time>2016-05-06T14:34:16Z</time>
      </trkpt>
      <trkpt lat="44.3225" lon="5.74621">
        <ele>651</ele>
        <time>2016-05-06T14:34:20Z</time>
      </trkpt>
      <trkpt lat="44.32246" lon="5.74622">
        <ele>651</ele>
        <time>2016-05-06T14:34:21Z</time>
      </trkpt>
      <trkpt lat="44.32232" lon="5.74629">
        <ele>651</ele>
        <time>2016-05-06T14:34:26Z</time>
      </trkpt>
      <trkpt lat="44.32215" lon="5.74634">
        <ele>651.59997558594</ele>
        <time>2016-05-06T14:34:33Z</time>
      </trkpt>
      <trkpt lat="44.32212" lon="5.74634">
        <ele>651.59997558594</ele>
        <time>2016-05-06T14:34:34Z</time>
      </trkpt>
      <trkpt lat="44.3221" lon="5.74632">
        <ele>651.59997558594</ele>
        <time>2016-05-06T14:34:35Z</time>
      </trkpt>
      <trkpt lat="44.32205" lon="5.74629">
        <ele>652.20001220703</ele>
        <time>2016-05-06T14:34:37Z</time>
      </trkpt>
      <trkpt lat="44.32203" lon="5.74627">
        <ele>652.20001220703</ele>
        <time>2016-05-06T14:34:38Z</time>
      </trkpt>
      <trkpt lat="44.32198" lon="5.7462">
        <ele>652.79998779297</ele>
        <time>2016-05-06T14:34:41Z</time>
      </trkpt>
      <trkpt lat="44.32196" lon="5.74617">
        <ele>653.40002441406</ele>
        <time>2016-05-06T14:34:42Z</time>
      </trkpt>
      <trkpt lat="44.32194" lon="5.7461">
        <ele>653.40002441406</ele>
        <time>2016-05-06T14:34:44Z</time>
      </trkpt>
      <trkpt lat="44.32193" lon="5.74602">
        <ele>654</ele>
        <time>2016-05-06T14:34:46Z</time>
      </trkpt>
      <trkpt lat="44.32192" lon="5.74587">
        <ele>654</ele>
        <time>2016-05-06T14:34:50Z</time>
      </trkpt>
      <trkpt lat="44.32193" lon="5.74583">
        <ele>654.59997558594</ele>
        <time>2016-05-06T14:34:51Z</time>
      </trkpt>
      <trkpt lat="44.32201" lon="5.74564">
        <ele>655.20001220703</ele>
        <time>2016-05-06T14:34:55Z</time>
      </trkpt>
      <trkpt lat="44.32204" lon="5.7456">
        <ele>655.59997558594</ele>
        <time>2016-05-06T14:34:56Z</time>
      </trkpt>
      <trkpt lat="44.32216" lon="5.74537">
        <ele>656.20001220703</ele>
        <time>2016-05-06T14:35:00Z</time>
      </trkpt>
      <trkpt lat="44.32223" lon="5.74524">
        <ele>656.20001220703</ele>
        <time>2016-05-06T14:35:02Z</time>
      </trkpt>
      <trkpt lat="44.32233" lon="5.74499">
        <ele>656.20001220703</ele>
        <time>2016-05-06T14:35:06Z</time>
      </trkpt>
      <trkpt lat="44.32237" lon="5.74486">
        <ele>656.20001220703</ele>
        <time>2016-05-06T14:35:08Z</time>
      </trkpt>
      <trkpt lat="44.32238" lon="5.7448">
        <ele>656.20001220703</ele>
        <time>2016-05-06T14:35:09Z</time>
      </trkpt>
      <trkpt lat="44.32239" lon="5.74454">
        <ele>656.20001220703</ele>
        <time>2016-05-06T14:35:13Z</time>
      </trkpt>
      <trkpt lat="44.3224" lon="5.74448">
        <ele>655.79998779297</ele>
        <time>2016-05-06T14:35:14Z</time>
      </trkpt>
      <trkpt lat="44.32241" lon="5.74433">
        <ele>655.79998779297</ele>
        <time>2016-05-06T14:35:16Z</time>
      </trkpt>
      <trkpt lat="44.32241" lon="5.74407">
        <ele>654.79998779297</ele>
        <time>2016-05-06T14:35:19Z</time>
      </trkpt>
      <trkpt lat="44.32239" lon="5.74378">
        <ele>654.40002441406</ele>
        <time>2016-05-06T14:35:23Z</time>
      </trkpt>
      <trkpt lat="44.32236" lon="5.7436">
        <ele>654.40002441406</ele>
        <time>2016-05-06T14:35:26Z</time>
      </trkpt>
      <trkpt lat="44.32234" lon="5.74343">
        <ele>653.40002441406</ele>
        <time>2016-05-06T14:35:28Z</time>
      </trkpt>
      <trkpt lat="44.32232" lon="5.74333">
        <ele>653.40002441406</ele>
        <time>2016-05-06T14:35:29Z</time>
      </trkpt>
      <trkpt lat="44.32217" lon="5.74305">
        <ele>653.40002441406</ele>
        <time>2016-05-06T14:35:32Z</time>
      </trkpt>
      <trkpt lat="44.32212" lon="5.74298">
        <ele>652.59997558594</ele>
        <time>2016-05-06T14:35:33Z</time>
      </trkpt>
      <trkpt lat="44.32207" lon="5.74292">
        <ele>652.59997558594</ele>
        <time>2016-05-06T14:35:34Z</time>
      </trkpt>
      <trkpt lat="44.322" lon="5.74281">
        <ele>652.59997558594</ele>
        <time>2016-05-06T14:35:36Z</time>
      </trkpt>
      <trkpt lat="44.32197" lon="5.74275">
        <ele>651</ele>
        <time>2016-05-06T14:35:37Z</time>
      </trkpt>
      <trkpt lat="44.32181" lon="5.74254">
        <ele>651</ele>
        <time>2016-05-06T14:35:42Z</time>
      </trkpt>
      <trkpt lat="44.32179" lon="5.74251">
        <ele>649.40002441406</ele>
        <time>2016-05-06T14:35:43Z</time>
      </trkpt>
      <trkpt lat="44.32172" lon="5.74235">
        <ele>649.40002441406</ele>
        <time>2016-05-06T14:35:47Z</time>
      </trkpt>
      <trkpt lat="44.32172" lon="5.74211">
        <ele>649.40002441406</ele>
        <time>2016-05-06T14:35:52Z</time>
      </trkpt>
      <trkpt lat="44.32181" lon="5.74196">
        <ele>649.40002441406</ele>
        <time>2016-05-06T14:35:55Z</time>
      </trkpt>
      <trkpt lat="44.32188" lon="5.74188">
        <ele>649.40002441406</ele>
        <time>2016-05-06T14:35:57Z</time>
      </trkpt>
      <trkpt lat="44.3219" lon="5.74169">
        <ele>649.40002441406</ele>
        <time>2016-05-06T14:36:00Z</time>
      </trkpt>
      <trkpt lat="44.3219" lon="5.74162">
        <ele>649.40002441406</ele>
        <time>2016-05-06T14:36:01Z</time>
      </trkpt>
      <trkpt lat="44.32187" lon="5.74135">
        <ele>649.40002441406</ele>
        <time>2016-05-06T14:36:05Z</time>
      </trkpt>
      <trkpt lat="44.32183" lon="5.74124">
        <ele>649.40002441406</ele>
        <time>2016-05-06T14:36:07Z</time>
      </trkpt>
      <trkpt lat="44.32172" lon="5.74078">
        <ele>649.40002441406</ele>
        <time>2016-05-06T14:36:15Z</time>
      </trkpt>
      <trkpt lat="44.32166" lon="5.74056">
        <ele>649.40002441406</ele>
        <time>2016-05-06T14:36:19Z</time>
      </trkpt>
      <trkpt lat="44.32159" lon="5.7404">
        <ele>649.40002441406</ele>
        <time>2016-05-06T14:36:22Z</time>
      </trkpt>
      <trkpt lat="44.32148" lon="5.74019">
        <ele>649.40002441406</ele>
        <time>2016-05-06T14:36:27Z</time>
      </trkpt>
      <trkpt lat="44.32145" lon="5.74014">
        <ele>649.40002441406</ele>
        <time>2016-05-06T14:36:28Z</time>
      </trkpt>
      <trkpt lat="44.32138" lon="5.73991">
        <ele>649.40002441406</ele>
        <time>2016-05-06T14:36:32Z</time>
      </trkpt>
      <trkpt lat="44.32137" lon="5.73985">
        <ele>649.40002441406</ele>
        <time>2016-05-06T14:36:33Z</time>
      </trkpt>
      <trkpt lat="44.32132" lon="5.73963">
        <ele>649.40002441406</ele>
        <time>2016-05-06T14:36:37Z</time>
      </trkpt>
      <trkpt lat="44.32131" lon="5.73957">
        <ele>649.40002441406</ele>
        <time>2016-05-06T14:36:38Z</time>
      </trkpt>
      <trkpt lat="44.32125" lon="5.73929">
        <ele>649.40002441406</ele>
        <time>2016-05-06T14:36:43Z</time>
      </trkpt>
      <trkpt lat="44.32124" lon="5.73917">
        <ele>649.40002441406</ele>
        <time>2016-05-06T14:36:45Z</time>
      </trkpt>
      <trkpt lat="44.32123" lon="5.73881">
        <ele>649.40002441406</ele>
        <time>2016-05-06T14:36:51Z</time>
      </trkpt>
      <trkpt lat="44.32121" lon="5.7387">
        <ele>649.40002441406</ele>
        <time>2016-05-06T14:36:53Z</time>
      </trkpt>
      <trkpt lat="44.32117" lon="5.73851">
        <ele>649.40002441406</ele>
        <time>2016-05-06T14:36:56Z</time>
      </trkpt>
      <trkpt lat="44.32104" lon="5.73823">
        <ele>649.40002441406</ele>
        <time>2016-05-06T14:37:02Z</time>
      </trkpt>
      <trkpt lat="44.32099" lon="5.73814">
        <ele>650.20001220703</ele>
        <time>2016-05-06T14:37:04Z</time>
      </trkpt>
      <trkpt lat="44.32086" lon="5.73795">
        <ele>650.59997558594</ele>
        <time>2016-05-06T14:37:09Z</time>
      </trkpt>
      <trkpt lat="44.32083" lon="5.73792">
        <ele>650.59997558594</ele>
        <time>2016-05-06T14:37:10Z</time>
      </trkpt>
      <trkpt lat="44.32074" lon="5.73783">
        <ele>651.40002441406</ele>
        <time>2016-05-06T14:37:13Z</time>
      </trkpt>
      <trkpt lat="44.32055" lon="5.73767">
        <ele>651.40002441406</ele>
        <time>2016-05-06T14:37:19Z</time>
      </trkpt>
      <trkpt lat="44.32041" lon="5.73766">
        <ele>651.40002441406</ele>
        <time>2016-05-06T14:37:23Z</time>
      </trkpt>
      <trkpt lat="44.32036" lon="5.73768">
        <ele>651.40002441406</ele>
        <time>2016-05-06T14:37:24Z</time>
      </trkpt>
      <trkpt lat="44.32025" lon="5.73779">
        <ele>651.40002441406</ele>
        <time>2016-05-06T14:37:27Z</time>
      </trkpt>
      <trkpt lat="44.32022" lon="5.73783">
        <ele>651.40002441406</ele>
        <time>2016-05-06T14:37:28Z</time>
      </trkpt>
      <trkpt lat="44.32004" lon="5.738">
        <ele>651.40002441406</ele>
        <time>2016-05-06T14:37:33Z</time>
      </trkpt>
      <trkpt lat="44.32" lon="5.73801">
        <ele>651.40002441406</ele>
        <time>2016-05-06T14:37:34Z</time>
      </trkpt>
      <trkpt lat="44.31993" lon="5.73801">
        <ele>651.40002441406</ele>
        <time>2016-05-06T14:37:36Z</time>
      </trkpt>
      <trkpt lat="44.31981" lon="5.73789">
        <ele>651.40002441406</ele>
        <time>2016-05-06T14:37:40Z</time>
      </trkpt>
      <trkpt lat="44.31978" lon="5.73785">
        <ele>651.79998779297</ele>
        <time>2016-05-06T14:37:41Z</time>
      </trkpt>
      <trkpt lat="44.31976" lon="5.73781">
        <ele>651.79998779297</ele>
        <time>2016-05-06T14:37:42Z</time>
      </trkpt>
      <trkpt lat="44.31966" lon="5.73764">
        <ele>652.20001220703</ele>
        <time>2016-05-06T14:37:46Z</time>
      </trkpt>
      <trkpt lat="44.31964" lon="5.7376">
        <ele>652.20001220703</ele>
        <time>2016-05-06T14:37:47Z</time>
      </trkpt>
      <trkpt lat="44.31953" lon="5.73744">
        <ele>653</ele>
        <time>2016-05-06T14:37:51Z</time>
      </trkpt>
      <trkpt lat="44.31941" lon="5.73726">
        <ele>653.59997558594</ele>
        <time>2016-05-06T14:37:56Z</time>
      </trkpt>
      <trkpt lat="44.31935" lon="5.73719">
        <ele>653.59997558594</ele>
        <time>2016-05-06T14:37:58Z</time>
      </trkpt>
      <trkpt lat="44.31916" lon="5.73703">
        <ele>653.59997558594</ele>
        <time>2016-05-06T14:38:04Z</time>
      </trkpt>
      <trkpt lat="44.3189" lon="5.73684">
        <ele>653.59997558594</ele>
        <time>2016-05-06T14:38:12Z</time>
      </trkpt>
      <trkpt lat="44.31857" lon="5.73662">
        <ele>653.59997558594</ele>
        <time>2016-05-06T14:38:22Z</time>
      </trkpt>
      <trkpt lat="44.31846" lon="5.73655">
        <ele>654</ele>
        <time>2016-05-06T14:38:25Z</time>
      </trkpt>
      <trkpt lat="44.31828" lon="5.73649">
        <ele>654.40002441406</ele>
        <time>2016-05-06T14:38:30Z</time>
      </trkpt>
      <trkpt lat="44.3182" lon="5.7365">
        <ele>654.40002441406</ele>
        <time>2016-05-06T14:38:32Z</time>
      </trkpt>
      <trkpt lat="44.31812" lon="5.73654">
        <ele>655.20001220703</ele>
        <time>2016-05-06T14:38:34Z</time>
      </trkpt>
      <trkpt lat="44.31808" lon="5.73657">
        <ele>655.20001220703</ele>
        <time>2016-05-06T14:38:35Z</time>
      </trkpt>
      <trkpt lat="44.31805" lon="5.73659">
        <ele>655.20001220703</ele>
        <time>2016-05-06T14:38:36Z</time>
      </trkpt>
      <trkpt lat="44.31797" lon="5.73666">
        <ele>655.79998779297</ele>
        <time>2016-05-06T14:38:39Z</time>
      </trkpt>
      <trkpt lat="44.31792" lon="5.7367">
        <ele>655.79998779297</ele>
        <time>2016-05-06T14:38:41Z</time>
      </trkpt>
      <trkpt lat="44.31787" lon="5.73674">
        <ele>656.20001220703</ele>
        <time>2016-05-06T14:38:43Z</time>
      </trkpt>
      <trkpt lat="44.31786" lon="5.73678">
        <ele>656.59997558594</ele>
        <time>2016-05-06T14:38:44Z</time>
      </trkpt>
      <trkpt lat="44.31785" lon="5.73687">
        <ele>656.59997558594</ele>
        <time>2016-05-06T14:38:46Z</time>
      </trkpt>
      <trkpt lat="44.31786" lon="5.73695">
        <ele>657</ele>
        <time>2016-05-06T14:38:48Z</time>
      </trkpt>
      <trkpt lat="44.31787" lon="5.73712">
        <ele>657</ele>
        <time>2016-05-06T14:38:52Z</time>
      </trkpt>
      <trkpt lat="44.31787" lon="5.7372">
        <ele>658.20001220703</ele>
        <time>2016-05-06T14:38:54Z</time>
      </trkpt>
      <trkpt lat="44.31785" lon="5.73738">
        <ele>658.79998779297</ele>
        <time>2016-05-06T14:38:59Z</time>
      </trkpt>
      <trkpt lat="44.31773" lon="5.73745">
        <ele>660</ele>
        <time>2016-05-06T14:39:03Z</time>
      </trkpt>
      <trkpt lat="44.31759" lon="5.73743">
        <ele>660.59997558594</ele>
        <time>2016-05-06T14:39:08Z</time>
      </trkpt>
      <trkpt lat="44.31748" lon="5.73742">
        <ele>661</ele>
        <time>2016-05-06T14:39:12Z</time>
      </trkpt>
      <trkpt lat="44.31738" lon="5.73738">
        <ele>661</ele>
        <time>2016-05-06T14:39:16Z</time>
      </trkpt>
      <trkpt lat="44.31735" lon="5.73736">
        <ele>662.20001220703</ele>
        <time>2016-05-06T14:39:17Z</time>
      </trkpt>
      <trkpt lat="44.31725" lon="5.73733">
        <ele>662.79998779297</ele>
        <time>2016-05-06T14:39:21Z</time>
      </trkpt>
      <trkpt lat="44.31717" lon="5.7373">
        <ele>662.79998779297</ele>
        <time>2016-05-06T14:39:24Z</time>
      </trkpt>
      <trkpt lat="44.3171" lon="5.73729">
        <ele>663.79998779297</ele>
        <time>2016-05-06T14:39:26Z</time>
      </trkpt>
      <trkpt lat="44.31697" lon="5.73723">
        <ele>664.79998779297</ele>
        <time>2016-05-06T14:39:31Z</time>
      </trkpt>
      <trkpt lat="44.31694" lon="5.73722">
        <ele>664.79998779297</ele>
        <time>2016-05-06T14:39:32Z</time>
      </trkpt>
      <trkpt lat="44.31675" lon="5.73708">
        <ele>664.79998779297</ele>
        <time>2016-05-06T14:39:38Z</time>
      </trkpt>
      <trkpt lat="44.31661" lon="5.73682">
        <ele>665.20001220703</ele>
        <time>2016-05-06T14:39:45Z</time>
      </trkpt>
      <trkpt lat="44.31659" lon="5.73678">
        <ele>665.20001220703</ele>
        <time>2016-05-06T14:39:46Z</time>
      </trkpt>
      <trkpt lat="44.31654" lon="5.73669">
        <ele>665.59997558594</ele>
        <time>2016-05-06T14:39:49Z</time>
      </trkpt>
      <trkpt lat="44.31645" lon="5.73653">
        <ele>666.40002441406</ele>
        <time>2016-05-06T14:39:54Z</time>
      </trkpt>
      <trkpt lat="44.31642" lon="5.73647">
        <ele>666.40002441406</ele>
        <time>2016-05-06T14:39:56Z</time>
      </trkpt>
      <trkpt lat="44.31636" lon="5.73637">
        <ele>666.79998779297</ele>
        <time>2016-05-06T14:39:59Z</time>
      </trkpt>
      <trkpt lat="44.31628" lon="5.73623">
        <ele>666.79998779297</ele>
        <time>2016-05-06T14:40:03Z</time>
      </trkpt>
      <trkpt lat="44.31613" lon="5.73595">
        <ele>666.79998779297</ele>
        <time>2016-05-06T14:40:11Z</time>
      </trkpt>
      <trkpt lat="44.31602" lon="5.73577">
        <ele>668</ele>
        <time>2016-05-06T14:40:17Z</time>
      </trkpt>
      <trkpt lat="44.31596" lon="5.73563">
        <ele>668.40002441406</ele>
        <time>2016-05-06T14:40:21Z</time>
      </trkpt>
      <trkpt lat="44.31593" lon="5.73556">
        <ele>668.40002441406</ele>
        <time>2016-05-06T14:40:23Z</time>
      </trkpt>
      <trkpt lat="44.31588" lon="5.73543">
        <ele>670</ele>
        <time>2016-05-06T14:40:27Z</time>
      </trkpt>
      <trkpt lat="44.31585" lon="5.73523">
        <ele>670.59997558594</ele>
        <time>2016-05-06T14:40:32Z</time>
      </trkpt>
      <trkpt lat="44.31579" lon="5.73507">
        <ele>672.20001220703</ele>
        <time>2016-05-06T14:40:37Z</time>
      </trkpt>
      <trkpt lat="44.31578" lon="5.73501">
        <ele>672.20001220703</ele>
        <time>2016-05-06T14:40:39Z</time>
      </trkpt>
      <trkpt lat="44.31576" lon="5.73493">
        <ele>673</ele>
        <time>2016-05-06T14:40:42Z</time>
      </trkpt>
      <trkpt lat="44.31575" lon="5.73486">
        <ele>673</ele>
        <time>2016-05-06T14:40:44Z</time>
      </trkpt>
      <trkpt lat="44.31572" lon="5.73475">
        <ele>673.79998779297</ele>
        <time>2016-05-06T14:40:47Z</time>
      </trkpt>
      <trkpt lat="44.31569" lon="5.7346">
        <ele>674.59997558594</ele>
        <time>2016-05-06T14:40:51Z</time>
      </trkpt>
      <trkpt lat="44.31567" lon="5.73442">
        <ele>675</ele>
        <time>2016-05-06T14:40:56Z</time>
      </trkpt>
      <trkpt lat="44.31563" lon="5.73427">
        <ele>675.59997558594</ele>
        <time>2016-05-06T14:41:00Z</time>
      </trkpt>
      <trkpt lat="44.31562" lon="5.73423">
        <ele>676</ele>
        <time>2016-05-06T14:41:01Z</time>
      </trkpt>
      <trkpt lat="44.31559" lon="5.73408">
        <ele>676.59997558594</ele>
        <time>2016-05-06T14:41:05Z</time>
      </trkpt>
      <trkpt lat="44.31557" lon="5.73405">
        <ele>676.59997558594</ele>
        <time>2016-05-06T14:41:06Z</time>
      </trkpt>
      <trkpt lat="44.31553" lon="5.73391">
        <ele>678</ele>
        <time>2016-05-06T14:41:10Z</time>
      </trkpt>
      <trkpt lat="44.31551" lon="5.73376">
        <ele>678.79998779297</ele>
        <time>2016-05-06T14:41:14Z</time>
      </trkpt>
      <trkpt lat="44.3155" lon="5.73372">
        <ele>678.79998779297</ele>
        <time>2016-05-06T14:41:15Z</time>
      </trkpt>
      <trkpt lat="44.31548" lon="5.73357">
        <ele>679.40002441406</ele>
        <time>2016-05-06T14:41:19Z</time>
      </trkpt>
      <trkpt lat="44.31544" lon="5.73338">
        <ele>679.79998779297</ele>
        <time>2016-05-06T14:41:24Z</time>
      </trkpt>
      <trkpt lat="44.31543" lon="5.73334">
        <ele>679.79998779297</ele>
        <time>2016-05-06T14:41:25Z</time>
      </trkpt>
      <trkpt lat="44.31541" lon="5.73323">
        <ele>680.20001220703</ele>
        <time>2016-05-06T14:41:28Z</time>
      </trkpt>
      <trkpt lat="44.31536" lon="5.7331">
        <ele>680.79998779297</ele>
        <time>2016-05-06T14:41:32Z</time>
      </trkpt>
      <trkpt lat="44.31535" lon="5.73307">
        <ele>681.20001220703</ele>
        <time>2016-05-06T14:41:33Z</time>
      </trkpt>
      <trkpt lat="44.31533" lon="5.73305">
        <ele>681.20001220703</ele>
        <time>2016-05-06T14:41:34Z</time>
      </trkpt>
      <trkpt lat="44.3153" lon="5.73296">
        <ele>681.59997558594</ele>
        <time>2016-05-06T14:41:37Z</time>
      </trkpt>
      <trkpt lat="44.31519" lon="5.73274">
        <ele>681.59997558594</ele>
        <time>2016-05-06T14:41:44Z</time>
      </trkpt>
      <trkpt lat="44.31516" lon="5.73268">
        <ele>682.20001220703</ele>
        <time>2016-05-06T14:41:46Z</time>
      </trkpt>
      <trkpt lat="44.31509" lon="5.73254">
        <ele>683.20001220703</ele>
        <time>2016-05-06T14:41:51Z</time>
      </trkpt>
      <trkpt lat="44.31506" lon="5.73245">
        <ele>683.20001220703</ele>
        <time>2016-05-06T14:41:54Z</time>
      </trkpt>
      <trkpt lat="44.31505" lon="5.73242">
        <ele>683.59997558594</ele>
        <time>2016-05-06T14:41:55Z</time>
      </trkpt>
      <trkpt lat="44.31504" lon="5.73239">
        <ele>684.20001220703</ele>
        <time>2016-05-06T14:41:56Z</time>
      </trkpt>
      <trkpt lat="44.31499" lon="5.73227">
        <ele>684.59997558594</ele>
        <time>2016-05-06T14:42:00Z</time>
      </trkpt>
      <trkpt lat="44.31491" lon="5.73218">
        <ele>684.59997558594</ele>
        <time>2016-05-06T14:42:04Z</time>
      </trkpt>
      <trkpt lat="44.31488" lon="5.73216">
        <ele>685.59997558594</ele>
        <time>2016-05-06T14:42:05Z</time>
      </trkpt>
      <trkpt lat="44.31481" lon="5.73206">
        <ele>686.20001220703</ele>
        <time>2016-05-06T14:42:09Z</time>
      </trkpt>
      <trkpt lat="44.31475" lon="5.73199">
        <ele>686.20001220703</ele>
        <time>2016-05-06T14:42:12Z</time>
      </trkpt>
      <trkpt lat="44.31471" lon="5.73196">
        <ele>686.59997558594</ele>
        <time>2016-05-06T14:42:14Z</time>
      </trkpt>
      <trkpt lat="44.31463" lon="5.73188">
        <ele>687</ele>
        <time>2016-05-06T14:42:18Z</time>
      </trkpt>
      <trkpt lat="44.31461" lon="5.73186">
        <ele>687.40002441406</ele>
        <time>2016-05-06T14:42:19Z</time>
      </trkpt>
      <trkpt lat="44.31456" lon="5.7318">
        <ele>687.40002441406</ele>
        <time>2016-05-06T14:42:22Z</time>
      </trkpt>
      <trkpt lat="44.31454" lon="5.73178">
        <ele>687.79998779297</ele>
        <time>2016-05-06T14:42:23Z</time>
      </trkpt>
      <trkpt lat="44.31445" lon="5.73169">
        <ele>688.79998779297</ele>
        <time>2016-05-06T14:42:28Z</time>
      </trkpt>
      <trkpt lat="44.31442" lon="5.73165">
        <ele>688.79998779297</ele>
        <time>2016-05-06T14:42:30Z</time>
      </trkpt>
      <trkpt lat="44.31438" lon="5.73161">
        <ele>689.40002441406</ele>
        <time>2016-05-06T14:42:32Z</time>
      </trkpt>
      <trkpt lat="44.31437" lon="5.73159">
        <ele>689.79998779297</ele>
        <time>2016-05-06T14:42:33Z</time>
      </trkpt>
      <trkpt lat="44.31429" lon="5.73153">
        <ele>690.40002441406</ele>
        <time>2016-05-06T14:42:37Z</time>
      </trkpt>
      <trkpt lat="44.31422" lon="5.73145">
        <ele>691</ele>
        <time>2016-05-06T14:42:41Z</time>
      </trkpt>
      <trkpt lat="44.3142" lon="5.73143">
        <ele>691.40002441406</ele>
        <time>2016-05-06T14:42:42Z</time>
      </trkpt>
      <trkpt lat="44.31412" lon="5.73134">
        <ele>692</ele>
        <time>2016-05-06T14:42:46Z</time>
      </trkpt>
      <trkpt lat="44.3141" lon="5.73133">
        <ele>692.40002441406</ele>
        <time>2016-05-06T14:42:47Z</time>
      </trkpt>
      <trkpt lat="44.31404" lon="5.73127">
        <ele>692.40002441406</ele>
        <time>2016-05-06T14:42:50Z</time>
      </trkpt>
      <trkpt lat="44.31402" lon="5.73125">
        <ele>693</ele>
        <time>2016-05-06T14:42:51Z</time>
      </trkpt>
      <trkpt lat="44.31392" lon="5.73115">
        <ele>693.79998779297</ele>
        <time>2016-05-06T14:42:56Z</time>
      </trkpt>
      <trkpt lat="44.31385" lon="5.73109">
        <ele>693.79998779297</ele>
        <time>2016-05-06T14:42:59Z</time>
      </trkpt>
      <trkpt lat="44.31383" lon="5.73106">
        <ele>694.20001220703</ele>
        <time>2016-05-06T14:43:00Z</time>
      </trkpt>
      <trkpt lat="44.31369" lon="5.73092">
        <ele>694.79998779297</ele>
        <time>2016-05-06T14:43:06Z</time>
      </trkpt>
      <trkpt lat="44.31364" lon="5.73088">
        <ele>694.79998779297</ele>
        <time>2016-05-06T14:43:08Z</time>
      </trkpt>
      <trkpt lat="44.3136" lon="5.73083">
        <ele>695.20001220703</ele>
        <time>2016-05-06T14:43:10Z</time>
      </trkpt>
      <trkpt lat="44.31358" lon="5.7308">
        <ele>695.79998779297</ele>
        <time>2016-05-06T14:43:11Z</time>
      </trkpt>
      <trkpt lat="44.31347" lon="5.73068">
        <ele>696.20001220703</ele>
        <time>2016-05-06T14:43:16Z</time>
      </trkpt>
      <trkpt lat="44.31345" lon="5.73065">
        <ele>696.20001220703</ele>
        <time>2016-05-06T14:43:17Z</time>
      </trkpt>
      <trkpt lat="44.31335" lon="5.73055">
        <ele>696.79998779297</ele>
        <time>2016-05-06T14:43:21Z</time>
      </trkpt>
      <trkpt lat="44.31326" lon="5.73044">
        <ele>697.20001220703</ele>
        <time>2016-05-06T14:43:25Z</time>
      </trkpt>
      <trkpt lat="44.31324" lon="5.73041">
        <ele>697.79998779297</ele>
        <time>2016-05-06T14:43:26Z</time>
      </trkpt>
      <trkpt lat="44.31313" lon="5.73026">
        <ele>698.40002441406</ele>
        <time>2016-05-06T14:43:30Z</time>
      </trkpt>
      <trkpt lat="44.31301" lon="5.73011">
        <ele>698.40002441406</ele>
        <time>2016-05-06T14:43:34Z</time>
      </trkpt>
      <trkpt lat="44.31299" lon="5.73008">
        <ele>699.79998779297</ele>
        <time>2016-05-06T14:43:35Z</time>
      </trkpt>
      <trkpt lat="44.31289" lon="5.72996">
        <ele>700.40002441406</ele>
        <time>2016-05-06T14:43:39Z</time>
      </trkpt>
      <trkpt lat="44.31278" lon="5.72983">
        <ele>700.40002441406</ele>
        <time>2016-05-06T14:43:43Z</time>
      </trkpt>
      <trkpt lat="44.31276" lon="5.7298">
        <ele>701</ele>
        <time>2016-05-06T14:43:44Z</time>
      </trkpt>
      <trkpt lat="44.31266" lon="5.72968">
        <ele>701.59997558594</ele>
        <time>2016-05-06T14:43:48Z</time>
      </trkpt>
      <trkpt lat="44.31263" lon="5.72965">
        <ele>702.20001220703</ele>
        <time>2016-05-06T14:43:49Z</time>
      </trkpt>
      <trkpt lat="44.31253" lon="5.72955">
        <ele>702.59997558594</ele>
        <time>2016-05-06T14:43:53Z</time>
      </trkpt>
      <trkpt lat="44.31242" lon="5.7294">
        <ele>703.79998779297</ele>
        <time>2016-05-06T14:43:58Z</time>
      </trkpt>
      <trkpt lat="44.31235" lon="5.72923">
        <ele>703.79998779297</ele>
        <time>2016-05-06T14:44:02Z</time>
      </trkpt>
      <trkpt lat="44.31224" lon="5.72895">
        <ele>703.79998779297</ele>
        <time>2016-05-06T14:44:06Z</time>
      </trkpt>
      <trkpt lat="44.3121" lon="5.72855">
        <ele>703.79998779297</ele>
        <time>2016-05-06T14:44:10Z</time>
      </trkpt>
      <trkpt lat="44.31208" lon="5.72835">
        <ele>703.20001220703</ele>
        <time>2016-05-06T14:44:12Z</time>
      </trkpt>
      <trkpt lat="44.31209" lon="5.72827">
        <ele>703.20001220703</ele>
        <time>2016-05-06T14:44:13Z</time>
      </trkpt>
      <trkpt lat="44.31209" lon="5.72812">
        <ele>702.79998779297</ele>
        <time>2016-05-06T14:44:16Z</time>
      </trkpt>
      <trkpt lat="44.31211" lon="5.72799">
        <ele>702.40002441406</ele>
        <time>2016-05-06T14:44:20Z</time>
      </trkpt>
      <trkpt lat="44.31211" lon="5.72796">
        <ele>702.59997558594</ele>
        <time>2016-05-06T14:44:21Z</time>
      </trkpt>
      <trkpt lat="44.31211" lon="5.72789">
        <ele>702.59997558594</ele>
        <time>2016-05-06T14:44:23Z</time>
      </trkpt>
      <trkpt lat="44.31211" lon="5.72783">
        <ele>703</ele>
        <time>2016-05-06T14:44:25Z</time>
      </trkpt>
      <trkpt lat="44.31211" lon="5.72779">
        <ele>703.20001220703</ele>
        <time>2016-05-06T14:44:26Z</time>
      </trkpt>
      <trkpt lat="44.31204" lon="5.7275">
        <ele>704.40002441406</ele>
        <time>2016-05-06T14:44:35Z</time>
      </trkpt>
      <trkpt lat="44.312" lon="5.72744">
        <ele>705.59997558594</ele>
        <time>2016-05-06T14:44:37Z</time>
      </trkpt>
      <trkpt lat="44.31194" lon="5.72729">
        <ele>705.59997558594</ele>
        <time>2016-05-06T14:44:40Z</time>
      </trkpt>
      <trkpt lat="44.31189" lon="5.72716">
        <ele>706.40002441406</ele>
        <time>2016-05-06T14:44:42Z</time>
      </trkpt>
      <trkpt lat="44.31179" lon="5.72688">
        <ele>706.40002441406</ele>
        <time>2016-05-06T14:44:46Z</time>
      </trkpt>
      <trkpt lat="44.31153" lon="5.72637">
        <ele>705.79998779297</ele>
        <time>2016-05-06T14:44:53Z</time>
      </trkpt>
      <trkpt lat="44.31149" lon="5.7263">
        <ele>705.79998779297</ele>
        <time>2016-05-06T14:44:54Z</time>
      </trkpt>
      <trkpt lat="44.31143" lon="5.72614">
        <ele>705</ele>
        <time>2016-05-06T14:44:56Z</time>
      </trkpt>
      <trkpt lat="44.31141" lon="5.72605">
        <ele>705</ele>
        <time>2016-05-06T14:44:57Z</time>
      </trkpt>
      <trkpt lat="44.3114" lon="5.72588">
        <ele>704.40002441406</ele>
        <time>2016-05-06T14:44:59Z</time>
      </trkpt>
      <trkpt lat="44.31139" lon="5.72579">
        <ele>703.79998779297</ele>
        <time>2016-05-06T14:45:00Z</time>
      </trkpt>
      <trkpt lat="44.31139" lon="5.72539">
        <ele>703.79998779297</ele>
        <time>2016-05-06T14:45:05Z</time>
      </trkpt>
      <trkpt lat="44.31142" lon="5.72494">
        <ele>703.79998779297</ele>
        <time>2016-05-06T14:45:12Z</time>
      </trkpt>
      <trkpt lat="44.31147" lon="5.72429">
        <ele>703.79998779297</ele>
        <time>2016-05-06T14:45:23Z</time>
      </trkpt>
      <trkpt lat="44.31146" lon="5.72412">
        <ele>703.79998779297</ele>
        <time>2016-05-06T14:45:26Z</time>
      </trkpt>
      <trkpt lat="44.31143" lon="5.72405">
        <ele>703.79998779297</ele>
        <time>2016-05-06T14:45:28Z</time>
      </trkpt>
      <trkpt lat="44.31133" lon="5.72403">
        <ele>703.79998779297</ele>
        <time>2016-05-06T14:45:31Z</time>
      </trkpt>
      <trkpt lat="44.31129" lon="5.72403">
        <ele>703.79998779297</ele>
        <time>2016-05-06T14:45:32Z</time>
      </trkpt>
      <trkpt lat="44.31103" lon="5.724">
        <ele>703.79998779297</ele>
        <time>2016-05-06T14:45:40Z</time>
      </trkpt>
      <trkpt lat="44.31094" lon="5.72398">
        <ele>703.20001220703</ele>
        <time>2016-05-06T14:45:43Z</time>
      </trkpt>
      <trkpt lat="44.31086" lon="5.72397">
        <ele>702.59997558594</ele>
        <time>2016-05-06T14:45:46Z</time>
      </trkpt>
      <trkpt lat="44.31084" lon="5.72397">
        <ele>703.20001220703</ele>
        <time>2016-05-06T14:45:47Z</time>
      </trkpt>
      <trkpt lat="44.31081" lon="5.72397">
        <ele>703.20001220703</ele>
        <time>2016-05-06T14:45:48Z</time>
      </trkpt>
      <trkpt lat="44.31076" lon="5.72396">
        <ele>703.59997558594</ele>
        <time>2016-05-06T14:45:50Z</time>
      </trkpt>
      <trkpt lat="44.31073" lon="5.72395">
        <ele>704.20001220703</ele>
        <time>2016-05-06T14:45:51Z</time>
      </trkpt>
      <trkpt lat="44.31068" lon="5.72394">
        <ele>704.79998779297</ele>
        <time>2016-05-06T14:45:53Z</time>
      </trkpt>
      <trkpt lat="44.31066" lon="5.72393">
        <ele>705.40002441406</ele>
        <time>2016-05-06T14:45:54Z</time>
      </trkpt>
      <trkpt lat="44.31063" lon="5.72393">
        <ele>705.40002441406</ele>
        <time>2016-05-06T14:45:55Z</time>
      </trkpt>
      <trkpt lat="44.31042" lon="5.7239">
        <ele>705.40002441406</ele>
        <time>2016-05-06T14:46:03Z</time>
      </trkpt>
      <trkpt lat="44.31038" lon="5.72389">
        <ele>705.79998779297</ele>
        <time>2016-05-06T14:46:05Z</time>
      </trkpt>
      <trkpt lat="44.31032" lon="5.72388">
        <ele>706.20001220703</ele>
        <time>2016-05-06T14:46:07Z</time>
      </trkpt>
      <trkpt lat="44.3103" lon="5.72387">
        <ele>706.59997558594</ele>
        <time>2016-05-06T14:46:08Z</time>
      </trkpt>
      <trkpt lat="44.31022" lon="5.72385">
        <ele>707</ele>
        <time>2016-05-06T14:46:11Z</time>
      </trkpt>
      <trkpt lat="44.3102" lon="5.72385">
        <ele>707.40002441406</ele>
        <time>2016-05-06T14:46:12Z</time>
      </trkpt>
      <trkpt lat="44.31017" lon="5.72384">
        <ele>707.40002441406</ele>
        <time>2016-05-06T14:46:13Z</time>
      </trkpt>
      <trkpt lat="44.31005" lon="5.72382">
        <ele>708</ele>
        <time>2016-05-06T14:46:18Z</time>
      </trkpt>
      <trkpt lat="44.31002" lon="5.72382">
        <ele>708.40002441406</ele>
        <time>2016-05-06T14:46:19Z</time>
      </trkpt>
      <trkpt lat="44.30997" lon="5.72381">
        <ele>708.40002441406</ele>
        <time>2016-05-06T14:46:21Z</time>
      </trkpt>
      <trkpt lat="44.30995" lon="5.72381">
        <ele>709.20001220703</ele>
        <time>2016-05-06T14:46:22Z</time>
      </trkpt>
      <trkpt lat="44.30987" lon="5.72379">
        <ele>709.59997558594</ele>
        <time>2016-05-06T14:46:25Z</time>
      </trkpt>
      <trkpt lat="44.30974" lon="5.72377">
        <ele>709.59997558594</ele>
        <time>2016-05-06T14:46:30Z</time>
      </trkpt>
      <trkpt lat="44.30965" lon="5.72376">
        <ele>710</ele>
        <time>2016-05-06T14:46:34Z</time>
      </trkpt>
      <trkpt lat="44.30957" lon="5.72375">
        <ele>710.40002441406</ele>
        <time>2016-05-06T14:46:37Z</time>
      </trkpt>
      <trkpt lat="44.3095" lon="5.72373">
        <ele>710.79998779297</ele>
        <time>2016-05-06T14:46:40Z</time>
      </trkpt>
      <trkpt lat="44.30942" lon="5.72372">
        <ele>711.20001220703</ele>
        <time>2016-05-06T14:46:43Z</time>
      </trkpt>
      <trkpt lat="44.30935" lon="5.72371">
        <ele>711.79998779297</ele>
        <time>2016-05-06T14:46:46Z</time>
      </trkpt>
      <trkpt lat="44.30921" lon="5.72368">
        <ele>711.79998779297</ele>
        <time>2016-05-06T14:46:52Z</time>
      </trkpt>
      <trkpt lat="44.30919" lon="5.72368">
        <ele>712.20001220703</ele>
        <time>2016-05-06T14:46:53Z</time>
      </trkpt>
      <trkpt lat="44.30912" lon="5.72367">
        <ele>712.59997558594</ele>
        <time>2016-05-06T14:46:56Z</time>
      </trkpt>
      <trkpt lat="44.3091" lon="5.72366">
        <ele>713</ele>
        <time>2016-05-06T14:46:57Z</time>
      </trkpt>
      <trkpt lat="44.30903" lon="5.72365">
        <ele>713.40002441406</ele>
        <time>2016-05-06T14:47:00Z</time>
      </trkpt>
      <trkpt lat="44.30899" lon="5.72364">
        <ele>713.40002441406</ele>
        <time>2016-05-06T14:47:02Z</time>
      </trkpt>
      <trkpt lat="44.30896" lon="5.72364">
        <ele>714</ele>
        <time>2016-05-06T14:47:03Z</time>
      </trkpt>
      <trkpt lat="44.30894" lon="5.72363">
        <ele>714.40002441406</ele>
        <time>2016-05-06T14:47:04Z</time>
      </trkpt>
      <trkpt lat="44.30887" lon="5.72362">
        <ele>714.79998779297</ele>
        <time>2016-05-06T14:47:07Z</time>
      </trkpt>
      <trkpt lat="44.30881" lon="5.72361">
        <ele>715.40002441406</ele>
        <time>2016-05-06T14:47:10Z</time>
      </trkpt>
      <trkpt lat="44.30878" lon="5.7236">
        <ele>715.79998779297</ele>
        <time>2016-05-06T14:47:11Z</time>
      </trkpt>
      <trkpt lat="44.30873" lon="5.72359">
        <ele>715.79998779297</ele>
        <time>2016-05-06T14:47:13Z</time>
      </trkpt>
      <trkpt lat="44.30872" lon="5.72359">
        <ele>716.40002441406</ele>
        <time>2016-05-06T14:47:14Z</time>
      </trkpt>
      <trkpt lat="44.30856" lon="5.72357">
        <ele>716.79998779297</ele>
        <time>2016-05-06T14:47:21Z</time>
      </trkpt>
      <trkpt lat="44.30854" lon="5.72356">
        <ele>717.20001220703</ele>
        <time>2016-05-06T14:47:22Z</time>
      </trkpt>
      <trkpt lat="44.3085" lon="5.72356">
        <ele>717.59997558594</ele>
        <time>2016-05-06T14:47:24Z</time>
      </trkpt>
      <trkpt lat="44.30848" lon="5.72356">
        <ele>718</ele>
        <time>2016-05-06T14:47:25Z</time>
      </trkpt>
      <trkpt lat="44.30842" lon="5.72355">
        <ele>718.59997558594</ele>
        <time>2016-05-06T14:47:28Z</time>
      </trkpt>
      <trkpt lat="44.3084" lon="5.72355">
        <ele>719</ele>
        <time>2016-05-06T14:47:29Z</time>
      </trkpt>
      <trkpt lat="44.30836" lon="5.72354">
        <ele>719.59997558594</ele>
        <time>2016-05-06T14:47:31Z</time>
      </trkpt>
      <trkpt lat="44.30834" lon="5.72353">
        <ele>720</ele>
        <time>2016-05-06T14:47:32Z</time>
      </trkpt>
      <trkpt lat="44.30828" lon="5.72353">
        <ele>720.59997558594</ele>
        <time>2016-05-06T14:47:35Z</time>
      </trkpt>
      <trkpt lat="44.30827" lon="5.72353">
        <ele>720.59997558594</ele>
        <time>2016-05-06T14:47:36Z</time>
      </trkpt>
      <trkpt lat="44.3081" lon="5.7235">
        <ele>720.59997558594</ele>
        <time>2016-05-06T14:47:45Z</time>
      </trkpt>
      <trkpt lat="44.30808" lon="5.7235">
        <ele>721.40002441406</ele>
        <time>2016-05-06T14:47:46Z</time>
      </trkpt>
      <trkpt lat="44.30806" lon="5.7235">
        <ele>722</ele>
        <time>2016-05-06T14:47:47Z</time>
      </trkpt>
      <trkpt lat="44.30804" lon="5.72349">
        <ele>722.40002441406</ele>
        <time>2016-05-06T14:47:48Z</time>
      </trkpt>
      <trkpt lat="44.30796" lon="5.72347">
        <ele>723</ele>
        <time>2016-05-06T14:47:52Z</time>
      </trkpt>
      <trkpt lat="44.30792" lon="5.72347">
        <ele>723</ele>
        <time>2016-05-06T14:47:54Z</time>
      </trkpt>
      <trkpt lat="44.30785" lon="5.72346">
        <ele>723.40002441406</ele>
        <time>2016-05-06T14:47:58Z</time>
      </trkpt>
      <trkpt lat="44.30783" lon="5.72345">
        <ele>723.79998779297</ele>
        <time>2016-05-06T14:47:59Z</time>
      </trkpt>
      <trkpt lat="44.30777" lon="5.72344">
        <ele>724.20001220703</ele>
        <time>2016-05-06T14:48:02Z</time>
      </trkpt>
      <trkpt lat="44.30773" lon="5.72344">
        <ele>724.59997558594</ele>
        <time>2016-05-06T14:48:04Z</time>
      </trkpt>
      <trkpt lat="44.30771" lon="5.72343">
        <ele>725</ele>
        <time>2016-05-06T14:48:05Z</time>
      </trkpt>
      <trkpt lat="44.30764" lon="5.72342">
        <ele>725.40002441406</ele>
        <time>2016-05-06T14:48:09Z</time>
      </trkpt>
      <trkpt lat="44.30761" lon="5.72342">
        <ele>725.79998779297</ele>
        <time>2016-05-06T14:48:11Z</time>
      </trkpt>
      <trkpt lat="44.30758" lon="5.72341">
        <ele>726.20001220703</ele>
        <time>2016-05-06T14:48:12Z</time>
      </trkpt>
      <trkpt lat="44.30756" lon="5.72342">
        <ele>726.20001220703</ele>
        <time>2016-05-06T14:48:13Z</time>
      </trkpt>
      <trkpt lat="44.30751" lon="5.72342">
        <ele>726.59997558594</ele>
        <time>2016-05-06T14:48:15Z</time>
      </trkpt>
      <trkpt lat="44.30749" lon="5.72341">
        <ele>727</ele>
        <time>2016-05-06T14:48:16Z</time>
      </trkpt>
      <trkpt lat="44.30735" lon="5.72339">
        <ele>727</ele>
        <time>2016-05-06T14:48:23Z</time>
      </trkpt>
      <trkpt lat="44.30728" lon="5.72337">
        <ele>727.40002441406</ele>
        <time>2016-05-06T14:48:27Z</time>
      </trkpt>
      <trkpt lat="44.30724" lon="5.72337">
        <ele>727.79998779297</ele>
        <time>2016-05-06T14:48:29Z</time>
      </trkpt>
      <trkpt lat="44.30719" lon="5.72336">
        <ele>728.20001220703</ele>
        <time>2016-05-06T14:48:32Z</time>
      </trkpt>
      <trkpt lat="44.30714" lon="5.72335">
        <ele>728.79998779297</ele>
        <time>2016-05-06T14:48:35Z</time>
      </trkpt>
      <trkpt lat="44.30712" lon="5.72335">
        <ele>729.40002441406</ele>
        <time>2016-05-06T14:48:36Z</time>
      </trkpt>
      <trkpt lat="44.30707" lon="5.72333">
        <ele>730</ele>
        <time>2016-05-06T14:48:39Z</time>
      </trkpt>
      <trkpt lat="44.30706" lon="5.72333">
        <ele>730.59997558594</ele>
        <time>2016-05-06T14:48:40Z</time>
      </trkpt>
      <trkpt lat="44.30702" lon="5.72331">
        <ele>731.20001220703</ele>
        <time>2016-05-06T14:48:42Z</time>
      </trkpt>
      <trkpt lat="44.30695" lon="5.72324">
        <ele>731.20001220703</ele>
        <time>2016-05-06T14:48:46Z</time>
      </trkpt>
      <trkpt lat="44.30692" lon="5.72307">
        <ele>731.79998779297</ele>
        <time>2016-05-06T14:48:52Z</time>
      </trkpt>
      <trkpt lat="44.30692" lon="5.72304">
        <ele>731.79998779297</ele>
        <time>2016-05-06T14:48:53Z</time>
      </trkpt>
      <trkpt lat="44.30691" lon="5.72301">
        <ele>732.20001220703</ele>
        <time>2016-05-06T14:48:54Z</time>
      </trkpt>
      <trkpt lat="44.30692" lon="5.72297">
        <ele>732.59997558594</ele>
        <time>2016-05-06T14:48:55Z</time>
      </trkpt>
      <trkpt lat="44.30692" lon="5.72285">
        <ele>733</ele>
        <time>2016-05-06T14:48:58Z</time>
      </trkpt>
      <trkpt lat="44.3069" lon="5.72277">
        <ele>733</ele>
        <time>2016-05-06T14:49:00Z</time>
      </trkpt>
      <trkpt lat="44.3069" lon="5.72273">
        <ele>733.59997558594</ele>
        <time>2016-05-06T14:49:01Z</time>
      </trkpt>
      <trkpt lat="44.30679" lon="5.72246">
        <ele>733.59997558594</ele>
        <time>2016-05-06T14:49:08Z</time>
      </trkpt>
      <trkpt lat="44.30658" lon="5.72215">
        <ele>733.59997558594</ele>
        <time>2016-05-06T14:49:17Z</time>
      </trkpt>
      <trkpt lat="44.30637" lon="5.72194">
        <ele>734</ele>
        <time>2016-05-06T14:49:24Z</time>
      </trkpt>
      <trkpt lat="44.30633" lon="5.72192">
        <ele>734.40002441406</ele>
        <time>2016-05-06T14:49:25Z</time>
      </trkpt>
      <trkpt lat="44.30626" lon="5.72187">
        <ele>734.79998779297</ele>
        <time>2016-05-06T14:49:27Z</time>
      </trkpt>
      <trkpt lat="44.30622" lon="5.72184">
        <ele>735.20001220703</ele>
        <time>2016-05-06T14:49:28Z</time>
      </trkpt>
      <trkpt lat="44.30613" lon="5.72176">
        <ele>735.59997558594</ele>
        <time>2016-05-06T14:49:31Z</time>
      </trkpt>
      <trkpt lat="44.30604" lon="5.72167">
        <ele>735.59997558594</ele>
        <time>2016-05-06T14:49:34Z</time>
      </trkpt>
      <trkpt lat="44.30589" lon="5.72158">
        <ele>735.59997558594</ele>
        <time>2016-05-06T14:49:38Z</time>
      </trkpt>
      <trkpt lat="44.30577" lon="5.72154">
        <ele>735.59997558594</ele>
        <time>2016-05-06T14:49:41Z</time>
      </trkpt>
      <trkpt lat="44.30572" lon="5.72154">
        <ele>735.59997558594</ele>
        <time>2016-05-06T14:49:42Z</time>
      </trkpt>
      <trkpt lat="44.3056" lon="5.72157">
        <ele>735.59997558594</ele>
        <time>2016-05-06T14:49:45Z</time>
      </trkpt>
      <trkpt lat="44.30538" lon="5.72176">
        <ele>735.59997558594</ele>
        <time>2016-05-06T14:49:51Z</time>
      </trkpt>
      <trkpt lat="44.3052" lon="5.72193">
        <ele>735.59997558594</ele>
        <time>2016-05-06T14:49:55Z</time>
      </trkpt>
      <trkpt lat="44.30515" lon="5.72195">
        <ele>735.59997558594</ele>
        <time>2016-05-06T14:49:56Z</time>
      </trkpt>
      <trkpt lat="44.30499" lon="5.72191">
        <ele>735.59997558594</ele>
        <time>2016-05-06T14:49:59Z</time>
      </trkpt>
      <trkpt lat="44.30496" lon="5.72178">
        <ele>735.59997558594</ele>
        <time>2016-05-06T14:50:02Z</time>
      </trkpt>
      <trkpt lat="44.30491" lon="5.72186">
        <ele>735.59997558594</ele>
        <time>2016-05-06T14:50:06Z</time>
      </trkpt>
      <trkpt lat="44.3049" lon="5.72188">
        <ele>735.59997558594</ele>
        <time>2016-05-06T14:50:07Z</time>
      </trkpt>
      <trkpt lat="44.30499" lon="5.72211">
        <ele>735.59997558594</ele>
        <time>2016-05-06T14:50:15Z</time>
      </trkpt>
      <trkpt lat="44.30507" lon="5.72235">
        <ele>735.59997558594</ele>
        <time>2016-05-06T14:50:23Z</time>
      </trkpt>
      <trkpt lat="44.30508" lon="5.72241">
        <ele>736.40002441406</ele>
        <time>2016-05-06T14:50:25Z</time>
      </trkpt>
      <trkpt lat="44.30509" lon="5.7225">
        <ele>736.79998779297</ele>
        <time>2016-05-06T14:50:28Z</time>
      </trkpt>
      <trkpt lat="44.30511" lon="5.72259">
        <ele>737.59997558594</ele>
        <time>2016-05-06T14:50:31Z</time>
      </trkpt>
      <trkpt lat="44.30514" lon="5.72273">
        <ele>737.59997558594</ele>
        <time>2016-05-06T14:50:36Z</time>
      </trkpt>
      <trkpt lat="44.30516" lon="5.72284">
        <ele>738.59997558594</ele>
        <time>2016-05-06T14:50:40Z</time>
      </trkpt>
      <trkpt lat="44.30518" lon="5.72289">
        <ele>739</ele>
        <time>2016-05-06T14:50:42Z</time>
      </trkpt>
      <trkpt lat="44.30517" lon="5.72296">
        <ele>739.59997558594</ele>
        <time>2016-05-06T14:50:45Z</time>
      </trkpt>
      <trkpt lat="44.30516" lon="5.72297">
        <ele>740.40002441406</ele>
        <time>2016-05-06T14:50:46Z</time>
      </trkpt>
      <trkpt lat="44.30517" lon="5.72302">
        <ele>741</ele>
        <time>2016-05-06T14:50:48Z</time>
      </trkpt>
      <trkpt lat="44.30517" lon="5.72307">
        <ele>741.59997558594</ele>
        <time>2016-05-06T14:50:51Z</time>
      </trkpt>
      <trkpt lat="44.30515" lon="5.7231">
        <ele>742.20001220703</ele>
        <time>2016-05-06T14:50:53Z</time>
      </trkpt>
      <trkpt lat="44.30514" lon="5.72311">
        <ele>742.20001220703</ele>
        <time>2016-05-06T14:50:54Z</time>
      </trkpt>
      <trkpt lat="44.30507" lon="5.72318">
        <ele>742.59997558594</ele>
        <time>2016-05-06T14:50:59Z</time>
      </trkpt>
      <trkpt lat="44.30504" lon="5.72321">
        <ele>743.20001220703</ele>
        <time>2016-05-06T14:51:02Z</time>
      </trkpt>
      <trkpt lat="44.30502" lon="5.72322">
        <ele>743.20001220703</ele>
        <time>2016-05-06T14:51:03Z</time>
      </trkpt>
      <trkpt lat="44.305" lon="5.72323">
        <ele>743.59997558594</ele>
        <time>2016-05-06T14:51:05Z</time>
      </trkpt>
      <trkpt lat="44.30499" lon="5.72323">
        <ele>744</ele>
        <time>2016-05-06T14:51:06Z</time>
      </trkpt>
      <trkpt lat="44.30494" lon="5.72326">
        <ele>744.40002441406</ele>
        <time>2016-05-06T14:51:09Z</time>
      </trkpt>
      <trkpt lat="44.30492" lon="5.72327">
        <ele>744.40002441406</ele>
        <time>2016-05-06T14:51:11Z</time>
      </trkpt>
      <trkpt lat="44.3049" lon="5.72328">
        <ele>744.79998779297</ele>
        <time>2016-05-06T14:51:12Z</time>
      </trkpt>
      <trkpt lat="44.30486" lon="5.72332">
        <ele>745.20001220703</ele>
        <time>2016-05-06T14:51:15Z</time>
      </trkpt>
      <trkpt lat="44.30482" lon="5.72337">
        <ele>745.79998779297</ele>
        <time>2016-05-06T14:51:18Z</time>
      </trkpt>
      <trkpt lat="44.30481" lon="5.72338">
        <ele>745.79998779297</ele>
        <time>2016-05-06T14:51:19Z</time>
      </trkpt>
      <trkpt lat="44.30479" lon="5.72341">
        <ele>746.20001220703</ele>
        <time>2016-05-06T14:51:21Z</time>
      </trkpt>
      <trkpt lat="44.30476" lon="5.72344">
        <ele>746.59997558594</ele>
        <time>2016-05-06T14:51:23Z</time>
      </trkpt>
      <trkpt lat="44.30473" lon="5.72349">
        <ele>747</ele>
        <time>2016-05-06T14:51:26Z</time>
      </trkpt>
      <trkpt lat="44.30472" lon="5.7235">
        <ele>747</ele>
        <time>2016-05-06T14:51:27Z</time>
      </trkpt>
      <trkpt lat="44.3047" lon="5.72354">
        <ele>747.59997558594</ele>
        <time>2016-05-06T14:51:29Z</time>
      </trkpt>
      <trkpt lat="44.30466" lon="5.72359">
        <ele>748</ele>
        <time>2016-05-06T14:51:32Z</time>
      </trkpt>
      <trkpt lat="44.30465" lon="5.72366">
        <ele>748.59997558594</ele>
        <time>2016-05-06T14:51:35Z</time>
      </trkpt>
      <trkpt lat="44.30462" lon="5.72372">
        <ele>749</ele>
        <time>2016-05-06T14:51:38Z</time>
      </trkpt>
      <trkpt lat="44.30461" lon="5.72381">
        <ele>749</ele>
        <time>2016-05-06T14:51:42Z</time>
      </trkpt>
      <trkpt lat="44.3046" lon="5.72396">
        <ele>749.40002441406</ele>
        <time>2016-05-06T14:51:49Z</time>
      </trkpt>
      <trkpt lat="44.30459" lon="5.72402">
        <ele>750</ele>
        <time>2016-05-06T14:51:52Z</time>
      </trkpt>
      <trkpt lat="44.30458" lon="5.72404">
        <ele>750</ele>
        <time>2016-05-06T14:51:53Z</time>
      </trkpt>
      <trkpt lat="44.30457" lon="5.72408">
        <ele>750.40002441406</ele>
        <time>2016-05-06T14:51:55Z</time>
      </trkpt>
      <trkpt lat="44.30456" lon="5.72415">
        <ele>750.79998779297</ele>
        <time>2016-05-06T14:51:58Z</time>
      </trkpt>
      <trkpt lat="44.30455" lon="5.72421">
        <ele>751.40002441406</ele>
        <time>2016-05-06T14:52:01Z</time>
      </trkpt>
      <trkpt lat="44.30455" lon="5.72427">
        <ele>751.40002441406</ele>
        <time>2016-05-06T14:52:03Z</time>
      </trkpt>
      <trkpt lat="44.30454" lon="5.72428">
        <ele>752</ele>
        <time>2016-05-06T14:52:04Z</time>
      </trkpt>
      <trkpt lat="44.30449" lon="5.72433">
        <ele>752.40002441406</ele>
        <time>2016-05-06T14:52:07Z</time>
      </trkpt>
      <trkpt lat="44.30445" lon="5.72435">
        <ele>752.40002441406</ele>
        <time>2016-05-06T14:52:09Z</time>
      </trkpt>
      <trkpt lat="44.30441" lon="5.72432">
        <ele>753</ele>
        <time>2016-05-06T14:52:13Z</time>
      </trkpt>
      <trkpt lat="44.30439" lon="5.72431">
        <ele>753</ele>
        <time>2016-05-06T14:52:14Z</time>
      </trkpt>
      <trkpt lat="44.30438" lon="5.72427">
        <ele>753.59997558594</ele>
        <time>2016-05-06T14:52:16Z</time>
      </trkpt>
      <trkpt lat="44.30438" lon="5.72425">
        <ele>754.20001220703</ele>
        <time>2016-05-06T14:52:17Z</time>
      </trkpt>
      <trkpt lat="44.30436" lon="5.7242">
        <ele>754.79998779297</ele>
        <time>2016-05-06T14:52:20Z</time>
      </trkpt>
      <trkpt lat="44.30436" lon="5.72418">
        <ele>755.40002441406</ele>
        <time>2016-05-06T14:52:21Z</time>
      </trkpt>
      <trkpt lat="44.30438" lon="5.72409">
        <ele>756.20001220703</ele>
        <time>2016-05-06T14:52:24Z</time>
      </trkpt>
      <trkpt lat="44.30441" lon="5.724">
        <ele>756.20001220703</ele>
        <time>2016-05-06T14:52:28Z</time>
      </trkpt>
      <trkpt lat="44.30448" lon="5.72381">
        <ele>756.59997558594</ele>
        <time>2016-05-06T14:52:37Z</time>
      </trkpt>
      <trkpt lat="44.30448" lon="5.72376">
        <ele>756.59997558594</ele>
        <time>2016-05-06T14:52:39Z</time>
      </trkpt>
      <trkpt lat="44.30448" lon="5.72374">
        <ele>757</ele>
        <time>2016-05-06T14:52:40Z</time>
      </trkpt>
      <trkpt lat="44.30445" lon="5.72369">
        <ele>757.59997558594</ele>
        <time>2016-05-06T14:52:43Z</time>
      </trkpt>
      <trkpt lat="44.30441" lon="5.72366">
        <ele>758</ele>
        <time>2016-05-06T14:52:46Z</time>
      </trkpt>
      <trkpt lat="44.30438" lon="5.72364">
        <ele>758</ele>
        <time>2016-05-06T14:52:48Z</time>
      </trkpt>
      <trkpt lat="44.30436" lon="5.72365">
        <ele>758.59997558594</ele>
        <time>2016-05-06T14:52:49Z</time>
      </trkpt>
      <trkpt lat="44.30434" lon="5.72368">
        <ele>758.59997558594</ele>
        <time>2016-05-06T14:52:50Z</time>
      </trkpt>
      <trkpt lat="44.30429" lon="5.7237">
        <ele>759.20001220703</ele>
        <time>2016-05-06T14:52:52Z</time>
      </trkpt>
      <trkpt lat="44.30426" lon="5.72374">
        <ele>759.79998779297</ele>
        <time>2016-05-06T14:52:55Z</time>
      </trkpt>
      <trkpt lat="44.30424" lon="5.72381">
        <ele>760.79998779297</ele>
        <time>2016-05-06T14:52:58Z</time>
      </trkpt>
      <trkpt lat="44.30424" lon="5.72382">
        <ele>760.79998779297</ele>
        <time>2016-05-06T14:52:59Z</time>
      </trkpt>
      <trkpt lat="44.30418" lon="5.72401">
        <ele>760.79998779297</ele>
        <time>2016-05-06T14:53:09Z</time>
      </trkpt>
      <trkpt lat="44.30417" lon="5.72405">
        <ele>761.40002441406</ele>
        <time>2016-05-06T14:53:11Z</time>
      </trkpt>
      <trkpt lat="44.30415" lon="5.7241">
        <ele>761.79998779297</ele>
        <time>2016-05-06T14:53:14Z</time>
      </trkpt>
      <trkpt lat="44.30415" lon="5.72412">
        <ele>762.40002441406</ele>
        <time>2016-05-06T14:53:15Z</time>
      </trkpt>
      <trkpt lat="44.30414" lon="5.72416">
        <ele>762.79998779297</ele>
        <time>2016-05-06T14:53:17Z</time>
      </trkpt>
      <trkpt lat="44.30414" lon="5.72418">
        <ele>763.40002441406</ele>
        <time>2016-05-06T14:53:18Z</time>
      </trkpt>
      <trkpt lat="44.30413" lon="5.72421">
        <ele>763.40002441406</ele>
        <time>2016-05-06T14:53:20Z</time>
      </trkpt>
      <trkpt lat="44.30413" lon="5.72423">
        <ele>763.79998779297</ele>
        <time>2016-05-06T14:53:21Z</time>
      </trkpt>
      <trkpt lat="44.30413" lon="5.72428">
        <ele>764.40002441406</ele>
        <time>2016-05-06T14:53:23Z</time>
      </trkpt>
      <trkpt lat="44.30413" lon="5.7243">
        <ele>764.79998779297</ele>
        <time>2016-05-06T14:53:24Z</time>
      </trkpt>
      <trkpt lat="44.30413" lon="5.72436">
        <ele>765.40002441406</ele>
        <time>2016-05-06T14:53:27Z</time>
      </trkpt>
      <trkpt lat="44.30412" lon="5.72445">
        <ele>765.40002441406</ele>
        <time>2016-05-06T14:53:32Z</time>
      </trkpt>
      <trkpt lat="44.3041" lon="5.72459">
        <ele>765.79998779297</ele>
        <time>2016-05-06T14:53:40Z</time>
      </trkpt>
      <trkpt lat="44.30409" lon="5.7246">
        <ele>766.20001220703</ele>
        <time>2016-05-06T14:53:41Z</time>
      </trkpt>
      <trkpt lat="44.30408" lon="5.72462">
        <ele>766.20001220703</ele>
        <time>2016-05-06T14:53:42Z</time>
      </trkpt>
      <trkpt lat="44.30405" lon="5.72468">
        <ele>766.59997558594</ele>
        <time>2016-05-06T14:53:46Z</time>
      </trkpt>
      <trkpt lat="44.30404" lon="5.7247">
        <ele>767</ele>
        <time>2016-05-06T14:53:47Z</time>
      </trkpt>
      <trkpt lat="44.30401" lon="5.72473">
        <ele>767.40002441406</ele>
        <time>2016-05-06T14:53:49Z</time>
      </trkpt>
      <trkpt lat="44.30398" lon="5.72477">
        <ele>767.40002441406</ele>
        <time>2016-05-06T14:53:52Z</time>
      </trkpt>
      <trkpt lat="44.30396" lon="5.72479">
        <ele>767.40002441406</ele>
        <time>2016-05-06T14:53:53Z</time>
      </trkpt>
      <trkpt lat="44.30393" lon="5.72482">
        <ele>767.79998779297</ele>
        <time>2016-05-06T14:53:56Z</time>
      </trkpt>
      <trkpt lat="44.30392" lon="5.72482">
        <ele>768.20001220703</ele>
        <time>2016-05-06T14:53:57Z</time>
      </trkpt>
      <trkpt lat="44.30389" lon="5.72486">
        <ele>768.59997558594</ele>
        <time>2016-05-06T14:54:00Z</time>
      </trkpt>
      <trkpt lat="44.30388" lon="5.72488">
        <ele>769</ele>
        <time>2016-05-06T14:54:01Z</time>
      </trkpt>
      <trkpt lat="44.30386" lon="5.72491">
        <ele>769.59997558594</ele>
        <time>2016-05-06T14:54:03Z</time>
      </trkpt>
      <trkpt lat="44.30385" lon="5.72499">
        <ele>770</ele>
        <time>2016-05-06T14:54:09Z</time>
      </trkpt>
      <trkpt lat="44.30383" lon="5.72506">
        <ele>770.79998779297</ele>
        <time>2016-05-06T14:54:14Z</time>
      </trkpt>
      <trkpt lat="44.30383" lon="5.72508">
        <ele>771.20001220703</ele>
        <time>2016-05-06T14:54:15Z</time>
      </trkpt>
      <trkpt lat="44.30382" lon="5.7251">
        <ele>771.59997558594</ele>
        <time>2016-05-06T14:54:17Z</time>
      </trkpt>
      <trkpt lat="44.30376" lon="5.72517">
        <ele>772</ele>
        <time>2016-05-06T14:54:23Z</time>
      </trkpt>
      <trkpt lat="44.30375" lon="5.72518">
        <ele>772.40002441406</ele>
        <time>2016-05-06T14:54:24Z</time>
      </trkpt>
      <trkpt lat="44.30371" lon="5.7252">
        <ele>772.40002441406</ele>
        <time>2016-05-06T14:54:26Z</time>
      </trkpt>
      <trkpt lat="44.3037" lon="5.72521">
        <ele>772.79998779297</ele>
        <time>2016-05-06T14:54:27Z</time>
      </trkpt>
      <trkpt lat="44.30369" lon="5.72522">
        <ele>773.40002441406</ele>
        <time>2016-05-06T14:54:28Z</time>
      </trkpt>
      <trkpt lat="44.30367" lon="5.72524">
        <ele>773.79998779297</ele>
        <time>2016-05-06T14:54:30Z</time>
      </trkpt>
      <trkpt lat="44.30363" lon="5.72533">
        <ele>773.79998779297</ele>
        <time>2016-05-06T14:54:35Z</time>
      </trkpt>
      <trkpt lat="44.30357" lon="5.72547">
        <ele>773.79998779297</ele>
        <time>2016-05-06T14:54:43Z</time>
      </trkpt>
      <trkpt lat="44.30355" lon="5.72559">
        <ele>774.40002441406</ele>
        <time>2016-05-06T14:54:49Z</time>
      </trkpt>
      <trkpt lat="44.30355" lon="5.7256">
        <ele>774.40002441406</ele>
        <time>2016-05-06T14:54:50Z</time>
      </trkpt>
      <trkpt lat="44.30354" lon="5.72563">
        <ele>775</ele>
        <time>2016-05-06T14:54:52Z</time>
      </trkpt>
      <trkpt lat="44.30349" lon="5.72567">
        <ele>775.79998779297</ele>
        <time>2016-05-06T14:54:55Z</time>
      </trkpt>
      <trkpt lat="44.30346" lon="5.72568">
        <ele>776.59997558594</ele>
        <time>2016-05-06T14:54:58Z</time>
      </trkpt>
      <trkpt lat="44.30346" lon="5.72567">
        <ele>777.40002441406</ele>
        <time>2016-05-06T14:54:59Z</time>
      </trkpt>
      <trkpt lat="44.30345" lon="5.72566">
        <ele>777.40002441406</ele>
        <time>2016-05-06T14:55:00Z</time>
      </trkpt>
      <trkpt lat="44.30346" lon="5.72563">
        <ele>778.20001220703</ele>
        <time>2016-05-06T14:55:01Z</time>
      </trkpt>
      <trkpt lat="44.30346" lon="5.72558">
        <ele>778.20001220703</ele>
        <time>2016-05-06T14:55:03Z</time>
      </trkpt>
      <trkpt lat="44.30346" lon="5.72555">
        <ele>779</ele>
        <time>2016-05-06T14:55:04Z</time>
      </trkpt>
      <trkpt lat="44.30346" lon="5.72551">
        <ele>779</ele>
        <time>2016-05-06T14:55:06Z</time>
      </trkpt>
      <trkpt lat="44.30348" lon="5.72544">
        <ele>779</ele>
        <time>2016-05-06T14:55:09Z</time>
      </trkpt>
      <trkpt lat="44.30349" lon="5.7254">
        <ele>779</ele>
        <time>2016-05-06T14:55:11Z</time>
      </trkpt>
      <trkpt lat="44.30345" lon="5.72524">
        <ele>779</ele>
        <time>2016-05-06T14:55:18Z</time>
      </trkpt>
      <trkpt lat="44.30339" lon="5.72526">
        <ele>779</ele>
        <time>2016-05-06T14:55:21Z</time>
      </trkpt>
      <trkpt lat="44.30337" lon="5.72527">
        <ele>779.40002441406</ele>
        <time>2016-05-06T14:55:22Z</time>
      </trkpt>
      <trkpt lat="44.30336" lon="5.72528">
        <ele>779.40002441406</ele>
        <time>2016-05-06T14:55:23Z</time>
      </trkpt>
      <trkpt lat="44.30334" lon="5.72531">
        <ele>779.79998779297</ele>
        <time>2016-05-06T14:55:25Z</time>
      </trkpt>
      <trkpt lat="44.30332" lon="5.72533">
        <ele>780.20001220703</ele>
        <time>2016-05-06T14:55:26Z</time>
      </trkpt>
      <trkpt lat="44.3033" lon="5.72538">
        <ele>780.59997558594</ele>
        <time>2016-05-06T14:55:28Z</time>
      </trkpt>
      <trkpt lat="44.3033" lon="5.7254">
        <ele>781.20001220703</ele>
        <time>2016-05-06T14:55:29Z</time>
      </trkpt>
      <trkpt lat="44.30329" lon="5.72545">
        <ele>781.20001220703</ele>
        <time>2016-05-06T14:55:32Z</time>
      </trkpt>
      <trkpt lat="44.30328" lon="5.72556">
        <ele>781.59997558594</ele>
        <time>2016-05-06T14:55:38Z</time>
      </trkpt>
      <trkpt lat="44.30328" lon="5.72558">
        <ele>782</ele>
        <time>2016-05-06T14:55:39Z</time>
      </trkpt>
      <trkpt lat="44.30326" lon="5.72562">
        <ele>782.40002441406</ele>
        <time>2016-05-06T14:55:41Z</time>
      </trkpt>
      <trkpt lat="44.30325" lon="5.72564">
        <ele>782.79998779297</ele>
        <time>2016-05-06T14:55:42Z</time>
      </trkpt>
      <trkpt lat="44.30322" lon="5.72569">
        <ele>783.20001220703</ele>
        <time>2016-05-06T14:55:45Z</time>
      </trkpt>
      <trkpt lat="44.30318" lon="5.72578">
        <ele>783.20001220703</ele>
        <time>2016-05-06T14:55:51Z</time>
      </trkpt>
      <trkpt lat="44.30318" lon="5.72579">
        <ele>783.59997558594</ele>
        <time>2016-05-06T14:55:52Z</time>
      </trkpt>
      <trkpt lat="44.30317" lon="5.7258">
        <ele>784</ele>
        <time>2016-05-06T14:55:53Z</time>
      </trkpt>
      <trkpt lat="44.30315" lon="5.72584">
        <ele>784.40002441406</ele>
        <time>2016-05-06T14:55:55Z</time>
      </trkpt>
      <trkpt lat="44.30313" lon="5.72588">
        <ele>784.40002441406</ele>
        <time>2016-05-06T14:55:57Z</time>
      </trkpt>
      <trkpt lat="44.30313" lon="5.72589">
        <ele>784.79998779297</ele>
        <time>2016-05-06T14:55:58Z</time>
      </trkpt>
      <trkpt lat="44.30313" lon="5.72591">
        <ele>785.20001220703</ele>
        <time>2016-05-06T14:55:59Z</time>
      </trkpt>
      <trkpt lat="44.30311" lon="5.726">
        <ele>785.20001220703</ele>
        <time>2016-05-06T14:56:05Z</time>
      </trkpt>
      <trkpt lat="44.30307" lon="5.72604">
        <ele>785.59997558594</ele>
        <time>2016-05-06T14:56:09Z</time>
      </trkpt>
      <trkpt lat="44.30303" lon="5.72609">
        <ele>786.20001220703</ele>
        <time>2016-05-06T14:56:12Z</time>
      </trkpt>
      <trkpt lat="44.30302" lon="5.72611">
        <ele>786.59997558594</ele>
        <time>2016-05-06T14:56:13Z</time>
      </trkpt>
      <trkpt lat="44.30301" lon="5.72615">
        <ele>787</ele>
        <time>2016-05-06T14:56:15Z</time>
      </trkpt>
      <trkpt lat="44.303" lon="5.7262">
        <ele>787.59997558594</ele>
        <time>2016-05-06T14:56:18Z</time>
      </trkpt>
      <trkpt lat="44.30299" lon="5.72622">
        <ele>787.59997558594</ele>
        <time>2016-05-06T14:56:19Z</time>
      </trkpt>
      <trkpt lat="44.30297" lon="5.72635">
        <ele>788</ele>
        <time>2016-05-06T14:56:26Z</time>
      </trkpt>
      <trkpt lat="44.30296" lon="5.72637">
        <ele>788</ele>
        <time>2016-05-06T14:56:27Z</time>
      </trkpt>
      <trkpt lat="44.30295" lon="5.72638">
        <ele>788.40002441406</ele>
        <time>2016-05-06T14:56:28Z</time>
      </trkpt>
      <trkpt lat="44.30294" lon="5.72645">
        <ele>788.79998779297</ele>
        <time>2016-05-06T14:56:31Z</time>
      </trkpt>
      <trkpt lat="44.30293" lon="5.72646">
        <ele>789.20001220703</ele>
        <time>2016-05-06T14:56:32Z</time>
      </trkpt>
      <trkpt lat="44.30292" lon="5.72652">
        <ele>789.20001220703</ele>
        <time>2016-05-06T14:56:36Z</time>
      </trkpt>
      <trkpt lat="44.30291" lon="5.72654">
        <ele>789.59997558594</ele>
        <time>2016-05-06T14:56:37Z</time>
      </trkpt>
      <trkpt lat="44.3029" lon="5.7266">
        <ele>790</ele>
        <time>2016-05-06T14:56:41Z</time>
      </trkpt>
      <trkpt lat="44.3029" lon="5.72665">
        <ele>790</ele>
        <time>2016-05-06T14:56:44Z</time>
      </trkpt>
      <trkpt lat="44.30289" lon="5.72673">
        <ele>790.40002441406</ele>
        <time>2016-05-06T14:56:48Z</time>
      </trkpt>
      <trkpt lat="44.30288" lon="5.72675">
        <ele>790.79998779297</ele>
        <time>2016-05-06T14:56:49Z</time>
      </trkpt>
      <trkpt lat="44.30286" lon="5.7268">
        <ele>791.59997558594</ele>
        <time>2016-05-06T14:56:52Z</time>
      </trkpt>
      <trkpt lat="44.30286" lon="5.72682">
        <ele>792.20001220703</ele>
        <time>2016-05-06T14:56:53Z</time>
      </trkpt>
      <trkpt lat="44.30285" lon="5.72685">
        <ele>793</ele>
        <time>2016-05-06T14:56:55Z</time>
      </trkpt>
      <trkpt lat="44.30284" lon="5.72687">
        <ele>793.59997558594</ele>
        <time>2016-05-06T14:56:56Z</time>
      </trkpt>
      <trkpt lat="44.30284" lon="5.72692">
        <ele>794.20001220703</ele>
        <time>2016-05-06T14:56:59Z</time>
      </trkpt>
      <trkpt lat="44.30282" lon="5.72708">
        <ele>794.20001220703</ele>
        <time>2016-05-06T14:57:07Z</time>
      </trkpt>
      <trkpt lat="44.30281" lon="5.72719">
        <ele>794.59997558594</ele>
        <time>2016-05-06T14:57:13Z</time>
      </trkpt>
      <trkpt lat="44.3028" lon="5.72723">
        <ele>795</ele>
        <time>2016-05-06T14:57:16Z</time>
      </trkpt>
      <trkpt lat="44.30279" lon="5.72727">
        <ele>795.40002441406</ele>
        <time>2016-05-06T14:57:19Z</time>
      </trkpt>
      <trkpt lat="44.30278" lon="5.72729">
        <ele>796</ele>
        <time>2016-05-06T14:57:20Z</time>
      </trkpt>
      <trkpt lat="44.30278" lon="5.72732">
        <ele>796.40002441406</ele>
        <time>2016-05-06T14:57:22Z</time>
      </trkpt>
      <trkpt lat="44.30276" lon="5.72736">
        <ele>796.40002441406</ele>
        <time>2016-05-06T14:57:25Z</time>
      </trkpt>
      <trkpt lat="44.30273" lon="5.72741">
        <ele>796.79998779297</ele>
        <time>2016-05-06T14:57:28Z</time>
      </trkpt>
      <trkpt lat="44.30269" lon="5.72743">
        <ele>797.20001220703</ele>
        <time>2016-05-06T14:57:30Z</time>
      </trkpt>
      <trkpt lat="44.30265" lon="5.72747">
        <ele>797.59997558594</ele>
        <time>2016-05-06T14:57:33Z</time>
      </trkpt>
      <trkpt lat="44.30264" lon="5.72748">
        <ele>797.59997558594</ele>
        <time>2016-05-06T14:57:34Z</time>
      </trkpt>
      <trkpt lat="44.30264" lon="5.72749">
        <ele>798</ele>
        <time>2016-05-06T14:57:35Z</time>
      </trkpt>
      <trkpt lat="44.3026" lon="5.72753">
        <ele>798.59997558594</ele>
        <time>2016-05-06T14:57:38Z</time>
      </trkpt>
      <trkpt lat="44.30259" lon="5.72754">
        <ele>799</ele>
        <time>2016-05-06T14:57:39Z</time>
      </trkpt>
      <trkpt lat="44.30257" lon="5.72756">
        <ele>799.59997558594</ele>
        <time>2016-05-06T14:57:41Z</time>
      </trkpt>
      <trkpt lat="44.30257" lon="5.72757">
        <ele>800</ele>
        <time>2016-05-06T14:57:42Z</time>
      </trkpt>
      <trkpt lat="44.30252" lon="5.72762">
        <ele>800.59997558594</ele>
        <time>2016-05-06T14:57:47Z</time>
      </trkpt>
      <trkpt lat="44.3025" lon="5.7277">
        <ele>801</ele>
        <time>2016-05-06T14:57:54Z</time>
      </trkpt>
      <trkpt lat="44.3025" lon="5.72771">
        <ele>801.40002441406</ele>
        <time>2016-05-06T14:57:56Z</time>
      </trkpt>
      <trkpt lat="44.3025" lon="5.72775">
        <ele>801.79998779297</ele>
        <time>2016-05-06T14:57:59Z</time>
      </trkpt>
      <trkpt lat="44.30247" lon="5.72778">
        <ele>802.20001220703</ele>
        <time>2016-05-06T14:58:01Z</time>
      </trkpt>
      <trkpt lat="44.30245" lon="5.7278">
        <ele>802.79998779297</ele>
        <time>2016-05-06T14:58:02Z</time>
      </trkpt>
      <trkpt lat="44.30244" lon="5.72782">
        <ele>802.79998779297</ele>
        <time>2016-05-06T14:58:04Z</time>
      </trkpt>
      <trkpt lat="44.30235" lon="5.72793">
        <ele>802.79998779297</ele>
        <time>2016-05-06T14:58:12Z</time>
      </trkpt>
      <trkpt lat="44.30229" lon="5.72801">
        <ele>803.20001220703</ele>
        <time>2016-05-06T14:58:17Z</time>
      </trkpt>
      <trkpt lat="44.30226" lon="5.72805">
        <ele>803.59997558594</ele>
        <time>2016-05-06T14:58:19Z</time>
      </trkpt>
      <trkpt lat="44.30223" lon="5.72807">
        <ele>804</ele>
        <time>2016-05-06T14:58:21Z</time>
      </trkpt>
      <trkpt lat="44.3022" lon="5.72811">
        <ele>804.59997558594</ele>
        <time>2016-05-06T14:58:24Z</time>
      </trkpt>
      <trkpt lat="44.30219" lon="5.72813">
        <ele>805</ele>
        <time>2016-05-06T14:58:25Z</time>
      </trkpt>
      <trkpt lat="44.30217" lon="5.72816">
        <ele>805</ele>
        <time>2016-05-06T14:58:27Z</time>
      </trkpt>
      <trkpt lat="44.3021" lon="5.72825">
        <ele>805.40002441406</ele>
        <time>2016-05-06T14:58:33Z</time>
      </trkpt>
      <trkpt lat="44.30206" lon="5.72829">
        <ele>805.79998779297</ele>
        <time>2016-05-06T14:58:35Z</time>
      </trkpt>
      <trkpt lat="44.30203" lon="5.72834">
        <ele>806.59997558594</ele>
        <time>2016-05-06T14:58:38Z</time>
      </trkpt>
      <trkpt lat="44.30202" lon="5.72837">
        <ele>807</ele>
        <time>2016-05-06T14:58:40Z</time>
      </trkpt>
      <trkpt lat="44.30201" lon="5.72841">
        <ele>807.40002441406</ele>
        <time>2016-05-06T14:58:42Z</time>
      </trkpt>
      <trkpt lat="44.30198" lon="5.72845">
        <ele>808</ele>
        <time>2016-05-06T14:58:45Z</time>
      </trkpt>
      <trkpt lat="44.30198" lon="5.72847">
        <ele>808.40002441406</ele>
        <time>2016-05-06T14:58:46Z</time>
      </trkpt>
      <trkpt lat="44.30196" lon="5.7285">
        <ele>808.79998779297</ele>
        <time>2016-05-06T14:58:48Z</time>
      </trkpt>
      <trkpt lat="44.30194" lon="5.72855">
        <ele>809.20001220703</ele>
        <time>2016-05-06T14:58:51Z</time>
      </trkpt>
      <trkpt lat="44.30188" lon="5.72867">
        <ele>809.20001220703</ele>
        <time>2016-05-06T14:58:57Z</time>
      </trkpt>
      <trkpt lat="44.30187" lon="5.72869">
        <ele>809.79998779297</ele>
        <time>2016-05-06T14:58:58Z</time>
      </trkpt>
      <trkpt lat="44.30186" lon="5.72872">
        <ele>810.40002441406</ele>
        <time>2016-05-06T14:59:00Z</time>
      </trkpt>
      <trkpt lat="44.30185" lon="5.72874">
        <ele>810.79998779297</ele>
        <time>2016-05-06T14:59:01Z</time>
      </trkpt>
      <trkpt lat="44.30182" lon="5.72879">
        <ele>811.40002441406</ele>
        <time>2016-05-06T14:59:04Z</time>
      </trkpt>
      <trkpt lat="44.3018" lon="5.72883">
        <ele>811.79998779297</ele>
        <time>2016-05-06T14:59:06Z</time>
      </trkpt>
      <trkpt lat="44.3018" lon="5.72886">
        <ele>812.20001220703</ele>
        <time>2016-05-06T14:59:09Z</time>
      </trkpt>
      <trkpt lat="44.30177" lon="5.72891">
        <ele>812.59997558594</ele>
        <time>2016-05-06T14:59:12Z</time>
      </trkpt>
      <trkpt lat="44.30176" lon="5.72894">
        <ele>813</ele>
        <time>2016-05-06T14:59:14Z</time>
      </trkpt>
      <trkpt lat="44.30175" lon="5.72895">
        <ele>813.40002441406</ele>
        <time>2016-05-06T14:59:15Z</time>
      </trkpt>
      <trkpt lat="44.30173" lon="5.729">
        <ele>813.79998779297</ele>
        <time>2016-05-06T14:59:18Z</time>
      </trkpt>
      <trkpt lat="44.30172" lon="5.72903">
        <ele>813.79998779297</ele>
        <time>2016-05-06T14:59:20Z</time>
      </trkpt>
      <trkpt lat="44.3016" lon="5.72913">
        <ele>813.79998779297</ele>
        <time>2016-05-06T14:59:28Z</time>
      </trkpt>
      <trkpt lat="44.30159" lon="5.72914">
        <ele>814.40002441406</ele>
        <time>2016-05-06T14:59:29Z</time>
      </trkpt>
      <trkpt lat="44.30155" lon="5.72917">
        <ele>814.79998779297</ele>
        <time>2016-05-06T14:59:32Z</time>
      </trkpt>
      <trkpt lat="44.30154" lon="5.72918">
        <ele>815.40002441406</ele>
        <time>2016-05-06T14:59:33Z</time>
      </trkpt>
      <trkpt lat="44.30155" lon="5.72921">
        <ele>815.79998779297</ele>
        <time>2016-05-06T14:59:35Z</time>
      </trkpt>
      <trkpt lat="44.30154" lon="5.72922">
        <ele>816.40002441406</ele>
        <time>2016-05-06T14:59:36Z</time>
      </trkpt>
      <trkpt lat="44.30142" lon="5.72936">
        <ele>816.40002441406</ele>
        <time>2016-05-06T14:59:45Z</time>
      </trkpt>
      <trkpt lat="44.30136" lon="5.72944">
        <ele>816.79998779297</ele>
        <time>2016-05-06T14:59:50Z</time>
      </trkpt>
      <trkpt lat="44.30132" lon="5.72948">
        <ele>817.20001220703</ele>
        <time>2016-05-06T14:59:53Z</time>
      </trkpt>
      <trkpt lat="44.30132" lon="5.7295">
        <ele>817.59997558594</ele>
        <time>2016-05-06T14:59:54Z</time>
      </trkpt>
      <trkpt lat="44.3013" lon="5.72953">
        <ele>818</ele>
        <time>2016-05-06T14:59:56Z</time>
      </trkpt>
      <trkpt lat="44.30125" lon="5.72956">
        <ele>818.40002441406</ele>
        <time>2016-05-06T14:59:59Z</time>
      </trkpt>
      <trkpt lat="44.30123" lon="5.72959">
        <ele>818.79998779297</ele>
        <time>2016-05-06T15:00:01Z</time>
      </trkpt>
      <trkpt lat="44.30122" lon="5.7296">
        <ele>818.79998779297</ele>
        <time>2016-05-06T15:00:02Z</time>
      </trkpt>
      <trkpt lat="44.30121" lon="5.72961">
        <ele>819.20001220703</ele>
        <time>2016-05-06T15:00:03Z</time>
      </trkpt>
      <trkpt lat="44.30118" lon="5.72964">
        <ele>819.59997558594</ele>
        <time>2016-05-06T15:00:06Z</time>
      </trkpt>
      <trkpt lat="44.30117" lon="5.72965">
        <ele>820.20001220703</ele>
        <time>2016-05-06T15:00:07Z</time>
      </trkpt>
      <trkpt lat="44.30113" lon="5.72969">
        <ele>820.59997558594</ele>
        <time>2016-05-06T15:00:09Z</time>
      </trkpt>
      <trkpt lat="44.30112" lon="5.7297">
        <ele>820.59997558594</ele>
        <time>2016-05-06T15:00:10Z</time>
      </trkpt>
      <trkpt lat="44.30109" lon="5.72973">
        <ele>820.59997558594</ele>
        <time>2016-05-06T15:00:12Z</time>
      </trkpt>
      <trkpt lat="44.30106" lon="5.72976">
        <ele>821</ele>
        <time>2016-05-06T15:00:15Z</time>
      </trkpt>
      <trkpt lat="44.30102" lon="5.72978">
        <ele>821.40002441406</ele>
        <time>2016-05-06T15:00:17Z</time>
      </trkpt>
      <trkpt lat="44.30099" lon="5.72978">
        <ele>822</ele>
        <time>2016-05-06T15:00:20Z</time>
      </trkpt>
      <trkpt lat="44.30097" lon="5.72978">
        <ele>822.40002441406</ele>
        <time>2016-05-06T15:00:23Z</time>
      </trkpt>
      <trkpt lat="44.30096" lon="5.72979">
        <ele>822.79998779297</ele>
        <time>2016-05-06T15:00:24Z</time>
      </trkpt>
      <trkpt lat="44.30096" lon="5.72979">
        <ele>823.20001220703</ele>
        <time>2016-05-06T15:00:26Z</time>
      </trkpt>
      <trkpt lat="44.30093" lon="5.72981">
        <ele>823.79998779297</ele>
        <time>2016-05-06T15:00:29Z</time>
      </trkpt>
      <trkpt lat="44.3009" lon="5.72982">
        <ele>824.20001220703</ele>
        <time>2016-05-06T15:00:31Z</time>
      </trkpt>
      <trkpt lat="44.30086" lon="5.72983">
        <ele>824.20001220703</ele>
        <time>2016-05-06T15:00:33Z</time>
      </trkpt>
      <trkpt lat="44.30085" lon="5.72983">
        <ele>824.59997558594</ele>
        <time>2016-05-06T15:00:34Z</time>
      </trkpt>
      <trkpt lat="44.30082" lon="5.72984">
        <ele>825</ele>
        <time>2016-05-06T15:00:36Z</time>
      </trkpt>
      <trkpt lat="44.30072" lon="5.72988">
        <ele>825.40002441406</ele>
        <time>2016-05-06T15:00:41Z</time>
      </trkpt>
      <trkpt lat="44.30072" lon="5.72989">
        <ele>825.79998779297</ele>
        <time>2016-05-06T15:00:42Z</time>
      </trkpt>
      <trkpt lat="44.30069" lon="5.7299">
        <ele>826.20001220703</ele>
        <time>2016-05-06T15:00:44Z</time>
      </trkpt>
      <trkpt lat="44.30064" lon="5.72994">
        <ele>826.79998779297</ele>
        <time>2016-05-06T15:00:47Z</time>
      </trkpt>
      <trkpt lat="44.30062" lon="5.72995">
        <ele>827.20001220703</ele>
        <time>2016-05-06T15:00:49Z</time>
      </trkpt>
      <trkpt lat="44.30061" lon="5.72996">
        <ele>827.20001220703</ele>
        <time>2016-05-06T15:00:50Z</time>
      </trkpt>
      <trkpt lat="44.30055" lon="5.73001">
        <ele>827.59997558594</ele>
        <time>2016-05-06T15:00:55Z</time>
      </trkpt>
      <trkpt lat="44.30054" lon="5.73002">
        <ele>828</ele>
        <time>2016-05-06T15:00:56Z</time>
      </trkpt>
      <trkpt lat="44.30054" lon="5.73002">
        <ele>828</ele>
        <time>2016-05-06T15:00:57Z</time>
      </trkpt>
      <trkpt lat="44.30053" lon="5.73003">
        <ele>828.40002441406</ele>
        <time>2016-05-06T15:00:58Z</time>
      </trkpt>
      <trkpt lat="44.30049" lon="5.73005">
        <ele>829</ele>
        <time>2016-05-06T15:01:01Z</time>
      </trkpt>
      <trkpt lat="44.30045" lon="5.73008">
        <ele>829.40002441406</ele>
        <time>2016-05-06T15:01:06Z</time>
      </trkpt>
      <trkpt lat="44.30036" lon="5.73013">
        <ele>829.79998779297</ele>
        <time>2016-05-06T15:01:14Z</time>
      </trkpt>
      <trkpt lat="44.30035" lon="5.73014">
        <ele>829.79998779297</ele>
        <time>2016-05-06T15:01:15Z</time>
      </trkpt>
      <trkpt lat="44.30034" lon="5.73015">
        <ele>830.40002441406</ele>
        <time>2016-05-06T15:01:16Z</time>
      </trkpt>
      <trkpt lat="44.30031" lon="5.73016">
        <ele>830.79998779297</ele>
        <time>2016-05-06T15:01:18Z</time>
      </trkpt>
      <trkpt lat="44.30029" lon="5.73018">
        <ele>831.20001220703</ele>
        <time>2016-05-06T15:01:21Z</time>
      </trkpt>
      <trkpt lat="44.30027" lon="5.73019">
        <ele>831.20001220703</ele>
        <time>2016-05-06T15:01:22Z</time>
      </trkpt>
      <trkpt lat="44.30025" lon="5.73021">
        <ele>831.59997558594</ele>
        <time>2016-05-06T15:01:24Z</time>
      </trkpt>
      <trkpt lat="44.30021" lon="5.73023">
        <ele>832.20001220703</ele>
        <time>2016-05-06T15:01:27Z</time>
      </trkpt>
      <trkpt lat="44.30018" lon="5.73026">
        <ele>832.59997558594</ele>
        <time>2016-05-06T15:01:29Z</time>
      </trkpt>
      <trkpt lat="44.30016" lon="5.73028">
        <ele>832.59997558594</ele>
        <time>2016-05-06T15:01:30Z</time>
      </trkpt>
      <trkpt lat="44.30014" lon="5.73029">
        <ele>833</ele>
        <time>2016-05-06T15:01:31Z</time>
      </trkpt>
      <trkpt lat="44.30009" lon="5.73032">
        <ele>833.40002441406</ele>
        <time>2016-05-06T15:01:34Z</time>
      </trkpt>
      <trkpt lat="44.30008" lon="5.73034">
        <ele>833.79998779297</ele>
        <time>2016-05-06T15:01:36Z</time>
      </trkpt>
      <trkpt lat="44.30005" lon="5.73036">
        <ele>834.20001220703</ele>
        <time>2016-05-06T15:01:38Z</time>
      </trkpt>
      <trkpt lat="44.30005" lon="5.73037">
        <ele>834.20001220703</ele>
        <time>2016-05-06T15:01:39Z</time>
      </trkpt>
      <trkpt lat="44.30002" lon="5.73039">
        <ele>834.79998779297</ele>
        <time>2016-05-06T15:01:41Z</time>
      </trkpt>
      <trkpt lat="44.29998" lon="5.73044">
        <ele>835.20001220703</ele>
        <time>2016-05-06T15:01:43Z</time>
      </trkpt>
      <trkpt lat="44.29996" lon="5.73048">
        <ele>835.20001220703</ele>
        <time>2016-05-06T15:01:45Z</time>
      </trkpt>
      <trkpt lat="44.29996" lon="5.73053">
        <ele>835.59997558594</ele>
        <time>2016-05-06T15:01:48Z</time>
      </trkpt>
      <trkpt lat="44.29996" lon="5.73056">
        <ele>836</ele>
        <time>2016-05-06T15:01:49Z</time>
      </trkpt>
      <trkpt lat="44.30005" lon="5.73067">
        <ele>836</ele>
        <time>2016-05-06T15:01:54Z</time>
      </trkpt>
      <trkpt lat="44.30016" lon="5.73077">
        <ele>836</ele>
        <time>2016-05-06T15:01:58Z</time>
      </trkpt>
      <trkpt lat="44.3002" lon="5.73082">
        <ele>836</ele>
        <time>2016-05-06T15:02:00Z</time>
      </trkpt>
      <trkpt lat="44.30023" lon="5.73087">
        <ele>836.40002441406</ele>
        <time>2016-05-06T15:02:02Z</time>
      </trkpt>
      <trkpt lat="44.30024" lon="5.73089">
        <ele>837</ele>
        <time>2016-05-06T15:02:03Z</time>
      </trkpt>
      <trkpt lat="44.30025" lon="5.73095">
        <ele>838</ele>
        <time>2016-05-06T15:02:06Z</time>
      </trkpt>
      <trkpt lat="44.30027" lon="5.73101">
        <ele>838.40002441406</ele>
        <time>2016-05-06T15:02:09Z</time>
      </trkpt>
      <trkpt lat="44.3003" lon="5.73111">
        <ele>838.40002441406</ele>
        <time>2016-05-06T15:02:15Z</time>
      </trkpt>
      <trkpt lat="44.30022" lon="5.73124">
        <ele>838.40002441406</ele>
        <time>2016-05-06T15:02:23Z</time>
      </trkpt>
      <trkpt lat="44.30019" lon="5.73129">
        <ele>838.79998779297</ele>
        <time>2016-05-06T15:02:26Z</time>
      </trkpt>
      <trkpt lat="44.30015" lon="5.73134">
        <ele>839.40002441406</ele>
        <time>2016-05-06T15:02:29Z</time>
      </trkpt>
      <trkpt lat="44.30014" lon="5.73136">
        <ele>839.40002441406</ele>
        <time>2016-05-06T15:02:30Z</time>
      </trkpt>
      <trkpt lat="44.30014" lon="5.73138">
        <ele>839.79998779297</ele>
        <time>2016-05-06T15:02:31Z</time>
      </trkpt>
      <trkpt lat="44.30013" lon="5.7314">
        <ele>840.20001220703</ele>
        <time>2016-05-06T15:02:32Z</time>
      </trkpt>
      <trkpt lat="44.30014" lon="5.73146">
        <ele>840.59997558594</ele>
        <time>2016-05-06T15:02:35Z</time>
      </trkpt>
      <trkpt lat="44.30016" lon="5.73156">
        <ele>840.59997558594</ele>
        <time>2016-05-06T15:02:40Z</time>
      </trkpt>
      <trkpt lat="44.30017" lon="5.7316">
        <ele>840.59997558594</ele>
        <time>2016-05-06T15:02:42Z</time>
      </trkpt>
      <trkpt lat="44.30019" lon="5.73167">
        <ele>841.40002441406</ele>
        <time>2016-05-06T15:02:46Z</time>
      </trkpt>
      <trkpt lat="44.30021" lon="5.73168">
        <ele>841.40002441406</ele>
        <time>2016-05-06T15:02:47Z</time>
      </trkpt>
      <trkpt lat="44.30024" lon="5.7317">
        <ele>841.79998779297</ele>
        <time>2016-05-06T15:02:49Z</time>
      </trkpt>
      <trkpt lat="44.30027" lon="5.73172">
        <ele>842.20001220703</ele>
        <time>2016-05-06T15:02:51Z</time>
      </trkpt>
      <trkpt lat="44.3003" lon="5.73173">
        <ele>842.79998779297</ele>
        <time>2016-05-06T15:02:53Z</time>
      </trkpt>
      <trkpt lat="44.30035" lon="5.73174">
        <ele>842.79998779297</ele>
        <time>2016-05-06T15:02:56Z</time>
      </trkpt>
      <trkpt lat="44.30038" lon="5.73174">
        <ele>843.20001220703</ele>
        <time>2016-05-06T15:02:58Z</time>
      </trkpt>
      <trkpt lat="44.3004" lon="5.73174">
        <ele>843.59997558594</ele>
        <time>2016-05-06T15:03:00Z</time>
      </trkpt>
      <trkpt lat="44.30044" lon="5.73173">
        <ele>844</ele>
        <time>2016-05-06T15:03:03Z</time>
      </trkpt>
      <trkpt lat="44.30045" lon="5.73172">
        <ele>844.59997558594</ele>
        <time>2016-05-06T15:03:04Z</time>
      </trkpt>
      <trkpt lat="44.30049" lon="5.73172">
        <ele>845</ele>
        <time>2016-05-06T15:03:07Z</time>
      </trkpt>
      <trkpt lat="44.30062" lon="5.73171">
        <ele>845</ele>
        <time>2016-05-06T15:03:15Z</time>
      </trkpt>
      <trkpt lat="44.30077" lon="5.73172">
        <ele>845.40002441406</ele>
        <time>2016-05-06T15:03:25Z</time>
      </trkpt>
      <trkpt lat="44.30079" lon="5.73173">
        <ele>846.20001220703</ele>
        <time>2016-05-06T15:03:26Z</time>
      </trkpt>
      <trkpt lat="44.30082" lon="5.73175">
        <ele>846.59997558594</ele>
        <time>2016-05-06T15:03:29Z</time>
      </trkpt>
      <trkpt lat="44.30084" lon="5.73178">
        <ele>847</ele>
        <time>2016-05-06T15:03:31Z</time>
      </trkpt>
      <trkpt lat="44.3009" lon="5.73185">
        <ele>847</ele>
        <time>2016-05-06T15:03:36Z</time>
      </trkpt>
      <trkpt lat="44.30091" lon="5.73193">
        <ele>847.40002441406</ele>
        <time>2016-05-06T15:03:40Z</time>
      </trkpt>
      <trkpt lat="44.30093" lon="5.73197">
        <ele>848.20001220703</ele>
        <time>2016-05-06T15:03:42Z</time>
      </trkpt>
      <trkpt lat="44.30094" lon="5.73201">
        <ele>848.59997558594</ele>
        <time>2016-05-06T15:03:44Z</time>
      </trkpt>
      <trkpt lat="44.30094" lon="5.73208">
        <ele>849</ele>
        <time>2016-05-06T15:03:47Z</time>
      </trkpt>
      <trkpt lat="44.30096" lon="5.73222">
        <ele>849.59997558594</ele>
        <time>2016-05-06T15:03:54Z</time>
      </trkpt>
      <trkpt lat="44.30096" lon="5.73224">
        <ele>850</ele>
        <time>2016-05-06T15:03:55Z</time>
      </trkpt>
      <trkpt lat="44.30096" lon="5.73229">
        <ele>850.40002441406</ele>
        <time>2016-05-06T15:03:57Z</time>
      </trkpt>
      <trkpt lat="44.30095" lon="5.73235">
        <ele>851</ele>
        <time>2016-05-06T15:04:00Z</time>
      </trkpt>
      <trkpt lat="44.30095" lon="5.7324">
        <ele>851.40002441406</ele>
        <time>2016-05-06T15:04:02Z</time>
      </trkpt>
      <trkpt lat="44.30093" lon="5.73244">
        <ele>851.40002441406</ele>
        <time>2016-05-06T15:04:04Z</time>
      </trkpt>
      <trkpt lat="44.30092" lon="5.73246">
        <ele>851.79998779297</ele>
        <time>2016-05-06T15:04:05Z</time>
      </trkpt>
      <trkpt lat="44.30088" lon="5.73253">
        <ele>852.79998779297</ele>
        <time>2016-05-06T15:04:08Z</time>
      </trkpt>
      <trkpt lat="44.30087" lon="5.73256">
        <ele>853.20001220703</ele>
        <time>2016-05-06T15:04:10Z</time>
      </trkpt>
      <trkpt lat="44.30086" lon="5.73258">
        <ele>853.20001220703</ele>
        <time>2016-05-06T15:04:11Z</time>
      </trkpt>
      <trkpt lat="44.30078" lon="5.73267">
        <ele>853.79998779297</ele>
        <time>2016-05-06T15:04:15Z</time>
      </trkpt>
      <trkpt lat="44.30073" lon="5.7327">
        <ele>853.79998779297</ele>
        <time>2016-05-06T15:04:18Z</time>
      </trkpt>
      <trkpt lat="44.30066" lon="5.7327">
        <ele>854.20001220703</ele>
        <time>2016-05-06T15:04:22Z</time>
      </trkpt>
      <trkpt lat="44.30064" lon="5.73269">
        <ele>854.20001220703</ele>
        <time>2016-05-06T15:04:24Z</time>
      </trkpt>
      <trkpt lat="44.30063" lon="5.73268">
        <ele>854.59997558594</ele>
        <time>2016-05-06T15:04:25Z</time>
      </trkpt>
      <trkpt lat="44.30058" lon="5.73263">
        <ele>855.40002441406</ele>
        <time>2016-05-06T15:04:29Z</time>
      </trkpt>
      <trkpt lat="44.30053" lon="5.73258">
        <ele>855.40002441406</ele>
        <time>2016-05-06T15:04:32Z</time>
      </trkpt>
      <trkpt lat="44.3005" lon="5.73255">
        <ele>855.79998779297</ele>
        <time>2016-05-06T15:04:34Z</time>
      </trkpt>
      <trkpt lat="44.30043" lon="5.73244">
        <ele>855.79998779297</ele>
        <time>2016-05-06T15:04:40Z</time>
      </trkpt>
      <trkpt lat="44.30033" lon="5.73231">
        <ele>855.79998779297</ele>
        <time>2016-05-06T15:04:47Z</time>
      </trkpt>
      <trkpt lat="44.30025" lon="5.73224">
        <ele>856.20001220703</ele>
        <time>2016-05-06T15:04:51Z</time>
      </trkpt>
      <trkpt lat="44.30022" lon="5.73222">
        <ele>856.59997558594</ele>
        <time>2016-05-06T15:04:53Z</time>
      </trkpt>
      <trkpt lat="44.30019" lon="5.73218">
        <ele>856.59997558594</ele>
        <time>2016-05-06T15:04:55Z</time>
      </trkpt>
      <trkpt lat="44.30018" lon="5.73216">
        <ele>857.40002441406</ele>
        <time>2016-05-06T15:04:56Z</time>
      </trkpt>
      <trkpt lat="44.30014" lon="5.73214">
        <ele>857.79998779297</ele>
        <time>2016-05-06T15:04:59Z</time>
      </trkpt>
      <trkpt lat="44.30013" lon="5.73215">
        <ele>857.79998779297</ele>
        <time>2016-05-06T15:05:00Z</time>
      </trkpt>
      <trkpt lat="44.30013" lon="5.73215">
        <ele>857.79998779297</ele>
        <time>2016-05-06T15:05:01Z</time>
      </trkpt>
      <trkpt lat="44.30013" lon="5.73216">
        <ele>857.79998779297</ele>
        <time>2016-05-06T15:07:57Z</time>
      </trkpt>
      <trkpt lat="44.30013" lon="5.73216">
        <ele>857.79998779297</ele>
        <time>2016-05-06T15:08:39Z</time>
      </trkpt>
      <trkpt lat="44.30013" lon="5.73222">
        <ele>857.79998779297</ele>
        <time>2016-05-06T15:08:43Z</time>
      </trkpt>
      <trkpt lat="44.30005" lon="5.73229">
        <ele>857.79998779297</ele>
        <time>2016-05-06T15:08:53Z</time>
      </trkpt>
      <trkpt lat="44.30002" lon="5.73233">
        <ele>858.79998779297</ele>
        <time>2016-05-06T15:08:59Z</time>
      </trkpt>
      <trkpt lat="44.3" lon="5.73235">
        <ele>859.20001220703</ele>
        <time>2016-05-06T15:09:02Z</time>
      </trkpt>
      <trkpt lat="44.29999" lon="5.73235">
        <ele>859.59997558594</ele>
        <time>2016-05-06T15:09:03Z</time>
      </trkpt>
      <trkpt lat="44.29997" lon="5.73238">
        <ele>859.59997558594</ele>
        <time>2016-05-06T15:09:05Z</time>
      </trkpt>
      <trkpt lat="44.29997" lon="5.73239">
        <ele>860</ele>
        <time>2016-05-06T15:09:06Z</time>
      </trkpt>
      <trkpt lat="44.29997" lon="5.73242">
        <ele>860</ele>
        <time>2016-05-06T15:09:13Z</time>
      </trkpt>
      <trkpt lat="44.29992" lon="5.7325">
        <ele>860</ele>
        <time>2016-05-06T15:09:18Z</time>
      </trkpt>
      <trkpt lat="44.29991" lon="5.73255">
        <ele>860</ele>
        <time>2016-05-06T15:09:21Z</time>
      </trkpt>
      <trkpt lat="44.2999" lon="5.73272">
        <ele>860</ele>
        <time>2016-05-06T15:09:30Z</time>
      </trkpt>
      <trkpt lat="44.29992" lon="5.73282">
        <ele>860.40002441406</ele>
        <time>2016-05-06T15:09:36Z</time>
      </trkpt>
      <trkpt lat="44.29992" lon="5.73286">
        <ele>860.79998779297</ele>
        <time>2016-05-06T15:09:38Z</time>
      </trkpt>
      <trkpt lat="44.29993" lon="5.73288">
        <ele>860.79998779297</ele>
        <time>2016-05-06T15:09:39Z</time>
      </trkpt>
      <trkpt lat="44.29993" lon="5.73291">
        <ele>861.79998779297</ele>
        <time>2016-05-06T15:09:41Z</time>
      </trkpt>
      <trkpt lat="44.29995" lon="5.733">
        <ele>862.40002441406</ele>
        <time>2016-05-06T15:09:46Z</time>
      </trkpt>
      <trkpt lat="44.29997" lon="5.73305">
        <ele>863.59997558594</ele>
        <time>2016-05-06T15:09:49Z</time>
      </trkpt>
      <trkpt lat="44.3" lon="5.73309">
        <ele>864.20001220703</ele>
        <time>2016-05-06T15:09:52Z</time>
      </trkpt>
      <trkpt lat="44.30001" lon="5.73313">
        <ele>864.79998779297</ele>
        <time>2016-05-06T15:09:54Z</time>
      </trkpt>
      <trkpt lat="44.30003" lon="5.73326">
        <ele>864.79998779297</ele>
        <time>2016-05-06T15:10:01Z</time>
      </trkpt>
      <trkpt lat="44.30001" lon="5.7333">
        <ele>864.79998779297</ele>
        <time>2016-05-06T15:10:03Z</time>
      </trkpt>
      <trkpt lat="44.3" lon="5.73339">
        <ele>864.79998779297</ele>
        <time>2016-05-06T15:10:08Z</time>
      </trkpt>
      <trkpt lat="44.29999" lon="5.73342">
        <ele>865.20001220703</ele>
        <time>2016-05-06T15:10:10Z</time>
      </trkpt>
      <trkpt lat="44.29997" lon="5.73348">
        <ele>865.79998779297</ele>
        <time>2016-05-06T15:10:13Z</time>
      </trkpt>
      <trkpt lat="44.29996" lon="5.73351">
        <ele>867</ele>
        <time>2016-05-06T15:10:15Z</time>
      </trkpt>
      <trkpt lat="44.29996" lon="5.73353">
        <ele>867</ele>
        <time>2016-05-06T15:10:17Z</time>
      </trkpt>
      <trkpt lat="44.29996" lon="5.73355">
        <ele>867.40002441406</ele>
        <time>2016-05-06T15:10:18Z</time>
      </trkpt>
      <trkpt lat="44.29993" lon="5.73369">
        <ele>868.40002441406</ele>
        <time>2016-05-06T15:10:25Z</time>
      </trkpt>
      <trkpt lat="44.29992" lon="5.73374">
        <ele>869</ele>
        <time>2016-05-06T15:10:28Z</time>
      </trkpt>
      <trkpt lat="44.29992" lon="5.73376">
        <ele>869.40002441406</ele>
        <time>2016-05-06T15:10:29Z</time>
      </trkpt>
      <trkpt lat="44.29992" lon="5.73378">
        <ele>869.40002441406</ele>
        <time>2016-05-06T15:10:30Z</time>
      </trkpt>
      <trkpt lat="44.29992" lon="5.73382">
        <ele>869.79998779297</ele>
        <time>2016-05-06T15:10:32Z</time>
      </trkpt>
      <trkpt lat="44.29985" lon="5.73396">
        <ele>869.79998779297</ele>
        <time>2016-05-06T15:10:40Z</time>
      </trkpt>
      <trkpt lat="44.29983" lon="5.73399">
        <ele>870.79998779297</ele>
        <time>2016-05-06T15:10:42Z</time>
      </trkpt>
      <trkpt lat="44.29982" lon="5.73404">
        <ele>871.59997558594</ele>
        <time>2016-05-06T15:10:45Z</time>
      </trkpt>
      <trkpt lat="44.29979" lon="5.73408">
        <ele>872.20001220703</ele>
        <time>2016-05-06T15:10:48Z</time>
      </trkpt>
      <trkpt lat="44.29979" lon="5.7341">
        <ele>872.20001220703</ele>
        <time>2016-05-06T15:10:49Z</time>
      </trkpt>
      <trkpt lat="44.2998" lon="5.73429">
        <ele>872.20001220703</ele>
        <time>2016-05-06T15:10:59Z</time>
      </trkpt>
      <trkpt lat="44.29988" lon="5.73441">
        <ele>872.59997558594</ele>
        <time>2016-05-06T15:11:06Z</time>
      </trkpt>
      <trkpt lat="44.29989" lon="5.73445">
        <ele>873</ele>
        <time>2016-05-06T15:11:08Z</time>
      </trkpt>
      <trkpt lat="44.2999" lon="5.73447">
        <ele>873</ele>
        <time>2016-05-06T15:11:09Z</time>
      </trkpt>
      <trkpt lat="44.29992" lon="5.73454">
        <ele>873.40002441406</ele>
        <time>2016-05-06T15:11:12Z</time>
      </trkpt>
      <trkpt lat="44.29993" lon="5.7346">
        <ele>873.79998779297</ele>
        <time>2016-05-06T15:11:15Z</time>
      </trkpt>
      <trkpt lat="44.29995" lon="5.73469">
        <ele>874.20001220703</ele>
        <time>2016-05-06T15:11:19Z</time>
      </trkpt>
      <trkpt lat="44.29993" lon="5.73485">
        <ele>875.20001220703</ele>
        <time>2016-05-06T15:11:27Z</time>
      </trkpt>
      <trkpt lat="44.29992" lon="5.73489">
        <ele>875.20001220703</ele>
        <time>2016-05-06T15:11:29Z</time>
      </trkpt>
      <trkpt lat="44.2999" lon="5.73489">
        <ele>875.20001220703</ele>
        <time>2016-05-06T15:11:30Z</time>
      </trkpt>
      <trkpt lat="44.29989" lon="5.73488">
        <ele>876.20001220703</ele>
        <time>2016-05-06T15:11:31Z</time>
      </trkpt>
      <trkpt lat="44.29988" lon="5.73487">
        <ele>876.20001220703</ele>
        <time>2016-05-06T15:11:32Z</time>
      </trkpt>
      <trkpt lat="44.29987" lon="5.73485">
        <ele>877.20001220703</ele>
        <time>2016-05-06T15:11:34Z</time>
      </trkpt>
      <trkpt lat="44.29986" lon="5.73481">
        <ele>877.59997558594</ele>
        <time>2016-05-06T15:11:37Z</time>
      </trkpt>
      <trkpt lat="44.29984" lon="5.73476">
        <ele>877.59997558594</ele>
        <time>2016-05-06T15:11:40Z</time>
      </trkpt>
      <trkpt lat="44.29983" lon="5.7347">
        <ele>878</ele>
        <time>2016-05-06T15:11:43Z</time>
      </trkpt>
      <trkpt lat="44.2998" lon="5.73458">
        <ele>878</ele>
        <time>2016-05-06T15:11:49Z</time>
      </trkpt>
      <trkpt lat="44.2998" lon="5.73456">
        <ele>878.59997558594</ele>
        <time>2016-05-06T15:11:50Z</time>
      </trkpt>
      <trkpt lat="44.29976" lon="5.7345">
        <ele>879</ele>
        <time>2016-05-06T15:11:53Z</time>
      </trkpt>
      <trkpt lat="44.29967" lon="5.73443">
        <ele>879</ele>
        <time>2016-05-06T15:11:57Z</time>
      </trkpt>
      <trkpt lat="44.29955" lon="5.73434">
        <ele>879</ele>
        <time>2016-05-06T15:12:06Z</time>
      </trkpt>
      <trkpt lat="44.2995" lon="5.73432">
        <ele>879.59997558594</ele>
        <time>2016-05-06T15:12:10Z</time>
      </trkpt>
      <trkpt lat="44.29948" lon="5.7343">
        <ele>880</ele>
        <time>2016-05-06T15:12:12Z</time>
      </trkpt>
      <trkpt lat="44.29945" lon="5.73429">
        <ele>880.59997558594</ele>
        <time>2016-05-06T15:12:14Z</time>
      </trkpt>
      <trkpt lat="44.29941" lon="5.73426">
        <ele>881</ele>
        <time>2016-05-06T15:12:17Z</time>
      </trkpt>
      <trkpt lat="44.29938" lon="5.73425">
        <ele>881.59997558594</ele>
        <time>2016-05-06T15:12:19Z</time>
      </trkpt>
      <trkpt lat="44.2993" lon="5.73418">
        <ele>881.59997558594</ele>
        <time>2016-05-06T15:12:26Z</time>
      </trkpt>
      <trkpt lat="44.29924" lon="5.73413">
        <ele>882</ele>
        <time>2016-05-06T15:12:31Z</time>
      </trkpt>
      <trkpt lat="44.29922" lon="5.73411">
        <ele>882</ele>
        <time>2016-05-06T15:12:33Z</time>
      </trkpt>
      <trkpt lat="44.29921" lon="5.73409">
        <ele>882.40002441406</ele>
        <time>2016-05-06T15:12:34Z</time>
      </trkpt>
      <trkpt lat="44.2992" lon="5.73408">
        <ele>882.79998779297</ele>
        <time>2016-05-06T15:12:35Z</time>
      </trkpt>
      <trkpt lat="44.29919" lon="5.73405">
        <ele>883.40002441406</ele>
        <time>2016-05-06T15:12:37Z</time>
      </trkpt>
      <trkpt lat="44.29919" lon="5.73402">
        <ele>883.79998779297</ele>
        <time>2016-05-06T15:12:39Z</time>
      </trkpt>
      <trkpt lat="44.29918" lon="5.734">
        <ele>883.79998779297</ele>
        <time>2016-05-06T15:12:40Z</time>
      </trkpt>
      <trkpt lat="44.29918" lon="5.73391">
        <ele>884.20001220703</ele>
        <time>2016-05-06T15:12:45Z</time>
      </trkpt>
      <trkpt lat="44.29919" lon="5.73384">
        <ele>884.59997558594</ele>
        <time>2016-05-06T15:12:48Z</time>
      </trkpt>
      <trkpt lat="44.2992" lon="5.7338">
        <ele>885.20001220703</ele>
        <time>2016-05-06T15:12:50Z</time>
      </trkpt>
      <trkpt lat="44.29921" lon="5.73376">
        <ele>885.59997558594</ele>
        <time>2016-05-06T15:12:52Z</time>
      </trkpt>
      <trkpt lat="44.29921" lon="5.73369">
        <ele>886</ele>
        <time>2016-05-06T15:12:55Z</time>
      </trkpt>
      <trkpt lat="44.29922" lon="5.73363">
        <ele>886.40002441406</ele>
        <time>2016-05-06T15:12:58Z</time>
      </trkpt>
      <trkpt lat="44.29921" lon="5.73361">
        <ele>886.40002441406</ele>
        <time>2016-05-06T15:12:59Z</time>
      </trkpt>
      <trkpt lat="44.29921" lon="5.73359">
        <ele>886.79998779297</ele>
        <time>2016-05-06T15:13:00Z</time>
      </trkpt>
      <trkpt lat="44.29919" lon="5.73353">
        <ele>887.20001220703</ele>
        <time>2016-05-06T15:13:03Z</time>
      </trkpt>
      <trkpt lat="44.29918" lon="5.73348">
        <ele>887.59997558594</ele>
        <time>2016-05-06T15:13:05Z</time>
      </trkpt>
      <trkpt lat="44.29917" lon="5.73342">
        <ele>888.20001220703</ele>
        <time>2016-05-06T15:13:08Z</time>
      </trkpt>
      <trkpt lat="44.29913" lon="5.73332">
        <ele>888.20001220703</ele>
        <time>2016-05-06T15:13:13Z</time>
      </trkpt>
      <trkpt lat="44.29911" lon="5.73328">
        <ele>888.20001220703</ele>
        <time>2016-05-06T15:13:15Z</time>
      </trkpt>
      <trkpt lat="44.29908" lon="5.73323">
        <ele>888.59997558594</ele>
        <time>2016-05-06T15:13:18Z</time>
      </trkpt>
      <trkpt lat="44.29908" lon="5.73321">
        <ele>889</ele>
        <time>2016-05-06T15:13:19Z</time>
      </trkpt>
      <trkpt lat="44.29904" lon="5.73317">
        <ele>889.40002441406</ele>
        <time>2016-05-06T15:13:22Z</time>
      </trkpt>
      <trkpt lat="44.29903" lon="5.73315">
        <ele>890</ele>
        <time>2016-05-06T15:13:23Z</time>
      </trkpt>
      <trkpt lat="44.29902" lon="5.73312">
        <ele>890.40002441406</ele>
        <time>2016-05-06T15:13:25Z</time>
      </trkpt>
      <trkpt lat="44.299" lon="5.73311">
        <ele>890.40002441406</ele>
        <time>2016-05-06T15:13:26Z</time>
      </trkpt>
      <trkpt lat="44.29892" lon="5.73303">
        <ele>891</ele>
        <time>2016-05-06T15:13:31Z</time>
      </trkpt>
      <trkpt lat="44.2989" lon="5.733">
        <ele>891.79998779297</ele>
        <time>2016-05-06T15:13:33Z</time>
      </trkpt>
      <trkpt lat="44.29888" lon="5.73297">
        <ele>891.79998779297</ele>
        <time>2016-05-06T15:13:35Z</time>
      </trkpt>
      <trkpt lat="44.29886" lon="5.73294">
        <ele>892.79998779297</ele>
        <time>2016-05-06T15:13:37Z</time>
      </trkpt>
      <trkpt lat="44.29883" lon="5.7329">
        <ele>893.40002441406</ele>
        <time>2016-05-06T15:13:40Z</time>
      </trkpt>
      <trkpt lat="44.2988" lon="5.73286">
        <ele>894.20001220703</ele>
        <time>2016-05-06T15:13:44Z</time>
      </trkpt>
      <trkpt lat="44.29879" lon="5.73283">
        <ele>894.20001220703</ele>
        <time>2016-05-06T15:13:46Z</time>
      </trkpt>
      <trkpt lat="44.29877" lon="5.73283">
        <ele>894.79998779297</ele>
        <time>2016-05-06T15:13:47Z</time>
      </trkpt>
      <trkpt lat="44.29875" lon="5.7328">
        <ele>895.20001220703</ele>
        <time>2016-05-06T15:13:49Z</time>
      </trkpt>
      <trkpt lat="44.29865" lon="5.73271">
        <ele>895.79998779297</ele>
        <time>2016-05-06T15:13:57Z</time>
      </trkpt>
      <trkpt lat="44.29863" lon="5.73267">
        <ele>896.20001220703</ele>
        <time>2016-05-06T15:14:00Z</time>
      </trkpt>
      <trkpt lat="44.29861" lon="5.73265">
        <ele>896.79998779297</ele>
        <time>2016-05-06T15:14:02Z</time>
      </trkpt>
      <trkpt lat="44.2986" lon="5.73264">
        <ele>897.40002441406</ele>
        <time>2016-05-06T15:14:03Z</time>
      </trkpt>
      <trkpt lat="44.29858" lon="5.73262">
        <ele>897.40002441406</ele>
        <time>2016-05-06T15:14:05Z</time>
      </trkpt>
      <trkpt lat="44.29857" lon="5.7326">
        <ele>898</ele>
        <time>2016-05-06T15:14:06Z</time>
      </trkpt>
      <trkpt lat="44.29854" lon="5.73256">
        <ele>898.40002441406</ele>
        <time>2016-05-06T15:14:09Z</time>
      </trkpt>
      <trkpt lat="44.29851" lon="5.7325">
        <ele>898.79998779297</ele>
        <time>2016-05-06T15:14:13Z</time>
      </trkpt>
      <trkpt lat="44.2985" lon="5.73249">
        <ele>898.79998779297</ele>
        <time>2016-05-06T15:14:14Z</time>
      </trkpt>
      <trkpt lat="44.29849" lon="5.73247">
        <ele>899.20001220703</ele>
        <time>2016-05-06T15:14:15Z</time>
      </trkpt>
      <trkpt lat="44.29847" lon="5.73242">
        <ele>900</ele>
        <time>2016-05-06T15:14:18Z</time>
      </trkpt>
      <trkpt lat="44.29841" lon="5.73232">
        <ele>900</ele>
        <time>2016-05-06T15:14:25Z</time>
      </trkpt>
      <trkpt lat="44.29837" lon="5.73228">
        <ele>900.59997558594</ele>
        <time>2016-05-06T15:14:28Z</time>
      </trkpt>
      <trkpt lat="44.29834" lon="5.73226">
        <ele>901.20001220703</ele>
        <time>2016-05-06T15:14:30Z</time>
      </trkpt>
      <trkpt lat="44.29832" lon="5.73225">
        <ele>901.59997558594</ele>
        <time>2016-05-06T15:14:32Z</time>
      </trkpt>
      <trkpt lat="44.29829" lon="5.73225">
        <ele>901.59997558594</ele>
        <time>2016-05-06T15:14:34Z</time>
      </trkpt>
      <trkpt lat="44.29827" lon="5.73225">
        <ele>902.20001220703</ele>
        <time>2016-05-06T15:14:35Z</time>
      </trkpt>
      <trkpt lat="44.29824" lon="5.73226">
        <ele>902.79998779297</ele>
        <time>2016-05-06T15:14:37Z</time>
      </trkpt>
      <trkpt lat="44.29816" lon="5.73228">
        <ele>903.20001220703</ele>
        <time>2016-05-06T15:14:43Z</time>
      </trkpt>
      <trkpt lat="44.29815" lon="5.73229">
        <ele>903.59997558594</ele>
        <time>2016-05-06T15:14:45Z</time>
      </trkpt>
      <trkpt lat="44.29813" lon="5.73229">
        <ele>904.20001220703</ele>
        <time>2016-05-06T15:14:46Z</time>
      </trkpt>
      <trkpt lat="44.2981" lon="5.73229">
        <ele>904.59997558594</ele>
        <time>2016-05-06T15:14:49Z</time>
      </trkpt>
      <trkpt lat="44.29808" lon="5.73229">
        <ele>905</ele>
        <time>2016-05-06T15:14:50Z</time>
      </trkpt>
      <trkpt lat="44.29807" lon="5.73229">
        <ele>905</ele>
        <time>2016-05-06T15:14:52Z</time>
      </trkpt>
      <trkpt lat="44.29802" lon="5.73228">
        <ele>905</ele>
        <time>2016-05-06T15:14:57Z</time>
      </trkpt>
      <trkpt lat="44.29795" lon="5.73229">
        <ele>905.59997558594</ele>
        <time>2016-05-06T15:15:02Z</time>
      </trkpt>
      <trkpt lat="44.2979" lon="5.73229">
        <ele>906</ele>
        <time>2016-05-06T15:15:05Z</time>
      </trkpt>
      <trkpt lat="44.29787" lon="5.7323">
        <ele>906.59997558594</ele>
        <time>2016-05-06T15:15:07Z</time>
      </trkpt>
      <trkpt lat="44.29784" lon="5.73231">
        <ele>906.59997558594</ele>
        <time>2016-05-06T15:15:09Z</time>
      </trkpt>
      <trkpt lat="44.29782" lon="5.73231">
        <ele>907</ele>
        <time>2016-05-06T15:15:10Z</time>
      </trkpt>
      <trkpt lat="44.29779" lon="5.73233">
        <ele>907.59997558594</ele>
        <time>2016-05-06T15:15:12Z</time>
      </trkpt>
      <trkpt lat="44.2977" lon="5.73236">
        <ele>907.59997558594</ele>
        <time>2016-05-06T15:15:19Z</time>
      </trkpt>
      <trkpt lat="44.29765" lon="5.73238">
        <ele>908</ele>
        <time>2016-05-06T15:15:22Z</time>
      </trkpt>
      <trkpt lat="44.29762" lon="5.7324">
        <ele>908.40002441406</ele>
        <time>2016-05-06T15:15:25Z</time>
      </trkpt>
      <trkpt lat="44.29761" lon="5.7324">
        <ele>908.40002441406</ele>
        <time>2016-05-06T15:15:26Z</time>
      </trkpt>
      <trkpt lat="44.29759" lon="5.73241">
        <ele>908.79998779297</ele>
        <time>2016-05-06T15:15:28Z</time>
      </trkpt>
      <trkpt lat="44.29757" lon="5.73244">
        <ele>909.20001220703</ele>
        <time>2016-05-06T15:15:31Z</time>
      </trkpt>
      <trkpt lat="44.29753" lon="5.73247">
        <ele>909.59997558594</ele>
        <time>2016-05-06T15:15:33Z</time>
      </trkpt>
      <trkpt lat="44.29751" lon="5.73249">
        <ele>909.59997558594</ele>
        <time>2016-05-06T15:15:35Z</time>
      </trkpt>
      <trkpt lat="44.29745" lon="5.73255">
        <ele>909.59997558594</ele>
        <time>2016-05-06T15:15:41Z</time>
      </trkpt>
      <trkpt lat="44.29735" lon="5.73261">
        <ele>909.59997558594</ele>
        <time>2016-05-06T15:15:50Z</time>
      </trkpt>
      <trkpt lat="44.29733" lon="5.73263">
        <ele>910</ele>
        <time>2016-05-06T15:15:52Z</time>
      </trkpt>
      <trkpt lat="44.29731" lon="5.73264">
        <ele>910.59997558594</ele>
        <time>2016-05-06T15:15:54Z</time>
      </trkpt>
      <trkpt lat="44.29726" lon="5.73266">
        <ele>911</ele>
        <time>2016-05-06T15:15:57Z</time>
      </trkpt>
      <trkpt lat="44.29724" lon="5.73267">
        <ele>911</ele>
        <time>2016-05-06T15:15:58Z</time>
      </trkpt>
      <trkpt lat="44.29722" lon="5.73267">
        <ele>911.79998779297</ele>
        <time>2016-05-06T15:15:59Z</time>
      </trkpt>
      <trkpt lat="44.29711" lon="5.73266">
        <ele>911.79998779297</ele>
        <time>2016-05-06T15:16:07Z</time>
      </trkpt>
      <trkpt lat="44.29705" lon="5.73264">
        <ele>912.20001220703</ele>
        <time>2016-05-06T15:16:14Z</time>
      </trkpt>
      <trkpt lat="44.29704" lon="5.73264">
        <ele>912.79998779297</ele>
        <time>2016-05-06T15:16:16Z</time>
      </trkpt>
      <trkpt lat="44.297" lon="5.73262">
        <ele>913.40002441406</ele>
        <time>2016-05-06T15:16:19Z</time>
      </trkpt>
      <trkpt lat="44.29698" lon="5.73261">
        <ele>914.40002441406</ele>
        <time>2016-05-06T15:16:21Z</time>
      </trkpt>
      <trkpt lat="44.29695" lon="5.73258">
        <ele>914.40002441406</ele>
        <time>2016-05-06T15:16:24Z</time>
      </trkpt>
      <trkpt lat="44.29694" lon="5.73257">
        <ele>915.40002441406</ele>
        <time>2016-05-06T15:16:25Z</time>
      </trkpt>
      <trkpt lat="44.2969" lon="5.73255">
        <ele>916.40002441406</ele>
        <time>2016-05-06T15:16:28Z</time>
      </trkpt>
      <trkpt lat="44.29685" lon="5.73252">
        <ele>916.79998779297</ele>
        <time>2016-05-06T15:16:32Z</time>
      </trkpt>
      <trkpt lat="44.29681" lon="5.73249">
        <ele>916.79998779297</ele>
        <time>2016-05-06T15:16:35Z</time>
      </trkpt>
      <trkpt lat="44.29673" lon="5.73244">
        <ele>917.59997558594</ele>
        <time>2016-05-06T15:16:42Z</time>
      </trkpt>
      <trkpt lat="44.29669" lon="5.73242">
        <ele>918</ele>
        <time>2016-05-06T15:16:45Z</time>
      </trkpt>
      <trkpt lat="44.29667" lon="5.73241">
        <ele>918</ele>
        <time>2016-05-06T15:16:47Z</time>
      </trkpt>
      <trkpt lat="44.29666" lon="5.73239">
        <ele>918.40002441406</ele>
        <time>2016-05-06T15:16:48Z</time>
      </trkpt>
      <trkpt lat="44.29663" lon="5.73238">
        <ele>919</ele>
        <time>2016-05-06T15:16:50Z</time>
      </trkpt>
      <trkpt lat="44.29657" lon="5.7323">
        <ele>919</ele>
        <time>2016-05-06T15:16:57Z</time>
      </trkpt>
      <trkpt lat="44.29653" lon="5.73223">
        <ele>919.40002441406</ele>
        <time>2016-05-06T15:17:02Z</time>
      </trkpt>
      <trkpt lat="44.29651" lon="5.7322">
        <ele>919.40002441406</ele>
        <time>2016-05-06T15:17:04Z</time>
      </trkpt>
      <trkpt lat="44.2965" lon="5.73219">
        <ele>920.20001220703</ele>
        <time>2016-05-06T15:17:05Z</time>
      </trkpt>
      <trkpt lat="44.29647" lon="5.73215">
        <ele>920.79998779297</ele>
        <time>2016-05-06T15:17:08Z</time>
      </trkpt>
      <trkpt lat="44.29645" lon="5.73213">
        <ele>921.20001220703</ele>
        <time>2016-05-06T15:17:10Z</time>
      </trkpt>
      <trkpt lat="44.29641" lon="5.73205">
        <ele>921.59997558594</ele>
        <time>2016-05-06T15:17:15Z</time>
      </trkpt>
      <trkpt lat="44.2964" lon="5.73202">
        <ele>921.59997558594</ele>
        <time>2016-05-06T15:17:17Z</time>
      </trkpt>
      <trkpt lat="44.29639" lon="5.732">
        <ele>922</ele>
        <time>2016-05-06T15:17:18Z</time>
      </trkpt>
      <trkpt lat="44.29638" lon="5.73197">
        <ele>922.59997558594</ele>
        <time>2016-05-06T15:17:20Z</time>
      </trkpt>
      <trkpt lat="44.29636" lon="5.73194">
        <ele>923</ele>
        <time>2016-05-06T15:17:22Z</time>
      </trkpt>
      <trkpt lat="44.29633" lon="5.7319">
        <ele>923.40002441406</ele>
        <time>2016-05-06T15:17:25Z</time>
      </trkpt>
      <trkpt lat="44.29632" lon="5.73187">
        <ele>923.40002441406</ele>
        <time>2016-05-06T15:17:27Z</time>
      </trkpt>
      <trkpt lat="44.29628" lon="5.73181">
        <ele>924</ele>
        <time>2016-05-06T15:17:31Z</time>
      </trkpt>
      <trkpt lat="44.29628" lon="5.73178">
        <ele>924.40002441406</ele>
        <time>2016-05-06T15:17:33Z</time>
      </trkpt>
      <trkpt lat="44.29628" lon="5.73176">
        <ele>925.40002441406</ele>
        <time>2016-05-06T15:17:35Z</time>
      </trkpt>
      <trkpt lat="44.29627" lon="5.73172">
        <ele>925.40002441406</ele>
        <time>2016-05-06T15:17:37Z</time>
      </trkpt>
      <trkpt lat="44.29627" lon="5.73169">
        <ele>925.79998779297</ele>
        <time>2016-05-06T15:17:38Z</time>
      </trkpt>
      <trkpt lat="44.29627" lon="5.73161">
        <ele>925.79998779297</ele>
        <time>2016-05-06T15:17:42Z</time>
      </trkpt>
      <trkpt lat="44.29626" lon="5.73157">
        <ele>925.79998779297</ele>
        <time>2016-05-06T15:17:44Z</time>
      </trkpt>
      <trkpt lat="44.29625" lon="5.73153">
        <ele>925.79998779297</ele>
        <time>2016-05-06T15:17:46Z</time>
      </trkpt>
      <trkpt lat="44.29624" lon="5.73148">
        <ele>926.20001220703</ele>
        <time>2016-05-06T15:17:49Z</time>
      </trkpt>
      <trkpt lat="44.29623" lon="5.73145">
        <ele>926.59997558594</ele>
        <time>2016-05-06T15:17:51Z</time>
      </trkpt>
      <trkpt lat="44.29622" lon="5.73144">
        <ele>926.59997558594</ele>
        <time>2016-05-06T15:17:52Z</time>
      </trkpt>
      <trkpt lat="44.29622" lon="5.73142">
        <ele>927.20001220703</ele>
        <time>2016-05-06T15:17:53Z</time>
      </trkpt>
      <trkpt lat="44.29621" lon="5.73137">
        <ele>927.59997558594</ele>
        <time>2016-05-06T15:17:56Z</time>
      </trkpt>
      <trkpt lat="44.29621" lon="5.73134">
        <ele>928</ele>
        <time>2016-05-06T15:17:58Z</time>
      </trkpt>
      <trkpt lat="44.29621" lon="5.73131">
        <ele>928</ele>
        <time>2016-05-06T15:18:00Z</time>
      </trkpt>
      <trkpt lat="44.29623" lon="5.73119">
        <ele>928.40002441406</ele>
        <time>2016-05-06T15:18:06Z</time>
      </trkpt>
      <trkpt lat="44.29623" lon="5.73115">
        <ele>928.79998779297</ele>
        <time>2016-05-06T15:18:08Z</time>
      </trkpt>
      <trkpt lat="44.29622" lon="5.7311">
        <ele>929.20001220703</ele>
        <time>2016-05-06T15:18:10Z</time>
      </trkpt>
      <trkpt lat="44.2962" lon="5.73104">
        <ele>929.59997558594</ele>
        <time>2016-05-06T15:18:13Z</time>
      </trkpt>
      <trkpt lat="44.29618" lon="5.73101">
        <ele>930</ele>
        <time>2016-05-06T15:18:15Z</time>
      </trkpt>
      <trkpt lat="44.29617" lon="5.73096">
        <ele>930</ele>
        <time>2016-05-06T15:18:17Z</time>
      </trkpt>
      <trkpt lat="44.29617" lon="5.73095">
        <ele>930.40002441406</ele>
        <time>2016-05-06T15:18:18Z</time>
      </trkpt>
      <trkpt lat="44.29616" lon="5.7309">
        <ele>930.79998779297</ele>
        <time>2016-05-06T15:18:20Z</time>
      </trkpt>
      <trkpt lat="44.29615" lon="5.73086">
        <ele>931.59997558594</ele>
        <time>2016-05-06T15:18:22Z</time>
      </trkpt>
      <trkpt lat="44.29613" lon="5.73081">
        <ele>932</ele>
        <time>2016-05-06T15:18:25Z</time>
      </trkpt>
      <trkpt lat="44.29613" lon="5.73079">
        <ele>932</ele>
        <time>2016-05-06T15:18:26Z</time>
      </trkpt>
      <trkpt lat="44.29609" lon="5.73067">
        <ele>932</ele>
        <time>2016-05-06T15:18:33Z</time>
      </trkpt>
      <trkpt lat="44.29608" lon="5.73064">
        <ele>933</ele>
        <time>2016-05-06T15:18:35Z</time>
      </trkpt>
      <trkpt lat="44.29607" lon="5.73059">
        <ele>933.40002441406</ele>
        <time>2016-05-06T15:18:38Z</time>
      </trkpt>
      <trkpt lat="44.29604" lon="5.73054">
        <ele>933.79998779297</ele>
        <time>2016-05-06T15:18:40Z</time>
      </trkpt>
      <trkpt lat="44.29604" lon="5.7305">
        <ele>934.40002441406</ele>
        <time>2016-05-06T15:18:42Z</time>
      </trkpt>
      <trkpt lat="44.29604" lon="5.73049">
        <ele>934.40002441406</ele>
        <time>2016-05-06T15:18:43Z</time>
      </trkpt>
      <trkpt lat="44.29602" lon="5.73043">
        <ele>935.40002441406</ele>
        <time>2016-05-06T15:18:46Z</time>
      </trkpt>
      <trkpt lat="44.29602" lon="5.73041">
        <ele>936</ele>
        <time>2016-05-06T15:18:47Z</time>
      </trkpt>
      <trkpt lat="44.29601" lon="5.73036">
        <ele>936.59997558594</ele>
        <time>2016-05-06T15:18:50Z</time>
      </trkpt>
      <trkpt lat="44.29596" lon="5.7302">
        <ele>936.59997558594</ele>
        <time>2016-05-06T15:19:00Z</time>
      </trkpt>
      <trkpt lat="44.29586" lon="5.73024">
        <ele>936.59997558594</ele>
        <time>2016-05-06T15:19:07Z</time>
      </trkpt>
      <trkpt lat="44.29586" lon="5.73025">
        <ele>937</ele>
        <time>2016-05-06T15:19:08Z</time>
      </trkpt>
      <trkpt lat="44.29585" lon="5.73031">
        <ele>937.40002441406</ele>
        <time>2016-05-06T15:19:11Z</time>
      </trkpt>
      <trkpt lat="44.29587" lon="5.73035">
        <ele>938</ele>
        <time>2016-05-06T15:19:13Z</time>
      </trkpt>
      <trkpt lat="44.29589" lon="5.73038">
        <ele>938.40002441406</ele>
        <time>2016-05-06T15:19:15Z</time>
      </trkpt>
      <trkpt lat="44.29591" lon="5.7304">
        <ele>938.40002441406</ele>
        <time>2016-05-06T15:19:16Z</time>
      </trkpt>
      <trkpt lat="44.29592" lon="5.73044">
        <ele>938.79998779297</ele>
        <time>2016-05-06T15:19:18Z</time>
      </trkpt>
      <trkpt lat="44.29592" lon="5.7305">
        <ele>938.79998779297</ele>
        <time>2016-05-06T15:19:21Z</time>
      </trkpt>
      <trkpt lat="44.29591" lon="5.73067">
        <ele>938.79998779297</ele>
        <time>2016-05-06T15:19:31Z</time>
      </trkpt>
      <trkpt lat="44.2959" lon="5.73069">
        <ele>939.20001220703</ele>
        <time>2016-05-06T15:19:32Z</time>
      </trkpt>
      <trkpt lat="44.29589" lon="5.73072">
        <ele>939.59997558594</ele>
        <time>2016-05-06T15:19:34Z</time>
      </trkpt>
      <trkpt lat="44.29586" lon="5.73076">
        <ele>940.40002441406</ele>
        <time>2016-05-06T15:19:37Z</time>
      </trkpt>
      <trkpt lat="44.29584" lon="5.7308">
        <ele>940.79998779297</ele>
        <time>2016-05-06T15:19:40Z</time>
      </trkpt>
      <trkpt lat="44.2958" lon="5.73086">
        <ele>941.40002441406</ele>
        <time>2016-05-06T15:19:43Z</time>
      </trkpt>
      <trkpt lat="44.29578" lon="5.73091">
        <ele>941.79998779297</ele>
        <time>2016-05-06T15:19:46Z</time>
      </trkpt>
      <trkpt lat="44.29577" lon="5.73094">
        <ele>942.59997558594</ele>
        <time>2016-05-06T15:19:48Z</time>
      </trkpt>
      <trkpt lat="44.29576" lon="5.73098">
        <ele>942.59997558594</ele>
        <time>2016-05-06T15:19:50Z</time>
      </trkpt>
      <trkpt lat="44.29576" lon="5.731">
        <ele>943</ele>
        <time>2016-05-06T15:19:51Z</time>
      </trkpt>
      <trkpt lat="44.29576" lon="5.7311">
        <ele>943</ele>
        <time>2016-05-06T15:19:56Z</time>
      </trkpt>
      <trkpt lat="44.29574" lon="5.73129">
        <ele>943</ele>
        <time>2016-05-06T15:20:06Z</time>
      </trkpt>
      <trkpt lat="44.29572" lon="5.7314">
        <ele>943.40002441406</ele>
        <time>2016-05-06T15:20:12Z</time>
      </trkpt>
      <trkpt lat="44.29573" lon="5.73141">
        <ele>943.40002441406</ele>
        <time>2016-05-06T15:20:13Z</time>
      </trkpt>
      <trkpt lat="44.29573" lon="5.73143">
        <ele>944</ele>
        <time>2016-05-06T15:20:14Z</time>
      </trkpt>
      <trkpt lat="44.29572" lon="5.7315">
        <ele>944.40002441406</ele>
        <time>2016-05-06T15:20:17Z</time>
      </trkpt>
      <trkpt lat="44.29572" lon="5.73154">
        <ele>944.79998779297</ele>
        <time>2016-05-06T15:20:19Z</time>
      </trkpt>
      <trkpt lat="44.29572" lon="5.7316">
        <ele>945.79998779297</ele>
        <time>2016-05-06T15:20:22Z</time>
      </trkpt>
      <trkpt lat="44.29572" lon="5.73162">
        <ele>945.79998779297</ele>
        <time>2016-05-06T15:20:23Z</time>
      </trkpt>
      <trkpt lat="44.29571" lon="5.73165">
        <ele>946.40002441406</ele>
        <time>2016-05-06T15:20:25Z</time>
      </trkpt>
      <trkpt lat="44.29569" lon="5.7317">
        <ele>946.79998779297</ele>
        <time>2016-05-06T15:20:28Z</time>
      </trkpt>
      <trkpt lat="44.29565" lon="5.73176">
        <ele>947.40002441406</ele>
        <time>2016-05-06T15:20:31Z</time>
      </trkpt>
      <trkpt lat="44.29564" lon="5.73177">
        <ele>947.40002441406</ele>
        <time>2016-05-06T15:20:32Z</time>
      </trkpt>
      <trkpt lat="44.29563" lon="5.73179">
        <ele>947.79998779297</ele>
        <time>2016-05-06T15:20:33Z</time>
      </trkpt>
      <trkpt lat="44.29555" lon="5.73192">
        <ele>947.79998779297</ele>
        <time>2016-05-06T15:20:42Z</time>
      </trkpt>
      <trkpt lat="44.29553" lon="5.73196">
        <ele>948.20001220703</ele>
        <time>2016-05-06T15:20:44Z</time>
      </trkpt>
      <trkpt lat="44.29551" lon="5.73199">
        <ele>948.59997558594</ele>
        <time>2016-05-06T15:20:46Z</time>
      </trkpt>
      <trkpt lat="44.2955" lon="5.73202">
        <ele>949</ele>
        <time>2016-05-06T15:20:48Z</time>
      </trkpt>
      <trkpt lat="44.2955" lon="5.73204">
        <ele>949</ele>
        <time>2016-05-06T15:20:49Z</time>
      </trkpt>
      <trkpt lat="44.29549" lon="5.73207">
        <ele>949.40002441406</ele>
        <time>2016-05-06T15:20:51Z</time>
      </trkpt>
      <trkpt lat="44.29549" lon="5.73209">
        <ele>949.79998779297</ele>
        <time>2016-05-06T15:20:53Z</time>
      </trkpt>
      <trkpt lat="44.2955" lon="5.73218">
        <ele>950.20001220703</ele>
        <time>2016-05-06T15:20:58Z</time>
      </trkpt>
      <trkpt lat="44.29551" lon="5.73227">
        <ele>951</ele>
        <time>2016-05-06T15:21:01Z</time>
      </trkpt>
      <trkpt lat="44.29553" lon="5.73231">
        <ele>951</ele>
        <time>2016-05-06T15:21:03Z</time>
      </trkpt>
      <trkpt lat="44.29555" lon="5.73236">
        <ele>951</ele>
        <time>2016-05-06T15:21:06Z</time>
      </trkpt>
      <trkpt lat="44.29556" lon="5.73242">
        <ele>951.59997558594</ele>
        <time>2016-05-06T15:21:09Z</time>
      </trkpt>
      <trkpt lat="44.29555" lon="5.73246">
        <ele>952</ele>
        <time>2016-05-06T15:21:11Z</time>
      </trkpt>
      <trkpt lat="44.29556" lon="5.73252">
        <ele>952</ele>
        <time>2016-05-06T15:21:14Z</time>
      </trkpt>
      <trkpt lat="44.29554" lon="5.73266">
        <ele>952.40002441406</ele>
        <time>2016-05-06T15:21:21Z</time>
      </trkpt>
      <trkpt lat="44.29551" lon="5.73272">
        <ele>952.40002441406</ele>
        <time>2016-05-06T15:21:24Z</time>
      </trkpt>
      <trkpt lat="44.2955" lon="5.73276">
        <ele>953.40002441406</ele>
        <time>2016-05-06T15:21:27Z</time>
      </trkpt>
      <trkpt lat="44.29548" lon="5.73281">
        <ele>953.79998779297</ele>
        <time>2016-05-06T15:21:30Z</time>
      </trkpt>
      <trkpt lat="44.29546" lon="5.73283">
        <ele>953.79998779297</ele>
        <time>2016-05-06T15:21:31Z</time>
      </trkpt>
      <trkpt lat="44.29546" lon="5.73285">
        <ele>954.20001220703</ele>
        <time>2016-05-06T15:21:32Z</time>
      </trkpt>
      <trkpt lat="44.29547" lon="5.73297">
        <ele>954.59997558594</ele>
        <time>2016-05-06T15:21:39Z</time>
      </trkpt>
      <trkpt lat="44.29548" lon="5.73301">
        <ele>955.20001220703</ele>
        <time>2016-05-06T15:21:41Z</time>
      </trkpt>
      <trkpt lat="44.29549" lon="5.73307">
        <ele>955.59997558594</ele>
        <time>2016-05-06T15:21:44Z</time>
      </trkpt>
      <trkpt lat="44.29551" lon="5.73309">
        <ele>955.59997558594</ele>
        <time>2016-05-06T15:21:45Z</time>
      </trkpt>
      <trkpt lat="44.29552" lon="5.7331">
        <ele>956</ele>
        <time>2016-05-06T15:21:46Z</time>
      </trkpt>
      <trkpt lat="44.29553" lon="5.73314">
        <ele>956</ele>
        <time>2016-05-06T15:21:48Z</time>
      </trkpt>
      <trkpt lat="44.29555" lon="5.73319">
        <ele>956.40002441406</ele>
        <time>2016-05-06T15:21:51Z</time>
      </trkpt>
      <trkpt lat="44.29561" lon="5.73327">
        <ele>957</ele>
        <time>2016-05-06T15:21:56Z</time>
      </trkpt>
      <trkpt lat="44.29563" lon="5.73331">
        <ele>957.40002441406</ele>
        <time>2016-05-06T15:21:58Z</time>
      </trkpt>
      <trkpt lat="44.29565" lon="5.73335">
        <ele>958</ele>
        <time>2016-05-06T15:22:00Z</time>
      </trkpt>
      <trkpt lat="44.29567" lon="5.73341">
        <ele>958.59997558594</ele>
        <time>2016-05-06T15:22:03Z</time>
      </trkpt>
      <trkpt lat="44.29569" lon="5.73345">
        <ele>958.59997558594</ele>
        <time>2016-05-06T15:22:05Z</time>
      </trkpt>
      <trkpt lat="44.2957" lon="5.73347">
        <ele>959.20001220703</ele>
        <time>2016-05-06T15:22:06Z</time>
      </trkpt>
      <trkpt lat="44.29573" lon="5.73353">
        <ele>959.59997558594</ele>
        <time>2016-05-06T15:22:09Z</time>
      </trkpt>
      <trkpt lat="44.29574" lon="5.73356">
        <ele>960.59997558594</ele>
        <time>2016-05-06T15:22:11Z</time>
      </trkpt>
      <trkpt lat="44.29575" lon="5.7336">
        <ele>961</ele>
        <time>2016-05-06T15:22:13Z</time>
      </trkpt>
      <trkpt lat="44.29576" lon="5.73369">
        <ele>961.40002441406</ele>
        <time>2016-05-06T15:22:16Z</time>
      </trkpt>
      <trkpt lat="44.29577" lon="5.73374">
        <ele>961.40002441406</ele>
        <time>2016-05-06T15:22:18Z</time>
      </trkpt>
      <trkpt lat="44.2958" lon="5.7338">
        <ele>961.40002441406</ele>
        <time>2016-05-06T15:22:22Z</time>
      </trkpt>
      <trkpt lat="44.29581" lon="5.73386">
        <ele>962.40002441406</ele>
        <time>2016-05-06T15:22:26Z</time>
      </trkpt>
      <trkpt lat="44.29583" lon="5.7339">
        <ele>963.40002441406</ele>
        <time>2016-05-06T15:22:29Z</time>
      </trkpt>
      <trkpt lat="44.29585" lon="5.73393">
        <ele>964</ele>
        <time>2016-05-06T15:22:31Z</time>
      </trkpt>
      <trkpt lat="44.29587" lon="5.73397">
        <ele>964</ele>
        <time>2016-05-06T15:22:33Z</time>
      </trkpt>
      <trkpt lat="44.29594" lon="5.73405">
        <ele>964</ele>
        <time>2016-05-06T15:22:39Z</time>
      </trkpt>
      <trkpt lat="44.29596" lon="5.73408">
        <ele>964.40002441406</ele>
        <time>2016-05-06T15:22:41Z</time>
      </trkpt>
      <trkpt lat="44.29599" lon="5.73409">
        <ele>964.79998779297</ele>
        <time>2016-05-06T15:22:44Z</time>
      </trkpt>
      <trkpt lat="44.29602" lon="5.7341">
        <ele>964.79998779297</ele>
        <time>2016-05-06T15:22:46Z</time>
      </trkpt>
      <trkpt lat="44.29604" lon="5.73411">
        <ele>965.20001220703</ele>
        <time>2016-05-06T15:22:47Z</time>
      </trkpt>
      <trkpt lat="44.29609" lon="5.73411">
        <ele>965.59997558594</ele>
        <time>2016-05-06T15:22:49Z</time>
      </trkpt>
      <trkpt lat="44.29614" lon="5.73414">
        <ele>966</ele>
        <time>2016-05-06T15:22:51Z</time>
      </trkpt>
      <trkpt lat="44.2962" lon="5.73416">
        <ele>966</ele>
        <time>2016-05-06T15:22:54Z</time>
      </trkpt>
      <trkpt lat="44.2963" lon="5.73417">
        <ele>966</ele>
        <time>2016-05-06T15:23:00Z</time>
      </trkpt>
      <trkpt lat="44.29631" lon="5.73416">
        <ele>966.40002441406</ele>
        <time>2016-05-06T15:23:01Z</time>
      </trkpt>
      <trkpt lat="44.29634" lon="5.73414">
        <ele>966.79998779297</ele>
        <time>2016-05-06T15:23:03Z</time>
      </trkpt>
      <trkpt lat="44.29639" lon="5.73412">
        <ele>967.20001220703</ele>
        <time>2016-05-06T15:23:06Z</time>
      </trkpt>
      <trkpt lat="44.29641" lon="5.73411">
        <ele>967.59997558594</ele>
        <time>2016-05-06T15:23:08Z</time>
      </trkpt>
      <trkpt lat="44.29642" lon="5.73411">
        <ele>967.59997558594</ele>
        <time>2016-05-06T15:23:09Z</time>
      </trkpt>
      <trkpt lat="44.29646" lon="5.73411">
        <ele>968</ele>
        <time>2016-05-06T15:23:11Z</time>
      </trkpt>
      <trkpt lat="44.29651" lon="5.73412">
        <ele>968.59997558594</ele>
        <time>2016-05-06T15:23:15Z</time>
      </trkpt>
      <trkpt lat="44.29652" lon="5.73413">
        <ele>968.59997558594</ele>
        <time>2016-05-06T15:23:16Z</time>
      </trkpt>
      <trkpt lat="44.29656" lon="5.73415">
        <ele>969</ele>
        <time>2016-05-06T15:23:18Z</time>
      </trkpt>
      <trkpt lat="44.2966" lon="5.73417">
        <ele>969.40002441406</ele>
        <time>2016-05-06T15:23:20Z</time>
      </trkpt>
      <trkpt lat="44.2967" lon="5.73424">
        <ele>970</ele>
        <time>2016-05-06T15:23:25Z</time>
      </trkpt>
      <trkpt lat="44.29673" lon="5.73428">
        <ele>970.40002441406</ele>
        <time>2016-05-06T15:23:27Z</time>
      </trkpt>
      <trkpt lat="44.29679" lon="5.73444">
        <ele>971.20001220703</ele>
        <time>2016-05-06T15:23:35Z</time>
      </trkpt>
      <trkpt lat="44.29679" lon="5.73446">
        <ele>971.20001220703</ele>
        <time>2016-05-06T15:23:36Z</time>
      </trkpt>
      <trkpt lat="44.29679" lon="5.73451">
        <ele>971.59997558594</ele>
        <time>2016-05-06T15:23:38Z</time>
      </trkpt>
      <trkpt lat="44.29678" lon="5.73456">
        <ele>971.59997558594</ele>
        <time>2016-05-06T15:23:40Z</time>
      </trkpt>
      <trkpt lat="44.29676" lon="5.73458">
        <ele>972</ele>
        <time>2016-05-06T15:23:41Z</time>
      </trkpt>
      <trkpt lat="44.29675" lon="5.7346">
        <ele>972</ele>
        <time>2016-05-06T15:23:42Z</time>
      </trkpt>
      <trkpt lat="44.29673" lon="5.73466">
        <ele>972.40002441406</ele>
        <time>2016-05-06T15:23:45Z</time>
      </trkpt>
      <trkpt lat="44.2967" lon="5.7348">
        <ele>972.40002441406</ele>
        <time>2016-05-06T15:23:51Z</time>
      </trkpt>
      <trkpt lat="44.29671" lon="5.73488">
        <ele>973.40002441406</ele>
        <time>2016-05-06T15:23:55Z</time>
      </trkpt>
      <trkpt lat="44.29672" lon="5.73494">
        <ele>973.79998779297</ele>
        <time>2016-05-06T15:23:58Z</time>
      </trkpt>
      <trkpt lat="44.29673" lon="5.73498">
        <ele>974.79998779297</ele>
        <time>2016-05-06T15:24:00Z</time>
      </trkpt>
      <trkpt lat="44.29674" lon="5.73518">
        <ele>975.40002441406</ele>
        <time>2016-05-06T15:24:10Z</time>
      </trkpt>
      <trkpt lat="44.29674" lon="5.73521">
        <ele>975.79998779297</ele>
        <time>2016-05-06T15:24:12Z</time>
      </trkpt>
      <trkpt lat="44.29674" lon="5.73525">
        <ele>976.20001220703</ele>
        <time>2016-05-06T15:24:14Z</time>
      </trkpt>
      <trkpt lat="44.29675" lon="5.73532">
        <ele>976.59997558594</ele>
        <time>2016-05-06T15:24:17Z</time>
      </trkpt>
      <trkpt lat="44.29676" lon="5.73537">
        <ele>977.20001220703</ele>
        <time>2016-05-06T15:24:19Z</time>
      </trkpt>
      <trkpt lat="44.29676" lon="5.73539">
        <ele>977.20001220703</ele>
        <time>2016-05-06T15:24:20Z</time>
      </trkpt>
      <trkpt lat="44.29674" lon="5.73561">
        <ele>977.20001220703</ele>
        <time>2016-05-06T15:24:30Z</time>
      </trkpt>
      <trkpt lat="44.29673" lon="5.73565">
        <ele>977.59997558594</ele>
        <time>2016-05-06T15:24:32Z</time>
      </trkpt>
      <trkpt lat="44.29674" lon="5.7357">
        <ele>978.40002441406</ele>
        <time>2016-05-06T15:24:34Z</time>
      </trkpt>
      <trkpt lat="44.29675" lon="5.73574">
        <ele>979</ele>
        <time>2016-05-06T15:24:36Z</time>
      </trkpt>
      <trkpt lat="44.29675" lon="5.7358">
        <ele>979.40002441406</ele>
        <time>2016-05-06T15:24:39Z</time>
      </trkpt>
      <trkpt lat="44.29675" lon="5.73584">
        <ele>979.79998779297</ele>
        <time>2016-05-06T15:24:41Z</time>
      </trkpt>
      <trkpt lat="44.29676" lon="5.73585">
        <ele>980.40002441406</ele>
        <time>2016-05-06T15:24:42Z</time>
      </trkpt>
      <trkpt lat="44.29676" lon="5.73592">
        <ele>980.79998779297</ele>
        <time>2016-05-06T15:24:45Z</time>
      </trkpt>
      <trkpt lat="44.29677" lon="5.73595">
        <ele>981.79998779297</ele>
        <time>2016-05-06T15:24:47Z</time>
      </trkpt>
      <trkpt lat="44.29678" lon="5.73599">
        <ele>981.79998779297</ele>
        <time>2016-05-06T15:24:49Z</time>
      </trkpt>
      <trkpt lat="44.29676" lon="5.73618">
        <ele>981.79998779297</ele>
        <time>2016-05-06T15:24:58Z</time>
      </trkpt>
      <trkpt lat="44.29676" lon="5.73622">
        <ele>982.20001220703</ele>
        <time>2016-05-06T15:25:00Z</time>
      </trkpt>
      <trkpt lat="44.29676" lon="5.73626">
        <ele>982.59997558594</ele>
        <time>2016-05-06T15:25:02Z</time>
      </trkpt>
      <trkpt lat="44.29674" lon="5.73636">
        <ele>983</ele>
        <time>2016-05-06T15:25:07Z</time>
      </trkpt>
      <trkpt lat="44.29673" lon="5.7364">
        <ele>983.40002441406</ele>
        <time>2016-05-06T15:25:09Z</time>
      </trkpt>
      <trkpt lat="44.29673" lon="5.73647">
        <ele>983.79998779297</ele>
        <time>2016-05-06T15:25:12Z</time>
      </trkpt>
      <trkpt lat="44.29676" lon="5.73659">
        <ele>983.79998779297</ele>
        <time>2016-05-06T15:25:17Z</time>
      </trkpt>
      <trkpt lat="44.29676" lon="5.73663">
        <ele>984.59997558594</ele>
        <time>2016-05-06T15:25:19Z</time>
      </trkpt>
      <trkpt lat="44.29675" lon="5.73667">
        <ele>985</ele>
        <time>2016-05-06T15:25:21Z</time>
      </trkpt>
      <trkpt lat="44.29671" lon="5.73669">
        <ele>985.40002441406</ele>
        <time>2016-05-06T15:25:24Z</time>
      </trkpt>
      <trkpt lat="44.29669" lon="5.73667">
        <ele>985.40002441406</ele>
        <time>2016-05-06T15:25:25Z</time>
      </trkpt>
      <trkpt lat="44.29666" lon="5.73662">
        <ele>985.79998779297</ele>
        <time>2016-05-06T15:25:28Z</time>
      </trkpt>
      <trkpt lat="44.29665" lon="5.73651">
        <ele>986.20001220703</ele>
        <time>2016-05-06T15:25:33Z</time>
      </trkpt>
      <trkpt lat="44.29666" lon="5.73649">
        <ele>986.20001220703</ele>
        <time>2016-05-06T15:25:34Z</time>
      </trkpt>
      <trkpt lat="44.29666" lon="5.73647">
        <ele>986.79998779297</ele>
        <time>2016-05-06T15:25:35Z</time>
      </trkpt>
      <trkpt lat="44.29667" lon="5.73641">
        <ele>987.20001220703</ele>
        <time>2016-05-06T15:25:38Z</time>
      </trkpt>
      <trkpt lat="44.29667" lon="5.73637">
        <ele>988.20001220703</ele>
        <time>2016-05-06T15:25:40Z</time>
      </trkpt>
      <trkpt lat="44.29667" lon="5.7363">
        <ele>988.20001220703</ele>
        <time>2016-05-06T15:25:45Z</time>
      </trkpt>
      <trkpt lat="44.29667" lon="5.73627">
        <ele>989.20001220703</ele>
        <time>2016-05-06T15:25:47Z</time>
      </trkpt>
      <trkpt lat="44.29667" lon="5.73623">
        <ele>990.20001220703</ele>
        <time>2016-05-06T15:25:50Z</time>
      </trkpt>
      <trkpt lat="44.29665" lon="5.73619">
        <ele>990.20001220703</ele>
        <time>2016-05-06T15:25:52Z</time>
      </trkpt>
      <trkpt lat="44.29665" lon="5.73617">
        <ele>990.59997558594</ele>
        <time>2016-05-06T15:25:53Z</time>
      </trkpt>
      <trkpt lat="44.29664" lon="5.73603">
        <ele>990.59997558594</ele>
        <time>2016-05-06T15:26:02Z</time>
      </trkpt>
      <trkpt lat="44.29665" lon="5.73593">
        <ele>991</ele>
        <time>2016-05-06T15:26:08Z</time>
      </trkpt>
      <trkpt lat="44.29665" lon="5.73588">
        <ele>992</ele>
        <time>2016-05-06T15:26:11Z</time>
      </trkpt>
      <trkpt lat="44.29663" lon="5.73582">
        <ele>992.40002441406</ele>
        <time>2016-05-06T15:26:14Z</time>
      </trkpt>
      <trkpt lat="44.29657" lon="5.73573">
        <ele>992.79998779297</ele>
        <time>2016-05-06T15:26:20Z</time>
      </trkpt>
      <trkpt lat="44.2965" lon="5.73566">
        <ele>994</ele>
        <time>2016-05-06T15:26:23Z</time>
      </trkpt>
      <trkpt lat="44.29644" lon="5.73557">
        <ele>995</ele>
        <time>2016-05-06T15:26:27Z</time>
      </trkpt>
      <trkpt lat="44.29639" lon="5.73551">
        <ele>995</ele>
        <time>2016-05-06T15:26:31Z</time>
      </trkpt>
      <trkpt lat="44.29638" lon="5.73547">
        <ele>995.40002441406</ele>
        <time>2016-05-06T15:26:34Z</time>
      </trkpt>
      <trkpt lat="44.29635" lon="5.73544">
        <ele>996.40002441406</ele>
        <time>2016-05-06T15:26:37Z</time>
      </trkpt>
      <trkpt lat="44.29634" lon="5.73543">
        <ele>996.40002441406</ele>
        <time>2016-05-06T15:26:38Z</time>
      </trkpt>
      <trkpt lat="44.29632" lon="5.7354">
        <ele>996.79998779297</ele>
        <time>2016-05-06T15:26:41Z</time>
      </trkpt>
      <trkpt lat="44.29629" lon="5.73533">
        <ele>996.79998779297</ele>
        <time>2016-05-06T15:26:45Z</time>
      </trkpt>
      <trkpt lat="44.29628" lon="5.73527">
        <ele>997.20001220703</ele>
        <time>2016-05-06T15:26:48Z</time>
      </trkpt>
      <trkpt lat="44.29626" lon="5.73516">
        <ele>997.20001220703</ele>
        <time>2016-05-06T15:26:53Z</time>
      </trkpt>
      <trkpt lat="44.29621" lon="5.73502">
        <ele>998.20001220703</ele>
        <time>2016-05-06T15:26:58Z</time>
      </trkpt>
      <trkpt lat="44.29619" lon="5.73495">
        <ele>998.59997558594</ele>
        <time>2016-05-06T15:27:01Z</time>
      </trkpt>
      <trkpt lat="44.29615" lon="5.73492">
        <ele>999</ele>
        <time>2016-05-06T15:27:03Z</time>
      </trkpt>
      <trkpt lat="44.2961" lon="5.73491">
        <ele>999.59997558594</ele>
        <time>2016-05-06T15:27:06Z</time>
      </trkpt>
      <trkpt lat="44.29604" lon="5.73493">
        <ele>999.59997558594</ele>
        <time>2016-05-06T15:27:09Z</time>
      </trkpt>
      <trkpt lat="44.29599" lon="5.73497">
        <ele>1000</ele>
        <time>2016-05-06T15:27:15Z</time>
      </trkpt>
      <trkpt lat="44.29598" lon="5.73497">
        <ele>1000</ele>
        <time>2016-05-06T15:27:16Z</time>
      </trkpt>
      <trkpt lat="44.29597" lon="5.73497">
        <ele>1000.4000244141</ele>
        <time>2016-05-06T15:27:17Z</time>
      </trkpt>
      <trkpt lat="44.29592" lon="5.735">
        <ele>1001</ele>
        <time>2016-05-06T15:27:20Z</time>
      </trkpt>
      <trkpt lat="44.29589" lon="5.735">
        <ele>1001.4000244141</ele>
        <time>2016-05-06T15:27:22Z</time>
      </trkpt>
      <trkpt lat="44.29586" lon="5.73501">
        <ele>1001.799987793</ele>
        <time>2016-05-06T15:27:24Z</time>
      </trkpt>
      <trkpt lat="44.29571" lon="5.73503">
        <ele>1001.799987793</ele>
        <time>2016-05-06T15:27:30Z</time>
      </trkpt>
      <trkpt lat="44.29569" lon="5.73502">
        <ele>1002.4000244141</ele>
        <time>2016-05-06T15:27:31Z</time>
      </trkpt>
      <trkpt lat="44.29564" lon="5.73502">
        <ele>1003</ele>
        <time>2016-05-06T15:27:34Z</time>
      </trkpt>
      <trkpt lat="44.2956" lon="5.73502">
        <ele>1003.4000244141</ele>
        <time>2016-05-06T15:27:36Z</time>
      </trkpt>
      <trkpt lat="44.29559" lon="5.73502">
        <ele>1003.4000244141</ele>
        <time>2016-05-06T15:27:37Z</time>
      </trkpt>
      <trkpt lat="44.29554" lon="5.73504">
        <ele>1004</ele>
        <time>2016-05-06T15:27:39Z</time>
      </trkpt>
      <trkpt lat="44.2955" lon="5.73505">
        <ele>1004.5999755859</ele>
        <time>2016-05-06T15:27:41Z</time>
      </trkpt>
      <trkpt lat="44.29548" lon="5.73505">
        <ele>1004.5999755859</ele>
        <time>2016-05-06T15:27:43Z</time>
      </trkpt>
      <trkpt lat="44.29534" lon="5.73514">
        <ele>1005</ele>
        <time>2016-05-06T15:27:53Z</time>
      </trkpt>
      <trkpt lat="44.29532" lon="5.73515">
        <ele>1005.799987793</ele>
        <time>2016-05-06T15:27:55Z</time>
      </trkpt>
      <trkpt lat="44.29528" lon="5.73516">
        <ele>1006.200012207</ele>
        <time>2016-05-06T15:27:59Z</time>
      </trkpt>
      <trkpt lat="44.29525" lon="5.73517">
        <ele>1006.5999755859</ele>
        <time>2016-05-06T15:28:01Z</time>
      </trkpt>
      <trkpt lat="44.29523" lon="5.73517">
        <ele>1007</ele>
        <time>2016-05-06T15:28:03Z</time>
      </trkpt>
      <trkpt lat="44.29523" lon="5.73516">
        <ele>1007.5999755859</ele>
        <time>2016-05-06T15:28:04Z</time>
      </trkpt>
      <trkpt lat="44.29522" lon="5.73516">
        <ele>1008</ele>
        <time>2016-05-06T15:28:06Z</time>
      </trkpt>
      <trkpt lat="44.29522" lon="5.73516">
        <ele>1008.4000244141</ele>
        <time>2016-05-06T15:28:08Z</time>
      </trkpt>
      <trkpt lat="44.2952" lon="5.73516">
        <ele>1009</ele>
        <time>2016-05-06T15:28:10Z</time>
      </trkpt>
      <trkpt lat="44.29514" lon="5.73514">
        <ele>1009</ele>
        <time>2016-05-06T15:28:16Z</time>
      </trkpt>
      <trkpt lat="44.29509" lon="5.73502">
        <ele>1009</ele>
        <time>2016-05-06T15:28:24Z</time>
      </trkpt>
      <trkpt lat="44.29508" lon="5.73501">
        <ele>1009</ele>
        <time>2016-05-06T15:28:26Z</time>
      </trkpt>
      <trkpt lat="44.29507" lon="5.73497">
        <ele>1009.4000244141</ele>
        <time>2016-05-06T15:28:28Z</time>
      </trkpt>
      <trkpt lat="44.29507" lon="5.73494">
        <ele>1009.799987793</ele>
        <time>2016-05-06T15:28:30Z</time>
      </trkpt>
      <trkpt lat="44.29506" lon="5.73489">
        <ele>1010.200012207</ele>
        <time>2016-05-06T15:28:33Z</time>
      </trkpt>
      <trkpt lat="44.29507" lon="5.73485">
        <ele>1010.5999755859</ele>
        <time>2016-05-06T15:28:35Z</time>
      </trkpt>
      <trkpt lat="44.29508" lon="5.73481">
        <ele>1011</ele>
        <time>2016-05-06T15:28:37Z</time>
      </trkpt>
      <trkpt lat="44.29509" lon="5.73473">
        <ele>1011</ele>
        <time>2016-05-06T15:28:41Z</time>
      </trkpt>
      <trkpt lat="44.2951" lon="5.73464">
        <ele>1011.4000244141</ele>
        <time>2016-05-06T15:28:47Z</time>
      </trkpt>
      <trkpt lat="44.2951" lon="5.73463">
        <ele>1011.4000244141</ele>
        <time>2016-05-06T15:28:48Z</time>
      </trkpt>
      <trkpt lat="44.2951" lon="5.73461">
        <ele>1011.799987793</ele>
        <time>2016-05-06T15:28:49Z</time>
      </trkpt>
      <trkpt lat="44.29509" lon="5.73459">
        <ele>1012.200012207</ele>
        <time>2016-05-06T15:28:50Z</time>
      </trkpt>
      <trkpt lat="44.29507" lon="5.73456">
        <ele>1012.799987793</ele>
        <time>2016-05-06T15:28:52Z</time>
      </trkpt>
      <trkpt lat="44.29506" lon="5.73453">
        <ele>1013.200012207</ele>
        <time>2016-05-06T15:28:54Z</time>
      </trkpt>
      <trkpt lat="44.29502" lon="5.73447">
        <ele>1013.200012207</ele>
        <time>2016-05-06T15:28:57Z</time>
      </trkpt>
      <trkpt lat="44.29498" lon="5.7344">
        <ele>1013.5999755859</ele>
        <time>2016-05-06T15:29:02Z</time>
      </trkpt>
      <trkpt lat="44.29494" lon="5.73433">
        <ele>1013.5999755859</ele>
        <time>2016-05-06T15:29:05Z</time>
      </trkpt>
      <trkpt lat="44.29493" lon="5.73429">
        <ele>1014.4000244141</ele>
        <time>2016-05-06T15:29:08Z</time>
      </trkpt>
      <trkpt lat="44.29491" lon="5.73422">
        <ele>1014.799987793</ele>
        <time>2016-05-06T15:29:11Z</time>
      </trkpt>
      <trkpt lat="44.2949" lon="5.7342">
        <ele>1015.200012207</ele>
        <time>2016-05-06T15:29:12Z</time>
      </trkpt>
      <trkpt lat="44.29489" lon="5.73418">
        <ele>1015.200012207</ele>
        <time>2016-05-06T15:29:13Z</time>
      </trkpt>
      <trkpt lat="44.29485" lon="5.73415">
        <ele>1016</ele>
        <time>2016-05-06T15:29:15Z</time>
      </trkpt>
      <trkpt lat="44.29479" lon="5.73408">
        <ele>1016.5999755859</ele>
        <time>2016-05-06T15:29:18Z</time>
      </trkpt>
      <trkpt lat="44.29478" lon="5.73407">
        <ele>1017</ele>
        <time>2016-05-06T15:29:19Z</time>
      </trkpt>
      <trkpt lat="44.29477" lon="5.73403">
        <ele>1017.4000244141</ele>
        <time>2016-05-06T15:29:21Z</time>
      </trkpt>
      <trkpt lat="44.29477" lon="5.73402">
        <ele>1017.4000244141</ele>
        <time>2016-05-06T15:29:22Z</time>
      </trkpt>
      <trkpt lat="44.29475" lon="5.73394">
        <ele>1017.799987793</ele>
        <time>2016-05-06T15:29:26Z</time>
      </trkpt>
      <trkpt lat="44.29475" lon="5.7339">
        <ele>1018.4000244141</ele>
        <time>2016-05-06T15:29:29Z</time>
      </trkpt>
      <trkpt lat="44.29473" lon="5.73386">
        <ele>1019.200012207</ele>
        <time>2016-05-06T15:29:32Z</time>
      </trkpt>
      <trkpt lat="44.29468" lon="5.73379">
        <ele>1019.5999755859</ele>
        <time>2016-05-06T15:29:35Z</time>
      </trkpt>
      <trkpt lat="44.29461" lon="5.73367">
        <ele>1019.5999755859</ele>
        <time>2016-05-06T15:29:43Z</time>
      </trkpt>
      <trkpt lat="44.29455" lon="5.73355">
        <ele>1020.5999755859</ele>
        <time>2016-05-06T15:29:50Z</time>
      </trkpt>
      <trkpt lat="44.29452" lon="5.7335">
        <ele>1021.4000244141</ele>
        <time>2016-05-06T15:29:53Z</time>
      </trkpt>
      <trkpt lat="44.29451" lon="5.73347">
        <ele>1022</ele>
        <time>2016-05-06T15:29:55Z</time>
      </trkpt>
      <trkpt lat="44.2945" lon="5.73346">
        <ele>1022</ele>
        <time>2016-05-06T15:29:56Z</time>
      </trkpt>
      <trkpt lat="44.29445" lon="5.73337">
        <ele>1022.4000244141</ele>
        <time>2016-05-06T15:30:02Z</time>
      </trkpt>
      <trkpt lat="44.29441" lon="5.73325">
        <ele>1022.799987793</ele>
        <time>2016-05-06T15:30:07Z</time>
      </trkpt>
      <trkpt lat="44.2944" lon="5.73322">
        <ele>1023.200012207</ele>
        <time>2016-05-06T15:30:09Z</time>
      </trkpt>
      <trkpt lat="44.29439" lon="5.7332">
        <ele>1023.200012207</ele>
        <time>2016-05-06T15:30:10Z</time>
      </trkpt>
      <trkpt lat="44.29437" lon="5.73317">
        <ele>1023.5999755859</ele>
        <time>2016-05-06T15:30:12Z</time>
      </trkpt>
      <trkpt lat="44.29436" lon="5.73313">
        <ele>1024</ele>
        <time>2016-05-06T15:30:14Z</time>
      </trkpt>
      <trkpt lat="44.29435" lon="5.73309">
        <ele>1024.4000244141</ele>
        <time>2016-05-06T15:30:16Z</time>
      </trkpt>
      <trkpt lat="44.29432" lon="5.73305">
        <ele>1024.8000488281</ele>
        <time>2016-05-06T15:30:19Z</time>
      </trkpt>
      <trkpt lat="44.29432" lon="5.73303">
        <ele>1024.8000488281</ele>
        <time>2016-05-06T15:30:20Z</time>
      </trkpt>
      <trkpt lat="44.29432" lon="5.73301">
        <ele>1025.4000244141</ele>
        <time>2016-05-06T15:30:21Z</time>
      </trkpt>
      <trkpt lat="44.2943" lon="5.73298">
        <ele>1025.8000488281</ele>
        <time>2016-05-06T15:30:23Z</time>
      </trkpt>
      <trkpt lat="44.2943" lon="5.73294">
        <ele>1026.1999511719</ele>
        <time>2016-05-06T15:30:26Z</time>
      </trkpt>
      <trkpt lat="44.29428" lon="5.73293">
        <ele>1026.1999511719</ele>
        <time>2016-05-06T15:30:28Z</time>
      </trkpt>
      <trkpt lat="44.29424" lon="5.73283">
        <ele>1026.5999755859</ele>
        <time>2016-05-06T15:30:37Z</time>
      </trkpt>
      <trkpt lat="44.29425" lon="5.73279">
        <ele>1027</ele>
        <time>2016-05-06T15:30:40Z</time>
      </trkpt>
      <trkpt lat="44.29426" lon="5.73277">
        <ele>1027.5999755859</ele>
        <time>2016-05-06T15:30:41Z</time>
      </trkpt>
      <trkpt lat="44.29425" lon="5.73273">
        <ele>1028</ele>
        <time>2016-05-06T15:30:43Z</time>
      </trkpt>
      <trkpt lat="44.29422" lon="5.73271">
        <ele>1028</ele>
        <time>2016-05-06T15:30:44Z</time>
      </trkpt>
      <trkpt lat="44.29422" lon="5.73268">
        <ele>1028.4000244141</ele>
        <time>2016-05-06T15:30:46Z</time>
      </trkpt>
      <trkpt lat="44.29424" lon="5.73253">
        <ele>1029</ele>
        <time>2016-05-06T15:30:53Z</time>
      </trkpt>
      <trkpt lat="44.29424" lon="5.7325">
        <ele>1029.4000244141</ele>
        <time>2016-05-06T15:30:55Z</time>
      </trkpt>
      <trkpt lat="44.29424" lon="5.73248">
        <ele>1029.8000488281</ele>
        <time>2016-05-06T15:30:56Z</time>
      </trkpt>
      <trkpt lat="44.29422" lon="5.73245">
        <ele>1030.1999511719</ele>
        <time>2016-05-06T15:30:58Z</time>
      </trkpt>
      <trkpt lat="44.29419" lon="5.73241">
        <ele>1030.5999755859</ele>
        <time>2016-05-06T15:31:01Z</time>
      </trkpt>
      <trkpt lat="44.29418" lon="5.73239">
        <ele>1030.5999755859</ele>
        <time>2016-05-06T15:31:02Z</time>
      </trkpt>
      <trkpt lat="44.29417" lon="5.73237">
        <ele>1030.5999755859</ele>
        <time>2016-05-06T15:31:03Z</time>
      </trkpt>
      <trkpt lat="44.29411" lon="5.73225">
        <ele>1031</ele>
        <time>2016-05-06T15:31:10Z</time>
      </trkpt>
      <trkpt lat="44.2941" lon="5.73223">
        <ele>1031</ele>
        <time>2016-05-06T15:31:11Z</time>
      </trkpt>
      <trkpt lat="44.29409" lon="5.73222">
        <ele>1031.5999755859</ele>
        <time>2016-05-06T15:31:12Z</time>
      </trkpt>
      <trkpt lat="44.29408" lon="5.73221">
        <ele>1032</ele>
        <time>2016-05-06T15:31:13Z</time>
      </trkpt>
      <trkpt lat="44.29406" lon="5.73216">
        <ele>1032.4000244141</ele>
        <time>2016-05-06T15:31:15Z</time>
      </trkpt>
      <trkpt lat="44.29407" lon="5.73211">
        <ele>1033</ele>
        <time>2016-05-06T15:31:17Z</time>
      </trkpt>
      <trkpt lat="44.29406" lon="5.73205">
        <ele>1033</ele>
        <time>2016-05-06T15:31:20Z</time>
      </trkpt>
      <trkpt lat="44.29403" lon="5.73191">
        <ele>1033.4000244141</ele>
        <time>2016-05-06T15:31:28Z</time>
      </trkpt>
      <trkpt lat="44.29403" lon="5.73189">
        <ele>1033.4000244141</ele>
        <time>2016-05-06T15:31:29Z</time>
      </trkpt>
      <trkpt lat="44.29402" lon="5.73188">
        <ele>1034</ele>
        <time>2016-05-06T15:31:30Z</time>
      </trkpt>
      <trkpt lat="44.29402" lon="5.73184">
        <ele>1035</ele>
        <time>2016-05-06T15:31:33Z</time>
      </trkpt>
      <trkpt lat="44.29397" lon="5.73178">
        <ele>1035.4000244141</ele>
        <time>2016-05-06T15:31:36Z</time>
      </trkpt>
      <trkpt lat="44.29383" lon="5.73157">
        <ele>1035.8000488281</ele>
        <time>2016-05-06T15:31:46Z</time>
      </trkpt>
      <trkpt lat="44.29381" lon="5.73153">
        <ele>1036.4000244141</ele>
        <time>2016-05-06T15:31:48Z</time>
      </trkpt>
      <trkpt lat="44.2938" lon="5.73152">
        <ele>1036.8000488281</ele>
        <time>2016-05-06T15:31:49Z</time>
      </trkpt>
      <trkpt lat="44.29379" lon="5.73147">
        <ele>1037.1999511719</ele>
        <time>2016-05-06T15:31:52Z</time>
      </trkpt>
      <trkpt lat="44.29378" lon="5.73145">
        <ele>1037.1999511719</ele>
        <time>2016-05-06T15:31:53Z</time>
      </trkpt>
      <trkpt lat="44.29377" lon="5.73143">
        <ele>1037.8000488281</ele>
        <time>2016-05-06T15:31:54Z</time>
      </trkpt>
      <trkpt lat="44.29376" lon="5.73133">
        <ele>1037.8000488281</ele>
        <time>2016-05-06T15:32:00Z</time>
      </trkpt>
      <trkpt lat="44.29375" lon="5.73127">
        <ele>1037.8000488281</ele>
        <time>2016-05-06T15:32:04Z</time>
      </trkpt>
      <trkpt lat="44.29374" lon="5.73123">
        <ele>1038.1999511719</ele>
        <time>2016-05-06T15:32:07Z</time>
      </trkpt>
      <trkpt lat="44.29374" lon="5.73122">
        <ele>1038.1999511719</ele>
        <time>2016-05-06T15:32:08Z</time>
      </trkpt>
      <trkpt lat="44.29372" lon="5.73118">
        <ele>1038.5999755859</ele>
        <time>2016-05-06T15:32:10Z</time>
      </trkpt>
      <trkpt lat="44.2937" lon="5.73115">
        <ele>1039</ele>
        <time>2016-05-06T15:32:12Z</time>
      </trkpt>
      <trkpt lat="44.29368" lon="5.73113">
        <ele>1039.4000244141</ele>
        <time>2016-05-06T15:32:13Z</time>
      </trkpt>
      <trkpt lat="44.29366" lon="5.73109">
        <ele>1039.4000244141</ele>
        <time>2016-05-06T15:32:15Z</time>
      </trkpt>
      <trkpt lat="44.29366" lon="5.73107">
        <ele>1039.8000488281</ele>
        <time>2016-05-06T15:32:16Z</time>
      </trkpt>
      <trkpt lat="44.29365" lon="5.73101">
        <ele>1040.4000244141</ele>
        <time>2016-05-06T15:32:19Z</time>
      </trkpt>
      <trkpt lat="44.29366" lon="5.73099">
        <ele>1040.8000488281</ele>
        <time>2016-05-06T15:32:20Z</time>
      </trkpt>
      <trkpt lat="44.29366" lon="5.73095">
        <ele>1041.1999511719</ele>
        <time>2016-05-06T15:32:22Z</time>
      </trkpt>
      <trkpt lat="44.29366" lon="5.73094">
        <ele>1041.8000488281</ele>
        <time>2016-05-06T15:32:23Z</time>
      </trkpt>
      <trkpt lat="44.29366" lon="5.73089">
        <ele>1042.1999511719</ele>
        <time>2016-05-06T15:32:26Z</time>
      </trkpt>
      <trkpt lat="44.29368" lon="5.7308">
        <ele>1042.1999511719</ele>
        <time>2016-05-06T15:32:31Z</time>
      </trkpt>
      <trkpt lat="44.29367" lon="5.73077">
        <ele>1043.1999511719</ele>
        <time>2016-05-06T15:32:33Z</time>
      </trkpt>
      <trkpt lat="44.29368" lon="5.73074">
        <ele>1043.5999755859</ele>
        <time>2016-05-06T15:32:35Z</time>
      </trkpt>
      <trkpt lat="44.29367" lon="5.73069">
        <ele>1044.5999755859</ele>
        <time>2016-05-06T15:32:38Z</time>
      </trkpt>
      <trkpt lat="44.29366" lon="5.73066">
        <ele>1044.5999755859</ele>
        <time>2016-05-06T15:32:40Z</time>
      </trkpt>
      <trkpt lat="44.29366" lon="5.73064">
        <ele>1045.1999511719</ele>
        <time>2016-05-06T15:32:41Z</time>
      </trkpt>
      <trkpt lat="44.29367" lon="5.73061">
        <ele>1045.5999755859</ele>
        <time>2016-05-06T15:32:43Z</time>
      </trkpt>
      <trkpt lat="44.29367" lon="5.73057">
        <ele>1046.1999511719</ele>
        <time>2016-05-06T15:32:45Z</time>
      </trkpt>
      <trkpt lat="44.29364" lon="5.7305">
        <ele>1046.5999755859</ele>
        <time>2016-05-06T15:32:48Z</time>
      </trkpt>
      <trkpt lat="44.29363" lon="5.73046">
        <ele>1047</ele>
        <time>2016-05-06T15:32:50Z</time>
      </trkpt>
      <trkpt lat="44.29362" lon="5.73042">
        <ele>1047.4000244141</ele>
        <time>2016-05-06T15:32:52Z</time>
      </trkpt>
      <trkpt lat="44.2936" lon="5.7304">
        <ele>1047.8000488281</ele>
        <time>2016-05-06T15:32:53Z</time>
      </trkpt>
      <trkpt lat="44.29359" lon="5.73039">
        <ele>1047.8000488281</ele>
        <time>2016-05-06T15:32:54Z</time>
      </trkpt>
      <trkpt lat="44.29359" lon="5.73037">
        <ele>1048.1999511719</ele>
        <time>2016-05-06T15:32:55Z</time>
      </trkpt>
      <trkpt lat="44.29358" lon="5.73036">
        <ele>1048.1999511719</ele>
        <time>2016-05-06T15:32:56Z</time>
      </trkpt>
      <trkpt lat="44.29358" lon="5.73034">
        <ele>1048.5999755859</ele>
        <time>2016-05-06T15:32:57Z</time>
      </trkpt>
      <trkpt lat="44.29356" lon="5.73024">
        <ele>1048.5999755859</ele>
        <time>2016-05-06T15:33:03Z</time>
      </trkpt>
      <trkpt lat="44.2935" lon="5.73014">
        <ele>1049</ele>
        <time>2016-05-06T15:33:11Z</time>
      </trkpt>
      <trkpt lat="44.29349" lon="5.73012">
        <ele>1049</ele>
        <time>2016-05-06T15:33:12Z</time>
      </trkpt>
      <trkpt lat="44.29348" lon="5.73011">
        <ele>1049.5999755859</ele>
        <time>2016-05-06T15:33:13Z</time>
      </trkpt>
      <trkpt lat="44.29345" lon="5.73009">
        <ele>1050</ele>
        <time>2016-05-06T15:33:16Z</time>
      </trkpt>
      <trkpt lat="44.29343" lon="5.73008">
        <ele>1050.4000244141</ele>
        <time>2016-05-06T15:33:18Z</time>
      </trkpt>
      <trkpt lat="44.29341" lon="5.73003">
        <ele>1050.8000488281</ele>
        <time>2016-05-06T15:33:20Z</time>
      </trkpt>
      <trkpt lat="44.29337" lon="5.72993">
        <ele>1050.8000488281</ele>
        <time>2016-05-06T15:33:26Z</time>
      </trkpt>
      <trkpt lat="44.29332" lon="5.72987">
        <ele>1051.1999511719</ele>
        <time>2016-05-06T15:33:30Z</time>
      </trkpt>
      <trkpt lat="44.2933" lon="5.72985">
        <ele>1051.5999755859</ele>
        <time>2016-05-06T15:33:32Z</time>
      </trkpt>
      <trkpt lat="44.29329" lon="5.72982">
        <ele>1052</ele>
        <time>2016-05-06T15:33:34Z</time>
      </trkpt>
      <trkpt lat="44.29328" lon="5.72978">
        <ele>1052.4000244141</ele>
        <time>2016-05-06T15:33:36Z</time>
      </trkpt>
      <trkpt lat="44.29328" lon="5.72977">
        <ele>1052.8000488281</ele>
        <time>2016-05-06T15:33:37Z</time>
      </trkpt>
      <trkpt lat="44.29328" lon="5.7297">
        <ele>1052.8000488281</ele>
        <time>2016-05-06T15:33:42Z</time>
      </trkpt>
      <trkpt lat="44.29327" lon="5.72955">
        <ele>1052.8000488281</ele>
        <time>2016-05-06T15:33:49Z</time>
      </trkpt>
      <trkpt lat="44.29318" lon="5.72939">
        <ele>1052.8000488281</ele>
        <time>2016-05-06T15:33:56Z</time>
      </trkpt>
      <trkpt lat="44.29311" lon="5.72927">
        <ele>1052.8000488281</ele>
        <time>2016-05-06T15:34:01Z</time>
      </trkpt>
      <trkpt lat="44.29309" lon="5.72925">
        <ele>1053.1999511719</ele>
        <time>2016-05-06T15:34:02Z</time>
      </trkpt>
      <trkpt lat="44.29307" lon="5.72921">
        <ele>1053.5999755859</ele>
        <time>2016-05-06T15:34:04Z</time>
      </trkpt>
      <trkpt lat="44.29306" lon="5.72914">
        <ele>1054.1999511719</ele>
        <time>2016-05-06T15:34:07Z</time>
      </trkpt>
      <trkpt lat="44.29307" lon="5.7291">
        <ele>1054.5999755859</ele>
        <time>2016-05-06T15:34:09Z</time>
      </trkpt>
      <trkpt lat="44.29308" lon="5.72906">
        <ele>1055</ele>
        <time>2016-05-06T15:34:11Z</time>
      </trkpt>
      <trkpt lat="44.29309" lon="5.72897">
        <ele>1055</ele>
        <time>2016-05-06T15:34:15Z</time>
      </trkpt>
      <trkpt lat="44.29308" lon="5.72895">
        <ele>1055.4000244141</ele>
        <time>2016-05-06T15:34:16Z</time>
      </trkpt>
      <trkpt lat="44.29306" lon="5.72888">
        <ele>1055.8000488281</ele>
        <time>2016-05-06T15:34:18Z</time>
      </trkpt>
      <trkpt lat="44.29305" lon="5.72875">
        <ele>1055.8000488281</ele>
        <time>2016-05-06T15:34:23Z</time>
      </trkpt>
      <trkpt lat="44.29305" lon="5.72872">
        <ele>1056.1999511719</ele>
        <time>2016-05-06T15:34:24Z</time>
      </trkpt>
      <trkpt lat="44.29302" lon="5.72866">
        <ele>1056.5999755859</ele>
        <time>2016-05-06T15:34:26Z</time>
      </trkpt>
      <trkpt lat="44.29298" lon="5.72861">
        <ele>1056.5999755859</ele>
        <time>2016-05-06T15:34:28Z</time>
      </trkpt>
      <trkpt lat="44.29296" lon="5.72858">
        <ele>1057</ele>
        <time>2016-05-06T15:34:29Z</time>
      </trkpt>
      <trkpt lat="44.29293" lon="5.72855">
        <ele>1057</ele>
        <time>2016-05-06T15:34:30Z</time>
      </trkpt>
      <trkpt lat="44.29292" lon="5.72849">
        <ele>1057</ele>
        <time>2016-05-06T15:34:32Z</time>
      </trkpt>
      <trkpt lat="44.29291" lon="5.72837">
        <ele>1057</ele>
        <time>2016-05-06T15:34:35Z</time>
      </trkpt>
      <trkpt lat="44.29294" lon="5.72819">
        <ele>1057</ele>
        <time>2016-05-06T15:34:40Z</time>
      </trkpt>
      <trkpt lat="44.29304" lon="5.72807">
        <ele>1057</ele>
        <time>2016-05-06T15:34:44Z</time>
      </trkpt>
      <trkpt lat="44.29312" lon="5.72794">
        <ele>1057</ele>
        <time>2016-05-06T15:34:49Z</time>
      </trkpt>
      <trkpt lat="44.29314" lon="5.7278">
        <ele>1057</ele>
        <time>2016-05-06T15:34:53Z</time>
      </trkpt>
      <trkpt lat="44.29313" lon="5.72775">
        <ele>1056.5999755859</ele>
        <time>2016-05-06T15:34:54Z</time>
      </trkpt>
      <trkpt lat="44.29309" lon="5.72768">
        <ele>1056.1999511719</ele>
        <time>2016-05-06T15:34:57Z</time>
      </trkpt>
      <trkpt lat="44.29308" lon="5.72764">
        <ele>1055.8000488281</ele>
        <time>2016-05-06T15:34:59Z</time>
      </trkpt>
      <trkpt lat="44.29306" lon="5.72754">
        <ele>1055.4000244141</ele>
        <time>2016-05-06T15:35:02Z</time>
      </trkpt>
      <trkpt lat="44.29306" lon="5.72746">
        <ele>1055</ele>
        <time>2016-05-06T15:35:04Z</time>
      </trkpt>
      <trkpt lat="44.29306" lon="5.72742">
        <ele>1055</ele>
        <time>2016-05-06T15:35:05Z</time>
      </trkpt>
      <trkpt lat="44.29308" lon="5.72737">
        <ele>1054.1999511719</ele>
        <time>2016-05-06T15:35:06Z</time>
      </trkpt>
      <trkpt lat="44.29313" lon="5.72722">
        <ele>1053.5999755859</ele>
        <time>2016-05-06T15:35:09Z</time>
      </trkpt>
      <trkpt lat="44.29314" lon="5.72717">
        <ele>1053.5999755859</ele>
        <time>2016-05-06T15:35:10Z</time>
      </trkpt>
      <trkpt lat="44.29314" lon="5.72711">
        <ele>1052.8000488281</ele>
        <time>2016-05-06T15:35:11Z</time>
      </trkpt>
      <trkpt lat="44.29311" lon="5.727">
        <ele>1051.8000488281</ele>
        <time>2016-05-06T15:35:13Z</time>
      </trkpt>
      <trkpt lat="44.29308" lon="5.72689">
        <ele>1050.8000488281</ele>
        <time>2016-05-06T15:35:15Z</time>
      </trkpt>
      <trkpt lat="44.29308" lon="5.72684">
        <ele>1049.8000488281</ele>
        <time>2016-05-06T15:35:16Z</time>
      </trkpt>
      <trkpt lat="44.29308" lon="5.7268">
        <ele>1049.8000488281</ele>
        <time>2016-05-06T15:35:17Z</time>
      </trkpt>
      <trkpt lat="44.29308" lon="5.72675">
        <ele>1048.8000488281</ele>
        <time>2016-05-06T15:35:18Z</time>
      </trkpt>
      <trkpt lat="44.29295" lon="5.72663">
        <ele>1048.1999511719</ele>
        <time>2016-05-06T15:35:20Z</time>
      </trkpt>
      <trkpt lat="44.29294" lon="5.72649">
        <ele>1047.5999755859</ele>
        <time>2016-05-06T15:35:23Z</time>
      </trkpt>
      <trkpt lat="44.29299" lon="5.7264">
        <ele>1047</ele>
        <time>2016-05-06T15:35:25Z</time>
      </trkpt>
      <trkpt lat="44.29306" lon="5.72631">
        <ele>1046.4000244141</ele>
        <time>2016-05-06T15:35:27Z</time>
      </trkpt>
      <trkpt lat="44.29309" lon="5.72628">
        <ele>1046.4000244141</ele>
        <time>2016-05-06T15:35:28Z</time>
      </trkpt>
      <trkpt lat="44.29313" lon="5.72621">
        <ele>1045.8000488281</ele>
        <time>2016-05-06T15:35:30Z</time>
      </trkpt>
      <trkpt lat="44.29313" lon="5.7261">
        <ele>1045.1999511719</ele>
        <time>2016-05-06T15:35:32Z</time>
      </trkpt>
      <trkpt lat="44.29312" lon="5.72603">
        <ele>1044.5999755859</ele>
        <time>2016-05-06T15:35:33Z</time>
      </trkpt>
      <trkpt lat="44.29305" lon="5.72588">
        <ele>1044</ele>
        <time>2016-05-06T15:35:35Z</time>
      </trkpt>
      <trkpt lat="44.29299" lon="5.72582">
        <ele>1043.4000244141</ele>
        <time>2016-05-06T15:35:36Z</time>
      </trkpt>
      <trkpt lat="44.29293" lon="5.72572">
        <ele>1043.4000244141</ele>
        <time>2016-05-06T15:35:38Z</time>
      </trkpt>
      <trkpt lat="44.29287" lon="5.72567">
        <ele>1043</ele>
        <time>2016-05-06T15:35:39Z</time>
      </trkpt>
      <trkpt lat="44.29278" lon="5.72556">
        <ele>1042.5999755859</ele>
        <time>2016-05-06T15:35:42Z</time>
      </trkpt>
      <trkpt lat="44.29276" lon="5.72551">
        <ele>1042.5999755859</ele>
        <time>2016-05-06T15:35:43Z</time>
      </trkpt>
      <trkpt lat="44.29274" lon="5.72545">
        <ele>1042</ele>
        <time>2016-05-06T15:35:44Z</time>
      </trkpt>
      <trkpt lat="44.29274" lon="5.7253">
        <ele>1041.5999755859</ele>
        <time>2016-05-06T15:35:46Z</time>
      </trkpt>
      <trkpt lat="44.29271" lon="5.72519">
        <ele>1041.5999755859</ele>
        <time>2016-05-06T15:35:48Z</time>
      </trkpt>
      <trkpt lat="44.29269" lon="5.72515">
        <ele>1041.1999511719</ele>
        <time>2016-05-06T15:35:49Z</time>
      </trkpt>
      <trkpt lat="44.29253" lon="5.72501">
        <ele>1040.8000488281</ele>
        <time>2016-05-06T15:35:53Z</time>
      </trkpt>
      <trkpt lat="44.29251" lon="5.72499">
        <ele>1040.8000488281</ele>
        <time>2016-05-06T15:35:54Z</time>
      </trkpt>
      <trkpt lat="44.29241" lon="5.72491">
        <ele>1040.4000244141</ele>
        <time>2016-05-06T15:35:56Z</time>
      </trkpt>
      <trkpt lat="44.29237" lon="5.72484">
        <ele>1039.8000488281</ele>
        <time>2016-05-06T15:35:58Z</time>
      </trkpt>
      <trkpt lat="44.29234" lon="5.72476">
        <ele>1039.4000244141</ele>
        <time>2016-05-06T15:36:00Z</time>
      </trkpt>
      <trkpt lat="44.29234" lon="5.72469">
        <ele>1039.4000244141</ele>
        <time>2016-05-06T15:36:02Z</time>
      </trkpt>
      <trkpt lat="44.29235" lon="5.72465">
        <ele>1039</ele>
        <time>2016-05-06T15:36:03Z</time>
      </trkpt>
      <trkpt lat="44.29233" lon="5.72446">
        <ele>1039</ele>
        <time>2016-05-06T15:36:06Z</time>
      </trkpt>
      <trkpt lat="44.29229" lon="5.72425">
        <ele>1038.5999755859</ele>
        <time>2016-05-06T15:36:10Z</time>
      </trkpt>
      <trkpt lat="44.29227" lon="5.72416">
        <ele>1038</ele>
        <time>2016-05-06T15:36:12Z</time>
      </trkpt>
      <trkpt lat="44.29221" lon="5.72404">
        <ele>1037.5999755859</ele>
        <time>2016-05-06T15:36:14Z</time>
      </trkpt>
      <trkpt lat="44.29219" lon="5.724">
        <ele>1037</ele>
        <time>2016-05-06T15:36:15Z</time>
      </trkpt>
      <trkpt lat="44.29217" lon="5.72393">
        <ele>1036.5999755859</ele>
        <time>2016-05-06T15:36:17Z</time>
      </trkpt>
      <trkpt lat="44.29213" lon="5.72372">
        <ele>1036.5999755859</ele>
        <time>2016-05-06T15:36:22Z</time>
      </trkpt>
      <trkpt lat="44.29212" lon="5.72347">
        <ele>1036.5999755859</ele>
        <time>2016-05-06T15:36:27Z</time>
      </trkpt>
      <trkpt lat="44.29213" lon="5.72342">
        <ele>1036.5999755859</ele>
        <time>2016-05-06T15:36:28Z</time>
      </trkpt>
      <trkpt lat="44.29208" lon="5.72311">
        <ele>1036.5999755859</ele>
        <time>2016-05-06T15:36:35Z</time>
      </trkpt>
      <trkpt lat="44.29202" lon="5.72278">
        <ele>1036.5999755859</ele>
        <time>2016-05-06T15:36:44Z</time>
      </trkpt>
      <trkpt lat="44.29194" lon="5.72257">
        <ele>1036.5999755859</ele>
        <time>2016-05-06T15:36:51Z</time>
      </trkpt>
      <trkpt lat="44.29193" lon="5.72254">
        <ele>1036.5999755859</ele>
        <time>2016-05-06T15:36:52Z</time>
      </trkpt>
      <trkpt lat="44.29171" lon="5.72231">
        <ele>1036.5999755859</ele>
        <time>2016-05-06T15:36:59Z</time>
      </trkpt>
      <trkpt lat="44.29162" lon="5.72213">
        <ele>1036.5999755859</ele>
        <time>2016-05-06T15:37:06Z</time>
      </trkpt>
      <trkpt lat="44.29158" lon="5.72208">
        <ele>1036.5999755859</ele>
        <time>2016-05-06T15:37:08Z</time>
      </trkpt>
      <trkpt lat="44.29153" lon="5.72201">
        <ele>1036.5999755859</ele>
        <time>2016-05-06T15:37:11Z</time>
      </trkpt>
      <trkpt lat="44.29147" lon="5.72189">
        <ele>1036.5999755859</ele>
        <time>2016-05-06T15:37:17Z</time>
      </trkpt>
      <trkpt lat="44.29136" lon="5.72172">
        <ele>1036.5999755859</ele>
        <time>2016-05-06T15:37:23Z</time>
      </trkpt>
      <trkpt lat="44.29134" lon="5.72148">
        <ele>1036.5999755859</ele>
        <time>2016-05-06T15:37:29Z</time>
      </trkpt>
      <trkpt lat="44.29132" lon="5.7213">
        <ele>1036.5999755859</ele>
        <time>2016-05-06T15:37:35Z</time>
      </trkpt>
      <trkpt lat="44.29128" lon="5.72105">
        <ele>1036.5999755859</ele>
        <time>2016-05-06T15:37:43Z</time>
      </trkpt>
      <trkpt lat="44.29111" lon="5.72075">
        <ele>1036.5999755859</ele>
        <time>2016-05-06T15:37:51Z</time>
      </trkpt>
      <trkpt lat="44.29107" lon="5.72072">
        <ele>1037.1999511719</ele>
        <time>2016-05-06T15:37:53Z</time>
      </trkpt>
      <trkpt lat="44.29101" lon="5.72067">
        <ele>1037.5999755859</ele>
        <time>2016-05-06T15:37:56Z</time>
      </trkpt>
      <trkpt lat="44.29099" lon="5.72065">
        <ele>1037.5999755859</ele>
        <time>2016-05-06T15:37:57Z</time>
      </trkpt>
      <trkpt lat="44.29098" lon="5.72064">
        <ele>1038.1999511719</ele>
        <time>2016-05-06T15:37:58Z</time>
      </trkpt>
      <trkpt lat="44.29094" lon="5.72059">
        <ele>1038.5999755859</ele>
        <time>2016-05-06T15:38:00Z</time>
      </trkpt>
      <trkpt lat="44.29092" lon="5.72054">
        <ele>1039.1999511719</ele>
        <time>2016-05-06T15:38:03Z</time>
      </trkpt>
      <trkpt lat="44.29091" lon="5.72052">
        <ele>1039.1999511719</ele>
        <time>2016-05-06T15:38:04Z</time>
      </trkpt>
      <trkpt lat="44.29088" lon="5.72046">
        <ele>1039.1999511719</ele>
        <time>2016-05-06T15:38:09Z</time>
      </trkpt>
      <trkpt lat="44.29087" lon="5.72045">
        <ele>1039.5999755859</ele>
        <time>2016-05-06T15:38:10Z</time>
      </trkpt>
      <trkpt lat="44.29083" lon="5.72042">
        <ele>1040.1999511719</ele>
        <time>2016-05-06T15:38:12Z</time>
      </trkpt>
      <trkpt lat="44.29079" lon="5.72039">
        <ele>1040.5999755859</ele>
        <time>2016-05-06T15:38:14Z</time>
      </trkpt>
      <trkpt lat="44.29073" lon="5.72033">
        <ele>1041.1999511719</ele>
        <time>2016-05-06T15:38:17Z</time>
      </trkpt>
      <trkpt lat="44.2907" lon="5.72029">
        <ele>1041.5999755859</ele>
        <time>2016-05-06T15:38:19Z</time>
      </trkpt>
      <trkpt lat="44.29068" lon="5.72027">
        <ele>1042</ele>
        <time>2016-05-06T15:38:21Z</time>
      </trkpt>
      <trkpt lat="44.29065" lon="5.72027">
        <ele>1042</ele>
        <time>2016-05-06T15:38:23Z</time>
      </trkpt>
      <trkpt lat="44.29063" lon="5.72026">
        <ele>1042.4000244141</ele>
        <time>2016-05-06T15:38:24Z</time>
      </trkpt>
      <trkpt lat="44.29059" lon="5.72023">
        <ele>1042.8000488281</ele>
        <time>2016-05-06T15:38:26Z</time>
      </trkpt>
      <trkpt lat="44.29051" lon="5.7202">
        <ele>1043.1999511719</ele>
        <time>2016-05-06T15:38:28Z</time>
      </trkpt>
      <trkpt lat="44.29045" lon="5.72018">
        <ele>1043.1999511719</ele>
        <time>2016-05-06T15:38:30Z</time>
      </trkpt>
      <trkpt lat="44.29044" lon="5.72017">
        <ele>1043.5999755859</ele>
        <time>2016-05-06T15:38:31Z</time>
      </trkpt>
      <trkpt lat="44.29035" lon="5.72006">
        <ele>1043.5999755859</ele>
        <time>2016-05-06T15:38:36Z</time>
      </trkpt>
      <trkpt lat="44.29026" lon="5.71991">
        <ele>1043.5999755859</ele>
        <time>2016-05-06T15:38:43Z</time>
      </trkpt>
      <trkpt lat="44.29019" lon="5.71974">
        <ele>1043.5999755859</ele>
        <time>2016-05-06T15:38:48Z</time>
      </trkpt>
      <trkpt lat="44.29018" lon="5.71968">
        <ele>1044</ele>
        <time>2016-05-06T15:38:50Z</time>
      </trkpt>
      <trkpt lat="44.29019" lon="5.7196">
        <ele>1044.4000244141</ele>
        <time>2016-05-06T15:38:52Z</time>
      </trkpt>
      <trkpt lat="44.29018" lon="5.71951">
        <ele>1044.8000488281</ele>
        <time>2016-05-06T15:38:54Z</time>
      </trkpt>
      <trkpt lat="44.29016" lon="5.71944">
        <ele>1044.8000488281</ele>
        <time>2016-05-06T15:38:55Z</time>
      </trkpt>
      <trkpt lat="44.29014" lon="5.71931">
        <ele>1045.5999755859</ele>
        <time>2016-05-06T15:38:57Z</time>
      </trkpt>
      <trkpt lat="44.29005" lon="5.71908">
        <ele>1045.5999755859</ele>
        <time>2016-05-06T15:39:02Z</time>
      </trkpt>
      <trkpt lat="44.29" lon="5.71894">
        <ele>1045.5999755859</ele>
        <time>2016-05-06T15:39:08Z</time>
      </trkpt>
      <trkpt lat="44.29" lon="5.71887">
        <ele>1046.1999511719</ele>
        <time>2016-05-06T15:39:11Z</time>
      </trkpt>
      <trkpt lat="44.29002" lon="5.71882">
        <ele>1046.5999755859</ele>
        <time>2016-05-06T15:39:13Z</time>
      </trkpt>
      <trkpt lat="44.29004" lon="5.71874">
        <ele>1046.5999755859</ele>
        <time>2016-05-06T15:39:15Z</time>
      </trkpt>
      <trkpt lat="44.29005" lon="5.71868">
        <ele>1047.4000244141</ele>
        <time>2016-05-06T15:39:16Z</time>
      </trkpt>
      <trkpt lat="44.29005" lon="5.71855">
        <ele>1047.8000488281</ele>
        <time>2016-05-06T15:39:18Z</time>
      </trkpt>
      <trkpt lat="44.29003" lon="5.71848">
        <ele>1047.8000488281</ele>
        <time>2016-05-06T15:39:19Z</time>
      </trkpt>
      <trkpt lat="44.29" lon="5.71838">
        <ele>1047.4000244141</ele>
        <time>2016-05-06T15:39:21Z</time>
      </trkpt>
      <trkpt lat="44.28997" lon="5.71829">
        <ele>1046.8000488281</ele>
        <time>2016-05-06T15:39:23Z</time>
      </trkpt>
      <trkpt lat="44.29001" lon="5.71818">
        <ele>1046.4000244141</ele>
        <time>2016-05-06T15:39:25Z</time>
      </trkpt>
      <trkpt lat="44.29004" lon="5.71806">
        <ele>1046.4000244141</ele>
        <time>2016-05-06T15:39:27Z</time>
      </trkpt>
      <trkpt lat="44.29001" lon="5.71799">
        <ele>1045.8000488281</ele>
        <time>2016-05-06T15:39:28Z</time>
      </trkpt>
      <trkpt lat="44.28999" lon="5.71787">
        <ele>1045.4000244141</ele>
        <time>2016-05-06T15:39:30Z</time>
      </trkpt>
      <trkpt lat="44.28991" lon="5.71772">
        <ele>1045.4000244141</ele>
        <time>2016-05-06T15:39:33Z</time>
      </trkpt>
      <trkpt lat="44.28978" lon="5.71753">
        <ele>1045.4000244141</ele>
        <time>2016-05-06T15:39:39Z</time>
      </trkpt>
      <trkpt lat="44.28969" lon="5.71738">
        <ele>1046</ele>
        <time>2016-05-06T15:39:44Z</time>
      </trkpt>
      <trkpt lat="44.28965" lon="5.71732">
        <ele>1046.4000244141</ele>
        <time>2016-05-06T15:39:46Z</time>
      </trkpt>
      <trkpt lat="44.28965" lon="5.71729">
        <ele>1046.4000244141</ele>
        <time>2016-05-06T15:39:47Z</time>
      </trkpt>
      <trkpt lat="44.28961" lon="5.71722">
        <ele>1047</ele>
        <time>2016-05-06T15:39:49Z</time>
      </trkpt>
      <trkpt lat="44.28955" lon="5.71711">
        <ele>1048</ele>
        <time>2016-05-06T15:39:52Z</time>
      </trkpt>
      <trkpt lat="44.28954" lon="5.71707">
        <ele>1048</ele>
        <time>2016-05-06T15:39:54Z</time>
      </trkpt>
      <trkpt lat="44.28949" lon="5.71695">
        <ele>1048.5999755859</ele>
        <time>2016-05-06T15:39:59Z</time>
      </trkpt>
      <trkpt lat="44.28948" lon="5.71691">
        <ele>1048.5999755859</ele>
        <time>2016-05-06T15:40:01Z</time>
      </trkpt>
      <trkpt lat="44.28948" lon="5.71689">
        <ele>1049.1999511719</ele>
        <time>2016-05-06T15:40:02Z</time>
      </trkpt>
      <trkpt lat="44.28947" lon="5.71685">
        <ele>1049.1999511719</ele>
        <time>2016-05-06T15:40:04Z</time>
      </trkpt>
      <trkpt lat="44.28947" lon="5.71683">
        <ele>1049.5999755859</ele>
        <time>2016-05-06T15:40:05Z</time>
      </trkpt>
      <trkpt lat="44.28947" lon="5.7168">
        <ele>1050.1999511719</ele>
        <time>2016-05-06T15:40:07Z</time>
      </trkpt>
      <trkpt lat="44.28946" lon="5.71675">
        <ele>1050.8000488281</ele>
        <time>2016-05-06T15:40:10Z</time>
      </trkpt>
      <trkpt lat="44.28942" lon="5.71674">
        <ele>1050.8000488281</ele>
        <time>2016-05-06T15:40:11Z</time>
      </trkpt>
      <trkpt lat="44.28942" lon="5.71671">
        <ele>1051.1999511719</ele>
        <time>2016-05-06T15:40:13Z</time>
      </trkpt>
      <trkpt lat="44.28937" lon="5.71667">
        <ele>1051.5999755859</ele>
        <time>2016-05-06T15:40:15Z</time>
      </trkpt>
      <trkpt lat="44.28935" lon="5.71662">
        <ele>1052.4000244141</ele>
        <time>2016-05-06T15:40:18Z</time>
      </trkpt>
      <trkpt lat="44.28937" lon="5.7166">
        <ele>1052.8000488281</ele>
        <time>2016-05-06T15:40:20Z</time>
      </trkpt>
      <trkpt lat="44.28932" lon="5.7165">
        <ele>1052.8000488281</ele>
        <time>2016-05-06T15:40:24Z</time>
      </trkpt>
      <trkpt lat="44.28919" lon="5.71636">
        <ele>1052.8000488281</ele>
        <time>2016-05-06T15:40:31Z</time>
      </trkpt>
      <trkpt lat="44.28913" lon="5.71622">
        <ele>1053.4000244141</ele>
        <time>2016-05-06T15:40:39Z</time>
      </trkpt>
      <trkpt lat="44.28914" lon="5.71621">
        <ele>1053.4000244141</ele>
        <time>2016-05-06T15:40:40Z</time>
      </trkpt>
      <trkpt lat="44.28915" lon="5.7162">
        <ele>1053.8000488281</ele>
        <time>2016-05-06T15:40:41Z</time>
      </trkpt>
      <trkpt lat="44.28913" lon="5.71614">
        <ele>1054.5999755859</ele>
        <time>2016-05-06T15:40:44Z</time>
      </trkpt>
      <trkpt lat="44.28912" lon="5.71613">
        <ele>1054.5999755859</ele>
        <time>2016-05-06T15:40:45Z</time>
      </trkpt>
      <trkpt lat="44.28912" lon="5.71612">
        <ele>1055</ele>
        <time>2016-05-06T15:40:46Z</time>
      </trkpt>
      <trkpt lat="44.28916" lon="5.71605">
        <ele>1055</ele>
        <time>2016-05-06T15:40:50Z</time>
      </trkpt>
      <trkpt lat="44.28916" lon="5.71604">
        <ele>1055.4000244141</ele>
        <time>2016-05-06T15:40:51Z</time>
      </trkpt>
      <trkpt lat="44.28916" lon="5.71603">
        <ele>1055.4000244141</ele>
        <time>2016-05-06T15:40:52Z</time>
      </trkpt>
      <trkpt lat="44.28907" lon="5.71599">
        <ele>1055.8000488281</ele>
        <time>2016-05-06T15:40:53Z</time>
      </trkpt>
      <trkpt lat="44.28902" lon="5.71595">
        <ele>1056.4000244141</ele>
        <time>2016-05-06T15:40:55Z</time>
      </trkpt>
      <trkpt lat="44.28897" lon="5.71589">
        <ele>1057.1999511719</ele>
        <time>2016-05-06T15:40:58Z</time>
      </trkpt>
      <trkpt lat="44.28896" lon="5.71584">
        <ele>1057.1999511719</ele>
        <time>2016-05-06T15:41:00Z</time>
      </trkpt>
      <trkpt lat="44.28896" lon="5.7158">
        <ele>1057.5999755859</ele>
        <time>2016-05-06T15:41:02Z</time>
      </trkpt>
      <trkpt lat="44.28898" lon="5.71573">
        <ele>1058.4000244141</ele>
        <time>2016-05-06T15:41:05Z</time>
      </trkpt>
      <trkpt lat="44.28896" lon="5.71569">
        <ele>1058.8000488281</ele>
        <time>2016-05-06T15:41:07Z</time>
      </trkpt>
      <trkpt lat="44.28896" lon="5.71567">
        <ele>1058.8000488281</ele>
        <time>2016-05-06T15:41:08Z</time>
      </trkpt>
      <trkpt lat="44.28896" lon="5.71565">
        <ele>1059.1999511719</ele>
        <time>2016-05-06T15:41:09Z</time>
      </trkpt>
      <trkpt lat="44.28894" lon="5.71557">
        <ele>1059.1999511719</ele>
        <time>2016-05-06T15:41:14Z</time>
      </trkpt>
      <trkpt lat="44.28891" lon="5.71545">
        <ele>1059.5999755859</ele>
        <time>2016-05-06T15:41:21Z</time>
      </trkpt>
      <trkpt lat="44.28887" lon="5.71542">
        <ele>1060</ele>
        <time>2016-05-06T15:41:23Z</time>
      </trkpt>
      <trkpt lat="44.28884" lon="5.71538">
        <ele>1060.8000488281</ele>
        <time>2016-05-06T15:41:26Z</time>
      </trkpt>
      <trkpt lat="44.28882" lon="5.71535">
        <ele>1061.1999511719</ele>
        <time>2016-05-06T15:41:28Z</time>
      </trkpt>
      <trkpt lat="44.28881" lon="5.71525">
        <ele>1061.1999511719</ele>
        <time>2016-05-06T15:41:34Z</time>
      </trkpt>
      <trkpt lat="44.2888" lon="5.71524">
        <ele>1061.5999755859</ele>
        <time>2016-05-06T15:41:35Z</time>
      </trkpt>
      <trkpt lat="44.2888" lon="5.71522">
        <ele>1061.5999755859</ele>
        <time>2016-05-06T15:41:36Z</time>
      </trkpt>
      <trkpt lat="44.2888" lon="5.7152">
        <ele>1062</ele>
        <time>2016-05-06T15:41:37Z</time>
      </trkpt>
      <trkpt lat="44.28874" lon="5.71513">
        <ele>1062.5999755859</ele>
        <time>2016-05-06T15:41:40Z</time>
      </trkpt>
      <trkpt lat="44.28873" lon="5.71511">
        <ele>1062.5999755859</ele>
        <time>2016-05-06T15:41:41Z</time>
      </trkpt>
      <trkpt lat="44.28873" lon="5.71509">
        <ele>1063</ele>
        <time>2016-05-06T15:41:42Z</time>
      </trkpt>
      <trkpt lat="44.28873" lon="5.71507">
        <ele>1063.4000244141</ele>
        <time>2016-05-06T15:41:44Z</time>
      </trkpt>
      <trkpt lat="44.28874" lon="5.71503">
        <ele>1063.4000244141</ele>
        <time>2016-05-06T15:41:46Z</time>
      </trkpt>
      <trkpt lat="44.2887" lon="5.71484">
        <ele>1063.8000488281</ele>
        <time>2016-05-06T15:41:54Z</time>
      </trkpt>
      <trkpt lat="44.2887" lon="5.71481">
        <ele>1063.8000488281</ele>
        <time>2016-05-06T15:41:55Z</time>
      </trkpt>
      <trkpt lat="44.2887" lon="5.71479">
        <ele>1064.1999511719</ele>
        <time>2016-05-06T15:41:56Z</time>
      </trkpt>
      <trkpt lat="44.28871" lon="5.71476">
        <ele>1064.5999755859</ele>
        <time>2016-05-06T15:41:58Z</time>
      </trkpt>
      <trkpt lat="44.28871" lon="5.7147">
        <ele>1065</ele>
        <time>2016-05-06T15:42:01Z</time>
      </trkpt>
      <trkpt lat="44.28871" lon="5.71468">
        <ele>1065</ele>
        <time>2016-05-06T15:42:02Z</time>
      </trkpt>
      <trkpt lat="44.2887" lon="5.71466">
        <ele>1065.5999755859</ele>
        <time>2016-05-06T15:42:03Z</time>
      </trkpt>
      <trkpt lat="44.28867" lon="5.71461">
        <ele>1066.1999511719</ele>
        <time>2016-05-06T15:42:05Z</time>
      </trkpt>
      <trkpt lat="44.28866" lon="5.71455">
        <ele>1066.1999511719</ele>
        <time>2016-05-06T15:42:07Z</time>
      </trkpt>
      <trkpt lat="44.28866" lon="5.71453">
        <ele>1066.5999755859</ele>
        <time>2016-05-06T15:42:08Z</time>
      </trkpt>
      <trkpt lat="44.28862" lon="5.71447">
        <ele>1067.1999511719</ele>
        <time>2016-05-06T15:42:10Z</time>
      </trkpt>
      <trkpt lat="44.2886" lon="5.71441">
        <ele>1067.8000488281</ele>
        <time>2016-05-06T15:42:12Z</time>
      </trkpt>
      <trkpt lat="44.28856" lon="5.71433">
        <ele>1067.8000488281</ele>
        <time>2016-05-06T15:42:16Z</time>
      </trkpt>
      <trkpt lat="44.28849" lon="5.71425">
        <ele>1067.8000488281</ele>
        <time>2016-05-06T15:42:21Z</time>
      </trkpt>
      <trkpt lat="44.28849" lon="5.71423">
        <ele>1068.1999511719</ele>
        <time>2016-05-06T15:42:22Z</time>
      </trkpt>
      <trkpt lat="44.28848" lon="5.71419">
        <ele>1068.1999511719</ele>
        <time>2016-05-06T15:42:24Z</time>
      </trkpt>
      <trkpt lat="44.28849" lon="5.71418">
        <ele>1068.8000488281</ele>
        <time>2016-05-06T15:42:25Z</time>
      </trkpt>
      <trkpt lat="44.2885" lon="5.71415">
        <ele>1069.1999511719</ele>
        <time>2016-05-06T15:42:27Z</time>
      </trkpt>
      <trkpt lat="44.2885" lon="5.71414">
        <ele>1069.1999511719</ele>
        <time>2016-05-06T15:42:28Z</time>
      </trkpt>
      <trkpt lat="44.2885" lon="5.7141">
        <ele>1069.8000488281</ele>
        <time>2016-05-06T15:42:30Z</time>
      </trkpt>
      <trkpt lat="44.28852" lon="5.71403">
        <ele>1070.8000488281</ele>
        <time>2016-05-06T15:42:33Z</time>
      </trkpt>
      <trkpt lat="44.28853" lon="5.71399">
        <ele>1070.8000488281</ele>
        <time>2016-05-06T15:42:35Z</time>
      </trkpt>
      <trkpt lat="44.28854" lon="5.71397">
        <ele>1071.8000488281</ele>
        <time>2016-05-06T15:42:36Z</time>
      </trkpt>
      <trkpt lat="44.28856" lon="5.71391">
        <ele>1072.4000244141</ele>
        <time>2016-05-06T15:42:38Z</time>
      </trkpt>
      <trkpt lat="44.28856" lon="5.7138">
        <ele>1072.4000244141</ele>
        <time>2016-05-06T15:42:42Z</time>
      </trkpt>
      <trkpt lat="44.28858" lon="5.71366">
        <ele>1072.4000244141</ele>
        <time>2016-05-06T15:42:49Z</time>
      </trkpt>
      <trkpt lat="44.28854" lon="5.71351">
        <ele>1072.8000488281</ele>
        <time>2016-05-06T15:42:55Z</time>
      </trkpt>
      <trkpt lat="44.28854" lon="5.71349">
        <ele>1072.8000488281</ele>
        <time>2016-05-06T15:42:56Z</time>
      </trkpt>
      <trkpt lat="44.28852" lon="5.71348">
        <ele>1073.8000488281</ele>
        <time>2016-05-06T15:42:57Z</time>
      </trkpt>
      <trkpt lat="44.28852" lon="5.71342">
        <ele>1074.8000488281</ele>
        <time>2016-05-06T15:42:59Z</time>
      </trkpt>
      <trkpt lat="44.28854" lon="5.71338">
        <ele>1075.1999511719</ele>
        <time>2016-05-06T15:43:01Z</time>
      </trkpt>
      <trkpt lat="44.28854" lon="5.71335">
        <ele>1075.1999511719</ele>
        <time>2016-05-06T15:43:03Z</time>
      </trkpt>
      <trkpt lat="44.28854" lon="5.71334">
        <ele>1076</ele>
        <time>2016-05-06T15:43:04Z</time>
      </trkpt>
      <trkpt lat="44.28853" lon="5.71333">
        <ele>1076.5999755859</ele>
        <time>2016-05-06T15:43:06Z</time>
      </trkpt>
      <trkpt lat="44.28853" lon="5.71333">
        <ele>1077</ele>
        <time>2016-05-06T15:43:08Z</time>
      </trkpt>
      <trkpt lat="44.28853" lon="5.71333">
        <ele>1077</ele>
        <time>2016-05-06T15:43:09Z</time>
      </trkpt>
      <trkpt lat="44.2885" lon="5.71319">
        <ele>1077</ele>
        <time>2016-05-06T15:43:29Z</time>
      </trkpt>
      <trkpt lat="44.28849" lon="5.71298">
        <ele>1077</ele>
        <time>2016-05-06T15:43:36Z</time>
      </trkpt>
      <trkpt lat="44.28841" lon="5.7128">
        <ele>1077</ele>
        <time>2016-05-06T15:43:41Z</time>
      </trkpt>
      <trkpt lat="44.28835" lon="5.71257">
        <ele>1077</ele>
        <time>2016-05-06T15:43:46Z</time>
      </trkpt>
      <trkpt lat="44.28837" lon="5.71244">
        <ele>1077</ele>
        <time>2016-05-06T15:43:50Z</time>
      </trkpt>
      <trkpt lat="44.28847" lon="5.71215">
        <ele>1077</ele>
        <time>2016-05-06T15:43:56Z</time>
      </trkpt>
      <trkpt lat="44.2885" lon="5.71202">
        <ele>1076.5999755859</ele>
        <time>2016-05-06T15:43:58Z</time>
      </trkpt>
      <trkpt lat="44.28852" lon="5.71196">
        <ele>1076.1999511719</ele>
        <time>2016-05-06T15:43:59Z</time>
      </trkpt>
      <trkpt lat="44.28856" lon="5.71183">
        <ele>1075.1999511719</ele>
        <time>2016-05-06T15:44:01Z</time>
      </trkpt>
      <trkpt lat="44.28859" lon="5.71169">
        <ele>1074.8000488281</ele>
        <time>2016-05-06T15:44:03Z</time>
      </trkpt>
      <trkpt lat="44.28862" lon="5.71154">
        <ele>1074.8000488281</ele>
        <time>2016-05-06T15:44:07Z</time>
      </trkpt>
      <trkpt lat="44.2886" lon="5.71149">
        <ele>1074.8000488281</ele>
        <time>2016-05-06T15:44:08Z</time>
      </trkpt>
      <trkpt lat="44.28856" lon="5.71139">
        <ele>1074.8000488281</ele>
        <time>2016-05-06T15:44:10Z</time>
      </trkpt>
      <trkpt lat="44.28851" lon="5.71132">
        <ele>1074.8000488281</ele>
        <time>2016-05-06T15:44:15Z</time>
      </trkpt>
      <trkpt lat="44.28851" lon="5.71113">
        <ele>1074.8000488281</ele>
        <time>2016-05-06T15:44:22Z</time>
      </trkpt>
      <trkpt lat="44.28854" lon="5.71093">
        <ele>1074.4000244141</ele>
        <time>2016-05-06T15:44:27Z</time>
      </trkpt>
      <trkpt lat="44.28855" lon="5.71089">
        <ele>1074.4000244141</ele>
        <time>2016-05-06T15:44:28Z</time>
      </trkpt>
      <trkpt lat="44.28856" lon="5.71086">
        <ele>1073.8000488281</ele>
        <time>2016-05-06T15:44:29Z</time>
      </trkpt>
      <trkpt lat="44.28857" lon="5.71074">
        <ele>1072.8000488281</ele>
        <time>2016-05-06T15:44:32Z</time>
      </trkpt>
      <trkpt lat="44.28859" lon="5.71067">
        <ele>1072.4000244141</ele>
        <time>2016-05-06T15:44:34Z</time>
      </trkpt>
      <trkpt lat="44.2886" lon="5.71041">
        <ele>1072.4000244141</ele>
        <time>2016-05-06T15:44:40Z</time>
      </trkpt>
      <trkpt lat="44.28855" lon="5.71029">
        <ele>1072.4000244141</ele>
        <time>2016-05-06T15:44:44Z</time>
      </trkpt>
      <trkpt lat="44.28843" lon="5.71009">
        <ele>1072.4000244141</ele>
        <time>2016-05-06T15:44:51Z</time>
      </trkpt>
      <trkpt lat="44.28838" lon="5.71003">
        <ele>1072.4000244141</ele>
        <time>2016-05-06T15:44:56Z</time>
      </trkpt>
      <trkpt lat="44.28833" lon="5.70985">
        <ele>1072.4000244141</ele>
        <time>2016-05-06T15:45:02Z</time>
      </trkpt>
      <trkpt lat="44.28823" lon="5.70956">
        <ele>1072.4000244141</ele>
        <time>2016-05-06T15:45:10Z</time>
      </trkpt>
      <trkpt lat="44.28824" lon="5.70939">
        <ele>1072.8000488281</ele>
        <time>2016-05-06T15:45:17Z</time>
      </trkpt>
      <trkpt lat="44.28823" lon="5.70937">
        <ele>1073.1999511719</ele>
        <time>2016-05-06T15:45:18Z</time>
      </trkpt>
      <trkpt lat="44.28823" lon="5.70919">
        <ele>1073.1999511719</ele>
        <time>2016-05-06T15:45:23Z</time>
      </trkpt>
      <trkpt lat="44.28825" lon="5.70895">
        <ele>1073.1999511719</ele>
        <time>2016-05-06T15:45:29Z</time>
      </trkpt>
      <trkpt lat="44.28824" lon="5.70872">
        <ele>1073.1999511719</ele>
        <time>2016-05-06T15:45:35Z</time>
      </trkpt>
      <trkpt lat="44.2882" lon="5.70865">
        <ele>1073.1999511719</ele>
        <time>2016-05-06T15:45:37Z</time>
      </trkpt>
      <trkpt lat="44.28814" lon="5.70859">
        <ele>1073.1999511719</ele>
        <time>2016-05-06T15:45:39Z</time>
      </trkpt>
      <trkpt lat="44.2881" lon="5.70851">
        <ele>1073.5999755859</ele>
        <time>2016-05-06T15:45:41Z</time>
      </trkpt>
      <trkpt lat="44.28808" lon="5.70848">
        <ele>1074</ele>
        <time>2016-05-06T15:45:42Z</time>
      </trkpt>
      <trkpt lat="44.28807" lon="5.70842">
        <ele>1073</ele>
        <time>2016-05-06T15:45:44Z</time>
      </trkpt>
      <trkpt lat="44.28805" lon="5.70835">
        <ele>1072.5999755859</ele>
        <time>2016-05-06T15:45:46Z</time>
      </trkpt>
      <trkpt lat="44.28805" lon="5.70831">
        <ele>1072</ele>
        <time>2016-05-06T15:45:47Z</time>
      </trkpt>
      <trkpt lat="44.28804" lon="5.70823">
        <ele>1071.5999755859</ele>
        <time>2016-05-06T15:45:49Z</time>
      </trkpt>
      <trkpt lat="44.28804" lon="5.70804">
        <ele>1071.5999755859</ele>
        <time>2016-05-06T15:45:55Z</time>
      </trkpt>
      <trkpt lat="44.288" lon="5.70777">
        <ele>1071.5999755859</ele>
        <time>2016-05-06T15:46:03Z</time>
      </trkpt>
      <trkpt lat="44.28799" lon="5.70753">
        <ele>1071.5999755859</ele>
        <time>2016-05-06T15:46:10Z</time>
      </trkpt>
      <trkpt lat="44.28793" lon="5.70725">
        <ele>1072</ele>
        <time>2016-05-06T15:46:18Z</time>
      </trkpt>
      <trkpt lat="44.2878" lon="5.70717">
        <ele>1072.4000244141</ele>
        <time>2016-05-06T15:46:20Z</time>
      </trkpt>
      <trkpt lat="44.28781" lon="5.70714">
        <ele>1072.8000488281</ele>
        <time>2016-05-06T15:46:21Z</time>
      </trkpt>
      <trkpt lat="44.28775" lon="5.70707">
        <ele>1073.1999511719</ele>
        <time>2016-05-06T15:46:23Z</time>
      </trkpt>
      <trkpt lat="44.2877" lon="5.70701">
        <ele>1073.1999511719</ele>
        <time>2016-05-06T15:46:24Z</time>
      </trkpt>
      <trkpt lat="44.28769" lon="5.707">
        <ele>1073.5999755859</ele>
        <time>2016-05-06T15:46:25Z</time>
      </trkpt>
      <trkpt lat="44.28763" lon="5.7069">
        <ele>1073.5999755859</ele>
        <time>2016-05-06T15:46:29Z</time>
      </trkpt>
      <trkpt lat="44.28759" lon="5.70684">
        <ele>1074</ele>
        <time>2016-05-06T15:46:32Z</time>
      </trkpt>
      <trkpt lat="44.28759" lon="5.70682">
        <ele>1074.5999755859</ele>
        <time>2016-05-06T15:46:33Z</time>
      </trkpt>
      <trkpt lat="44.28765" lon="5.7067">
        <ele>1075</ele>
        <time>2016-05-06T15:46:35Z</time>
      </trkpt>
      <trkpt lat="44.2877" lon="5.70661">
        <ele>1075.4000244141</ele>
        <time>2016-05-06T15:46:37Z</time>
      </trkpt>
      <trkpt lat="44.28772" lon="5.70656">
        <ele>1075.8000488281</ele>
        <time>2016-05-06T15:46:38Z</time>
      </trkpt>
      <trkpt lat="44.28775" lon="5.70648">
        <ele>1075.8000488281</ele>
        <time>2016-05-06T15:46:40Z</time>
      </trkpt>
      <trkpt lat="44.2878" lon="5.70641">
        <ele>1075.8000488281</ele>
        <time>2016-05-06T15:46:43Z</time>
      </trkpt>
      <trkpt lat="44.28782" lon="5.70634">
        <ele>1075.8000488281</ele>
        <time>2016-05-06T15:46:45Z</time>
      </trkpt>
      <trkpt lat="44.28779" lon="5.7061">
        <ele>1075.8000488281</ele>
        <time>2016-05-06T15:46:51Z</time>
      </trkpt>
      <trkpt lat="44.28776" lon="5.70586">
        <ele>1075.8000488281</ele>
        <time>2016-05-06T15:46:58Z</time>
      </trkpt>
      <trkpt lat="44.28775" lon="5.70561">
        <ele>1075.8000488281</ele>
        <time>2016-05-06T15:47:05Z</time>
      </trkpt>
      <trkpt lat="44.28777" lon="5.70539">
        <ele>1075.8000488281</ele>
        <time>2016-05-06T15:47:11Z</time>
      </trkpt>
      <trkpt lat="44.28788" lon="5.70522">
        <ele>1075.8000488281</ele>
        <time>2016-05-06T15:47:16Z</time>
      </trkpt>
      <trkpt lat="44.28788" lon="5.70519">
        <ele>1075.8000488281</ele>
        <time>2016-05-06T15:47:17Z</time>
      </trkpt>
      <trkpt lat="44.28787" lon="5.70498">
        <ele>1075.8000488281</ele>
        <time>2016-05-06T15:47:23Z</time>
      </trkpt>
      <trkpt lat="44.28797" lon="5.70475">
        <ele>1075.8000488281</ele>
        <time>2016-05-06T15:47:29Z</time>
      </trkpt>
      <trkpt lat="44.28801" lon="5.70453">
        <ele>1075.8000488281</ele>
        <time>2016-05-06T15:47:36Z</time>
      </trkpt>
      <trkpt lat="44.28805" lon="5.7043">
        <ele>1075.8000488281</ele>
        <time>2016-05-06T15:47:43Z</time>
      </trkpt>
      <trkpt lat="44.28805" lon="5.70423">
        <ele>1076.1999511719</ele>
        <time>2016-05-06T15:47:45Z</time>
      </trkpt>
      <trkpt lat="44.28799" lon="5.70416">
        <ele>1077.1999511719</ele>
        <time>2016-05-06T15:47:47Z</time>
      </trkpt>
      <trkpt lat="44.28799" lon="5.70408">
        <ele>1077.5999755859</ele>
        <time>2016-05-06T15:47:49Z</time>
      </trkpt>
      <trkpt lat="44.28799" lon="5.704">
        <ele>1078</ele>
        <time>2016-05-06T15:47:51Z</time>
      </trkpt>
      <trkpt lat="44.28801" lon="5.70388">
        <ele>1078</ele>
        <time>2016-05-06T15:47:54Z</time>
      </trkpt>
      <trkpt lat="44.28802" lon="5.70367">
        <ele>1078</ele>
        <time>2016-05-06T15:48:00Z</time>
      </trkpt>
      <trkpt lat="44.28786" lon="5.70346">
        <ele>1078</ele>
        <time>2016-05-06T15:48:07Z</time>
      </trkpt>
      <trkpt lat="44.28783" lon="5.70343">
        <ele>1078.4000244141</ele>
        <time>2016-05-06T15:48:08Z</time>
      </trkpt>
      <trkpt lat="44.28783" lon="5.70342">
        <ele>1078.8000488281</ele>
        <time>2016-05-06T15:48:09Z</time>
      </trkpt>
      <trkpt lat="44.28782" lon="5.70335">
        <ele>1079.4000244141</ele>
        <time>2016-05-06T15:48:11Z</time>
      </trkpt>
      <trkpt lat="44.28782" lon="5.7033">
        <ele>1079.4000244141</ele>
        <time>2016-05-06T15:48:12Z</time>
      </trkpt>
      <trkpt lat="44.28781" lon="5.70323">
        <ele>1079.8000488281</ele>
        <time>2016-05-06T15:48:13Z</time>
      </trkpt>
      <trkpt lat="44.28781" lon="5.70318">
        <ele>1080.1999511719</ele>
        <time>2016-05-06T15:48:14Z</time>
      </trkpt>
      <trkpt lat="44.28781" lon="5.70306">
        <ele>1080.1999511719</ele>
        <time>2016-05-06T15:48:17Z</time>
      </trkpt>
      <trkpt lat="44.28778" lon="5.70291">
        <ele>1080.1999511719</ele>
        <time>2016-05-06T15:48:22Z</time>
      </trkpt>
      <trkpt lat="44.2878" lon="5.70257">
        <ele>1080.1999511719</ele>
        <time>2016-05-06T15:48:29Z</time>
      </trkpt>
      <trkpt lat="44.28785" lon="5.70237">
        <ele>1080.1999511719</ele>
        <time>2016-05-06T15:48:34Z</time>
      </trkpt>
      <trkpt lat="44.28772" lon="5.70206">
        <ele>1080.1999511719</ele>
        <time>2016-05-06T15:48:41Z</time>
      </trkpt>
      <trkpt lat="44.28782" lon="5.70185">
        <ele>1080.1999511719</ele>
        <time>2016-05-06T15:48:47Z</time>
      </trkpt>
      <trkpt lat="44.2878" lon="5.70176">
        <ele>1080.1999511719</ele>
        <time>2016-05-06T15:48:50Z</time>
      </trkpt>
      <trkpt lat="44.28782" lon="5.7017">
        <ele>1080.1999511719</ele>
        <time>2016-05-06T15:48:52Z</time>
      </trkpt>
      <trkpt lat="44.2878" lon="5.7015">
        <ele>1080.1999511719</ele>
        <time>2016-05-06T15:48:58Z</time>
      </trkpt>
      <trkpt lat="44.28778" lon="5.70133">
        <ele>1080.1999511719</ele>
        <time>2016-05-06T15:49:05Z</time>
      </trkpt>
      <trkpt lat="44.28773" lon="5.70112">
        <ele>1080.1999511719</ele>
        <time>2016-05-06T15:49:11Z</time>
      </trkpt>
      <trkpt lat="44.28763" lon="5.7008">
        <ele>1080.1999511719</ele>
        <time>2016-05-06T15:49:18Z</time>
      </trkpt>
      <trkpt lat="44.28764" lon="5.70077">
        <ele>1080.1999511719</ele>
        <time>2016-05-06T15:49:19Z</time>
      </trkpt>
      <trkpt lat="44.28765" lon="5.70064">
        <ele>1080.1999511719</ele>
        <time>2016-05-06T15:49:23Z</time>
      </trkpt>
      <trkpt lat="44.28766" lon="5.7006">
        <ele>1080.1999511719</ele>
        <time>2016-05-06T15:49:24Z</time>
      </trkpt>
      <trkpt lat="44.28767" lon="5.70041">
        <ele>1080.1999511719</ele>
        <time>2016-05-06T15:49:29Z</time>
      </trkpt>
      <trkpt lat="44.28772" lon="5.70024">
        <ele>1080.1999511719</ele>
        <time>2016-05-06T15:49:35Z</time>
      </trkpt>
      <trkpt lat="44.28788" lon="5.70011">
        <ele>1080.1999511719</ele>
        <time>2016-05-06T15:49:41Z</time>
      </trkpt>
      <trkpt lat="44.28799" lon="5.70007">
        <ele>1080.5999755859</ele>
        <time>2016-05-06T15:49:44Z</time>
      </trkpt>
      <trkpt lat="44.28802" lon="5.70007">
        <ele>1081</ele>
        <time>2016-05-06T15:49:45Z</time>
      </trkpt>
      <trkpt lat="44.28804" lon="5.70005">
        <ele>1081.5999755859</ele>
        <time>2016-05-06T15:49:46Z</time>
      </trkpt>
      <trkpt lat="44.28806" lon="5.70002">
        <ele>1082</ele>
        <time>2016-05-06T15:49:47Z</time>
      </trkpt>
      <trkpt lat="44.28807" lon="5.7">
        <ele>1082.4000244141</ele>
        <time>2016-05-06T15:49:48Z</time>
      </trkpt>
      <trkpt lat="44.28819" lon="5.69979">
        <ele>1082.4000244141</ele>
        <time>2016-05-06T15:49:54Z</time>
      </trkpt>
      <trkpt lat="44.28827" lon="5.69955">
        <ele>1082.4000244141</ele>
        <time>2016-05-06T15:50:01Z</time>
      </trkpt>
      <trkpt lat="44.28825" lon="5.69943">
        <ele>1082.4000244141</ele>
        <time>2016-05-06T15:50:07Z</time>
      </trkpt>
      <trkpt lat="44.28823" lon="5.69936">
        <ele>1082.8000488281</ele>
        <time>2016-05-06T15:50:10Z</time>
      </trkpt>
      <trkpt lat="44.28822" lon="5.69931">
        <ele>1083.1999511719</ele>
        <time>2016-05-06T15:50:12Z</time>
      </trkpt>
      <trkpt lat="44.2882" lon="5.69927">
        <ele>1083.5999755859</ele>
        <time>2016-05-06T15:50:14Z</time>
      </trkpt>
      <trkpt lat="44.28819" lon="5.69924">
        <ele>1084</ele>
        <time>2016-05-06T15:50:15Z</time>
      </trkpt>
      <trkpt lat="44.28817" lon="5.69922">
        <ele>1084.4000244141</ele>
        <time>2016-05-06T15:50:16Z</time>
      </trkpt>
      <trkpt lat="44.28816" lon="5.69919">
        <ele>1084.4000244141</ele>
        <time>2016-05-06T15:50:17Z</time>
      </trkpt>
      <trkpt lat="44.28812" lon="5.69915">
        <ele>1084.8000488281</ele>
        <time>2016-05-06T15:50:19Z</time>
      </trkpt>
      <trkpt lat="44.28811" lon="5.69911">
        <ele>1085.1999511719</ele>
        <time>2016-05-06T15:50:21Z</time>
      </trkpt>
      <trkpt lat="44.28807" lon="5.69907">
        <ele>1085.5999755859</ele>
        <time>2016-05-06T15:50:22Z</time>
      </trkpt>
      <trkpt lat="44.28804" lon="5.699">
        <ele>1086.1999511719</ele>
        <time>2016-05-06T15:50:24Z</time>
      </trkpt>
      <trkpt lat="44.288" lon="5.69895">
        <ele>1086.5999755859</ele>
        <time>2016-05-06T15:50:26Z</time>
      </trkpt>
      <trkpt lat="44.28794" lon="5.69872">
        <ele>1086.5999755859</ele>
        <time>2016-05-06T15:50:32Z</time>
      </trkpt>
      <trkpt lat="44.28793" lon="5.69846">
        <ele>1086</ele>
        <time>2016-05-06T15:50:38Z</time>
      </trkpt>
      <trkpt lat="44.28791" lon="5.69844">
        <ele>1085.5999755859</ele>
        <time>2016-05-06T15:50:39Z</time>
      </trkpt>
      <trkpt lat="44.28792" lon="5.69844">
        <ele>1085</ele>
        <time>2016-05-06T15:50:41Z</time>
      </trkpt>
      <trkpt lat="44.28793" lon="5.69844">
        <ele>1085</ele>
        <time>2016-05-06T15:50:42Z</time>
      </trkpt>
      <trkpt lat="44.28795" lon="5.69847">
        <ele>1084.5999755859</ele>
        <time>2016-05-06T15:50:43Z</time>
      </trkpt>
      <trkpt lat="44.28797" lon="5.69849">
        <ele>1084.1999511719</ele>
        <time>2016-05-06T15:50:44Z</time>
      </trkpt>
      <trkpt lat="44.28806" lon="5.69857">
        <ele>1084.1999511719</ele>
        <time>2016-05-06T15:50:47Z</time>
      </trkpt>
      <trkpt lat="44.28822" lon="5.6987">
        <ele>1083.5999755859</ele>
        <time>2016-05-06T15:50:51Z</time>
      </trkpt>
      <trkpt lat="44.28832" lon="5.69882">
        <ele>1083</ele>
        <time>2016-05-06T15:50:53Z</time>
      </trkpt>
      <trkpt lat="44.28839" lon="5.69897">
        <ele>1082.4000244141</ele>
        <time>2016-05-06T15:50:55Z</time>
      </trkpt>
      <trkpt lat="44.28843" lon="5.69906">
        <ele>1081.5999755859</ele>
        <time>2016-05-06T15:50:56Z</time>
      </trkpt>
      <trkpt lat="44.28847" lon="5.69915">
        <ele>1081.5999755859</ele>
        <time>2016-05-06T15:50:57Z</time>
      </trkpt>
      <trkpt lat="44.28851" lon="5.69924">
        <ele>1080.5999755859</ele>
        <time>2016-05-06T15:50:58Z</time>
      </trkpt>
      <trkpt lat="44.2886" lon="5.69942">
        <ele>1079.8000488281</ele>
        <time>2016-05-06T15:51:00Z</time>
      </trkpt>
      <trkpt lat="44.28866" lon="5.6995">
        <ele>1078.5999755859</ele>
        <time>2016-05-06T15:51:01Z</time>
      </trkpt>
      <trkpt lat="44.28876" lon="5.69966">
        <ele>1077.5999755859</ele>
        <time>2016-05-06T15:51:03Z</time>
      </trkpt>
      <trkpt lat="44.28886" lon="5.6998">
        <ele>1076.4000244141</ele>
        <time>2016-05-06T15:51:05Z</time>
      </trkpt>
      <trkpt lat="44.28892" lon="5.69985">
        <ele>1076.4000244141</ele>
        <time>2016-05-06T15:51:06Z</time>
      </trkpt>
      <trkpt lat="44.28897" lon="5.69991">
        <ele>1075</ele>
        <time>2016-05-06T15:51:07Z</time>
      </trkpt>
      <trkpt lat="44.28901" lon="5.69995">
        <ele>1075</ele>
        <time>2016-05-06T15:51:08Z</time>
      </trkpt>
      <trkpt lat="44.28909" lon="5.70003">
        <ele>1075</ele>
        <time>2016-05-06T15:51:10Z</time>
      </trkpt>
      <trkpt lat="44.28917" lon="5.70015">
        <ele>1075</ele>
        <time>2016-05-06T15:51:13Z</time>
      </trkpt>
      <trkpt lat="44.2892" lon="5.70021">
        <ele>1075</ele>
        <time>2016-05-06T15:51:17Z</time>
      </trkpt>
      <trkpt lat="44.2892" lon="5.70021">
        <ele>1073.4000244141</ele>
        <time>2016-05-06T15:51:29Z</time>
      </trkpt>
      <trkpt lat="44.2892" lon="5.70021">
        <ele>1071.5999755859</ele>
        <time>2016-05-06T15:51:37Z</time>
      </trkpt>
      <trkpt lat="44.2892" lon="5.70021">
        <ele>1069.8000488281</ele>
        <time>2016-05-06T15:51:47Z</time>
      </trkpt>
      <trkpt lat="44.28919" lon="5.7002">
        <ele>1069.8000488281</ele>
        <time>2016-05-06T15:51:56Z</time>
      </trkpt>
      <trkpt lat="44.28919" lon="5.70019">
        <ele>1068</ele>
        <time>2016-05-06T15:52:05Z</time>
      </trkpt>
      <trkpt lat="44.28918" lon="5.70018">
        <ele>1066.1999511719</ele>
        <time>2016-05-06T15:52:14Z</time>
      </trkpt>
      <trkpt lat="44.28918" lon="5.70018">
        <ele>1066.1999511719</ele>
        <time>2016-05-06T15:52:15Z</time>
      </trkpt>
      <trkpt lat="44.28918" lon="5.70018">
        <ele>1064.4000244141</ele>
        <time>2016-05-06T15:52:23Z</time>
      </trkpt>
      <trkpt lat="44.28914" lon="5.70013">
        <ele>1064.4000244141</ele>
        <time>2016-05-06T15:52:27Z</time>
      </trkpt>
      <trkpt lat="44.28913" lon="5.70007">
        <ele>1064.4000244141</ele>
        <time>2016-05-06T15:52:28Z</time>
      </trkpt>
      <trkpt lat="44.289" lon="5.69989">
        <ele>1064.4000244141</ele>
        <time>2016-05-06T15:52:35Z</time>
      </trkpt>
      <trkpt lat="44.28902" lon="5.6999">
        <ele>1064.4000244141</ele>
        <time>2016-05-06T15:53:02Z</time>
      </trkpt>
      <trkpt lat="44.28898" lon="5.69984">
        <ele>1064.4000244141</ele>
        <time>2016-05-06T15:53:19Z</time>
      </trkpt>
      <trkpt lat="44.28896" lon="5.69985">
        <ele>1064.4000244141</ele>
        <time>2016-05-06T15:53:28Z</time>
      </trkpt>
      <trkpt lat="44.28892" lon="5.69983">
        <ele>1065.4000244141</ele>
        <time>2016-05-06T15:53:44Z</time>
      </trkpt>
      <trkpt lat="44.28891" lon="5.69984">
        <ele>1065.8000488281</ele>
        <time>2016-05-06T15:53:52Z</time>
      </trkpt>
      <trkpt lat="44.2889" lon="5.69984">
        <ele>1066.4000244141</ele>
        <time>2016-05-06T15:54:00Z</time>
      </trkpt>
      <trkpt lat="44.28888" lon="5.69984">
        <ele>1066.8000488281</ele>
        <time>2016-05-06T15:54:12Z</time>
      </trkpt>
      <trkpt lat="44.28883" lon="5.69979">
        <ele>1066.8000488281</ele>
        <time>2016-05-06T15:54:24Z</time>
      </trkpt>
      <trkpt lat="44.28874" lon="5.69967">
        <ele>1066.8000488281</ele>
        <time>2016-05-06T15:54:35Z</time>
      </trkpt>
      <trkpt lat="44.28866" lon="5.69953">
        <ele>1066.8000488281</ele>
        <time>2016-05-06T15:54:43Z</time>
      </trkpt>
      <trkpt lat="44.28854" lon="5.69938">
        <ele>1066.8000488281</ele>
        <time>2016-05-06T15:54:51Z</time>
      </trkpt>
      <trkpt lat="44.28854" lon="5.69936">
        <ele>1068.1999511719</ele>
        <time>2016-05-06T15:54:52Z</time>
      </trkpt>
      <trkpt lat="44.28851" lon="5.69928">
        <ele>1068.1999511719</ele>
        <time>2016-05-06T15:54:59Z</time>
      </trkpt>
      <trkpt lat="44.2885" lon="5.69928">
        <ele>1069</ele>
        <time>2016-05-06T15:55:00Z</time>
      </trkpt>
      <trkpt lat="44.28852" lon="5.69929">
        <ele>1069</ele>
        <time>2016-05-06T15:55:04Z</time>
      </trkpt>
      <trkpt lat="44.28852" lon="5.69929">
        <ele>1069.5999755859</ele>
        <time>2016-05-06T15:55:08Z</time>
      </trkpt>
      <trkpt lat="44.28851" lon="5.69929">
        <ele>1070.1999511719</ele>
        <time>2016-05-06T15:55:16Z</time>
      </trkpt>
      <trkpt lat="44.28867" lon="5.69938">
        <ele>1070.1999511719</ele>
        <time>2016-05-06T15:56:56Z</time>
      </trkpt>
      <trkpt lat="44.28882" lon="5.69962">
        <ele>1070.1999511719</ele>
        <time>2016-05-06T15:57:00Z</time>
      </trkpt>
      <trkpt lat="44.2891" lon="5.69995">
        <ele>1070.1999511719</ele>
        <time>2016-05-06T15:57:05Z</time>
      </trkpt>
      <trkpt lat="44.28921" lon="5.7001">
        <ele>1070.1999511719</ele>
        <time>2016-05-06T15:57:07Z</time>
      </trkpt>
      <trkpt lat="44.2893" lon="5.7003">
        <ele>1070.1999511719</ele>
        <time>2016-05-06T15:57:09Z</time>
      </trkpt>
      <trkpt lat="44.28938" lon="5.70053">
        <ele>1068.1999511719</ele>
        <time>2016-05-06T15:57:11Z</time>
      </trkpt>
      <trkpt lat="44.28944" lon="5.70075">
        <ele>1068.1999511719</ele>
        <time>2016-05-06T15:57:13Z</time>
      </trkpt>
      <trkpt lat="44.28944" lon="5.70086">
        <ele>1068.1999511719</ele>
        <time>2016-05-06T15:57:14Z</time>
      </trkpt>
      <trkpt lat="44.28946" lon="5.7012">
        <ele>1068.1999511719</ele>
        <time>2016-05-06T15:57:17Z</time>
      </trkpt>
      <trkpt lat="44.28944" lon="5.70137">
        <ele>1064.5999755859</ele>
        <time>2016-05-06T15:57:19Z</time>
      </trkpt>
      <trkpt lat="44.2894" lon="5.70144">
        <ele>1064.5999755859</ele>
        <time>2016-05-06T15:57:20Z</time>
      </trkpt>
      <trkpt lat="44.28921" lon="5.70154">
        <ele>1064.5999755859</ele>
        <time>2016-05-06T15:57:23Z</time>
      </trkpt>
      <trkpt lat="44.28913" lon="5.70157">
        <ele>1064.5999755859</ele>
        <time>2016-05-06T15:57:24Z</time>
      </trkpt>
      <trkpt lat="44.28891" lon="5.70171">
        <ele>1062.4000244141</ele>
        <time>2016-05-06T15:57:27Z</time>
      </trkpt>
      <trkpt lat="44.28884" lon="5.70177">
        <ele>1062.4000244141</ele>
        <time>2016-05-06T15:57:28Z</time>
      </trkpt>
      <trkpt lat="44.28874" lon="5.70187">
        <ele>1062.4000244141</ele>
        <time>2016-05-06T15:57:30Z</time>
      </trkpt>
      <trkpt lat="44.28871" lon="5.70193">
        <ele>1062.4000244141</ele>
        <time>2016-05-06T15:57:31Z</time>
      </trkpt>
      <trkpt lat="44.28878" lon="5.70201">
        <ele>1062.4000244141</ele>
        <time>2016-05-06T15:57:33Z</time>
      </trkpt>
      <trkpt lat="44.28888" lon="5.702">
        <ele>1060.4000244141</ele>
        <time>2016-05-06T15:57:35Z</time>
      </trkpt>
      <trkpt lat="44.28892" lon="5.70196">
        <ele>1060.4000244141</ele>
        <time>2016-05-06T15:57:36Z</time>
      </trkpt>
      <trkpt lat="44.28904" lon="5.7019">
        <ele>1060.4000244141</ele>
        <time>2016-05-06T15:57:38Z</time>
      </trkpt>
      <trkpt lat="44.28918" lon="5.70186">
        <ele>1060.4000244141</ele>
        <time>2016-05-06T15:57:40Z</time>
      </trkpt>
      <trkpt lat="44.28943" lon="5.70183">
        <ele>1057.8000488281</ele>
        <time>2016-05-06T15:57:43Z</time>
      </trkpt>
      <trkpt lat="44.28953" lon="5.70187">
        <ele>1057.8000488281</ele>
        <time>2016-05-06T15:57:44Z</time>
      </trkpt>
      <trkpt lat="44.28981" lon="5.70203">
        <ele>1057.8000488281</ele>
        <time>2016-05-06T15:57:47Z</time>
      </trkpt>
      <trkpt lat="44.29005" lon="5.70218">
        <ele>1057.8000488281</ele>
        <time>2016-05-06T15:57:50Z</time>
      </trkpt>
      <trkpt lat="44.29013" lon="5.70219">
        <ele>1051.4000244141</ele>
        <time>2016-05-06T15:57:51Z</time>
      </trkpt>
      <trkpt lat="44.29019" lon="5.70211">
        <ele>1051.4000244141</ele>
        <time>2016-05-06T15:57:53Z</time>
      </trkpt>
      <trkpt lat="44.29024" lon="5.70189">
        <ele>1051.4000244141</ele>
        <time>2016-05-06T15:57:56Z</time>
      </trkpt>
      <trkpt lat="44.29024" lon="5.70168">
        <ele>1051.4000244141</ele>
        <time>2016-05-06T15:57:58Z</time>
      </trkpt>
      <trkpt lat="44.29025" lon="5.70157">
        <ele>1044.8000488281</ele>
        <time>2016-05-06T15:57:59Z</time>
      </trkpt>
      <trkpt lat="44.29027" lon="5.70146">
        <ele>1044.8000488281</ele>
        <time>2016-05-06T15:58:00Z</time>
      </trkpt>
      <trkpt lat="44.29033" lon="5.70115">
        <ele>1044.8000488281</ele>
        <time>2016-05-06T15:58:03Z</time>
      </trkpt>
      <trkpt lat="44.29039" lon="5.70108">
        <ele>1044.8000488281</ele>
        <time>2016-05-06T15:58:04Z</time>
      </trkpt>
      <trkpt lat="44.29052" lon="5.70104">
        <ele>1044.8000488281</ele>
        <time>2016-05-06T15:58:06Z</time>
      </trkpt>
      <trkpt lat="44.29058" lon="5.70107">
        <ele>1041.8000488281</ele>
        <time>2016-05-06T15:58:07Z</time>
      </trkpt>
      <trkpt lat="44.29083" lon="5.70122">
        <ele>1041.8000488281</ele>
        <time>2016-05-06T15:58:10Z</time>
      </trkpt>
      <trkpt lat="44.29105" lon="5.7014">
        <ele>1041.8000488281</ele>
        <time>2016-05-06T15:58:13Z</time>
      </trkpt>
      <trkpt lat="44.2911" lon="5.70149">
        <ele>1041.8000488281</ele>
        <time>2016-05-06T15:58:14Z</time>
      </trkpt>
      <trkpt lat="44.29114" lon="5.70159">
        <ele>1035.1999511719</ele>
        <time>2016-05-06T15:58:15Z</time>
      </trkpt>
      <trkpt lat="44.29121" lon="5.70183">
        <ele>1035.1999511719</ele>
        <time>2016-05-06T15:58:17Z</time>
      </trkpt>
      <trkpt lat="44.29147" lon="5.70244">
        <ele>1035.1999511719</ele>
        <time>2016-05-06T15:58:23Z</time>
      </trkpt>
      <trkpt lat="44.29152" lon="5.7025">
        <ele>1035.1999511719</ele>
        <time>2016-05-06T15:58:24Z</time>
      </trkpt>
      <trkpt lat="44.29169" lon="5.70265">
        <ele>1035.1999511719</ele>
        <time>2016-05-06T15:58:27Z</time>
      </trkpt>
      <trkpt lat="44.29185" lon="5.70269">
        <ele>1027.1999511719</ele>
        <time>2016-05-06T15:58:29Z</time>
      </trkpt>
      <trkpt lat="44.29192" lon="5.70271">
        <ele>1027.1999511719</ele>
        <time>2016-05-06T15:58:30Z</time>
      </trkpt>
      <trkpt lat="44.29229" lon="5.70305">
        <ele>1027.1999511719</ele>
        <time>2016-05-06T15:58:35Z</time>
      </trkpt>
      <trkpt lat="44.29236" lon="5.70324">
        <ele>1018.5999755859</ele>
        <time>2016-05-06T15:58:37Z</time>
      </trkpt>
      <trkpt lat="44.29242" lon="5.70329">
        <ele>1018.5999755859</ele>
        <time>2016-05-06T15:58:38Z</time>
      </trkpt>
      <trkpt lat="44.29271" lon="5.7037">
        <ele>1018.5999755859</ele>
        <time>2016-05-06T15:58:43Z</time>
      </trkpt>
      <trkpt lat="44.29277" lon="5.70395">
        <ele>1014.200012207</ele>
        <time>2016-05-06T15:58:45Z</time>
      </trkpt>
      <trkpt lat="44.2928" lon="5.70407">
        <ele>1014.200012207</ele>
        <time>2016-05-06T15:58:46Z</time>
      </trkpt>
      <trkpt lat="44.29285" lon="5.70416">
        <ele>1014.200012207</ele>
        <time>2016-05-06T15:58:47Z</time>
      </trkpt>
      <trkpt lat="44.29302" lon="5.70439">
        <ele>1014.200012207</ele>
        <time>2016-05-06T15:58:50Z</time>
      </trkpt>
      <trkpt lat="44.29308" lon="5.70445">
        <ele>1014.200012207</ele>
        <time>2016-05-06T15:58:51Z</time>
      </trkpt>
      <trkpt lat="44.29321" lon="5.70459">
        <ele>1009.799987793</ele>
        <time>2016-05-06T15:58:53Z</time>
      </trkpt>
      <trkpt lat="44.29342" lon="5.70488">
        <ele>1009.799987793</ele>
        <time>2016-05-06T15:58:57Z</time>
      </trkpt>
      <trkpt lat="44.29356" lon="5.70506">
        <ele>1009.799987793</ele>
        <time>2016-05-06T15:59:00Z</time>
      </trkpt>
      <trkpt lat="44.29362" lon="5.70508">
        <ele>1004.799987793</ele>
        <time>2016-05-06T15:59:01Z</time>
      </trkpt>
      <trkpt lat="44.29383" lon="5.70509">
        <ele>1004.799987793</ele>
        <time>2016-05-06T15:59:04Z</time>
      </trkpt>
      <trkpt lat="44.29416" lon="5.70505">
        <ele>1004.799987793</ele>
        <time>2016-05-06T15:59:08Z</time>
      </trkpt>
      <trkpt lat="44.29424" lon="5.70504">
        <ele>999.59997558594</ele>
        <time>2016-05-06T15:59:09Z</time>
      </trkpt>
      <trkpt lat="44.29432" lon="5.70506">
        <ele>999.59997558594</ele>
        <time>2016-05-06T15:59:10Z</time>
      </trkpt>
      <trkpt lat="44.29449" lon="5.70518">
        <ele>999.59997558594</ele>
        <time>2016-05-06T15:59:12Z</time>
      </trkpt>
      <trkpt lat="44.2946" lon="5.7053">
        <ele>999.59997558594</ele>
        <time>2016-05-06T15:59:14Z</time>
      </trkpt>
      <trkpt lat="44.29468" lon="5.70545">
        <ele>999.59997558594</ele>
        <time>2016-05-06T15:59:16Z</time>
      </trkpt>
      <trkpt lat="44.29477" lon="5.70555">
        <ele>988.79998779297</ele>
        <time>2016-05-06T15:59:18Z</time>
      </trkpt>
      <trkpt lat="44.29497" lon="5.70553">
        <ele>988.79998779297</ele>
        <time>2016-05-06T15:59:21Z</time>
      </trkpt>
      <trkpt lat="44.29523" lon="5.70542">
        <ele>988.79998779297</ele>
        <time>2016-05-06T15:59:25Z</time>
      </trkpt>
      <trkpt lat="44.29529" lon="5.70538">
        <ele>983.40002441406</ele>
        <time>2016-05-06T15:59:26Z</time>
      </trkpt>
      <trkpt lat="44.29553" lon="5.70539">
        <ele>983.40002441406</ele>
        <time>2016-05-06T15:59:29Z</time>
      </trkpt>
      <trkpt lat="44.29562" lon="5.70541">
        <ele>983.40002441406</ele>
        <time>2016-05-06T15:59:30Z</time>
      </trkpt>
      <trkpt lat="44.29595" lon="5.70559">
        <ele>978.40002441406</ele>
        <time>2016-05-06T15:59:34Z</time>
      </trkpt>
      <trkpt lat="44.29602" lon="5.70569">
        <ele>978.40002441406</ele>
        <time>2016-05-06T15:59:35Z</time>
      </trkpt>
      <trkpt lat="44.29628" lon="5.70603">
        <ele>978.40002441406</ele>
        <time>2016-05-06T15:59:39Z</time>
      </trkpt>
      <trkpt lat="44.29632" lon="5.70611">
        <ele>978.40002441406</ele>
        <time>2016-05-06T15:59:40Z</time>
      </trkpt>
      <trkpt lat="44.29643" lon="5.70623">
        <ele>973</ele>
        <time>2016-05-06T15:59:42Z</time>
      </trkpt>
      <trkpt lat="44.29676" lon="5.70631">
        <ele>973</ele>
        <time>2016-05-06T15:59:46Z</time>
      </trkpt>
      <trkpt lat="44.29709" lon="5.70653">
        <ele>967.20001220703</ele>
        <time>2016-05-06T15:59:50Z</time>
      </trkpt>
      <trkpt lat="44.29716" lon="5.70662">
        <ele>967.20001220703</ele>
        <time>2016-05-06T15:59:51Z</time>
      </trkpt>
      <trkpt lat="44.29733" lon="5.707">
        <ele>967.20001220703</ele>
        <time>2016-05-06T15:59:55Z</time>
      </trkpt>
      <trkpt lat="44.29734" lon="5.7071">
        <ele>967.20001220703</ele>
        <time>2016-05-06T15:59:56Z</time>
      </trkpt>
      <trkpt lat="44.29739" lon="5.7073">
        <ele>961.20001220703</ele>
        <time>2016-05-06T15:59:58Z</time>
      </trkpt>
      <trkpt lat="44.29742" lon="5.70737">
        <ele>961.20001220703</ele>
        <time>2016-05-06T15:59:59Z</time>
      </trkpt>
      <trkpt lat="44.29748" lon="5.70742">
        <ele>961.20001220703</ele>
        <time>2016-05-06T16:00:00Z</time>
      </trkpt>
      <trkpt lat="44.29762" lon="5.70756">
        <ele>961.20001220703</ele>
        <time>2016-05-06T16:00:03Z</time>
      </trkpt>
      <trkpt lat="44.29759" lon="5.70775">
        <ele>955</ele>
        <time>2016-05-06T16:00:06Z</time>
      </trkpt>
      <trkpt lat="44.29736" lon="5.70778">
        <ele>955</ele>
        <time>2016-05-06T16:00:09Z</time>
      </trkpt>
      <trkpt lat="44.29729" lon="5.70778">
        <ele>955</ele>
        <time>2016-05-06T16:00:10Z</time>
      </trkpt>
      <trkpt lat="44.29703" lon="5.70767">
        <ele>949.20001220703</ele>
        <time>2016-05-06T16:00:14Z</time>
      </trkpt>
      <trkpt lat="44.29696" lon="5.70763">
        <ele>949.20001220703</ele>
        <time>2016-05-06T16:00:15Z</time>
      </trkpt>
      <trkpt lat="44.2968" lon="5.70763">
        <ele>949.20001220703</ele>
        <time>2016-05-06T16:00:17Z</time>
      </trkpt>
      <trkpt lat="44.29662" lon="5.70767">
        <ele>949.20001220703</ele>
        <time>2016-05-06T16:00:19Z</time>
      </trkpt>
      <trkpt lat="44.29654" lon="5.70765">
        <ele>949.20001220703</ele>
        <time>2016-05-06T16:00:20Z</time>
      </trkpt>
      <trkpt lat="44.2964" lon="5.70755">
        <ele>949.20001220703</ele>
        <time>2016-05-06T16:00:22Z</time>
      </trkpt>
      <trkpt lat="44.29628" lon="5.70741">
        <ele>943.79998779297</ele>
        <time>2016-05-06T16:00:24Z</time>
      </trkpt>
      <trkpt lat="44.29622" lon="5.7074">
        <ele>943.79998779297</ele>
        <time>2016-05-06T16:00:25Z</time>
      </trkpt>
      <trkpt lat="44.29613" lon="5.70746">
        <ele>943.79998779297</ele>
        <time>2016-05-06T16:00:27Z</time>
      </trkpt>
      <trkpt lat="44.29609" lon="5.70765">
        <ele>943.79998779297</ele>
        <time>2016-05-06T16:00:30Z</time>
      </trkpt>
      <trkpt lat="44.29624" lon="5.7078">
        <ele>943.79998779297</ele>
        <time>2016-05-06T16:00:33Z</time>
      </trkpt>
      <trkpt lat="44.29642" lon="5.70792">
        <ele>943.79998779297</ele>
        <time>2016-05-06T16:00:35Z</time>
      </trkpt>
      <trkpt lat="44.29647" lon="5.708">
        <ele>938.40002441406</ele>
        <time>2016-05-06T16:00:36Z</time>
      </trkpt>
      <trkpt lat="44.29661" lon="5.70838">
        <ele>938.40002441406</ele>
        <time>2016-05-06T16:00:40Z</time>
      </trkpt>
      <trkpt lat="44.29664" lon="5.70848">
        <ele>938.40002441406</ele>
        <time>2016-05-06T16:00:41Z</time>
      </trkpt>
      <trkpt lat="44.29686" lon="5.70891">
        <ele>938.40002441406</ele>
        <time>2016-05-06T16:00:45Z</time>
      </trkpt>
      <trkpt lat="44.29698" lon="5.70907">
        <ele>938.40002441406</ele>
        <time>2016-05-06T16:00:47Z</time>
      </trkpt>
      <trkpt lat="44.29714" lon="5.70918">
        <ele>938.40002441406</ele>
        <time>2016-05-06T16:00:49Z</time>
      </trkpt>
      <trkpt lat="44.29728" lon="5.70924">
        <ele>938.40002441406</ele>
        <time>2016-05-06T16:00:51Z</time>
      </trkpt>
      <trkpt lat="44.29736" lon="5.70932">
        <ele>938.40002441406</ele>
        <time>2016-05-06T16:00:53Z</time>
      </trkpt>
      <trkpt lat="44.29732" lon="5.70934">
        <ele>938.40002441406</ele>
        <time>2016-05-06T16:00:56Z</time>
      </trkpt>
      <trkpt lat="44.29731" lon="5.70933">
        <ele>932.20001220703</ele>
        <time>2016-05-06T16:01:00Z</time>
      </trkpt>
      <trkpt lat="44.29731" lon="5.7093">
        <ele>926</ele>
        <time>2016-05-06T16:01:08Z</time>
      </trkpt>
      <trkpt lat="44.29718" lon="5.70922">
        <ele>919.79998779297</ele>
        <time>2016-05-06T16:01:16Z</time>
      </trkpt>
      <trkpt lat="44.29718" lon="5.70921">
        <ele>919.79998779297</ele>
        <time>2016-05-06T16:01:19Z</time>
      </trkpt>
      <trkpt lat="44.29712" lon="5.70916">
        <ele>913.79998779297</ele>
        <time>2016-05-06T16:01:24Z</time>
      </trkpt>
      <trkpt lat="44.2971" lon="5.70915">
        <ele>913.79998779297</ele>
        <time>2016-05-06T16:01:25Z</time>
      </trkpt>
      <trkpt lat="44.29701" lon="5.70908">
        <ele>910.79998779297</ele>
        <time>2016-05-06T16:01:32Z</time>
      </trkpt>
      <trkpt lat="44.29699" lon="5.70905">
        <ele>910.79998779297</ele>
        <time>2016-05-06T16:01:35Z</time>
      </trkpt>
      <trkpt lat="44.29694" lon="5.70899">
        <ele>907.79998779297</ele>
        <time>2016-05-06T16:01:40Z</time>
      </trkpt>
      <trkpt lat="44.29689" lon="5.70893">
        <ele>907.79998779297</ele>
        <time>2016-05-06T16:01:44Z</time>
      </trkpt>
      <trkpt lat="44.29684" lon="5.70887">
        <ele>907.79998779297</ele>
        <time>2016-05-06T16:01:52Z</time>
      </trkpt>
      <trkpt lat="44.29684" lon="5.70886">
        <ele>906.40002441406</ele>
        <time>2016-05-06T16:01:56Z</time>
      </trkpt>
      <trkpt lat="44.29686" lon="5.70888">
        <ele>905</ele>
        <time>2016-05-06T16:02:04Z</time>
      </trkpt>
      <trkpt lat="44.29688" lon="5.7089">
        <ele>905</ele>
        <time>2016-05-06T16:02:07Z</time>
      </trkpt>
      <trkpt lat="44.29698" lon="5.70904">
        <ele>905</ele>
        <time>2016-05-06T16:02:12Z</time>
      </trkpt>
      <trkpt lat="44.29702" lon="5.70909">
        <ele>902.20001220703</ele>
        <time>2016-05-06T16:02:13Z</time>
      </trkpt>
      <trkpt lat="44.2972" lon="5.70919">
        <ele>902.20001220703</ele>
        <time>2016-05-06T16:02:16Z</time>
      </trkpt>
      <trkpt lat="44.29733" lon="5.70931">
        <ele>902.20001220703</ele>
        <time>2016-05-06T16:02:20Z</time>
      </trkpt>
      <trkpt lat="44.29734" lon="5.70937">
        <ele>901.20001220703</ele>
        <time>2016-05-06T16:02:21Z</time>
      </trkpt>
      <trkpt lat="44.29724" lon="5.70961">
        <ele>901.20001220703</ele>
        <time>2016-05-06T16:02:25Z</time>
      </trkpt>
      <trkpt lat="44.29706" lon="5.70984">
        <ele>901.20001220703</ele>
        <time>2016-05-06T16:02:29Z</time>
      </trkpt>
      <trkpt lat="44.29688" lon="5.70993">
        <ele>901.20001220703</ele>
        <time>2016-05-06T16:02:31Z</time>
      </trkpt>
      <trkpt lat="44.29676" lon="5.71009">
        <ele>897.20001220703</ele>
        <time>2016-05-06T16:02:33Z</time>
      </trkpt>
      <trkpt lat="44.29668" lon="5.71022">
        <ele>897.20001220703</ele>
        <time>2016-05-06T16:02:35Z</time>
      </trkpt>
      <trkpt lat="44.29663" lon="5.71024">
        <ele>897.20001220703</ele>
        <time>2016-05-06T16:02:36Z</time>
      </trkpt>
      <trkpt lat="44.29654" lon="5.71027">
        <ele>897.20001220703</ele>
        <time>2016-05-06T16:02:38Z</time>
      </trkpt>
      <trkpt lat="44.2966" lon="5.7104">
        <ele>894.40002441406</ele>
        <time>2016-05-06T16:02:41Z</time>
      </trkpt>
      <trkpt lat="44.29678" lon="5.71036">
        <ele>894.40002441406</ele>
        <time>2016-05-06T16:02:44Z</time>
      </trkpt>
      <trkpt lat="44.297" lon="5.71037">
        <ele>894.40002441406</ele>
        <time>2016-05-06T16:02:48Z</time>
      </trkpt>
      <trkpt lat="44.29701" lon="5.71051">
        <ele>894.40002441406</ele>
        <time>2016-05-06T16:02:50Z</time>
      </trkpt>
      <trkpt lat="44.29691" lon="5.71063">
        <ele>894.40002441406</ele>
        <time>2016-05-06T16:02:52Z</time>
      </trkpt>
      <trkpt lat="44.29676" lon="5.71069">
        <ele>894.40002441406</ele>
        <time>2016-05-06T16:02:54Z</time>
      </trkpt>
      <trkpt lat="44.29669" lon="5.7107">
        <ele>894.40002441406</ele>
        <time>2016-05-06T16:02:55Z</time>
      </trkpt>
      <trkpt lat="44.29653" lon="5.71071">
        <ele>891.40002441406</ele>
        <time>2016-05-06T16:02:57Z</time>
      </trkpt>
      <trkpt lat="44.29637" lon="5.71072">
        <ele>891.40002441406</ele>
        <time>2016-05-06T16:02:59Z</time>
      </trkpt>
      <trkpt lat="44.29586" lon="5.71073">
        <ele>887.79998779297</ele>
        <time>2016-05-06T16:03:05Z</time>
      </trkpt>
      <trkpt lat="44.29576" lon="5.71073">
        <ele>887.79998779297</ele>
        <time>2016-05-06T16:03:06Z</time>
      </trkpt>
      <trkpt lat="44.29554" lon="5.71077">
        <ele>887.79998779297</ele>
        <time>2016-05-06T16:03:09Z</time>
      </trkpt>
      <trkpt lat="44.29549" lon="5.71083">
        <ele>887.79998779297</ele>
        <time>2016-05-06T16:03:10Z</time>
      </trkpt>
      <trkpt lat="44.29547" lon="5.711">
        <ele>884</ele>
        <time>2016-05-06T16:03:13Z</time>
      </trkpt>
      <trkpt lat="44.29568" lon="5.71115">
        <ele>884</ele>
        <time>2016-05-06T16:03:16Z</time>
      </trkpt>
      <trkpt lat="44.29575" lon="5.71118">
        <ele>884</ele>
        <time>2016-05-06T16:03:17Z</time>
      </trkpt>
      <trkpt lat="44.29603" lon="5.71132">
        <ele>880.40002441406</ele>
        <time>2016-05-06T16:03:21Z</time>
      </trkpt>
      <trkpt lat="44.29649" lon="5.71165">
        <ele>880.40002441406</ele>
        <time>2016-05-06T16:03:27Z</time>
      </trkpt>
      <trkpt lat="44.29665" lon="5.71179">
        <ele>876.59997558594</ele>
        <time>2016-05-06T16:03:29Z</time>
      </trkpt>
      <trkpt lat="44.2967" lon="5.71189">
        <ele>876.59997558594</ele>
        <time>2016-05-06T16:03:30Z</time>
      </trkpt>
      <trkpt lat="44.29675" lon="5.71196">
        <ele>876.59997558594</ele>
        <time>2016-05-06T16:03:31Z</time>
      </trkpt>
      <trkpt lat="44.29679" lon="5.71228">
        <ele>876.59997558594</ele>
        <time>2016-05-06T16:03:35Z</time>
      </trkpt>
      <trkpt lat="44.29666" lon="5.71233">
        <ele>872.59997558594</ele>
        <time>2016-05-06T16:03:37Z</time>
      </trkpt>
      <trkpt lat="44.29656" lon="5.71224">
        <ele>872.59997558594</ele>
        <time>2016-05-06T16:03:39Z</time>
      </trkpt>
      <trkpt lat="44.29653" lon="5.71219">
        <ele>872.59997558594</ele>
        <time>2016-05-06T16:03:40Z</time>
      </trkpt>
      <trkpt lat="44.29649" lon="5.71211">
        <ele>872.59997558594</ele>
        <time>2016-05-06T16:03:41Z</time>
      </trkpt>
      <trkpt lat="44.29634" lon="5.71191">
        <ele>872.59997558594</ele>
        <time>2016-05-06T16:03:44Z</time>
      </trkpt>
      <trkpt lat="44.29596" lon="5.71181">
        <ele>872.59997558594</ele>
        <time>2016-05-06T16:03:49Z</time>
      </trkpt>
      <trkpt lat="44.29563" lon="5.7118">
        <ele>868.40002441406</ele>
        <time>2016-05-06T16:03:53Z</time>
      </trkpt>
      <trkpt lat="44.29555" lon="5.71185">
        <ele>868.40002441406</ele>
        <time>2016-05-06T16:03:54Z</time>
      </trkpt>
      <trkpt lat="44.29544" lon="5.71202">
        <ele>868.40002441406</ele>
        <time>2016-05-06T16:03:57Z</time>
      </trkpt>
      <trkpt lat="44.29548" lon="5.71219">
        <ele>868.40002441406</ele>
        <time>2016-05-06T16:03:59Z</time>
      </trkpt>
      <trkpt lat="44.29566" lon="5.71246">
        <ele>860.20001220703</ele>
        <time>2016-05-06T16:04:02Z</time>
      </trkpt>
      <trkpt lat="44.29572" lon="5.71255">
        <ele>860.20001220703</ele>
        <time>2016-05-06T16:04:03Z</time>
      </trkpt>
      <trkpt lat="44.29591" lon="5.71282">
        <ele>860.20001220703</ele>
        <time>2016-05-06T16:04:06Z</time>
      </trkpt>
      <trkpt lat="44.296" lon="5.71287">
        <ele>860.20001220703</ele>
        <time>2016-05-06T16:04:07Z</time>
      </trkpt>
      <trkpt lat="44.2963" lon="5.71296">
        <ele>856.20001220703</ele>
        <time>2016-05-06T16:04:10Z</time>
      </trkpt>
      <trkpt lat="44.29639" lon="5.71299">
        <ele>856.20001220703</ele>
        <time>2016-05-06T16:04:11Z</time>
      </trkpt>
      <trkpt lat="44.29692" lon="5.71314">
        <ele>856.20001220703</ele>
        <time>2016-05-06T16:04:16Z</time>
      </trkpt>
      <trkpt lat="44.29711" lon="5.71324">
        <ele>851.79998779297</ele>
        <time>2016-05-06T16:04:18Z</time>
      </trkpt>
      <trkpt lat="44.29726" lon="5.71331">
        <ele>851.79998779297</ele>
        <time>2016-05-06T16:04:20Z</time>
      </trkpt>
      <trkpt lat="44.29736" lon="5.71338">
        <ele>851.79998779297</ele>
        <time>2016-05-06T16:04:22Z</time>
      </trkpt>
      <trkpt lat="44.29738" lon="5.71346">
        <ele>851.79998779297</ele>
        <time>2016-05-06T16:04:23Z</time>
      </trkpt>
      <trkpt lat="44.29734" lon="5.71363">
        <ele>851.79998779297</ele>
        <time>2016-05-06T16:04:25Z</time>
      </trkpt>
      <trkpt lat="44.29727" lon="5.71367">
        <ele>846.79998779297</ele>
        <time>2016-05-06T16:04:26Z</time>
      </trkpt>
      <trkpt lat="44.2972" lon="5.71368">
        <ele>846.79998779297</ele>
        <time>2016-05-06T16:04:27Z</time>
      </trkpt>
      <trkpt lat="44.29701" lon="5.71363">
        <ele>846.79998779297</ele>
        <time>2016-05-06T16:04:30Z</time>
      </trkpt>
      <trkpt lat="44.29696" lon="5.71361">
        <ele>846.79998779297</ele>
        <time>2016-05-06T16:04:31Z</time>
      </trkpt>
      <trkpt lat="44.29663" lon="5.71357">
        <ele>846.79998779297</ele>
        <time>2016-05-06T16:04:36Z</time>
      </trkpt>
      <trkpt lat="44.29659" lon="5.71361">
        <ele>846.79998779297</ele>
        <time>2016-05-06T16:04:37Z</time>
      </trkpt>
      <trkpt lat="44.29657" lon="5.71383">
        <ele>837</ele>
        <time>2016-05-06T16:04:40Z</time>
      </trkpt>
      <trkpt lat="44.29662" lon="5.7139">
        <ele>837</ele>
        <time>2016-05-06T16:04:41Z</time>
      </trkpt>
      <trkpt lat="44.29672" lon="5.71404">
        <ele>837</ele>
        <time>2016-05-06T16:04:43Z</time>
      </trkpt>
      <trkpt lat="44.29699" lon="5.71442">
        <ele>832.79998779297</ele>
        <time>2016-05-06T16:04:48Z</time>
      </trkpt>
      <trkpt lat="44.29707" lon="5.71446">
        <ele>832.79998779297</ele>
        <time>2016-05-06T16:04:49Z</time>
      </trkpt>
      <trkpt lat="44.29734" lon="5.71451">
        <ele>832.79998779297</ele>
        <time>2016-05-06T16:04:52Z</time>
      </trkpt>
      <trkpt lat="44.29744" lon="5.7145">
        <ele>832.79998779297</ele>
        <time>2016-05-06T16:04:53Z</time>
      </trkpt>
      <trkpt lat="44.29768" lon="5.7145">
        <ele>828.59997558594</ele>
        <time>2016-05-06T16:04:56Z</time>
      </trkpt>
      <trkpt lat="44.29776" lon="5.71456">
        <ele>828.59997558594</ele>
        <time>2016-05-06T16:04:57Z</time>
      </trkpt>
      <trkpt lat="44.298" lon="5.71476">
        <ele>828.59997558594</ele>
        <time>2016-05-06T16:05:00Z</time>
      </trkpt>
      <trkpt lat="44.29835" lon="5.71481">
        <ele>824.20001220703</ele>
        <time>2016-05-06T16:05:04Z</time>
      </trkpt>
      <trkpt lat="44.2984" lon="5.71487">
        <ele>824.20001220703</ele>
        <time>2016-05-06T16:05:05Z</time>
      </trkpt>
      <trkpt lat="44.29843" lon="5.71507">
        <ele>824.20001220703</ele>
        <time>2016-05-06T16:05:07Z</time>
      </trkpt>
      <trkpt lat="44.29844" lon="5.71547">
        <ele>824.20001220703</ele>
        <time>2016-05-06T16:05:11Z</time>
      </trkpt>
      <trkpt lat="44.29846" lon="5.71556">
        <ele>819.40002441406</ele>
        <time>2016-05-06T16:05:12Z</time>
      </trkpt>
      <trkpt lat="44.29853" lon="5.71569">
        <ele>819.40002441406</ele>
        <time>2016-05-06T16:05:14Z</time>
      </trkpt>
      <trkpt lat="44.2987" lon="5.71581">
        <ele>819.40002441406</ele>
        <time>2016-05-06T16:05:17Z</time>
      </trkpt>
      <trkpt lat="44.29889" lon="5.71583">
        <ele>815</ele>
        <time>2016-05-06T16:05:20Z</time>
      </trkpt>
      <trkpt lat="44.29895" lon="5.71582">
        <ele>815</ele>
        <time>2016-05-06T16:05:21Z</time>
      </trkpt>
      <trkpt lat="44.29901" lon="5.71582">
        <ele>815</ele>
        <time>2016-05-06T16:05:22Z</time>
      </trkpt>
      <trkpt lat="44.29937" lon="5.71577">
        <ele>810.59997558594</ele>
        <time>2016-05-06T16:05:28Z</time>
      </trkpt>
      <trkpt lat="44.29948" lon="5.71576">
        <ele>810.59997558594</ele>
        <time>2016-05-06T16:05:30Z</time>
      </trkpt>
      <trkpt lat="44.29974" lon="5.71576">
        <ele>810.59997558594</ele>
        <time>2016-05-06T16:05:34Z</time>
      </trkpt>
      <trkpt lat="44.29986" lon="5.71587">
        <ele>810.59997558594</ele>
        <time>2016-05-06T16:05:36Z</time>
      </trkpt>
      <trkpt lat="44.29991" lon="5.71594">
        <ele>804.40002441406</ele>
        <time>2016-05-06T16:05:37Z</time>
      </trkpt>
      <trkpt lat="44.29996" lon="5.71601">
        <ele>804.40002441406</ele>
        <time>2016-05-06T16:05:38Z</time>
      </trkpt>
      <trkpt lat="44.30009" lon="5.71612">
        <ele>804.40002441406</ele>
        <time>2016-05-06T16:05:40Z</time>
      </trkpt>
      <trkpt lat="44.3003" lon="5.71618">
        <ele>804.40002441406</ele>
        <time>2016-05-06T16:05:43Z</time>
      </trkpt>
      <trkpt lat="44.30042" lon="5.71624">
        <ele>804.40002441406</ele>
        <time>2016-05-06T16:05:45Z</time>
      </trkpt>
      <trkpt lat="44.30057" lon="5.71636">
        <ele>799.59997558594</ele>
        <time>2016-05-06T16:05:47Z</time>
      </trkpt>
      <trkpt lat="44.30071" lon="5.71645">
        <ele>799.59997558594</ele>
        <time>2016-05-06T16:05:49Z</time>
      </trkpt>
      <trkpt lat="44.30093" lon="5.71652">
        <ele>799.59997558594</ele>
        <time>2016-05-06T16:05:52Z</time>
      </trkpt>
      <trkpt lat="44.301" lon="5.71653">
        <ele>799.59997558594</ele>
        <time>2016-05-06T16:05:53Z</time>
      </trkpt>
      <trkpt lat="44.30113" lon="5.71651">
        <ele>797.20001220703</ele>
        <time>2016-05-06T16:05:55Z</time>
      </trkpt>
      <trkpt lat="44.3012" lon="5.71649">
        <ele>797.20001220703</ele>
        <time>2016-05-06T16:05:56Z</time>
      </trkpt>
      <trkpt lat="44.30133" lon="5.71644">
        <ele>797.20001220703</ele>
        <time>2016-05-06T16:05:58Z</time>
      </trkpt>
      <trkpt lat="44.30161" lon="5.71633">
        <ele>797.20001220703</ele>
        <time>2016-05-06T16:06:02Z</time>
      </trkpt>
      <trkpt lat="44.30168" lon="5.71631">
        <ele>795</ele>
        <time>2016-05-06T16:06:03Z</time>
      </trkpt>
      <trkpt lat="44.30211" lon="5.7162">
        <ele>795</ele>
        <time>2016-05-06T16:06:09Z</time>
      </trkpt>
      <trkpt lat="44.30219" lon="5.71621">
        <ele>795</ele>
        <time>2016-05-06T16:06:10Z</time>
      </trkpt>
      <trkpt lat="44.30226" lon="5.71624">
        <ele>793</ele>
        <time>2016-05-06T16:06:11Z</time>
      </trkpt>
      <trkpt lat="44.30245" lon="5.71636">
        <ele>793</ele>
        <time>2016-05-06T16:06:14Z</time>
      </trkpt>
      <trkpt lat="44.30279" lon="5.71655">
        <ele>791</ele>
        <time>2016-05-06T16:06:19Z</time>
      </trkpt>
      <trkpt lat="44.30293" lon="5.7166">
        <ele>791</ele>
        <time>2016-05-06T16:06:21Z</time>
      </trkpt>
      <trkpt lat="44.30299" lon="5.71665">
        <ele>791</ele>
        <time>2016-05-06T16:06:22Z</time>
      </trkpt>
      <trkpt lat="44.30308" lon="5.71686">
        <ele>791</ele>
        <time>2016-05-06T16:06:24Z</time>
      </trkpt>
      <trkpt lat="44.30313" lon="5.71722">
        <ele>791</ele>
        <time>2016-05-06T16:06:27Z</time>
      </trkpt>
      <trkpt lat="44.30319" lon="5.7177">
        <ele>791</ele>
        <time>2016-05-06T16:06:31Z</time>
      </trkpt>
      <trkpt lat="44.30322" lon="5.71781">
        <ele>791</ele>
        <time>2016-05-06T16:06:32Z</time>
      </trkpt>
      <trkpt lat="44.30342" lon="5.71799">
        <ele>788.79998779297</ele>
        <time>2016-05-06T16:06:35Z</time>
      </trkpt>
      <trkpt lat="44.30357" lon="5.71803">
        <ele>788.79998779297</ele>
        <time>2016-05-06T16:06:37Z</time>
      </trkpt>
      <trkpt lat="44.30363" lon="5.71807">
        <ele>788.79998779297</ele>
        <time>2016-05-06T16:06:38Z</time>
      </trkpt>
      <trkpt lat="44.30368" lon="5.71813">
        <ele>788.79998779297</ele>
        <time>2016-05-06T16:06:39Z</time>
      </trkpt>
      <trkpt lat="44.3037" lon="5.71831">
        <ele>788.79998779297</ele>
        <time>2016-05-06T16:06:41Z</time>
      </trkpt>
      <trkpt lat="44.30358" lon="5.71859">
        <ele>788.79998779297</ele>
        <time>2016-05-06T16:06:44Z</time>
      </trkpt>
      <trkpt lat="44.30339" lon="5.71879">
        <ele>782.79998779297</ele>
        <time>2016-05-06T16:06:47Z</time>
      </trkpt>
      <trkpt lat="44.30317" lon="5.71879">
        <ele>782.79998779297</ele>
        <time>2016-05-06T16:06:50Z</time>
      </trkpt>
      <trkpt lat="44.30284" lon="5.71856">
        <ele>782.79998779297</ele>
        <time>2016-05-06T16:06:54Z</time>
      </trkpt>
      <trkpt lat="44.30277" lon="5.71846">
        <ele>779.40002441406</ele>
        <time>2016-05-06T16:06:55Z</time>
      </trkpt>
      <trkpt lat="44.3027" lon="5.71837">
        <ele>779.40002441406</ele>
        <time>2016-05-06T16:06:56Z</time>
      </trkpt>
      <trkpt lat="44.30257" lon="5.71819">
        <ele>779.40002441406</ele>
        <time>2016-05-06T16:06:58Z</time>
      </trkpt>
      <trkpt lat="44.30246" lon="5.7181">
        <ele>779.40002441406</ele>
        <time>2016-05-06T16:07:00Z</time>
      </trkpt>
      <trkpt lat="44.30242" lon="5.7181">
        <ele>779.40002441406</ele>
        <time>2016-05-06T16:07:01Z</time>
      </trkpt>
      <trkpt lat="44.30239" lon="5.71825">
        <ele>775.79998779297</ele>
        <time>2016-05-06T16:07:03Z</time>
      </trkpt>
      <trkpt lat="44.30249" lon="5.71848">
        <ele>775.79998779297</ele>
        <time>2016-05-06T16:07:06Z</time>
      </trkpt>
      <trkpt lat="44.30259" lon="5.71866">
        <ele>775.79998779297</ele>
        <time>2016-05-06T16:07:08Z</time>
      </trkpt>
      <trkpt lat="44.30268" lon="5.71888">
        <ele>775.79998779297</ele>
        <time>2016-05-06T16:07:10Z</time>
      </trkpt>
      <trkpt lat="44.30273" lon="5.71902">
        <ele>771.79998779297</ele>
        <time>2016-05-06T16:07:11Z</time>
      </trkpt>
      <trkpt lat="44.30293" lon="5.71933">
        <ele>771.79998779297</ele>
        <time>2016-05-06T16:07:14Z</time>
      </trkpt>
      <trkpt lat="44.30302" lon="5.7194">
        <ele>771.79998779297</ele>
        <time>2016-05-06T16:07:15Z</time>
      </trkpt>
      <trkpt lat="44.30334" lon="5.71966">
        <ele>767.40002441406</ele>
        <time>2016-05-06T16:07:19Z</time>
      </trkpt>
      <trkpt lat="44.30341" lon="5.7199">
        <ele>767.40002441406</ele>
        <time>2016-05-06T16:07:22Z</time>
      </trkpt>
      <trkpt lat="44.30342" lon="5.72005">
        <ele>767.40002441406</ele>
        <time>2016-05-06T16:07:24Z</time>
      </trkpt>
      <trkpt lat="44.30346" lon="5.7201">
        <ele>767.40002441406</ele>
        <time>2016-05-06T16:07:25Z</time>
      </trkpt>
      <trkpt lat="44.30358" lon="5.72017">
        <ele>763</ele>
        <time>2016-05-06T16:07:27Z</time>
      </trkpt>
      <trkpt lat="44.30365" lon="5.72021">
        <ele>763</ele>
        <time>2016-05-06T16:07:28Z</time>
      </trkpt>
      <trkpt lat="44.30406" lon="5.72048">
        <ele>763</ele>
        <time>2016-05-06T16:07:34Z</time>
      </trkpt>
      <trkpt lat="44.30413" lon="5.72053">
        <ele>758.79998779297</ele>
        <time>2016-05-06T16:07:35Z</time>
      </trkpt>
      <trkpt lat="44.30432" lon="5.72066">
        <ele>758.79998779297</ele>
        <time>2016-05-06T16:07:38Z</time>
      </trkpt>
      <trkpt lat="44.30449" lon="5.72083">
        <ele>758.79998779297</ele>
        <time>2016-05-06T16:07:41Z</time>
      </trkpt>
      <trkpt lat="44.3046" lon="5.72095">
        <ele>754.59997558594</ele>
        <time>2016-05-06T16:07:43Z</time>
      </trkpt>
      <trkpt lat="44.30479" lon="5.72114">
        <ele>754.59997558594</ele>
        <time>2016-05-06T16:07:47Z</time>
      </trkpt>
      <trkpt lat="44.30497" lon="5.72139">
        <ele>751.59997558594</ele>
        <time>2016-05-06T16:07:51Z</time>
      </trkpt>
      <trkpt lat="44.305" lon="5.72148">
        <ele>751.59997558594</ele>
        <time>2016-05-06T16:07:52Z</time>
      </trkpt>
      <trkpt lat="44.30502" lon="5.72157">
        <ele>751.59997558594</ele>
        <time>2016-05-06T16:07:53Z</time>
      </trkpt>
      <trkpt lat="44.3051" lon="5.72188">
        <ele>751.59997558594</ele>
        <time>2016-05-06T16:07:56Z</time>
      </trkpt>
      <trkpt lat="44.30515" lon="5.72194">
        <ele>751.59997558594</ele>
        <time>2016-05-06T16:07:57Z</time>
      </trkpt>
      <trkpt lat="44.30527" lon="5.72194">
        <ele>748.59997558594</ele>
        <time>2016-05-06T16:07:59Z</time>
      </trkpt>
      <trkpt lat="44.30541" lon="5.7218">
        <ele>748.59997558594</ele>
        <time>2016-05-06T16:08:02Z</time>
      </trkpt>
      <trkpt lat="44.30549" lon="5.72169">
        <ele>748.59997558594</ele>
        <time>2016-05-06T16:08:04Z</time>
      </trkpt>
      <trkpt lat="44.30562" lon="5.72157">
        <ele>746.20001220703</ele>
        <time>2016-05-06T16:08:07Z</time>
      </trkpt>
      <trkpt lat="44.30586" lon="5.72151">
        <ele>746.20001220703</ele>
        <time>2016-05-06T16:08:11Z</time>
      </trkpt>
      <trkpt lat="44.30611" lon="5.72165">
        <ele>743.79998779297</ele>
        <time>2016-05-06T16:08:15Z</time>
      </trkpt>
      <trkpt lat="44.30626" lon="5.72182">
        <ele>743.79998779297</ele>
        <time>2016-05-06T16:08:18Z</time>
      </trkpt>
      <trkpt lat="44.30637" lon="5.72192">
        <ele>743.79998779297</ele>
        <time>2016-05-06T16:08:20Z</time>
      </trkpt>
      <trkpt lat="44.30653" lon="5.7221">
        <ele>741.20001220703</ele>
        <time>2016-05-06T16:08:23Z</time>
      </trkpt>
      <trkpt lat="44.30672" lon="5.72237">
        <ele>741.20001220703</ele>
        <time>2016-05-06T16:08:27Z</time>
      </trkpt>
      <trkpt lat="44.30687" lon="5.72268">
        <ele>738.79998779297</ele>
        <time>2016-05-06T16:08:31Z</time>
      </trkpt>
      <trkpt lat="44.3069" lon="5.72277">
        <ele>738.79998779297</ele>
        <time>2016-05-06T16:08:32Z</time>
      </trkpt>
      <trkpt lat="44.30695" lon="5.72315">
        <ele>738.79998779297</ele>
        <time>2016-05-06T16:08:36Z</time>
      </trkpt>
      <trkpt lat="44.30698" lon="5.72323">
        <ele>738.79998779297</ele>
        <time>2016-05-06T16:08:37Z</time>
      </trkpt>
      <trkpt lat="44.30709" lon="5.72335">
        <ele>738</ele>
        <time>2016-05-06T16:08:39Z</time>
      </trkpt>
      <trkpt lat="44.30735" lon="5.72338">
        <ele>738</ele>
        <time>2016-05-06T16:08:42Z</time>
      </trkpt>
      <trkpt lat="44.30787" lon="5.7235">
        <ele>738</ele>
        <time>2016-05-06T16:08:48Z</time>
      </trkpt>
      <trkpt lat="44.30822" lon="5.72355">
        <ele>738</ele>
        <time>2016-05-06T16:08:53Z</time>
      </trkpt>
      <trkpt lat="44.30827" lon="5.72356">
        <ele>734.40002441406</ele>
        <time>2016-05-06T16:08:54Z</time>
      </trkpt>
      <trkpt lat="44.30837" lon="5.72356">
        <ele>734.40002441406</ele>
        <time>2016-05-06T16:08:57Z</time>
      </trkpt>
      <trkpt lat="44.30838" lon="5.72355">
        <ele>734.40002441406</ele>
        <time>2016-05-06T16:09:01Z</time>
      </trkpt>
      <trkpt lat="44.30838" lon="5.72356">
        <ele>732</ele>
        <time>2016-05-06T16:09:02Z</time>
      </trkpt>
      <trkpt lat="44.30839" lon="5.72356">
        <ele>727.20001220703</ele>
        <time>2016-05-06T16:09:10Z</time>
      </trkpt>
      <trkpt lat="44.30839" lon="5.72356">
        <ele>722.20001220703</ele>
        <time>2016-05-06T16:09:18Z</time>
      </trkpt>
      <trkpt lat="44.30839" lon="5.72356">
        <ele>722.20001220703</ele>
        <time>2016-05-06T16:09:20Z</time>
      </trkpt>
      <trkpt lat="44.30839" lon="5.72356">
        <ele>722.20001220703</ele>
        <time>2016-05-06T16:11:32Z</time>
      </trkpt>
      <trkpt lat="44.30841" lon="5.72358">
        <ele>722.20001220703</ele>
        <time>2016-05-06T16:11:40Z</time>
      </trkpt>
      <trkpt lat="44.30853" lon="5.72359">
        <ele>722.20001220703</ele>
        <time>2016-05-06T16:11:42Z</time>
      </trkpt>
      <trkpt lat="44.30883" lon="5.72365">
        <ele>722.20001220703</ele>
        <time>2016-05-06T16:11:46Z</time>
      </trkpt>
      <trkpt lat="44.30898" lon="5.72367">
        <ele>721.79998779297</ele>
        <time>2016-05-06T16:11:48Z</time>
      </trkpt>
      <trkpt lat="44.30924" lon="5.7237">
        <ele>721.79998779297</ele>
        <time>2016-05-06T16:11:51Z</time>
      </trkpt>
      <trkpt lat="44.30968" lon="5.72379">
        <ele>721</ele>
        <time>2016-05-06T16:11:56Z</time>
      </trkpt>
      <trkpt lat="44.30996" lon="5.72383">
        <ele>721</ele>
        <time>2016-05-06T16:11:59Z</time>
      </trkpt>
      <trkpt lat="44.31043" lon="5.72392">
        <ele>719.79998779297</ele>
        <time>2016-05-06T16:12:04Z</time>
      </trkpt>
      <trkpt lat="44.3109" lon="5.724">
        <ele>719.79998779297</ele>
        <time>2016-05-06T16:12:09Z</time>
      </trkpt>
      <trkpt lat="44.31118" lon="5.72406">
        <ele>717.79998779297</ele>
        <time>2016-05-06T16:12:12Z</time>
      </trkpt>
      <trkpt lat="44.31144" lon="5.72407">
        <ele>717.79998779297</ele>
        <time>2016-05-06T16:12:15Z</time>
      </trkpt>
      <trkpt lat="44.3115" lon="5.72402">
        <ele>717.79998779297</ele>
        <time>2016-05-06T16:12:16Z</time>
      </trkpt>
      <trkpt lat="44.31153" lon="5.72391">
        <ele>713.40002441406</ele>
        <time>2016-05-06T16:12:19Z</time>
      </trkpt>
      <trkpt lat="44.31153" lon="5.7239">
        <ele>711.40002441406</ele>
        <time>2016-05-06T16:12:20Z</time>
      </trkpt>
      <trkpt lat="44.31153" lon="5.7239">
        <ele>709.59997558594</ele>
        <time>2016-05-06T16:12:21Z</time>
      </trkpt>
      <trkpt lat="44.31152" lon="5.72391">
        <ele>707.59997558594</ele>
        <time>2016-05-06T16:12:22Z</time>
      </trkpt>
      <trkpt lat="44.31152" lon="5.72391">
        <ele>705.79998779297</ele>
        <time>2016-05-06T16:12:23Z</time>
      </trkpt>
      <trkpt lat="44.31152" lon="5.72391">
        <ele>703.79998779297</ele>
        <time>2016-05-06T16:12:24Z</time>
      </trkpt>
      <trkpt lat="44.31151" lon="5.72396">
        <ele>703.79998779297</ele>
        <time>2016-05-06T16:12:31Z</time>
      </trkpt>
      <trkpt lat="44.3115" lon="5.724">
        <ele>703.79998779297</ele>
        <time>2016-05-06T16:12:35Z</time>
      </trkpt>
      <trkpt lat="44.31147" lon="5.72403">
        <ele>703.79998779297</ele>
        <time>2016-05-06T16:12:40Z</time>
      </trkpt>
      <trkpt lat="44.31143" lon="5.72408">
        <ele>703.79998779297</ele>
        <time>2016-05-06T16:12:49Z</time>
      </trkpt>
      <trkpt lat="44.31143" lon="5.72407">
        <ele>703.79998779297</ele>
        <time>2016-05-06T16:13:18Z</time>
      </trkpt>
      <trkpt lat="44.31142" lon="5.72407">
        <ele>703.79998779297</ele>
        <time>2016-05-06T16:13:40Z</time>
      </trkpt>
      <trkpt lat="44.3114" lon="5.72411">
        <ele>703.79998779297</ele>
        <time>2016-05-06T16:15:09Z</time>
      </trkpt>
      <trkpt lat="44.31141" lon="5.72411">
        <ele>703.79998779297</ele>
        <time>2016-05-06T16:15:29Z</time>
      </trkpt>
      <trkpt lat="44.31141" lon="5.72411">
        <ele>703.79998779297</ele>
        <time>2016-05-06T16:16:59Z</time>
      </trkpt>
      <trkpt lat="44.3114" lon="5.72411">
        <ele>703.79998779297</ele>
        <time>2016-05-06T16:17:02Z</time>
      </trkpt>
      <trkpt lat="44.31143" lon="5.72403">
        <ele>703.79998779297</ele>
        <time>2016-05-06T16:17:08Z</time>
      </trkpt>
      <trkpt lat="44.31153" lon="5.72385">
        <ele>703.79998779297</ele>
        <time>2016-05-06T16:17:12Z</time>
      </trkpt>
      <trkpt lat="44.31166" lon="5.72342">
        <ele>703.79998779297</ele>
        <time>2016-05-06T16:17:18Z</time>
      </trkpt>
      <trkpt lat="44.31182" lon="5.72303">
        <ele>703.79998779297</ele>
        <time>2016-05-06T16:17:23Z</time>
      </trkpt>
      <trkpt lat="44.31187" lon="5.72295">
        <ele>703.79998779297</ele>
        <time>2016-05-06T16:17:24Z</time>
      </trkpt>
      <trkpt lat="44.31202" lon="5.72276">
        <ele>703.79998779297</ele>
        <time>2016-05-06T16:17:27Z</time>
      </trkpt>
      <trkpt lat="44.31219" lon="5.72257">
        <ele>703.79998779297</ele>
        <time>2016-05-06T16:17:30Z</time>
      </trkpt>
      <trkpt lat="44.31242" lon="5.72227">
        <ele>703.79998779297</ele>
        <time>2016-05-06T16:17:35Z</time>
      </trkpt>
      <trkpt lat="44.31266" lon="5.72198">
        <ele>703.79998779297</ele>
        <time>2016-05-06T16:17:42Z</time>
      </trkpt>
      <trkpt lat="44.31292" lon="5.72169">
        <ele>703.79998779297</ele>
        <time>2016-05-06T16:17:49Z</time>
      </trkpt>
      <trkpt lat="44.31295" lon="5.72162">
        <ele>703.79998779297</ele>
        <time>2016-05-06T16:17:50Z</time>
      </trkpt>
      <trkpt lat="44.313" lon="5.72145">
        <ele>703.79998779297</ele>
        <time>2016-05-06T16:17:52Z</time>
      </trkpt>
      <trkpt lat="44.31303" lon="5.72106">
        <ele>703.79998779297</ele>
        <time>2016-05-06T16:17:56Z</time>
      </trkpt>
      <trkpt lat="44.31291" lon="5.7207">
        <ele>703.79998779297</ele>
        <time>2016-05-06T16:18:00Z</time>
      </trkpt>
      <trkpt lat="44.31288" lon="5.72062">
        <ele>703.79998779297</ele>
        <time>2016-05-06T16:18:01Z</time>
      </trkpt>
      <trkpt lat="44.31283" lon="5.72038">
        <ele>703.79998779297</ele>
        <time>2016-05-06T16:18:04Z</time>
      </trkpt>
      <trkpt lat="44.31284" lon="5.7203">
        <ele>703.79998779297</ele>
        <time>2016-05-06T16:18:05Z</time>
      </trkpt>
      <trkpt lat="44.31296" lon="5.71982">
        <ele>703.79998779297</ele>
        <time>2016-05-06T16:18:12Z</time>
      </trkpt>
      <trkpt lat="44.31311" lon="5.71942">
        <ele>703.79998779297</ele>
        <time>2016-05-06T16:18:19Z</time>
      </trkpt>
      <trkpt lat="44.31327" lon="5.71896">
        <ele>703.79998779297</ele>
        <time>2016-05-06T16:18:27Z</time>
      </trkpt>
      <trkpt lat="44.31344" lon="5.71836">
        <ele>703.79998779297</ele>
        <time>2016-05-06T16:18:36Z</time>
      </trkpt>
      <trkpt lat="44.31355" lon="5.71758">
        <ele>703.79998779297</ele>
        <time>2016-05-06T16:18:46Z</time>
      </trkpt>
      <trkpt lat="44.31373" lon="5.71714">
        <ele>703.79998779297</ele>
        <time>2016-05-06T16:18:52Z</time>
      </trkpt>
      <trkpt lat="44.31392" lon="5.71664">
        <ele>703.79998779297</ele>
        <time>2016-05-06T16:18:59Z</time>
      </trkpt>
      <trkpt lat="44.31414" lon="5.71607">
        <ele>703.79998779297</ele>
        <time>2016-05-06T16:19:06Z</time>
      </trkpt>
      <trkpt lat="44.31424" lon="5.71582">
        <ele>702.20001220703</ele>
        <time>2016-05-06T16:19:09Z</time>
      </trkpt>
      <trkpt lat="44.3143" lon="5.71555">
        <ele>702.20001220703</ele>
        <time>2016-05-06T16:19:12Z</time>
      </trkpt>
      <trkpt lat="44.31433" lon="5.71535">
        <ele>702.20001220703</ele>
        <time>2016-05-06T16:19:14Z</time>
      </trkpt>
      <trkpt lat="44.31438" lon="5.71461">
        <ele>702.20001220703</ele>
        <time>2016-05-06T16:19:22Z</time>
      </trkpt>
      <trkpt lat="44.31441" lon="5.71397">
        <ele>702.20001220703</ele>
        <time>2016-05-06T16:19:30Z</time>
      </trkpt>
      <trkpt lat="44.31443" lon="5.71389">
        <ele>702.20001220703</ele>
        <time>2016-05-06T16:19:31Z</time>
      </trkpt>
      <trkpt lat="44.3145" lon="5.71373">
        <ele>702.20001220703</ele>
        <time>2016-05-06T16:19:33Z</time>
      </trkpt>
      <trkpt lat="44.31459" lon="5.71362">
        <ele>702.20001220703</ele>
        <time>2016-05-06T16:19:35Z</time>
      </trkpt>
      <trkpt lat="44.31467" lon="5.71351">
        <ele>702.20001220703</ele>
        <time>2016-05-06T16:19:37Z</time>
      </trkpt>
      <trkpt lat="44.31491" lon="5.7131">
        <ele>702.20001220703</ele>
        <time>2016-05-06T16:19:44Z</time>
      </trkpt>
      <trkpt lat="44.31509" lon="5.71285">
        <ele>702.20001220703</ele>
        <time>2016-05-06T16:19:49Z</time>
      </trkpt>
      <trkpt lat="44.31517" lon="5.71278">
        <ele>702.20001220703</ele>
        <time>2016-05-06T16:19:51Z</time>
      </trkpt>
      <trkpt lat="44.31548" lon="5.71253">
        <ele>702.20001220703</ele>
        <time>2016-05-06T16:20:00Z</time>
      </trkpt>
      <trkpt lat="44.3157" lon="5.71237">
        <ele>702.20001220703</ele>
        <time>2016-05-06T16:20:09Z</time>
      </trkpt>
      <trkpt lat="44.31583" lon="5.71229">
        <ele>702.20001220703</ele>
        <time>2016-05-06T16:20:15Z</time>
      </trkpt>
      <trkpt lat="44.3158" lon="5.71205">
        <ele>702.20001220703</ele>
        <time>2016-05-06T16:20:20Z</time>
      </trkpt>
      <trkpt lat="44.3157" lon="5.71172">
        <ele>702.20001220703</ele>
        <time>2016-05-06T16:20:26Z</time>
      </trkpt>
      <trkpt lat="44.31562" lon="5.71131">
        <ele>702.20001220703</ele>
        <time>2016-05-06T16:20:34Z</time>
      </trkpt>
      <trkpt lat="44.31549" lon="5.71089">
        <ele>702.20001220703</ele>
        <time>2016-05-06T16:20:43Z</time>
      </trkpt>
      <trkpt lat="44.31542" lon="5.71059">
        <ele>702.20001220703</ele>
        <time>2016-05-06T16:20:50Z</time>
      </trkpt>
      <trkpt lat="44.31538" lon="5.71031">
        <ele>700.40002441406</ele>
        <time>2016-05-06T16:20:56Z</time>
      </trkpt>
      <trkpt lat="44.31537" lon="5.71021">
        <ele>700.40002441406</ele>
        <time>2016-05-06T16:20:58Z</time>
      </trkpt>
      <trkpt lat="44.3154" lon="5.70961">
        <ele>700.40002441406</ele>
        <time>2016-05-06T16:21:10Z</time>
      </trkpt>
      <trkpt lat="44.3155" lon="5.70906">
        <ele>700.40002441406</ele>
        <time>2016-05-06T16:21:20Z</time>
      </trkpt>
      <trkpt lat="44.31562" lon="5.70832">
        <ele>700.40002441406</ele>
        <time>2016-05-06T16:21:34Z</time>
      </trkpt>
      <trkpt lat="44.31564" lon="5.70782">
        <ele>700.40002441406</ele>
        <time>2016-05-06T16:21:43Z</time>
      </trkpt>
      <trkpt lat="44.31562" lon="5.70736">
        <ele>700.40002441406</ele>
        <time>2016-05-06T16:21:52Z</time>
      </trkpt>
      <trkpt lat="44.31556" lon="5.70677">
        <ele>700.40002441406</ele>
        <time>2016-05-06T16:22:05Z</time>
      </trkpt>
      <trkpt lat="44.31548" lon="5.70639">
        <ele>700.40002441406</ele>
        <time>2016-05-06T16:22:14Z</time>
      </trkpt>
      <trkpt lat="44.31532" lon="5.70605">
        <ele>700.40002441406</ele>
        <time>2016-05-06T16:22:23Z</time>
      </trkpt>
      <trkpt lat="44.31512" lon="5.70566">
        <ele>700.40002441406</ele>
        <time>2016-05-06T16:22:33Z</time>
      </trkpt>
      <trkpt lat="44.31498" lon="5.70536">
        <ele>700.40002441406</ele>
        <time>2016-05-06T16:22:40Z</time>
      </trkpt>
      <trkpt lat="44.3149" lon="5.70486">
        <ele>700.40002441406</ele>
        <time>2016-05-06T16:22:48Z</time>
      </trkpt>
      <trkpt lat="44.31476" lon="5.7043">
        <ele>700.40002441406</ele>
        <time>2016-05-06T16:22:57Z</time>
      </trkpt>
      <trkpt lat="44.31451" lon="5.70378">
        <ele>700.40002441406</ele>
        <time>2016-05-06T16:23:06Z</time>
      </trkpt>
      <trkpt lat="44.31435" lon="5.70328">
        <ele>700.40002441406</ele>
        <time>2016-05-06T16:23:15Z</time>
      </trkpt>
      <trkpt lat="44.31429" lon="5.70276">
        <ele>700.40002441406</ele>
        <time>2016-05-06T16:23:24Z</time>
      </trkpt>
      <trkpt lat="44.31426" lon="5.70225">
        <ele>700.40002441406</ele>
        <time>2016-05-06T16:23:33Z</time>
      </trkpt>
      <trkpt lat="44.31415" lon="5.70166">
        <ele>700.40002441406</ele>
        <time>2016-05-06T16:23:44Z</time>
      </trkpt>
      <trkpt lat="44.31403" lon="5.70129">
        <ele>700.40002441406</ele>
        <time>2016-05-06T16:23:51Z</time>
      </trkpt>
      <trkpt lat="44.31385" lon="5.70084">
        <ele>700.40002441406</ele>
        <time>2016-05-06T16:24:00Z</time>
      </trkpt>
      <trkpt lat="44.3137" lon="5.70021">
        <ele>700.40002441406</ele>
        <time>2016-05-06T16:24:11Z</time>
      </trkpt>
      <trkpt lat="44.31361" lon="5.69968">
        <ele>700.40002441406</ele>
        <time>2016-05-06T16:24:18Z</time>
      </trkpt>
      <trkpt lat="44.31349" lon="5.69908">
        <ele>700.40002441406</ele>
        <time>2016-05-06T16:24:25Z</time>
      </trkpt>
      <trkpt lat="44.31331" lon="5.69835">
        <ele>700.40002441406</ele>
        <time>2016-05-06T16:24:34Z</time>
      </trkpt>
      <trkpt lat="44.31326" lon="5.69809">
        <ele>700.40002441406</ele>
        <time>2016-05-06T16:24:37Z</time>
      </trkpt>
      <trkpt lat="44.31324" lon="5.69792">
        <ele>700.40002441406</ele>
        <time>2016-05-06T16:24:39Z</time>
      </trkpt>
      <trkpt lat="44.31323" lon="5.69758">
        <ele>700.40002441406</ele>
        <time>2016-05-06T16:24:43Z</time>
      </trkpt>
      <trkpt lat="44.31326" lon="5.69681">
        <ele>700.40002441406</ele>
        <time>2016-05-06T16:24:52Z</time>
      </trkpt>
      <trkpt lat="44.31326" lon="5.69672">
        <ele>700.40002441406</ele>
        <time>2016-05-06T16:24:53Z</time>
      </trkpt>
      <trkpt lat="44.31329" lon="5.69607">
        <ele>700.40002441406</ele>
        <time>2016-05-06T16:25:01Z</time>
      </trkpt>
      <trkpt lat="44.31334" lon="5.69541">
        <ele>700.40002441406</ele>
        <time>2016-05-06T16:25:09Z</time>
      </trkpt>
      <trkpt lat="44.31349" lon="5.69473">
        <ele>700.40002441406</ele>
        <time>2016-05-06T16:25:17Z</time>
      </trkpt>
      <trkpt lat="44.31353" lon="5.69457">
        <ele>701.40002441406</ele>
        <time>2016-05-06T16:25:19Z</time>
      </trkpt>
      <trkpt lat="44.31356" lon="5.69433">
        <ele>701.40002441406</ele>
        <time>2016-05-06T16:25:22Z</time>
      </trkpt>
      <trkpt lat="44.31358" lon="5.69416">
        <ele>701.40002441406</ele>
        <time>2016-05-06T16:25:24Z</time>
      </trkpt>
      <trkpt lat="44.31353" lon="5.69347">
        <ele>701.40002441406</ele>
        <time>2016-05-06T16:25:33Z</time>
      </trkpt>
      <trkpt lat="44.31348" lon="5.69281">
        <ele>701.40002441406</ele>
        <time>2016-05-06T16:25:43Z</time>
      </trkpt>
      <trkpt lat="44.31355" lon="5.69263">
        <ele>701.40002441406</ele>
        <time>2016-05-06T16:25:49Z</time>
      </trkpt>
      <trkpt lat="44.3136" lon="5.69268">
        <ele>701.40002441406</ele>
        <time>2016-05-06T16:25:50Z</time>
      </trkpt>
      <trkpt lat="44.31364" lon="5.69271">
        <ele>701.40002441406</ele>
        <time>2016-05-06T16:25:51Z</time>
      </trkpt>
      <trkpt lat="44.3137" lon="5.69294">
        <ele>701.40002441406</ele>
        <time>2016-05-06T16:25:58Z</time>
      </trkpt>
      <trkpt lat="44.31371" lon="5.69304">
        <ele>701.40002441406</ele>
        <time>2016-05-06T16:26:01Z</time>
      </trkpt>
      <trkpt lat="44.31372" lon="5.6931">
        <ele>701.40002441406</ele>
        <time>2016-05-06T16:26:03Z</time>
      </trkpt>
      <trkpt lat="44.31372" lon="5.69336">
        <ele>701.40002441406</ele>
        <time>2016-05-06T16:26:11Z</time>
      </trkpt>
      <trkpt lat="44.3138" lon="5.69337">
        <ele>701.40002441406</ele>
        <time>2016-05-06T16:26:15Z</time>
      </trkpt>
      <trkpt lat="44.31382" lon="5.69336">
        <ele>701.40002441406</ele>
        <time>2016-05-06T16:26:16Z</time>
      </trkpt>
      <trkpt lat="44.3138" lon="5.69327">
        <ele>701.40002441406</ele>
        <time>2016-05-06T16:26:21Z</time>
      </trkpt>
      <trkpt lat="44.31378" lon="5.69323">
        <ele>701.40002441406</ele>
        <time>2016-05-06T16:26:23Z</time>
      </trkpt>
      <trkpt lat="44.31374" lon="5.69319">
        <ele>701.40002441406</ele>
        <time>2016-05-06T16:26:25Z</time>
      </trkpt>
      <trkpt lat="44.31371" lon="5.69301">
        <ele>701.40002441406</ele>
        <time>2016-05-06T16:26:28Z</time>
      </trkpt>
      <trkpt lat="44.31367" lon="5.69286">
        <ele>706.59997558594</ele>
        <time>2016-05-06T16:26:31Z</time>
      </trkpt>
      <trkpt lat="44.3136" lon="5.69273">
        <ele>706.59997558594</ele>
        <time>2016-05-06T16:26:37Z</time>
      </trkpt>
      <trkpt lat="44.31349" lon="5.69269">
        <ele>706.59997558594</ele>
        <time>2016-05-06T16:26:42Z</time>
      </trkpt>
      <trkpt lat="44.31335" lon="5.69245">
        <ele>706.59997558594</ele>
        <time>2016-05-06T16:26:49Z</time>
      </trkpt>
      <trkpt lat="44.31334" lon="5.69239">
        <ele>706.59997558594</ele>
        <time>2016-05-06T16:26:53Z</time>
      </trkpt>
      <trkpt lat="44.31332" lon="5.69235">
        <ele>706.59997558594</ele>
        <time>2016-05-06T16:27:15Z</time>
      </trkpt>
      <trkpt lat="44.31331" lon="5.69233">
        <ele>706.59997558594</ele>
        <time>2016-05-06T16:27:24Z</time>
      </trkpt>
      <trkpt lat="44.31333" lon="5.69234">
        <ele>709.20001220703</ele>
        <time>2016-05-06T16:28:03Z</time>
      </trkpt>
      <trkpt lat="44.31336" lon="5.69236">
        <ele>709.20001220703</ele>
        <time>2016-05-06T16:28:10Z</time>
      </trkpt>
      <trkpt lat="44.31341" lon="5.69243">
        <ele>709.20001220703</ele>
        <time>2016-05-06T16:28:11Z</time>
      </trkpt>
      <trkpt lat="44.31345" lon="5.69262">
        <ele>709.20001220703</ele>
        <time>2016-05-06T16:28:15Z</time>
      </trkpt>
      <trkpt lat="44.31345" lon="5.69276">
        <ele>709.20001220703</ele>
        <time>2016-05-06T16:28:18Z</time>
      </trkpt>
      <trkpt lat="44.31345" lon="5.69284">
        <ele>709.20001220703</ele>
        <time>2016-05-06T16:28:20Z</time>
      </trkpt>
      <trkpt lat="44.31349" lon="5.69319">
        <ele>709.20001220703</ele>
        <time>2016-05-06T16:28:28Z</time>
      </trkpt>
      <trkpt lat="44.31353" lon="5.69357">
        <ele>709.20001220703</ele>
        <time>2016-05-06T16:28:36Z</time>
      </trkpt>
      <trkpt lat="44.31356" lon="5.69412">
        <ele>709.20001220703</ele>
        <time>2016-05-06T16:28:47Z</time>
      </trkpt>
      <trkpt lat="44.31351" lon="5.69426">
        <ele>709.20001220703</ele>
        <time>2016-05-06T16:28:52Z</time>
      </trkpt>
      <trkpt lat="44.31339" lon="5.69433">
        <ele>709.20001220703</ele>
        <time>2016-05-06T16:28:56Z</time>
      </trkpt>
      <trkpt lat="44.31314" lon="5.69443">
        <ele>709.20001220703</ele>
        <time>2016-05-06T16:29:01Z</time>
      </trkpt>
      <trkpt lat="44.31293" lon="5.6945">
        <ele>709.20001220703</ele>
        <time>2016-05-06T16:29:07Z</time>
      </trkpt>
      <trkpt lat="44.3129" lon="5.69448">
        <ele>709.59997558594</ele>
        <time>2016-05-06T16:29:10Z</time>
      </trkpt>
      <trkpt lat="44.31287" lon="5.69441">
        <ele>709.59997558594</ele>
        <time>2016-05-06T16:29:12Z</time>
      </trkpt>
      <trkpt lat="44.31287" lon="5.69419">
        <ele>709.59997558594</ele>
        <time>2016-05-06T16:29:17Z</time>
      </trkpt>
      <trkpt lat="44.31285" lon="5.69412">
        <ele>709.59997558594</ele>
        <time>2016-05-06T16:29:21Z</time>
      </trkpt>
      <trkpt lat="44.31284" lon="5.69399">
        <ele>709.59997558594</ele>
        <time>2016-05-06T16:29:28Z</time>
      </trkpt>
      <trkpt lat="44.31281" lon="5.69388">
        <ele>709.59997558594</ele>
        <time>2016-05-06T16:29:33Z</time>
      </trkpt>
      <trkpt lat="44.31281" lon="5.69389">
        <ele>709.59997558594</ele>
        <time>2016-05-06T16:29:45Z</time>
      </trkpt>
    </trkseg>
  </trk>
</gpx>